<?xml version="1.0" encoding="UTF-8" standalone="no" ?><gpx xmlns="http://www.topografix.com/GPX/1/1" xmlns:gpxx="http://www.garmin.com/xmlschemas/GpxExtensions/v3" xmlns:gpxtpx="http://www.garmin.com/xmlschemas/TrackPointExtension/v1" creator="nüvi 205" version="1.1" xmlns:xsi="http://www.w3.org/2001/XMLSchema-instance" xsi:schemaLocation="http://www.topografix.com/GPX/1/1 http://www.topografix.com/GPX/1/1/gpx.xsd http://www.garmin.com/xmlschemas/GpxExtensions/v3 http://www.garmin.com/xmlschemas/GpxExtensionsv3.xsd"><metadata><link href="http://www.garmin.com"><text>Garmin International</text></link><time>2010-10-11T10:03:34Z</time></metadata><trk><name>ACTIVE LOG: 09 окт 2010 13:25</name><trkseg><trkpt lat="43.521607" lon="3.757383"><ele>63.10</ele><time>2010-10-09T11:25:09Z</time></trkpt><trkpt lat="43.519779" lon="3.753791"><ele>64.07</ele><time>2010-10-09T11:25:20Z</time></trkpt><trkpt lat="43.518043" lon="3.751114"><ele>65.99</ele><time>2010-10-09T11:25:29Z</time></trkpt><trkpt lat="43.515937" lon="3.748650"><ele>70.31</ele><time>2010-10-09T11:25:38Z</time></trkpt><trkpt lat="43.512522" lon="3.745404"><ele>78.48</ele><time>2010-10-09T11:25:51Z</time></trkpt><trkpt lat="43.509944" lon="3.742441"><ele>81.85</ele><time>2010-10-09T11:26:02Z</time></trkpt><trkpt lat="43.507644" lon="3.738914"><ele>82.81</ele><time>2010-10-09T11:26:13Z</time></trkpt><trkpt lat="43.505631" lon="3.735443"><ele>83.29</ele><time>2010-10-09T11:26:24Z</time></trkpt><trkpt lat="43.502954" lon="3.730890"><ele>82.33</ele><time>2010-10-09T11:26:39Z</time></trkpt><trkpt lat="43.500275" lon="3.726908"><ele>82.33</ele><time>2010-10-09T11:26:52Z</time></trkpt><trkpt lat="43.497279" lon="3.723278"><ele>78.48</ele><time>2010-10-09T11:27:05Z</time></trkpt><trkpt lat="43.493114" lon="3.718837"><ele>66.47</ele><time>2010-10-09T11:27:23Z</time></trkpt><trkpt lat="43.490644" lon="3.715679"><ele>58.78</ele><time>2010-10-09T11:27:34Z</time></trkpt><trkpt lat="43.488812" lon="3.712421"><ele>52.53</ele><time>2010-10-09T11:27:43Z</time></trkpt><trkpt lat="43.487371" lon="3.708635"><ele>46.76</ele><time>2010-10-09T11:27:52Z</time></trkpt><trkpt lat="43.486539" lon="3.705238"><ele>41.47</ele><time>2010-10-09T11:28:00Z</time></trkpt><trkpt lat="43.485717" lon="3.700742"><ele>35.23</ele><time>2010-10-09T11:28:12Z</time></trkpt><trkpt lat="43.484531" lon="3.694661"><ele>28.02</ele><time>2010-10-09T11:28:28Z</time></trkpt><trkpt lat="43.483646" lon="3.691626"><ele>26.09</ele><time>2010-10-09T11:28:37Z</time></trkpt><trkpt lat="43.482470" lon="3.687718"><ele>25.61</ele><time>2010-10-09T11:28:49Z</time></trkpt><trkpt lat="43.481073" lon="3.682821"><ele>26.09</ele><time>2010-10-09T11:29:03Z</time></trkpt><trkpt lat="43.480345" lon="3.679009"><ele>25.61</ele><time>2010-10-09T11:29:13Z</time></trkpt><trkpt lat="43.480082" lon="3.675397"><ele>27.53</ele><time>2010-10-09T11:29:22Z</time></trkpt><trkpt lat="43.479903" lon="3.671714"><ele>32.34</ele><time>2010-10-09T11:29:32Z</time></trkpt><trkpt lat="43.479676" lon="3.665873"><ele>41.95</ele><time>2010-10-09T11:29:47Z</time></trkpt><trkpt lat="43.479130" lon="3.661000"><ele>52.05</ele><time>2010-10-09T11:29:59Z</time></trkpt><trkpt lat="43.478133" lon="3.657014"><ele>60.22</ele><time>2010-10-09T11:30:09Z</time></trkpt><trkpt lat="43.476803" lon="3.653551"><ele>66.47</ele><time>2010-10-09T11:30:18Z</time></trkpt><trkpt lat="43.474885" lon="3.649640"><ele>72.24</ele><time>2010-10-09T11:30:29Z</time></trkpt><trkpt lat="43.472231" lon="3.644571"><ele>75.60</ele><time>2010-10-09T11:30:43Z</time></trkpt><trkpt lat="43.469037" lon="3.639128"><ele>77.52</ele><time>2010-10-09T11:30:58Z</time></trkpt><trkpt lat="43.465866" lon="3.633994"><ele>79.45</ele><time>2010-10-09T11:31:13Z</time></trkpt><trkpt lat="43.463847" lon="3.630189"><ele>80.41</ele><time>2010-10-09T11:31:24Z</time></trkpt><trkpt lat="43.462498" lon="3.626367"><ele>78.48</ele><time>2010-10-09T11:31:34Z</time></trkpt><trkpt lat="43.461694" lon="3.622989"><ele>72.72</ele><time>2010-10-09T11:31:43Z</time></trkpt><trkpt lat="43.460569" lon="3.618368"><ele>64.55</ele><time>2010-10-09T11:31:55Z</time></trkpt><trkpt lat="43.459108" lon="3.614226"><ele>55.41</ele><time>2010-10-09T11:32:06Z</time></trkpt><trkpt lat="43.457446" lon="3.610490"><ele>47.72</ele><time>2010-10-09T11:32:16Z</time></trkpt><trkpt lat="43.455103" lon="3.606710"><ele>38.11</ele><time>2010-10-09T11:32:27Z</time></trkpt><trkpt lat="43.453417" lon="3.603306"><ele>29.94</ele><time>2010-10-09T11:32:36Z</time></trkpt><trkpt lat="43.452194" lon="3.599533"><ele>25.13</ele><time>2010-10-09T11:32:45Z</time></trkpt><trkpt lat="43.451395" lon="3.595632"><ele>25.13</ele><time>2010-10-09T11:32:54Z</time></trkpt><trkpt lat="43.450710" lon="3.589600"><ele>29.46</ele><time>2010-10-09T11:33:08Z</time></trkpt><trkpt lat="43.450012" lon="3.584877"><ele>34.26</ele><time>2010-10-09T11:33:20Z</time></trkpt><trkpt lat="43.449103" lon="3.581622"><ele>37.63</ele><time>2010-10-09T11:33:29Z</time></trkpt><trkpt lat="43.447731" lon="3.578614"><ele>38.59</ele><time>2010-10-09T11:33:38Z</time></trkpt><trkpt lat="43.445855" lon="3.576009"><ele>37.63</ele><time>2010-10-09T11:33:47Z</time></trkpt><trkpt lat="43.442559" lon="3.572455"><ele>33.78</ele><time>2010-10-09T11:34:01Z</time></trkpt><trkpt lat="43.440045" lon="3.569841"><ele>33.30</ele><time>2010-10-09T11:34:12Z</time></trkpt><trkpt lat="43.436448" lon="3.566252"><ele>35.23</ele><time>2010-10-09T11:34:28Z</time></trkpt><trkpt lat="43.433796" lon="3.564294"><ele>35.71</ele><time>2010-10-09T11:34:38Z</time></trkpt><trkpt lat="43.430658" lon="3.561935"><ele>32.34</ele><time>2010-10-09T11:34:49Z</time></trkpt><trkpt lat="43.428833" lon="3.560020"><ele>29.46</ele><time>2010-10-09T11:34:56Z</time></trkpt><trkpt lat="43.427226" lon="3.557548"><ele>24.65</ele><time>2010-10-09T11:35:04Z</time></trkpt><trkpt lat="43.425230" lon="3.553529"><ele>19.84</ele><time>2010-10-09T11:35:16Z</time></trkpt><trkpt lat="43.424055" lon="3.550196"><ele>20.32</ele><time>2010-10-09T11:35:25Z</time></trkpt><trkpt lat="43.423333" lon="3.546553"><ele>24.17</ele><time>2010-10-09T11:35:34Z</time></trkpt><trkpt lat="43.422539" lon="3.541735"><ele>30.42</ele><time>2010-10-09T11:35:47Z</time></trkpt><trkpt lat="43.421688" lon="3.537299"><ele>39.07</ele><time>2010-10-09T11:35:59Z</time></trkpt><trkpt lat="43.420722" lon="3.533393"><ele>46.76</ele><time>2010-10-09T11:36:10Z</time></trkpt><trkpt lat="43.419407" lon="3.528611"><ele>54.93</ele><time>2010-10-09T11:36:23Z</time></trkpt><trkpt lat="43.418011" lon="3.524901"><ele>56.37</ele><time>2010-10-09T11:36:33Z</time></trkpt><trkpt lat="43.416366" lon="3.521228"><ele>54.93</ele><time>2010-10-09T11:36:44Z</time></trkpt><trkpt lat="43.414070" lon="3.516175"><ele>50.61</ele><time>2010-10-09T11:36:59Z</time></trkpt><trkpt lat="43.412114" lon="3.511488"><ele>45.32</ele><time>2010-10-09T11:37:12Z</time></trkpt><trkpt lat="43.410427" lon="3.506509"><ele>45.32</ele><time>2010-10-09T11:37:25Z</time></trkpt><trkpt lat="43.409308" lon="3.502564"><ele>48.68</ele><time>2010-10-09T11:37:36Z</time></trkpt><trkpt lat="43.408289" lon="3.497524"><ele>52.05</ele><time>2010-10-09T11:37:50Z</time></trkpt><trkpt lat="43.407431" lon="3.492483"><ele>55.41</ele><time>2010-10-09T11:38:03Z</time></trkpt><trkpt lat="43.406459" lon="3.488033"><ele>56.37</ele><time>2010-10-09T11:38:14Z</time></trkpt><trkpt lat="43.405221" lon="3.484149"><ele>56.37</ele><time>2010-10-09T11:38:24Z</time></trkpt><trkpt lat="43.403629" lon="3.480568"><ele>55.41</ele><time>2010-10-09T11:38:34Z</time></trkpt><trkpt lat="43.401472" lon="3.476860"><ele>52.05</ele><time>2010-10-09T11:38:46Z</time></trkpt><trkpt lat="43.399216" lon="3.473182"><ele>46.28</ele><time>2010-10-09T11:38:58Z</time></trkpt><trkpt lat="43.395970" lon="3.467987"><ele>35.71</ele><time>2010-10-09T11:39:15Z</time></trkpt><trkpt lat="43.393495" lon="3.464099"><ele>26.09</ele><time>2010-10-09T11:39:28Z</time></trkpt><trkpt lat="43.391372" lon="3.461174"><ele>19.36</ele><time>2010-10-09T11:39:39Z</time></trkpt><trkpt lat="43.388827" lon="3.457994"><ele>15.52</ele><time>2010-10-09T11:39:51Z</time></trkpt><trkpt lat="43.385570" lon="3.453907"><ele>15.52</ele><time>2010-10-09T11:40:06Z</time></trkpt><trkpt lat="43.381958" lon="3.449217"><ele>16.00</ele><time>2010-10-09T11:40:23Z</time></trkpt><trkpt lat="43.380173" lon="3.446138"><ele>15.52</ele><time>2010-10-09T11:40:33Z</time></trkpt><trkpt lat="43.378620" lon="3.442325"><ele>15.52</ele><time>2010-10-09T11:40:44Z</time></trkpt><trkpt lat="43.377492" lon="3.438296"><ele>17.92</ele><time>2010-10-09T11:40:55Z</time></trkpt><trkpt lat="43.376831" lon="3.434033"><ele>20.32</ele><time>2010-10-09T11:41:06Z</time></trkpt><trkpt lat="43.376642" lon="3.429936"><ele>23.21</ele><time>2010-10-09T11:41:16Z</time></trkpt><trkpt lat="43.376730" lon="3.424945"><ele>26.57</ele><time>2010-10-09T11:41:28Z</time></trkpt><trkpt lat="43.376874" lon="3.419384"><ele>30.90</ele><time>2010-10-09T11:41:42Z</time></trkpt><trkpt lat="43.376813" lon="3.415349"><ele>32.82</ele><time>2010-10-09T11:41:52Z</time></trkpt><trkpt lat="43.376429" lon="3.411691"><ele>34.26</ele><time>2010-10-09T11:42:01Z</time></trkpt><trkpt lat="43.375704" lon="3.407959"><ele>34.26</ele><time>2010-10-09T11:42:10Z</time></trkpt><trkpt lat="43.374291" lon="3.403467"><ele>34.26</ele><time>2010-10-09T11:42:21Z</time></trkpt><trkpt lat="43.372402" lon="3.399215"><ele>32.34</ele><time>2010-10-09T11:42:32Z</time></trkpt><trkpt lat="43.369904" lon="3.394176"><ele>29.46</ele><time>2010-10-09T11:42:46Z</time></trkpt><trkpt lat="43.367732" lon="3.389794"><ele>28.50</ele><time>2010-10-09T11:42:59Z</time></trkpt><trkpt lat="43.365591" lon="3.384907"><ele>32.34</ele><time>2010-10-09T11:43:12Z</time></trkpt><trkpt lat="43.364121" lon="3.380322"><ele>38.59</ele><time>2010-10-09T11:43:23Z</time></trkpt><trkpt lat="43.363169" lon="3.375887"><ele>43.40</ele><time>2010-10-09T11:43:33Z</time></trkpt><trkpt lat="43.362609" lon="3.370785"><ele>48.68</ele><time>2010-10-09T11:43:44Z</time></trkpt><trkpt lat="43.362449" lon="3.366700"><ele>51.09</ele><time>2010-10-09T11:43:53Z</time></trkpt><trkpt lat="43.362295" lon="3.358103"><ele>47.72</ele><time>2010-10-09T11:44:12Z</time></trkpt><trkpt lat="43.362005" lon="3.352967"><ele>45.32</ele><time>2010-10-09T11:44:23Z</time></trkpt><trkpt lat="43.361248" lon="3.348907"><ele>42.92</ele><time>2010-10-09T11:44:32Z</time></trkpt><trkpt lat="43.360040" lon="3.345174"><ele>40.51</ele><time>2010-10-09T11:44:41Z</time></trkpt><trkpt lat="43.358373" lon="3.341764"><ele>38.11</ele><time>2010-10-09T11:44:50Z</time></trkpt><trkpt lat="43.356603" lon="3.339075"><ele>36.19</ele><time>2010-10-09T11:44:58Z</time></trkpt><trkpt lat="43.354056" lon="3.336227"><ele>31.86</ele><time>2010-10-09T11:45:08Z</time></trkpt><trkpt lat="43.350993" lon="3.333020"><ele>31.38</ele><time>2010-10-09T11:45:20Z</time></trkpt><trkpt lat="43.348631" lon="3.329879"><ele>33.78</ele><time>2010-10-09T11:45:30Z</time></trkpt><trkpt lat="43.346815" lon="3.326501"><ele>37.15</ele><time>2010-10-09T11:45:39Z</time></trkpt><trkpt lat="43.345410" lon="3.322582"><ele>40.03</ele><time>2010-10-09T11:45:48Z</time></trkpt><trkpt lat="43.344284" lon="3.318061"><ele>43.40</ele><time>2010-10-09T11:45:58Z</time></trkpt><trkpt lat="43.342551" lon="3.310495"><ele>46.76</ele><time>2010-10-09T11:46:16Z</time></trkpt><trkpt lat="43.341040" lon="3.303963"><ele>46.28</ele><time>2010-10-09T11:46:31Z</time></trkpt><trkpt lat="43.339380" lon="3.296917"><ele>42.92</ele><time>2010-10-09T11:46:47Z</time></trkpt><trkpt lat="43.338114" lon="3.292565"><ele>40.99</ele><time>2010-10-09T11:46:57Z</time></trkpt><trkpt lat="43.336403" lon="3.288560"><ele>39.07</ele><time>2010-10-09T11:47:07Z</time></trkpt><trkpt lat="43.334383" lon="3.285103"><ele>36.19</ele><time>2010-10-09T11:47:17Z</time></trkpt><trkpt lat="43.331144" lon="3.280416"><ele>32.34</ele><time>2010-10-09T11:47:31Z</time></trkpt><trkpt lat="43.327044" lon="3.274696"><ele>26.57</ele><time>2010-10-09T11:47:48Z</time></trkpt><trkpt lat="43.323562" lon="3.269832"><ele>21.77</ele><time>2010-10-09T11:48:02Z</time></trkpt><trkpt lat="43.320731" lon="3.265875"><ele>17.92</ele><time>2010-10-09T11:48:14Z</time></trkpt><trkpt lat="43.316579" lon="3.259978"><ele>15.52</ele><time>2010-10-09T11:48:32Z</time></trkpt><trkpt lat="43.312865" lon="3.254516"><ele>15.52</ele><time>2010-10-09T11:48:48Z</time></trkpt><trkpt lat="43.310670" lon="3.250682"><ele>15.04</ele><time>2010-10-09T11:48:59Z</time></trkpt><trkpt lat="43.308566" lon="3.246084"><ele>15.04</ele><time>2010-10-09T11:49:12Z</time></trkpt><trkpt lat="43.306854" lon="3.241177"><ele>15.52</ele><time>2010-10-09T11:49:25Z</time></trkpt><trkpt lat="43.305632" lon="3.236523"><ele>17.44</ele><time>2010-10-09T11:49:37Z</time></trkpt><trkpt lat="43.304678" lon="3.231137"><ele>25.61</ele><time>2010-10-09T11:49:50Z</time></trkpt><trkpt lat="43.303966" lon="3.225550"><ele>34.74</ele><time>2010-10-09T11:50:03Z</time></trkpt><trkpt lat="43.303038" lon="3.218662"><ele>45.32</ele><time>2010-10-09T11:50:20Z</time></trkpt><trkpt lat="43.301819" lon="3.213296"><ele>48.20</ele><time>2010-10-09T11:50:33Z</time></trkpt><trkpt lat="43.300218" lon="3.208409"><ele>50.61</ele><time>2010-10-09T11:50:45Z</time></trkpt><trkpt lat="43.298414" lon="3.204162"><ele>48.68</ele><time>2010-10-09T11:50:56Z</time></trkpt><trkpt lat="43.296031" lon="3.199805"><ele>44.84</ele><time>2010-10-09T11:51:08Z</time></trkpt><trkpt lat="43.293383" lon="3.196028"><ele>40.99</ele><time>2010-10-09T11:51:20Z</time></trkpt><trkpt lat="43.290507" lon="3.192754"><ele>34.74</ele><time>2010-10-09T11:51:32Z</time></trkpt><trkpt lat="43.287160" lon="3.189751"><ele>28.98</ele><time>2010-10-09T11:51:45Z</time></trkpt><trkpt lat="43.284122" lon="3.187641"><ele>25.13</ele><time>2010-10-09T11:51:56Z</time></trkpt><trkpt lat="43.280410" lon="3.185562"><ele>23.69</ele><time>2010-10-09T11:52:09Z</time></trkpt><trkpt lat="43.275125" lon="3.182681"><ele>31.86</ele><time>2010-10-09T11:52:28Z</time></trkpt><trkpt lat="43.271077" lon="3.180161"><ele>40.51</ele><time>2010-10-09T11:52:42Z</time></trkpt><trkpt lat="43.267915" lon="3.177606"><ele>46.76</ele><time>2010-10-09T11:52:53Z</time></trkpt><trkpt lat="43.264797" lon="3.174409"><ele>43.40</ele><time>2010-10-09T11:53:04Z</time></trkpt><trkpt lat="43.261848" lon="3.170761"><ele>36.67</ele><time>2010-10-09T11:53:15Z</time></trkpt><trkpt lat="43.259747" lon="3.167844"><ele>30.42</ele><time>2010-10-09T11:53:24Z</time></trkpt><trkpt lat="43.255906" lon="3.162442"><ele>20.32</ele><time>2010-10-09T11:53:41Z</time></trkpt><trkpt lat="43.253196" lon="3.159264"><ele>13.60</ele><time>2010-10-09T11:53:52Z</time></trkpt><trkpt lat="43.250170" lon="3.155956"><ele>11.19</ele><time>2010-10-09T11:54:05Z</time></trkpt><trkpt lat="43.246237" lon="3.151714"><ele>11.19</ele><time>2010-10-09T11:54:22Z</time></trkpt><trkpt lat="43.242969" lon="3.148236"><ele>13.60</ele><time>2010-10-09T11:54:36Z</time></trkpt><trkpt lat="43.239598" lon="3.144499"><ele>22.25</ele><time>2010-10-09T11:54:51Z</time></trkpt><trkpt lat="43.237294" lon="3.141218"><ele>28.98</ele><time>2010-10-09T11:55:02Z</time></trkpt><trkpt lat="43.235335" lon="3.137740"><ele>31.86</ele><time>2010-10-09T11:55:12Z</time></trkpt><trkpt lat="43.233470" lon="3.133314"><ele>32.82</ele><time>2010-10-09T11:55:23Z</time></trkpt><trkpt lat="43.232130" lon="3.128957"><ele>35.23</ele><time>2010-10-09T11:55:33Z</time></trkpt><trkpt lat="43.231230" lon="3.124254"><ele>38.59</ele><time>2010-10-09T11:55:44Z</time></trkpt><trkpt lat="43.230415" lon="3.117397"><ele>52.05</ele><time>2010-10-09T11:56:00Z</time></trkpt><trkpt lat="43.229478" lon="3.109989"><ele>56.37</ele><time>2010-10-09T11:56:18Z</time></trkpt><trkpt lat="43.228499" lon="3.105916"><ele>55.89</ele><time>2010-10-09T11:56:28Z</time></trkpt><trkpt lat="43.227117" lon="3.102420"><ele>55.89</ele><time>2010-10-09T11:56:37Z</time></trkpt><trkpt lat="43.225296" lon="3.099200"><ele>53.97</ele><time>2010-10-09T11:56:46Z</time></trkpt><trkpt lat="43.223157" lon="3.096432"><ele>47.24</ele><time>2010-10-09T11:56:55Z</time></trkpt><trkpt lat="43.220523" lon="3.094047"><ele>39.07</ele><time>2010-10-09T11:57:05Z</time></trkpt><trkpt lat="43.217937" lon="3.092470"><ele>36.19</ele><time>2010-10-09T11:57:14Z</time></trkpt><trkpt lat="43.213998" lon="3.090623"><ele>33.30</ele><time>2010-10-09T11:57:27Z</time></trkpt><trkpt lat="43.210440" lon="3.088614"><ele>35.23</ele><time>2010-10-09T11:57:39Z</time></trkpt><trkpt lat="43.208325" lon="3.086842"><ele>41.95</ele><time>2010-10-09T11:57:47Z</time></trkpt><trkpt lat="43.204889" lon="3.083260"><ele>52.05</ele><time>2010-10-09T11:58:01Z</time></trkpt><trkpt lat="43.201964" lon="3.080525"><ele>50.13</ele><time>2010-10-09T11:58:12Z</time></trkpt><trkpt lat="43.198971" lon="3.077758"><ele>40.99</ele><time>2010-10-09T11:58:23Z</time></trkpt><trkpt lat="43.195717" lon="3.074254"><ele>26.09</ele><time>2010-10-09T11:58:36Z</time></trkpt><trkpt lat="43.192553" lon="3.070098"><ele>17.92</ele><time>2010-10-09T11:58:50Z</time></trkpt><trkpt lat="43.189683" lon="3.065527"><ele>15.52</ele><time>2010-10-09T11:59:04Z</time></trkpt><trkpt lat="43.187135" lon="3.060544"><ele>13.12</ele><time>2010-10-09T11:59:18Z</time></trkpt><trkpt lat="43.184945" lon="3.055299"><ele>12.63</ele><time>2010-10-09T11:59:32Z</time></trkpt><trkpt lat="43.182820" lon="3.049034"><ele>12.63</ele><time>2010-10-09T11:59:48Z</time></trkpt><trkpt lat="43.180936" lon="3.044290"><ele>13.12</ele><time>2010-10-09T12:00:01Z</time></trkpt><trkpt lat="43.178143" lon="3.038256"><ele>13.60</ele><time>2010-10-09T12:00:19Z</time></trkpt><trkpt lat="43.176302" lon="3.033744"><ele>13.60</ele><time>2010-10-09T12:00:31Z</time></trkpt><trkpt lat="43.175015" lon="3.029895"><ele>13.60</ele><time>2010-10-09T12:00:41Z</time></trkpt><trkpt lat="43.173321" lon="3.024297"><ele>13.60</ele><time>2010-10-09T12:00:56Z</time></trkpt><trkpt lat="43.171509" lon="3.018200"><ele>14.08</ele><time>2010-10-09T12:01:11Z</time></trkpt><trkpt lat="43.169635" lon="3.011891"><ele>15.04</ele><time>2010-10-09T12:01:27Z</time></trkpt><trkpt lat="43.167400" lon="3.004328"><ele>19.84</ele><time>2010-10-09T12:01:45Z</time></trkpt><trkpt lat="43.165396" lon="2.998043"><ele>22.73</ele><time>2010-10-09T12:02:00Z</time></trkpt><trkpt lat="43.164034" lon="2.995385"><ele>20.81</ele><time>2010-10-09T12:02:08Z</time></trkpt><trkpt lat="43.161952" lon="2.992361"><ele>21.77</ele><time>2010-10-09T12:02:18Z</time></trkpt><trkpt lat="43.159604" lon="2.989752"><ele>21.77</ele><time>2010-10-09T12:02:28Z</time></trkpt><trkpt lat="43.157086" lon="2.987518"><ele>19.36</ele><time>2010-10-09T12:02:38Z</time></trkpt><trkpt lat="43.155010" lon="2.986000"><ele>17.92</ele><time>2010-10-09T12:02:47Z</time></trkpt><trkpt lat="43.152929" lon="2.984456"><ele>16.96</ele><time>2010-10-09T12:02:57Z</time></trkpt><trkpt lat="43.151987" lon="2.983301"><ele>17.92</ele><time>2010-10-09T12:03:03Z</time></trkpt><trkpt lat="43.151472" lon="2.981710"><ele>22.25</ele><time>2010-10-09T12:03:09Z</time></trkpt><trkpt lat="43.151472" lon="2.980062"><ele>25.61</ele><time>2010-10-09T12:03:15Z</time></trkpt><trkpt lat="43.151846" lon="2.977261"><ele>27.05</ele><time>2010-10-09T12:03:24Z</time></trkpt><trkpt lat="43.152330" lon="2.973858"><ele>32.34</ele><time>2010-10-09T12:03:33Z</time></trkpt><trkpt lat="43.153360" lon="2.964867"><ele>56.37</ele><time>2010-10-09T12:03:55Z</time></trkpt><trkpt lat="43.153953" lon="2.959706"><ele>71.27</ele><time>2010-10-09T12:04:08Z</time></trkpt><trkpt lat="43.154619" lon="2.956208"><ele>79.45</ele><time>2010-10-09T12:04:17Z</time></trkpt><trkpt lat="43.155659" lon="2.953652"><ele>84.73</ele><time>2010-10-09T12:04:24Z</time></trkpt><trkpt lat="43.157342" lon="2.951077"><ele>91.94</ele><time>2010-10-09T12:04:32Z</time></trkpt><trkpt lat="43.159172" lon="2.948031"><ele>99.63</ele><time>2010-10-09T12:04:41Z</time></trkpt><trkpt lat="43.160111" lon="2.945184"><ele>105.40</ele><time>2010-10-09T12:04:48Z</time></trkpt><trkpt lat="43.160488" lon="2.942516"><ele>109.25</ele><time>2010-10-09T12:04:54Z</time></trkpt><trkpt lat="43.160393" lon="2.939756"><ele>112.61</ele><time>2010-10-09T12:05:00Z</time></trkpt><trkpt lat="43.159801" lon="2.936665"><ele>113.09</ele><time>2010-10-09T12:05:07Z</time></trkpt><trkpt lat="43.159015" lon="2.932750"><ele>108.29</ele><time>2010-10-09T12:05:16Z</time></trkpt><trkpt lat="43.158923" lon="2.929883"><ele>101.08</ele><time>2010-10-09T12:05:23Z</time></trkpt><trkpt lat="43.159249" lon="2.927244"><ele>93.39</ele><time>2010-10-09T12:05:30Z</time></trkpt><trkpt lat="43.159860" lon="2.922945"><ele>82.33</ele><time>2010-10-09T12:05:41Z</time></trkpt><trkpt lat="43.159770" lon="2.920056"><ele>79.45</ele><time>2010-10-09T12:05:48Z</time></trkpt><trkpt lat="43.159160" lon="2.916499"><ele>84.25</ele><time>2010-10-09T12:05:57Z</time></trkpt><trkpt lat="43.157472" lon="2.907963"><ele>99.15</ele><time>2010-10-09T12:06:19Z</time></trkpt><trkpt lat="43.156382" lon="2.901556"><ele>108.77</ele><time>2010-10-09T12:06:35Z</time></trkpt><trkpt lat="43.156400" lon="2.898137"><ele>111.17</ele><time>2010-10-09T12:06:43Z</time></trkpt><trkpt lat="43.156484" lon="2.892831"><ele>107.32</ele><time>2010-10-09T12:06:55Z</time></trkpt><trkpt lat="43.155904" lon="2.889508"><ele>97.71</ele><time>2010-10-09T12:07:03Z</time></trkpt><trkpt lat="43.154931" lon="2.886807"><ele>86.66</ele><time>2010-10-09T12:07:10Z</time></trkpt><trkpt lat="43.153224" lon="2.883237"><ele>76.08</ele><time>2010-10-09T12:07:20Z</time></trkpt><trkpt lat="43.152285" lon="2.880188"><ele>70.79</ele><time>2010-10-09T12:07:28Z</time></trkpt><trkpt lat="43.151835" lon="2.877310"><ele>67.91</ele><time>2010-10-09T12:07:35Z</time></trkpt><trkpt lat="43.151878" lon="2.874365"><ele>65.99</ele><time>2010-10-09T12:07:42Z</time></trkpt><trkpt lat="43.152322" lon="2.871384"><ele>62.14</ele><time>2010-10-09T12:07:49Z</time></trkpt><trkpt lat="43.153231" lon="2.868624"><ele>59.74</ele><time>2010-10-09T12:07:56Z</time></trkpt><trkpt lat="43.155265" lon="2.863579"><ele>56.37</ele><time>2010-10-09T12:08:09Z</time></trkpt><trkpt lat="43.156864" lon="2.859720"><ele>53.97</ele><time>2010-10-09T12:08:19Z</time></trkpt><trkpt lat="43.158395" lon="2.856004"><ele>50.61</ele><time>2010-10-09T12:08:29Z</time></trkpt><trkpt lat="43.161055" lon="2.849535"><ele>46.28</ele><time>2010-10-09T12:08:47Z</time></trkpt><trkpt lat="43.163052" lon="2.844676"><ele>44.36</ele><time>2010-10-09T12:09:01Z</time></trkpt><trkpt lat="43.165153" lon="2.839516"><ele>42.92</ele><time>2010-10-09T12:09:15Z</time></trkpt><trkpt lat="43.166372" lon="2.835615"><ele>42.92</ele><time>2010-10-09T12:09:25Z</time></trkpt><trkpt lat="43.166875" lon="2.832225"><ele>43.40</ele><time>2010-10-09T12:09:33Z</time></trkpt><trkpt lat="43.167072" lon="2.828026"><ele>43.40</ele><time>2010-10-09T12:09:43Z</time></trkpt><trkpt lat="43.167403" lon="2.823138"><ele>43.40</ele><time>2010-10-09T12:09:55Z</time></trkpt><trkpt lat="43.167983" lon="2.818351"><ele>43.88</ele><time>2010-10-09T12:10:07Z</time></trkpt><trkpt lat="43.168871" lon="2.814157"><ele>42.92</ele><time>2010-10-09T12:10:18Z</time></trkpt><trkpt lat="43.170125" lon="2.809037"><ele>42.92</ele><time>2010-10-09T12:10:31Z</time></trkpt><trkpt lat="43.170915" lon="2.805121"><ele>44.84</ele><time>2010-10-09T12:10:41Z</time></trkpt><trkpt lat="43.171223" lon="2.801474"><ele>46.76</ele><time>2010-10-09T12:10:50Z</time></trkpt><trkpt lat="43.171073" lon="2.797360"><ele>47.72</ele><time>2010-10-09T12:11:00Z</time></trkpt><trkpt lat="43.170711" lon="2.792767"><ele>49.16</ele><time>2010-10-09T12:11:11Z</time></trkpt><trkpt lat="43.170423" lon="2.787679"><ele>50.13</ele><time>2010-10-09T12:11:23Z</time></trkpt><trkpt lat="43.170360" lon="2.783132"><ele>50.13</ele><time>2010-10-09T12:11:34Z</time></trkpt><trkpt lat="43.170393" lon="2.778195"><ele>51.09</ele><time>2010-10-09T12:11:46Z</time></trkpt><trkpt lat="43.170428" lon="2.771600"><ele>50.13</ele><time>2010-10-09T12:12:02Z</time></trkpt><trkpt lat="43.170469" lon="2.764115"><ele>50.13</ele><time>2010-10-09T12:12:20Z</time></trkpt><trkpt lat="43.170465" lon="2.758228"><ele>49.65</ele><time>2010-10-09T12:12:33Z</time></trkpt><trkpt lat="43.170403" lon="2.754338"><ele>50.13</ele><time>2010-10-09T12:12:42Z</time></trkpt><trkpt lat="43.170124" lon="2.750263"><ele>50.13</ele><time>2010-10-09T12:12:53Z</time></trkpt><trkpt lat="43.169618" lon="2.746235"><ele>49.65</ele><time>2010-10-09T12:13:05Z</time></trkpt><trkpt lat="43.168982" lon="2.741726"><ele>51.09</ele><time>2010-10-09T12:13:19Z</time></trkpt><trkpt lat="43.168454" lon="2.737540"><ele>52.53</ele><time>2010-10-09T12:13:30Z</time></trkpt><trkpt lat="43.167973" lon="2.732199"><ele>53.97</ele><time>2010-10-09T12:13:43Z</time></trkpt><trkpt lat="43.167745" lon="2.727892"><ele>54.93</ele><time>2010-10-09T12:13:53Z</time></trkpt><trkpt lat="43.167703" lon="2.722920"><ele>57.34</ele><time>2010-10-09T12:14:04Z</time></trkpt><trkpt lat="43.168002" lon="2.716618"><ele>58.78</ele><time>2010-10-09T12:14:19Z</time></trkpt><trkpt lat="43.168641" lon="2.711008"><ele>61.18</ele><time>2010-10-09T12:14:32Z</time></trkpt><trkpt lat="43.169490" lon="2.706237"><ele>64.07</ele><time>2010-10-09T12:14:43Z</time></trkpt><trkpt lat="43.170905" lon="2.700265"><ele>67.43</ele><time>2010-10-09T12:14:58Z</time></trkpt><trkpt lat="43.172520" lon="2.694223"><ele>71.76</ele><time>2010-10-09T12:15:13Z</time></trkpt><trkpt lat="43.173063" lon="2.690847"><ele>73.68</ele><time>2010-10-09T12:15:21Z</time></trkpt><trkpt lat="43.173142" lon="2.687492"><ele>74.64</ele><time>2010-10-09T12:15:29Z</time></trkpt><trkpt lat="43.172751" lon="2.683766"><ele>75.60</ele><time>2010-10-09T12:15:38Z</time></trkpt><trkpt lat="43.172290" lon="2.678660"><ele>76.56</ele><time>2010-10-09T12:15:50Z</time></trkpt><trkpt lat="43.172496" lon="2.675509"><ele>80.41</ele><time>2010-10-09T12:15:57Z</time></trkpt><trkpt lat="43.173226" lon="2.671647"><ele>85.69</ele><time>2010-10-09T12:16:06Z</time></trkpt><trkpt lat="43.174101" lon="2.666874"><ele>91.94</ele><time>2010-10-09T12:16:18Z</time></trkpt><trkpt lat="43.174382" lon="2.663530"><ele>95.79</ele><time>2010-10-09T12:16:26Z</time></trkpt><trkpt lat="43.174102" lon="2.659570"><ele>99.63</ele><time>2010-10-09T12:16:35Z</time></trkpt><trkpt lat="43.173670" lon="2.655234"><ele>105.88</ele><time>2010-10-09T12:16:45Z</time></trkpt><trkpt lat="43.173777" lon="2.651762"><ele>110.21</ele><time>2010-10-09T12:16:53Z</time></trkpt><trkpt lat="43.174492" lon="2.645920"><ele>117.42</ele><time>2010-10-09T12:17:07Z</time></trkpt><trkpt lat="43.174983" lon="2.640708"><ele>123.67</ele><time>2010-10-09T12:17:19Z</time></trkpt><trkpt lat="43.174781" lon="2.636318"><ele>129.92</ele><time>2010-10-09T12:17:29Z</time></trkpt><trkpt lat="43.174263" lon="2.632567"><ele>139.05</ele><time>2010-10-09T12:17:38Z</time></trkpt><trkpt lat="43.172898" lon="2.626845"><ele>155.87</ele><time>2010-10-09T12:17:52Z</time></trkpt><trkpt lat="43.171323" lon="2.620860"><ele>165.48</ele><time>2010-10-09T12:18:07Z</time></trkpt><trkpt lat="43.170346" lon="2.616103"><ele>159.72</ele><time>2010-10-09T12:18:18Z</time></trkpt><trkpt lat="43.170176" lon="2.613012"><ele>152.03</ele><time>2010-10-09T12:18:25Z</time></trkpt><trkpt lat="43.170448" lon="2.609613"><ele>143.85</ele><time>2010-10-09T12:18:33Z</time></trkpt><trkpt lat="43.171225" lon="2.606350"><ele>136.16</ele><time>2010-10-09T12:18:41Z</time></trkpt><trkpt lat="43.172466" lon="2.603304"><ele>129.43</ele><time>2010-10-09T12:18:49Z</time></trkpt><trkpt lat="43.174096" lon="2.600649"><ele>122.22</ele><time>2010-10-09T12:18:57Z</time></trkpt><trkpt lat="43.176269" lon="2.597027"><ele>112.61</ele><time>2010-10-09T12:19:07Z</time></trkpt><trkpt lat="43.177668" lon="2.593730"><ele>105.40</ele><time>2010-10-09T12:19:15Z</time></trkpt><trkpt lat="43.178636" lon="2.590261"><ele>99.15</ele><time>2010-10-09T12:19:23Z</time></trkpt><trkpt lat="43.179216" lon="2.586299"><ele>94.35</ele><time>2010-10-09T12:19:32Z</time></trkpt><trkpt lat="43.179284" lon="2.582321"><ele>93.39</ele><time>2010-10-09T12:19:41Z</time></trkpt><trkpt lat="43.178837" lon="2.577273"><ele>96.75</ele><time>2010-10-09T12:19:53Z</time></trkpt><trkpt lat="43.178534" lon="2.573363"><ele>100.60</ele><time>2010-10-09T12:20:03Z</time></trkpt><trkpt lat="43.178652" lon="2.570026"><ele>101.08</ele><time>2010-10-09T12:20:11Z</time></trkpt><trkpt lat="43.179249" lon="2.566511"><ele>99.63</ele><time>2010-10-09T12:20:19Z</time></trkpt><trkpt lat="43.179945" lon="2.562317"><ele>95.79</ele><time>2010-10-09T12:20:29Z</time></trkpt><trkpt lat="43.180132" lon="2.558750"><ele>92.90</ele><time>2010-10-09T12:20:38Z</time></trkpt><trkpt lat="43.179996" lon="2.556419"><ele>91.46</ele><time>2010-10-09T12:20:45Z</time></trkpt><trkpt lat="43.179528" lon="2.553266"><ele>91.46</ele><time>2010-10-09T12:20:56Z</time></trkpt><trkpt lat="43.178964" lon="2.550699"><ele>92.42</ele><time>2010-10-09T12:21:04Z</time></trkpt><trkpt lat="43.177969" lon="2.545854"><ele>94.83</ele><time>2010-10-09T12:21:17Z</time></trkpt><trkpt lat="43.177624" lon="2.542227"><ele>95.79</ele><time>2010-10-09T12:21:26Z</time></trkpt><trkpt lat="43.177764" lon="2.538712"><ele>96.27</ele><time>2010-10-09T12:21:34Z</time></trkpt><trkpt lat="43.178308" lon="2.535810"><ele>94.83</ele><time>2010-10-09T12:21:41Z</time></trkpt><trkpt lat="43.179384" lon="2.532463"><ele>93.87</ele><time>2010-10-09T12:21:50Z</time></trkpt><trkpt lat="43.181514" lon="2.525808"><ele>93.39</ele><time>2010-10-09T12:22:08Z</time></trkpt><trkpt lat="43.182080" lon="2.522663"><ele>93.39</ele><time>2010-10-09T12:22:16Z</time></trkpt><trkpt lat="43.182270" lon="2.519019"><ele>95.31</ele><time>2010-10-09T12:22:25Z</time></trkpt><trkpt lat="43.181975" lon="2.515034"><ele>99.63</ele><time>2010-10-09T12:22:35Z</time></trkpt><trkpt lat="43.181263" lon="2.511465"><ele>105.40</ele><time>2010-10-09T12:22:44Z</time></trkpt><trkpt lat="43.179985" lon="2.507705"><ele>110.69</ele><time>2010-10-09T12:22:54Z</time></trkpt><trkpt lat="43.178315" lon="2.503255"><ele>108.29</ele><time>2010-10-09T12:23:06Z</time></trkpt><trkpt lat="43.177666" lon="2.499908"><ele>103.96</ele><time>2010-10-09T12:23:14Z</time></trkpt><trkpt lat="43.177472" lon="2.496366"><ele>96.75</ele><time>2010-10-09T12:23:22Z</time></trkpt><trkpt lat="43.177864" lon="2.492955"><ele>92.42</ele><time>2010-10-09T12:23:30Z</time></trkpt><trkpt lat="43.178398" lon="2.490110"><ele>92.42</ele><time>2010-10-09T12:23:37Z</time></trkpt><trkpt lat="43.179548" lon="2.485590"><ele>96.27</ele><time>2010-10-09T12:23:49Z</time></trkpt><trkpt lat="43.181154" lon="2.480700"><ele>99.63</ele><time>2010-10-09T12:24:02Z</time></trkpt><trkpt lat="43.182765" lon="2.476817"><ele>97.71</ele><time>2010-10-09T12:24:12Z</time></trkpt><trkpt lat="43.184711" lon="2.472691"><ele>92.90</ele><time>2010-10-09T12:24:23Z</time></trkpt><trkpt lat="43.187715" lon="2.466404"><ele>91.94</ele><time>2010-10-09T12:24:41Z</time></trkpt><trkpt lat="43.189919" lon="2.461592"><ele>95.79</ele><time>2010-10-09T12:24:55Z</time></trkpt><trkpt lat="43.191866" lon="2.456369"><ele>101.56</ele><time>2010-10-09T12:25:09Z</time></trkpt><trkpt lat="43.193070" lon="2.452212"><ele>104.44</ele><time>2010-10-09T12:25:20Z</time></trkpt><trkpt lat="43.193971" lon="2.448332"><ele>103.96</ele><time>2010-10-09T12:25:31Z</time></trkpt><trkpt lat="43.194617" lon="2.444998"><ele>103.48</ele><time>2010-10-09T12:25:41Z</time></trkpt><trkpt lat="43.195686" lon="2.438722"><ele>103.00</ele><time>2010-10-09T12:26:00Z</time></trkpt><trkpt lat="43.196642" lon="2.432953"><ele>109.25</ele><time>2010-10-09T12:26:17Z</time></trkpt><trkpt lat="43.196857" lon="2.429602"><ele>118.86</ele><time>2010-10-09T12:26:27Z</time></trkpt><trkpt lat="43.196629" lon="2.426540"><ele>125.59</ele><time>2010-10-09T12:26:36Z</time></trkpt><trkpt lat="43.196044" lon="2.423465"><ele>131.36</ele><time>2010-10-09T12:26:46Z</time></trkpt><trkpt lat="43.195542" lon="2.421363"><ele>135.20</ele><time>2010-10-09T12:26:54Z</time></trkpt><trkpt lat="43.195496" lon="2.420979"><ele>135.20</ele><time>2010-10-09T12:26:56Z</time></trkpt><trkpt lat="43.195498" lon="2.420789"><ele>135.20</ele><time>2010-10-09T12:26:57Z</time></trkpt><trkpt lat="43.195518" lon="2.420594"><ele>135.20</ele><time>2010-10-09T12:26:58Z</time></trkpt><trkpt lat="43.195537" lon="2.420398"><ele>135.20</ele><time>2010-10-09T12:26:59Z</time></trkpt><trkpt lat="43.195599" lon="2.420223"><ele>135.20</ele><time>2010-10-09T12:27:00Z</time></trkpt><trkpt lat="43.195665" lon="2.420047"><ele>135.20</ele><time>2010-10-09T12:27:01Z</time></trkpt><trkpt lat="43.195772" lon="2.419914"><ele>135.20</ele><time>2010-10-09T12:27:02Z</time></trkpt><trkpt lat="43.195881" lon="2.419784"><ele>134.72</ele><time>2010-10-09T12:27:03Z</time></trkpt><trkpt lat="43.196010" lon="2.419713"><ele>134.72</ele><time>2010-10-09T12:27:04Z</time></trkpt><trkpt lat="43.196148" lon="2.419639"><ele>134.72</ele><time>2010-10-09T12:27:05Z</time></trkpt><trkpt lat="43.196288" lon="2.419563"><ele>134.24</ele><time>2010-10-09T12:27:06Z</time></trkpt><trkpt lat="43.196428" lon="2.419488"><ele>133.76</ele><time>2010-10-09T12:27:07Z</time></trkpt><trkpt lat="43.196592" lon="2.419462"><ele>133.28</ele><time>2010-10-09T12:27:08Z</time></trkpt><trkpt lat="43.196761" lon="2.419441"><ele>132.32</ele><time>2010-10-09T12:27:09Z</time></trkpt><trkpt lat="43.196784" lon="2.419438"><ele>131.36</ele><time>2010-10-09T12:27:10Z</time></trkpt><trkpt lat="43.198510" lon="2.419867"><ele>121.74</ele><time>2010-10-09T12:27:17Z</time></trkpt><trkpt lat="43.199775" lon="2.419850"><ele>120.78</ele><time>2010-10-09T12:27:22Z</time></trkpt><trkpt lat="43.200008" lon="2.419779"><ele>120.30</ele><time>2010-10-09T12:27:23Z</time></trkpt><trkpt lat="43.200241" lon="2.419662"><ele>119.82</ele><time>2010-10-09T12:27:24Z</time></trkpt><trkpt lat="43.201331" lon="2.418968"><ele>118.38</ele><time>2010-10-09T12:27:30Z</time></trkpt><trkpt lat="43.201823" lon="2.418349"><ele>117.42</ele><time>2010-10-09T12:27:36Z</time></trkpt><trkpt lat="43.201974" lon="2.418137"><ele>115.98</ele><time>2010-10-09T12:27:43Z</time></trkpt><trkpt lat="43.202000" lon="2.418101"><ele>115.01</ele><time>2010-10-09T12:27:56Z</time></trkpt><trkpt lat="43.202018" lon="2.418076"><ele>115.01</ele><time>2010-10-09T12:27:57Z</time></trkpt><trkpt lat="43.202045" lon="2.418037"><ele>115.01</ele><time>2010-10-09T12:27:58Z</time></trkpt><trkpt lat="43.202477" lon="2.417479"><ele>114.05</ele><time>2010-10-09T12:28:05Z</time></trkpt><trkpt lat="43.203470" lon="2.416340"><ele>115.01</ele><time>2010-10-09T12:28:15Z</time></trkpt><trkpt lat="43.203594" lon="2.416257"><ele>115.50</ele><time>2010-10-09T12:28:16Z</time></trkpt><trkpt lat="43.205027" lon="2.415455"><ele>116.94</ele><time>2010-10-09T12:28:26Z</time></trkpt><trkpt lat="43.205289" lon="2.415319"><ele>115.98</ele><time>2010-10-09T12:28:28Z</time></trkpt><trkpt lat="43.205415" lon="2.415319"><ele>115.01</ele><time>2010-10-09T12:28:29Z</time></trkpt><trkpt lat="43.205537" lon="2.415319"><ele>114.53</ele><time>2010-10-09T12:28:30Z</time></trkpt><trkpt lat="43.205649" lon="2.415369"><ele>114.05</ele><time>2010-10-09T12:28:31Z</time></trkpt><trkpt lat="43.205744" lon="2.415441"><ele>113.09</ele><time>2010-10-09T12:28:32Z</time></trkpt><trkpt lat="43.205812" lon="2.415550"><ele>112.61</ele><time>2010-10-09T12:28:33Z</time></trkpt><trkpt lat="43.205877" lon="2.415665"><ele>112.13</ele><time>2010-10-09T12:28:34Z</time></trkpt><trkpt lat="43.205925" lon="2.415802"><ele>111.65</ele><time>2010-10-09T12:28:35Z</time></trkpt><trkpt lat="43.205925" lon="2.415939"><ele>111.17</ele><time>2010-10-09T12:28:36Z</time></trkpt><trkpt lat="43.205925" lon="2.416076"><ele>110.69</ele><time>2010-10-09T12:28:37Z</time></trkpt><trkpt lat="43.205910" lon="2.416236"><ele>109.73</ele><time>2010-10-09T12:28:38Z</time></trkpt><trkpt lat="43.205835" lon="2.416322"><ele>109.25</ele><time>2010-10-09T12:28:39Z</time></trkpt><trkpt lat="43.205752" lon="2.416417"><ele>109.25</ele><time>2010-10-09T12:28:40Z</time></trkpt><trkpt lat="43.205665" lon="2.416516"><ele>108.77</ele><time>2010-10-09T12:28:41Z</time></trkpt><trkpt lat="43.205565" lon="2.416578"><ele>108.29</ele><time>2010-10-09T12:28:42Z</time></trkpt><trkpt lat="43.205452" lon="2.416606"><ele>108.29</ele><time>2010-10-09T12:28:43Z</time></trkpt><trkpt lat="43.205338" lon="2.416577"><ele>108.29</ele><time>2010-10-09T12:28:44Z</time></trkpt><trkpt lat="43.205228" lon="2.416523"><ele>108.29</ele><time>2010-10-09T12:28:45Z</time></trkpt><trkpt lat="43.205123" lon="2.416445"><ele>108.29</ele><time>2010-10-09T12:28:46Z</time></trkpt><trkpt lat="43.205049" lon="2.416314"><ele>108.77</ele><time>2010-10-09T12:28:47Z</time></trkpt><trkpt lat="43.204978" lon="2.416171"><ele>108.77</ele><time>2010-10-09T12:28:48Z</time></trkpt><trkpt lat="43.204903" lon="2.416023"><ele>109.25</ele><time>2010-10-09T12:28:49Z</time></trkpt><trkpt lat="43.204411" lon="2.414341"><ele>109.73</ele><time>2010-10-09T12:28:57Z</time></trkpt><trkpt lat="43.204253" lon="2.412193"><ele>109.73</ele><time>2010-10-09T12:29:05Z</time></trkpt><trkpt lat="43.204527" lon="2.409505"><ele>112.13</ele><time>2010-10-09T12:29:14Z</time></trkpt><trkpt lat="43.205056" lon="2.404878"><ele>116.94</ele><time>2010-10-09T12:29:30Z</time></trkpt><trkpt lat="43.204835" lon="2.403223"><ele>116.94</ele><time>2010-10-09T12:29:36Z</time></trkpt><trkpt lat="43.204573" lon="2.401047"><ele>116.46</ele><time>2010-10-09T12:29:44Z</time></trkpt><trkpt lat="43.204917" lon="2.399017"><ele>117.42</ele><time>2010-10-09T12:29:51Z</time></trkpt><trkpt lat="43.205857" lon="2.394264"><ele>124.15</ele><time>2010-10-09T12:30:07Z</time></trkpt><trkpt lat="43.206420" lon="2.391218"><ele>129.43</ele><time>2010-10-09T12:30:18Z</time></trkpt><trkpt lat="43.206841" lon="2.388464"><ele>128.95</ele><time>2010-10-09T12:30:29Z</time></trkpt><trkpt lat="43.207103" lon="2.384557"><ele>126.55</ele><time>2010-10-09T12:30:43Z</time></trkpt><trkpt lat="43.207136" lon="2.384262"><ele>126.55</ele><time>2010-10-09T12:30:45Z</time></trkpt><trkpt lat="43.207136" lon="2.384262"><ele>126.07</ele><time>2010-10-09T12:30:46Z</time></trkpt><trkpt lat="43.207211" lon="2.384079"><ele>126.07</ele><time>2010-10-09T12:30:47Z</time></trkpt><trkpt lat="43.207254" lon="2.383992"><ele>126.07</ele><time>2010-10-09T12:30:48Z</time></trkpt><trkpt lat="43.207285" lon="2.383901"><ele>126.07</ele><time>2010-10-09T12:30:49Z</time></trkpt><trkpt lat="43.207279" lon="2.383814"><ele>126.07</ele><time>2010-10-09T12:30:50Z</time></trkpt><trkpt lat="43.207242" lon="2.383722"><ele>126.07</ele><time>2010-10-09T12:30:51Z</time></trkpt><trkpt lat="43.207206" lon="2.383642"><ele>126.07</ele><time>2010-10-09T12:30:52Z</time></trkpt><trkpt lat="43.207133" lon="2.383470"><ele>126.07</ele><time>2010-10-09T12:30:53Z</time></trkpt><trkpt lat="43.207143" lon="2.383336"><ele>126.07</ele><time>2010-10-09T12:30:54Z</time></trkpt><trkpt lat="43.207154" lon="2.383184"><ele>125.59</ele><time>2010-10-09T12:30:55Z</time></trkpt><trkpt lat="43.207280" lon="2.381479"><ele>124.63</ele><time>2010-10-09T12:31:04Z</time></trkpt><trkpt lat="43.207410" lon="2.379723"><ele>124.15</ele><time>2010-10-09T12:31:15Z</time></trkpt><trkpt lat="43.207518" lon="2.378316"><ele>124.15</ele><time>2010-10-09T12:31:27Z</time></trkpt><trkpt lat="43.207598" lon="2.377304"><ele>123.67</ele><time>2010-10-09T12:31:40Z</time></trkpt><trkpt lat="43.207691" lon="2.375882"><ele>122.71</ele><time>2010-10-09T12:31:53Z</time></trkpt><trkpt lat="43.207832" lon="2.374117"><ele>121.74</ele><time>2010-10-09T12:32:07Z</time></trkpt><trkpt lat="43.207987" lon="2.372560"><ele>119.34</ele><time>2010-10-09T12:32:20Z</time></trkpt><trkpt lat="43.208194" lon="2.371540"><ele>117.42</ele><time>2010-10-09T12:32:30Z</time></trkpt><trkpt lat="43.208389" lon="2.370859"><ele>117.42</ele><time>2010-10-09T12:32:39Z</time></trkpt><trkpt lat="43.208399" lon="2.370823"><ele>117.42</ele><time>2010-10-09T12:32:47Z</time></trkpt><trkpt lat="43.208515" lon="2.370421"><ele>117.42</ele><time>2010-10-09T12:32:55Z</time></trkpt><trkpt lat="43.208719" lon="2.369745"><ele>117.42</ele><time>2010-10-09T12:33:05Z</time></trkpt><trkpt lat="43.208719" lon="2.369745"><ele>117.42</ele><time>2010-10-09T12:33:22Z</time></trkpt><trkpt lat="43.208794" lon="2.369503"><ele>117.90</ele><time>2010-10-09T12:33:44Z</time></trkpt><trkpt lat="43.209079" lon="2.368520"><ele>118.38</ele><time>2010-10-09T12:33:53Z</time></trkpt><trkpt lat="43.209558" lon="2.366622"><ele>116.94</ele><time>2010-10-09T12:34:06Z</time></trkpt><trkpt lat="43.209980" lon="2.365003"><ele>113.09</ele><time>2010-10-09T12:34:19Z</time></trkpt><trkpt lat="43.210350" lon="2.363717"><ele>111.17</ele><time>2010-10-09T12:34:30Z</time></trkpt><trkpt lat="43.210942" lon="2.361685"><ele>110.21</ele><time>2010-10-09T12:34:45Z</time></trkpt><trkpt lat="43.211160" lon="2.360773"><ele>110.21</ele><time>2010-10-09T12:34:52Z</time></trkpt><trkpt lat="43.211729" lon="2.358922"><ele>110.21</ele><time>2010-10-09T12:35:04Z</time></trkpt><trkpt lat="43.211826" lon="2.358506"><ele>109.73</ele><time>2010-10-09T12:35:11Z</time></trkpt><trkpt lat="43.211899" lon="2.358195"><ele>109.73</ele><time>2010-10-09T12:35:28Z</time></trkpt><trkpt lat="43.211966" lon="2.357907"><ele>109.25</ele><time>2010-10-09T12:35:32Z</time></trkpt><trkpt lat="43.211982" lon="2.357840"><ele>109.25</ele><time>2010-10-09T12:35:33Z</time></trkpt><trkpt lat="43.211982" lon="2.357840"><ele>109.25</ele><time>2010-10-09T12:35:34Z</time></trkpt><trkpt lat="43.212120" lon="2.357683"><ele>109.25</ele><time>2010-10-09T12:35:35Z</time></trkpt><trkpt lat="43.212147" lon="2.357683"><ele>109.25</ele><time>2010-10-09T12:35:36Z</time></trkpt><trkpt lat="43.212167" lon="2.357669"><ele>109.25</ele><time>2010-10-09T12:35:37Z</time></trkpt><trkpt lat="43.212200" lon="2.357643"><ele>108.77</ele><time>2010-10-09T12:35:38Z</time></trkpt><trkpt lat="43.212235" lon="2.357617"><ele>109.25</ele><time>2010-10-09T12:35:39Z</time></trkpt><trkpt lat="43.212267" lon="2.357593"><ele>108.77</ele><time>2010-10-09T12:35:40Z</time></trkpt><trkpt lat="43.212294" lon="2.357573"><ele>108.77</ele><time>2010-10-09T12:35:41Z</time></trkpt><trkpt lat="43.212319" lon="2.357554"><ele>108.77</ele><time>2010-10-09T12:35:42Z</time></trkpt><trkpt lat="43.212322" lon="2.357535"><ele>108.77</ele><time>2010-10-09T12:35:43Z</time></trkpt><trkpt lat="43.212330" lon="2.357478"><ele>109.25</ele><time>2010-10-09T12:35:44Z</time></trkpt><trkpt lat="43.212503" lon="2.356654"><ele>110.21</ele><time>2010-10-09T12:35:53Z</time></trkpt><trkpt lat="43.212600" lon="2.355772"><ele>108.77</ele><time>2010-10-09T12:36:02Z</time></trkpt><trkpt lat="43.212660" lon="2.355502"><ele>107.32</ele><time>2010-10-09T12:36:07Z</time></trkpt><trkpt lat="43.212662" lon="2.355495"><ele>106.36</ele><time>2010-10-09T12:36:12Z</time></trkpt><trkpt lat="43.212662" lon="2.355495"><ele>105.40</ele><time>2010-10-09T12:36:15Z</time></trkpt><trkpt lat="43.212662" lon="2.354519"><ele>102.52</ele><time>2010-10-09T12:36:26Z</time></trkpt><trkpt lat="43.212662" lon="2.354499"><ele>102.52</ele><time>2010-10-09T12:36:27Z</time></trkpt><trkpt lat="43.212662" lon="2.354499"><ele>102.04</ele><time>2010-10-09T12:36:28Z</time></trkpt><trkpt lat="43.212662" lon="2.354499"><ele>101.56</ele><time>2010-10-09T12:36:29Z</time></trkpt><trkpt lat="43.212655" lon="2.354422"><ele>101.56</ele><time>2010-10-09T12:36:30Z</time></trkpt><trkpt lat="43.212626" lon="2.354422"><ele>101.08</ele><time>2010-10-09T12:36:31Z</time></trkpt><trkpt lat="43.212591" lon="2.354422"><ele>101.08</ele><time>2010-10-09T12:36:32Z</time></trkpt><trkpt lat="43.212548" lon="2.354422"><ele>101.08</ele><time>2010-10-09T12:36:33Z</time></trkpt><trkpt lat="43.212094" lon="2.354422"><ele>100.60</ele><time>2010-10-09T12:36:44Z</time></trkpt><trkpt lat="43.212094" lon="2.354422"><ele>100.60</ele><time>2010-10-09T12:36:46Z</time></trkpt><trkpt lat="43.211933" lon="2.354490"><ele>101.08</ele><time>2010-10-09T12:36:47Z</time></trkpt><trkpt lat="43.211933" lon="2.354554"><ele>101.08</ele><time>2010-10-09T12:36:49Z</time></trkpt><trkpt lat="43.211933" lon="2.354583"><ele>101.56</ele><time>2010-10-09T12:36:50Z</time></trkpt><trkpt lat="43.211933" lon="2.354618"><ele>101.56</ele><time>2010-10-09T12:36:51Z</time></trkpt><trkpt lat="43.211933" lon="2.354948"><ele>103.48</ele><time>2010-10-09T12:36:57Z</time></trkpt><trkpt lat="43.211933" lon="2.355038"><ele>103.00</ele><time>2010-10-09T12:36:58Z</time></trkpt><trkpt lat="43.211933" lon="2.355221"><ele>102.04</ele><time>2010-10-09T12:37:00Z</time></trkpt><trkpt lat="43.211934" lon="2.355288"><ele>102.04</ele><time>2010-10-09T12:37:01Z</time></trkpt><trkpt lat="43.211945" lon="2.355356"><ele>102.52</ele><time>2010-10-09T12:37:02Z</time></trkpt><trkpt lat="43.211957" lon="2.355426"><ele>102.52</ele><time>2010-10-09T12:37:03Z</time></trkpt><trkpt lat="43.211968" lon="2.355492"><ele>102.52</ele><time>2010-10-09T12:37:04Z</time></trkpt><trkpt lat="43.211975" lon="2.355534"><ele>102.52</ele><time>2010-10-09T12:37:05Z</time></trkpt><trkpt lat="43.211929" lon="2.355584"><ele>103.96</ele><time>2010-10-09T12:37:08Z</time></trkpt><trkpt lat="43.211897" lon="2.355661"><ele>103.96</ele><time>2010-10-09T12:37:09Z</time></trkpt><trkpt lat="43.211909" lon="2.355719"><ele>104.44</ele><time>2010-10-09T12:37:10Z</time></trkpt><trkpt lat="43.211815" lon="2.356569"><ele>103.96</ele><time>2010-10-09T12:37:17Z</time></trkpt><trkpt lat="43.211718" lon="2.357420"><ele>103.00</ele><time>2010-10-09T12:37:26Z</time></trkpt><trkpt lat="43.211718" lon="2.357469"><ele>103.00</ele><time>2010-10-09T12:37:27Z</time></trkpt><trkpt lat="43.211725" lon="2.357479"><ele>103.00</ele><time>2010-10-09T12:37:28Z</time></trkpt><trkpt lat="43.211762" lon="2.357534"><ele>103.00</ele><time>2010-10-09T12:37:29Z</time></trkpt><trkpt lat="43.211797" lon="2.357586"><ele>103.48</ele><time>2010-10-09T12:37:30Z</time></trkpt><trkpt lat="43.211824" lon="2.357605"><ele>103.48</ele><time>2010-10-09T12:37:31Z</time></trkpt><trkpt lat="43.211871" lon="2.357624"><ele>103.96</ele><time>2010-10-09T12:37:32Z</time></trkpt><trkpt lat="43.211911" lon="2.357640"><ele>103.96</ele><time>2010-10-09T12:37:33Z</time></trkpt><trkpt lat="43.211986" lon="2.357824"><ele>103.96</ele><time>2010-10-09T12:37:34Z</time></trkpt><trkpt lat="43.211973" lon="2.357877"><ele>104.44</ele><time>2010-10-09T12:37:35Z</time></trkpt><trkpt lat="43.211958" lon="2.357942"><ele>104.44</ele><time>2010-10-09T12:37:36Z</time></trkpt><trkpt lat="43.211942" lon="2.358009"><ele>103.96</ele><time>2010-10-09T12:37:37Z</time></trkpt><trkpt lat="43.211928" lon="2.358070"><ele>103.96</ele><time>2010-10-09T12:37:38Z</time></trkpt><trkpt lat="43.211917" lon="2.358116"><ele>103.48</ele><time>2010-10-09T12:37:39Z</time></trkpt><trkpt lat="43.211911" lon="2.358142"><ele>103.48</ele><time>2010-10-09T12:37:40Z</time></trkpt><trkpt lat="43.211911" lon="2.358142"><ele>103.96</ele><time>2010-10-09T12:37:41Z</time></trkpt><trkpt lat="43.211911" lon="2.358142"><ele>103.96</ele><time>2010-10-09T12:37:58Z</time></trkpt></trkseg><trkseg><trkpt lat="43.206529" lon="2.386691"><ele>105.88</ele><time>2010-10-09T15:14:40Z</time></trkpt><trkpt lat="43.206451" lon="2.386451"><ele>132.32</ele><time>2010-10-09T15:15:51Z</time></trkpt><trkpt lat="43.206438" lon="2.386582"><ele>137.13</ele><time>2010-10-09T15:16:03Z</time></trkpt><trkpt lat="43.206314" lon="2.386596"><ele>137.13</ele><time>2010-10-09T15:16:07Z</time></trkpt><trkpt lat="43.206092" lon="2.386620"><ele>138.09</ele><time>2010-10-09T15:16:14Z</time></trkpt><trkpt lat="43.206061" lon="2.386776"><ele>138.09</ele><time>2010-10-09T15:16:18Z</time></trkpt><trkpt lat="43.206040" lon="2.387033"><ele>138.09</ele><time>2010-10-09T15:16:24Z</time></trkpt><trkpt lat="43.205998" lon="2.387070"><ele>138.09</ele><time>2010-10-09T15:16:25Z</time></trkpt><trkpt lat="43.205821" lon="2.387261"><ele>139.53</ele><time>2010-10-09T15:16:29Z</time></trkpt><trkpt lat="43.205798" lon="2.387330"><ele>139.53</ele><time>2010-10-09T15:16:30Z</time></trkpt><trkpt lat="43.205796" lon="2.387393"><ele>139.53</ele><time>2010-10-09T15:16:31Z</time></trkpt><trkpt lat="43.205796" lon="2.387460"><ele>139.53</ele><time>2010-10-09T15:16:32Z</time></trkpt><trkpt lat="43.205809" lon="2.387475"><ele>139.53</ele><time>2010-10-09T15:16:33Z</time></trkpt><trkpt lat="43.205848" lon="2.387498"><ele>139.53</ele><time>2010-10-09T15:16:34Z</time></trkpt><trkpt lat="43.205890" lon="2.387523"><ele>139.05</ele><time>2010-10-09T15:16:35Z</time></trkpt><trkpt lat="43.205923" lon="2.387543"><ele>138.57</ele><time>2010-10-09T15:16:36Z</time></trkpt><trkpt lat="43.205943" lon="2.387555"><ele>138.09</ele><time>2010-10-09T15:16:37Z</time></trkpt><trkpt lat="43.205962" lon="2.387566"><ele>138.09</ele><time>2010-10-09T15:16:38Z</time></trkpt><trkpt lat="43.205986" lon="2.387581"><ele>137.61</ele><time>2010-10-09T15:16:39Z</time></trkpt><trkpt lat="43.206032" lon="2.387530"><ele>137.61</ele><time>2010-10-09T15:16:40Z</time></trkpt><trkpt lat="43.206061" lon="2.387444"><ele>137.61</ele><time>2010-10-09T15:16:41Z</time></trkpt><trkpt lat="43.206091" lon="2.387353"><ele>136.64</ele><time>2010-10-09T15:16:42Z</time></trkpt><trkpt lat="43.206130" lon="2.387270"><ele>136.64</ele><time>2010-10-09T15:16:43Z</time></trkpt><trkpt lat="43.206172" lon="2.387185"><ele>136.16</ele><time>2010-10-09T15:16:44Z</time></trkpt><trkpt lat="43.206247" lon="2.387150"><ele>135.68</ele><time>2010-10-09T15:16:45Z</time></trkpt><trkpt lat="43.206325" lon="2.387130"><ele>135.20</ele><time>2010-10-09T15:16:46Z</time></trkpt><trkpt lat="43.206406" lon="2.387110"><ele>134.24</ele><time>2010-10-09T15:16:47Z</time></trkpt><trkpt lat="43.206489" lon="2.387089"><ele>133.76</ele><time>2010-10-09T15:16:48Z</time></trkpt><trkpt lat="43.206565" lon="2.387110"><ele>133.28</ele><time>2010-10-09T15:16:49Z</time></trkpt><trkpt lat="43.206631" lon="2.387159"><ele>132.80</ele><time>2010-10-09T15:16:50Z</time></trkpt><trkpt lat="43.206687" lon="2.387202"><ele>132.32</ele><time>2010-10-09T15:16:51Z</time></trkpt><trkpt lat="43.206706" lon="2.387299"><ele>132.32</ele><time>2010-10-09T15:16:52Z</time></trkpt><trkpt lat="43.206716" lon="2.387396"><ele>131.84</ele><time>2010-10-09T15:16:53Z</time></trkpt><trkpt lat="43.206727" lon="2.387506"><ele>131.36</ele><time>2010-10-09T15:16:54Z</time></trkpt><trkpt lat="43.206739" lon="2.387630"><ele>131.36</ele><time>2010-10-09T15:16:55Z</time></trkpt><trkpt lat="43.206641" lon="2.388993"><ele>131.36</ele><time>2010-10-09T15:17:03Z</time></trkpt><trkpt lat="43.206454" lon="2.390301"><ele>132.32</ele><time>2010-10-09T15:17:11Z</time></trkpt><trkpt lat="43.206437" lon="2.390412"><ele>132.32</ele><time>2010-10-09T15:17:12Z</time></trkpt><trkpt lat="43.206422" lon="2.390504"><ele>132.32</ele><time>2010-10-09T15:17:13Z</time></trkpt><trkpt lat="43.206409" lon="2.390583"><ele>132.32</ele><time>2010-10-09T15:17:14Z</time></trkpt><trkpt lat="43.206228" lon="2.390584"><ele>132.80</ele><time>2010-10-09T15:17:15Z</time></trkpt><trkpt lat="43.206159" lon="2.390607"><ele>132.80</ele><time>2010-10-09T15:17:16Z</time></trkpt><trkpt lat="43.206095" lon="2.390628"><ele>133.28</ele><time>2010-10-09T15:17:17Z</time></trkpt><trkpt lat="43.206040" lon="2.390646"><ele>133.28</ele><time>2010-10-09T15:17:18Z</time></trkpt><trkpt lat="43.205994" lon="2.390662"><ele>133.76</ele><time>2010-10-09T15:17:19Z</time></trkpt><trkpt lat="43.205925" lon="2.390685"><ele>133.76</ele><time>2010-10-09T15:17:20Z</time></trkpt><trkpt lat="43.205890" lon="2.390671"><ele>133.76</ele><time>2010-10-09T15:17:21Z</time></trkpt><trkpt lat="43.205710" lon="2.390525"><ele>134.72</ele><time>2010-10-09T15:17:27Z</time></trkpt><trkpt lat="43.205670" lon="2.390451"><ele>135.20</ele><time>2010-10-09T15:17:28Z</time></trkpt><trkpt lat="43.205629" lon="2.390430"><ele>135.20</ele><time>2010-10-09T15:17:29Z</time></trkpt><trkpt lat="43.205615" lon="2.390326"><ele>135.68</ele><time>2010-10-09T15:17:30Z</time></trkpt><trkpt lat="43.205607" lon="2.390238"><ele>136.16</ele><time>2010-10-09T15:17:31Z</time></trkpt><trkpt lat="43.205598" lon="2.390139"><ele>136.16</ele><time>2010-10-09T15:17:32Z</time></trkpt><trkpt lat="43.205588" lon="2.390033"><ele>136.64</ele><time>2010-10-09T15:17:33Z</time></trkpt><trkpt lat="43.205581" lon="2.389956"><ele>136.64</ele><time>2010-10-09T15:17:34Z</time></trkpt><trkpt lat="43.205628" lon="2.389814"><ele>137.13</ele><time>2010-10-09T15:17:35Z</time></trkpt><trkpt lat="43.205663" lon="2.389711"><ele>137.61</ele><time>2010-10-09T15:17:36Z</time></trkpt><trkpt lat="43.205697" lon="2.389609"><ele>137.61</ele><time>2010-10-09T15:17:37Z</time></trkpt><trkpt lat="43.205742" lon="2.389527"><ele>138.09</ele><time>2010-10-09T15:17:38Z</time></trkpt><trkpt lat="43.205861" lon="2.389392"><ele>139.05</ele><time>2010-10-09T15:17:41Z</time></trkpt><trkpt lat="43.205895" lon="2.389384"><ele>139.53</ele><time>2010-10-09T15:17:42Z</time></trkpt><trkpt lat="43.205924" lon="2.389376"><ele>139.53</ele><time>2010-10-09T15:17:43Z</time></trkpt><trkpt lat="43.205961" lon="2.389367"><ele>139.53</ele><time>2010-10-09T15:17:44Z</time></trkpt><trkpt lat="43.206011" lon="2.389355"><ele>139.05</ele><time>2010-10-09T15:17:45Z</time></trkpt><trkpt lat="43.206080" lon="2.389337"><ele>138.57</ele><time>2010-10-09T15:17:46Z</time></trkpt><trkpt lat="43.206080" lon="2.389337"><ele>138.09</ele><time>2010-10-09T15:17:47Z</time></trkpt><trkpt lat="43.207130" lon="2.389526"><ele>136.16</ele><time>2010-10-09T15:17:54Z</time></trkpt><trkpt lat="43.207284" lon="2.389526"><ele>135.68</ele><time>2010-10-09T15:17:55Z</time></trkpt><trkpt lat="43.207424" lon="2.389526"><ele>135.20</ele><time>2010-10-09T15:17:56Z</time></trkpt><trkpt lat="43.207827" lon="2.389559"><ele>133.76</ele><time>2010-10-09T15:18:01Z</time></trkpt><trkpt lat="43.207866" lon="2.389565"><ele>133.76</ele><time>2010-10-09T15:18:02Z</time></trkpt><trkpt lat="43.207910" lon="2.389577"><ele>133.28</ele><time>2010-10-09T15:18:03Z</time></trkpt><trkpt lat="43.208007" lon="2.389642"><ele>133.28</ele><time>2010-10-09T15:18:05Z</time></trkpt><trkpt lat="43.208061" lon="2.389655"><ele>132.80</ele><time>2010-10-09T15:18:06Z</time></trkpt><trkpt lat="43.208102" lon="2.389655"><ele>132.80</ele><time>2010-10-09T15:18:07Z</time></trkpt><trkpt lat="43.208172" lon="2.389631"><ele>132.80</ele><time>2010-10-09T15:18:08Z</time></trkpt><trkpt lat="43.208216" lon="2.389566"><ele>132.80</ele><time>2010-10-09T15:18:09Z</time></trkpt><trkpt lat="43.208264" lon="2.389460"><ele>132.80</ele><time>2010-10-09T15:18:10Z</time></trkpt><trkpt lat="43.208285" lon="2.389398"><ele>132.80</ele><time>2010-10-09T15:18:11Z</time></trkpt><trkpt lat="43.208285" lon="2.389398"><ele>132.32</ele><time>2010-10-09T15:18:12Z</time></trkpt><trkpt lat="43.208285" lon="2.389398"><ele>132.32</ele><time>2010-10-09T15:18:13Z</time></trkpt><trkpt lat="43.209621" lon="2.388601"><ele>128.95</ele><time>2010-10-09T15:18:20Z</time></trkpt><trkpt lat="43.211777" lon="2.387374"><ele>121.74</ele><time>2010-10-09T15:18:31Z</time></trkpt><trkpt lat="43.214329" lon="2.385255"><ele>116.94</ele><time>2010-10-09T15:18:44Z</time></trkpt><trkpt lat="43.217341" lon="2.382732"><ele>114.53</ele><time>2010-10-09T15:19:00Z</time></trkpt><trkpt lat="43.219491" lon="2.380932"><ele>116.46</ele><time>2010-10-09T15:19:13Z</time></trkpt><trkpt lat="43.220044" lon="2.380471"><ele>115.98</ele><time>2010-10-09T15:19:18Z</time></trkpt><trkpt lat="43.220068" lon="2.380461"><ele>115.98</ele><time>2010-10-09T15:19:19Z</time></trkpt><trkpt lat="43.220473" lon="2.380385"><ele>115.50</ele><time>2010-10-09T15:19:25Z</time></trkpt><trkpt lat="43.220592" lon="2.380306"><ele>115.01</ele><time>2010-10-09T15:19:27Z</time></trkpt><trkpt lat="43.220639" lon="2.380206"><ele>115.01</ele><time>2010-10-09T15:19:28Z</time></trkpt><trkpt lat="43.220687" lon="2.380085"><ele>115.01</ele><time>2010-10-09T15:19:29Z</time></trkpt><trkpt lat="43.220800" lon="2.379945"><ele>114.53</ele><time>2010-10-09T15:19:31Z</time></trkpt><trkpt lat="43.220869" lon="2.379858"><ele>114.53</ele><time>2010-10-09T15:19:32Z</time></trkpt><trkpt lat="43.220945" lon="2.379763"><ele>114.05</ele><time>2010-10-09T15:19:33Z</time></trkpt><trkpt lat="43.221037" lon="2.379652"><ele>114.05</ele><time>2010-10-09T15:19:34Z</time></trkpt><trkpt lat="43.221148" lon="2.379585"><ele>113.57</ele><time>2010-10-09T15:19:35Z</time></trkpt><trkpt lat="43.222264" lon="2.378996"><ele>108.29</ele><time>2010-10-09T15:19:43Z</time></trkpt><trkpt lat="43.223989" lon="2.378537"><ele>103.00</ele><time>2010-10-09T15:19:52Z</time></trkpt><trkpt lat="43.227415" lon="2.378015"><ele>101.56</ele><time>2010-10-09T15:20:08Z</time></trkpt><trkpt lat="43.229374" lon="2.377464"><ele>100.60</ele><time>2010-10-09T15:20:18Z</time></trkpt><trkpt lat="43.230197" lon="2.376860"><ele>103.00</ele><time>2010-10-09T15:20:25Z</time></trkpt><trkpt lat="43.230393" lon="2.376742"><ele>104.44</ele><time>2010-10-09T15:20:28Z</time></trkpt><trkpt lat="43.230466" lon="2.376686"><ele>104.44</ele><time>2010-10-09T15:20:29Z</time></trkpt><trkpt lat="43.230537" lon="2.376695"><ele>104.92</ele><time>2010-10-09T15:20:30Z</time></trkpt><trkpt lat="43.230624" lon="2.376687"><ele>105.40</ele><time>2010-10-09T15:20:31Z</time></trkpt><trkpt lat="43.230703" lon="2.376661"><ele>105.40</ele><time>2010-10-09T15:20:32Z</time></trkpt><trkpt lat="43.230772" lon="2.376588"><ele>105.88</ele><time>2010-10-09T15:20:33Z</time></trkpt><trkpt lat="43.230820" lon="2.376504"><ele>105.88</ele><time>2010-10-09T15:20:34Z</time></trkpt><trkpt lat="43.230844" lon="2.376407"><ele>105.88</ele><time>2010-10-09T15:20:35Z</time></trkpt><trkpt lat="43.230846" lon="2.376308"><ele>105.88</ele><time>2010-10-09T15:20:36Z</time></trkpt><trkpt lat="43.230818" lon="2.376210"><ele>105.40</ele><time>2010-10-09T15:20:37Z</time></trkpt><trkpt lat="43.230814" lon="2.375978"><ele>105.40</ele><time>2010-10-09T15:20:38Z</time></trkpt><trkpt lat="43.230875" lon="2.375869"><ele>105.40</ele><time>2010-10-09T15:20:39Z</time></trkpt><trkpt lat="43.230945" lon="2.375747"><ele>105.40</ele><time>2010-10-09T15:20:40Z</time></trkpt><trkpt lat="43.231654" lon="2.374274"><ele>108.29</ele><time>2010-10-09T15:20:50Z</time></trkpt><trkpt lat="43.232507" lon="2.371803"><ele>112.61</ele><time>2010-10-09T15:21:03Z</time></trkpt><trkpt lat="43.233360" lon="2.369112"><ele>116.94</ele><time>2010-10-09T15:21:17Z</time></trkpt><trkpt lat="43.233627" lon="2.368354"><ele>117.42</ele><time>2010-10-09T15:21:25Z</time></trkpt><trkpt lat="43.233691" lon="2.368240"><ele>117.42</ele><time>2010-10-09T15:21:26Z</time></trkpt><trkpt lat="43.233691" lon="2.368240"><ele>117.42</ele><time>2010-10-09T15:21:27Z</time></trkpt><trkpt lat="43.233839" lon="2.368075"><ele>116.94</ele><time>2010-10-09T15:21:29Z</time></trkpt><trkpt lat="43.233861" lon="2.367988"><ele>116.94</ele><time>2010-10-09T15:21:30Z</time></trkpt><trkpt lat="43.233883" lon="2.367900"><ele>116.94</ele><time>2010-10-09T15:21:31Z</time></trkpt><trkpt lat="43.233904" lon="2.367816"><ele>116.94</ele><time>2010-10-09T15:21:32Z</time></trkpt><trkpt lat="43.233895" lon="2.367758"><ele>116.94</ele><time>2010-10-09T15:21:33Z</time></trkpt><trkpt lat="43.233877" lon="2.367668"><ele>116.94</ele><time>2010-10-09T15:21:34Z</time></trkpt><trkpt lat="43.233859" lon="2.367585"><ele>116.94</ele><time>2010-10-09T15:21:35Z</time></trkpt><trkpt lat="43.233820" lon="2.367468"><ele>116.94</ele><time>2010-10-09T15:21:36Z</time></trkpt><trkpt lat="43.233773" lon="2.367284"><ele>116.46</ele><time>2010-10-09T15:21:38Z</time></trkpt><trkpt lat="43.233745" lon="2.367171"><ele>116.46</ele><time>2010-10-09T15:21:39Z</time></trkpt><trkpt lat="43.233691" lon="2.366953"><ele>116.46</ele><time>2010-10-09T15:21:40Z</time></trkpt><trkpt lat="43.233761" lon="2.365678"><ele>115.01</ele><time>2010-10-09T15:21:48Z</time></trkpt><trkpt lat="43.233586" lon="2.363187"><ele>109.25</ele><time>2010-10-09T15:21:59Z</time></trkpt><trkpt lat="43.233280" lon="2.360028"><ele>101.56</ele><time>2010-10-09T15:22:12Z</time></trkpt><trkpt lat="43.232880" lon="2.355924"><ele>98.67</ele><time>2010-10-09T15:22:27Z</time></trkpt><trkpt lat="43.232486" lon="2.351933"><ele>97.71</ele><time>2010-10-09T15:22:42Z</time></trkpt><trkpt lat="43.232066" lon="2.347664"><ele>95.31</ele><time>2010-10-09T15:22:59Z</time></trkpt><trkpt lat="43.231595" lon="2.345473"><ele>95.31</ele><time>2010-10-09T15:23:08Z</time></trkpt><trkpt lat="43.231037" lon="2.344313"><ele>96.27</ele><time>2010-10-09T15:23:15Z</time></trkpt><trkpt lat="43.230850" lon="2.343762"><ele>96.27</ele><time>2010-10-09T15:23:20Z</time></trkpt><trkpt lat="43.230884" lon="2.343715"><ele>96.27</ele><time>2010-10-09T15:23:21Z</time></trkpt><trkpt lat="43.230901" lon="2.343531"><ele>96.27</ele><time>2010-10-09T15:23:23Z</time></trkpt><trkpt lat="43.230880" lon="2.343447"><ele>96.27</ele><time>2010-10-09T15:23:24Z</time></trkpt><trkpt lat="43.230855" lon="2.343361"><ele>96.75</ele><time>2010-10-09T15:23:25Z</time></trkpt><trkpt lat="43.230815" lon="2.343221"><ele>96.27</ele><time>2010-10-09T15:23:26Z</time></trkpt><trkpt lat="43.230790" lon="2.343196"><ele>96.27</ele><time>2010-10-09T15:23:27Z</time></trkpt><trkpt lat="43.230725" lon="2.343134"><ele>96.27</ele><time>2010-10-09T15:23:28Z</time></trkpt><trkpt lat="43.230648" lon="2.343115"><ele>96.75</ele><time>2010-10-09T15:23:29Z</time></trkpt><trkpt lat="43.230566" lon="2.343094"><ele>96.75</ele><time>2010-10-09T15:23:30Z</time></trkpt><trkpt lat="43.230497" lon="2.343138"><ele>96.75</ele><time>2010-10-09T15:23:31Z</time></trkpt><trkpt lat="43.230331" lon="2.343138"><ele>97.23</ele><time>2010-10-09T15:23:32Z</time></trkpt><trkpt lat="43.230273" lon="2.343051"><ele>97.23</ele><time>2010-10-09T15:23:33Z</time></trkpt><trkpt lat="43.230212" lon="2.342959"><ele>97.23</ele><time>2010-10-09T15:23:34Z</time></trkpt><trkpt lat="43.230155" lon="2.342874"><ele>97.71</ele><time>2010-10-09T15:23:35Z</time></trkpt><trkpt lat="43.230105" lon="2.342799"><ele>97.71</ele><time>2010-10-09T15:23:36Z</time></trkpt><trkpt lat="43.229703" lon="2.342069"><ele>97.71</ele><time>2010-10-09T15:23:49Z</time></trkpt><trkpt lat="43.229601" lon="2.341840"><ele>97.23</ele><time>2010-10-09T15:24:01Z</time></trkpt><trkpt lat="43.229420" lon="2.341433"><ele>96.75</ele><time>2010-10-09T15:24:19Z</time></trkpt><trkpt lat="43.229286" lon="2.341131"><ele>97.23</ele><time>2010-10-09T15:24:33Z</time></trkpt><trkpt lat="43.229116" lon="2.340608"><ele>96.75</ele><time>2010-10-09T15:24:53Z</time></trkpt><trkpt lat="43.229027" lon="2.340228"><ele>97.23</ele><time>2010-10-09T15:25:12Z</time></trkpt><trkpt lat="43.228968" lon="2.339973"><ele>96.27</ele><time>2010-10-09T15:25:36Z</time></trkpt><trkpt lat="43.228857" lon="2.339464"><ele>96.27</ele><time>2010-10-09T15:25:57Z</time></trkpt><trkpt lat="43.228764" lon="2.338946"><ele>96.75</ele><time>2010-10-09T15:26:17Z</time></trkpt><trkpt lat="43.228664" lon="2.338391"><ele>96.27</ele><time>2010-10-09T15:26:42Z</time></trkpt><trkpt lat="43.228552" lon="2.337790"><ele>96.27</ele><time>2010-10-09T15:27:07Z</time></trkpt><trkpt lat="43.228444" lon="2.337279"><ele>96.75</ele><time>2010-10-09T15:27:28Z</time></trkpt><trkpt lat="43.228275" lon="2.336628"><ele>97.71</ele><time>2010-10-09T15:27:57Z</time></trkpt><trkpt lat="43.228123" lon="2.336076"><ele>98.19</ele><time>2010-10-09T15:28:19Z</time></trkpt><trkpt lat="43.227973" lon="2.335528"><ele>98.67</ele><time>2010-10-09T15:28:34Z</time></trkpt><trkpt lat="43.227770" lon="2.334788"><ele>99.63</ele><time>2010-10-09T15:28:47Z</time></trkpt><trkpt lat="43.227554" lon="2.334005"><ele>101.08</ele><time>2010-10-09T15:29:06Z</time></trkpt><trkpt lat="43.227338" lon="2.333218"><ele>103.00</ele><time>2010-10-09T15:29:26Z</time></trkpt><trkpt lat="43.227105" lon="2.332462"><ele>105.40</ele><time>2010-10-09T15:29:39Z</time></trkpt><trkpt lat="43.226900" lon="2.331811"><ele>106.84</ele><time>2010-10-09T15:29:54Z</time></trkpt><trkpt lat="43.226861" lon="2.331673"><ele>107.32</ele><time>2010-10-09T15:30:04Z</time></trkpt><trkpt lat="43.226804" lon="2.331417"><ele>107.32</ele><time>2010-10-09T15:30:13Z</time></trkpt><trkpt lat="43.226825" lon="2.331374"><ele>106.84</ele><time>2010-10-09T15:30:14Z</time></trkpt><trkpt lat="43.226840" lon="2.331298"><ele>106.36</ele><time>2010-10-09T15:30:15Z</time></trkpt><trkpt lat="43.226855" lon="2.331220"><ele>106.36</ele><time>2010-10-09T15:30:16Z</time></trkpt><trkpt lat="43.226867" lon="2.331138"><ele>105.88</ele><time>2010-10-09T15:30:17Z</time></trkpt><trkpt lat="43.226851" lon="2.331043"><ele>105.88</ele><time>2010-10-09T15:30:18Z</time></trkpt><trkpt lat="43.226807" lon="2.330955"><ele>105.40</ele><time>2010-10-09T15:30:19Z</time></trkpt><trkpt lat="43.226760" lon="2.330861"><ele>105.40</ele><time>2010-10-09T15:30:20Z</time></trkpt><trkpt lat="43.226690" lon="2.330794"><ele>105.40</ele><time>2010-10-09T15:30:21Z</time></trkpt><trkpt lat="43.226605" lon="2.330766"><ele>105.40</ele><time>2010-10-09T15:30:22Z</time></trkpt><trkpt lat="43.226605" lon="2.330766"><ele>105.40</ele><time>2010-10-09T15:30:23Z</time></trkpt><trkpt lat="43.226418" lon="2.330724"><ele>105.40</ele><time>2010-10-09T15:30:24Z</time></trkpt><trkpt lat="43.226256" lon="2.330654"><ele>105.40</ele><time>2010-10-09T15:30:26Z</time></trkpt><trkpt lat="43.226185" lon="2.330624"><ele>105.40</ele><time>2010-10-09T15:30:27Z</time></trkpt><trkpt lat="43.225897" lon="2.330423"><ele>104.44</ele><time>2010-10-09T15:30:35Z</time></trkpt><trkpt lat="43.225584" lon="2.330065"><ele>103.48</ele><time>2010-10-09T15:30:44Z</time></trkpt><trkpt lat="43.225013" lon="2.329171"><ele>100.60</ele><time>2010-10-09T15:30:52Z</time></trkpt><trkpt lat="43.224127" lon="2.327556"><ele>100.60</ele><time>2010-10-09T15:31:01Z</time></trkpt><trkpt lat="43.222527" lon="2.325161"><ele>109.25</ele><time>2010-10-09T15:31:15Z</time></trkpt><trkpt lat="43.221339" lon="2.324285"><ele>108.29</ele><time>2010-10-09T15:31:22Z</time></trkpt><trkpt lat="43.219608" lon="2.323846"><ele>105.40</ele><time>2010-10-09T15:31:31Z</time></trkpt><trkpt lat="43.217105" lon="2.323238"><ele>107.32</ele><time>2010-10-09T15:31:45Z</time></trkpt><trkpt lat="43.215333" lon="2.322788"><ele>111.65</ele><time>2010-10-09T15:31:56Z</time></trkpt><trkpt lat="43.214041" lon="2.322042"><ele>114.53</ele><time>2010-10-09T15:32:04Z</time></trkpt><trkpt lat="43.213090" lon="2.320797"><ele>115.01</ele><time>2010-10-09T15:32:11Z</time></trkpt><trkpt lat="43.212505" lon="2.319000"><ele>114.53</ele><time>2010-10-09T15:32:18Z</time></trkpt><trkpt lat="43.212362" lon="2.317086"><ele>115.98</ele><time>2010-10-09T15:32:25Z</time></trkpt><trkpt lat="43.212211" lon="2.315148"><ele>116.94</ele><time>2010-10-09T15:32:33Z</time></trkpt><trkpt lat="43.212154" lon="2.314905"><ele>116.94</ele><time>2010-10-09T15:32:34Z</time></trkpt><trkpt lat="43.211439" lon="2.313280"><ele>117.90</ele><time>2010-10-09T15:32:41Z</time></trkpt><trkpt lat="43.210295" lon="2.312027"><ele>118.38</ele><time>2010-10-09T15:32:48Z</time></trkpt><trkpt lat="43.210110" lon="2.311888"><ele>118.38</ele><time>2010-10-09T15:32:49Z</time></trkpt><trkpt lat="43.209924" lon="2.311773"><ele>118.38</ele><time>2010-10-09T15:32:50Z</time></trkpt><trkpt lat="43.208971" lon="2.311463"><ele>118.38</ele><time>2010-10-09T15:32:56Z</time></trkpt><trkpt lat="43.207745" lon="2.311526"><ele>118.38</ele><time>2010-10-09T15:33:04Z</time></trkpt><trkpt lat="43.206844" lon="2.311814"><ele>117.42</ele><time>2010-10-09T15:33:11Z</time></trkpt><trkpt lat="43.206288" lon="2.311966"><ele>115.98</ele><time>2010-10-09T15:33:21Z</time></trkpt><trkpt lat="43.206104" lon="2.312016"><ele>115.01</ele><time>2010-10-09T15:33:30Z</time></trkpt><trkpt lat="43.205785" lon="2.312117"><ele>114.53</ele><time>2010-10-09T15:33:42Z</time></trkpt><trkpt lat="43.205607" lon="2.312173"><ele>114.53</ele><time>2010-10-09T15:33:54Z</time></trkpt><trkpt lat="43.205331" lon="2.312259"><ele>113.57</ele><time>2010-10-09T15:34:07Z</time></trkpt><trkpt lat="43.204883" lon="2.312400"><ele>112.13</ele><time>2010-10-09T15:34:24Z</time></trkpt><trkpt lat="43.204374" lon="2.312625"><ele>113.09</ele><time>2010-10-09T15:34:46Z</time></trkpt><trkpt lat="43.203879" lon="2.312982"><ele>114.05</ele><time>2010-10-09T15:35:03Z</time></trkpt><trkpt lat="43.203408" lon="2.313402"><ele>114.53</ele><time>2010-10-09T15:35:19Z</time></trkpt><trkpt lat="43.203101" lon="2.313647"><ele>115.01</ele><time>2010-10-09T15:35:29Z</time></trkpt><trkpt lat="43.202843" lon="2.313766"><ele>114.53</ele><time>2010-10-09T15:35:35Z</time></trkpt><trkpt lat="43.202812" lon="2.313723"><ele>114.53</ele><time>2010-10-09T15:35:36Z</time></trkpt><trkpt lat="43.202620" lon="2.313652"><ele>114.05</ele><time>2010-10-09T15:35:39Z</time></trkpt><trkpt lat="43.202543" lon="2.313652"><ele>114.05</ele><time>2010-10-09T15:35:40Z</time></trkpt><trkpt lat="43.202464" lon="2.313668"><ele>114.05</ele><time>2010-10-09T15:35:41Z</time></trkpt><trkpt lat="43.202181" lon="2.313743"><ele>114.05</ele><time>2010-10-09T15:35:44Z</time></trkpt><trkpt lat="43.202082" lon="2.313703"><ele>114.05</ele><time>2010-10-09T15:35:45Z</time></trkpt><trkpt lat="43.201975" lon="2.313660"><ele>114.05</ele><time>2010-10-09T15:35:46Z</time></trkpt><trkpt lat="43.201863" lon="2.313616"><ele>114.05</ele><time>2010-10-09T15:35:47Z</time></trkpt><trkpt lat="43.201778" lon="2.313493"><ele>114.05</ele><time>2010-10-09T15:35:48Z</time></trkpt><trkpt lat="43.201693" lon="2.313351"><ele>114.53</ele><time>2010-10-09T15:35:49Z</time></trkpt><trkpt lat="43.201604" lon="2.313203"><ele>115.01</ele><time>2010-10-09T15:35:50Z</time></trkpt><trkpt lat="43.200715" lon="2.311574"><ele>116.94</ele><time>2010-10-09T15:35:59Z</time></trkpt><trkpt lat="43.200028" lon="2.310219"><ele>118.86</ele><time>2010-10-09T15:36:08Z</time></trkpt><trkpt lat="43.199967" lon="2.310106"><ele>118.38</ele><time>2010-10-09T15:36:14Z</time></trkpt><trkpt lat="43.199967" lon="2.310106"><ele>118.86</ele><time>2010-10-09T15:36:30Z</time></trkpt><trkpt lat="43.199967" lon="2.310106"><ele>119.34</ele><time>2010-10-09T15:36:51Z</time></trkpt><trkpt lat="43.199967" lon="2.310106"><ele>119.34</ele><time>2010-10-09T15:37:12Z</time></trkpt><trkpt lat="43.200025" lon="2.310215"><ele>118.38</ele><time>2010-10-09T15:37:44Z</time></trkpt><trkpt lat="43.199954" lon="2.310079"><ele>118.38</ele><time>2010-10-09T15:37:57Z</time></trkpt><trkpt lat="43.199913" lon="2.309996"><ele>117.42</ele><time>2010-10-09T15:38:04Z</time></trkpt><trkpt lat="43.199523" lon="2.309300"><ele>118.86</ele><time>2010-10-09T15:38:11Z</time></trkpt><trkpt lat="43.198914" lon="2.308188"><ele>119.82</ele><time>2010-10-09T15:38:17Z</time></trkpt><trkpt lat="43.197666" lon="2.305929"><ele>126.07</ele><time>2010-10-09T15:38:26Z</time></trkpt><trkpt lat="43.196846" lon="2.304713"><ele>131.36</ele><time>2010-10-09T15:38:33Z</time></trkpt><trkpt lat="43.196436" lon="2.304270"><ele>132.32</ele><time>2010-10-09T15:38:35Z</time></trkpt><trkpt lat="43.196312" lon="2.304138"><ele>132.32</ele><time>2010-10-09T15:38:36Z</time></trkpt><trkpt lat="43.195981" lon="2.303715"><ele>132.80</ele><time>2010-10-09T15:38:39Z</time></trkpt><trkpt lat="43.195759" lon="2.303182"><ele>132.80</ele><time>2010-10-09T15:38:42Z</time></trkpt><trkpt lat="43.195690" lon="2.302996"><ele>132.80</ele><time>2010-10-09T15:38:43Z</time></trkpt><trkpt lat="43.195619" lon="2.302807"><ele>132.80</ele><time>2010-10-09T15:38:44Z</time></trkpt><trkpt lat="43.195576" lon="2.302591"><ele>132.32</ele><time>2010-10-09T15:38:45Z</time></trkpt><trkpt lat="43.195566" lon="2.302382"><ele>131.84</ele><time>2010-10-09T15:38:46Z</time></trkpt><trkpt lat="43.195557" lon="2.302174"><ele>131.84</ele><time>2010-10-09T15:38:47Z</time></trkpt><trkpt lat="43.195547" lon="2.301966"><ele>131.36</ele><time>2010-10-09T15:38:48Z</time></trkpt><trkpt lat="43.195546" lon="2.301752"><ele>131.36</ele><time>2010-10-09T15:38:49Z</time></trkpt><trkpt lat="43.195574" lon="2.301533"><ele>131.36</ele><time>2010-10-09T15:38:50Z</time></trkpt><trkpt lat="43.195603" lon="2.301305"><ele>131.36</ele><time>2010-10-09T15:38:51Z</time></trkpt><trkpt lat="43.195839" lon="2.299447"><ele>132.80</ele><time>2010-10-09T15:39:00Z</time></trkpt><trkpt lat="43.196443" lon="2.295765"><ele>136.16</ele><time>2010-10-09T15:39:09Z</time></trkpt><trkpt lat="43.197410" lon="2.289952"><ele>142.89</ele><time>2010-10-09T15:39:24Z</time></trkpt><trkpt lat="43.198611" lon="2.285054"><ele>145.78</ele><time>2010-10-09T15:39:36Z</time></trkpt><trkpt lat="43.200326" lon="2.279517"><ele>144.82</ele><time>2010-10-09T15:39:49Z</time></trkpt><trkpt lat="43.202084" lon="2.273502"><ele>144.82</ele><time>2010-10-09T15:40:03Z</time></trkpt><trkpt lat="43.202957" lon="2.268661"><ele>149.62</ele><time>2010-10-09T15:40:14Z</time></trkpt><trkpt lat="43.203269" lon="2.264780"><ele>154.43</ele><time>2010-10-09T15:40:23Z</time></trkpt><trkpt lat="43.203458" lon="2.257050"><ele>162.60</ele><time>2010-10-09T15:40:41Z</time></trkpt><trkpt lat="43.203836" lon="2.251044"><ele>168.37</ele><time>2010-10-09T15:40:55Z</time></trkpt><trkpt lat="43.204668" lon="2.246876"><ele>171.25</ele><time>2010-10-09T15:41:05Z</time></trkpt><trkpt lat="43.205749" lon="2.243674"><ele>170.77</ele><time>2010-10-09T15:41:13Z</time></trkpt><trkpt lat="43.207387" lon="2.240287"><ele>166.45</ele><time>2010-10-09T15:41:22Z</time></trkpt><trkpt lat="43.209202" lon="2.237593"><ele>156.83</ele><time>2010-10-09T15:41:31Z</time></trkpt><trkpt lat="43.211986" lon="2.233919"><ele>145.78</ele><time>2010-10-09T15:41:42Z</time></trkpt><trkpt lat="43.214409" lon="2.230162"><ele>136.16</ele><time>2010-10-09T15:41:53Z</time></trkpt><trkpt lat="43.216208" lon="2.226420"><ele>135.20</ele><time>2010-10-09T15:42:03Z</time></trkpt><trkpt lat="43.217627" lon="2.222548"><ele>134.72</ele><time>2010-10-09T15:42:13Z</time></trkpt><trkpt lat="43.218790" lon="2.218127"><ele>134.24</ele><time>2010-10-09T15:42:24Z</time></trkpt><trkpt lat="43.219834" lon="2.212198"><ele>134.24</ele><time>2010-10-09T15:42:38Z</time></trkpt><trkpt lat="43.220809" lon="2.206216"><ele>134.72</ele><time>2010-10-09T15:42:52Z</time></trkpt><trkpt lat="43.221623" lon="2.199916"><ele>133.28</ele><time>2010-10-09T15:43:06Z</time></trkpt><trkpt lat="43.221759" lon="2.194875"><ele>135.68</ele><time>2010-10-09T15:43:17Z</time></trkpt><trkpt lat="43.221485" lon="2.190416"><ele>136.64</ele><time>2010-10-09T15:43:27Z</time></trkpt><trkpt lat="43.221074" lon="2.183992"><ele>138.57</ele><time>2010-10-09T15:43:42Z</time></trkpt><trkpt lat="43.221195" lon="2.179287"><ele>140.01</ele><time>2010-10-09T15:43:53Z</time></trkpt><trkpt lat="43.221646" lon="2.175468"><ele>139.05</ele><time>2010-10-09T15:44:02Z</time></trkpt><trkpt lat="43.222633" lon="2.170571"><ele>138.09</ele><time>2010-10-09T15:44:14Z</time></trkpt><trkpt lat="43.224795" lon="2.160843"><ele>135.68</ele><time>2010-10-09T15:44:38Z</time></trkpt><trkpt lat="43.225611" lon="2.157208"><ele>134.72</ele><time>2010-10-09T15:44:47Z</time></trkpt><trkpt lat="43.226336" lon="2.153980"><ele>134.24</ele><time>2010-10-09T15:44:57Z</time></trkpt><trkpt lat="43.227270" lon="2.149822"><ele>132.80</ele><time>2010-10-09T15:45:08Z</time></trkpt><trkpt lat="43.228182" lon="2.145134"><ele>132.32</ele><time>2010-10-09T15:45:19Z</time></trkpt><trkpt lat="43.228590" lon="2.140540"><ele>132.80</ele><time>2010-10-09T15:45:29Z</time></trkpt><trkpt lat="43.228512" lon="2.136554"><ele>134.72</ele><time>2010-10-09T15:45:38Z</time></trkpt><trkpt lat="43.228265" lon="2.133994"><ele>136.16</ele><time>2010-10-09T15:45:45Z</time></trkpt><trkpt lat="43.227865" lon="2.130964"><ele>137.61</ele><time>2010-10-09T15:45:55Z</time></trkpt><trkpt lat="43.227458" lon="2.127847"><ele>140.49</ele><time>2010-10-09T15:46:05Z</time></trkpt><trkpt lat="43.227361" lon="2.124185"><ele>141.45</ele><time>2010-10-09T15:46:15Z</time></trkpt><trkpt lat="43.227716" lon="2.120162"><ele>141.93</ele><time>2010-10-09T15:46:25Z</time></trkpt><trkpt lat="43.228452" lon="2.116426"><ele>140.97</ele><time>2010-10-09T15:46:34Z</time></trkpt><trkpt lat="43.229591" lon="2.113048"><ele>140.01</ele><time>2010-10-09T15:46:43Z</time></trkpt><trkpt lat="43.231325" lon="2.109413"><ele>137.61</ele><time>2010-10-09T15:46:54Z</time></trkpt><trkpt lat="43.234009" lon="2.104084"><ele>134.72</ele><time>2010-10-09T15:47:11Z</time></trkpt><trkpt lat="43.235478" lon="2.100497"><ele>133.28</ele><time>2010-10-09T15:47:22Z</time></trkpt><trkpt lat="43.236771" lon="2.096497"><ele>134.72</ele><time>2010-10-09T15:47:33Z</time></trkpt><trkpt lat="43.238314" lon="2.091113"><ele>137.13</ele><time>2010-10-09T15:47:46Z</time></trkpt><trkpt lat="43.239954" lon="2.085777"><ele>138.09</ele><time>2010-10-09T15:47:59Z</time></trkpt><trkpt lat="43.241641" lon="2.081457"><ele>139.05</ele><time>2010-10-09T15:48:10Z</time></trkpt><trkpt lat="43.244656" lon="2.074648"><ele>140.01</ele><time>2010-10-09T15:48:28Z</time></trkpt><trkpt lat="43.247005" lon="2.068728"><ele>140.01</ele><time>2010-10-09T15:48:43Z</time></trkpt><trkpt lat="43.248252" lon="2.064890"><ele>140.01</ele><time>2010-10-09T15:48:53Z</time></trkpt><trkpt lat="43.249636" lon="2.059698"><ele>138.57</ele><time>2010-10-09T15:49:07Z</time></trkpt><trkpt lat="43.250588" lon="2.055339"><ele>138.09</ele><time>2010-10-09T15:49:18Z</time></trkpt><trkpt lat="43.251780" lon="2.050065"><ele>138.09</ele><time>2010-10-09T15:49:30Z</time></trkpt><trkpt lat="43.253172" lon="2.045108"><ele>138.57</ele><time>2010-10-09T15:49:41Z</time></trkpt><trkpt lat="43.255083" lon="2.039369"><ele>138.57</ele><time>2010-10-09T15:49:55Z</time></trkpt><trkpt lat="43.257127" lon="2.033526"><ele>139.53</ele><time>2010-10-09T15:50:09Z</time></trkpt><trkpt lat="43.259267" lon="2.027668"><ele>140.97</ele><time>2010-10-09T15:50:23Z</time></trkpt><trkpt lat="43.261464" lon="2.022619"><ele>142.41</ele><time>2010-10-09T15:50:36Z</time></trkpt><trkpt lat="43.265176" lon="2.015091"><ele>144.82</ele><time>2010-10-09T15:50:56Z</time></trkpt><trkpt lat="43.267990" lon="2.009390"><ele>144.82</ele><time>2010-10-09T15:51:12Z</time></trkpt><trkpt lat="43.270627" lon="2.004076"><ele>145.78</ele><time>2010-10-09T15:51:26Z</time></trkpt><trkpt lat="43.273935" lon="1.997472"><ele>146.74</ele><time>2010-10-09T15:51:45Z</time></trkpt><trkpt lat="43.276360" lon="1.992604"><ele>147.22</ele><time>2010-10-09T15:51:58Z</time></trkpt><trkpt lat="43.278084" lon="1.989097"><ele>147.22</ele><time>2010-10-09T15:52:08Z</time></trkpt><trkpt lat="43.280049" lon="1.984997"><ele>147.70</ele><time>2010-10-09T15:52:20Z</time></trkpt><trkpt lat="43.281955" lon="1.980182"><ele>148.66</ele><time>2010-10-09T15:52:33Z</time></trkpt><trkpt lat="43.283350" lon="1.975626"><ele>149.14</ele><time>2010-10-09T15:52:45Z</time></trkpt><trkpt lat="43.284182" lon="1.971952"><ele>150.58</ele><time>2010-10-09T15:52:54Z</time></trkpt><trkpt lat="43.284932" lon="1.967169"><ele>154.43</ele><time>2010-10-09T15:53:05Z</time></trkpt><trkpt lat="43.285613" lon="1.960543"><ele>158.27</ele><time>2010-10-09T15:53:21Z</time></trkpt><trkpt lat="43.286265" lon="1.955071"><ele>160.20</ele><time>2010-10-09T15:53:34Z</time></trkpt><trkpt lat="43.287297" lon="1.949650"><ele>162.60</ele><time>2010-10-09T15:53:47Z</time></trkpt><trkpt lat="43.288667" lon="1.944532"><ele>166.45</ele><time>2010-10-09T15:54:00Z</time></trkpt><trkpt lat="43.290591" lon="1.939248"><ele>171.25</ele><time>2010-10-09T15:54:14Z</time></trkpt><trkpt lat="43.292943" lon="1.934168"><ele>176.06</ele><time>2010-10-09T15:54:28Z</time></trkpt><trkpt lat="43.295183" lon="1.930212"><ele>177.50</ele><time>2010-10-09T15:54:39Z</time></trkpt><trkpt lat="43.297427" lon="1.926885"><ele>178.94</ele><time>2010-10-09T15:54:49Z</time></trkpt><trkpt lat="43.300497" lon="1.922572"><ele>179.90</ele><time>2010-10-09T15:55:02Z</time></trkpt><trkpt lat="43.303326" lon="1.918363"><ele>180.87</ele><time>2010-10-09T15:55:15Z</time></trkpt><trkpt lat="43.305853" lon="1.913930"><ele>178.46</ele><time>2010-10-09T15:55:28Z</time></trkpt><trkpt lat="43.307830" lon="1.909366"><ele>178.94</ele><time>2010-10-09T15:55:40Z</time></trkpt><trkpt lat="43.309626" lon="1.904052"><ele>181.35</ele><time>2010-10-09T15:55:53Z</time></trkpt><trkpt lat="43.310990" lon="1.898370"><ele>181.83</ele><time>2010-10-09T15:56:06Z</time></trkpt><trkpt lat="43.312620" lon="1.891151"><ele>179.90</ele><time>2010-10-09T15:56:22Z</time></trkpt><trkpt lat="43.314313" lon="1.885868"><ele>180.38</ele><time>2010-10-09T15:56:34Z</time></trkpt><trkpt lat="43.316265" lon="1.881024"><ele>181.35</ele><time>2010-10-09T15:56:46Z</time></trkpt><trkpt lat="43.318623" lon="1.875584"><ele>182.79</ele><time>2010-10-09T15:57:01Z</time></trkpt><trkpt lat="43.320602" lon="1.869762"><ele>185.67</ele><time>2010-10-09T15:57:14Z</time></trkpt><trkpt lat="43.322764" lon="1.862458"><ele>190.00</ele><time>2010-10-09T15:57:31Z</time></trkpt><trkpt lat="43.324758" lon="1.857123"><ele>192.40</ele><time>2010-10-09T15:57:44Z</time></trkpt><trkpt lat="43.327067" lon="1.852420"><ele>193.36</ele><time>2010-10-09T15:57:56Z</time></trkpt><trkpt lat="43.329995" lon="1.847642"><ele>193.36</ele><time>2010-10-09T15:58:09Z</time></trkpt><trkpt lat="43.333420" lon="1.842288"><ele>192.88</ele><time>2010-10-09T15:58:24Z</time></trkpt><trkpt lat="43.337131" lon="1.836131"><ele>189.52</ele><time>2010-10-09T15:58:41Z</time></trkpt><trkpt lat="43.339974" lon="1.830857"><ele>189.04</ele><time>2010-10-09T15:58:55Z</time></trkpt><trkpt lat="43.342408" lon="1.826056"><ele>190.00</ele><time>2010-10-09T15:59:08Z</time></trkpt><trkpt lat="43.344903" lon="1.821525"><ele>190.96</ele><time>2010-10-09T15:59:21Z</time></trkpt><trkpt lat="43.348036" lon="1.816303"><ele>190.48</ele><time>2010-10-09T15:59:37Z</time></trkpt><trkpt lat="43.351519" lon="1.810673"><ele>188.56</ele><time>2010-10-09T15:59:54Z</time></trkpt><trkpt lat="43.353587" lon="1.806895"><ele>187.59</ele><time>2010-10-09T16:00:05Z</time></trkpt><trkpt lat="43.355120" lon="1.803067"><ele>186.15</ele><time>2010-10-09T16:00:15Z</time></trkpt><trkpt lat="43.356204" lon="1.799169"><ele>184.23</ele><time>2010-10-09T16:00:25Z</time></trkpt><trkpt lat="43.356940" lon="1.795010"><ele>182.31</ele><time>2010-10-09T16:00:36Z</time></trkpt><trkpt lat="43.357457" lon="1.791055"><ele>180.87</ele><time>2010-10-09T16:00:47Z</time></trkpt><trkpt lat="43.358233" lon="1.787514"><ele>179.90</ele><time>2010-10-09T16:00:57Z</time></trkpt><trkpt lat="43.359388" lon="1.784134"><ele>179.42</ele><time>2010-10-09T16:01:07Z</time></trkpt><trkpt lat="43.361089" lon="1.780620"><ele>178.94</ele><time>2010-10-09T16:01:18Z</time></trkpt><trkpt lat="43.363055" lon="1.776394"><ele>179.42</ele><time>2010-10-09T16:01:31Z</time></trkpt><trkpt lat="43.364202" lon="1.772633"><ele>178.46</ele><time>2010-10-09T16:01:42Z</time></trkpt><trkpt lat="43.365814" lon="1.767011"><ele>177.50</ele><time>2010-10-09T16:01:58Z</time></trkpt><trkpt lat="43.367320" lon="1.762921"><ele>177.02</ele><time>2010-10-09T16:02:09Z</time></trkpt><trkpt lat="43.368997" lon="1.759173"><ele>175.58</ele><time>2010-10-09T16:02:20Z</time></trkpt><trkpt lat="43.370664" lon="1.755987"><ele>175.58</ele><time>2010-10-09T16:02:30Z</time></trkpt><trkpt lat="43.373003" lon="1.751786"><ele>175.10</ele><time>2010-10-09T16:02:42Z</time></trkpt><trkpt lat="43.375207" lon="1.747159"><ele>173.66</ele><time>2010-10-09T16:02:54Z</time></trkpt><trkpt lat="43.377939" lon="1.741370"><ele>172.69</ele><time>2010-10-09T16:03:09Z</time></trkpt><trkpt lat="43.380585" lon="1.736788"><ele>172.21</ele><time>2010-10-09T16:03:22Z</time></trkpt><trkpt lat="43.384977" lon="1.730057"><ele>170.77</ele><time>2010-10-09T16:03:42Z</time></trkpt><trkpt lat="43.388339" lon="1.724569"><ele>168.85</ele><time>2010-10-09T16:03:58Z</time></trkpt><trkpt lat="43.389774" lon="1.721128"><ele>169.33</ele><time>2010-10-09T16:04:07Z</time></trkpt><trkpt lat="43.390813" lon="1.717492"><ele>169.81</ele><time>2010-10-09T16:04:16Z</time></trkpt><trkpt lat="43.391439" lon="1.713317"><ele>170.29</ele><time>2010-10-09T16:04:26Z</time></trkpt><trkpt lat="43.392272" lon="1.706588"><ele>168.85</ele><time>2010-10-09T16:04:42Z</time></trkpt><trkpt lat="43.393264" lon="1.701851"><ele>168.85</ele><time>2010-10-09T16:04:53Z</time></trkpt><trkpt lat="43.394543" lon="1.697468"><ele>168.85</ele><time>2010-10-09T16:05:04Z</time></trkpt><trkpt lat="43.396374" lon="1.692875"><ele>168.37</ele><time>2010-10-09T16:05:16Z</time></trkpt><trkpt lat="43.398452" lon="1.688547"><ele>167.41</ele><time>2010-10-09T16:05:28Z</time></trkpt><trkpt lat="43.401517" lon="1.682164"><ele>164.52</ele><time>2010-10-09T16:05:45Z</time></trkpt><trkpt lat="43.404230" lon="1.677205"><ele>163.56</ele><time>2010-10-09T16:05:59Z</time></trkpt><trkpt lat="43.407399" lon="1.672524"><ele>162.60</ele><time>2010-10-09T16:06:13Z</time></trkpt><trkpt lat="43.412450" lon="1.665542"><ele>161.64</ele><time>2010-10-09T16:06:34Z</time></trkpt><trkpt lat="43.415062" lon="1.661567"><ele>161.16</ele><time>2010-10-09T16:06:46Z</time></trkpt><trkpt lat="43.418525" lon="1.655447"><ele>160.68</ele><time>2010-10-09T16:07:03Z</time></trkpt><trkpt lat="43.421324" lon="1.649683"><ele>161.16</ele><time>2010-10-09T16:07:18Z</time></trkpt><trkpt lat="43.423746" lon="1.643999"><ele>160.20</ele><time>2010-10-09T16:07:33Z</time></trkpt><trkpt lat="43.426195" lon="1.637910"><ele>158.75</ele><time>2010-10-09T16:07:49Z</time></trkpt><trkpt lat="43.429693" lon="1.629406"><ele>158.27</ele><time>2010-10-09T16:08:11Z</time></trkpt><trkpt lat="43.432490" lon="1.623985"><ele>158.75</ele><time>2010-10-09T16:08:26Z</time></trkpt><trkpt lat="43.435478" lon="1.619376"><ele>159.24</ele><time>2010-10-09T16:08:40Z</time></trkpt><trkpt lat="43.438941" lon="1.614810"><ele>157.31</ele><time>2010-10-09T16:08:55Z</time></trkpt><trkpt lat="43.444182" lon="1.609018"><ele>156.35</ele><time>2010-10-09T16:09:16Z</time></trkpt><trkpt lat="43.449036" lon="1.603260"><ele>157.31</ele><time>2010-10-09T16:09:36Z</time></trkpt><trkpt lat="43.452963" lon="1.597861"><ele>155.39</ele><time>2010-10-09T16:09:53Z</time></trkpt><trkpt lat="43.456215" lon="1.592713"><ele>152.99</ele><time>2010-10-09T16:10:08Z</time></trkpt><trkpt lat="43.458741" lon="1.588115"><ele>151.54</ele><time>2010-10-09T16:10:21Z</time></trkpt><trkpt lat="43.461783" lon="1.581961"><ele>151.06</ele><time>2010-10-09T16:10:38Z</time></trkpt><trkpt lat="43.465901" lon="1.573468"><ele>151.54</ele><time>2010-10-09T16:11:01Z</time></trkpt><trkpt lat="43.469207" lon="1.567365"><ele>151.54</ele><time>2010-10-09T16:11:18Z</time></trkpt><trkpt lat="43.472313" lon="1.562674"><ele>151.54</ele><time>2010-10-09T16:11:32Z</time></trkpt><trkpt lat="43.475796" lon="1.558484"><ele>150.58</ele><time>2010-10-09T16:11:46Z</time></trkpt><trkpt lat="43.479637" lon="1.554372"><ele>149.62</ele><time>2010-10-09T16:12:01Z</time></trkpt><trkpt lat="43.482167" lon="1.551859"><ele>149.62</ele><time>2010-10-09T16:12:12Z</time></trkpt><trkpt lat="43.485417" lon="1.548869"><ele>149.14</ele><time>2010-10-09T16:12:25Z</time></trkpt><trkpt lat="43.489735" lon="1.545194"><ele>148.66</ele><time>2010-10-09T16:12:41Z</time></trkpt><trkpt lat="43.495545" lon="1.540695"><ele>148.18</ele><time>2010-10-09T16:13:02Z</time></trkpt><trkpt lat="43.500130" lon="1.537308"><ele>147.22</ele><time>2010-10-09T16:13:18Z</time></trkpt><trkpt lat="43.505691" lon="1.533228"><ele>145.78</ele><time>2010-10-09T16:13:36Z</time></trkpt><trkpt lat="43.511793" lon="1.528750"><ele>145.78</ele><time>2010-10-09T16:13:55Z</time></trkpt><trkpt lat="43.515607" lon="1.525983"><ele>145.78</ele><time>2010-10-09T16:14:08Z</time></trkpt><trkpt lat="43.520748" lon="1.522233"><ele>145.78</ele><time>2010-10-09T16:14:26Z</time></trkpt><trkpt lat="43.525722" lon="1.518511"><ele>145.30</ele><time>2010-10-09T16:14:44Z</time></trkpt><trkpt lat="43.529176" lon="1.515743"><ele>143.85</ele><time>2010-10-09T16:14:57Z</time></trkpt><trkpt lat="43.533605" lon="1.512002"><ele>143.37</ele><time>2010-10-09T16:15:14Z</time></trkpt><trkpt lat="43.536416" lon="1.509426"><ele>142.89</ele><time>2010-10-09T16:15:25Z</time></trkpt><trkpt lat="43.539646" lon="1.506382"><ele>141.93</ele><time>2010-10-09T16:15:39Z</time></trkpt><trkpt lat="43.541706" lon="1.504451"><ele>142.41</ele><time>2010-10-09T16:15:49Z</time></trkpt><trkpt lat="43.543347" lon="1.502873"><ele>142.41</ele><time>2010-10-09T16:15:59Z</time></trkpt><trkpt lat="43.544496" lon="1.501641"><ele>142.89</ele><time>2010-10-09T16:16:09Z</time></trkpt><trkpt lat="43.545544" lon="1.500470"><ele>143.37</ele><time>2010-10-09T16:16:20Z</time></trkpt><trkpt lat="43.545892" lon="1.500114"><ele>144.34</ele><time>2010-10-09T16:16:26Z</time></trkpt><trkpt lat="43.545970" lon="1.500036"><ele>142.89</ele><time>2010-10-09T16:16:30Z</time></trkpt><trkpt lat="43.545970" lon="1.500036"><ele>140.01</ele><time>2010-10-09T16:16:43Z</time></trkpt><trkpt lat="43.545970" lon="1.500036"><ele>140.01</ele><time>2010-10-09T16:16:49Z</time></trkpt><trkpt lat="43.545998" lon="1.500007"><ele>140.01</ele><time>2010-10-09T16:16:50Z</time></trkpt><trkpt lat="43.546430" lon="1.499566"><ele>140.01</ele><time>2010-10-09T16:16:57Z</time></trkpt><trkpt lat="43.547266" lon="1.498856"><ele>139.53</ele><time>2010-10-09T16:17:04Z</time></trkpt><trkpt lat="43.548812" lon="1.497680"><ele>140.01</ele><time>2010-10-09T16:17:13Z</time></trkpt><trkpt lat="43.550504" lon="1.496772"><ele>140.49</ele><time>2010-10-09T16:17:21Z</time></trkpt><trkpt lat="43.553350" lon="1.495717"><ele>140.49</ele><time>2010-10-09T16:17:33Z</time></trkpt><trkpt lat="43.556090" lon="1.494755"><ele>140.97</ele><time>2010-10-09T16:17:45Z</time></trkpt><trkpt lat="43.558739" lon="1.494179"><ele>140.97</ele><time>2010-10-09T16:17:57Z</time></trkpt><trkpt lat="43.562031" lon="1.493865"><ele>141.45</ele><time>2010-10-09T16:18:11Z</time></trkpt><trkpt lat="43.564555" lon="1.493761"><ele>147.70</ele><time>2010-10-09T16:18:23Z</time></trkpt><trkpt lat="43.567742" lon="1.493770"><ele>149.14</ele><time>2010-10-09T16:18:39Z</time></trkpt><trkpt lat="43.570340" lon="1.494180"><ele>146.26</ele><time>2010-10-09T16:18:51Z</time></trkpt><trkpt lat="43.572636" lon="1.495074"><ele>145.78</ele><time>2010-10-09T16:19:02Z</time></trkpt><trkpt lat="43.574878" lon="1.496467"><ele>142.89</ele><time>2010-10-09T16:19:14Z</time></trkpt><trkpt lat="43.577276" lon="1.497889"><ele>140.97</ele><time>2010-10-09T16:19:28Z</time></trkpt><trkpt lat="43.579244" lon="1.498356"><ele>141.45</ele><time>2010-10-09T16:19:39Z</time></trkpt><trkpt lat="43.581198" lon="1.498143"><ele>140.97</ele><time>2010-10-09T16:19:50Z</time></trkpt><trkpt lat="43.583108" lon="1.497408"><ele>139.53</ele><time>2010-10-09T16:20:00Z</time></trkpt><trkpt lat="43.585738" lon="1.496249"><ele>139.53</ele><time>2010-10-09T16:20:15Z</time></trkpt><trkpt lat="43.588761" lon="1.494937"><ele>139.05</ele><time>2010-10-09T16:20:32Z</time></trkpt><trkpt lat="43.591757" lon="1.494045"><ele>139.05</ele><time>2010-10-09T16:20:47Z</time></trkpt><trkpt lat="43.594911" lon="1.493510"><ele>138.57</ele><time>2010-10-09T16:21:03Z</time></trkpt><trkpt lat="43.597040" lon="1.492963"><ele>139.53</ele><time>2010-10-09T16:21:14Z</time></trkpt><trkpt lat="43.598768" lon="1.491823"><ele>139.53</ele><time>2010-10-09T16:21:24Z</time></trkpt><trkpt lat="43.600288" lon="1.490208"><ele>139.05</ele><time>2010-10-09T16:21:34Z</time></trkpt><trkpt lat="43.601761" lon="1.487990"><ele>139.05</ele><time>2010-10-09T16:21:45Z</time></trkpt><trkpt lat="43.603107" lon="1.486426"><ele>139.05</ele><time>2010-10-09T16:21:54Z</time></trkpt><trkpt lat="43.604649" lon="1.485412"><ele>139.53</ele><time>2010-10-09T16:22:03Z</time></trkpt><trkpt lat="43.605835" lon="1.485272"><ele>140.49</ele><time>2010-10-09T16:22:10Z</time></trkpt><trkpt lat="43.606965" lon="1.485300"><ele>139.05</ele><time>2010-10-09T16:22:19Z</time></trkpt><trkpt lat="43.607286" lon="1.485300"><ele>137.61</ele><time>2010-10-09T16:22:25Z</time></trkpt><trkpt lat="43.607329" lon="1.485300"><ele>137.61</ele><time>2010-10-09T16:22:26Z</time></trkpt><trkpt lat="43.607441" lon="1.485300"><ele>137.61</ele><time>2010-10-09T16:22:27Z</time></trkpt><trkpt lat="43.607441" lon="1.485300"><ele>137.61</ele><time>2010-10-09T16:22:28Z</time></trkpt><trkpt lat="43.607441" lon="1.485300"><ele>137.61</ele><time>2010-10-09T16:22:29Z</time></trkpt><trkpt lat="43.607441" lon="1.485300"><ele>137.61</ele><time>2010-10-09T16:22:30Z</time></trkpt><trkpt lat="43.607441" lon="1.485300"><ele>137.13</ele><time>2010-10-09T16:22:31Z</time></trkpt><trkpt lat="43.607294" lon="1.484979"><ele>137.13</ele><time>2010-10-09T16:22:32Z</time></trkpt><trkpt lat="43.607279" lon="1.484944"><ele>136.64</ele><time>2010-10-09T16:22:33Z</time></trkpt><trkpt lat="43.607263" lon="1.484910"><ele>136.16</ele><time>2010-10-09T16:22:34Z</time></trkpt><trkpt lat="43.607249" lon="1.484879"><ele>135.68</ele><time>2010-10-09T16:22:35Z</time></trkpt><trkpt lat="43.607239" lon="1.484856"><ele>135.20</ele><time>2010-10-09T16:22:36Z</time></trkpt><trkpt lat="43.607229" lon="1.484834"><ele>134.72</ele><time>2010-10-09T16:22:37Z</time></trkpt><trkpt lat="43.607216" lon="1.484787"><ele>133.28</ele><time>2010-10-09T16:22:39Z</time></trkpt><trkpt lat="43.607208" lon="1.484757"><ele>132.80</ele><time>2010-10-09T16:22:40Z</time></trkpt><trkpt lat="43.607199" lon="1.484721"><ele>131.84</ele><time>2010-10-09T16:22:41Z</time></trkpt><trkpt lat="43.607188" lon="1.484675"><ele>130.40</ele><time>2010-10-09T16:22:42Z</time></trkpt><trkpt lat="43.607167" lon="1.484619"><ele>129.43</ele><time>2010-10-09T16:22:43Z</time></trkpt><trkpt lat="43.607142" lon="1.484565"><ele>128.95</ele><time>2010-10-09T16:22:44Z</time></trkpt><trkpt lat="43.607115" lon="1.484504"><ele>127.99</ele><time>2010-10-09T16:22:45Z</time></trkpt><trkpt lat="43.606824" lon="1.483769"><ele>127.03</ele><time>2010-10-09T16:22:57Z</time></trkpt><trkpt lat="43.606635" lon="1.483307"><ele>129.43</ele><time>2010-10-09T16:23:10Z</time></trkpt><trkpt lat="43.606304" lon="1.482459"><ele>130.40</ele><time>2010-10-09T16:23:23Z</time></trkpt><trkpt lat="43.606017" lon="1.481693"><ele>131.84</ele><time>2010-10-09T16:23:31Z</time></trkpt><trkpt lat="43.605443" lon="1.480235"><ele>136.64</ele><time>2010-10-09T16:23:44Z</time></trkpt><trkpt lat="43.605406" lon="1.480115"><ele>138.09</ele><time>2010-10-09T16:23:50Z</time></trkpt><trkpt lat="43.605302" lon="1.479785"><ele>138.57</ele><time>2010-10-09T16:24:20Z</time></trkpt><trkpt lat="43.605136" lon="1.478902"><ele>140.49</ele><time>2010-10-09T16:24:28Z</time></trkpt><trkpt lat="43.605161" lon="1.478158"><ele>143.85</ele><time>2010-10-09T16:24:36Z</time></trkpt><trkpt lat="43.605280" lon="1.476920"><ele>147.70</ele><time>2010-10-09T16:24:45Z</time></trkpt><trkpt lat="43.605292" lon="1.476824"><ele>148.18</ele><time>2010-10-09T16:24:46Z</time></trkpt><trkpt lat="43.605318" lon="1.476729"><ele>148.66</ele><time>2010-10-09T16:24:47Z</time></trkpt><trkpt lat="43.605567" lon="1.476001"><ele>151.54</ele><time>2010-10-09T16:24:54Z</time></trkpt><trkpt lat="43.605609" lon="1.475918"><ele>152.03</ele><time>2010-10-09T16:24:55Z</time></trkpt><trkpt lat="43.605854" lon="1.475608"><ele>153.95</ele><time>2010-10-09T16:25:03Z</time></trkpt><trkpt lat="43.605869" lon="1.475640"><ele>153.95</ele><time>2010-10-09T16:25:04Z</time></trkpt><trkpt lat="43.605886" lon="1.475676"><ele>153.95</ele><time>2010-10-09T16:25:05Z</time></trkpt><trkpt lat="43.606157" lon="1.476241"><ele>150.58</ele><time>2010-10-09T16:25:14Z</time></trkpt><trkpt lat="43.606263" lon="1.476463"><ele>148.66</ele><time>2010-10-09T16:25:18Z</time></trkpt><trkpt lat="43.606268" lon="1.476516"><ele>148.18</ele><time>2010-10-09T16:25:19Z</time></trkpt><trkpt lat="43.606268" lon="1.476516"><ele>148.18</ele><time>2010-10-09T16:25:22Z</time></trkpt><trkpt lat="43.606255" lon="1.476529"><ele>148.18</ele><time>2010-10-09T16:25:23Z</time></trkpt><trkpt lat="43.606263" lon="1.476521"><ele>147.70</ele><time>2010-10-09T16:25:24Z</time></trkpt><trkpt lat="43.606273" lon="1.476511"><ele>147.70</ele><time>2010-10-09T16:25:25Z</time></trkpt><trkpt lat="43.606341" lon="1.476614"><ele>147.70</ele><time>2010-10-09T16:25:26Z</time></trkpt><trkpt lat="43.606341" lon="1.476614"><ele>147.22</ele><time>2010-10-09T16:25:27Z</time></trkpt><trkpt lat="43.606399" lon="1.476722"><ele>146.74</ele><time>2010-10-09T16:25:28Z</time></trkpt><trkpt lat="43.606595" lon="1.477175"><ele>144.34</ele><time>2010-10-09T16:25:35Z</time></trkpt><trkpt lat="43.606579" lon="1.477190"><ele>144.34</ele><time>2010-10-09T16:25:36Z</time></trkpt><trkpt lat="43.606558" lon="1.477209"><ele>143.85</ele><time>2010-10-09T16:25:37Z</time></trkpt><trkpt lat="43.606492" lon="1.477273"><ele>143.37</ele><time>2010-10-09T16:25:39Z</time></trkpt><trkpt lat="43.605974" lon="1.477764"><ele>143.37</ele><time>2010-10-09T16:25:48Z</time></trkpt><trkpt lat="43.605792" lon="1.477937"><ele>142.89</ele><time>2010-10-09T16:25:56Z</time></trkpt><trkpt lat="43.605792" lon="1.477937"><ele>142.89</ele><time>2010-10-09T16:25:57Z</time></trkpt><trkpt lat="43.605792" lon="1.477937"><ele>142.89</ele><time>2010-10-09T16:25:58Z</time></trkpt><trkpt lat="43.605792" lon="1.477937"><ele>142.89</ele><time>2010-10-09T16:25:59Z</time></trkpt><trkpt lat="43.605792" lon="1.477937"><ele>142.89</ele><time>2010-10-09T16:26:00Z</time></trkpt><trkpt lat="43.605725" lon="1.477851"><ele>142.41</ele><time>2010-10-09T16:26:01Z</time></trkpt><trkpt lat="43.605711" lon="1.477812"><ele>142.41</ele><time>2010-10-09T16:26:02Z</time></trkpt><trkpt lat="43.605491" lon="1.477235"><ele>143.85</ele><time>2010-10-09T16:26:10Z</time></trkpt><trkpt lat="43.605285" lon="1.476881"><ele>146.74</ele><time>2010-10-09T16:26:19Z</time></trkpt><trkpt lat="43.605285" lon="1.476881"><ele>146.74</ele><time>2010-10-09T16:26:20Z</time></trkpt><trkpt lat="43.605319" lon="1.476856"><ele>147.22</ele><time>2010-10-09T16:26:21Z</time></trkpt><trkpt lat="43.605509" lon="1.477275"><ele>147.22</ele><time>2010-10-09T16:26:22Z</time></trkpt><trkpt lat="43.605284" lon="1.476889"><ele>147.70</ele><time>2010-10-09T16:26:23Z</time></trkpt><trkpt lat="43.605280" lon="1.476920"><ele>148.18</ele><time>2010-10-09T16:26:24Z</time></trkpt><trkpt lat="43.605274" lon="1.476966"><ele>148.18</ele><time>2010-10-09T16:26:25Z</time></trkpt><trkpt lat="43.605544" lon="1.477367"><ele>147.22</ele><time>2010-10-09T16:26:32Z</time></trkpt><trkpt lat="43.605157" lon="1.478222"><ele>146.26</ele><time>2010-10-09T16:26:40Z</time></trkpt><trkpt lat="43.605157" lon="1.478222"><ele>146.26</ele><time>2010-10-09T16:27:03Z</time></trkpt><trkpt lat="43.605117" lon="1.478571"><ele>145.30</ele><time>2010-10-09T16:27:11Z</time></trkpt><trkpt lat="43.605131" lon="1.478817"><ele>145.30</ele><time>2010-10-09T16:27:14Z</time></trkpt><trkpt lat="43.605138" lon="1.478928"><ele>145.30</ele><time>2010-10-09T16:27:15Z</time></trkpt><trkpt lat="43.605145" lon="1.479041"><ele>144.82</ele><time>2010-10-09T16:27:16Z</time></trkpt><trkpt lat="43.605151" lon="1.479146"><ele>144.34</ele><time>2010-10-09T16:27:17Z</time></trkpt><trkpt lat="43.605157" lon="1.479236"><ele>144.34</ele><time>2010-10-09T16:27:18Z</time></trkpt><trkpt lat="43.605162" lon="1.479311"><ele>143.85</ele><time>2010-10-09T16:27:19Z</time></trkpt><trkpt lat="43.605225" lon="1.479555"><ele>142.89</ele><time>2010-10-09T16:27:23Z</time></trkpt><trkpt lat="43.605315" lon="1.479825"><ele>141.93</ele><time>2010-10-09T16:27:27Z</time></trkpt><trkpt lat="43.605315" lon="1.479825"><ele>141.45</ele><time>2010-10-09T16:27:28Z</time></trkpt><trkpt lat="43.605171" lon="1.479994"><ele>141.45</ele><time>2010-10-09T16:27:29Z</time></trkpt><trkpt lat="43.604542" lon="1.480376"><ele>140.49</ele><time>2010-10-09T16:27:36Z</time></trkpt><trkpt lat="43.604210" lon="1.480512"><ele>140.01</ele><time>2010-10-09T16:27:40Z</time></trkpt><trkpt lat="43.604139" lon="1.480535"><ele>140.01</ele><time>2010-10-09T16:27:41Z</time></trkpt><trkpt lat="43.604069" lon="1.480490"><ele>139.53</ele><time>2010-10-09T16:27:42Z</time></trkpt><trkpt lat="43.603991" lon="1.480435"><ele>139.05</ele><time>2010-10-09T16:27:43Z</time></trkpt><trkpt lat="43.603912" lon="1.480380"><ele>139.05</ele><time>2010-10-09T16:27:44Z</time></trkpt><trkpt lat="43.603837" lon="1.480327"><ele>139.05</ele><time>2010-10-09T16:27:45Z</time></trkpt><trkpt lat="43.603760" lon="1.480273"><ele>139.05</ele><time>2010-10-09T16:27:46Z</time></trkpt><trkpt lat="43.603359" lon="1.479848"><ele>139.05</ele><time>2010-10-09T16:27:52Z</time></trkpt><trkpt lat="43.603235" lon="1.479802"><ele>139.05</ele><time>2010-10-09T16:27:53Z</time></trkpt><trkpt lat="43.603235" lon="1.479765"><ele>139.05</ele><time>2010-10-09T16:27:54Z</time></trkpt><trkpt lat="43.603149" lon="1.479678"><ele>143.37</ele><time>2010-10-09T16:28:03Z</time></trkpt><trkpt lat="43.602664" lon="1.479065"><ele>146.26</ele><time>2010-10-09T16:28:09Z</time></trkpt><trkpt lat="43.602629" lon="1.479029"><ele>146.74</ele><time>2010-10-09T16:28:10Z</time></trkpt><trkpt lat="43.602588" lon="1.478988"><ele>147.22</ele><time>2010-10-09T16:28:11Z</time></trkpt><trkpt lat="43.602549" lon="1.478950"><ele>148.18</ele><time>2010-10-09T16:28:12Z</time></trkpt><trkpt lat="43.602511" lon="1.478876"><ele>148.66</ele><time>2010-10-09T16:28:13Z</time></trkpt><trkpt lat="43.602511" lon="1.478876"><ele>149.14</ele><time>2010-10-09T16:28:14Z</time></trkpt><trkpt lat="43.602692" lon="1.479057"><ele>150.10</ele><time>2010-10-09T16:28:15Z</time></trkpt><trkpt lat="43.602248" lon="1.478820"><ele>150.58</ele><time>2010-10-09T16:28:16Z</time></trkpt><trkpt lat="43.602556" lon="1.478624"><ele>151.06</ele><time>2010-10-09T16:28:17Z</time></trkpt><trkpt lat="43.602587" lon="1.478455"><ele>153.95</ele><time>2010-10-09T16:28:24Z</time></trkpt><trkpt lat="43.602579" lon="1.478429"><ele>152.99</ele><time>2010-10-09T16:28:25Z</time></trkpt><trkpt lat="43.602559" lon="1.478421"><ele>152.51</ele><time>2010-10-09T16:28:26Z</time></trkpt><trkpt lat="43.602533" lon="1.478412"><ele>151.54</ele><time>2010-10-09T16:28:27Z</time></trkpt><trkpt lat="43.602508" lon="1.478402"><ele>151.06</ele><time>2010-10-09T16:28:28Z</time></trkpt><trkpt lat="43.602248" lon="1.478304"><ele>148.18</ele><time>2010-10-09T16:28:34Z</time></trkpt><trkpt lat="43.602251" lon="1.478279"><ele>148.18</ele><time>2010-10-09T16:28:35Z</time></trkpt><trkpt lat="43.602255" lon="1.478242"><ele>147.70</ele><time>2010-10-09T16:28:36Z</time></trkpt><trkpt lat="43.602260" lon="1.478196"><ele>148.18</ele><time>2010-10-09T16:28:37Z</time></trkpt><trkpt lat="43.602265" lon="1.478149"><ele>148.18</ele><time>2010-10-09T16:28:38Z</time></trkpt><trkpt lat="43.602271" lon="1.478098"><ele>148.18</ele><time>2010-10-09T16:28:39Z</time></trkpt><trkpt lat="43.602275" lon="1.478057"><ele>148.66</ele><time>2010-10-09T16:28:40Z</time></trkpt><trkpt lat="43.602279" lon="1.478028"><ele>148.66</ele><time>2010-10-09T16:28:41Z</time></trkpt><trkpt lat="43.602284" lon="1.477976"><ele>147.70</ele><time>2010-10-09T16:28:44Z</time></trkpt><trkpt lat="43.602346" lon="1.477934"><ele>147.70</ele><time>2010-10-09T16:28:45Z</time></trkpt><trkpt lat="43.602378" lon="1.477942"><ele>147.70</ele><time>2010-10-09T16:28:47Z</time></trkpt><trkpt lat="43.602404" lon="1.477950"><ele>147.70</ele><time>2010-10-09T16:28:48Z</time></trkpt><trkpt lat="43.602439" lon="1.477959"><ele>147.22</ele><time>2010-10-09T16:28:49Z</time></trkpt><trkpt lat="43.602673" lon="1.478023"><ele>144.82</ele><time>2010-10-09T16:28:58Z</time></trkpt><trkpt lat="43.602939" lon="1.478098"><ele>140.01</ele><time>2010-10-09T16:29:09Z</time></trkpt><trkpt lat="43.603816" lon="1.478341"><ele>127.03</ele><time>2010-10-09T16:29:21Z</time></trkpt><trkpt lat="43.603883" lon="1.478359"><ele>126.07</ele><time>2010-10-09T16:29:22Z</time></trkpt><trkpt lat="43.603948" lon="1.478376"><ele>125.11</ele><time>2010-10-09T16:29:23Z</time></trkpt><trkpt lat="43.604084" lon="1.478413"><ele>122.71</ele><time>2010-10-09T16:29:25Z</time></trkpt><trkpt lat="43.604143" lon="1.478429"><ele>121.74</ele><time>2010-10-09T16:29:26Z</time></trkpt><trkpt lat="43.604329" lon="1.478479"><ele>115.50</ele><time>2010-10-09T16:29:33Z</time></trkpt><trkpt lat="43.604498" lon="1.478524"><ele>116.94</ele><time>2010-10-09T16:29:37Z</time></trkpt><trkpt lat="43.604706" lon="1.478580"><ele>116.94</ele><time>2010-10-09T16:29:45Z</time></trkpt><trkpt lat="43.604899" lon="1.478631"><ele>120.78</ele><time>2010-10-09T16:30:11Z</time></trkpt><trkpt lat="43.604939" lon="1.478642"><ele>121.26</ele><time>2010-10-09T16:30:12Z</time></trkpt><trkpt lat="43.604939" lon="1.478642"><ele>122.22</ele><time>2010-10-09T16:30:13Z</time></trkpt><trkpt lat="43.605130" lon="1.478597"><ele>124.15</ele><time>2010-10-09T16:30:14Z</time></trkpt><trkpt lat="43.605111" lon="1.478461"><ele>127.51</ele><time>2010-10-09T16:30:15Z</time></trkpt><trkpt lat="43.605106" lon="1.478373"><ele>129.92</ele><time>2010-10-09T16:30:16Z</time></trkpt><trkpt lat="43.605247" lon="1.477182"><ele>140.49</ele><time>2010-10-09T16:30:25Z</time></trkpt><trkpt lat="43.604742" lon="1.475923"><ele>150.10</ele><time>2010-10-09T16:30:34Z</time></trkpt><trkpt lat="43.604651" lon="1.475560"><ele>157.31</ele><time>2010-10-09T16:30:42Z</time></trkpt><trkpt lat="43.604651" lon="1.475560"><ele>158.27</ele><time>2010-10-09T16:30:58Z</time></trkpt><trkpt lat="43.604611" lon="1.475400"><ele>160.20</ele><time>2010-10-09T16:31:10Z</time></trkpt><trkpt lat="43.604593" lon="1.475326"><ele>160.68</ele><time>2010-10-09T16:31:11Z</time></trkpt><trkpt lat="43.604532" lon="1.475083"><ele>162.12</ele><time>2010-10-09T16:31:14Z</time></trkpt><trkpt lat="43.604451" lon="1.474758"><ele>165.96</ele><time>2010-10-09T16:31:18Z</time></trkpt><trkpt lat="43.604440" lon="1.474715"><ele>166.93</ele><time>2010-10-09T16:31:19Z</time></trkpt><trkpt lat="43.604440" lon="1.474715"><ele>167.41</ele><time>2010-10-09T16:31:20Z</time></trkpt><trkpt lat="43.604503" lon="1.474657"><ele>167.41</ele><time>2010-10-09T16:31:21Z</time></trkpt><trkpt lat="43.604530" lon="1.474640"><ele>167.41</ele><time>2010-10-09T16:31:22Z</time></trkpt><trkpt lat="43.604881" lon="1.474096"><ele>165.96</ele><time>2010-10-09T16:31:32Z</time></trkpt><trkpt lat="43.605062" lon="1.474314"><ele>165.00</ele><time>2010-10-09T16:31:36Z</time></trkpt><trkpt lat="43.605385" lon="1.474815"><ele>159.72</ele><time>2010-10-09T16:31:50Z</time></trkpt><trkpt lat="43.605673" lon="1.475290"><ele>154.91</ele><time>2010-10-09T16:32:00Z</time></trkpt><trkpt lat="43.605769" lon="1.475448"><ele>152.03</ele><time>2010-10-09T16:32:09Z</time></trkpt><trkpt lat="43.605769" lon="1.475448"><ele>152.03</ele><time>2010-10-09T16:32:12Z</time></trkpt><trkpt lat="43.605769" lon="1.475448"><ele>152.03</ele><time>2010-10-09T16:32:13Z</time></trkpt><trkpt lat="43.605799" lon="1.475536"><ele>152.51</ele><time>2010-10-09T16:32:14Z</time></trkpt><trkpt lat="43.605777" lon="1.475581"><ele>152.51</ele><time>2010-10-09T16:32:15Z</time></trkpt><trkpt lat="43.605749" lon="1.475636"><ele>152.51</ele><time>2010-10-09T16:32:16Z</time></trkpt><trkpt lat="43.605716" lon="1.475703"><ele>152.51</ele><time>2010-10-09T16:32:17Z</time></trkpt><trkpt lat="43.605564" lon="1.476007"><ele>152.03</ele><time>2010-10-09T16:32:24Z</time></trkpt><trkpt lat="43.605549" lon="1.476037"><ele>152.03</ele><time>2010-10-09T16:32:25Z</time></trkpt><trkpt lat="43.605536" lon="1.476062"><ele>151.54</ele><time>2010-10-09T16:32:26Z</time></trkpt><trkpt lat="43.605518" lon="1.476100"><ele>151.54</ele><time>2010-10-09T16:32:27Z</time></trkpt><trkpt lat="43.605499" lon="1.476149"><ele>151.06</ele><time>2010-10-09T16:32:28Z</time></trkpt><trkpt lat="43.605352" lon="1.476929"><ele>146.74</ele><time>2010-10-09T16:32:37Z</time></trkpt><trkpt lat="43.605254" lon="1.477128"><ele>146.26</ele><time>2010-10-09T16:32:38Z</time></trkpt><trkpt lat="43.605169" lon="1.478054"><ele>142.89</ele><time>2010-10-09T16:32:47Z</time></trkpt><trkpt lat="43.605159" lon="1.478188"><ele>144.34</ele><time>2010-10-09T16:32:55Z</time></trkpt><trkpt lat="43.605137" lon="1.478500"><ele>144.82</ele><time>2010-10-09T16:33:28Z</time></trkpt><trkpt lat="43.605132" lon="1.478569"><ele>144.34</ele><time>2010-10-09T16:33:29Z</time></trkpt><trkpt lat="43.605126" lon="1.478733"><ele>143.85</ele><time>2010-10-09T16:33:31Z</time></trkpt><trkpt lat="43.605132" lon="1.478838"><ele>143.85</ele><time>2010-10-09T16:33:32Z</time></trkpt><trkpt lat="43.605139" lon="1.478952"><ele>143.85</ele><time>2010-10-09T16:33:33Z</time></trkpt><trkpt lat="43.605147" lon="1.479070"><ele>144.34</ele><time>2010-10-09T16:33:34Z</time></trkpt><trkpt lat="43.605154" lon="1.479188"><ele>144.34</ele><time>2010-10-09T16:33:35Z</time></trkpt><trkpt lat="43.605161" lon="1.479305"><ele>144.34</ele><time>2010-10-09T16:33:36Z</time></trkpt><trkpt lat="43.605301" lon="1.479782"><ele>142.41</ele><time>2010-10-09T16:33:41Z</time></trkpt><trkpt lat="43.605318" lon="1.479833"><ele>141.93</ele><time>2010-10-09T16:33:42Z</time></trkpt><trkpt lat="43.605318" lon="1.479833"><ele>141.93</ele><time>2010-10-09T16:33:43Z</time></trkpt><trkpt lat="43.605158" lon="1.480002"><ele>141.93</ele><time>2010-10-09T16:33:44Z</time></trkpt><trkpt lat="43.605091" lon="1.480044"><ele>141.93</ele><time>2010-10-09T16:33:45Z</time></trkpt><trkpt lat="43.605014" lon="1.480091"><ele>141.45</ele><time>2010-10-09T16:33:46Z</time></trkpt><trkpt lat="43.604245" lon="1.480500"><ele>140.49</ele><time>2010-10-09T16:33:55Z</time></trkpt><trkpt lat="43.604197" lon="1.480516"><ele>140.01</ele><time>2010-10-09T16:33:56Z</time></trkpt><trkpt lat="43.604158" lon="1.480529"><ele>140.01</ele><time>2010-10-09T16:33:57Z</time></trkpt><trkpt lat="43.604117" lon="1.480523"><ele>139.53</ele><time>2010-10-09T16:33:58Z</time></trkpt><trkpt lat="43.604075" lon="1.480494"><ele>138.57</ele><time>2010-10-09T16:33:59Z</time></trkpt><trkpt lat="43.604024" lon="1.480458"><ele>138.09</ele><time>2010-10-09T16:34:00Z</time></trkpt><trkpt lat="43.603896" lon="1.480368"><ele>137.13</ele><time>2010-10-09T16:34:02Z</time></trkpt><trkpt lat="43.603828" lon="1.480321"><ele>137.13</ele><time>2010-10-09T16:34:03Z</time></trkpt><trkpt lat="43.603757" lon="1.480271"><ele>137.13</ele><time>2010-10-09T16:34:04Z</time></trkpt><trkpt lat="43.603324" lon="1.479836"><ele>137.61</ele><time>2010-10-09T16:34:11Z</time></trkpt><trkpt lat="43.603235" lon="1.479779"><ele>138.09</ele><time>2010-10-09T16:34:12Z</time></trkpt><trkpt lat="43.603208" lon="1.479708"><ele>139.05</ele><time>2010-10-09T16:34:17Z</time></trkpt><trkpt lat="43.603157" lon="1.479682"><ele>139.05</ele><time>2010-10-09T16:34:18Z</time></trkpt><trkpt lat="43.602613" lon="1.479014"><ele>145.30</ele><time>2010-10-09T16:34:29Z</time></trkpt><trkpt lat="43.602567" lon="1.478968"><ele>145.78</ele><time>2010-10-09T16:34:30Z</time></trkpt><trkpt lat="43.602525" lon="1.478925"><ele>146.74</ele><time>2010-10-09T16:34:31Z</time></trkpt><trkpt lat="43.602520" lon="1.478825"><ele>147.22</ele><time>2010-10-09T16:34:32Z</time></trkpt><trkpt lat="43.602534" lon="1.478749"><ele>147.70</ele><time>2010-10-09T16:34:33Z</time></trkpt><trkpt lat="43.602548" lon="1.478668"><ele>148.18</ele><time>2010-10-09T16:34:34Z</time></trkpt><trkpt lat="43.602562" lon="1.478594"><ele>148.66</ele><time>2010-10-09T16:34:35Z</time></trkpt><trkpt lat="43.602576" lon="1.478428"><ele>150.58</ele><time>2010-10-09T16:34:39Z</time></trkpt><trkpt lat="43.602559" lon="1.478421"><ele>150.58</ele><time>2010-10-09T16:34:40Z</time></trkpt><trkpt lat="43.602529" lon="1.478410"><ele>150.58</ele><time>2010-10-09T16:34:41Z</time></trkpt><trkpt lat="43.602491" lon="1.478396"><ele>151.06</ele><time>2010-10-09T16:34:42Z</time></trkpt><trkpt lat="43.602455" lon="1.478382"><ele>151.06</ele><time>2010-10-09T16:34:43Z</time></trkpt><trkpt lat="43.602249" lon="1.478298"><ele>152.51</ele><time>2010-10-09T16:34:48Z</time></trkpt><trkpt lat="43.602252" lon="1.478269"><ele>152.99</ele><time>2010-10-09T16:34:49Z</time></trkpt><trkpt lat="43.602257" lon="1.478224"><ele>153.47</ele><time>2010-10-09T16:34:50Z</time></trkpt><trkpt lat="43.602263" lon="1.478167"><ele>153.95</ele><time>2010-10-09T16:34:51Z</time></trkpt><trkpt lat="43.602270" lon="1.478103"><ele>153.95</ele><time>2010-10-09T16:34:52Z</time></trkpt><trkpt lat="43.602276" lon="1.478048"><ele>154.43</ele><time>2010-10-09T16:34:53Z</time></trkpt><trkpt lat="43.602452" lon="1.477963"><ele>153.95</ele><time>2010-10-09T16:35:01Z</time></trkpt><trkpt lat="43.602677" lon="1.478024"><ele>152.03</ele><time>2010-10-09T16:35:05Z</time></trkpt><trkpt lat="43.602777" lon="1.478051"><ele>151.06</ele><time>2010-10-09T16:35:07Z</time></trkpt><trkpt lat="43.602965" lon="1.478105"><ele>149.62</ele><time>2010-10-09T16:35:10Z</time></trkpt><trkpt lat="43.603806" lon="1.478338"><ele>144.34</ele><time>2010-10-09T16:35:20Z</time></trkpt><trkpt lat="43.604350" lon="1.478485"><ele>140.97</ele><time>2010-10-09T16:35:28Z</time></trkpt><trkpt lat="43.604418" lon="1.478503"><ele>140.49</ele><time>2010-10-09T16:35:30Z</time></trkpt><trkpt lat="43.604465" lon="1.478515"><ele>140.01</ele><time>2010-10-09T16:35:31Z</time></trkpt><trkpt lat="43.604517" lon="1.478529"><ele>139.53</ele><time>2010-10-09T16:35:32Z</time></trkpt><trkpt lat="43.604576" lon="1.478545"><ele>139.05</ele><time>2010-10-09T16:35:33Z</time></trkpt><trkpt lat="43.604641" lon="1.478562"><ele>138.57</ele><time>2010-10-09T16:35:34Z</time></trkpt><trkpt lat="43.604707" lon="1.478580"><ele>138.57</ele><time>2010-10-09T16:35:35Z</time></trkpt><trkpt lat="43.604767" lon="1.478596"><ele>138.09</ele><time>2010-10-09T16:35:36Z</time></trkpt><trkpt lat="43.604875" lon="1.478625"><ele>137.61</ele><time>2010-10-09T16:35:42Z</time></trkpt><trkpt lat="43.605011" lon="1.478661"><ele>137.61</ele><time>2010-10-09T16:36:08Z</time></trkpt><trkpt lat="43.605011" lon="1.478661"><ele>138.09</ele><time>2010-10-09T16:36:09Z</time></trkpt><trkpt lat="43.605125" lon="1.478662"><ele>138.09</ele><time>2010-10-09T16:36:10Z</time></trkpt><trkpt lat="43.605116" lon="1.478556"><ele>138.09</ele><time>2010-10-09T16:36:11Z</time></trkpt><trkpt lat="43.605111" lon="1.478470"><ele>139.05</ele><time>2010-10-09T16:36:12Z</time></trkpt><trkpt lat="43.605145" lon="1.478379"><ele>139.53</ele><time>2010-10-09T16:36:13Z</time></trkpt><trkpt lat="43.605245" lon="1.477204"><ele>146.74</ele><time>2010-10-09T16:36:21Z</time></trkpt><trkpt lat="43.604884" lon="1.476477"><ele>150.58</ele><time>2010-10-09T16:36:25Z</time></trkpt><trkpt lat="43.604516" lon="1.475020"><ele>162.12</ele><time>2010-10-09T16:36:35Z</time></trkpt><trkpt lat="43.604473" lon="1.474848"><ele>164.52</ele><time>2010-10-09T16:36:37Z</time></trkpt><trkpt lat="43.604438" lon="1.474707"><ele>168.85</ele><time>2010-10-09T16:36:44Z</time></trkpt><trkpt lat="43.604388" lon="1.474532"><ele>172.21</ele><time>2010-10-09T16:37:37Z</time></trkpt><trkpt lat="43.604388" lon="1.474532"><ele>172.69</ele><time>2010-10-09T16:37:38Z</time></trkpt><trkpt lat="43.604435" lon="1.474352"><ele>172.69</ele><time>2010-10-09T16:37:39Z</time></trkpt><trkpt lat="43.604946" lon="1.474059"><ele>173.66</ele><time>2010-10-09T16:37:45Z</time></trkpt><trkpt lat="43.606691" lon="1.473305"><ele>168.85</ele><time>2010-10-09T16:38:00Z</time></trkpt><trkpt lat="43.606810" lon="1.473239"><ele>168.85</ele><time>2010-10-09T16:38:01Z</time></trkpt><trkpt lat="43.606844" lon="1.473119"><ele>168.85</ele><time>2010-10-09T16:38:02Z</time></trkpt><trkpt lat="43.606879" lon="1.472996"><ele>168.85</ele><time>2010-10-09T16:38:03Z</time></trkpt><trkpt lat="43.606907" lon="1.472878"><ele>168.85</ele><time>2010-10-09T16:38:04Z</time></trkpt><trkpt lat="43.607274" lon="1.471378"><ele>169.81</ele><time>2010-10-09T16:38:16Z</time></trkpt><trkpt lat="43.607355" lon="1.471036"><ele>170.77</ele><time>2010-10-09T16:38:19Z</time></trkpt><trkpt lat="43.607355" lon="1.470923"><ele>171.73</ele><time>2010-10-09T16:38:20Z</time></trkpt><trkpt lat="43.607355" lon="1.470804"><ele>172.69</ele><time>2010-10-09T16:38:21Z</time></trkpt><trkpt lat="43.607312" lon="1.469154"><ele>184.23</ele><time>2010-10-09T16:38:33Z</time></trkpt><trkpt lat="43.607286" lon="1.468350"><ele>187.59</ele><time>2010-10-09T16:38:41Z</time></trkpt><trkpt lat="43.607226" lon="1.467242"><ele>190.96</ele><time>2010-10-09T16:38:51Z</time></trkpt><trkpt lat="43.607215" lon="1.467067"><ele>191.44</ele><time>2010-10-09T16:38:54Z</time></trkpt><trkpt lat="43.607029" lon="1.466284"><ele>191.44</ele><time>2010-10-09T16:39:01Z</time></trkpt><trkpt lat="43.606897" lon="1.465744"><ele>190.48</ele><time>2010-10-09T16:39:05Z</time></trkpt><trkpt lat="43.606862" lon="1.465604"><ele>190.48</ele><time>2010-10-09T16:39:06Z</time></trkpt><trkpt lat="43.606465" lon="1.463956"><ele>185.19</ele><time>2010-10-09T16:39:17Z</time></trkpt><trkpt lat="43.606299" lon="1.463230"><ele>180.87</ele><time>2010-10-09T16:39:25Z</time></trkpt><trkpt lat="43.606080" lon="1.462052"><ele>175.10</ele><time>2010-10-09T16:39:37Z</time></trkpt><trkpt lat="43.605847" lon="1.460796"><ele>168.85</ele><time>2010-10-09T16:39:48Z</time></trkpt><trkpt lat="43.605785" lon="1.460462"><ele>166.45</ele><time>2010-10-09T16:39:52Z</time></trkpt><trkpt lat="43.605771" lon="1.460391"><ele>165.96</ele><time>2010-10-09T16:39:53Z</time></trkpt><trkpt lat="43.605759" lon="1.460316"><ele>165.48</ele><time>2010-10-09T16:39:54Z</time></trkpt><trkpt lat="43.605622" lon="1.459471"><ele>160.20</ele><time>2010-10-09T16:40:05Z</time></trkpt><trkpt lat="43.605544" lon="1.458992"><ele>153.47</ele><time>2010-10-09T16:40:14Z</time></trkpt><trkpt lat="43.605468" lon="1.458575"><ele>151.06</ele><time>2010-10-09T16:40:24Z</time></trkpt><trkpt lat="43.605445" lon="1.458483"><ele>151.06</ele><time>2010-10-09T16:40:26Z</time></trkpt><trkpt lat="43.605338" lon="1.458081"><ele>150.10</ele><time>2010-10-09T16:40:36Z</time></trkpt><trkpt lat="43.605250" lon="1.457742"><ele>150.58</ele><time>2010-10-09T16:41:00Z</time></trkpt><trkpt lat="43.605204" lon="1.457556"><ele>150.58</ele><time>2010-10-09T16:41:02Z</time></trkpt><trkpt lat="43.605164" lon="1.457374"><ele>150.10</ele><time>2010-10-09T16:41:04Z</time></trkpt><trkpt lat="43.605051" lon="1.456727"><ele>148.18</ele><time>2010-10-09T16:41:11Z</time></trkpt><trkpt lat="43.605051" lon="1.456727"><ele>148.18</ele><time>2010-10-09T16:41:12Z</time></trkpt><trkpt lat="43.605115" lon="1.456602"><ele>148.18</ele><time>2010-10-09T16:41:13Z</time></trkpt><trkpt lat="43.605172" lon="1.456579"><ele>148.18</ele><time>2010-10-09T16:41:14Z</time></trkpt><trkpt lat="43.605237" lon="1.456553"><ele>147.70</ele><time>2010-10-09T16:41:15Z</time></trkpt><trkpt lat="43.605300" lon="1.456528"><ele>147.70</ele><time>2010-10-09T16:41:16Z</time></trkpt><trkpt lat="43.605354" lon="1.456506"><ele>147.22</ele><time>2010-10-09T16:41:17Z</time></trkpt><trkpt lat="43.605400" lon="1.456487"><ele>146.74</ele><time>2010-10-09T16:41:18Z</time></trkpt><trkpt lat="43.605440" lon="1.456471"><ele>146.74</ele><time>2010-10-09T16:41:19Z</time></trkpt><trkpt lat="43.605512" lon="1.456435"><ele>146.26</ele><time>2010-10-09T16:41:20Z</time></trkpt><trkpt lat="43.605657" lon="1.456352"><ele>144.82</ele><time>2010-10-09T16:41:23Z</time></trkpt><trkpt lat="43.605713" lon="1.456320"><ele>144.34</ele><time>2010-10-09T16:41:24Z</time></trkpt><trkpt lat="43.605772" lon="1.456287"><ele>143.85</ele><time>2010-10-09T16:41:25Z</time></trkpt><trkpt lat="43.605894" lon="1.456217"><ele>139.53</ele><time>2010-10-09T16:41:32Z</time></trkpt><trkpt lat="43.606231" lon="1.456024"><ele>137.13</ele><time>2010-10-09T16:41:44Z</time></trkpt><trkpt lat="43.606666" lon="1.455754"><ele>137.13</ele><time>2010-10-09T16:41:50Z</time></trkpt><trkpt lat="43.607344" lon="1.455351"><ele>136.64</ele><time>2010-10-09T16:41:59Z</time></trkpt><trkpt lat="43.608005" lon="1.454980"><ele>131.84</ele><time>2010-10-09T16:42:05Z</time></trkpt><trkpt lat="43.608094" lon="1.454929"><ele>130.88</ele><time>2010-10-09T16:42:06Z</time></trkpt><trkpt lat="43.608165" lon="1.454888"><ele>129.92</ele><time>2010-10-09T16:42:07Z</time></trkpt><trkpt lat="43.608313" lon="1.454804"><ele>124.15</ele><time>2010-10-09T16:42:12Z</time></trkpt><trkpt lat="43.608332" lon="1.454793"><ele>123.67</ele><time>2010-10-09T16:42:13Z</time></trkpt><trkpt lat="43.608438" lon="1.454713"><ele>122.22</ele><time>2010-10-09T16:42:16Z</time></trkpt><trkpt lat="43.608438" lon="1.454713"><ele>122.22</ele><time>2010-10-09T16:42:17Z</time></trkpt><trkpt lat="43.608527" lon="1.454645"><ele>121.74</ele><time>2010-10-09T16:42:18Z</time></trkpt><trkpt lat="43.608618" lon="1.454574"><ele>120.30</ele><time>2010-10-09T16:42:21Z</time></trkpt><trkpt lat="43.608636" lon="1.454561"><ele>119.34</ele><time>2010-10-09T16:42:22Z</time></trkpt><trkpt lat="43.608650" lon="1.454550"><ele>118.38</ele><time>2010-10-09T16:42:23Z</time></trkpt><trkpt lat="43.608650" lon="1.454550"><ele>117.90</ele><time>2010-10-09T16:42:32Z</time></trkpt><trkpt lat="43.608650" lon="1.454550"><ele>119.82</ele><time>2010-10-09T16:42:43Z</time></trkpt><trkpt lat="43.608736" lon="1.454484"><ele>120.30</ele><time>2010-10-09T16:42:44Z</time></trkpt><trkpt lat="43.608761" lon="1.454465"><ele>120.30</ele><time>2010-10-09T16:42:45Z</time></trkpt><trkpt lat="43.609164" lon="1.454028"><ele>126.07</ele><time>2010-10-09T16:42:56Z</time></trkpt><trkpt lat="43.609852" lon="1.453278"><ele>129.43</ele><time>2010-10-09T16:43:07Z</time></trkpt><trkpt lat="43.610078" lon="1.453090"><ele>130.88</ele><time>2010-10-09T16:43:14Z</time></trkpt><trkpt lat="43.610078" lon="1.453090"><ele>136.16</ele><time>2010-10-09T16:43:40Z</time></trkpt><trkpt lat="43.610078" lon="1.453090"><ele>136.64</ele><time>2010-10-09T16:43:59Z</time></trkpt><trkpt lat="43.610078" lon="1.453090"><ele>137.13</ele><time>2010-10-09T16:45:09Z</time></trkpt></trkseg></trk><trk><name>ACTIVE LOG: 10 окт 2010 08:42</name><trkseg><trkpt lat="43.610659" lon="1.453061"><ele>143.37</ele><time>2010-10-10T06:42:04Z</time></trkpt><trkpt lat="43.610580" lon="1.453017"><ele>142.89</ele><time>2010-10-10T06:42:08Z</time></trkpt><trkpt lat="43.610251" lon="1.452553"><ele>141.45</ele><time>2010-10-10T06:42:37Z</time></trkpt><trkpt lat="43.610017" lon="1.452967"><ele>140.49</ele><time>2010-10-10T06:42:57Z</time></trkpt><trkpt lat="43.609902" lon="1.453193"><ele>157.79</ele><time>2010-10-10T06:43:36Z</time></trkpt><trkpt lat="43.609903" lon="1.453222"><ele>157.31</ele><time>2010-10-10T06:43:47Z</time></trkpt><trkpt lat="43.609908" lon="1.453222"><ele>157.79</ele><time>2010-10-10T06:43:50Z</time></trkpt><trkpt lat="43.610102" lon="1.453070"><ele>154.91</ele><time>2010-10-10T06:43:55Z</time></trkpt><trkpt lat="43.610157" lon="1.453039"><ele>153.95</ele><time>2010-10-10T06:43:56Z</time></trkpt><trkpt lat="43.610212" lon="1.453007"><ele>152.99</ele><time>2010-10-10T06:43:57Z</time></trkpt><trkpt lat="43.610272" lon="1.452973"><ele>152.03</ele><time>2010-10-10T06:43:58Z</time></trkpt><trkpt lat="43.610272" lon="1.452973"><ele>150.58</ele><time>2010-10-10T06:43:59Z</time></trkpt><trkpt lat="43.610991" lon="1.452562"><ele>140.97</ele><time>2010-10-10T06:44:09Z</time></trkpt><trkpt lat="43.611013" lon="1.452549"><ele>139.53</ele><time>2010-10-10T06:44:15Z</time></trkpt><trkpt lat="43.611013" lon="1.452549"><ele>139.53</ele><time>2010-10-10T06:44:16Z</time></trkpt><trkpt lat="43.611082" lon="1.452506"><ele>139.05</ele><time>2010-10-10T06:44:35Z</time></trkpt><trkpt lat="43.611418" lon="1.452305"><ele>137.61</ele><time>2010-10-10T06:44:42Z</time></trkpt><trkpt lat="43.611966" lon="1.452014"><ele>137.13</ele><time>2010-10-10T06:44:49Z</time></trkpt><trkpt lat="43.612878" lon="1.451477"><ele>137.13</ele><time>2010-10-10T06:44:59Z</time></trkpt><trkpt lat="43.612878" lon="1.451477"><ele>137.61</ele><time>2010-10-10T06:45:00Z</time></trkpt><trkpt lat="43.613023" lon="1.451369"><ele>137.61</ele><time>2010-10-10T06:45:01Z</time></trkpt><trkpt lat="43.613090" lon="1.451315"><ele>137.61</ele><time>2010-10-10T06:45:03Z</time></trkpt><trkpt lat="43.613218" lon="1.451212"><ele>138.09</ele><time>2010-10-10T06:45:04Z</time></trkpt><trkpt lat="43.613424" lon="1.451016"><ele>137.61</ele><time>2010-10-10T06:45:08Z</time></trkpt><trkpt lat="43.613467" lon="1.450958"><ele>137.61</ele><time>2010-10-10T06:45:09Z</time></trkpt><trkpt lat="43.613902" lon="1.450155"><ele>136.64</ele><time>2010-10-10T06:45:19Z</time></trkpt><trkpt lat="43.614633" lon="1.448761"><ele>135.20</ele><time>2010-10-10T06:45:29Z</time></trkpt><trkpt lat="43.615102" lon="1.447665"><ele>134.24</ele><time>2010-10-10T06:45:38Z</time></trkpt><trkpt lat="43.615196" lon="1.447420"><ele>133.76</ele><time>2010-10-10T06:45:40Z</time></trkpt><trkpt lat="43.615263" lon="1.447128"><ele>133.76</ele><time>2010-10-10T06:45:42Z</time></trkpt><trkpt lat="43.615274" lon="1.446972"><ele>133.76</ele><time>2010-10-10T06:45:43Z</time></trkpt><trkpt lat="43.615285" lon="1.446645"><ele>133.76</ele><time>2010-10-10T06:45:45Z</time></trkpt><trkpt lat="43.615225" lon="1.446169"><ele>133.76</ele><time>2010-10-10T06:45:48Z</time></trkpt><trkpt lat="43.615206" lon="1.446014"><ele>133.76</ele><time>2010-10-10T06:45:49Z</time></trkpt><trkpt lat="43.615187" lon="1.445859"><ele>133.76</ele><time>2010-10-10T06:45:50Z</time></trkpt><trkpt lat="43.615187" lon="1.445859"><ele>133.76</ele><time>2010-10-10T06:45:51Z</time></trkpt><trkpt lat="43.615148" lon="1.445538"><ele>133.76</ele><time>2010-10-10T06:45:52Z</time></trkpt><trkpt lat="43.614977" lon="1.444038"><ele>134.24</ele><time>2010-10-10T06:46:00Z</time></trkpt><trkpt lat="43.614951" lon="1.442725"><ele>135.68</ele><time>2010-10-10T06:46:07Z</time></trkpt><trkpt lat="43.615365" lon="1.441067"><ele>137.13</ele><time>2010-10-10T06:46:16Z</time></trkpt><trkpt lat="43.615963" lon="1.439163"><ele>138.09</ele><time>2010-10-10T06:46:26Z</time></trkpt><trkpt lat="43.616043" lon="1.437978"><ele>137.61</ele><time>2010-10-10T06:46:34Z</time></trkpt><trkpt lat="43.616011" lon="1.437636"><ele>137.13</ele><time>2010-10-10T06:46:35Z</time></trkpt><trkpt lat="43.615994" lon="1.437465"><ele>137.13</ele><time>2010-10-10T06:46:36Z</time></trkpt><trkpt lat="43.615897" lon="1.436953"><ele>135.68</ele><time>2010-10-10T06:46:39Z</time></trkpt><trkpt lat="43.615370" lon="1.435027"><ele>133.28</ele><time>2010-10-10T06:46:50Z</time></trkpt><trkpt lat="43.614586" lon="1.433381"><ele>133.28</ele><time>2010-10-10T06:47:00Z</time></trkpt><trkpt lat="43.613702" lon="1.431863"><ele>134.24</ele><time>2010-10-10T06:47:11Z</time></trkpt><trkpt lat="43.613050" lon="1.430219"><ele>133.76</ele><time>2010-10-10T06:47:21Z</time></trkpt><trkpt lat="43.612590" lon="1.428593"><ele>132.32</ele><time>2010-10-10T06:47:30Z</time></trkpt><trkpt lat="43.612062" lon="1.426355"><ele>131.36</ele><time>2010-10-10T06:47:43Z</time></trkpt><trkpt lat="43.612008" lon="1.426082"><ele>130.88</ele><time>2010-10-10T06:47:46Z</time></trkpt><trkpt lat="43.611952" lon="1.425804"><ele>129.43</ele><time>2010-10-10T06:47:54Z</time></trkpt><trkpt lat="43.611907" lon="1.425578"><ele>128.95</ele><time>2010-10-10T06:47:58Z</time></trkpt><trkpt lat="43.611895" lon="1.425520"><ele>128.95</ele><time>2010-10-10T06:47:59Z</time></trkpt><trkpt lat="43.611895" lon="1.425520"><ele>128.95</ele><time>2010-10-10T06:48:00Z</time></trkpt><trkpt lat="43.611941" lon="1.425323"><ele>128.95</ele><time>2010-10-10T06:48:01Z</time></trkpt><trkpt lat="43.611861" lon="1.425347"><ele>128.95</ele><time>2010-10-10T06:48:02Z</time></trkpt><trkpt lat="43.611861" lon="1.425347"><ele>130.40</ele><time>2010-10-10T06:48:03Z</time></trkpt><trkpt lat="43.612064" lon="1.425286"><ele>130.40</ele><time>2010-10-10T06:48:04Z</time></trkpt><trkpt lat="43.612106" lon="1.425274"><ele>129.92</ele><time>2010-10-10T06:48:05Z</time></trkpt><trkpt lat="43.612207" lon="1.425244"><ele>129.92</ele><time>2010-10-10T06:48:07Z</time></trkpt><trkpt lat="43.612207" lon="1.425244"><ele>130.40</ele><time>2010-10-10T06:48:08Z</time></trkpt><trkpt lat="43.612280" lon="1.425163"><ele>129.92</ele><time>2010-10-10T06:48:09Z</time></trkpt><trkpt lat="43.611861" lon="1.425347"><ele>129.92</ele><time>2010-10-10T06:48:10Z</time></trkpt><trkpt lat="43.611861" lon="1.425347"><ele>129.43</ele><time>2010-10-10T06:48:11Z</time></trkpt><trkpt lat="43.612235" lon="1.424908"><ele>129.43</ele><time>2010-10-10T06:48:12Z</time></trkpt><trkpt lat="43.612201" lon="1.424714"><ele>128.95</ele><time>2010-10-10T06:48:14Z</time></trkpt><trkpt lat="43.612046" lon="1.423529"><ele>128.47</ele><time>2010-10-10T06:48:23Z</time></trkpt><trkpt lat="43.611778" lon="1.421815"><ele>129.43</ele><time>2010-10-10T06:48:35Z</time></trkpt><trkpt lat="43.611549" lon="1.420387"><ele>130.88</ele><time>2010-10-10T06:48:45Z</time></trkpt><trkpt lat="43.611532" lon="1.420282"><ele>131.36</ele><time>2010-10-10T06:48:51Z</time></trkpt><trkpt lat="43.611532" lon="1.420282"><ele>132.32</ele><time>2010-10-10T06:49:24Z</time></trkpt><trkpt lat="43.611464" lon="1.419862"><ele>133.28</ele><time>2010-10-10T06:49:30Z</time></trkpt><trkpt lat="43.611303" lon="1.418549"><ele>134.24</ele><time>2010-10-10T06:49:39Z</time></trkpt><trkpt lat="43.611303" lon="1.418394"><ele>134.24</ele><time>2010-10-10T06:49:40Z</time></trkpt><trkpt lat="43.611303" lon="1.418244"><ele>134.24</ele><time>2010-10-10T06:49:41Z</time></trkpt><trkpt lat="43.611338" lon="1.418092"><ele>134.24</ele><time>2010-10-10T06:49:42Z</time></trkpt><trkpt lat="43.611381" lon="1.417986"><ele>134.72</ele><time>2010-10-10T06:49:43Z</time></trkpt><trkpt lat="43.611458" lon="1.417914"><ele>134.72</ele><time>2010-10-10T06:49:44Z</time></trkpt><trkpt lat="43.611535" lon="1.417856"><ele>134.24</ele><time>2010-10-10T06:49:45Z</time></trkpt><trkpt lat="43.611622" lon="1.417832"><ele>134.24</ele><time>2010-10-10T06:49:46Z</time></trkpt><trkpt lat="43.611719" lon="1.417823"><ele>134.24</ele><time>2010-10-10T06:49:47Z</time></trkpt><trkpt lat="43.611819" lon="1.417814"><ele>134.24</ele><time>2010-10-10T06:49:48Z</time></trkpt><trkpt lat="43.611922" lon="1.417804"><ele>134.24</ele><time>2010-10-10T06:49:49Z</time></trkpt><trkpt lat="43.612230" lon="1.417781"><ele>134.24</ele><time>2010-10-10T06:49:52Z</time></trkpt><trkpt lat="43.612331" lon="1.417731"><ele>134.24</ele><time>2010-10-10T06:49:53Z</time></trkpt><trkpt lat="43.612434" lon="1.417679"><ele>134.24</ele><time>2010-10-10T06:49:54Z</time></trkpt><trkpt lat="43.612504" lon="1.417606"><ele>134.24</ele><time>2010-10-10T06:49:55Z</time></trkpt><trkpt lat="43.612579" lon="1.417502"><ele>133.76</ele><time>2010-10-10T06:49:56Z</time></trkpt><trkpt lat="43.612676" lon="1.417365"><ele>133.76</ele><time>2010-10-10T06:49:57Z</time></trkpt><trkpt lat="43.612719" lon="1.417236"><ele>133.28</ele><time>2010-10-10T06:49:58Z</time></trkpt><trkpt lat="43.612740" lon="1.417112"><ele>132.80</ele><time>2010-10-10T06:49:59Z</time></trkpt><trkpt lat="43.612736" lon="1.416915"><ele>132.80</ele><time>2010-10-10T06:50:00Z</time></trkpt><trkpt lat="43.612677" lon="1.416765"><ele>132.32</ele><time>2010-10-10T06:50:01Z</time></trkpt><trkpt lat="43.612591" lon="1.416637"><ele>131.84</ele><time>2010-10-10T06:50:02Z</time></trkpt><trkpt lat="43.612505" lon="1.416507"><ele>131.36</ele><time>2010-10-10T06:50:03Z</time></trkpt><trkpt lat="43.612400" lon="1.416432"><ele>131.36</ele><time>2010-10-10T06:50:04Z</time></trkpt><trkpt lat="43.612287" lon="1.416351"><ele>130.88</ele><time>2010-10-10T06:50:05Z</time></trkpt><trkpt lat="43.612168" lon="1.416276"><ele>130.88</ele><time>2010-10-10T06:50:06Z</time></trkpt><trkpt lat="43.611136" lon="1.415579"><ele>131.36</ele><time>2010-10-10T06:50:14Z</time></trkpt><trkpt lat="43.610169" lon="1.414239"><ele>134.72</ele><time>2010-10-10T06:50:22Z</time></trkpt><trkpt lat="43.609109" lon="1.411888"><ele>137.13</ele><time>2010-10-10T06:50:33Z</time></trkpt><trkpt lat="43.607644" lon="1.408652"><ele>139.05</ele><time>2010-10-10T06:50:46Z</time></trkpt><trkpt lat="43.605830" lon="1.404621"><ele>140.97</ele><time>2010-10-10T06:51:01Z</time></trkpt><trkpt lat="43.604136" lon="1.401296"><ele>142.89</ele><time>2010-10-10T06:51:15Z</time></trkpt><trkpt lat="43.602879" lon="1.399648"><ele>142.89</ele><time>2010-10-10T06:51:23Z</time></trkpt><trkpt lat="43.600880" lon="1.398013"><ele>144.34</ele><time>2010-10-10T06:51:33Z</time></trkpt><trkpt lat="43.598807" lon="1.397122"><ele>144.82</ele><time>2010-10-10T06:51:42Z</time></trkpt><trkpt lat="43.596856" lon="1.396894"><ele>144.82</ele><time>2010-10-10T06:51:50Z</time></trkpt><trkpt lat="43.594736" lon="1.397311"><ele>145.78</ele><time>2010-10-10T06:51:59Z</time></trkpt><trkpt lat="43.592015" lon="1.398535"><ele>145.30</ele><time>2010-10-10T06:52:11Z</time></trkpt><trkpt lat="43.590076" lon="1.399530"><ele>144.82</ele><time>2010-10-10T06:52:20Z</time></trkpt><trkpt lat="43.586928" lon="1.401325"><ele>142.41</ele><time>2010-10-10T06:52:36Z</time></trkpt><trkpt lat="43.583955" lon="1.403226"><ele>141.93</ele><time>2010-10-10T06:52:51Z</time></trkpt><trkpt lat="43.580348" lon="1.405556"><ele>143.37</ele><time>2010-10-10T06:53:09Z</time></trkpt><trkpt lat="43.576748" lon="1.407830"><ele>140.01</ele><time>2010-10-10T06:53:27Z</time></trkpt><trkpt lat="43.573565" lon="1.409796"><ele>143.37</ele><time>2010-10-10T06:53:44Z</time></trkpt><trkpt lat="43.571337" lon="1.411498"><ele>143.85</ele><time>2010-10-10T06:53:57Z</time></trkpt><trkpt lat="43.569967" lon="1.412929"><ele>143.37</ele><time>2010-10-10T06:54:06Z</time></trkpt><trkpt lat="43.569041" lon="1.414621"><ele>143.85</ele><time>2010-10-10T06:54:14Z</time></trkpt><trkpt lat="43.568284" lon="1.416713"><ele>144.34</ele><time>2010-10-10T06:54:23Z</time></trkpt><trkpt lat="43.568160" lon="1.416891"><ele>144.82</ele><time>2010-10-10T06:54:24Z</time></trkpt><trkpt lat="43.568028" lon="1.417060"><ele>145.30</ele><time>2010-10-10T06:54:25Z</time></trkpt><trkpt lat="43.567890" lon="1.417219"><ele>145.30</ele><time>2010-10-10T06:54:26Z</time></trkpt><trkpt lat="43.567741" lon="1.417368"><ele>145.78</ele><time>2010-10-10T06:54:27Z</time></trkpt><trkpt lat="43.567589" lon="1.417511"><ele>145.78</ele><time>2010-10-10T06:54:28Z</time></trkpt><trkpt lat="43.567418" lon="1.417625"><ele>146.26</ele><time>2010-10-10T06:54:29Z</time></trkpt><trkpt lat="43.567246" lon="1.417740"><ele>146.26</ele><time>2010-10-10T06:54:30Z</time></trkpt><trkpt lat="43.567071" lon="1.417850"><ele>146.74</ele><time>2010-10-10T06:54:31Z</time></trkpt><trkpt lat="43.566883" lon="1.417936"><ele>147.22</ele><time>2010-10-10T06:54:32Z</time></trkpt><trkpt lat="43.565528" lon="1.418392"><ele>148.66</ele><time>2010-10-10T06:54:40Z</time></trkpt><trkpt lat="43.563931" lon="1.418425"><ele>147.22</ele><time>2010-10-10T06:54:47Z</time></trkpt><trkpt lat="43.563733" lon="1.418364"><ele>146.74</ele><time>2010-10-10T06:54:48Z</time></trkpt><trkpt lat="43.563540" lon="1.418267"><ele>146.74</ele><time>2010-10-10T06:54:49Z</time></trkpt><trkpt lat="43.563353" lon="1.418157"><ele>146.26</ele><time>2010-10-10T06:54:50Z</time></trkpt><trkpt lat="43.563164" lon="1.418031"><ele>146.26</ele><time>2010-10-10T06:54:51Z</time></trkpt><trkpt lat="43.562973" lon="1.417904"><ele>145.78</ele><time>2010-10-10T06:54:52Z</time></trkpt><trkpt lat="43.561428" lon="1.416620"><ele>145.30</ele><time>2010-10-10T06:55:00Z</time></trkpt><trkpt lat="43.558814" lon="1.413929"><ele>146.74</ele><time>2010-10-10T06:55:14Z</time></trkpt><trkpt lat="43.556003" lon="1.411205"><ele>148.18</ele><time>2010-10-10T06:55:29Z</time></trkpt><trkpt lat="43.553824" lon="1.409236"><ele>149.62</ele><time>2010-10-10T06:55:41Z</time></trkpt><trkpt lat="43.550690" lon="1.406525"><ele>151.06</ele><time>2010-10-10T06:55:58Z</time></trkpt><trkpt lat="43.548193" lon="1.404173"><ele>152.03</ele><time>2010-10-10T06:56:12Z</time></trkpt><trkpt lat="43.545345" lon="1.401270"><ele>152.03</ele><time>2010-10-10T06:56:28Z</time></trkpt><trkpt lat="43.542216" lon="1.397973"><ele>153.47</ele><time>2010-10-10T06:56:45Z</time></trkpt><trkpt lat="43.538964" lon="1.394649"><ele>153.95</ele><time>2010-10-10T06:57:02Z</time></trkpt><trkpt lat="43.536240" lon="1.392042"><ele>154.91</ele><time>2010-10-10T06:57:16Z</time></trkpt><trkpt lat="43.536051" lon="1.391875"><ele>154.91</ele><time>2010-10-10T06:57:17Z</time></trkpt><trkpt lat="43.532585" lon="1.388719"><ele>159.24</ele><time>2010-10-10T06:57:35Z</time></trkpt><trkpt lat="43.530781" lon="1.386961"><ele>158.27</ele><time>2010-10-10T06:57:45Z</time></trkpt><trkpt lat="43.529215" lon="1.385361"><ele>156.35</ele><time>2010-10-10T06:57:55Z</time></trkpt><trkpt lat="43.527036" lon="1.382941"><ele>155.87</ele><time>2010-10-10T06:58:08Z</time></trkpt><trkpt lat="43.525361" lon="1.381403"><ele>156.35</ele><time>2010-10-10T06:58:18Z</time></trkpt><trkpt lat="43.523799" lon="1.379992"><ele>155.39</ele><time>2010-10-10T06:58:28Z</time></trkpt><trkpt lat="43.522806" lon="1.378314"><ele>155.87</ele><time>2010-10-10T06:58:36Z</time></trkpt><trkpt lat="43.521697" lon="1.377159"><ele>159.24</ele><time>2010-10-10T06:58:43Z</time></trkpt><trkpt lat="43.520565" lon="1.376764"><ele>162.60</ele><time>2010-10-10T06:58:49Z</time></trkpt><trkpt lat="43.519344" lon="1.376938"><ele>164.04</ele><time>2010-10-10T06:58:56Z</time></trkpt><trkpt lat="43.517411" lon="1.377943"><ele>163.08</ele><time>2010-10-10T06:59:08Z</time></trkpt><trkpt lat="43.516982" lon="1.378035"><ele>162.60</ele><time>2010-10-10T06:59:11Z</time></trkpt><trkpt lat="43.516855" lon="1.378043"><ele>162.12</ele><time>2010-10-10T06:59:12Z</time></trkpt><trkpt lat="43.516740" lon="1.377984"><ele>162.12</ele><time>2010-10-10T06:59:13Z</time></trkpt><trkpt lat="43.516654" lon="1.377870"><ele>162.12</ele><time>2010-10-10T06:59:14Z</time></trkpt><trkpt lat="43.516587" lon="1.377746"><ele>162.12</ele><time>2010-10-10T06:59:15Z</time></trkpt><trkpt lat="43.516517" lon="1.377602"><ele>162.12</ele><time>2010-10-10T06:59:16Z</time></trkpt><trkpt lat="43.516446" lon="1.377453"><ele>162.12</ele><time>2010-10-10T06:59:17Z</time></trkpt><trkpt lat="43.515726" lon="1.375807"><ele>159.72</ele><time>2010-10-10T06:59:26Z</time></trkpt><trkpt lat="43.514924" lon="1.373944"><ele>159.72</ele><time>2010-10-10T06:59:36Z</time></trkpt><trkpt lat="43.514818" lon="1.373838"><ele>159.24</ele><time>2010-10-10T06:59:37Z</time></trkpt><trkpt lat="43.514714" lon="1.373734"><ele>159.24</ele><time>2010-10-10T06:59:38Z</time></trkpt><trkpt lat="43.514611" lon="1.373637"><ele>159.24</ele><time>2010-10-10T06:59:39Z</time></trkpt><trkpt lat="43.514505" lon="1.373545"><ele>159.24</ele><time>2010-10-10T06:59:40Z</time></trkpt><trkpt lat="43.514084" lon="1.373181"><ele>158.75</ele><time>2010-10-10T06:59:44Z</time></trkpt><trkpt lat="43.513976" lon="1.373071"><ele>158.75</ele><time>2010-10-10T06:59:45Z</time></trkpt><trkpt lat="43.513875" lon="1.372939"><ele>158.27</ele><time>2010-10-10T06:59:46Z</time></trkpt><trkpt lat="43.512941" lon="1.371725"><ele>157.31</ele><time>2010-10-10T06:59:54Z</time></trkpt><trkpt lat="43.511696" lon="1.370072"><ele>158.27</ele><time>2010-10-10T07:00:06Z</time></trkpt><trkpt lat="43.509777" lon="1.367279"><ele>158.27</ele><time>2010-10-10T07:00:19Z</time></trkpt><trkpt lat="43.507727" lon="1.364283"><ele>157.79</ele><time>2010-10-10T07:00:36Z</time></trkpt><trkpt lat="43.506218" lon="1.362111"><ele>159.24</ele><time>2010-10-10T07:00:50Z</time></trkpt><trkpt lat="43.506111" lon="1.361881"><ele>159.72</ele><time>2010-10-10T07:00:52Z</time></trkpt><trkpt lat="43.506074" lon="1.361661"><ele>159.72</ele><time>2010-10-10T07:00:53Z</time></trkpt><trkpt lat="43.506072" lon="1.361649"><ele>159.72</ele><time>2010-10-10T07:00:54Z</time></trkpt><trkpt lat="43.506048" lon="1.361526"><ele>159.72</ele><time>2010-10-10T07:00:55Z</time></trkpt><trkpt lat="43.506004" lon="1.361419"><ele>159.72</ele><time>2010-10-10T07:00:56Z</time></trkpt><trkpt lat="43.505933" lon="1.361348"><ele>159.72</ele><time>2010-10-10T07:00:57Z</time></trkpt><trkpt lat="43.505860" lon="1.361275"><ele>159.72</ele><time>2010-10-10T07:00:58Z</time></trkpt><trkpt lat="43.505786" lon="1.361250"><ele>159.72</ele><time>2010-10-10T07:00:59Z</time></trkpt><trkpt lat="43.505699" lon="1.361221"><ele>159.72</ele><time>2010-10-10T07:01:00Z</time></trkpt><trkpt lat="43.505592" lon="1.361173"><ele>159.72</ele><time>2010-10-10T07:01:01Z</time></trkpt><trkpt lat="43.505525" lon="1.361067"><ele>159.72</ele><time>2010-10-10T07:01:02Z</time></trkpt><trkpt lat="43.505451" lon="1.360950"><ele>159.72</ele><time>2010-10-10T07:01:03Z</time></trkpt><trkpt lat="43.505279" lon="1.360683"><ele>159.72</ele><time>2010-10-10T07:01:05Z</time></trkpt><trkpt lat="43.504331" lon="1.359287"><ele>159.24</ele><time>2010-10-10T07:01:13Z</time></trkpt><trkpt lat="43.502889" lon="1.357165"><ele>159.24</ele><time>2010-10-10T07:01:23Z</time></trkpt><trkpt lat="43.500475" lon="1.353640"><ele>160.20</ele><time>2010-10-10T07:01:38Z</time></trkpt><trkpt lat="43.498106" lon="1.350155"><ele>161.64</ele><time>2010-10-10T07:01:52Z</time></trkpt><trkpt lat="43.495390" lon="1.346274"><ele>162.12</ele><time>2010-10-10T07:02:09Z</time></trkpt><trkpt lat="43.493978" lon="1.344578"><ele>161.64</ele><time>2010-10-10T07:02:18Z</time></trkpt><trkpt lat="43.492612" lon="1.343584"><ele>162.12</ele><time>2010-10-10T07:02:27Z</time></trkpt><trkpt lat="43.491612" lon="1.342864"><ele>163.08</ele><time>2010-10-10T07:02:35Z</time></trkpt><trkpt lat="43.491592" lon="1.342830"><ele>163.08</ele><time>2010-10-10T07:02:36Z</time></trkpt><trkpt lat="43.491535" lon="1.342730"><ele>162.60</ele><time>2010-10-10T07:02:37Z</time></trkpt><trkpt lat="43.491440" lon="1.342564"><ele>162.60</ele><time>2010-10-10T07:02:38Z</time></trkpt><trkpt lat="43.491415" lon="1.342551"><ele>162.60</ele><time>2010-10-10T07:02:39Z</time></trkpt><trkpt lat="43.491334" lon="1.342529"><ele>162.12</ele><time>2010-10-10T07:02:40Z</time></trkpt><trkpt lat="43.491249" lon="1.342563"><ele>162.12</ele><time>2010-10-10T07:02:41Z</time></trkpt><trkpt lat="43.491125" lon="1.342601"><ele>162.12</ele><time>2010-10-10T07:02:42Z</time></trkpt><trkpt lat="43.491028" lon="1.342562"><ele>162.12</ele><time>2010-10-10T07:02:43Z</time></trkpt><trkpt lat="43.490918" lon="1.342516"><ele>162.60</ele><time>2010-10-10T07:02:44Z</time></trkpt><trkpt lat="43.490812" lon="1.342445"><ele>162.60</ele><time>2010-10-10T07:02:45Z</time></trkpt><trkpt lat="43.489682" lon="1.341722"><ele>164.04</ele><time>2010-10-10T07:02:53Z</time></trkpt><trkpt lat="43.487835" lon="1.340563"><ele>165.96</ele><time>2010-10-10T07:03:03Z</time></trkpt><trkpt lat="43.485147" lon="1.338869"><ele>167.41</ele><time>2010-10-10T07:03:17Z</time></trkpt><trkpt lat="43.482192" lon="1.337061"><ele>168.37</ele><time>2010-10-10T07:03:33Z</time></trkpt><trkpt lat="43.480395" lon="1.335930"><ele>169.33</ele><time>2010-10-10T07:03:44Z</time></trkpt><trkpt lat="43.479370" lon="1.335246"><ele>168.37</ele><time>2010-10-10T07:03:52Z</time></trkpt><trkpt lat="43.479293" lon="1.335154"><ele>167.89</ele><time>2010-10-10T07:03:53Z</time></trkpt><trkpt lat="43.479224" lon="1.335071"><ele>167.89</ele><time>2010-10-10T07:03:54Z</time></trkpt><trkpt lat="43.479188" lon="1.334956"><ele>167.41</ele><time>2010-10-10T07:03:55Z</time></trkpt><trkpt lat="43.479163" lon="1.334845"><ele>166.93</ele><time>2010-10-10T07:03:56Z</time></trkpt><trkpt lat="43.479124" lon="1.334752"><ele>166.93</ele><time>2010-10-10T07:03:57Z</time></trkpt><trkpt lat="43.479082" lon="1.334626"><ele>166.93</ele><time>2010-10-10T07:03:58Z</time></trkpt><trkpt lat="43.479023" lon="1.334567"><ele>166.93</ele><time>2010-10-10T07:03:59Z</time></trkpt><trkpt lat="43.478960" lon="1.334504"><ele>166.93</ele><time>2010-10-10T07:04:00Z</time></trkpt><trkpt lat="43.478884" lon="1.334512"><ele>166.93</ele><time>2010-10-10T07:04:01Z</time></trkpt><trkpt lat="43.478801" lon="1.334533"><ele>167.41</ele><time>2010-10-10T07:04:02Z</time></trkpt><trkpt lat="43.478749" lon="1.334570"><ele>167.41</ele><time>2010-10-10T07:04:03Z</time></trkpt><trkpt lat="43.478016" lon="1.334497"><ele>167.41</ele><time>2010-10-10T07:04:09Z</time></trkpt><trkpt lat="43.477897" lon="1.334421"><ele>167.89</ele><time>2010-10-10T07:04:10Z</time></trkpt><trkpt lat="43.476834" lon="1.333631"><ele>168.85</ele><time>2010-10-10T07:04:18Z</time></trkpt><trkpt lat="43.475574" lon="1.332017"><ele>166.45</ele><time>2010-10-10T07:04:29Z</time></trkpt><trkpt lat="43.475010" lon="1.331506"><ele>165.96</ele><time>2010-10-10T07:04:34Z</time></trkpt><trkpt lat="43.474875" lon="1.331449"><ele>165.96</ele><time>2010-10-10T07:04:35Z</time></trkpt><trkpt lat="43.473976" lon="1.331363"><ele>167.89</ele><time>2010-10-10T07:04:42Z</time></trkpt><trkpt lat="43.473403" lon="1.331391"><ele>167.89</ele><time>2010-10-10T07:04:49Z</time></trkpt><trkpt lat="43.473328" lon="1.331408"><ele>167.89</ele><time>2010-10-10T07:04:50Z</time></trkpt><trkpt lat="43.473269" lon="1.331442"><ele>167.89</ele><time>2010-10-10T07:04:51Z</time></trkpt><trkpt lat="43.473244" lon="1.331491"><ele>167.89</ele><time>2010-10-10T07:04:52Z</time></trkpt><trkpt lat="43.473231" lon="1.331543"><ele>167.41</ele><time>2010-10-10T07:04:53Z</time></trkpt><trkpt lat="43.473221" lon="1.331586"><ele>167.41</ele><time>2010-10-10T07:04:54Z</time></trkpt><trkpt lat="43.473221" lon="1.331586"><ele>167.41</ele><time>2010-10-10T07:04:55Z</time></trkpt><trkpt lat="43.473201" lon="1.331663"><ele>167.41</ele><time>2010-10-10T07:04:56Z</time></trkpt><trkpt lat="43.473317" lon="1.331713"><ele>166.93</ele><time>2010-10-10T07:04:57Z</time></trkpt><trkpt lat="43.473405" lon="1.331751"><ele>166.45</ele><time>2010-10-10T07:04:58Z</time></trkpt><trkpt lat="43.474215" lon="1.332220"><ele>165.48</ele><time>2010-10-10T07:05:05Z</time></trkpt><trkpt lat="43.475570" lon="1.332900"><ele>167.89</ele><time>2010-10-10T07:05:15Z</time></trkpt><trkpt lat="43.476682" lon="1.333750"><ele>165.48</ele><time>2010-10-10T07:05:24Z</time></trkpt><trkpt lat="43.477793" lon="1.334538"><ele>164.04</ele><time>2010-10-10T07:05:36Z</time></trkpt><trkpt lat="43.478610" lon="1.334956"><ele>164.04</ele><time>2010-10-10T07:05:39Z</time></trkpt><trkpt lat="43.478640" lon="1.335007"><ele>164.52</ele><time>2010-10-10T07:05:40Z</time></trkpt><trkpt lat="43.478704" lon="1.335086"><ele>164.52</ele><time>2010-10-10T07:05:41Z</time></trkpt><trkpt lat="43.478780" lon="1.335182"><ele>164.52</ele><time>2010-10-10T07:05:42Z</time></trkpt><trkpt lat="43.478849" lon="1.335205"><ele>164.04</ele><time>2010-10-10T07:05:43Z</time></trkpt><trkpt lat="43.478909" lon="1.335225"><ele>164.04</ele><time>2010-10-10T07:05:44Z</time></trkpt><trkpt lat="43.478984" lon="1.335150"><ele>163.56</ele><time>2010-10-10T07:05:45Z</time></trkpt><trkpt lat="43.479038" lon="1.335096"><ele>163.56</ele><time>2010-10-10T07:05:46Z</time></trkpt><trkpt lat="43.479085" lon="1.335042"><ele>163.08</ele><time>2010-10-10T07:05:47Z</time></trkpt><trkpt lat="43.479113" lon="1.334958"><ele>163.08</ele><time>2010-10-10T07:05:48Z</time></trkpt><trkpt lat="43.479124" lon="1.334868"><ele>163.08</ele><time>2010-10-10T07:05:49Z</time></trkpt><trkpt lat="43.479124" lon="1.334774"><ele>162.60</ele><time>2010-10-10T07:05:50Z</time></trkpt><trkpt lat="43.479124" lon="1.334690"><ele>162.60</ele><time>2010-10-10T07:05:51Z</time></trkpt><trkpt lat="43.479062" lon="1.334606"><ele>162.60</ele><time>2010-10-10T07:05:52Z</time></trkpt><trkpt lat="43.479005" lon="1.334549"><ele>162.60</ele><time>2010-10-10T07:05:53Z</time></trkpt><trkpt lat="43.478928" lon="1.334501"><ele>162.12</ele><time>2010-10-10T07:05:54Z</time></trkpt><trkpt lat="43.478859" lon="1.334519"><ele>162.12</ele><time>2010-10-10T07:05:55Z</time></trkpt><trkpt lat="43.478782" lon="1.334538"><ele>162.60</ele><time>2010-10-10T07:05:56Z</time></trkpt><trkpt lat="43.478184" lon="1.334604"><ele>163.08</ele><time>2010-10-10T07:06:01Z</time></trkpt><trkpt lat="43.478063" lon="1.334527"><ele>163.56</ele><time>2010-10-10T07:06:02Z</time></trkpt><trkpt lat="43.477937" lon="1.334447"><ele>163.56</ele><time>2010-10-10T07:06:03Z</time></trkpt><trkpt lat="43.476725" lon="1.333531"><ele>164.04</ele><time>2010-10-10T07:06:12Z</time></trkpt><trkpt lat="43.475441" lon="1.331785"><ele>163.56</ele><time>2010-10-10T07:06:23Z</time></trkpt><trkpt lat="43.475055" lon="1.331526"><ele>164.04</ele><time>2010-10-10T07:06:26Z</time></trkpt><trkpt lat="43.474904" lon="1.331461"><ele>164.04</ele><time>2010-10-10T07:06:27Z</time></trkpt><trkpt lat="43.473911" lon="1.331363"><ele>165.00</ele><time>2010-10-10T07:06:34Z</time></trkpt><trkpt lat="43.473351" lon="1.331401"><ele>165.48</ele><time>2010-10-10T07:06:40Z</time></trkpt><trkpt lat="43.473279" lon="1.331423"><ele>165.48</ele><time>2010-10-10T07:06:41Z</time></trkpt><trkpt lat="43.473253" lon="1.331474"><ele>165.48</ele><time>2010-10-10T07:06:42Z</time></trkpt><trkpt lat="43.473238" lon="1.331518"><ele>165.48</ele><time>2010-10-10T07:06:43Z</time></trkpt><trkpt lat="43.473229" lon="1.331554"><ele>165.96</ele><time>2010-10-10T07:06:44Z</time></trkpt><trkpt lat="43.473229" lon="1.331554"><ele>166.45</ele><time>2010-10-10T07:06:54Z</time></trkpt><trkpt lat="43.473219" lon="1.331593"><ele>166.93</ele><time>2010-10-10T07:07:02Z</time></trkpt><trkpt lat="43.473219" lon="1.331593"><ele>166.93</ele><time>2010-10-10T07:07:03Z</time></trkpt><trkpt lat="43.473274" lon="1.331694"><ele>166.45</ele><time>2010-10-10T07:07:04Z</time></trkpt><trkpt lat="43.473355" lon="1.331729"><ele>166.45</ele><time>2010-10-10T07:07:05Z</time></trkpt><trkpt lat="43.473502" lon="1.331792"><ele>166.45</ele><time>2010-10-10T07:07:06Z</time></trkpt><trkpt lat="43.474440" lon="1.332355"><ele>166.45</ele><time>2010-10-10T07:07:13Z</time></trkpt><trkpt lat="43.476002" lon="1.333164"><ele>167.89</ele><time>2010-10-10T07:07:23Z</time></trkpt><trkpt lat="43.477738" lon="1.334524"><ele>165.00</ele><time>2010-10-10T07:07:35Z</time></trkpt><trkpt lat="43.478610" lon="1.334961"><ele>164.52</ele><time>2010-10-10T07:07:42Z</time></trkpt><trkpt lat="43.478618" lon="1.334979"><ele>164.52</ele><time>2010-10-10T07:07:43Z</time></trkpt><trkpt lat="43.478672" lon="1.335046"><ele>164.52</ele><time>2010-10-10T07:07:44Z</time></trkpt><trkpt lat="43.478780" lon="1.335182"><ele>164.52</ele><time>2010-10-10T07:07:45Z</time></trkpt><trkpt lat="43.478789" lon="1.335185"><ele>164.52</ele><time>2010-10-10T07:07:46Z</time></trkpt><trkpt lat="43.478868" lon="1.335211"><ele>164.52</ele><time>2010-10-10T07:07:47Z</time></trkpt><trkpt lat="43.478943" lon="1.335191"><ele>164.52</ele><time>2010-10-10T07:07:48Z</time></trkpt><trkpt lat="43.479006" lon="1.335128"><ele>164.04</ele><time>2010-10-10T07:07:49Z</time></trkpt><trkpt lat="43.479073" lon="1.335061"><ele>164.04</ele><time>2010-10-10T07:07:50Z</time></trkpt><trkpt lat="43.479110" lon="1.334965"><ele>164.04</ele><time>2010-10-10T07:07:51Z</time></trkpt><trkpt lat="43.479124" lon="1.334855"><ele>164.04</ele><time>2010-10-10T07:07:52Z</time></trkpt><trkpt lat="43.479124" lon="1.334739"><ele>164.04</ele><time>2010-10-10T07:07:53Z</time></trkpt><trkpt lat="43.479080" lon="1.334623"><ele>164.04</ele><time>2010-10-10T07:07:54Z</time></trkpt><trkpt lat="43.479012" lon="1.334556"><ele>164.04</ele><time>2010-10-10T07:07:55Z</time></trkpt><trkpt lat="43.478929" lon="1.334501"><ele>164.04</ele><time>2010-10-10T07:07:56Z</time></trkpt><trkpt lat="43.478855" lon="1.334520"><ele>164.04</ele><time>2010-10-10T07:07:57Z</time></trkpt><trkpt lat="43.478776" lon="1.334542"><ele>163.56</ele><time>2010-10-10T07:07:58Z</time></trkpt><trkpt lat="43.478713" lon="1.334605"><ele>164.04</ele><time>2010-10-10T07:07:59Z</time></trkpt><trkpt lat="43.478652" lon="1.334667"><ele>164.04</ele><time>2010-10-10T07:08:00Z</time></trkpt><trkpt lat="43.478780" lon="1.335182"><ele>164.52</ele><time>2010-10-10T07:08:01Z</time></trkpt><trkpt lat="43.478780" lon="1.335182"><ele>165.00</ele><time>2010-10-10T07:08:02Z</time></trkpt><trkpt lat="43.478644" lon="1.335011"><ele>165.00</ele><time>2010-10-10T07:08:03Z</time></trkpt><trkpt lat="43.478692" lon="1.335072"><ele>165.00</ele><time>2010-10-10T07:08:04Z</time></trkpt><trkpt lat="43.478738" lon="1.335129"><ele>165.00</ele><time>2010-10-10T07:08:05Z</time></trkpt><trkpt lat="43.478752" lon="1.335322"><ele>165.00</ele><time>2010-10-10T07:08:06Z</time></trkpt><trkpt lat="43.478737" lon="1.335397"><ele>165.00</ele><time>2010-10-10T07:08:07Z</time></trkpt><trkpt lat="43.478627" lon="1.335733"><ele>164.52</ele><time>2010-10-10T07:08:11Z</time></trkpt><trkpt lat="43.478602" lon="1.335809"><ele>164.52</ele><time>2010-10-10T07:08:12Z</time></trkpt><trkpt lat="43.478265" lon="1.336837"><ele>164.52</ele><time>2010-10-10T07:08:23Z</time></trkpt><trkpt lat="43.477793" lon="1.338311"><ele>163.56</ele><time>2010-10-10T07:08:35Z</time></trkpt><trkpt lat="43.477793" lon="1.338402"><ele>163.56</ele><time>2010-10-10T07:08:36Z</time></trkpt><trkpt lat="43.477797" lon="1.338456"><ele>163.56</ele><time>2010-10-10T07:08:37Z</time></trkpt><trkpt lat="43.477823" lon="1.338532"><ele>163.56</ele><time>2010-10-10T07:08:38Z</time></trkpt><trkpt lat="43.477849" lon="1.338610"><ele>163.56</ele><time>2010-10-10T07:08:39Z</time></trkpt><trkpt lat="43.477875" lon="1.338689"><ele>163.08</ele><time>2010-10-10T07:08:40Z</time></trkpt><trkpt lat="43.477933" lon="1.338736"><ele>162.12</ele><time>2010-10-10T07:08:41Z</time></trkpt><trkpt lat="43.478014" lon="1.338787"><ele>161.64</ele><time>2010-10-10T07:08:42Z</time></trkpt><trkpt lat="43.478921" lon="1.339368"><ele>161.64</ele><time>2010-10-10T07:08:50Z</time></trkpt><trkpt lat="43.480421" lon="1.340323"><ele>162.60</ele><time>2010-10-10T07:09:02Z</time></trkpt><trkpt lat="43.481234" lon="1.340835"><ele>161.16</ele><time>2010-10-10T07:09:11Z</time></trkpt><trkpt lat="43.481528" lon="1.341019"><ele>160.68</ele><time>2010-10-10T07:09:15Z</time></trkpt><trkpt lat="43.481583" lon="1.341019"><ele>160.68</ele><time>2010-10-10T07:09:16Z</time></trkpt><trkpt lat="43.481637" lon="1.341011"><ele>160.68</ele><time>2010-10-10T07:09:17Z</time></trkpt><trkpt lat="43.481692" lon="1.340992"><ele>160.20</ele><time>2010-10-10T07:09:18Z</time></trkpt><trkpt lat="43.481737" lon="1.340977"><ele>159.72</ele><time>2010-10-10T07:09:19Z</time></trkpt><trkpt lat="43.481971" lon="1.340746"><ele>159.72</ele><time>2010-10-10T07:09:26Z</time></trkpt><trkpt lat="43.482285" lon="1.340461"><ele>159.72</ele><time>2010-10-10T07:09:31Z</time></trkpt><trkpt lat="43.482343" lon="1.340461"><ele>160.20</ele><time>2010-10-10T07:09:32Z</time></trkpt><trkpt lat="43.482400" lon="1.340461"><ele>160.20</ele><time>2010-10-10T07:09:33Z</time></trkpt><trkpt lat="43.482456" lon="1.340461"><ele>160.20</ele><time>2010-10-10T07:09:34Z</time></trkpt><trkpt lat="43.482517" lon="1.340461"><ele>160.20</ele><time>2010-10-10T07:09:35Z</time></trkpt><trkpt lat="43.482577" lon="1.340461"><ele>160.20</ele><time>2010-10-10T07:09:36Z</time></trkpt><trkpt lat="43.482653" lon="1.340447"><ele>160.20</ele><time>2010-10-10T07:09:37Z</time></trkpt><trkpt lat="43.482704" lon="1.340381"><ele>160.20</ele><time>2010-10-10T07:09:38Z</time></trkpt><trkpt lat="43.482761" lon="1.340306"><ele>160.20</ele><time>2010-10-10T07:09:39Z</time></trkpt><trkpt lat="43.483489" lon="1.339398"><ele>159.24</ele><time>2010-10-10T07:09:49Z</time></trkpt><trkpt lat="43.483876" lon="1.338949"><ele>157.31</ele><time>2010-10-10T07:09:56Z</time></trkpt><trkpt lat="43.483992" lon="1.338848"><ele>156.35</ele><time>2010-10-10T07:10:03Z</time></trkpt><trkpt lat="43.483961" lon="1.338750"><ele>156.83</ele><time>2010-10-10T07:10:05Z</time></trkpt><trkpt lat="43.483913" lon="1.338718"><ele>156.83</ele><time>2010-10-10T07:10:06Z</time></trkpt><trkpt lat="43.483852" lon="1.338676"><ele>156.83</ele><time>2010-10-10T07:10:07Z</time></trkpt><trkpt lat="43.483782" lon="1.338629"><ele>157.31</ele><time>2010-10-10T07:10:08Z</time></trkpt><trkpt lat="43.482909" lon="1.338040"><ele>160.20</ele><time>2010-10-10T07:10:17Z</time></trkpt><trkpt lat="43.481543" lon="1.337151"><ele>162.12</ele><time>2010-10-10T07:10:29Z</time></trkpt><trkpt lat="43.480062" lon="1.336224"><ele>163.08</ele><time>2010-10-10T07:10:43Z</time></trkpt><trkpt lat="43.479337" lon="1.335772"><ele>162.60</ele><time>2010-10-10T07:10:52Z</time></trkpt><trkpt lat="43.479019" lon="1.335573"><ele>162.60</ele><time>2010-10-10T07:10:57Z</time></trkpt><trkpt lat="43.478968" lon="1.335541"><ele>162.60</ele><time>2010-10-10T07:10:58Z</time></trkpt><trkpt lat="43.478877" lon="1.335484"><ele>162.60</ele><time>2010-10-10T07:11:00Z</time></trkpt><trkpt lat="43.478835" lon="1.335458"><ele>162.12</ele><time>2010-10-10T07:11:01Z</time></trkpt><trkpt lat="43.478799" lon="1.335435"><ele>162.12</ele><time>2010-10-10T07:11:02Z</time></trkpt><trkpt lat="43.478775" lon="1.335420"><ele>162.12</ele><time>2010-10-10T07:11:03Z</time></trkpt><trkpt lat="43.478737" lon="1.335397"><ele>162.12</ele><time>2010-10-10T07:11:04Z</time></trkpt><trkpt lat="43.478740" lon="1.335382"><ele>162.12</ele><time>2010-10-10T07:11:05Z</time></trkpt><trkpt lat="43.478752" lon="1.335325"><ele>162.12</ele><time>2010-10-10T07:11:06Z</time></trkpt><trkpt lat="43.478803" lon="1.335190"><ele>161.64</ele><time>2010-10-10T07:11:07Z</time></trkpt><trkpt lat="43.478827" lon="1.335198"><ele>161.64</ele><time>2010-10-10T07:11:08Z</time></trkpt><trkpt lat="43.478861" lon="1.335209"><ele>161.64</ele><time>2010-10-10T07:11:09Z</time></trkpt><trkpt lat="43.478917" lon="1.335217"><ele>161.64</ele><time>2010-10-10T07:11:10Z</time></trkpt><trkpt lat="43.478960" lon="1.335174"><ele>161.16</ele><time>2010-10-10T07:11:11Z</time></trkpt><trkpt lat="43.479008" lon="1.335126"><ele>161.16</ele><time>2010-10-10T07:11:12Z</time></trkpt><trkpt lat="43.479058" lon="1.335076"><ele>161.64</ele><time>2010-10-10T07:11:13Z</time></trkpt><trkpt lat="43.479099" lon="1.334997"><ele>161.64</ele><time>2010-10-10T07:11:14Z</time></trkpt><trkpt lat="43.479124" lon="1.334898"><ele>161.16</ele><time>2010-10-10T07:11:15Z</time></trkpt><trkpt lat="43.479124" lon="1.334803"><ele>161.16</ele><time>2010-10-10T07:11:16Z</time></trkpt><trkpt lat="43.479124" lon="1.334711"><ele>161.16</ele><time>2010-10-10T07:11:17Z</time></trkpt><trkpt lat="43.479080" lon="1.334624"><ele>161.64</ele><time>2010-10-10T07:11:18Z</time></trkpt><trkpt lat="43.479124" lon="1.334667"><ele>161.64</ele><time>2010-10-10T07:11:19Z</time></trkpt><trkpt lat="43.479124" lon="1.334667"><ele>161.64</ele><time>2010-10-10T07:11:20Z</time></trkpt><trkpt lat="43.479124" lon="1.334667"><ele>161.64</ele><time>2010-10-10T07:11:21Z</time></trkpt><trkpt lat="43.479135" lon="1.334167"><ele>161.64</ele><time>2010-10-10T07:11:22Z</time></trkpt><trkpt lat="43.479135" lon="1.334167"><ele>161.64</ele><time>2010-10-10T07:11:23Z</time></trkpt><trkpt lat="43.479366" lon="1.333711"><ele>161.16</ele><time>2010-10-10T07:11:27Z</time></trkpt><trkpt lat="43.479429" lon="1.333594"><ele>160.68</ele><time>2010-10-10T07:11:28Z</time></trkpt><trkpt lat="43.479481" lon="1.333594"><ele>160.68</ele><time>2010-10-10T07:11:29Z</time></trkpt><trkpt lat="43.479532" lon="1.333594"><ele>160.68</ele><time>2010-10-10T07:11:30Z</time></trkpt><trkpt lat="43.479604" lon="1.333511"><ele>161.16</ele><time>2010-10-10T07:11:31Z</time></trkpt><trkpt lat="43.479620" lon="1.333430"><ele>161.16</ele><time>2010-10-10T07:11:32Z</time></trkpt><trkpt lat="43.479618" lon="1.333310"><ele>161.16</ele><time>2010-10-10T07:11:33Z</time></trkpt><trkpt lat="43.479576" lon="1.333254"><ele>161.16</ele><time>2010-10-10T07:11:34Z</time></trkpt><trkpt lat="43.479528" lon="1.333190"><ele>161.64</ele><time>2010-10-10T07:11:35Z</time></trkpt><trkpt lat="43.479528" lon="1.333190"><ele>161.64</ele><time>2010-10-10T07:11:36Z</time></trkpt><trkpt lat="43.479408" lon="1.333165"><ele>161.64</ele><time>2010-10-10T07:11:37Z</time></trkpt><trkpt lat="43.479359" lon="1.333209"><ele>161.64</ele><time>2010-10-10T07:11:38Z</time></trkpt><trkpt lat="43.479326" lon="1.333275"><ele>161.64</ele><time>2010-10-10T07:11:39Z</time></trkpt><trkpt lat="43.479295" lon="1.333337"><ele>162.12</ele><time>2010-10-10T07:11:40Z</time></trkpt><trkpt lat="43.479310" lon="1.333397"><ele>162.12</ele><time>2010-10-10T07:11:41Z</time></trkpt><trkpt lat="43.479329" lon="1.333473"><ele>162.12</ele><time>2010-10-10T07:11:42Z</time></trkpt><trkpt lat="43.479406" lon="1.333630"><ele>162.12</ele><time>2010-10-10T07:11:43Z</time></trkpt><trkpt lat="43.479386" lon="1.333670"><ele>162.12</ele><time>2010-10-10T07:11:44Z</time></trkpt><trkpt lat="43.479359" lon="1.333724"><ele>162.12</ele><time>2010-10-10T07:11:45Z</time></trkpt><trkpt lat="43.479326" lon="1.333791"><ele>162.12</ele><time>2010-10-10T07:11:46Z</time></trkpt><trkpt lat="43.479287" lon="1.333869"><ele>161.64</ele><time>2010-10-10T07:11:47Z</time></trkpt><trkpt lat="43.479244" lon="1.333955"><ele>161.64</ele><time>2010-10-10T07:11:48Z</time></trkpt><trkpt lat="43.479156" lon="1.334128"><ele>162.12</ele><time>2010-10-10T07:11:50Z</time></trkpt><trkpt lat="43.478986" lon="1.334435"><ele>164.04</ele><time>2010-10-10T07:11:55Z</time></trkpt><trkpt lat="43.478941" lon="1.334498"><ele>164.04</ele><time>2010-10-10T07:11:56Z</time></trkpt><trkpt lat="43.478889" lon="1.334511"><ele>164.04</ele><time>2010-10-10T07:11:57Z</time></trkpt><trkpt lat="43.478571" lon="1.334679"><ele>165.00</ele><time>2010-10-10T07:12:02Z</time></trkpt><trkpt lat="43.478491" lon="1.334690"><ele>165.00</ele><time>2010-10-10T07:12:03Z</time></trkpt><trkpt lat="43.478407" lon="1.334702"><ele>165.00</ele><time>2010-10-10T07:12:04Z</time></trkpt><trkpt lat="43.478317" lon="1.334688"><ele>165.00</ele><time>2010-10-10T07:12:05Z</time></trkpt><trkpt lat="43.478222" lon="1.334628"><ele>165.00</ele><time>2010-10-10T07:12:06Z</time></trkpt><trkpt lat="43.478122" lon="1.334564"><ele>164.52</ele><time>2010-10-10T07:12:07Z</time></trkpt><trkpt lat="43.477342" lon="1.334007"><ele>164.52</ele><time>2010-10-10T07:12:14Z</time></trkpt><trkpt lat="43.475975" lon="1.332670"><ele>166.45</ele><time>2010-10-10T07:12:22Z</time></trkpt><trkpt lat="43.475279" lon="1.331425"><ele>170.29</ele><time>2010-10-10T07:12:29Z</time></trkpt><trkpt lat="43.474832" lon="1.329328"><ele>172.21</ele><time>2010-10-10T07:12:36Z</time></trkpt><trkpt lat="43.474896" lon="1.326645"><ele>170.29</ele><time>2010-10-10T07:12:45Z</time></trkpt><trkpt lat="43.475042" lon="1.323709"><ele>165.48</ele><time>2010-10-10T07:12:56Z</time></trkpt><trkpt lat="43.475045" lon="1.322960"><ele>165.48</ele><time>2010-10-10T07:13:00Z</time></trkpt><trkpt lat="43.475084" lon="1.322953"><ele>165.00</ele><time>2010-10-10T07:13:01Z</time></trkpt><trkpt lat="43.475138" lon="1.322855"><ele>165.48</ele><time>2010-10-10T07:13:02Z</time></trkpt><trkpt lat="43.475187" lon="1.322756"><ele>165.48</ele><time>2010-10-10T07:13:03Z</time></trkpt><trkpt lat="43.475218" lon="1.322622"><ele>165.48</ele><time>2010-10-10T07:13:04Z</time></trkpt><trkpt lat="43.475218" lon="1.322436"><ele>165.48</ele><time>2010-10-10T07:13:05Z</time></trkpt><trkpt lat="43.475195" lon="1.322390"><ele>165.48</ele><time>2010-10-10T07:13:06Z</time></trkpt><trkpt lat="43.475195" lon="1.322390"><ele>165.48</ele><time>2010-10-10T07:13:07Z</time></trkpt><trkpt lat="43.475139" lon="1.322070"><ele>165.48</ele><time>2010-10-10T07:13:08Z</time></trkpt><trkpt lat="43.475191" lon="1.321959"><ele>165.48</ele><time>2010-10-10T07:13:09Z</time></trkpt><trkpt lat="43.475249" lon="1.321833"><ele>165.48</ele><time>2010-10-10T07:13:10Z</time></trkpt><trkpt lat="43.475908" lon="1.320370"><ele>169.81</ele><time>2010-10-10T07:13:19Z</time></trkpt><trkpt lat="43.476422" lon="1.319261"><ele>169.33</ele><time>2010-10-10T07:13:26Z</time></trkpt><trkpt lat="43.476475" lon="1.319279"><ele>169.33</ele><time>2010-10-10T07:13:27Z</time></trkpt><trkpt lat="43.476568" lon="1.319291"><ele>169.33</ele><time>2010-10-10T07:13:28Z</time></trkpt><trkpt lat="43.476702" lon="1.319201"><ele>168.37</ele><time>2010-10-10T07:13:30Z</time></trkpt><trkpt lat="43.476806" lon="1.319132"><ele>168.37</ele><time>2010-10-10T07:13:31Z</time></trkpt><trkpt lat="43.476815" lon="1.319078"><ele>168.37</ele><time>2010-10-10T07:13:32Z</time></trkpt><trkpt lat="43.476830" lon="1.318987"><ele>167.89</ele><time>2010-10-10T07:13:33Z</time></trkpt><trkpt lat="43.476846" lon="1.318892"><ele>167.89</ele><time>2010-10-10T07:13:34Z</time></trkpt><trkpt lat="43.476835" lon="1.318825"><ele>167.89</ele><time>2010-10-10T07:13:35Z</time></trkpt><trkpt lat="43.476809" lon="1.318732"><ele>167.89</ele><time>2010-10-10T07:13:36Z</time></trkpt><trkpt lat="43.476781" lon="1.318635"><ele>168.37</ele><time>2010-10-10T07:13:37Z</time></trkpt><trkpt lat="43.476754" lon="1.318567"><ele>168.37</ele><time>2010-10-10T07:13:38Z</time></trkpt><trkpt lat="43.476690" lon="1.318519"><ele>168.37</ele><time>2010-10-10T07:13:39Z</time></trkpt><trkpt lat="43.476625" lon="1.318470"><ele>168.37</ele><time>2010-10-10T07:13:40Z</time></trkpt><trkpt lat="43.476560" lon="1.318456"><ele>168.85</ele><time>2010-10-10T07:13:41Z</time></trkpt><trkpt lat="43.476482" lon="1.318482"><ele>168.37</ele><time>2010-10-10T07:13:42Z</time></trkpt><trkpt lat="43.476334" lon="1.318531"><ele>168.37</ele><time>2010-10-10T07:13:43Z</time></trkpt><trkpt lat="43.476316" lon="1.318529"><ele>168.37</ele><time>2010-10-10T07:13:44Z</time></trkpt><trkpt lat="43.476240" lon="1.318519"><ele>168.37</ele><time>2010-10-10T07:13:45Z</time></trkpt><trkpt lat="43.476164" lon="1.318510"><ele>168.37</ele><time>2010-10-10T07:13:46Z</time></trkpt><trkpt lat="43.476088" lon="1.318500"><ele>168.37</ele><time>2010-10-10T07:13:47Z</time></trkpt><trkpt lat="43.476009" lon="1.318490"><ele>168.37</ele><time>2010-10-10T07:13:48Z</time></trkpt><trkpt lat="43.475745" lon="1.318406"><ele>167.41</ele><time>2010-10-10T07:13:51Z</time></trkpt><trkpt lat="43.475659" lon="1.318377"><ele>166.93</ele><time>2010-10-10T07:13:52Z</time></trkpt><trkpt lat="43.475577" lon="1.318380"><ele>166.93</ele><time>2010-10-10T07:13:53Z</time></trkpt><trkpt lat="43.475497" lon="1.318440"><ele>166.93</ele><time>2010-10-10T07:13:54Z</time></trkpt><trkpt lat="43.475413" lon="1.318505"><ele>166.93</ele><time>2010-10-10T07:13:55Z</time></trkpt><trkpt lat="43.475329" lon="1.318575"><ele>166.93</ele><time>2010-10-10T07:13:56Z</time></trkpt><trkpt lat="43.475175" lon="1.318703"><ele>166.93</ele><time>2010-10-10T07:13:57Z</time></trkpt><trkpt lat="43.475156" lon="1.318715"><ele>167.41</ele><time>2010-10-10T07:13:58Z</time></trkpt><trkpt lat="43.474863" lon="1.318898"><ele>166.93</ele><time>2010-10-10T07:14:01Z</time></trkpt><trkpt lat="43.474745" lon="1.318937"><ele>167.41</ele><time>2010-10-10T07:14:02Z</time></trkpt><trkpt lat="43.474623" lon="1.318964"><ele>167.41</ele><time>2010-10-10T07:14:03Z</time></trkpt><trkpt lat="43.474498" lon="1.318991"><ele>167.41</ele><time>2010-10-10T07:14:04Z</time></trkpt><trkpt lat="43.474368" lon="1.318990"><ele>166.93</ele><time>2010-10-10T07:14:05Z</time></trkpt><trkpt lat="43.474236" lon="1.318968"><ele>166.93</ele><time>2010-10-10T07:14:06Z</time></trkpt><trkpt lat="43.474103" lon="1.318927"><ele>167.41</ele><time>2010-10-10T07:14:07Z</time></trkpt><trkpt lat="43.473971" lon="1.318876"><ele>167.41</ele><time>2010-10-10T07:14:08Z</time></trkpt><trkpt lat="43.472719" lon="1.318224"><ele>167.41</ele><time>2010-10-10T07:14:16Z</time></trkpt><trkpt lat="43.470690" lon="1.317020"><ele>167.41</ele><time>2010-10-10T07:14:26Z</time></trkpt><trkpt lat="43.468698" lon="1.315869"><ele>168.37</ele><time>2010-10-10T07:14:35Z</time></trkpt><trkpt lat="43.465128" lon="1.313774"><ele>168.85</ele><time>2010-10-10T07:14:51Z</time></trkpt><trkpt lat="43.461652" lon="1.311536"><ele>169.33</ele><time>2010-10-10T07:15:06Z</time></trkpt><trkpt lat="43.459359" lon="1.309467"><ele>166.93</ele><time>2010-10-10T07:15:16Z</time></trkpt><trkpt lat="43.457084" lon="1.307274"><ele>166.45</ele><time>2010-10-10T07:15:27Z</time></trkpt><trkpt lat="43.455030" lon="1.305822"><ele>167.41</ele><time>2010-10-10T07:15:37Z</time></trkpt><trkpt lat="43.453241" lon="1.305361"><ele>167.89</ele><time>2010-10-10T07:15:45Z</time></trkpt><trkpt lat="43.451151" lon="1.305522"><ele>169.33</ele><time>2010-10-10T07:15:54Z</time></trkpt><trkpt lat="43.447589" lon="1.306543"><ele>171.73</ele><time>2010-10-10T07:16:09Z</time></trkpt><trkpt lat="43.443236" lon="1.307738"><ele>178.94</ele><time>2010-10-10T07:16:26Z</time></trkpt><trkpt lat="43.439370" lon="1.308872"><ele>175.10</ele><time>2010-10-10T07:16:40Z</time></trkpt><trkpt lat="43.435952" lon="1.309474"><ele>174.14</ele><time>2010-10-10T07:16:52Z</time></trkpt><trkpt lat="43.434017" lon="1.309110"><ele>174.14</ele><time>2010-10-10T07:16:59Z</time></trkpt><trkpt lat="43.431883" lon="1.308011"><ele>174.62</ele><time>2010-10-10T07:17:07Z</time></trkpt><trkpt lat="43.427513" lon="1.305361"><ele>175.10</ele><time>2010-10-10T07:17:23Z</time></trkpt><trkpt lat="43.421303" lon="1.301517"><ele>177.02</ele><time>2010-10-10T07:17:45Z</time></trkpt><trkpt lat="43.416160" lon="1.298479"><ele>177.98</ele><time>2010-10-10T07:18:03Z</time></trkpt><trkpt lat="43.412934" lon="1.296446"><ele>179.42</ele><time>2010-10-10T07:18:15Z</time></trkpt><trkpt lat="43.409650" lon="1.294442"><ele>180.38</ele><time>2010-10-10T07:18:27Z</time></trkpt><trkpt lat="43.405841" lon="1.292572"><ele>180.87</ele><time>2010-10-10T07:18:40Z</time></trkpt><trkpt lat="43.401367" lon="1.290375"><ele>182.79</ele><time>2010-10-10T07:18:55Z</time></trkpt><trkpt lat="43.396880" lon="1.288253"><ele>184.23</ele><time>2010-10-10T07:19:10Z</time></trkpt><trkpt lat="43.392810" lon="1.286434"><ele>185.19</ele><time>2010-10-10T07:19:24Z</time></trkpt><trkpt lat="43.388290" lon="1.284303"><ele>186.15</ele><time>2010-10-10T07:19:40Z</time></trkpt><trkpt lat="43.383749" lon="1.282091"><ele>187.11</ele><time>2010-10-10T07:19:55Z</time></trkpt><trkpt lat="43.378016" lon="1.279378"><ele>188.08</ele><time>2010-10-10T07:20:13Z</time></trkpt><trkpt lat="43.374321" lon="1.277522"><ele>188.08</ele><time>2010-10-10T07:20:25Z</time></trkpt><trkpt lat="43.370016" lon="1.275252"><ele>189.04</ele><time>2010-10-10T07:20:40Z</time></trkpt><trkpt lat="43.365364" lon="1.272948"><ele>190.96</ele><time>2010-10-10T07:20:56Z</time></trkpt><trkpt lat="43.359727" lon="1.270627"><ele>194.32</ele><time>2010-10-10T07:21:14Z</time></trkpt><trkpt lat="43.355718" lon="1.269059"><ele>191.44</ele><time>2010-10-10T07:21:27Z</time></trkpt><trkpt lat="43.351600" lon="1.267386"><ele>192.40</ele><time>2010-10-10T07:21:41Z</time></trkpt><trkpt lat="43.349104" lon="1.265832"><ele>192.40</ele><time>2010-10-10T07:21:50Z</time></trkpt><trkpt lat="43.347062" lon="1.263869"><ele>192.88</ele><time>2010-10-10T07:21:58Z</time></trkpt><trkpt lat="43.345318" lon="1.261366"><ele>192.40</ele><time>2010-10-10T07:22:06Z</time></trkpt><trkpt lat="43.343060" lon="1.257467"><ele>192.88</ele><time>2010-10-10T07:22:18Z</time></trkpt><trkpt lat="43.340930" lon="1.253842"><ele>190.48</ele><time>2010-10-10T07:22:30Z</time></trkpt><trkpt lat="43.338642" lon="1.249927"><ele>192.88</ele><time>2010-10-10T07:22:44Z</time></trkpt><trkpt lat="43.337686" lon="1.248258"><ele>194.32</ele><time>2010-10-10T07:22:52Z</time></trkpt><trkpt lat="43.337131" lon="1.247276"><ele>194.80</ele><time>2010-10-10T07:22:59Z</time></trkpt><trkpt lat="43.337071" lon="1.247180"><ele>195.28</ele><time>2010-10-10T07:23:00Z</time></trkpt><trkpt lat="43.337017" lon="1.247094"><ele>195.28</ele><time>2010-10-10T07:23:01Z</time></trkpt><trkpt lat="43.336921" lon="1.246938"><ele>195.28</ele><time>2010-10-10T07:23:03Z</time></trkpt><trkpt lat="43.336876" lon="1.246865"><ele>195.28</ele><time>2010-10-10T07:23:04Z</time></trkpt><trkpt lat="43.336833" lon="1.246796"><ele>195.28</ele><time>2010-10-10T07:23:05Z</time></trkpt><trkpt lat="43.336833" lon="1.246796"><ele>195.28</ele><time>2010-10-10T07:23:06Z</time></trkpt><trkpt lat="43.336754" lon="1.246669"><ele>195.28</ele><time>2010-10-10T07:23:07Z</time></trkpt><trkpt lat="43.336529" lon="1.246278"><ele>196.25</ele><time>2010-10-10T07:23:16Z</time></trkpt><trkpt lat="43.336529" lon="1.246278"><ele>194.80</ele><time>2010-10-10T07:23:39Z</time></trkpt><trkpt lat="43.336462" lon="1.246159"><ele>194.32</ele><time>2010-10-10T07:33:02Z</time></trkpt><trkpt lat="43.336462" lon="1.246159"><ele>194.80</ele><time>2010-10-10T07:33:03Z</time></trkpt><trkpt lat="43.337117" lon="1.245735"><ele>194.80</ele><time>2010-10-10T07:33:04Z</time></trkpt><trkpt lat="43.337117" lon="1.245722"><ele>194.80</ele><time>2010-10-10T07:33:05Z</time></trkpt><trkpt lat="43.336950" lon="1.245585"><ele>197.69</ele><time>2010-10-10T07:33:17Z</time></trkpt><trkpt lat="43.336950" lon="1.245584"><ele>198.17</ele><time>2010-10-10T07:34:23Z</time></trkpt><trkpt lat="43.336980" lon="1.245611"><ele>202.49</ele><time>2010-10-10T07:52:34Z</time></trkpt><trkpt lat="43.336980" lon="1.245611"><ele>202.49</ele><time>2010-10-10T07:52:35Z</time></trkpt><trkpt lat="43.337070" lon="1.245428"><ele>202.01</ele><time>2010-10-10T07:52:43Z</time></trkpt><trkpt lat="43.337039" lon="1.245386"><ele>201.53</ele><time>2010-10-10T07:52:44Z</time></trkpt><trkpt lat="43.337017" lon="1.245318"><ele>201.53</ele><time>2010-10-10T07:52:45Z</time></trkpt><trkpt lat="43.336617" lon="1.244578"><ele>201.05</ele><time>2010-10-10T07:52:55Z</time></trkpt><trkpt lat="43.336229" lon="1.244088"><ele>201.05</ele><time>2010-10-10T07:53:01Z</time></trkpt><trkpt lat="43.336141" lon="1.244030"><ele>201.05</ele><time>2010-10-10T07:53:02Z</time></trkpt><trkpt lat="43.336141" lon="1.244030"><ele>201.53</ele><time>2010-10-10T07:53:03Z</time></trkpt><trkpt lat="43.335013" lon="1.243330"><ele>200.57</ele><time>2010-10-10T07:53:12Z</time></trkpt><trkpt lat="43.334823" lon="1.243085"><ele>201.05</ele><time>2010-10-10T07:53:14Z</time></trkpt><trkpt lat="43.334823" lon="1.243085"><ele>201.05</ele><time>2010-10-10T07:53:15Z</time></trkpt><trkpt lat="43.333862" lon="1.241465"><ele>202.01</ele><time>2010-10-10T07:53:23Z</time></trkpt><trkpt lat="43.332339" lon="1.238822"><ele>207.78</ele><time>2010-10-10T07:53:34Z</time></trkpt><trkpt lat="43.330273" lon="1.235310"><ele>203.94</ele><time>2010-10-10T07:53:47Z</time></trkpt><trkpt lat="43.327264" lon="1.230113"><ele>203.94</ele><time>2010-10-10T07:54:04Z</time></trkpt><trkpt lat="43.324665" lon="1.225594"><ele>205.38</ele><time>2010-10-10T07:54:18Z</time></trkpt><trkpt lat="43.321304" lon="1.219773"><ele>205.86</ele><time>2010-10-10T07:54:35Z</time></trkpt><trkpt lat="43.318667" lon="1.215229"><ele>206.82</ele><time>2010-10-10T07:54:48Z</time></trkpt><trkpt lat="43.314957" lon="1.208867"><ele>208.74</ele><time>2010-10-10T07:55:06Z</time></trkpt><trkpt lat="43.311115" lon="1.202300"><ele>211.15</ele><time>2010-10-10T07:55:24Z</time></trkpt><trkpt lat="43.308443" lon="1.197676"><ele>213.55</ele><time>2010-10-10T07:55:37Z</time></trkpt><trkpt lat="43.305084" lon="1.191862"><ele>214.51</ele><time>2010-10-10T07:55:54Z</time></trkpt><trkpt lat="43.302022" lon="1.186702"><ele>215.47</ele><time>2010-10-10T07:56:09Z</time></trkpt><trkpt lat="43.298615" lon="1.180903"><ele>217.88</ele><time>2010-10-10T07:56:25Z</time></trkpt><trkpt lat="43.294635" lon="1.174118"><ele>220.76</ele><time>2010-10-10T07:56:43Z</time></trkpt><trkpt lat="43.290769" lon="1.167529"><ele>224.61</ele><time>2010-10-10T07:57:01Z</time></trkpt><trkpt lat="43.286427" lon="1.160097"><ele>226.05</ele><time>2010-10-10T07:57:22Z</time></trkpt><trkpt lat="43.283200" lon="1.154379"><ele>227.97</ele><time>2010-10-10T07:57:38Z</time></trkpt><trkpt lat="43.279924" lon="1.148696"><ele>229.89</ele><time>2010-10-10T07:57:54Z</time></trkpt><trkpt lat="43.276159" lon="1.142241"><ele>232.30</ele><time>2010-10-10T07:58:12Z</time></trkpt><trkpt lat="43.272841" lon="1.136560"><ele>236.62</ele><time>2010-10-10T07:58:28Z</time></trkpt><trkpt lat="43.269243" lon="1.130395"><ele>243.83</ele><time>2010-10-10T07:58:46Z</time></trkpt><trkpt lat="43.265901" lon="1.124640"><ele>244.31</ele><time>2010-10-10T07:59:02Z</time></trkpt><trkpt lat="43.261982" lon="1.117951"><ele>247.68</ele><time>2010-10-10T07:59:20Z</time></trkpt><trkpt lat="43.258566" lon="1.112135"><ele>247.68</ele><time>2010-10-10T07:59:36Z</time></trkpt><trkpt lat="43.255216" lon="1.106381"><ele>249.60</ele><time>2010-10-10T07:59:52Z</time></trkpt><trkpt lat="43.251516" lon="1.100026"><ele>252.96</ele><time>2010-10-10T08:00:10Z</time></trkpt><trkpt lat="43.247598" lon="1.093296"><ele>254.41</ele><time>2010-10-10T08:00:29Z</time></trkpt><trkpt lat="43.243989" lon="1.087128"><ele>256.81</ele><time>2010-10-10T08:00:46Z</time></trkpt><trkpt lat="43.239916" lon="1.080127"><ele>259.21</ele><time>2010-10-10T08:01:05Z</time></trkpt><trkpt lat="43.236805" lon="1.074771"><ele>260.65</ele><time>2010-10-10T08:01:20Z</time></trkpt><trkpt lat="43.232273" lon="1.067025"><ele>264.50</ele><time>2010-10-10T08:01:42Z</time></trkpt><trkpt lat="43.228315" lon="1.060231"><ele>265.94</ele><time>2010-10-10T08:02:01Z</time></trkpt><trkpt lat="43.224380" lon="1.053511"><ele>261.62</ele><time>2010-10-10T08:02:20Z</time></trkpt><trkpt lat="43.219994" lon="1.046032"><ele>263.54</ele><time>2010-10-10T08:02:41Z</time></trkpt><trkpt lat="43.215997" lon="1.039190"><ele>264.02</ele><time>2010-10-10T08:03:00Z</time></trkpt><trkpt lat="43.213558" lon="1.035006"><ele>264.50</ele><time>2010-10-10T08:03:12Z</time></trkpt><trkpt lat="43.210440" lon="1.029660"><ele>264.02</ele><time>2010-10-10T08:03:28Z</time></trkpt><trkpt lat="43.208708" lon="1.026164"><ele>264.50</ele><time>2010-10-10T08:03:38Z</time></trkpt><trkpt lat="43.207857" lon="1.023018"><ele>265.46</ele><time>2010-10-10T08:03:46Z</time></trkpt><trkpt lat="43.206941" lon="1.018169"><ele>266.90</ele><time>2010-10-10T08:03:58Z</time></trkpt><trkpt lat="43.205995" lon="1.015521"><ele>266.42</ele><time>2010-10-10T08:04:05Z</time></trkpt><trkpt lat="43.203895" lon="1.011070"><ele>266.90</ele><time>2010-10-10T08:04:17Z</time></trkpt><trkpt lat="43.200362" lon="1.003545"><ele>267.86</ele><time>2010-10-10T08:04:37Z</time></trkpt><trkpt lat="43.197357" lon="0.997174"><ele>268.83</ele><time>2010-10-10T08:04:54Z</time></trkpt><trkpt lat="43.195039" lon="0.992250"><ele>270.27</ele><time>2010-10-10T08:05:08Z</time></trkpt><trkpt lat="43.192950" lon="0.987894"><ele>271.23</ele><time>2010-10-10T08:05:21Z</time></trkpt><trkpt lat="43.191325" lon="0.984931"><ele>273.15</ele><time>2010-10-10T08:05:30Z</time></trkpt><trkpt lat="43.189741" lon="0.983015"><ele>270.27</ele><time>2010-10-10T08:05:38Z</time></trkpt><trkpt lat="43.187464" lon="0.980985"><ele>265.94</ele><time>2010-10-10T08:05:47Z</time></trkpt><trkpt lat="43.185542" lon="0.980042"><ele>262.58</ele><time>2010-10-10T08:05:54Z</time></trkpt><trkpt lat="43.183615" lon="0.979666"><ele>260.65</ele><time>2010-10-10T08:06:01Z</time></trkpt><trkpt lat="43.180133" lon="0.979146"><ele>262.58</ele><time>2010-10-10T08:06:14Z</time></trkpt><trkpt lat="43.177591" lon="0.978413"><ele>261.14</ele><time>2010-10-10T08:06:23Z</time></trkpt><trkpt lat="43.175562" lon="0.977235"><ele>261.14</ele><time>2010-10-10T08:06:31Z</time></trkpt><trkpt lat="43.173171" lon="0.975184"><ele>262.58</ele><time>2010-10-10T08:06:42Z</time></trkpt><trkpt lat="43.171181" lon="0.973589"><ele>264.02</ele><time>2010-10-10T08:06:51Z</time></trkpt><trkpt lat="43.169027" lon="0.972709"><ele>264.50</ele><time>2010-10-10T08:06:59Z</time></trkpt><trkpt lat="43.165580" lon="0.971614"><ele>264.98</ele><time>2010-10-10T08:07:11Z</time></trkpt><trkpt lat="43.163380" lon="0.970069"><ele>264.98</ele><time>2010-10-10T08:07:19Z</time></trkpt><trkpt lat="43.160377" lon="0.967686"><ele>266.90</ele><time>2010-10-10T08:07:30Z</time></trkpt><trkpt lat="43.157747" lon="0.966417"><ele>266.90</ele><time>2010-10-10T08:07:39Z</time></trkpt><trkpt lat="43.153962" lon="0.964740"><ele>268.83</ele><time>2010-10-10T08:07:52Z</time></trkpt><trkpt lat="43.150021" lon="0.963008"><ele>274.59</ele><time>2010-10-10T08:08:06Z</time></trkpt><trkpt lat="43.146751" lon="0.961534"><ele>279.88</ele><time>2010-10-10T08:08:18Z</time></trkpt><trkpt lat="43.143036" lon="0.959381"><ele>282.28</ele><time>2010-10-10T08:08:32Z</time></trkpt><trkpt lat="43.140303" lon="0.957376"><ele>287.09</ele><time>2010-10-10T08:08:43Z</time></trkpt><trkpt lat="43.137198" lon="0.954547"><ele>290.94</ele><time>2010-10-10T08:08:56Z</time></trkpt><trkpt lat="43.134772" lon="0.951806"><ele>292.86</ele><time>2010-10-10T08:09:07Z</time></trkpt><trkpt lat="43.132000" lon="0.948005"><ele>294.30</ele><time>2010-10-10T08:09:20Z</time></trkpt><trkpt lat="43.129800" lon="0.944351"><ele>296.22</ele><time>2010-10-10T08:09:31Z</time></trkpt><trkpt lat="43.127723" lon="0.940058"><ele>297.67</ele><time>2010-10-10T08:09:43Z</time></trkpt><trkpt lat="43.125626" lon="0.934800"><ele>298.15</ele><time>2010-10-10T08:09:57Z</time></trkpt><trkpt lat="43.123839" lon="0.930685"><ele>298.15</ele><time>2010-10-10T08:10:08Z</time></trkpt><trkpt lat="43.121654" lon="0.926767"><ele>297.67</ele><time>2010-10-10T08:10:19Z</time></trkpt><trkpt lat="43.118847" lon="0.921948"><ele>296.70</ele><time>2010-10-10T08:10:33Z</time></trkpt><trkpt lat="43.117366" lon="0.918886"><ele>296.70</ele><time>2010-10-10T08:10:42Z</time></trkpt><trkpt lat="43.116583" lon="0.916024"><ele>300.07</ele><time>2010-10-10T08:10:50Z</time></trkpt><trkpt lat="43.116165" lon="0.912672"><ele>305.84</ele><time>2010-10-10T08:10:59Z</time></trkpt><trkpt lat="43.116237" lon="0.909622"><ele>310.16</ele><time>2010-10-10T08:11:07Z</time></trkpt><trkpt lat="43.116810" lon="0.906192"><ele>311.12</ele><time>2010-10-10T08:11:16Z</time></trkpt><trkpt lat="43.117829" lon="0.901843"><ele>311.12</ele><time>2010-10-10T08:11:28Z</time></trkpt><trkpt lat="43.118619" lon="0.899642"><ele>311.60</ele><time>2010-10-10T08:11:36Z</time></trkpt><trkpt lat="43.119590" lon="0.897631"><ele>312.57</ele><time>2010-10-10T08:11:46Z</time></trkpt><trkpt lat="43.120207" lon="0.896446"><ele>313.53</ele><time>2010-10-10T08:11:54Z</time></trkpt><trkpt lat="43.120465" lon="0.895960"><ele>314.01</ele><time>2010-10-10T08:12:01Z</time></trkpt><trkpt lat="43.120533" lon="0.895834"><ele>313.53</ele><time>2010-10-10T08:12:10Z</time></trkpt><trkpt lat="43.120533" lon="0.895834"><ele>313.53</ele><time>2010-10-10T08:12:17Z</time></trkpt><trkpt lat="43.120568" lon="0.895768"><ele>312.57</ele><time>2010-10-10T08:12:25Z</time></trkpt><trkpt lat="43.120594" lon="0.895721"><ele>312.09</ele><time>2010-10-10T08:12:26Z</time></trkpt><trkpt lat="43.120914" lon="0.895140"><ele>313.05</ele><time>2010-10-10T08:12:31Z</time></trkpt><trkpt lat="43.121643" lon="0.893746"><ele>314.49</ele><time>2010-10-10T08:12:38Z</time></trkpt><trkpt lat="43.122685" lon="0.891368"><ele>316.41</ele><time>2010-10-10T08:12:47Z</time></trkpt><trkpt lat="43.123792" lon="0.887872"><ele>318.33</ele><time>2010-10-10T08:12:58Z</time></trkpt><trkpt lat="43.124414" lon="0.884294"><ele>320.26</ele><time>2010-10-10T08:13:08Z</time></trkpt><trkpt lat="43.124591" lon="0.880459"><ele>321.70</ele><time>2010-10-10T08:13:18Z</time></trkpt><trkpt lat="43.124631" lon="0.874457"><ele>325.06</ele><time>2010-10-10T08:13:33Z</time></trkpt><trkpt lat="43.125161" lon="0.870431"><ele>327.95</ele><time>2010-10-10T08:13:43Z</time></trkpt><trkpt lat="43.126192" lon="0.866005"><ele>330.35</ele><time>2010-10-10T08:13:54Z</time></trkpt><trkpt lat="43.128434" lon="0.857879"><ele>334.20</ele><time>2010-10-10T08:14:14Z</time></trkpt><trkpt lat="43.130383" lon="0.850282"><ele>338.52</ele><time>2010-10-10T08:14:32Z</time></trkpt><trkpt lat="43.131817" lon="0.843251"><ele>341.41</ele><time>2010-10-10T08:14:48Z</time></trkpt><trkpt lat="43.133247" lon="0.835763"><ele>344.29</ele><time>2010-10-10T08:15:05Z</time></trkpt><trkpt lat="43.133526" lon="0.832260"><ele>346.69</ele><time>2010-10-10T08:15:13Z</time></trkpt><trkpt lat="43.133298" lon="0.828891"><ele>353.42</ele><time>2010-10-10T08:15:21Z</time></trkpt><trkpt lat="43.132559" lon="0.825827"><ele>361.59</ele><time>2010-10-10T08:15:29Z</time></trkpt><trkpt lat="43.131186" lon="0.821576"><ele>373.61</ele><time>2010-10-10T08:15:41Z</time></trkpt><trkpt lat="43.129270" lon="0.815661"><ele>377.94</ele><time>2010-10-10T08:15:57Z</time></trkpt><trkpt lat="43.127579" lon="0.810320"><ele>365.44</ele><time>2010-10-10T08:16:10Z</time></trkpt><trkpt lat="43.126266" lon="0.805411"><ele>352.94</ele><time>2010-10-10T08:16:21Z</time></trkpt><trkpt lat="43.125777" lon="0.801895"><ele>347.65</ele><time>2010-10-10T08:16:29Z</time></trkpt><trkpt lat="43.125654" lon="0.797843"><ele>348.62</ele><time>2010-10-10T08:16:38Z</time></trkpt><trkpt lat="43.125845" lon="0.789729"><ele>352.46</ele><time>2010-10-10T08:16:56Z</time></trkpt><trkpt lat="43.125807" lon="0.782009"><ele>354.86</ele><time>2010-10-10T08:17:13Z</time></trkpt><trkpt lat="43.125444" lon="0.774719"><ele>357.27</ele><time>2010-10-10T08:17:29Z</time></trkpt><trkpt lat="43.125184" lon="0.767832"><ele>358.71</ele><time>2010-10-10T08:17:44Z</time></trkpt><trkpt lat="43.125158" lon="0.763084"><ele>360.15</ele><time>2010-10-10T08:17:55Z</time></trkpt><trkpt lat="43.125098" lon="0.757478"><ele>362.55</ele><time>2010-10-10T08:18:08Z</time></trkpt><trkpt lat="43.124708" lon="0.750361"><ele>364.48</ele><time>2010-10-10T08:18:24Z</time></trkpt><trkpt lat="43.123994" lon="0.745459"><ele>366.40</ele><time>2010-10-10T08:18:35Z</time></trkpt><trkpt lat="43.123342" lon="0.740602"><ele>368.80</ele><time>2010-10-10T08:18:46Z</time></trkpt><trkpt lat="43.123314" lon="0.737027"><ele>370.24</ele><time>2010-10-10T08:18:54Z</time></trkpt><trkpt lat="43.123746" lon="0.733080"><ele>371.69</ele><time>2010-10-10T08:19:03Z</time></trkpt><trkpt lat="43.124614" lon="0.726582"><ele>375.05</ele><time>2010-10-10T08:19:18Z</time></trkpt><trkpt lat="43.124575" lon="0.723067"><ele>377.94</ele><time>2010-10-10T08:19:26Z</time></trkpt><trkpt lat="43.124112" lon="0.719669"><ele>380.82</ele><time>2010-10-10T08:19:34Z</time></trkpt><trkpt lat="43.123066" lon="0.715126"><ele>385.63</ele><time>2010-10-10T08:19:45Z</time></trkpt><trkpt lat="43.121612" lon="0.708438"><ele>389.47</ele><time>2010-10-10T08:20:01Z</time></trkpt><trkpt lat="43.120353" lon="0.702377"><ele>388.03</ele><time>2010-10-10T08:20:15Z</time></trkpt><trkpt lat="43.118937" lon="0.697689"><ele>386.11</ele><time>2010-10-10T08:20:26Z</time></trkpt><trkpt lat="43.117368" lon="0.692952"><ele>383.22</ele><time>2010-10-10T08:20:37Z</time></trkpt><trkpt lat="43.116269" lon="0.688605"><ele>380.34</ele><time>2010-10-10T08:20:47Z</time></trkpt><trkpt lat="43.115549" lon="0.684065"><ele>379.86</ele><time>2010-10-10T08:20:58Z</time></trkpt><trkpt lat="43.114457" lon="0.675889"><ele>379.38</ele><time>2010-10-10T08:21:18Z</time></trkpt><trkpt lat="43.114083" lon="0.672032"><ele>381.30</ele><time>2010-10-10T08:21:27Z</time></trkpt><trkpt lat="43.114116" lon="0.667180"><ele>383.22</ele><time>2010-10-10T08:21:38Z</time></trkpt><trkpt lat="43.114501" lon="0.661389"><ele>386.59</ele><time>2010-10-10T08:21:51Z</time></trkpt><trkpt lat="43.115006" lon="0.654353"><ele>389.47</ele><time>2010-10-10T08:22:07Z</time></trkpt><trkpt lat="43.115131" lon="0.648775"><ele>388.99</ele><time>2010-10-10T08:22:20Z</time></trkpt><trkpt lat="43.114735" lon="0.643284"><ele>390.43</ele><time>2010-10-10T08:22:33Z</time></trkpt><trkpt lat="43.114198" lon="0.639138"><ele>390.91</ele><time>2010-10-10T08:22:43Z</time></trkpt><trkpt lat="43.112825" lon="0.632062"><ele>394.28</ele><time>2010-10-10T08:23:00Z</time></trkpt><trkpt lat="43.111295" lon="0.624384"><ele>396.20</ele><time>2010-10-10T08:23:18Z</time></trkpt><trkpt lat="43.109770" lon="0.617775"><ele>397.64</ele><time>2010-10-10T08:23:34Z</time></trkpt><trkpt lat="43.108036" lon="0.611372"><ele>400.53</ele><time>2010-10-10T08:23:50Z</time></trkpt><trkpt lat="43.105908" lon="0.603830"><ele>403.41</ele><time>2010-10-10T08:24:09Z</time></trkpt><trkpt lat="43.104291" lon="0.597026"><ele>411.58</ele><time>2010-10-10T08:24:26Z</time></trkpt><trkpt lat="43.102999" lon="0.591406"><ele>428.40</ele><time>2010-10-10T08:24:41Z</time></trkpt><trkpt lat="43.101672" lon="0.585926"><ele>444.75</ele><time>2010-10-10T08:24:56Z</time></trkpt><trkpt lat="43.100407" lon="0.582413"><ele>453.88</ele><time>2010-10-10T08:25:06Z</time></trkpt><trkpt lat="43.098619" lon="0.578653"><ele>456.76</ele><time>2010-10-10T08:25:17Z</time></trkpt><trkpt lat="43.097549" lon="0.575654"><ele>459.17</ele><time>2010-10-10T08:25:25Z</time></trkpt><trkpt lat="43.096920" lon="0.572369"><ele>461.09</ele><time>2010-10-10T08:25:33Z</time></trkpt><trkpt lat="43.096833" lon="0.568932"><ele>462.53</ele><time>2010-10-10T08:25:41Z</time></trkpt><trkpt lat="43.097270" lon="0.564668"><ele>464.45</ele><time>2010-10-10T08:25:51Z</time></trkpt><trkpt lat="43.097349" lon="0.560798"><ele>467.34</ele><time>2010-10-10T08:26:00Z</time></trkpt><trkpt lat="43.097006" lon="0.557045"><ele>475.51</ele><time>2010-10-10T08:26:09Z</time></trkpt><trkpt lat="43.096228" lon="0.553576"><ele>488.01</ele><time>2010-10-10T08:26:18Z</time></trkpt><trkpt lat="43.095001" lon="0.549330"><ele>502.43</ele><time>2010-10-10T08:26:30Z</time></trkpt><trkpt lat="43.093654" lon="0.544708"><ele>519.73</ele><time>2010-10-10T08:26:43Z</time></trkpt><trkpt lat="43.092696" lon="0.540138"><ele>531.27</ele><time>2010-10-10T08:26:55Z</time></trkpt><trkpt lat="43.092147" lon="0.536016"><ele>535.59</ele><time>2010-10-10T08:27:05Z</time></trkpt><trkpt lat="43.091326" lon="0.528683"><ele>542.80</ele><time>2010-10-10T08:27:22Z</time></trkpt><trkpt lat="43.090838" lon="0.522557"><ele>546.65</ele><time>2010-10-10T08:27:36Z</time></trkpt><trkpt lat="43.091050" lon="0.518581"><ele>549.53</ele><time>2010-10-10T08:27:45Z</time></trkpt><trkpt lat="43.091600" lon="0.512558"><ele>553.86</ele><time>2010-10-10T08:27:59Z</time></trkpt><trkpt lat="43.092383" lon="0.507171"><ele>557.70</ele><time>2010-10-10T08:28:12Z</time></trkpt><trkpt lat="43.093448" lon="0.503616"><ele>560.11</ele><time>2010-10-10T08:28:21Z</time></trkpt><trkpt lat="43.094889" lon="0.500447"><ele>562.51</ele><time>2010-10-10T08:28:30Z</time></trkpt><trkpt lat="43.097663" lon="0.494917"><ele>564.91</ele><time>2010-10-10T08:28:46Z</time></trkpt><trkpt lat="43.099288" lon="0.490751"><ele>565.87</ele><time>2010-10-10T08:28:57Z</time></trkpt><trkpt lat="43.100871" lon="0.485457"><ele>563.95</ele><time>2010-10-10T08:29:10Z</time></trkpt><trkpt lat="43.102778" lon="0.478656"><ele>564.91</ele><time>2010-10-10T08:29:26Z</time></trkpt><trkpt lat="43.104259" lon="0.473498"><ele>569.24</ele><time>2010-10-10T08:29:39Z</time></trkpt><trkpt lat="43.106079" lon="0.468073"><ele>575.01</ele><time>2010-10-10T08:29:53Z</time></trkpt><trkpt lat="43.107694" lon="0.463071"><ele>579.33</ele><time>2010-10-10T08:30:06Z</time></trkpt><trkpt lat="43.108315" lon="0.459482"><ele>582.70</ele><time>2010-10-10T08:30:15Z</time></trkpt><trkpt lat="43.108507" lon="0.455804"><ele>586.54</ele><time>2010-10-10T08:30:24Z</time></trkpt><trkpt lat="43.108191" lon="0.451713"><ele>588.46</ele><time>2010-10-10T08:30:34Z</time></trkpt><trkpt lat="43.107468" lon="0.446878"><ele>592.79</ele><time>2010-10-10T08:30:46Z</time></trkpt><trkpt lat="43.106579" lon="0.441381"><ele>598.08</ele><time>2010-10-10T08:31:00Z</time></trkpt><trkpt lat="43.105779" lon="0.436435"><ele>602.88</ele><time>2010-10-10T08:31:13Z</time></trkpt><trkpt lat="43.104523" lon="0.428575"><ele>606.25</ele><time>2010-10-10T08:31:34Z</time></trkpt><trkpt lat="43.103581" lon="0.422671"><ele>611.06</ele><time>2010-10-10T08:31:50Z</time></trkpt><trkpt lat="43.102695" lon="0.418199"><ele>618.26</ele><time>2010-10-10T08:32:04Z</time></trkpt><trkpt lat="43.101570" lon="0.413893"><ele>621.63</ele><time>2010-10-10T08:32:15Z</time></trkpt><trkpt lat="43.099950" lon="0.407725"><ele>624.03</ele><time>2010-10-10T08:32:31Z</time></trkpt><trkpt lat="43.099340" lon="0.403568"><ele>624.99</ele><time>2010-10-10T08:32:41Z</time></trkpt><trkpt lat="43.099194" lon="0.399319"><ele>626.92</ele><time>2010-10-10T08:32:51Z</time></trkpt><trkpt lat="43.099524" lon="0.395127"><ele>629.32</ele><time>2010-10-10T08:33:01Z</time></trkpt><trkpt lat="43.100469" lon="0.389354"><ele>632.68</ele><time>2010-10-10T08:33:15Z</time></trkpt><trkpt lat="43.100700" lon="0.387696"><ele>632.68</ele><time>2010-10-10T08:33:19Z</time></trkpt><trkpt lat="43.100738" lon="0.387276"><ele>632.68</ele><time>2010-10-10T08:33:20Z</time></trkpt><trkpt lat="43.100973" lon="0.383138"><ele>631.24</ele><time>2010-10-10T08:33:30Z</time></trkpt><trkpt lat="43.100813" lon="0.378536"><ele>628.36</ele><time>2010-10-10T08:33:41Z</time></trkpt><trkpt lat="43.100449" lon="0.373595"><ele>626.92</ele><time>2010-10-10T08:33:53Z</time></trkpt><trkpt lat="43.100053" lon="0.367965"><ele>624.99</ele><time>2010-10-10T08:34:06Z</time></trkpt><trkpt lat="43.099686" lon="0.362693"><ele>628.84</ele><time>2010-10-10T08:34:18Z</time></trkpt><trkpt lat="43.099186" lon="0.355087"><ele>629.32</ele><time>2010-10-10T08:34:35Z</time></trkpt><trkpt lat="43.099204" lon="0.351174"><ele>627.88</ele><time>2010-10-10T08:34:44Z</time></trkpt><trkpt lat="43.099548" lon="0.347034"><ele>619.71</ele><time>2010-10-10T08:34:54Z</time></trkpt><trkpt lat="43.100323" lon="0.343415"><ele>610.09</ele><time>2010-10-10T08:35:03Z</time></trkpt><trkpt lat="43.101415" lon="0.340395"><ele>596.64</ele><time>2010-10-10T08:35:11Z</time></trkpt><trkpt lat="43.102904" lon="0.337715"><ele>582.22</ele><time>2010-10-10T08:35:19Z</time></trkpt><trkpt lat="43.104774" lon="0.335321"><ele>572.12</ele><time>2010-10-10T08:35:27Z</time></trkpt><trkpt lat="43.106268" lon="0.333497"><ele>571.64</ele><time>2010-10-10T08:35:34Z</time></trkpt><trkpt lat="43.107013" lon="0.331874"><ele>576.93</ele><time>2010-10-10T08:35:40Z</time></trkpt><trkpt lat="43.107305" lon="0.329911"><ele>583.18</ele><time>2010-10-10T08:35:47Z</time></trkpt><trkpt lat="43.107136" lon="0.327463"><ele>586.06</ele><time>2010-10-10T08:35:55Z</time></trkpt><trkpt lat="43.107224" lon="0.325490"><ele>584.14</ele><time>2010-10-10T08:36:01Z</time></trkpt><trkpt lat="43.107859" lon="0.323664"><ele>578.85</ele><time>2010-10-10T08:36:07Z</time></trkpt><trkpt lat="43.108947" lon="0.322320"><ele>571.16</ele><time>2010-10-10T08:36:13Z</time></trkpt><trkpt lat="43.110321" lon="0.321672"><ele>564.91</ele><time>2010-10-10T08:36:19Z</time></trkpt><trkpt lat="43.111824" lon="0.321758"><ele>557.22</ele><time>2010-10-10T08:36:25Z</time></trkpt><trkpt lat="43.113637" lon="0.321890"><ele>548.57</ele><time>2010-10-10T08:36:32Z</time></trkpt><trkpt lat="43.115427" lon="0.321300"><ele>539.44</ele><time>2010-10-10T08:36:39Z</time></trkpt><trkpt lat="43.117569" lon="0.320711"><ele>528.38</ele><time>2010-10-10T08:36:47Z</time></trkpt><trkpt lat="43.120310" lon="0.320465"><ele>513.96</ele><time>2010-10-10T08:36:57Z</time></trkpt></trkseg></trk><trk><name>ACTIVE LOG: 10 окт 2010 10:37</name><trkseg><trkpt lat="43.122151" lon="0.319854"><ele>504.35</ele><time>2010-10-10T08:37:04Z</time></trkpt><trkpt lat="43.124463" lon="0.318896"><ele>490.89</ele><time>2010-10-10T08:37:14Z</time></trkpt><trkpt lat="43.126147" lon="0.317931"><ele>482.24</ele><time>2010-10-10T08:37:21Z</time></trkpt><trkpt lat="43.128946" lon="0.316055"><ele>470.70</ele><time>2010-10-10T08:37:31Z</time></trkpt><trkpt lat="43.131475" lon="0.315131"><ele>461.09</ele><time>2010-10-10T08:37:40Z</time></trkpt><trkpt lat="43.135381" lon="0.313956"><ele>443.31</ele><time>2010-10-10T08:37:54Z</time></trkpt><trkpt lat="43.137816" lon="0.312756"><ele>435.13</ele><time>2010-10-10T08:38:03Z</time></trkpt><trkpt lat="43.138068" lon="0.312594"><ele>434.65</ele><time>2010-10-10T08:38:04Z</time></trkpt><trkpt lat="43.138325" lon="0.312429"><ele>433.69</ele><time>2010-10-10T08:38:05Z</time></trkpt><trkpt lat="43.140323" lon="0.310901"><ele>427.92</ele><time>2010-10-10T08:38:13Z</time></trkpt><trkpt lat="43.142095" lon="0.309050"><ele>421.68</ele><time>2010-10-10T08:38:21Z</time></trkpt><trkpt lat="43.143916" lon="0.306656"><ele>413.02</ele><time>2010-10-10T08:38:30Z</time></trkpt><trkpt lat="43.145641" lon="0.303622"><ele>402.93</ele><time>2010-10-10T08:38:40Z</time></trkpt><trkpt lat="43.148449" lon="0.298176"><ele>385.63</ele><time>2010-10-10T08:38:57Z</time></trkpt><trkpt lat="43.150151" lon="0.295639"><ele>378.42</ele><time>2010-10-10T08:39:06Z</time></trkpt><trkpt lat="43.151909" lon="0.293714"><ele>371.69</ele><time>2010-10-10T08:39:14Z</time></trkpt><trkpt lat="43.154864" lon="0.290990"><ele>358.71</ele><time>2010-10-10T08:39:27Z</time></trkpt><trkpt lat="43.156374" lon="0.289367"><ele>351.02</ele><time>2010-10-10T08:39:35Z</time></trkpt><trkpt lat="43.157792" lon="0.287291"><ele>345.25</ele><time>2010-10-10T08:39:44Z</time></trkpt><trkpt lat="43.159010" lon="0.285894"><ele>339.96</ele><time>2010-10-10T08:39:51Z</time></trkpt><trkpt lat="43.160597" lon="0.284452"><ele>335.16</ele><time>2010-10-10T08:40:00Z</time></trkpt><trkpt lat="43.161010" lon="0.283894"><ele>333.71</ele><time>2010-10-10T08:40:03Z</time></trkpt><trkpt lat="43.161608" lon="0.282348"><ele>330.83</ele><time>2010-10-10T08:40:10Z</time></trkpt><trkpt lat="43.161720" lon="0.280607"><ele>327.47</ele><time>2010-10-10T08:40:17Z</time></trkpt><trkpt lat="43.161445" lon="0.278992"><ele>326.02</ele><time>2010-10-10T08:40:23Z</time></trkpt><trkpt lat="43.161210" lon="0.276669"><ele>323.62</ele><time>2010-10-10T08:40:31Z</time></trkpt><trkpt lat="43.161530" lon="0.274587"><ele>320.74</ele><time>2010-10-10T08:40:38Z</time></trkpt><trkpt lat="43.162430" lon="0.272214"><ele>316.89</ele><time>2010-10-10T08:40:46Z</time></trkpt><trkpt lat="43.163792" lon="0.268603"><ele>311.12</ele><time>2010-10-10T08:40:58Z</time></trkpt><trkpt lat="43.164125" lon="0.266025"><ele>306.80</ele><time>2010-10-10T08:41:06Z</time></trkpt><trkpt lat="43.164042" lon="0.262722"><ele>300.55</ele><time>2010-10-10T08:41:16Z</time></trkpt><trkpt lat="43.164013" lon="0.259009"><ele>293.34</ele><time>2010-10-10T08:41:27Z</time></trkpt><trkpt lat="43.164468" lon="0.256292"><ele>287.57</ele><time>2010-10-10T08:41:35Z</time></trkpt><trkpt lat="43.165293" lon="0.254082"><ele>284.21</ele><time>2010-10-10T08:41:42Z</time></trkpt><trkpt lat="43.166664" lon="0.252082"><ele>281.80</ele><time>2010-10-10T08:41:50Z</time></trkpt><trkpt lat="43.168759" lon="0.249593"><ele>279.88</ele><time>2010-10-10T08:42:01Z</time></trkpt><trkpt lat="43.170818" lon="0.247087"><ele>277.96</ele><time>2010-10-10T08:42:12Z</time></trkpt><trkpt lat="43.172504" lon="0.244646"><ele>278.92</ele><time>2010-10-10T08:42:22Z</time></trkpt><trkpt lat="43.173969" lon="0.241740"><ele>281.32</ele><time>2010-10-10T08:42:33Z</time></trkpt><trkpt lat="43.174639" lon="0.240068"><ele>282.77</ele><time>2010-10-10T08:42:40Z</time></trkpt><trkpt lat="43.174894" lon="0.239595"><ele>282.77</ele><time>2010-10-10T08:42:43Z</time></trkpt><trkpt lat="43.175000" lon="0.239480"><ele>282.28</ele><time>2010-10-10T08:42:44Z</time></trkpt><trkpt lat="43.175103" lon="0.239367"><ele>282.28</ele><time>2010-10-10T08:42:45Z</time></trkpt><trkpt lat="43.175204" lon="0.239258"><ele>281.32</ele><time>2010-10-10T08:42:46Z</time></trkpt><trkpt lat="43.175303" lon="0.239149"><ele>281.32</ele><time>2010-10-10T08:42:47Z</time></trkpt><trkpt lat="43.175413" lon="0.239092"><ele>280.84</ele><time>2010-10-10T08:42:48Z</time></trkpt><trkpt lat="43.175537" lon="0.239045"><ele>280.36</ele><time>2010-10-10T08:42:49Z</time></trkpt><trkpt lat="43.175664" lon="0.238998"><ele>279.88</ele><time>2010-10-10T08:42:50Z</time></trkpt><trkpt lat="43.175792" lon="0.238980"><ele>278.92</ele><time>2010-10-10T08:42:51Z</time></trkpt><trkpt lat="43.175932" lon="0.238963"><ele>277.96</ele><time>2010-10-10T08:42:52Z</time></trkpt><trkpt lat="43.176065" lon="0.238974"><ele>276.52</ele><time>2010-10-10T08:42:53Z</time></trkpt><trkpt lat="43.176198" lon="0.239029"><ele>275.56</ele><time>2010-10-10T08:42:54Z</time></trkpt><trkpt lat="43.176329" lon="0.239083"><ele>274.59</ele><time>2010-10-10T08:42:55Z</time></trkpt><trkpt lat="43.176455" lon="0.239135"><ele>274.11</ele><time>2010-10-10T08:42:56Z</time></trkpt><trkpt lat="43.176573" lon="0.239183"><ele>273.15</ele><time>2010-10-10T08:42:57Z</time></trkpt><trkpt lat="43.176700" lon="0.239215"><ele>272.19</ele><time>2010-10-10T08:42:58Z</time></trkpt><trkpt lat="43.176794" lon="0.239310"><ele>271.71</ele><time>2010-10-10T08:42:59Z</time></trkpt><trkpt lat="43.176877" lon="0.239400"><ele>271.71</ele><time>2010-10-10T08:43:00Z</time></trkpt><trkpt lat="43.177390" lon="0.239966"><ele>270.75</ele><time>2010-10-10T08:43:09Z</time></trkpt><trkpt lat="43.177411" lon="0.239990"><ele>270.75</ele><time>2010-10-10T08:43:12Z</time></trkpt><trkpt lat="43.177429" lon="0.240012"><ele>270.27</ele><time>2010-10-10T08:43:13Z</time></trkpt><trkpt lat="43.177429" lon="0.240012"><ele>269.31</ele><time>2010-10-10T08:43:27Z</time></trkpt><trkpt lat="43.177608" lon="0.240205"><ele>267.86</ele><time>2010-10-10T08:43:36Z</time></trkpt><trkpt lat="43.177671" lon="0.240268"><ele>267.86</ele><time>2010-10-10T08:43:37Z</time></trkpt><trkpt lat="43.178034" lon="0.240669"><ele>267.38</ele><time>2010-10-10T08:43:42Z</time></trkpt><trkpt lat="43.178094" lon="0.240746"><ele>267.38</ele><time>2010-10-10T08:43:43Z</time></trkpt><trkpt lat="43.178148" lon="0.240816"><ele>266.90</ele><time>2010-10-10T08:43:44Z</time></trkpt><trkpt lat="43.178196" lon="0.240877"><ele>266.90</ele><time>2010-10-10T08:43:45Z</time></trkpt><trkpt lat="43.178219" lon="0.240956"><ele>266.90</ele><time>2010-10-10T08:43:46Z</time></trkpt><trkpt lat="43.178234" lon="0.241017"><ele>266.90</ele><time>2010-10-10T08:43:47Z</time></trkpt><trkpt lat="43.178257" lon="0.241267"><ele>267.86</ele><time>2010-10-10T08:43:52Z</time></trkpt><trkpt lat="43.178220" lon="0.241316"><ele>267.86</ele><time>2010-10-10T08:43:53Z</time></trkpt><trkpt lat="43.178220" lon="0.241316"><ele>267.38</ele><time>2010-10-10T08:43:54Z</time></trkpt><trkpt lat="43.178095" lon="0.241399"><ele>267.38</ele><time>2010-10-10T08:43:55Z</time></trkpt><trkpt lat="43.178025" lon="0.241399"><ele>266.90</ele><time>2010-10-10T08:43:56Z</time></trkpt><trkpt lat="43.177949" lon="0.241399"><ele>266.42</ele><time>2010-10-10T08:43:57Z</time></trkpt><trkpt lat="43.177869" lon="0.241378"><ele>266.42</ele><time>2010-10-10T08:43:58Z</time></trkpt><trkpt lat="43.177787" lon="0.241323"><ele>266.42</ele><time>2010-10-10T08:43:59Z</time></trkpt><trkpt lat="43.177643" lon="0.241227"><ele>266.42</ele><time>2010-10-10T08:44:00Z</time></trkpt><trkpt lat="43.177606" lon="0.241175"><ele>266.90</ele><time>2010-10-10T08:44:01Z</time></trkpt><trkpt lat="43.177458" lon="0.240967"><ele>266.90</ele><time>2010-10-10T08:44:03Z</time></trkpt><trkpt lat="43.177377" lon="0.240892"><ele>267.38</ele><time>2010-10-10T08:44:04Z</time></trkpt><trkpt lat="43.177276" lon="0.240825"><ele>267.38</ele><time>2010-10-10T08:44:05Z</time></trkpt><trkpt lat="43.177175" lon="0.240758"><ele>268.35</ele><time>2010-10-10T08:44:06Z</time></trkpt><trkpt lat="43.177070" lon="0.240688"><ele>268.83</ele><time>2010-10-10T08:44:07Z</time></trkpt><trkpt lat="43.176955" lon="0.240669"><ele>269.31</ele><time>2010-10-10T08:44:08Z</time></trkpt><trkpt lat="43.176832" lon="0.240669"><ele>269.79</ele><time>2010-10-10T08:44:09Z</time></trkpt><trkpt lat="43.176715" lon="0.240669"><ele>270.27</ele><time>2010-10-10T08:44:10Z</time></trkpt><trkpt lat="43.176624" lon="0.240682"><ele>270.75</ele><time>2010-10-10T08:44:11Z</time></trkpt><trkpt lat="43.176545" lon="0.240714"><ele>271.23</ele><time>2010-10-10T08:44:12Z</time></trkpt><trkpt lat="43.176462" lon="0.240747"><ele>272.19</ele><time>2010-10-10T08:44:13Z</time></trkpt><trkpt lat="43.175578" lon="0.240973"><ele>277.00</ele><time>2010-10-10T08:44:21Z</time></trkpt><trkpt lat="43.174178" lon="0.241013"><ele>278.92</ele><time>2010-10-10T08:44:30Z</time></trkpt><trkpt lat="43.172612" lon="0.241026"><ele>282.77</ele><time>2010-10-10T08:44:39Z</time></trkpt><trkpt lat="43.170686" lon="0.241090"><ele>290.94</ele><time>2010-10-10T08:44:51Z</time></trkpt><trkpt lat="43.169423" lon="0.240910"><ele>301.03</ele><time>2010-10-10T08:45:00Z</time></trkpt><trkpt lat="43.169306" lon="0.240828"><ele>302.47</ele><time>2010-10-10T08:45:01Z</time></trkpt><trkpt lat="43.169100" lon="0.240684"><ele>304.88</ele><time>2010-10-10T08:45:03Z</time></trkpt><trkpt lat="43.169007" lon="0.240624"><ele>305.84</ele><time>2010-10-10T08:45:04Z</time></trkpt><trkpt lat="43.168903" lon="0.240603"><ele>307.28</ele><time>2010-10-10T08:45:05Z</time></trkpt><trkpt lat="43.168803" lon="0.240583"><ele>308.24</ele><time>2010-10-10T08:45:06Z</time></trkpt><trkpt lat="43.168701" lon="0.240604"><ele>309.20</ele><time>2010-10-10T08:45:07Z</time></trkpt><trkpt lat="43.168597" lon="0.240625"><ele>309.68</ele><time>2010-10-10T08:45:08Z</time></trkpt><trkpt lat="43.168274" lon="0.240644"><ele>312.57</ele><time>2010-10-10T08:45:11Z</time></trkpt><trkpt lat="43.168161" lon="0.240616"><ele>313.53</ele><time>2010-10-10T08:45:12Z</time></trkpt><trkpt lat="43.168045" lon="0.240587"><ele>314.01</ele><time>2010-10-10T08:45:13Z</time></trkpt><trkpt lat="43.167042" lon="0.240149"><ele>322.66</ele><time>2010-10-10T08:45:21Z</time></trkpt><trkpt lat="43.166922" lon="0.240065"><ele>324.10</ele><time>2010-10-10T08:45:22Z</time></trkpt><trkpt lat="43.166830" lon="0.239945"><ele>325.54</ele><time>2010-10-10T08:45:23Z</time></trkpt><trkpt lat="43.166739" lon="0.239826"><ele>326.99</ele><time>2010-10-10T08:45:24Z</time></trkpt><trkpt lat="43.166649" lon="0.239707"><ele>328.43</ele><time>2010-10-10T08:45:25Z</time></trkpt><trkpt lat="43.166557" lon="0.239588"><ele>329.87</ele><time>2010-10-10T08:45:26Z</time></trkpt><trkpt lat="43.166466" lon="0.239469"><ele>331.31</ele><time>2010-10-10T08:45:27Z</time></trkpt><trkpt lat="43.166374" lon="0.239369"><ele>332.75</ele><time>2010-10-10T08:45:28Z</time></trkpt><trkpt lat="43.166258" lon="0.239311"><ele>334.20</ele><time>2010-10-10T08:45:29Z</time></trkpt><trkpt lat="43.166143" lon="0.239253"><ele>335.64</ele><time>2010-10-10T08:45:30Z</time></trkpt><trkpt lat="43.166030" lon="0.239197"><ele>336.60</ele><time>2010-10-10T08:45:31Z</time></trkpt><trkpt lat="43.165917" lon="0.239141"><ele>338.04</ele><time>2010-10-10T08:45:32Z</time></trkpt><trkpt lat="43.165689" lon="0.239026"><ele>340.92</ele><time>2010-10-10T08:45:34Z</time></trkpt><trkpt lat="43.165578" lon="0.238946"><ele>341.89</ele><time>2010-10-10T08:45:35Z</time></trkpt><trkpt lat="43.165482" lon="0.238850"><ele>343.33</ele><time>2010-10-10T08:45:36Z</time></trkpt><trkpt lat="43.165193" lon="0.238561"><ele>346.69</ele><time>2010-10-10T08:45:39Z</time></trkpt><trkpt lat="43.164923" lon="0.238223"><ele>349.58</ele><time>2010-10-10T08:45:42Z</time></trkpt><trkpt lat="43.164723" lon="0.237793"><ele>352.94</ele><time>2010-10-10T08:45:45Z</time></trkpt><trkpt lat="43.164241" lon="0.236386"><ele>359.67</ele><time>2010-10-10T08:45:53Z</time></trkpt><trkpt lat="43.163516" lon="0.234856"><ele>366.88</ele><time>2010-10-10T08:46:02Z</time></trkpt><trkpt lat="43.162718" lon="0.233666"><ele>375.05</ele><time>2010-10-10T08:46:10Z</time></trkpt><trkpt lat="43.162503" lon="0.233439"><ele>377.45</ele><time>2010-10-10T08:46:12Z</time></trkpt><trkpt lat="43.162382" lon="0.233364"><ele>378.42</ele><time>2010-10-10T08:46:13Z</time></trkpt><trkpt lat="43.162257" lon="0.233288"><ele>379.38</ele><time>2010-10-10T08:46:14Z</time></trkpt><trkpt lat="43.161293" lon="0.232620"><ele>385.63</ele><time>2010-10-10T08:46:22Z</time></trkpt><trkpt lat="43.160303" lon="0.231851"><ele>392.36</ele><time>2010-10-10T08:46:30Z</time></trkpt><trkpt lat="43.160175" lon="0.231764"><ele>393.32</ele><time>2010-10-10T08:46:31Z</time></trkpt><trkpt lat="43.158818" lon="0.231190"><ele>401.49</ele><time>2010-10-10T08:46:40Z</time></trkpt><trkpt lat="43.157571" lon="0.231158"><ele>411.10</ele><time>2010-10-10T08:46:48Z</time></trkpt><trkpt lat="43.156659" lon="0.231356"><ele>421.68</ele><time>2010-10-10T08:46:54Z</time></trkpt><trkpt lat="43.156544" lon="0.231470"><ele>424.08</ele><time>2010-10-10T08:46:55Z</time></trkpt><trkpt lat="43.156429" lon="0.231585"><ele>425.52</ele><time>2010-10-10T08:46:56Z</time></trkpt><trkpt lat="43.156316" lon="0.231698"><ele>427.44</ele><time>2010-10-10T08:46:57Z</time></trkpt><trkpt lat="43.156205" lon="0.231809"><ele>428.89</ele><time>2010-10-10T08:46:58Z</time></trkpt><trkpt lat="43.156111" lon="0.231946"><ele>430.81</ele><time>2010-10-10T08:46:59Z</time></trkpt><trkpt lat="43.156044" lon="0.232103"><ele>432.25</ele><time>2010-10-10T08:47:00Z</time></trkpt><trkpt lat="43.155914" lon="0.232406"><ele>436.10</ele><time>2010-10-10T08:47:02Z</time></trkpt><trkpt lat="43.155340" lon="0.234135"><ele>452.92</ele><time>2010-10-10T08:47:12Z</time></trkpt><trkpt lat="43.155246" lon="0.234285"><ele>454.36</ele><time>2010-10-10T08:47:13Z</time></trkpt><trkpt lat="43.155143" lon="0.234416"><ele>455.32</ele><time>2010-10-10T08:47:14Z</time></trkpt><trkpt lat="43.155025" lon="0.234534"><ele>456.76</ele><time>2010-10-10T08:47:15Z</time></trkpt><trkpt lat="43.154907" lon="0.234652"><ele>458.21</ele><time>2010-10-10T08:47:16Z</time></trkpt><trkpt lat="43.154775" lon="0.234708"><ele>459.65</ele><time>2010-10-10T08:47:17Z</time></trkpt><trkpt lat="43.154632" lon="0.234761"><ele>461.09</ele><time>2010-10-10T08:47:18Z</time></trkpt><trkpt lat="43.154493" lon="0.234783"><ele>462.05</ele><time>2010-10-10T08:47:19Z</time></trkpt><trkpt lat="43.154345" lon="0.234766"><ele>463.01</ele><time>2010-10-10T08:47:20Z</time></trkpt><trkpt lat="43.154195" lon="0.234750"><ele>463.97</ele><time>2010-10-10T08:47:21Z</time></trkpt><trkpt lat="43.154054" lon="0.234698"><ele>464.93</ele><time>2010-10-10T08:47:22Z</time></trkpt><trkpt lat="43.153911" lon="0.234637"><ele>465.90</ele><time>2010-10-10T08:47:23Z</time></trkpt><trkpt lat="43.153767" lon="0.234575"><ele>467.34</ele><time>2010-10-10T08:47:24Z</time></trkpt><trkpt lat="43.151712" lon="0.233475"><ele>479.35</ele><time>2010-10-10T08:47:37Z</time></trkpt><trkpt lat="43.149520" lon="0.232228"><ele>483.20</ele><time>2010-10-10T08:47:49Z</time></trkpt><trkpt lat="43.147339" lon="0.230988"><ele>481.76</ele><time>2010-10-10T08:48:00Z</time></trkpt><trkpt lat="43.144555" lon="0.229405"><ele>481.76</ele><time>2010-10-10T08:48:14Z</time></trkpt><trkpt lat="43.141448" lon="0.227638"><ele>481.28</ele><time>2010-10-10T08:48:30Z</time></trkpt><trkpt lat="43.139086" lon="0.226295"><ele>489.93</ele><time>2010-10-10T08:48:42Z</time></trkpt><trkpt lat="43.136874" lon="0.225036"><ele>505.31</ele><time>2010-10-10T08:48:54Z</time></trkpt><trkpt lat="43.134629" lon="0.223749"><ele>518.29</ele><time>2010-10-10T08:49:07Z</time></trkpt><trkpt lat="43.133343" lon="0.222989"><ele>523.09</ele><time>2010-10-10T08:49:16Z</time></trkpt><trkpt lat="43.131306" lon="0.221822"><ele>526.94</ele><time>2010-10-10T08:49:31Z</time></trkpt><trkpt lat="43.129542" lon="0.220844"><ele>528.38</ele><time>2010-10-10T08:49:44Z</time></trkpt><trkpt lat="43.127761" lon="0.219817"><ele>526.46</ele><time>2010-10-10T08:49:57Z</time></trkpt><trkpt lat="43.126234" lon="0.218664"><ele>529.34</ele><time>2010-10-10T08:50:09Z</time></trkpt><trkpt lat="43.124646" lon="0.217147"><ele>531.27</ele><time>2010-10-10T08:50:23Z</time></trkpt><trkpt lat="43.123544" lon="0.215926"><ele>534.63</ele><time>2010-10-10T08:50:35Z</time></trkpt><trkpt lat="43.122884" lon="0.215321"><ele>538.48</ele><time>2010-10-10T08:50:42Z</time></trkpt><trkpt lat="43.122820" lon="0.215268"><ele>538.96</ele><time>2010-10-10T08:50:43Z</time></trkpt><trkpt lat="43.122361" lon="0.214914"><ele>540.40</ele><time>2010-10-10T08:50:51Z</time></trkpt><trkpt lat="43.121981" lon="0.214630"><ele>542.32</ele><time>2010-10-10T08:50:57Z</time></trkpt><trkpt lat="43.121933" lon="0.214593"><ele>542.80</ele><time>2010-10-10T08:50:58Z</time></trkpt><trkpt lat="43.121853" lon="0.214534"><ele>542.80</ele><time>2010-10-10T08:50:59Z</time></trkpt><trkpt lat="43.121185" lon="0.213760"><ele>544.24</ele><time>2010-10-10T08:51:09Z</time></trkpt><trkpt lat="43.120527" lon="0.213078"><ele>543.76</ele><time>2010-10-10T08:51:18Z</time></trkpt><trkpt lat="43.119456" lon="0.211878"><ele>547.61</ele><time>2010-10-10T08:51:29Z</time></trkpt><trkpt lat="43.118294" lon="0.210523"><ele>549.05</ele><time>2010-10-10T08:51:41Z</time></trkpt><trkpt lat="43.117028" lon="0.209061"><ele>551.45</ele><time>2010-10-10T08:51:53Z</time></trkpt><trkpt lat="43.115544" lon="0.207246"><ele>556.26</ele><time>2010-10-10T08:52:05Z</time></trkpt><trkpt lat="43.113678" lon="0.204933"><ele>561.07</ele><time>2010-10-10T08:52:20Z</time></trkpt><trkpt lat="43.111954" lon="0.202862"><ele>567.80</ele><time>2010-10-10T08:52:34Z</time></trkpt><trkpt lat="43.111304" lon="0.201973"><ele>572.12</ele><time>2010-10-10T08:52:42Z</time></trkpt><trkpt lat="43.111167" lon="0.201745"><ele>573.08</ele><time>2010-10-10T08:52:44Z</time></trkpt><trkpt lat="43.111187" lon="0.201705"><ele>574.04</ele><time>2010-10-10T08:52:45Z</time></trkpt><trkpt lat="43.111186" lon="0.201539"><ele>575.97</ele><time>2010-10-10T08:52:47Z</time></trkpt><trkpt lat="43.111156" lon="0.201433"><ele>576.45</ele><time>2010-10-10T08:52:48Z</time></trkpt><trkpt lat="43.111112" lon="0.201389"><ele>576.45</ele><time>2010-10-10T08:52:49Z</time></trkpt><trkpt lat="43.111017" lon="0.201391"><ele>576.93</ele><time>2010-10-10T08:52:50Z</time></trkpt><trkpt lat="43.111017" lon="0.201391"><ele>576.93</ele><time>2010-10-10T08:52:51Z</time></trkpt><trkpt lat="43.110895" lon="0.201433"><ele>577.41</ele><time>2010-10-10T08:52:52Z</time></trkpt><trkpt lat="43.110836" lon="0.201389"><ele>577.41</ele><time>2010-10-10T08:52:53Z</time></trkpt><trkpt lat="43.110768" lon="0.201338"><ele>577.41</ele><time>2010-10-10T08:52:54Z</time></trkpt><trkpt lat="43.110696" lon="0.201274"><ele>577.89</ele><time>2010-10-10T08:52:55Z</time></trkpt><trkpt lat="43.110621" lon="0.201198"><ele>577.89</ele><time>2010-10-10T08:52:56Z</time></trkpt><trkpt lat="43.110481" lon="0.201058"><ele>578.37</ele><time>2010-10-10T08:52:57Z</time></trkpt><trkpt lat="43.109584" lon="0.200104"><ele>574.53</ele><time>2010-10-10T08:53:07Z</time></trkpt><trkpt lat="43.108077" lon="0.198695"><ele>566.35</ele><time>2010-10-10T08:53:18Z</time></trkpt><trkpt lat="43.105980" lon="0.196759"><ele>562.99</ele><time>2010-10-10T08:53:32Z</time></trkpt><trkpt lat="43.103286" lon="0.194248"><ele>559.14</ele><time>2010-10-10T08:53:50Z</time></trkpt><trkpt lat="43.101087" lon="0.192190"><ele>557.22</ele><time>2010-10-10T08:54:04Z</time></trkpt><trkpt lat="43.098854" lon="0.190087"><ele>560.59</ele><time>2010-10-10T08:54:18Z</time></trkpt><trkpt lat="43.097446" lon="0.189115"><ele>556.74</ele><time>2010-10-10T08:54:29Z</time></trkpt><trkpt lat="43.095631" lon="0.187862"><ele>546.17</ele><time>2010-10-10T08:54:42Z</time></trkpt><trkpt lat="43.094470" lon="0.186794"><ele>540.40</ele><time>2010-10-10T08:54:51Z</time></trkpt><trkpt lat="43.093665" lon="0.185235"><ele>545.69</ele><time>2010-10-10T08:55:00Z</time></trkpt><trkpt lat="43.092863" lon="0.183366"><ele>558.18</ele><time>2010-10-10T08:55:11Z</time></trkpt><trkpt lat="43.092032" lon="0.181345"><ele>575.01</ele><time>2010-10-10T08:55:23Z</time></trkpt><trkpt lat="43.091077" lon="0.179023"><ele>592.31</ele><time>2010-10-10T08:55:37Z</time></trkpt><trkpt lat="43.090300" lon="0.177231"><ele>607.69</ele><time>2010-10-10T08:55:48Z</time></trkpt><trkpt lat="43.089673" lon="0.175886"><ele>618.26</ele><time>2010-10-10T08:55:59Z</time></trkpt><trkpt lat="43.088700" lon="0.174374"><ele>622.11</ele><time>2010-10-10T08:56:09Z</time></trkpt><trkpt lat="43.087550" lon="0.172685"><ele>620.67</ele><time>2010-10-10T08:56:18Z</time></trkpt><trkpt lat="43.085451" lon="0.169578"><ele>620.19</ele><time>2010-10-10T08:56:33Z</time></trkpt><trkpt lat="43.083504" lon="0.166701"><ele>629.32</ele><time>2010-10-10T08:56:48Z</time></trkpt><trkpt lat="43.082575" lon="0.165295"><ele>635.57</ele><time>2010-10-10T08:56:58Z</time></trkpt><trkpt lat="43.082066" lon="0.164520"><ele>637.97</ele><time>2010-10-10T08:57:04Z</time></trkpt><trkpt lat="43.081853" lon="0.164254"><ele>637.49</ele><time>2010-10-10T08:57:07Z</time></trkpt><trkpt lat="43.081790" lon="0.164176"><ele>637.01</ele><time>2010-10-10T08:57:08Z</time></trkpt><trkpt lat="43.081697" lon="0.164151"><ele>636.53</ele><time>2010-10-10T08:57:09Z</time></trkpt><trkpt lat="43.081613" lon="0.164151"><ele>636.05</ele><time>2010-10-10T08:57:10Z</time></trkpt><trkpt lat="43.081526" lon="0.164151"><ele>635.57</ele><time>2010-10-10T08:57:11Z</time></trkpt><trkpt lat="43.081433" lon="0.164179"><ele>635.09</ele><time>2010-10-10T08:57:12Z</time></trkpt><trkpt lat="43.081345" lon="0.164245"><ele>634.61</ele><time>2010-10-10T08:57:13Z</time></trkpt><trkpt lat="43.081246" lon="0.164301"><ele>634.13</ele><time>2010-10-10T08:57:14Z</time></trkpt><trkpt lat="43.081153" lon="0.164338"><ele>633.65</ele><time>2010-10-10T08:57:15Z</time></trkpt><trkpt lat="43.081048" lon="0.164357"><ele>633.17</ele><time>2010-10-10T08:57:16Z</time></trkpt><trkpt lat="43.080962" lon="0.164335"><ele>632.68</ele><time>2010-10-10T08:57:17Z</time></trkpt><trkpt lat="43.080873" lon="0.164313"><ele>631.72</ele><time>2010-10-10T08:57:18Z</time></trkpt><trkpt lat="43.080778" lon="0.164289"><ele>631.24</ele><time>2010-10-10T08:57:19Z</time></trkpt><trkpt lat="43.080697" lon="0.164222"><ele>630.76</ele><time>2010-10-10T08:57:20Z</time></trkpt><trkpt lat="43.080621" lon="0.164120"><ele>630.28</ele><time>2010-10-10T08:57:21Z</time></trkpt><trkpt lat="43.080538" lon="0.164010"><ele>629.80</ele><time>2010-10-10T08:57:22Z</time></trkpt><trkpt lat="43.080450" lon="0.163892"><ele>628.84</ele><time>2010-10-10T08:57:23Z</time></trkpt><trkpt lat="43.079704" lon="0.163045"><ele>621.63</ele><time>2010-10-10T08:57:30Z</time></trkpt><trkpt lat="43.079599" lon="0.162934"><ele>620.19</ele><time>2010-10-10T08:57:31Z</time></trkpt><trkpt lat="43.079151" lon="0.162463"><ele>614.42</ele><time>2010-10-10T08:57:35Z</time></trkpt><trkpt lat="43.079034" lon="0.162340"><ele>612.98</ele><time>2010-10-10T08:57:36Z</time></trkpt><trkpt lat="43.078046" lon="0.161440"><ele>603.85</ele><time>2010-10-10T08:57:45Z</time></trkpt><trkpt lat="43.077507" lon="0.160955"><ele>598.56</ele><time>2010-10-10T08:57:50Z</time></trkpt><trkpt lat="43.077428" lon="0.160850"><ele>597.60</ele><time>2010-10-10T08:57:51Z</time></trkpt><trkpt lat="43.077358" lon="0.160758"><ele>596.64</ele><time>2010-10-10T08:57:52Z</time></trkpt><trkpt lat="43.077176" lon="0.160514"><ele>595.19</ele><time>2010-10-10T08:57:55Z</time></trkpt><trkpt lat="43.077109" lon="0.160447"><ele>594.23</ele><time>2010-10-10T08:57:56Z</time></trkpt><trkpt lat="43.077031" lon="0.160408"><ele>593.75</ele><time>2010-10-10T08:57:57Z</time></trkpt><trkpt lat="43.076947" lon="0.160366"><ele>592.79</ele><time>2010-10-10T08:57:58Z</time></trkpt><trkpt lat="43.076861" lon="0.160323"><ele>592.31</ele><time>2010-10-10T08:57:59Z</time></trkpt><trkpt lat="43.076394" lon="0.160089"><ele>589.91</ele><time>2010-10-10T08:58:04Z</time></trkpt><trkpt lat="43.076301" lon="0.160043"><ele>589.43</ele><time>2010-10-10T08:58:05Z</time></trkpt><trkpt lat="43.076230" lon="0.159956"><ele>588.46</ele><time>2010-10-10T08:58:06Z</time></trkpt><trkpt lat="43.076171" lon="0.159861"><ele>587.50</ele><time>2010-10-10T08:58:07Z</time></trkpt><trkpt lat="43.076112" lon="0.159767"><ele>587.02</ele><time>2010-10-10T08:58:08Z</time></trkpt><trkpt lat="43.076061" lon="0.159671"><ele>586.54</ele><time>2010-10-10T08:58:09Z</time></trkpt><trkpt lat="43.076045" lon="0.159540"><ele>586.06</ele><time>2010-10-10T08:58:10Z</time></trkpt><trkpt lat="43.076030" lon="0.159409"><ele>585.10</ele><time>2010-10-10T08:58:11Z</time></trkpt><trkpt lat="43.076016" lon="0.159291"><ele>584.62</ele><time>2010-10-10T08:58:12Z</time></trkpt><trkpt lat="43.076004" lon="0.159190"><ele>584.14</ele><time>2010-10-10T08:58:13Z</time></trkpt><trkpt lat="43.075993" lon="0.159092"><ele>583.66</ele><time>2010-10-10T08:58:14Z</time></trkpt><trkpt lat="43.075981" lon="0.158997"><ele>583.18</ele><time>2010-10-10T08:58:15Z</time></trkpt><trkpt lat="43.075977" lon="0.158912"><ele>582.70</ele><time>2010-10-10T08:58:16Z</time></trkpt><trkpt lat="43.075937" lon="0.158789"><ele>581.73</ele><time>2010-10-10T08:58:17Z</time></trkpt><trkpt lat="43.075873" lon="0.158739"><ele>581.25</ele><time>2010-10-10T08:58:18Z</time></trkpt><trkpt lat="43.075816" lon="0.158725"><ele>580.29</ele><time>2010-10-10T08:58:19Z</time></trkpt><trkpt lat="43.075757" lon="0.158710"><ele>579.33</ele><time>2010-10-10T08:58:20Z</time></trkpt><trkpt lat="43.075691" lon="0.158694"><ele>578.37</ele><time>2010-10-10T08:58:21Z</time></trkpt><trkpt lat="43.075619" lon="0.158676"><ele>577.41</ele><time>2010-10-10T08:58:22Z</time></trkpt><trkpt lat="43.075545" lon="0.158659"><ele>576.45</ele><time>2010-10-10T08:58:23Z</time></trkpt><trkpt lat="43.075463" lon="0.158679"><ele>575.49</ele><time>2010-10-10T08:58:24Z</time></trkpt><trkpt lat="43.075386" lon="0.158698"><ele>574.53</ele><time>2010-10-10T08:58:25Z</time></trkpt><trkpt lat="43.075324" lon="0.158764"><ele>573.56</ele><time>2010-10-10T08:58:26Z</time></trkpt><trkpt lat="43.075269" lon="0.158829"><ele>573.08</ele><time>2010-10-10T08:58:27Z</time></trkpt><trkpt lat="43.075213" lon="0.158897"><ele>572.12</ele><time>2010-10-10T08:58:28Z</time></trkpt><trkpt lat="43.075071" lon="0.159015"><ele>570.20</ele><time>2010-10-10T08:58:30Z</time></trkpt><trkpt lat="43.074988" lon="0.159067"><ele>569.24</ele><time>2010-10-10T08:58:31Z</time></trkpt><trkpt lat="43.074902" lon="0.159121"><ele>568.76</ele><time>2010-10-10T08:58:32Z</time></trkpt><trkpt lat="43.074817" lon="0.159174"><ele>567.80</ele><time>2010-10-10T08:58:33Z</time></trkpt><trkpt lat="43.074711" lon="0.159208"><ele>567.32</ele><time>2010-10-10T08:58:34Z</time></trkpt><trkpt lat="43.074613" lon="0.159195"><ele>566.35</ele><time>2010-10-10T08:58:35Z</time></trkpt><trkpt lat="43.073861" lon="0.158940"><ele>559.62</ele><time>2010-10-10T08:58:43Z</time></trkpt><trkpt lat="43.073693" lon="0.158916"><ele>557.70</ele><time>2010-10-10T08:58:45Z</time></trkpt><trkpt lat="43.073606" lon="0.158916"><ele>557.22</ele><time>2010-10-10T08:58:46Z</time></trkpt><trkpt lat="43.073524" lon="0.158918"><ele>556.26</ele><time>2010-10-10T08:58:47Z</time></trkpt><trkpt lat="43.073438" lon="0.158946"><ele>555.30</ele><time>2010-10-10T08:58:48Z</time></trkpt><trkpt lat="43.073353" lon="0.158975"><ele>554.34</ele><time>2010-10-10T08:58:49Z</time></trkpt><trkpt lat="43.073009" lon="0.159086"><ele>551.45</ele><time>2010-10-10T08:58:53Z</time></trkpt><trkpt lat="43.072920" lon="0.159073"><ele>550.49</ele><time>2010-10-10T08:58:54Z</time></trkpt><trkpt lat="43.072827" lon="0.159060"><ele>550.01</ele><time>2010-10-10T08:58:55Z</time></trkpt><trkpt lat="43.072735" lon="0.159047"><ele>549.05</ele><time>2010-10-10T08:58:56Z</time></trkpt><trkpt lat="43.072654" lon="0.158983"><ele>548.09</ele><time>2010-10-10T08:58:57Z</time></trkpt><trkpt lat="43.072574" lon="0.158903"><ele>547.13</ele><time>2010-10-10T08:58:58Z</time></trkpt><trkpt lat="43.071396" lon="0.157842"><ele>537.99</ele><time>2010-10-10T08:59:10Z</time></trkpt><trkpt lat="43.070560" lon="0.156978"><ele>533.19</ele><time>2010-10-10T08:59:20Z</time></trkpt><trkpt lat="43.070496" lon="0.156911"><ele>532.71</ele><time>2010-10-10T08:59:26Z</time></trkpt><trkpt lat="43.070419" lon="0.156850"><ele>532.71</ele><time>2010-10-10T08:59:47Z</time></trkpt><trkpt lat="43.070001" lon="0.156423"><ele>533.19</ele><time>2010-10-10T08:59:55Z</time></trkpt><trkpt lat="43.069890" lon="0.156320"><ele>533.67</ele><time>2010-10-10T08:59:57Z</time></trkpt><trkpt lat="43.069732" lon="0.156171"><ele>534.15</ele><time>2010-10-10T09:00:03Z</time></trkpt><trkpt lat="43.069505" lon="0.155957"><ele>534.63</ele><time>2010-10-10T09:00:12Z</time></trkpt><trkpt lat="43.068969" lon="0.155447"><ele>537.03</ele><time>2010-10-10T09:00:21Z</time></trkpt><trkpt lat="43.068482" lon="0.154982"><ele>539.92</ele><time>2010-10-10T09:00:29Z</time></trkpt><trkpt lat="43.068032" lon="0.154533"><ele>540.88</ele><time>2010-10-10T09:00:39Z</time></trkpt><trkpt lat="43.067945" lon="0.154445"><ele>540.40</ele><time>2010-10-10T09:00:49Z</time></trkpt><trkpt lat="43.067743" lon="0.154244"><ele>541.36</ele><time>2010-10-10T09:00:59Z</time></trkpt><trkpt lat="43.067370" lon="0.153870"><ele>539.92</ele><time>2010-10-10T09:01:10Z</time></trkpt><trkpt lat="43.067018" lon="0.153518"><ele>540.88</ele><time>2010-10-10T09:01:18Z</time></trkpt><trkpt lat="43.066979" lon="0.153479"><ele>540.88</ele><time>2010-10-10T09:01:19Z</time></trkpt><trkpt lat="43.066939" lon="0.153440"><ele>540.88</ele><time>2010-10-10T09:01:20Z</time></trkpt><trkpt lat="43.066620" lon="0.153140"><ele>541.36</ele><time>2010-10-10T09:01:28Z</time></trkpt><trkpt lat="43.066585" lon="0.153108"><ele>541.84</ele><time>2010-10-10T09:01:29Z</time></trkpt><trkpt lat="43.066551" lon="0.153077"><ele>542.32</ele><time>2010-10-10T09:01:30Z</time></trkpt><trkpt lat="43.066520" lon="0.153049"><ele>542.32</ele><time>2010-10-10T09:01:31Z</time></trkpt><trkpt lat="43.066494" lon="0.153024"><ele>542.80</ele><time>2010-10-10T09:01:32Z</time></trkpt><trkpt lat="43.066466" lon="0.152998"><ele>542.80</ele><time>2010-10-10T09:01:33Z</time></trkpt><trkpt lat="43.066175" lon="0.152686"><ele>546.17</ele><time>2010-10-10T09:01:45Z</time></trkpt><trkpt lat="43.065968" lon="0.152433"><ele>546.17</ele><time>2010-10-10T09:01:51Z</time></trkpt><trkpt lat="43.065968" lon="0.152433"><ele>546.17</ele><time>2010-10-10T09:01:52Z</time></trkpt><trkpt lat="43.065918" lon="0.152400"><ele>546.17</ele><time>2010-10-10T09:01:53Z</time></trkpt><trkpt lat="43.065935" lon="0.152392"><ele>546.17</ele><time>2010-10-10T09:01:54Z</time></trkpt><trkpt lat="43.065935" lon="0.152392"><ele>546.17</ele><time>2010-10-10T09:01:55Z</time></trkpt><trkpt lat="43.065711" lon="0.152498"><ele>546.17</ele><time>2010-10-10T09:01:56Z</time></trkpt><trkpt lat="43.064953" lon="0.152871"><ele>547.13</ele><time>2010-10-10T09:02:05Z</time></trkpt><trkpt lat="43.063755" lon="0.153475"><ele>545.69</ele><time>2010-10-10T09:02:18Z</time></trkpt><trkpt lat="43.062794" lon="0.153989"><ele>542.80</ele><time>2010-10-10T09:02:27Z</time></trkpt><trkpt lat="43.061481" lon="0.154719"><ele>541.84</ele><time>2010-10-10T09:02:39Z</time></trkpt><trkpt lat="43.061256" lon="0.154825"><ele>541.84</ele><time>2010-10-10T09:02:42Z</time></trkpt><trkpt lat="43.061202" lon="0.154843"><ele>541.84</ele><time>2010-10-10T09:02:43Z</time></trkpt><trkpt lat="43.061202" lon="0.154843"><ele>541.84</ele><time>2010-10-10T09:02:44Z</time></trkpt><trkpt lat="43.061049" lon="0.154787"><ele>541.84</ele><time>2010-10-10T09:02:45Z</time></trkpt><trkpt lat="43.061023" lon="0.154720"><ele>541.84</ele><time>2010-10-10T09:02:46Z</time></trkpt><trkpt lat="43.060992" lon="0.154639"><ele>542.32</ele><time>2010-10-10T09:02:47Z</time></trkpt><trkpt lat="43.060957" lon="0.154548"><ele>541.84</ele><time>2010-10-10T09:02:48Z</time></trkpt><trkpt lat="43.060919" lon="0.154449"><ele>541.84</ele><time>2010-10-10T09:02:49Z</time></trkpt><trkpt lat="43.060737" lon="0.153976"><ele>541.84</ele><time>2010-10-10T09:02:54Z</time></trkpt><trkpt lat="43.060716" lon="0.153920"><ele>542.80</ele><time>2010-10-10T09:02:55Z</time></trkpt><trkpt lat="43.060702" lon="0.153886"><ele>544.24</ele><time>2010-10-10T09:02:56Z</time></trkpt><trkpt lat="43.060702" lon="0.153886"><ele>545.20</ele><time>2010-10-10T09:03:08Z</time></trkpt><trkpt lat="43.060702" lon="0.153886"><ele>545.69</ele><time>2010-10-10T09:03:26Z</time></trkpt><trkpt lat="43.060656" lon="0.153766"><ele>545.69</ele><time>2010-10-10T09:03:27Z</time></trkpt><trkpt lat="43.060742" lon="0.153551"><ele>545.69</ele><time>2010-10-10T09:03:28Z</time></trkpt><trkpt lat="43.060742" lon="0.153551"><ele>545.69</ele><time>2010-10-10T09:03:29Z</time></trkpt><trkpt lat="43.060514" lon="0.153926"><ele>546.17</ele><time>2010-10-10T09:03:30Z</time></trkpt><trkpt lat="43.060452" lon="0.153996"><ele>546.17</ele><time>2010-10-10T09:03:31Z</time></trkpt><trkpt lat="43.060384" lon="0.154072"><ele>546.17</ele><time>2010-10-10T09:03:32Z</time></trkpt><trkpt lat="43.059549" lon="0.154728"><ele>545.20</ele><time>2010-10-10T09:03:41Z</time></trkpt><trkpt lat="43.058415" lon="0.155341"><ele>545.69</ele><time>2010-10-10T09:03:51Z</time></trkpt><trkpt lat="43.056724" lon="0.156264"><ele>546.17</ele><time>2010-10-10T09:04:03Z</time></trkpt><trkpt lat="43.055371" lon="0.157109"><ele>550.01</ele><time>2010-10-10T09:04:14Z</time></trkpt><trkpt lat="43.055270" lon="0.157174"><ele>550.97</ele><time>2010-10-10T09:04:15Z</time></trkpt><trkpt lat="43.055172" lon="0.157236"><ele>551.45</ele><time>2010-10-10T09:04:16Z</time></trkpt><trkpt lat="43.053770" lon="0.157251"><ele>559.14</ele><time>2010-10-10T09:04:27Z</time></trkpt><trkpt lat="43.053095" lon="0.157209"><ele>562.99</ele><time>2010-10-10T09:04:32Z</time></trkpt><trkpt lat="43.051916" lon="0.157563"><ele>567.80</ele><time>2010-10-10T09:04:41Z</time></trkpt><trkpt lat="43.050537" lon="0.158050"><ele>572.60</ele><time>2010-10-10T09:04:52Z</time></trkpt><trkpt lat="43.049439" lon="0.157779"><ele>575.97</ele><time>2010-10-10T09:05:01Z</time></trkpt><trkpt lat="43.049319" lon="0.157714"><ele>576.45</ele><time>2010-10-10T09:05:02Z</time></trkpt><trkpt lat="43.049183" lon="0.157690"><ele>576.45</ele><time>2010-10-10T09:05:03Z</time></trkpt><trkpt lat="43.049063" lon="0.157721"><ele>576.93</ele><time>2010-10-10T09:05:04Z</time></trkpt><trkpt lat="43.048941" lon="0.157738"><ele>576.93</ele><time>2010-10-10T09:05:05Z</time></trkpt><trkpt lat="43.048820" lon="0.157756"><ele>576.93</ele><time>2010-10-10T09:05:06Z</time></trkpt><trkpt lat="43.048698" lon="0.157805"><ele>577.41</ele><time>2010-10-10T09:05:07Z</time></trkpt><trkpt lat="43.047053" lon="0.158505"><ele>579.33</ele><time>2010-10-10T09:05:19Z</time></trkpt><trkpt lat="43.044715" lon="0.159383"><ele>582.70</ele><time>2010-10-10T09:05:34Z</time></trkpt><trkpt lat="43.042880" lon="0.160097"><ele>585.58</ele><time>2010-10-10T09:05:47Z</time></trkpt><trkpt lat="43.041941" lon="0.160529"><ele>586.54</ele><time>2010-10-10T09:05:54Z</time></trkpt><trkpt lat="43.040273" lon="0.161397"><ele>588.46</ele><time>2010-10-10T09:06:05Z</time></trkpt><trkpt lat="43.037862" lon="0.162757"><ele>594.23</ele><time>2010-10-10T09:06:21Z</time></trkpt><trkpt lat="43.035820" lon="0.163883"><ele>599.52</ele><time>2010-10-10T09:06:34Z</time></trkpt><trkpt lat="43.033366" lon="0.165493"><ele>605.29</ele><time>2010-10-10T09:06:50Z</time></trkpt><trkpt lat="43.031848" lon="0.166531"><ele>609.13</ele><time>2010-10-10T09:07:01Z</time></trkpt><trkpt lat="43.030557" lon="0.166992"><ele>613.94</ele><time>2010-10-10T09:07:11Z</time></trkpt><trkpt lat="43.029929" lon="0.167241"><ele>616.82</ele><time>2010-10-10T09:07:16Z</time></trkpt><trkpt lat="43.029884" lon="0.167277"><ele>617.30</ele><time>2010-10-10T09:07:17Z</time></trkpt><trkpt lat="43.029778" lon="0.167362"><ele>617.78</ele><time>2010-10-10T09:07:18Z</time></trkpt><trkpt lat="43.029679" lon="0.167464"><ele>618.26</ele><time>2010-10-10T09:07:19Z</time></trkpt><trkpt lat="43.029597" lon="0.167582"><ele>618.75</ele><time>2010-10-10T09:07:20Z</time></trkpt><trkpt lat="43.029228" lon="0.168046"><ele>620.19</ele><time>2010-10-10T09:07:25Z</time></trkpt><trkpt lat="43.029154" lon="0.168101"><ele>620.67</ele><time>2010-10-10T09:07:26Z</time></trkpt><trkpt lat="43.029089" lon="0.168150"><ele>620.67</ele><time>2010-10-10T09:07:27Z</time></trkpt><trkpt lat="43.029037" lon="0.168189"><ele>621.15</ele><time>2010-10-10T09:07:28Z</time></trkpt><trkpt lat="43.028999" lon="0.168218"><ele>621.15</ele><time>2010-10-10T09:07:29Z</time></trkpt><trkpt lat="43.028971" lon="0.168238"><ele>621.63</ele><time>2010-10-10T09:07:30Z</time></trkpt><trkpt lat="43.028952" lon="0.168253"><ele>622.11</ele><time>2010-10-10T09:07:31Z</time></trkpt><trkpt lat="43.028952" lon="0.168253"><ele>622.59</ele><time>2010-10-10T09:07:45Z</time></trkpt><trkpt lat="43.028939" lon="0.168263"><ele>623.07</ele><time>2010-10-10T09:07:55Z</time></trkpt><trkpt lat="43.028921" lon="0.168276"><ele>622.59</ele><time>2010-10-10T09:07:56Z</time></trkpt><trkpt lat="43.028888" lon="0.168300"><ele>622.11</ele><time>2010-10-10T09:07:57Z</time></trkpt><trkpt lat="43.028845" lon="0.168333"><ele>622.11</ele><time>2010-10-10T09:07:58Z</time></trkpt><trkpt lat="43.028789" lon="0.168374"><ele>622.11</ele><time>2010-10-10T09:07:59Z</time></trkpt><trkpt lat="43.028171" lon="0.168821"><ele>621.63</ele><time>2010-10-10T09:08:06Z</time></trkpt><trkpt lat="43.027280" lon="0.169301"><ele>624.51</ele><time>2010-10-10T09:08:14Z</time></trkpt><trkpt lat="43.027171" lon="0.169301"><ele>624.99</ele><time>2010-10-10T09:08:15Z</time></trkpt><trkpt lat="43.027061" lon="0.169291"><ele>625.47</ele><time>2010-10-10T09:08:16Z</time></trkpt><trkpt lat="43.026957" lon="0.169263"><ele>625.96</ele><time>2010-10-10T09:08:17Z</time></trkpt><trkpt lat="43.026852" lon="0.169234"><ele>626.44</ele><time>2010-10-10T09:08:18Z</time></trkpt><trkpt lat="43.026744" lon="0.169205"><ele>627.40</ele><time>2010-10-10T09:08:19Z</time></trkpt><trkpt lat="43.025536" lon="0.168788"><ele>635.09</ele><time>2010-10-10T09:08:29Z</time></trkpt><trkpt lat="43.025057" lon="0.168592"><ele>636.05</ele><time>2010-10-10T09:08:34Z</time></trkpt><trkpt lat="43.024989" lon="0.168551"><ele>636.05</ele><time>2010-10-10T09:08:35Z</time></trkpt><trkpt lat="43.024847" lon="0.168591"><ele>636.05</ele><time>2010-10-10T09:08:36Z</time></trkpt><trkpt lat="43.024789" lon="0.168657"><ele>635.57</ele><time>2010-10-10T09:08:37Z</time></trkpt><trkpt lat="43.024726" lon="0.168728"><ele>635.57</ele><time>2010-10-10T09:08:38Z</time></trkpt><trkpt lat="43.024656" lon="0.168807"><ele>635.57</ele><time>2010-10-10T09:08:39Z</time></trkpt><trkpt lat="43.024449" lon="0.169054"><ele>635.57</ele><time>2010-10-10T09:08:42Z</time></trkpt><trkpt lat="43.024379" lon="0.169147"><ele>635.57</ele><time>2010-10-10T09:08:43Z</time></trkpt><trkpt lat="43.023831" lon="0.170267"><ele>636.05</ele><time>2010-10-10T09:08:51Z</time></trkpt><trkpt lat="43.023602" lon="0.170733"><ele>637.49</ele><time>2010-10-10T09:08:54Z</time></trkpt><trkpt lat="43.023517" lon="0.170886"><ele>637.97</ele><time>2010-10-10T09:08:55Z</time></trkpt><trkpt lat="43.023283" lon="0.171128"><ele>638.45</ele><time>2010-10-10T09:08:57Z</time></trkpt><trkpt lat="43.023162" lon="0.171242"><ele>638.93</ele><time>2010-10-10T09:08:58Z</time></trkpt><trkpt lat="43.022805" lon="0.171578"><ele>638.93</ele><time>2010-10-10T09:09:01Z</time></trkpt><trkpt lat="43.022704" lon="0.171711"><ele>638.93</ele><time>2010-10-10T09:09:02Z</time></trkpt><trkpt lat="43.021592" lon="0.173452"><ele>641.34</ele><time>2010-10-10T09:09:13Z</time></trkpt><trkpt lat="43.020611" lon="0.174443"><ele>644.22</ele><time>2010-10-10T09:09:21Z</time></trkpt><trkpt lat="43.019525" lon="0.175141"><ele>647.10</ele><time>2010-10-10T09:09:30Z</time></trkpt><trkpt lat="43.019439" lon="0.175204"><ele>647.59</ele><time>2010-10-10T09:09:31Z</time></trkpt><trkpt lat="43.019379" lon="0.175278"><ele>648.07</ele><time>2010-10-10T09:09:32Z</time></trkpt><trkpt lat="43.018998" lon="0.175726"><ele>649.51</ele><time>2010-10-10T09:09:40Z</time></trkpt><trkpt lat="43.018086" lon="0.176581"><ele>651.43</ele><time>2010-10-10T09:09:51Z</time></trkpt><trkpt lat="43.017632" lon="0.176871"><ele>652.39</ele><time>2010-10-10T09:09:58Z</time></trkpt><trkpt lat="43.017361" lon="0.177018"><ele>651.91</ele><time>2010-10-10T09:10:03Z</time></trkpt><trkpt lat="43.017319" lon="0.177041"><ele>651.91</ele><time>2010-10-10T09:10:04Z</time></trkpt><trkpt lat="43.017168" lon="0.177141"><ele>651.43</ele><time>2010-10-10T09:10:08Z</time></trkpt><trkpt lat="43.017118" lon="0.177176"><ele>651.43</ele><time>2010-10-10T09:10:09Z</time></trkpt><trkpt lat="43.017065" lon="0.177214"><ele>651.43</ele><time>2010-10-10T09:10:10Z</time></trkpt><trkpt lat="43.016877" lon="0.177346"><ele>650.47</ele><time>2010-10-10T09:10:13Z</time></trkpt><trkpt lat="43.016075" lon="0.177819"><ele>648.07</ele><time>2010-10-10T09:10:24Z</time></trkpt><trkpt lat="43.016012" lon="0.177853"><ele>647.59</ele><time>2010-10-10T09:10:25Z</time></trkpt><trkpt lat="43.015950" lon="0.177916"><ele>647.10</ele><time>2010-10-10T09:10:26Z</time></trkpt><trkpt lat="43.015888" lon="0.177978"><ele>647.10</ele><time>2010-10-10T09:10:27Z</time></trkpt><trkpt lat="43.015619" lon="0.178246"><ele>645.18</ele><time>2010-10-10T09:10:32Z</time></trkpt><trkpt lat="43.015572" lon="0.178289"><ele>645.18</ele><time>2010-10-10T09:10:33Z</time></trkpt><trkpt lat="43.015521" lon="0.178332"><ele>644.70</ele><time>2010-10-10T09:10:34Z</time></trkpt><trkpt lat="43.015409" lon="0.178426"><ele>643.74</ele><time>2010-10-10T09:10:36Z</time></trkpt><trkpt lat="43.014912" lon="0.178772"><ele>642.78</ele><time>2010-10-10T09:10:43Z</time></trkpt><trkpt lat="43.013972" lon="0.179552"><ele>643.74</ele><time>2010-10-10T09:10:55Z</time></trkpt><trkpt lat="43.012720" lon="0.180759"><ele>651.43</ele><time>2010-10-10T09:11:10Z</time></trkpt><trkpt lat="43.011993" lon="0.181896"><ele>658.16</ele><time>2010-10-10T09:11:20Z</time></trkpt><trkpt lat="43.010800" lon="0.183434"><ele>665.85</ele><time>2010-10-10T09:11:33Z</time></trkpt><trkpt lat="43.009450" lon="0.185234"><ele>674.02</ele><time>2010-10-10T09:11:48Z</time></trkpt><trkpt lat="43.007980" lon="0.186955"><ele>682.19</ele><time>2010-10-10T09:12:02Z</time></trkpt><trkpt lat="43.006920" lon="0.187982"><ele>688.92</ele><time>2010-10-10T09:12:13Z</time></trkpt><trkpt lat="43.006483" lon="0.188399"><ele>690.84</ele><time>2010-10-10T09:12:18Z</time></trkpt><trkpt lat="43.006400" lon="0.188477"><ele>690.84</ele><time>2010-10-10T09:12:19Z</time></trkpt><trkpt lat="43.005717" lon="0.189227"><ele>691.33</ele><time>2010-10-10T09:12:28Z</time></trkpt><trkpt lat="43.005656" lon="0.189339"><ele>691.33</ele><time>2010-10-10T09:12:29Z</time></trkpt><trkpt lat="43.005145" lon="0.190230"><ele>692.29</ele><time>2010-10-10T09:12:36Z</time></trkpt><trkpt lat="43.004206" lon="0.191459"><ele>694.21</ele><time>2010-10-10T09:12:47Z</time></trkpt><trkpt lat="43.003346" lon="0.192749"><ele>697.09</ele><time>2010-10-10T09:12:57Z</time></trkpt><trkpt lat="43.002230" lon="0.194420"><ele>704.78</ele><time>2010-10-10T09:13:11Z</time></trkpt><trkpt lat="43.001769" lon="0.195188"><ele>710.07</ele><time>2010-10-10T09:13:18Z</time></trkpt><trkpt lat="43.001733" lon="0.195287"><ele>710.55</ele><time>2010-10-10T09:13:19Z</time></trkpt><trkpt lat="43.001697" lon="0.195387"><ele>711.51</ele><time>2010-10-10T09:13:20Z</time></trkpt><trkpt lat="43.001428" lon="0.196071"><ele>713.92</ele><time>2010-10-10T09:13:26Z</time></trkpt><trkpt lat="43.001360" lon="0.196180"><ele>714.40</ele><time>2010-10-10T09:13:27Z</time></trkpt><trkpt lat="43.001290" lon="0.196291"><ele>714.88</ele><time>2010-10-10T09:13:28Z</time></trkpt><trkpt lat="43.000844" lon="0.196883"><ele>718.24</ele><time>2010-10-10T09:13:34Z</time></trkpt><trkpt lat="43.000775" lon="0.196974"><ele>719.20</ele><time>2010-10-10T09:13:35Z</time></trkpt><trkpt lat="43.000571" lon="0.197296"><ele>720.65</ele><time>2010-10-10T09:13:38Z</time></trkpt><trkpt lat="43.000539" lon="0.197424"><ele>721.13</ele><time>2010-10-10T09:13:39Z</time></trkpt><trkpt lat="43.000403" lon="0.197968"><ele>722.57</ele><time>2010-10-10T09:13:43Z</time></trkpt><trkpt lat="42.999747" lon="0.199116"><ele>723.53</ele><time>2010-10-10T09:13:52Z</time></trkpt><trkpt lat="42.998615" lon="0.201128"><ele>726.41</ele><time>2010-10-10T09:14:06Z</time></trkpt><trkpt lat="42.997388" lon="0.203257"><ele>735.07</ele><time>2010-10-10T09:14:20Z</time></trkpt><trkpt lat="42.996432" lon="0.205099"><ele>740.83</ele><time>2010-10-10T09:14:32Z</time></trkpt><trkpt lat="42.996369" lon="0.205396"><ele>741.79</ele><time>2010-10-10T09:14:34Z</time></trkpt><trkpt lat="42.996369" lon="0.205547"><ele>742.28</ele><time>2010-10-10T09:14:35Z</time></trkpt><trkpt lat="42.996369" lon="0.205701"><ele>743.24</ele><time>2010-10-10T09:14:36Z</time></trkpt><trkpt lat="42.996369" lon="0.205859"><ele>743.72</ele><time>2010-10-10T09:14:37Z</time></trkpt><trkpt lat="42.996369" lon="0.206021"><ele>744.20</ele><time>2010-10-10T09:14:38Z</time></trkpt><trkpt lat="42.996345" lon="0.206522"><ele>746.12</ele><time>2010-10-10T09:14:41Z</time></trkpt><trkpt lat="42.996333" lon="0.206675"><ele>746.60</ele><time>2010-10-10T09:14:42Z</time></trkpt><trkpt lat="42.996302" lon="0.206813"><ele>746.60</ele><time>2010-10-10T09:14:43Z</time></trkpt><trkpt lat="42.996238" lon="0.206942"><ele>747.08</ele><time>2010-10-10T09:14:44Z</time></trkpt><trkpt lat="42.996170" lon="0.207078"><ele>747.56</ele><time>2010-10-10T09:14:45Z</time></trkpt><trkpt lat="42.996035" lon="0.207575"><ele>748.52</ele><time>2010-10-10T09:14:48Z</time></trkpt><trkpt lat="42.996002" lon="0.207741"><ele>749.00</ele><time>2010-10-10T09:14:49Z</time></trkpt><trkpt lat="42.995855" lon="0.208444"><ele>749.97</ele><time>2010-10-10T09:14:53Z</time></trkpt><trkpt lat="42.995819" lon="0.208619"><ele>749.49</ele><time>2010-10-10T09:14:54Z</time></trkpt><trkpt lat="42.995733" lon="0.208748"><ele>749.49</ele><time>2010-10-10T09:14:55Z</time></trkpt><trkpt lat="42.995638" lon="0.208862"><ele>749.49</ele><time>2010-10-10T09:14:56Z</time></trkpt><trkpt lat="42.995539" lon="0.208969"><ele>749.00</ele><time>2010-10-10T09:14:57Z</time></trkpt><trkpt lat="42.995434" lon="0.209075"><ele>749.00</ele><time>2010-10-10T09:14:58Z</time></trkpt><trkpt lat="42.995329" lon="0.209180"><ele>749.00</ele><time>2010-10-10T09:14:59Z</time></trkpt><trkpt lat="42.995042" lon="0.209528"><ele>749.97</ele><time>2010-10-10T09:15:02Z</time></trkpt><trkpt lat="42.994966" lon="0.209661"><ele>750.45</ele><time>2010-10-10T09:15:03Z</time></trkpt><trkpt lat="42.994921" lon="0.209817"><ele>750.45</ele><time>2010-10-10T09:15:04Z</time></trkpt><trkpt lat="42.994882" lon="0.209977"><ele>751.41</ele><time>2010-10-10T09:15:05Z</time></trkpt><trkpt lat="42.994842" lon="0.210141"><ele>751.89</ele><time>2010-10-10T09:15:06Z</time></trkpt><trkpt lat="42.994802" lon="0.210308"><ele>752.37</ele><time>2010-10-10T09:15:07Z</time></trkpt><trkpt lat="42.994220" lon="0.212479"><ele>760.06</ele><time>2010-10-10T09:15:19Z</time></trkpt><trkpt lat="42.993688" lon="0.214081"><ele>764.39</ele><time>2010-10-10T09:15:28Z</time></trkpt><trkpt lat="42.993320" lon="0.214967"><ele>766.79</ele><time>2010-10-10T09:15:33Z</time></trkpt><trkpt lat="42.992709" lon="0.216632"><ele>773.04</ele><time>2010-10-10T09:15:43Z</time></trkpt><trkpt lat="42.992552" lon="0.218597"><ele>781.69</ele><time>2010-10-10T09:15:55Z</time></trkpt><trkpt lat="42.992507" lon="0.220330"><ele>784.09</ele><time>2010-10-10T09:16:05Z</time></trkpt><trkpt lat="42.992507" lon="0.220466"><ele>784.57</ele><time>2010-10-10T09:16:06Z</time></trkpt><trkpt lat="42.992507" lon="0.220609"><ele>784.57</ele><time>2010-10-10T09:16:07Z</time></trkpt><trkpt lat="42.992473" lon="0.220748"><ele>784.57</ele><time>2010-10-10T09:16:08Z</time></trkpt><trkpt lat="42.992433" lon="0.220892"><ele>785.05</ele><time>2010-10-10T09:16:09Z</time></trkpt><trkpt lat="42.992393" lon="0.221038"><ele>785.53</ele><time>2010-10-10T09:16:10Z</time></trkpt><trkpt lat="42.992023" lon="0.222532"><ele>788.42</ele><time>2010-10-10T09:16:20Z</time></trkpt><trkpt lat="42.991361" lon="0.224207"><ele>793.22</ele><time>2010-10-10T09:16:31Z</time></trkpt><trkpt lat="42.990754" lon="0.225255"><ele>798.51</ele><time>2010-10-10T09:16:38Z</time></trkpt><trkpt lat="42.990659" lon="0.225351"><ele>799.47</ele><time>2010-10-10T09:16:39Z</time></trkpt><trkpt lat="42.990566" lon="0.225444"><ele>800.44</ele><time>2010-10-10T09:16:40Z</time></trkpt><trkpt lat="42.990458" lon="0.225518"><ele>801.40</ele><time>2010-10-10T09:16:41Z</time></trkpt><trkpt lat="42.990350" lon="0.225576"><ele>802.36</ele><time>2010-10-10T09:16:42Z</time></trkpt><trkpt lat="42.989101" lon="0.226166"><ele>812.45</ele><time>2010-10-10T09:16:53Z</time></trkpt><trkpt lat="42.987885" lon="0.226563"><ele>822.55</ele><time>2010-10-10T09:17:04Z</time></trkpt><trkpt lat="42.987443" lon="0.226708"><ele>826.39</ele><time>2010-10-10T09:17:09Z</time></trkpt><trkpt lat="42.987370" lon="0.226749"><ele>827.35</ele><time>2010-10-10T09:17:10Z</time></trkpt><trkpt lat="42.987295" lon="0.226816"><ele>827.83</ele><time>2010-10-10T09:17:11Z</time></trkpt><trkpt lat="42.987060" lon="0.227027"><ele>829.76</ele><time>2010-10-10T09:17:14Z</time></trkpt><trkpt lat="42.986959" lon="0.227110"><ele>830.24</ele><time>2010-10-10T09:17:15Z</time></trkpt><trkpt lat="42.986855" lon="0.227129"><ele>831.68</ele><time>2010-10-10T09:17:16Z</time></trkpt><trkpt lat="42.986748" lon="0.227148"><ele>832.64</ele><time>2010-10-10T09:17:17Z</time></trkpt><trkpt lat="42.986642" lon="0.227168"><ele>833.60</ele><time>2010-10-10T09:17:18Z</time></trkpt><trkpt lat="42.985520" lon="0.227202"><ele>840.81</ele><time>2010-10-10T09:17:28Z</time></trkpt><trkpt lat="42.984871" lon="0.227365"><ele>847.54</ele><time>2010-10-10T09:17:35Z</time></trkpt><trkpt lat="42.984825" lon="0.227408"><ele>848.50</ele><time>2010-10-10T09:17:36Z</time></trkpt><trkpt lat="42.984781" lon="0.227452"><ele>849.46</ele><time>2010-10-10T09:17:37Z</time></trkpt><trkpt lat="42.984709" lon="0.227494"><ele>850.90</ele><time>2010-10-10T09:17:38Z</time></trkpt><trkpt lat="42.984709" lon="0.227494"><ele>852.35</ele><time>2010-10-10T09:17:39Z</time></trkpt><trkpt lat="42.984604" lon="0.227363"><ele>852.83</ele><time>2010-10-10T09:17:40Z</time></trkpt><trkpt lat="42.984579" lon="0.227297"><ele>853.31</ele><time>2010-10-10T09:17:41Z</time></trkpt><trkpt lat="42.984526" lon="0.227156"><ele>853.79</ele><time>2010-10-10T09:17:43Z</time></trkpt><trkpt lat="42.984485" lon="0.227135"><ele>854.27</ele><time>2010-10-10T09:17:44Z</time></trkpt><trkpt lat="42.984424" lon="0.227111"><ele>854.27</ele><time>2010-10-10T09:17:45Z</time></trkpt><trkpt lat="42.984014" lon="0.226970"><ele>856.67</ele><time>2010-10-10T09:17:50Z</time></trkpt><trkpt lat="42.983918" lon="0.226946"><ele>857.63</ele><time>2010-10-10T09:17:51Z</time></trkpt><trkpt lat="42.983818" lon="0.226921"><ele>858.11</ele><time>2010-10-10T09:17:52Z</time></trkpt><trkpt lat="42.983718" lon="0.226896"><ele>858.59</ele><time>2010-10-10T09:17:53Z</time></trkpt><trkpt lat="42.983620" lon="0.226871"><ele>859.08</ele><time>2010-10-10T09:17:54Z</time></trkpt><trkpt lat="42.983246" lon="0.226808"><ele>862.44</ele><time>2010-10-10T09:17:58Z</time></trkpt><trkpt lat="42.983149" lon="0.226808"><ele>862.92</ele><time>2010-10-10T09:17:59Z</time></trkpt><trkpt lat="42.981992" lon="0.227022"><ele>870.61</ele><time>2010-10-10T09:18:10Z</time></trkpt><trkpt lat="42.981878" lon="0.227035"><ele>871.09</ele><time>2010-10-10T09:18:11Z</time></trkpt><trkpt lat="42.980635" lon="0.227231"><ele>875.42</ele><time>2010-10-10T09:18:22Z</time></trkpt><trkpt lat="42.980533" lon="0.227284"><ele>875.90</ele><time>2010-10-10T09:18:23Z</time></trkpt><trkpt lat="42.979962" lon="0.227578"><ele>878.78</ele><time>2010-10-10T09:18:29Z</time></trkpt><trkpt lat="42.979873" lon="0.227624"><ele>879.26</ele><time>2010-10-10T09:18:30Z</time></trkpt><trkpt lat="42.979402" lon="0.227866"><ele>879.74</ele><time>2010-10-10T09:18:35Z</time></trkpt><trkpt lat="42.979304" lon="0.227896"><ele>880.22</ele><time>2010-10-10T09:18:36Z</time></trkpt><trkpt lat="42.978876" lon="0.227993"><ele>880.71</ele><time>2010-10-10T09:18:40Z</time></trkpt><trkpt lat="42.978770" lon="0.228017"><ele>881.19</ele><time>2010-10-10T09:18:41Z</time></trkpt><trkpt lat="42.978567" lon="0.228063"><ele>882.15</ele><time>2010-10-10T09:18:43Z</time></trkpt><trkpt lat="42.978471" lon="0.228085"><ele>882.63</ele><time>2010-10-10T09:18:44Z</time></trkpt><trkpt lat="42.977529" lon="0.228339"><ele>888.88</ele><time>2010-10-10T09:18:54Z</time></trkpt><trkpt lat="42.977440" lon="0.228353"><ele>889.36</ele><time>2010-10-10T09:18:55Z</time></trkpt><trkpt lat="42.976802" lon="0.228353"><ele>895.12</ele><time>2010-10-10T09:19:02Z</time></trkpt><trkpt lat="42.976719" lon="0.228335"><ele>896.09</ele><time>2010-10-10T09:19:03Z</time></trkpt><trkpt lat="42.976371" lon="0.228262"><ele>898.97</ele><time>2010-10-10T09:19:07Z</time></trkpt><trkpt lat="42.976086" lon="0.228202"><ele>898.49</ele><time>2010-10-10T09:19:10Z</time></trkpt><trkpt lat="42.975183" lon="0.228514"><ele>898.01</ele><time>2010-10-10T09:19:18Z</time></trkpt><trkpt lat="42.973675" lon="0.229653"><ele>899.45</ele><time>2010-10-10T09:19:32Z</time></trkpt><trkpt lat="42.973221" lon="0.229986"><ele>903.30</ele><time>2010-10-10T09:19:37Z</time></trkpt><trkpt lat="42.973120" lon="0.230005"><ele>903.78</ele><time>2010-10-10T09:19:38Z</time></trkpt><trkpt lat="42.973017" lon="0.230024"><ele>904.74</ele><time>2010-10-10T09:19:39Z</time></trkpt><trkpt lat="42.972129" lon="0.230189"><ele>909.06</ele><time>2010-10-10T09:19:47Z</time></trkpt><trkpt lat="42.972033" lon="0.230233"><ele>909.54</ele><time>2010-10-10T09:19:48Z</time></trkpt><trkpt lat="42.971934" lon="0.230308"><ele>910.03</ele><time>2010-10-10T09:19:49Z</time></trkpt><trkpt lat="42.971834" lon="0.230385"><ele>910.51</ele><time>2010-10-10T09:19:50Z</time></trkpt><trkpt lat="42.971734" lon="0.230462"><ele>910.99</ele><time>2010-10-10T09:19:51Z</time></trkpt><trkpt lat="42.970775" lon="0.231082"><ele>916.27</ele><time>2010-10-10T09:20:01Z</time></trkpt><trkpt lat="42.970688" lon="0.231103"><ele>917.24</ele><time>2010-10-10T09:20:02Z</time></trkpt><trkpt lat="42.970595" lon="0.231127"><ele>917.72</ele><time>2010-10-10T09:20:03Z</time></trkpt><trkpt lat="42.970491" lon="0.231137"><ele>918.20</ele><time>2010-10-10T09:20:04Z</time></trkpt><trkpt lat="42.970382" lon="0.231125"><ele>918.68</ele><time>2010-10-10T09:20:05Z</time></trkpt><trkpt lat="42.969245" lon="0.230755"><ele>925.89</ele><time>2010-10-10T09:20:15Z</time></trkpt><trkpt lat="42.968586" lon="0.230383"><ele>931.17</ele><time>2010-10-10T09:20:22Z</time></trkpt><trkpt lat="42.968482" lon="0.230344"><ele>932.14</ele><time>2010-10-10T09:20:23Z</time></trkpt><trkpt lat="42.967315" lon="0.230198"><ele>935.98</ele><time>2010-10-10T09:20:34Z</time></trkpt><trkpt lat="42.966266" lon="0.230412"><ele>935.50</ele><time>2010-10-10T09:20:44Z</time></trkpt><trkpt lat="42.964956" lon="0.230285"><ele>933.58</ele><time>2010-10-10T09:20:54Z</time></trkpt><trkpt lat="42.963442" lon="0.230322"><ele>933.10</ele><time>2010-10-10T09:21:05Z</time></trkpt><trkpt lat="42.962362" lon="0.230341"><ele>936.94</ele><time>2010-10-10T09:21:14Z</time></trkpt><trkpt lat="42.961101" lon="0.230187"><ele>946.56</ele><time>2010-10-10T09:21:26Z</time></trkpt><trkpt lat="42.960156" lon="0.230001"><ele>951.84</ele><time>2010-10-10T09:21:35Z</time></trkpt><trkpt lat="42.960079" lon="0.229946"><ele>952.32</ele><time>2010-10-10T09:21:36Z</time></trkpt><trkpt lat="42.959232" lon="0.229243"><ele>954.73</ele><time>2010-10-10T09:21:45Z</time></trkpt><trkpt lat="42.958355" lon="0.228713"><ele>956.65</ele><time>2010-10-10T09:21:54Z</time></trkpt><trkpt lat="42.957667" lon="0.228571"><ele>958.09</ele><time>2010-10-10T09:22:01Z</time></trkpt><trkpt lat="42.957571" lon="0.228523"><ele>958.09</ele><time>2010-10-10T09:22:02Z</time></trkpt><trkpt lat="42.957367" lon="0.228430"><ele>958.57</ele><time>2010-10-10T09:22:04Z</time></trkpt><trkpt lat="42.955958" lon="0.227847"><ele>965.30</ele><time>2010-10-10T09:22:17Z</time></trkpt><trkpt lat="42.955847" lon="0.227842"><ele>965.78</ele><time>2010-10-10T09:22:18Z</time></trkpt><trkpt lat="42.955738" lon="0.227850"><ele>966.74</ele><time>2010-10-10T09:22:19Z</time></trkpt><trkpt lat="42.954420" lon="0.227878"><ele>973.95</ele><time>2010-10-10T09:22:30Z</time></trkpt><trkpt lat="42.953191" lon="0.227572"><ele>980.68</ele><time>2010-10-10T09:22:40Z</time></trkpt><trkpt lat="42.952355" lon="0.227173"><ele>984.53</ele><time>2010-10-10T09:22:47Z</time></trkpt><trkpt lat="42.951289" lon="0.226357"><ele>985.97</ele><time>2010-10-10T09:22:58Z</time></trkpt><trkpt lat="42.950203" lon="0.225699"><ele>990.30</ele><time>2010-10-10T09:23:07Z</time></trkpt><trkpt lat="42.949970" lon="0.225623"><ele>992.22</ele><time>2010-10-10T09:23:09Z</time></trkpt><trkpt lat="42.949868" lon="0.225592"><ele>993.18</ele><time>2010-10-10T09:23:10Z</time></trkpt><trkpt lat="42.949775" lon="0.225563"><ele>994.14</ele><time>2010-10-10T09:23:11Z</time></trkpt><trkpt lat="42.949609" lon="0.225498"><ele>996.06</ele><time>2010-10-10T09:23:13Z</time></trkpt><trkpt lat="42.949543" lon="0.225438"><ele>997.02</ele><time>2010-10-10T09:23:14Z</time></trkpt><trkpt lat="42.949474" lon="0.225376"><ele>997.51</ele><time>2010-10-10T09:23:15Z</time></trkpt><trkpt lat="42.949404" lon="0.225313"><ele>998.47</ele><time>2010-10-10T09:23:16Z</time></trkpt><trkpt lat="42.949330" lon="0.225246"><ele>999.43</ele><time>2010-10-10T09:23:17Z</time></trkpt><trkpt lat="42.949184" lon="0.225092"><ele>1000.87</ele><time>2010-10-10T09:23:19Z</time></trkpt><trkpt lat="42.949130" lon="0.224984"><ele>1001.83</ele><time>2010-10-10T09:23:20Z</time></trkpt><trkpt lat="42.949075" lon="0.224873"><ele>1002.31</ele><time>2010-10-10T09:23:21Z</time></trkpt><trkpt lat="42.948964" lon="0.224670"><ele>1003.27</ele><time>2010-10-10T09:23:23Z</time></trkpt><trkpt lat="42.948908" lon="0.224595"><ele>1003.75</ele><time>2010-10-10T09:23:24Z</time></trkpt><trkpt lat="42.948858" lon="0.224531"><ele>1004.23</ele><time>2010-10-10T09:23:25Z</time></trkpt><trkpt lat="42.948796" lon="0.224510"><ele>1005.20</ele><time>2010-10-10T09:23:26Z</time></trkpt><trkpt lat="42.948730" lon="0.224487"><ele>1005.68</ele><time>2010-10-10T09:23:27Z</time></trkpt><trkpt lat="42.948660" lon="0.224462"><ele>1006.16</ele><time>2010-10-10T09:23:28Z</time></trkpt><trkpt lat="42.948585" lon="0.224435"><ele>1007.12</ele><time>2010-10-10T09:23:29Z</time></trkpt><trkpt lat="42.948425" lon="0.224379"><ele>1008.56</ele><time>2010-10-10T09:23:31Z</time></trkpt><trkpt lat="42.948248" lon="0.224317"><ele>1009.52</ele><time>2010-10-10T09:23:33Z</time></trkpt><trkpt lat="42.947355" lon="0.223630"><ele>1013.37</ele><time>2010-10-10T09:23:42Z</time></trkpt><trkpt lat="42.947194" lon="0.223439"><ele>1014.33</ele><time>2010-10-10T09:23:44Z</time></trkpt><trkpt lat="42.947117" lon="0.223349"><ele>1014.81</ele><time>2010-10-10T09:23:45Z</time></trkpt><trkpt lat="42.947055" lon="0.223230"><ele>1015.29</ele><time>2010-10-10T09:23:46Z</time></trkpt><trkpt lat="42.946836" lon="0.222762"><ele>1016.73</ele><time>2010-10-10T09:23:50Z</time></trkpt><trkpt lat="42.946789" lon="0.222630"><ele>1017.21</ele><time>2010-10-10T09:23:51Z</time></trkpt><trkpt lat="42.946760" lon="0.222495"><ele>1018.17</ele><time>2010-10-10T09:23:52Z</time></trkpt><trkpt lat="42.946574" lon="0.221683"><ele>1023.46</ele><time>2010-10-10T09:23:58Z</time></trkpt><trkpt lat="42.946506" lon="0.221588"><ele>1024.42</ele><time>2010-10-10T09:23:59Z</time></trkpt><trkpt lat="42.946439" lon="0.221494"><ele>1025.38</ele><time>2010-10-10T09:24:00Z</time></trkpt><trkpt lat="42.946377" lon="0.221406"><ele>1026.34</ele><time>2010-10-10T09:24:01Z</time></trkpt><trkpt lat="42.946296" lon="0.221365"><ele>1027.31</ele><time>2010-10-10T09:24:02Z</time></trkpt><trkpt lat="42.946211" lon="0.221325"><ele>1027.79</ele><time>2010-10-10T09:24:03Z</time></trkpt><trkpt lat="42.946125" lon="0.221286"><ele>1028.75</ele><time>2010-10-10T09:24:04Z</time></trkpt><trkpt lat="42.946039" lon="0.221246"><ele>1029.71</ele><time>2010-10-10T09:24:05Z</time></trkpt><trkpt lat="42.945954" lon="0.221207"><ele>1030.67</ele><time>2010-10-10T09:24:06Z</time></trkpt><trkpt lat="42.945871" lon="0.221169"><ele>1031.63</ele><time>2010-10-10T09:24:07Z</time></trkpt><trkpt lat="42.945794" lon="0.221122"><ele>1032.59</ele><time>2010-10-10T09:24:08Z</time></trkpt><trkpt lat="42.945726" lon="0.221054"><ele>1033.55</ele><time>2010-10-10T09:24:09Z</time></trkpt><trkpt lat="42.945661" lon="0.220990"><ele>1034.04</ele><time>2010-10-10T09:24:10Z</time></trkpt><trkpt lat="42.945606" lon="0.220902"><ele>1034.52</ele><time>2010-10-10T09:24:11Z</time></trkpt><trkpt lat="42.945557" lon="0.220810"><ele>1035.48</ele><time>2010-10-10T09:24:12Z</time></trkpt><trkpt lat="42.945278" lon="0.220301"><ele>1040.28</ele><time>2010-10-10T09:24:17Z</time></trkpt><trkpt lat="42.945212" lon="0.220217"><ele>1040.76</ele><time>2010-10-10T09:24:18Z</time></trkpt><trkpt lat="42.945147" lon="0.220136"><ele>1041.73</ele><time>2010-10-10T09:24:19Z</time></trkpt><trkpt lat="42.944394" lon="0.219495"><ele>1050.38</ele><time>2010-10-10T09:24:29Z</time></trkpt><trkpt lat="42.943646" lon="0.218528"><ele>1059.51</ele><time>2010-10-10T09:24:40Z</time></trkpt><trkpt lat="42.942791" lon="0.217467"><ele>1069.60</ele><time>2010-10-10T09:24:51Z</time></trkpt><trkpt lat="42.942547" lon="0.217139"><ele>1072.97</ele><time>2010-10-10T09:24:54Z</time></trkpt><trkpt lat="42.942228" lon="0.216569"><ele>1078.26</ele><time>2010-10-10T09:24:59Z</time></trkpt><trkpt lat="42.942161" lon="0.216502"><ele>1078.74</ele><time>2010-10-10T09:25:00Z</time></trkpt><trkpt lat="42.942101" lon="0.216442"><ele>1079.70</ele><time>2010-10-10T09:25:01Z</time></trkpt><trkpt lat="42.941934" lon="0.216245"><ele>1081.62</ele><time>2010-10-10T09:25:04Z</time></trkpt><trkpt lat="42.941901" lon="0.216157"><ele>1082.58</ele><time>2010-10-10T09:25:05Z</time></trkpt><trkpt lat="42.941867" lon="0.216067"><ele>1083.06</ele><time>2010-10-10T09:25:06Z</time></trkpt><trkpt lat="42.941671" lon="0.215552"><ele>1086.91</ele><time>2010-10-10T09:25:11Z</time></trkpt><trkpt lat="42.941418" lon="0.214968"><ele>1091.23</ele><time>2010-10-10T09:25:16Z</time></trkpt><trkpt lat="42.941343" lon="0.214871"><ele>1092.20</ele><time>2010-10-10T09:25:17Z</time></trkpt><trkpt lat="42.941267" lon="0.214772"><ele>1092.68</ele><time>2010-10-10T09:25:18Z</time></trkpt><trkpt lat="42.940329" lon="0.213556"><ele>1104.69</ele><time>2010-10-10T09:25:30Z</time></trkpt><trkpt lat="42.940070" lon="0.213392"><ele>1107.10</ele><time>2010-10-10T09:25:33Z</time></trkpt><trkpt lat="42.939987" lon="0.213341"><ele>1108.06</ele><time>2010-10-10T09:25:34Z</time></trkpt><trkpt lat="42.939654" lon="0.213094"><ele>1110.94</ele><time>2010-10-10T09:25:38Z</time></trkpt><trkpt lat="42.939573" lon="0.213012"><ele>1111.90</ele><time>2010-10-10T09:25:39Z</time></trkpt><trkpt lat="42.939486" lon="0.212926"><ele>1112.38</ele><time>2010-10-10T09:25:40Z</time></trkpt><trkpt lat="42.939397" lon="0.212837"><ele>1113.34</ele><time>2010-10-10T09:25:41Z</time></trkpt><trkpt lat="42.939309" lon="0.212737"><ele>1114.31</ele><time>2010-10-10T09:25:42Z</time></trkpt><trkpt lat="42.939219" lon="0.212633"><ele>1114.79</ele><time>2010-10-10T09:25:43Z</time></trkpt><trkpt lat="42.939131" lon="0.212529"><ele>1115.75</ele><time>2010-10-10T09:25:44Z</time></trkpt><trkpt lat="42.939061" lon="0.212407"><ele>1116.71</ele><time>2010-10-10T09:25:45Z</time></trkpt><trkpt lat="42.938992" lon="0.212279"><ele>1117.67</ele><time>2010-10-10T09:25:46Z</time></trkpt><trkpt lat="42.938309" lon="0.211157"><ele>1126.80</ele><time>2010-10-10T09:25:55Z</time></trkpt><trkpt lat="42.938068" lon="0.210834"><ele>1129.21</ele><time>2010-10-10T09:25:58Z</time></trkpt><trkpt lat="42.937986" lon="0.210735"><ele>1130.17</ele><time>2010-10-10T09:25:59Z</time></trkpt><trkpt lat="42.937897" lon="0.210628"><ele>1130.65</ele><time>2010-10-10T09:26:00Z</time></trkpt><trkpt lat="42.937805" lon="0.210518"><ele>1131.61</ele><time>2010-10-10T09:26:01Z</time></trkpt><trkpt lat="42.937718" lon="0.210413"><ele>1132.57</ele><time>2010-10-10T09:26:02Z</time></trkpt><trkpt lat="42.937629" lon="0.210307"><ele>1133.53</ele><time>2010-10-10T09:26:03Z</time></trkpt><trkpt lat="42.937539" lon="0.210185"><ele>1134.97</ele><time>2010-10-10T09:26:04Z</time></trkpt><trkpt lat="42.937461" lon="0.210063"><ele>1135.94</ele><time>2010-10-10T09:26:05Z</time></trkpt><trkpt lat="42.937389" lon="0.209949"><ele>1136.90</ele><time>2010-10-10T09:26:06Z</time></trkpt><trkpt lat="42.937240" lon="0.209736"><ele>1138.82</ele><time>2010-10-10T09:26:08Z</time></trkpt><trkpt lat="42.937154" lon="0.209650"><ele>1140.26</ele><time>2010-10-10T09:26:09Z</time></trkpt><trkpt lat="42.937057" lon="0.209575"><ele>1141.70</ele><time>2010-10-10T09:26:10Z</time></trkpt><trkpt lat="42.936956" lon="0.209525"><ele>1142.66</ele><time>2010-10-10T09:26:11Z</time></trkpt><trkpt lat="42.936855" lon="0.209474"><ele>1144.11</ele><time>2010-10-10T09:26:12Z</time></trkpt><trkpt lat="42.936613" lon="0.209243"><ele>1147.95</ele><time>2010-10-10T09:26:15Z</time></trkpt><trkpt lat="42.936583" lon="0.209179"><ele>1148.91</ele><time>2010-10-10T09:26:16Z</time></trkpt><trkpt lat="42.936570" lon="0.209091"><ele>1150.35</ele><time>2010-10-10T09:26:17Z</time></trkpt><trkpt lat="42.936557" lon="0.208994"><ele>1151.80</ele><time>2010-10-10T09:26:18Z</time></trkpt><trkpt lat="42.936542" lon="0.208889"><ele>1152.76</ele><time>2010-10-10T09:26:19Z</time></trkpt><trkpt lat="42.936526" lon="0.208777"><ele>1153.72</ele><time>2010-10-10T09:26:20Z</time></trkpt><trkpt lat="42.936512" lon="0.208679"><ele>1154.20</ele><time>2010-10-10T09:26:21Z</time></trkpt><trkpt lat="42.936438" lon="0.208611"><ele>1155.16</ele><time>2010-10-10T09:26:22Z</time></trkpt><trkpt lat="42.936389" lon="0.208611"><ele>1156.12</ele><time>2010-10-10T09:26:23Z</time></trkpt><trkpt lat="42.936355" lon="0.208625"><ele>1157.08</ele><time>2010-10-10T09:26:24Z</time></trkpt><trkpt lat="42.936311" lon="0.208656"><ele>1158.05</ele><time>2010-10-10T09:26:25Z</time></trkpt><trkpt lat="42.936255" lon="0.208696"><ele>1159.01</ele><time>2010-10-10T09:26:26Z</time></trkpt><trkpt lat="42.936066" lon="0.208824"><ele>1161.89</ele><time>2010-10-10T09:26:29Z</time></trkpt><trkpt lat="42.936005" lon="0.208809"><ele>1162.37</ele><time>2010-10-10T09:26:30Z</time></trkpt><trkpt lat="42.935939" lon="0.208792"><ele>1163.33</ele><time>2010-10-10T09:26:31Z</time></trkpt><trkpt lat="42.935876" lon="0.208743"><ele>1163.81</ele><time>2010-10-10T09:26:32Z</time></trkpt><trkpt lat="42.935830" lon="0.208668"><ele>1164.77</ele><time>2010-10-10T09:26:33Z</time></trkpt><trkpt lat="42.935786" lon="0.208599"><ele>1165.26</ele><time>2010-10-10T09:26:34Z</time></trkpt><trkpt lat="42.935750" lon="0.208542"><ele>1166.22</ele><time>2010-10-10T09:26:35Z</time></trkpt><trkpt lat="42.935701" lon="0.208463"><ele>1167.66</ele><time>2010-10-10T09:26:37Z</time></trkpt><trkpt lat="42.935682" lon="0.208438"><ele>1168.14</ele><time>2010-10-10T09:26:38Z</time></trkpt><trkpt lat="42.935255" lon="0.208266"><ele>1171.50</ele><time>2010-10-10T09:26:44Z</time></trkpt><trkpt lat="42.935170" lon="0.208203"><ele>1171.98</ele><time>2010-10-10T09:26:45Z</time></trkpt><trkpt lat="42.935089" lon="0.208142"><ele>1172.47</ele><time>2010-10-10T09:26:46Z</time></trkpt><trkpt lat="42.935046" lon="0.208053"><ele>1172.95</ele><time>2010-10-10T09:26:47Z</time></trkpt><trkpt lat="42.934996" lon="0.207943"><ele>1173.43</ele><time>2010-10-10T09:26:48Z</time></trkpt><trkpt lat="42.934943" lon="0.207826"><ele>1173.91</ele><time>2010-10-10T09:26:49Z</time></trkpt><trkpt lat="42.934831" lon="0.207594"><ele>1174.87</ele><time>2010-10-10T09:26:51Z</time></trkpt><trkpt lat="42.934767" lon="0.207480"><ele>1175.83</ele><time>2010-10-10T09:26:52Z</time></trkpt><trkpt lat="42.934703" lon="0.207364"><ele>1176.79</ele><time>2010-10-10T09:26:53Z</time></trkpt><trkpt lat="42.934142" lon="0.206766"><ele>1182.08</ele><time>2010-10-10T09:26:59Z</time></trkpt><trkpt lat="42.934092" lon="0.206659"><ele>1183.04</ele><time>2010-10-10T09:27:00Z</time></trkpt><trkpt lat="42.934032" lon="0.206531"><ele>1184.00</ele><time>2010-10-10T09:27:01Z</time></trkpt><trkpt lat="42.933919" lon="0.206288"><ele>1185.92</ele><time>2010-10-10T09:27:03Z</time></trkpt><trkpt lat="42.933867" lon="0.206178"><ele>1186.40</ele><time>2010-10-10T09:27:04Z</time></trkpt><trkpt lat="42.933808" lon="0.206089"><ele>1187.37</ele><time>2010-10-10T09:27:05Z</time></trkpt><trkpt lat="42.933734" lon="0.206015"><ele>1188.33</ele><time>2010-10-10T09:27:06Z</time></trkpt><trkpt lat="42.933660" lon="0.205941"><ele>1188.81</ele><time>2010-10-10T09:27:07Z</time></trkpt><trkpt lat="42.933588" lon="0.205869"><ele>1189.77</ele><time>2010-10-10T09:27:08Z</time></trkpt><trkpt lat="42.932698" lon="0.204979"><ele>1200.34</ele><time>2010-10-10T09:27:19Z</time></trkpt><trkpt lat="42.932401" lon="0.204699"><ele>1203.71</ele><time>2010-10-10T09:27:22Z</time></trkpt><trkpt lat="42.931529" lon="0.204051"><ele>1213.80</ele><time>2010-10-10T09:27:31Z</time></trkpt><trkpt lat="42.930848" lon="0.203428"><ele>1221.01</ele><time>2010-10-10T09:27:41Z</time></trkpt><trkpt lat="42.930223" lon="0.202419"><ele>1229.18</ele><time>2010-10-10T09:27:50Z</time></trkpt><trkpt lat="42.930038" lon="0.202249"><ele>1231.11</ele><time>2010-10-10T09:27:52Z</time></trkpt><trkpt lat="42.929944" lon="0.202176"><ele>1232.07</ele><time>2010-10-10T09:27:53Z</time></trkpt><trkpt lat="42.929039" lon="0.201472"><ele>1240.72</ele><time>2010-10-10T09:28:03Z</time></trkpt><trkpt lat="42.928882" lon="0.201335"><ele>1241.68</ele><time>2010-10-10T09:28:05Z</time></trkpt><trkpt lat="42.928806" lon="0.201259"><ele>1242.64</ele><time>2010-10-10T09:28:06Z</time></trkpt><trkpt lat="42.928729" lon="0.201181"><ele>1243.12</ele><time>2010-10-10T09:28:07Z</time></trkpt><trkpt lat="42.928657" lon="0.201092"><ele>1244.08</ele><time>2010-10-10T09:28:08Z</time></trkpt><trkpt lat="42.928591" lon="0.200993"><ele>1244.56</ele><time>2010-10-10T09:28:09Z</time></trkpt><trkpt lat="42.927567" lon="0.199597"><ele>1258.02</ele><time>2010-10-10T09:28:23Z</time></trkpt><trkpt lat="42.927142" lon="0.199030"><ele>1264.75</ele><time>2010-10-10T09:28:30Z</time></trkpt><trkpt lat="42.927106" lon="0.198927"><ele>1265.23</ele><time>2010-10-10T09:28:31Z</time></trkpt><trkpt lat="42.927069" lon="0.198824"><ele>1266.19</ele><time>2010-10-10T09:28:32Z</time></trkpt><trkpt lat="42.926993" lon="0.198612"><ele>1268.12</ele><time>2010-10-10T09:28:34Z</time></trkpt><trkpt lat="42.926956" lon="0.198509"><ele>1268.60</ele><time>2010-10-10T09:28:35Z</time></trkpt><trkpt lat="42.926916" lon="0.198425"><ele>1269.56</ele><time>2010-10-10T09:28:36Z</time></trkpt><trkpt lat="42.926855" lon="0.198364"><ele>1270.52</ele><time>2010-10-10T09:28:37Z</time></trkpt><trkpt lat="42.926794" lon="0.198302"><ele>1271.48</ele><time>2010-10-10T09:28:38Z</time></trkpt><trkpt lat="42.926358" lon="0.197756"><ele>1277.73</ele><time>2010-10-10T09:28:45Z</time></trkpt><trkpt lat="42.926323" lon="0.197665"><ele>1278.69</ele><time>2010-10-10T09:28:46Z</time></trkpt><trkpt lat="42.926288" lon="0.197574"><ele>1279.17</ele><time>2010-10-10T09:28:47Z</time></trkpt><trkpt lat="42.926218" lon="0.197391"><ele>1281.09</ele><time>2010-10-10T09:28:49Z</time></trkpt><trkpt lat="42.926183" lon="0.197301"><ele>1282.06</ele><time>2010-10-10T09:28:50Z</time></trkpt><trkpt lat="42.926128" lon="0.197207"><ele>1283.02</ele><time>2010-10-10T09:28:51Z</time></trkpt><trkpt lat="42.926072" lon="0.197152"><ele>1283.50</ele><time>2010-10-10T09:28:52Z</time></trkpt><trkpt lat="42.926014" lon="0.197102"><ele>1284.46</ele><time>2010-10-10T09:28:53Z</time></trkpt><trkpt lat="42.925958" lon="0.197074"><ele>1284.94</ele><time>2010-10-10T09:28:54Z</time></trkpt><trkpt lat="42.925890" lon="0.197081"><ele>1285.90</ele><time>2010-10-10T09:28:55Z</time></trkpt><trkpt lat="42.925832" lon="0.197095"><ele>1286.38</ele><time>2010-10-10T09:28:56Z</time></trkpt><trkpt lat="42.925758" lon="0.197130"><ele>1286.86</ele><time>2010-10-10T09:28:57Z</time></trkpt><trkpt lat="42.925708" lon="0.197198"><ele>1287.34</ele><time>2010-10-10T09:28:58Z</time></trkpt><trkpt lat="42.925654" lon="0.197269"><ele>1287.82</ele><time>2010-10-10T09:28:59Z</time></trkpt><trkpt lat="42.925590" lon="0.197312"><ele>1288.30</ele><time>2010-10-10T09:29:00Z</time></trkpt><trkpt lat="42.925514" lon="0.197354"><ele>1288.78</ele><time>2010-10-10T09:29:01Z</time></trkpt><trkpt lat="42.925438" lon="0.197396"><ele>1288.78</ele><time>2010-10-10T09:29:02Z</time></trkpt><trkpt lat="42.925359" lon="0.197441"><ele>1289.27</ele><time>2010-10-10T09:29:03Z</time></trkpt><trkpt lat="42.925109" lon="0.197541"><ele>1291.19</ele><time>2010-10-10T09:29:06Z</time></trkpt><trkpt lat="42.925028" lon="0.197565"><ele>1291.67</ele><time>2010-10-10T09:29:07Z</time></trkpt><trkpt lat="42.924881" lon="0.197609"><ele>1293.11</ele><time>2010-10-10T09:29:09Z</time></trkpt><trkpt lat="42.924817" lon="0.197646"><ele>1293.59</ele><time>2010-10-10T09:29:10Z</time></trkpt><trkpt lat="42.924773" lon="0.197718"><ele>1294.07</ele><time>2010-10-10T09:29:11Z</time></trkpt><trkpt lat="42.924725" lon="0.197799"><ele>1294.55</ele><time>2010-10-10T09:29:12Z</time></trkpt><trkpt lat="42.924702" lon="0.197897"><ele>1295.03</ele><time>2010-10-10T09:29:13Z</time></trkpt><trkpt lat="42.924704" lon="0.198011"><ele>1295.51</ele><time>2010-10-10T09:29:14Z</time></trkpt><trkpt lat="42.924707" lon="0.198130"><ele>1296.48</ele><time>2010-10-10T09:29:15Z</time></trkpt><trkpt lat="42.924710" lon="0.198246"><ele>1296.48</ele><time>2010-10-10T09:29:16Z</time></trkpt><trkpt lat="42.924713" lon="0.198372"><ele>1296.96</ele><time>2010-10-10T09:29:17Z</time></trkpt><trkpt lat="42.924717" lon="0.198508"><ele>1297.92</ele><time>2010-10-10T09:29:18Z</time></trkpt><trkpt lat="42.924720" lon="0.198647"><ele>1298.40</ele><time>2010-10-10T09:29:19Z</time></trkpt><trkpt lat="42.924723" lon="0.198791"><ele>1298.88</ele><time>2010-10-10T09:29:20Z</time></trkpt><trkpt lat="42.924727" lon="0.198943"><ele>1299.84</ele><time>2010-10-10T09:29:21Z</time></trkpt><trkpt lat="42.924731" lon="0.199097"><ele>1300.80</ele><time>2010-10-10T09:29:22Z</time></trkpt><trkpt lat="42.924735" lon="0.199249"><ele>1301.28</ele><time>2010-10-10T09:29:23Z</time></trkpt><trkpt lat="42.924605" lon="0.200759"><ele>1310.41</ele><time>2010-10-10T09:29:33Z</time></trkpt><trkpt lat="42.924588" lon="0.200907"><ele>1311.38</ele><time>2010-10-10T09:29:34Z</time></trkpt><trkpt lat="42.924413" lon="0.202014"><ele>1318.10</ele><time>2010-10-10T09:29:41Z</time></trkpt><trkpt lat="42.924251" lon="0.202867"><ele>1323.39</ele><time>2010-10-10T09:29:47Z</time></trkpt><trkpt lat="42.924224" lon="0.203008"><ele>1324.35</ele><time>2010-10-10T09:29:48Z</time></trkpt><trkpt lat="42.924187" lon="0.203154"><ele>1324.83</ele><time>2010-10-10T09:29:49Z</time></trkpt><trkpt lat="42.924150" lon="0.203302"><ele>1325.80</ele><time>2010-10-10T09:29:50Z</time></trkpt><trkpt lat="42.924089" lon="0.203452"><ele>1326.76</ele><time>2010-10-10T09:29:51Z</time></trkpt><trkpt lat="42.924025" lon="0.203594"><ele>1327.72</ele><time>2010-10-10T09:29:52Z</time></trkpt><trkpt lat="42.923832" lon="0.204025"><ele>1331.56</ele><time>2010-10-10T09:29:55Z</time></trkpt><trkpt lat="42.923499" lon="0.204684"><ele>1338.77</ele><time>2010-10-10T09:30:01Z</time></trkpt><trkpt lat="42.922987" lon="0.205483"><ele>1348.87</ele><time>2010-10-10T09:30:08Z</time></trkpt><trkpt lat="42.922927" lon="0.205595"><ele>1350.31</ele><time>2010-10-10T09:30:09Z</time></trkpt><trkpt lat="42.922835" lon="0.205677"><ele>1351.27</ele><time>2010-10-10T09:30:10Z</time></trkpt><trkpt lat="42.922745" lon="0.205716"><ele>1352.71</ele><time>2010-10-10T09:30:11Z</time></trkpt><trkpt lat="42.922654" lon="0.205755"><ele>1353.67</ele><time>2010-10-10T09:30:12Z</time></trkpt><trkpt lat="42.922562" lon="0.205794"><ele>1354.63</ele><time>2010-10-10T09:30:13Z</time></trkpt><trkpt lat="42.922468" lon="0.205835"><ele>1356.08</ele><time>2010-10-10T09:30:14Z</time></trkpt><trkpt lat="42.922281" lon="0.205925"><ele>1357.52</ele><time>2010-10-10T09:30:16Z</time></trkpt><trkpt lat="42.922201" lon="0.206010"><ele>1358.96</ele><time>2010-10-10T09:30:17Z</time></trkpt><trkpt lat="42.922120" lon="0.206095"><ele>1359.44</ele><time>2010-10-10T09:30:18Z</time></trkpt><trkpt lat="42.921621" lon="0.206623"><ele>1365.21</ele><time>2010-10-10T09:30:24Z</time></trkpt><trkpt lat="42.921522" lon="0.206703"><ele>1366.17</ele><time>2010-10-10T09:30:25Z</time></trkpt><trkpt lat="42.920475" lon="0.207276"><ele>1374.34</ele><time>2010-10-10T09:30:35Z</time></trkpt><trkpt lat="42.920272" lon="0.207436"><ele>1375.78</ele><time>2010-10-10T09:30:37Z</time></trkpt><trkpt lat="42.919260" lon="0.208235"><ele>1383.96</ele><time>2010-10-10T09:30:47Z</time></trkpt><trkpt lat="42.918896" lon="0.208460"><ele>1386.84</ele><time>2010-10-10T09:30:51Z</time></trkpt><trkpt lat="42.918748" lon="0.208528"><ele>1388.76</ele><time>2010-10-10T09:30:53Z</time></trkpt><trkpt lat="42.918681" lon="0.208534"><ele>1389.24</ele><time>2010-10-10T09:30:54Z</time></trkpt><trkpt lat="42.918616" lon="0.208539"><ele>1389.72</ele><time>2010-10-10T09:30:55Z</time></trkpt><trkpt lat="42.918553" lon="0.208544"><ele>1390.20</ele><time>2010-10-10T09:30:56Z</time></trkpt><trkpt lat="42.918486" lon="0.208550"><ele>1391.17</ele><time>2010-10-10T09:30:57Z</time></trkpt><trkpt lat="42.918417" lon="0.208556"><ele>1391.65</ele><time>2010-10-10T09:30:58Z</time></trkpt><trkpt lat="42.918343" lon="0.208562"><ele>1392.61</ele><time>2010-10-10T09:30:59Z</time></trkpt><trkpt lat="42.918267" lon="0.208568"><ele>1393.09</ele><time>2010-10-10T09:31:00Z</time></trkpt><trkpt lat="42.918222" lon="0.208605"><ele>1393.57</ele><time>2010-10-10T09:31:01Z</time></trkpt><trkpt lat="42.918161" lon="0.208658"><ele>1394.53</ele><time>2010-10-10T09:31:02Z</time></trkpt><trkpt lat="42.918093" lon="0.208717"><ele>1395.49</ele><time>2010-10-10T09:31:03Z</time></trkpt><trkpt lat="42.918024" lon="0.208778"><ele>1395.97</ele><time>2010-10-10T09:31:04Z</time></trkpt><trkpt lat="42.917951" lon="0.208842"><ele>1396.93</ele><time>2010-10-10T09:31:05Z</time></trkpt><trkpt lat="42.917879" lon="0.208905"><ele>1397.41</ele><time>2010-10-10T09:31:06Z</time></trkpt><trkpt lat="42.917805" lon="0.208969"><ele>1398.37</ele><time>2010-10-10T09:31:07Z</time></trkpt><trkpt lat="42.917252" lon="0.209453"><ele>1405.58</ele><time>2010-10-10T09:31:14Z</time></trkpt><trkpt lat="42.917194" lon="0.209493"><ele>1406.55</ele><time>2010-10-10T09:31:15Z</time></trkpt><trkpt lat="42.917135" lon="0.209528"><ele>1408.47</ele><time>2010-10-10T09:31:16Z</time></trkpt><trkpt lat="42.917088" lon="0.209557"><ele>1410.39</ele><time>2010-10-10T09:31:17Z</time></trkpt><trkpt lat="42.916948" lon="0.209243"><ele>1416.64</ele><time>2010-10-10T09:31:20Z</time></trkpt><trkpt lat="42.916986" lon="0.209206"><ele>1418.08</ele><time>2010-10-10T09:31:21Z</time></trkpt><trkpt lat="42.917036" lon="0.209157"><ele>1419.52</ele><time>2010-10-10T09:31:22Z</time></trkpt><trkpt lat="42.917100" lon="0.209095"><ele>1420.00</ele><time>2010-10-10T09:31:23Z</time></trkpt><trkpt lat="42.917787" lon="0.208427"><ele>1427.70</ele><time>2010-10-10T09:31:31Z</time></trkpt><trkpt lat="42.918617" lon="0.207554"><ele>1436.83</ele><time>2010-10-10T09:31:40Z</time></trkpt><trkpt lat="42.919471" lon="0.206472"><ele>1450.29</ele><time>2010-10-10T09:31:51Z</time></trkpt><trkpt lat="42.919611" lon="0.206294"><ele>1452.69</ele><time>2010-10-10T09:31:53Z</time></trkpt><trkpt lat="42.919742" lon="0.206108"><ele>1455.09</ele><time>2010-10-10T09:31:55Z</time></trkpt><trkpt lat="42.919802" lon="0.206011"><ele>1456.05</ele><time>2010-10-10T09:31:56Z</time></trkpt><trkpt lat="42.919864" lon="0.205912"><ele>1457.02</ele><time>2010-10-10T09:31:57Z</time></trkpt><trkpt lat="42.919928" lon="0.205836"><ele>1458.46</ele><time>2010-10-10T09:31:58Z</time></trkpt><trkpt lat="42.920011" lon="0.205767"><ele>1459.42</ele><time>2010-10-10T09:31:59Z</time></trkpt><trkpt lat="42.920096" lon="0.205697"><ele>1460.86</ele><time>2010-10-10T09:32:00Z</time></trkpt><trkpt lat="42.920177" lon="0.205628"><ele>1461.82</ele><time>2010-10-10T09:32:01Z</time></trkpt><trkpt lat="42.920489" lon="0.205327"><ele>1467.11</ele><time>2010-10-10T09:32:05Z</time></trkpt><trkpt lat="42.920628" lon="0.205138"><ele>1469.03</ele><time>2010-10-10T09:32:07Z</time></trkpt><trkpt lat="42.920700" lon="0.205040"><ele>1469.51</ele><time>2010-10-10T09:32:08Z</time></trkpt><trkpt lat="42.920930" lon="0.204728"><ele>1472.88</ele><time>2010-10-10T09:32:11Z</time></trkpt><trkpt lat="42.921075" lon="0.204509"><ele>1475.28</ele><time>2010-10-10T09:32:13Z</time></trkpt><trkpt lat="42.921587" lon="0.203610"><ele>1482.97</ele><time>2010-10-10T09:32:21Z</time></trkpt><trkpt lat="42.921624" lon="0.203489"><ele>1483.93</ele><time>2010-10-10T09:32:22Z</time></trkpt><trkpt lat="42.921658" lon="0.203376"><ele>1484.89</ele><time>2010-10-10T09:32:23Z</time></trkpt><trkpt lat="42.922048" lon="0.202158"><ele>1494.03</ele><time>2010-10-10T09:32:33Z</time></trkpt><trkpt lat="42.922098" lon="0.202034"><ele>1494.51</ele><time>2010-10-10T09:32:34Z</time></trkpt><trkpt lat="42.922149" lon="0.201909"><ele>1495.47</ele><time>2010-10-10T09:32:35Z</time></trkpt><trkpt lat="42.922200" lon="0.201783"><ele>1496.43</ele><time>2010-10-10T09:32:36Z</time></trkpt><trkpt lat="42.922423" lon="0.201200"><ele>1499.79</ele><time>2010-10-10T09:32:41Z</time></trkpt><trkpt lat="42.922414" lon="0.201107"><ele>1500.27</ele><time>2010-10-10T09:32:42Z</time></trkpt><trkpt lat="42.922404" lon="0.201012"><ele>1500.76</ele><time>2010-10-10T09:32:43Z</time></trkpt><trkpt lat="42.922394" lon="0.200907"><ele>1501.24</ele><time>2010-10-10T09:32:44Z</time></trkpt><trkpt lat="42.922383" lon="0.200801"><ele>1501.72</ele><time>2010-10-10T09:32:45Z</time></trkpt><trkpt lat="42.922372" lon="0.200688"><ele>1502.68</ele><time>2010-10-10T09:32:46Z</time></trkpt><trkpt lat="42.922006" lon="0.199436"><ele>1511.33</ele><time>2010-10-10T09:32:56Z</time></trkpt><trkpt lat="42.921229" lon="0.197700"><ele>1524.79</ele><time>2010-10-10T09:33:09Z</time></trkpt><trkpt lat="42.920537" lon="0.196209"><ele>1536.32</ele><time>2010-10-10T09:33:20Z</time></trkpt><trkpt lat="42.920520" lon="0.196165"><ele>1537.29</ele><time>2010-10-10T09:33:21Z</time></trkpt><trkpt lat="42.919866" lon="0.194450"><ele>1552.19</ele><time>2010-10-10T09:33:35Z</time></trkpt><trkpt lat="42.919722" lon="0.192744"><ele>1568.53</ele><time>2010-10-10T09:33:47Z</time></trkpt><trkpt lat="42.919534" lon="0.191464"><ele>1580.54</ele><time>2010-10-10T09:33:57Z</time></trkpt><trkpt lat="42.919247" lon="0.191092"><ele>1585.35</ele><time>2010-10-10T09:34:02Z</time></trkpt><trkpt lat="42.919187" lon="0.191021"><ele>1586.79</ele><time>2010-10-10T09:34:03Z</time></trkpt><trkpt lat="42.919126" lon="0.190948"><ele>1587.75</ele><time>2010-10-10T09:34:04Z</time></trkpt><trkpt lat="42.918120" lon="0.189789"><ele>1604.10</ele><time>2010-10-10T09:34:18Z</time></trkpt><trkpt lat="42.917272" lon="0.188932"><ele>1616.59</ele><time>2010-10-10T09:34:30Z</time></trkpt><trkpt lat="42.916574" lon="0.188340"><ele>1627.65</ele><time>2010-10-10T09:34:41Z</time></trkpt><trkpt lat="42.916461" lon="0.188227"><ele>1629.09</ele><time>2010-10-10T09:34:48Z</time></trkpt><trkpt lat="42.916427" lon="0.188193"><ele>1629.57</ele><time>2010-10-10T09:34:49Z</time></trkpt><trkpt lat="42.916391" lon="0.188157"><ele>1629.57</ele><time>2010-10-10T09:34:50Z</time></trkpt><trkpt lat="42.916329" lon="0.187972"><ele>1630.53</ele><time>2010-10-10T09:34:53Z</time></trkpt><trkpt lat="42.916213" lon="0.187609"><ele>1631.01</ele><time>2010-10-10T09:34:57Z</time></trkpt><trkpt lat="42.916186" lon="0.187561"><ele>1631.01</ele><time>2010-10-10T09:34:58Z</time></trkpt><trkpt lat="42.916144" lon="0.187485"><ele>1631.49</ele><time>2010-10-10T09:34:59Z</time></trkpt><trkpt lat="42.916004" lon="0.187267"><ele>1633.90</ele><time>2010-10-10T09:35:02Z</time></trkpt><trkpt lat="42.915945" lon="0.187233"><ele>1634.86</ele><time>2010-10-10T09:35:03Z</time></trkpt><trkpt lat="42.915891" lon="0.187202"><ele>1635.82</ele><time>2010-10-10T09:35:04Z</time></trkpt><trkpt lat="42.915831" lon="0.187168"><ele>1636.30</ele><time>2010-10-10T09:35:05Z</time></trkpt><trkpt lat="42.915770" lon="0.187133"><ele>1637.26</ele><time>2010-10-10T09:35:06Z</time></trkpt><trkpt lat="42.915716" lon="0.187113"><ele>1637.74</ele><time>2010-10-10T09:35:07Z</time></trkpt><trkpt lat="42.915657" lon="0.187118"><ele>1638.70</ele><time>2010-10-10T09:35:08Z</time></trkpt><trkpt lat="42.915596" lon="0.187125"><ele>1639.19</ele><time>2010-10-10T09:35:09Z</time></trkpt><trkpt lat="42.915533" lon="0.187131"><ele>1639.67</ele><time>2010-10-10T09:35:10Z</time></trkpt><trkpt lat="42.915470" lon="0.187137"><ele>1640.63</ele><time>2010-10-10T09:35:11Z</time></trkpt><trkpt lat="42.915288" lon="0.187150"><ele>1643.51</ele><time>2010-10-10T09:35:14Z</time></trkpt><trkpt lat="42.915233" lon="0.187134"><ele>1643.99</ele><time>2010-10-10T09:35:15Z</time></trkpt><trkpt lat="42.915175" lon="0.187117"><ele>1644.95</ele><time>2010-10-10T09:35:16Z</time></trkpt><trkpt lat="42.915117" lon="0.187101"><ele>1645.43</ele><time>2010-10-10T09:35:17Z</time></trkpt><trkpt lat="42.915064" lon="0.187086"><ele>1645.91</ele><time>2010-10-10T09:35:18Z</time></trkpt><trkpt lat="42.915014" lon="0.187071"><ele>1646.40</ele><time>2010-10-10T09:35:19Z</time></trkpt><trkpt lat="42.914960" lon="0.187033"><ele>1646.88</ele><time>2010-10-10T09:35:20Z</time></trkpt><trkpt lat="42.914904" lon="0.186987"><ele>1647.84</ele><time>2010-10-10T09:35:21Z</time></trkpt><trkpt lat="42.914734" lon="0.186845"><ele>1648.80</ele><time>2010-10-10T09:35:24Z</time></trkpt><trkpt lat="42.914682" lon="0.186802"><ele>1648.80</ele><time>2010-10-10T09:35:25Z</time></trkpt><trkpt lat="42.914633" lon="0.186761"><ele>1648.80</ele><time>2010-10-10T09:35:26Z</time></trkpt><trkpt lat="42.914588" lon="0.186723"><ele>1648.80</ele><time>2010-10-10T09:35:27Z</time></trkpt><trkpt lat="42.914545" lon="0.186687"><ele>1648.80</ele><time>2010-10-10T09:35:28Z</time></trkpt><trkpt lat="42.914464" lon="0.186637"><ele>1648.80</ele><time>2010-10-10T09:35:29Z</time></trkpt><trkpt lat="42.914405" lon="0.186634"><ele>1648.32</ele><time>2010-10-10T09:35:30Z</time></trkpt><trkpt lat="42.914337" lon="0.186630"><ele>1648.32</ele><time>2010-10-10T09:35:31Z</time></trkpt><trkpt lat="42.913985" lon="0.186611"><ele>1649.76</ele><time>2010-10-10T09:35:36Z</time></trkpt><trkpt lat="42.913903" lon="0.186606"><ele>1649.76</ele><time>2010-10-10T09:35:37Z</time></trkpt><trkpt lat="42.913753" lon="0.186598"><ele>1649.76</ele><time>2010-10-10T09:35:39Z</time></trkpt><trkpt lat="42.913714" lon="0.186596"><ele>1649.76</ele><time>2010-10-10T09:35:40Z</time></trkpt><trkpt lat="42.913709" lon="0.186587"><ele>1650.24</ele><time>2010-10-10T09:35:41Z</time></trkpt><trkpt lat="42.913690" lon="0.186549"><ele>1650.24</ele><time>2010-10-10T09:35:42Z</time></trkpt><trkpt lat="42.913666" lon="0.186499"><ele>1650.24</ele><time>2010-10-10T09:35:43Z</time></trkpt><trkpt lat="42.913641" lon="0.186450"><ele>1650.24</ele><time>2010-10-10T09:35:44Z</time></trkpt><trkpt lat="42.913618" lon="0.186405"><ele>1650.24</ele><time>2010-10-10T09:35:45Z</time></trkpt><trkpt lat="42.913593" lon="0.186354"><ele>1650.24</ele><time>2010-10-10T09:35:46Z</time></trkpt><trkpt lat="42.913566" lon="0.186301"><ele>1650.24</ele><time>2010-10-10T09:35:47Z</time></trkpt><trkpt lat="42.913518" lon="0.186203"><ele>1650.72</ele><time>2010-10-10T09:35:48Z</time></trkpt><trkpt lat="42.913484" lon="0.186136"><ele>1650.24</ele><time>2010-10-10T09:35:49Z</time></trkpt><trkpt lat="42.913432" lon="0.186032"><ele>1650.24</ele><time>2010-10-10T09:35:50Z</time></trkpt><trkpt lat="42.912986" lon="0.184840"><ele>1670.43</ele><time>2010-10-10T09:36:03Z</time></trkpt><trkpt lat="42.912953" lon="0.184791"><ele>1671.39</ele><time>2010-10-10T09:36:04Z</time></trkpt><trkpt lat="42.912639" lon="0.184390"><ele>1679.08</ele><time>2010-10-10T09:36:11Z</time></trkpt><trkpt lat="42.912568" lon="0.184364"><ele>1680.04</ele><time>2010-10-10T09:36:12Z</time></trkpt><trkpt lat="42.912497" lon="0.184337"><ele>1681.00</ele><time>2010-10-10T09:36:13Z</time></trkpt><trkpt lat="42.912427" lon="0.184311"><ele>1681.96</ele><time>2010-10-10T09:36:14Z</time></trkpt><trkpt lat="42.912356" lon="0.184284"><ele>1682.93</ele><time>2010-10-10T09:36:15Z</time></trkpt><trkpt lat="42.912309" lon="0.184282"><ele>1683.89</ele><time>2010-10-10T09:36:16Z</time></trkpt><trkpt lat="42.911798" lon="0.184139"><ele>1689.17</ele><time>2010-10-10T09:36:22Z</time></trkpt><trkpt lat="42.911740" lon="0.184071"><ele>1690.14</ele><time>2010-10-10T09:36:23Z</time></trkpt><trkpt lat="42.911679" lon="0.183999"><ele>1691.10</ele><time>2010-10-10T09:36:24Z</time></trkpt><trkpt lat="42.911620" lon="0.183931"><ele>1692.06</ele><time>2010-10-10T09:36:25Z</time></trkpt><trkpt lat="42.911562" lon="0.183863"><ele>1693.02</ele><time>2010-10-10T09:36:26Z</time></trkpt><trkpt lat="42.911350" lon="0.183557"><ele>1697.34</ele><time>2010-10-10T09:36:30Z</time></trkpt><trkpt lat="42.911304" lon="0.183472"><ele>1698.31</ele><time>2010-10-10T09:36:31Z</time></trkpt><trkpt lat="42.911258" lon="0.183387"><ele>1699.27</ele><time>2010-10-10T09:36:32Z</time></trkpt><trkpt lat="42.911212" lon="0.183304"><ele>1700.23</ele><time>2010-10-10T09:36:33Z</time></trkpt><trkpt lat="42.911169" lon="0.183212"><ele>1701.19</ele><time>2010-10-10T09:36:34Z</time></trkpt><trkpt lat="42.910856" lon="0.182311"><ele>1710.32</ele><time>2010-10-10T09:36:43Z</time></trkpt><trkpt lat="42.910812" lon="0.182229"><ele>1710.80</ele><time>2010-10-10T09:36:44Z</time></trkpt><trkpt lat="42.910387" lon="0.181453"><ele>1718.49</ele><time>2010-10-10T09:36:52Z</time></trkpt><trkpt lat="42.910260" lon="0.181009"><ele>1722.34</ele><time>2010-10-10T09:36:56Z</time></trkpt><trkpt lat="42.910066" lon="0.179674"><ele>1731.47</ele><time>2010-10-10T09:37:07Z</time></trkpt><trkpt lat="42.910078" lon="0.179573"><ele>1732.43</ele><time>2010-10-10T09:37:08Z</time></trkpt><trkpt lat="42.910116" lon="0.179485"><ele>1732.91</ele><time>2010-10-10T09:37:09Z</time></trkpt><trkpt lat="42.910152" lon="0.179400"><ele>1733.39</ele><time>2010-10-10T09:37:10Z</time></trkpt><trkpt lat="42.910186" lon="0.179321"><ele>1734.36</ele><time>2010-10-10T09:37:11Z</time></trkpt><trkpt lat="42.910230" lon="0.179265"><ele>1734.84</ele><time>2010-10-10T09:37:12Z</time></trkpt><trkpt lat="42.910288" lon="0.179208"><ele>1735.32</ele><time>2010-10-10T09:37:13Z</time></trkpt><trkpt lat="42.910353" lon="0.179161"><ele>1735.80</ele><time>2010-10-10T09:37:14Z</time></trkpt><trkpt lat="42.910423" lon="0.179135"><ele>1736.28</ele><time>2010-10-10T09:37:15Z</time></trkpt><trkpt lat="42.910660" lon="0.179049"><ele>1738.20</ele><time>2010-10-10T09:37:18Z</time></trkpt><trkpt lat="42.910901" lon="0.178912"><ele>1740.60</ele><time>2010-10-10T09:37:21Z</time></trkpt><trkpt lat="42.910963" lon="0.178861"><ele>1741.08</ele><time>2010-10-10T09:37:22Z</time></trkpt><trkpt lat="42.911020" lon="0.178812"><ele>1741.57</ele><time>2010-10-10T09:37:23Z</time></trkpt><trkpt lat="42.911067" lon="0.178637"><ele>1742.05</ele><time>2010-10-10T09:37:24Z</time></trkpt><trkpt lat="42.911076" lon="0.178538"><ele>1742.53</ele><time>2010-10-10T09:37:25Z</time></trkpt><trkpt lat="42.911084" lon="0.178442"><ele>1743.01</ele><time>2010-10-10T09:37:26Z</time></trkpt><trkpt lat="42.911093" lon="0.178345"><ele>1743.97</ele><time>2010-10-10T09:37:27Z</time></trkpt><trkpt lat="42.911088" lon="0.178227"><ele>1744.45</ele><time>2010-10-10T09:37:28Z</time></trkpt><trkpt lat="42.910898" lon="0.176943"><ele>1753.10</ele><time>2010-10-10T09:37:39Z</time></trkpt><trkpt lat="42.910550" lon="0.175761"><ele>1765.12</ele><time>2010-10-10T09:37:49Z</time></trkpt><trkpt lat="42.910454" lon="0.174173"><ele>1777.13</ele><time>2010-10-10T09:38:01Z</time></trkpt><trkpt lat="42.910229" lon="0.173367"><ele>1783.86</ele><time>2010-10-10T09:38:08Z</time></trkpt><trkpt lat="42.910195" lon="0.173220"><ele>1784.82</ele><time>2010-10-10T09:38:09Z</time></trkpt><trkpt lat="42.910195" lon="0.173106"><ele>1785.79</ele><time>2010-10-10T09:38:10Z</time></trkpt><trkpt lat="42.910213" lon="0.171825"><ele>1796.36</ele><time>2010-10-10T09:38:22Z</time></trkpt><trkpt lat="42.910220" lon="0.171677"><ele>1798.28</ele><time>2010-10-10T09:38:24Z</time></trkpt><trkpt lat="42.910223" lon="0.171602"><ele>1799.24</ele><time>2010-10-10T09:38:25Z</time></trkpt><trkpt lat="42.910213" lon="0.170515"><ele>1806.94</ele><time>2010-10-10T09:38:38Z</time></trkpt><trkpt lat="42.910222" lon="0.169431"><ele>1813.18</ele><time>2010-10-10T09:38:46Z</time></trkpt><trkpt lat="42.910182" lon="0.169326"><ele>1814.15</ele><time>2010-10-10T09:38:47Z</time></trkpt><trkpt lat="42.910142" lon="0.169219"><ele>1815.11</ele><time>2010-10-10T09:38:48Z</time></trkpt><trkpt lat="42.909772" lon="0.168239"><ele>1824.24</ele><time>2010-10-10T09:38:58Z</time></trkpt><trkpt lat="42.909740" lon="0.168154"><ele>1825.20</ele><time>2010-10-10T09:38:59Z</time></trkpt><trkpt lat="42.909708" lon="0.168071"><ele>1826.16</ele><time>2010-10-10T09:39:00Z</time></trkpt><trkpt lat="42.909679" lon="0.167994"><ele>1826.64</ele><time>2010-10-10T09:39:01Z</time></trkpt><trkpt lat="42.909651" lon="0.167919"><ele>1827.60</ele><time>2010-10-10T09:39:02Z</time></trkpt><trkpt lat="42.909601" lon="0.167788"><ele>1828.56</ele><time>2010-10-10T09:39:04Z</time></trkpt><trkpt lat="42.909481" lon="0.167366"><ele>1832.41</ele><time>2010-10-10T09:39:12Z</time></trkpt><trkpt lat="42.909470" lon="0.167290"><ele>1832.89</ele><time>2010-10-10T09:39:13Z</time></trkpt><trkpt lat="42.909428" lon="0.166216"><ele>1839.14</ele><time>2010-10-10T09:39:24Z</time></trkpt><trkpt lat="42.909536" lon="0.165184"><ele>1846.35</ele><time>2010-10-10T09:39:35Z</time></trkpt><trkpt lat="42.909586" lon="0.164823"><ele>1848.75</ele><time>2010-10-10T09:39:39Z</time></trkpt><trkpt lat="42.909626" lon="0.164324"><ele>1852.60</ele><time>2010-10-10T09:39:45Z</time></trkpt><trkpt lat="42.909619" lon="0.164244"><ele>1853.08</ele><time>2010-10-10T09:39:46Z</time></trkpt><trkpt lat="42.909574" lon="0.163731"><ele>1858.37</ele><time>2010-10-10T09:39:56Z</time></trkpt><trkpt lat="42.909496" lon="0.163337"><ele>1862.21</ele><time>2010-10-10T09:40:09Z</time></trkpt><trkpt lat="42.909325" lon="0.162944"><ele>1864.61</ele><time>2010-10-10T09:40:22Z</time></trkpt><trkpt lat="42.909110" lon="0.162446"><ele>1868.94</ele><time>2010-10-10T09:40:34Z</time></trkpt><trkpt lat="42.908886" lon="0.161775"><ele>1874.23</ele><time>2010-10-10T09:40:45Z</time></trkpt><trkpt lat="42.908657" lon="0.160528"><ele>1882.40</ele><time>2010-10-10T09:41:00Z</time></trkpt><trkpt lat="42.908500" lon="0.159879"><ele>1886.72</ele><time>2010-10-10T09:41:08Z</time></trkpt><trkpt lat="42.908484" lon="0.159812"><ele>1887.21</ele><time>2010-10-10T09:41:09Z</time></trkpt><trkpt lat="42.908224" lon="0.159091"><ele>1893.45</ele><time>2010-10-10T09:41:19Z</time></trkpt><trkpt lat="42.908181" lon="0.159034"><ele>1894.42</ele><time>2010-10-10T09:41:20Z</time></trkpt><trkpt lat="42.908139" lon="0.158978"><ele>1894.90</ele><time>2010-10-10T09:41:21Z</time></trkpt><trkpt lat="42.907533" lon="0.158012"><ele>1904.99</ele><time>2010-10-10T09:41:36Z</time></trkpt><trkpt lat="42.907476" lon="0.157859"><ele>1906.43</ele><time>2010-10-10T09:41:38Z</time></trkpt><trkpt lat="42.907447" lon="0.157782"><ele>1906.91</ele><time>2010-10-10T09:41:39Z</time></trkpt><trkpt lat="42.907418" lon="0.157704"><ele>1907.39</ele><time>2010-10-10T09:41:40Z</time></trkpt><trkpt lat="42.907378" lon="0.157620"><ele>1908.35</ele><time>2010-10-10T09:41:41Z</time></trkpt><trkpt lat="42.907340" lon="0.157550"><ele>1908.83</ele><time>2010-10-10T09:41:42Z</time></trkpt><trkpt lat="42.907269" lon="0.157419"><ele>1909.80</ele><time>2010-10-10T09:41:44Z</time></trkpt><trkpt lat="42.907236" lon="0.157358"><ele>1910.28</ele><time>2010-10-10T09:41:45Z</time></trkpt><trkpt lat="42.907203" lon="0.157298"><ele>1910.76</ele><time>2010-10-10T09:41:46Z</time></trkpt><trkpt lat="42.906764" lon="0.156362"><ele>1919.41</ele><time>2010-10-10T09:41:59Z</time></trkpt><trkpt lat="42.906675" lon="0.155951"><ele>1922.29</ele><time>2010-10-10T09:42:04Z</time></trkpt><trkpt lat="42.906662" lon="0.155869"><ele>1922.77</ele><time>2010-10-10T09:42:05Z</time></trkpt><trkpt lat="42.906608" lon="0.155549"><ele>1925.18</ele><time>2010-10-10T09:42:09Z</time></trkpt><trkpt lat="42.906596" lon="0.155476"><ele>1925.66</ele><time>2010-10-10T09:42:10Z</time></trkpt><trkpt lat="42.906504" lon="0.154560"><ele>1932.39</ele><time>2010-10-10T09:42:22Z</time></trkpt><trkpt lat="42.906621" lon="0.153931"><ele>1936.23</ele><time>2010-10-10T09:42:33Z</time></trkpt><trkpt lat="42.906679" lon="0.153894"><ele>1937.19</ele><time>2010-10-10T09:42:35Z</time></trkpt><trkpt lat="42.906706" lon="0.153894"><ele>1937.67</ele><time>2010-10-10T09:42:36Z</time></trkpt><trkpt lat="42.906730" lon="0.153894"><ele>1938.64</ele><time>2010-10-10T09:42:37Z</time></trkpt><trkpt lat="42.906782" lon="0.153956"><ele>1939.12</ele><time>2010-10-10T09:42:38Z</time></trkpt><trkpt lat="42.906798" lon="0.154004"><ele>1939.60</ele><time>2010-10-10T09:42:39Z</time></trkpt><trkpt lat="42.906789" lon="0.154098"><ele>1940.08</ele><time>2010-10-10T09:42:40Z</time></trkpt><trkpt lat="42.906776" lon="0.154166"><ele>1940.56</ele><time>2010-10-10T09:42:41Z</time></trkpt><trkpt lat="42.906761" lon="0.154239"><ele>1940.56</ele><time>2010-10-10T09:42:42Z</time></trkpt><trkpt lat="42.906746" lon="0.154315"><ele>1941.04</ele><time>2010-10-10T09:42:43Z</time></trkpt><trkpt lat="42.906733" lon="0.154540"><ele>1942.96</ele><time>2010-10-10T09:42:46Z</time></trkpt><trkpt lat="42.906745" lon="0.154608"><ele>1943.44</ele><time>2010-10-10T09:42:47Z</time></trkpt><trkpt lat="42.906756" lon="0.154677"><ele>1943.92</ele><time>2010-10-10T09:42:48Z</time></trkpt><trkpt lat="42.906774" lon="0.154734"><ele>1944.40</ele><time>2010-10-10T09:42:49Z</time></trkpt><trkpt lat="42.906804" lon="0.154794"><ele>1944.88</ele><time>2010-10-10T09:42:50Z</time></trkpt><trkpt lat="42.906835" lon="0.154857"><ele>1945.36</ele><time>2010-10-10T09:42:51Z</time></trkpt><trkpt lat="42.906871" lon="0.154917"><ele>1945.85</ele><time>2010-10-10T09:42:52Z</time></trkpt><trkpt lat="42.907349" lon="0.155398"><ele>1951.13</ele><time>2010-10-10T09:43:03Z</time></trkpt><trkpt lat="42.907387" lon="0.155434"><ele>1951.61</ele><time>2010-10-10T09:43:04Z</time></trkpt><trkpt lat="42.907424" lon="0.155468"><ele>1952.09</ele><time>2010-10-10T09:43:05Z</time></trkpt><trkpt lat="42.907460" lon="0.155502"><ele>1952.57</ele><time>2010-10-10T09:43:06Z</time></trkpt><trkpt lat="42.907494" lon="0.155533"><ele>1953.54</ele><time>2010-10-10T09:43:07Z</time></trkpt><trkpt lat="42.907603" lon="0.155631"><ele>1955.46</ele><time>2010-10-10T09:43:10Z</time></trkpt><trkpt lat="42.907994" lon="0.156107"><ele>1960.75</ele><time>2010-10-10T09:43:21Z</time></trkpt><trkpt lat="42.908028" lon="0.156137"><ele>1961.23</ele><time>2010-10-10T09:43:22Z</time></trkpt><trkpt lat="42.908064" lon="0.156155"><ele>1961.71</ele><time>2010-10-10T09:43:23Z</time></trkpt><trkpt lat="42.908167" lon="0.156206"><ele>1963.15</ele><time>2010-10-10T09:43:26Z</time></trkpt><trkpt lat="42.908326" lon="0.156212"><ele>1965.07</ele><time>2010-10-10T09:43:30Z</time></trkpt><trkpt lat="42.908370" lon="0.156212"><ele>1965.55</ele><time>2010-10-10T09:43:31Z</time></trkpt><trkpt lat="42.908414" lon="0.156212"><ele>1966.03</ele><time>2010-10-10T09:43:32Z</time></trkpt><trkpt lat="42.908451" lon="0.156222"><ele>1966.51</ele><time>2010-10-10T09:43:33Z</time></trkpt><trkpt lat="42.908492" lon="0.156250"><ele>1966.51</ele><time>2010-10-10T09:43:34Z</time></trkpt><trkpt lat="42.908535" lon="0.156278"><ele>1966.99</ele><time>2010-10-10T09:43:35Z</time></trkpt><trkpt lat="42.908756" lon="0.156399"><ele>1968.92</ele><time>2010-10-10T09:43:40Z</time></trkpt><trkpt lat="42.908895" lon="0.156405"><ele>1970.84</ele><time>2010-10-10T09:43:43Z</time></trkpt><trkpt lat="42.908930" lon="0.156381"><ele>1971.80</ele><time>2010-10-10T09:43:44Z</time></trkpt><trkpt lat="42.908966" lon="0.156356"><ele>1972.76</ele><time>2010-10-10T09:43:45Z</time></trkpt><trkpt lat="42.909005" lon="0.156329"><ele>1973.24</ele><time>2010-10-10T09:43:46Z</time></trkpt><trkpt lat="42.909045" lon="0.156301"><ele>1973.72</ele><time>2010-10-10T09:43:47Z</time></trkpt><trkpt lat="42.909086" lon="0.156273"><ele>1974.20</ele><time>2010-10-10T09:43:48Z</time></trkpt><trkpt lat="42.909128" lon="0.156244"><ele>1974.69</ele><time>2010-10-10T09:43:49Z</time></trkpt><trkpt lat="42.909459" lon="0.156034"><ele>1978.05</ele><time>2010-10-10T09:43:57Z</time></trkpt><trkpt lat="42.909809" lon="0.156126"><ele>1981.90</ele><time>2010-10-10T09:44:07Z</time></trkpt><trkpt lat="42.910125" lon="0.156149"><ele>1983.82</ele><time>2010-10-10T09:44:17Z</time></trkpt><trkpt lat="42.910119" lon="0.155811"><ele>1986.22</ele><time>2010-10-10T09:44:24Z</time></trkpt><trkpt lat="42.909977" lon="0.155640"><ele>1987.66</ele><time>2010-10-10T09:44:28Z</time></trkpt><trkpt lat="42.909929" lon="0.155605"><ele>1988.14</ele><time>2010-10-10T09:44:29Z</time></trkpt><trkpt lat="42.909880" lon="0.155568"><ele>1988.62</ele><time>2010-10-10T09:44:30Z</time></trkpt><trkpt lat="42.909636" lon="0.155385"><ele>1991.03</ele><time>2010-10-10T09:44:35Z</time></trkpt><trkpt lat="42.909585" lon="0.155336"><ele>1991.51</ele><time>2010-10-10T09:44:36Z</time></trkpt><trkpt lat="42.909551" lon="0.155275"><ele>1991.99</ele><time>2010-10-10T09:44:37Z</time></trkpt><trkpt lat="42.909160" lon="0.154674"><ele>1998.72</ele><time>2010-10-10T09:44:47Z</time></trkpt><trkpt lat="42.909119" lon="0.154643"><ele>1999.20</ele><time>2010-10-10T09:44:48Z</time></trkpt><trkpt lat="42.909081" lon="0.154615"><ele>1999.68</ele><time>2010-10-10T09:44:49Z</time></trkpt><trkpt lat="42.909045" lon="0.154588"><ele>2000.16</ele><time>2010-10-10T09:44:50Z</time></trkpt><trkpt lat="42.908989" lon="0.154581"><ele>2000.64</ele><time>2010-10-10T09:44:51Z</time></trkpt><trkpt lat="42.908851" lon="0.154581"><ele>2002.08</ele><time>2010-10-10T09:44:54Z</time></trkpt><trkpt lat="42.908805" lon="0.154570"><ele>2002.56</ele><time>2010-10-10T09:44:55Z</time></trkpt><trkpt lat="42.908767" lon="0.154545"><ele>2002.56</ele><time>2010-10-10T09:44:56Z</time></trkpt><trkpt lat="42.908728" lon="0.154519"><ele>2003.04</ele><time>2010-10-10T09:44:57Z</time></trkpt><trkpt lat="42.908685" lon="0.154476"><ele>2003.52</ele><time>2010-10-10T09:44:58Z</time></trkpt><trkpt lat="42.908665" lon="0.154422"><ele>2004.01</ele><time>2010-10-10T09:44:59Z</time></trkpt><trkpt lat="42.908643" lon="0.154365"><ele>2004.49</ele><time>2010-10-10T09:45:00Z</time></trkpt><trkpt lat="42.908620" lon="0.154306"><ele>2004.97</ele><time>2010-10-10T09:45:01Z</time></trkpt><trkpt lat="42.908410" lon="0.153663"><ele>2010.25</ele><time>2010-10-10T09:45:11Z</time></trkpt><trkpt lat="42.908395" lon="0.153604"><ele>2010.73</ele><time>2010-10-10T09:45:12Z</time></trkpt><trkpt lat="42.908400" lon="0.153543"><ele>2011.70</ele><time>2010-10-10T09:45:13Z</time></trkpt><trkpt lat="42.908408" lon="0.153486"><ele>2012.18</ele><time>2010-10-10T09:45:14Z</time></trkpt><trkpt lat="42.908416" lon="0.153429"><ele>2012.66</ele><time>2010-10-10T09:45:15Z</time></trkpt><trkpt lat="42.908433" lon="0.153309"><ele>2013.14</ele><time>2010-10-10T09:45:17Z</time></trkpt><trkpt lat="42.908451" lon="0.153249"><ele>2013.62</ele><time>2010-10-10T09:45:18Z</time></trkpt><trkpt lat="42.908472" lon="0.153188"><ele>2014.10</ele><time>2010-10-10T09:45:19Z</time></trkpt><trkpt lat="42.908517" lon="0.153061"><ele>2015.06</ele><time>2010-10-10T09:45:21Z</time></trkpt><trkpt lat="42.908539" lon="0.152998"><ele>2015.54</ele><time>2010-10-10T09:45:22Z</time></trkpt><trkpt lat="42.908795" lon="0.152151"><ele>2022.27</ele><time>2010-10-10T09:45:35Z</time></trkpt><trkpt lat="42.908928" lon="0.151507"><ele>2027.56</ele><time>2010-10-10T09:45:44Z</time></trkpt><trkpt lat="42.908940" lon="0.151449"><ele>2028.04</ele><time>2010-10-10T09:45:45Z</time></trkpt><trkpt lat="42.908985" lon="0.151233"><ele>2029.48</ele><time>2010-10-10T09:45:49Z</time></trkpt><trkpt lat="42.908993" lon="0.151188"><ele>2029.96</ele><time>2010-10-10T09:45:50Z</time></trkpt><trkpt lat="42.908736" lon="0.150276"><ele>2036.21</ele><time>2010-10-10T09:46:03Z</time></trkpt><trkpt lat="42.908659" lon="0.150003"><ele>2038.61</ele><time>2010-10-10T09:46:07Z</time></trkpt><trkpt lat="42.908640" lon="0.149933"><ele>2039.09</ele><time>2010-10-10T09:46:08Z</time></trkpt><trkpt lat="42.908620" lon="0.149862"><ele>2040.05</ele><time>2010-10-10T09:46:09Z</time></trkpt><trkpt lat="42.908607" lon="0.149816"><ele>2041.02</ele><time>2010-10-10T09:46:10Z</time></trkpt><trkpt lat="42.908615" lon="0.149746"><ele>2041.98</ele><time>2010-10-10T09:46:11Z</time></trkpt><trkpt lat="42.908629" lon="0.149606"><ele>2043.42</ele><time>2010-10-10T09:46:13Z</time></trkpt><trkpt lat="42.908688" lon="0.148998"><ele>2047.26</ele><time>2010-10-10T09:46:24Z</time></trkpt><trkpt lat="42.908447" lon="0.148868"><ele>2049.19</ele><time>2010-10-10T09:46:31Z</time></trkpt><trkpt lat="42.908074" lon="0.148839"><ele>2051.11</ele><time>2010-10-10T09:46:38Z</time></trkpt><trkpt lat="42.908020" lon="0.148835"><ele>2051.59</ele><time>2010-10-10T09:46:39Z</time></trkpt><trkpt lat="42.907968" lon="0.148831"><ele>2051.59</ele><time>2010-10-10T09:46:40Z</time></trkpt><trkpt lat="42.907917" lon="0.148815"><ele>2052.55</ele><time>2010-10-10T09:46:41Z</time></trkpt><trkpt lat="42.907865" lon="0.148798"><ele>2053.03</ele><time>2010-10-10T09:46:42Z</time></trkpt><trkpt lat="42.907766" lon="0.148765"><ele>2053.99</ele><time>2010-10-10T09:46:44Z</time></trkpt><trkpt lat="42.907715" lon="0.148748"><ele>2054.47</ele><time>2010-10-10T09:46:45Z</time></trkpt><trkpt lat="42.907675" lon="0.148745"><ele>2054.96</ele><time>2010-10-10T09:46:46Z</time></trkpt><trkpt lat="42.907632" lon="0.148745"><ele>2054.96</ele><time>2010-10-10T09:46:47Z</time></trkpt><trkpt lat="42.907589" lon="0.148745"><ele>2055.44</ele><time>2010-10-10T09:46:48Z</time></trkpt><trkpt lat="42.907418" lon="0.148745"><ele>2056.88</ele><time>2010-10-10T09:46:52Z</time></trkpt><trkpt lat="42.907377" lon="0.148725"><ele>2056.88</ele><time>2010-10-10T09:46:53Z</time></trkpt><trkpt lat="42.907341" lon="0.148700"><ele>2057.36</ele><time>2010-10-10T09:46:54Z</time></trkpt><trkpt lat="42.907306" lon="0.148676"><ele>2057.36</ele><time>2010-10-10T09:46:55Z</time></trkpt><trkpt lat="42.907268" lon="0.148650"><ele>2057.84</ele><time>2010-10-10T09:46:56Z</time></trkpt><trkpt lat="42.907229" lon="0.148624"><ele>2058.32</ele><time>2010-10-10T09:46:57Z</time></trkpt><trkpt lat="42.906591" lon="0.148247"><ele>2066.49</ele><time>2010-10-10T09:47:12Z</time></trkpt><trkpt lat="42.906481" lon="0.148232"><ele>2068.41</ele><time>2010-10-10T09:47:15Z</time></trkpt><trkpt lat="42.906442" lon="0.148236"><ele>2068.89</ele><time>2010-10-10T09:47:16Z</time></trkpt><trkpt lat="42.906401" lon="0.148241"><ele>2068.89</ele><time>2010-10-10T09:47:17Z</time></trkpt><trkpt lat="42.906357" lon="0.148246"><ele>2069.38</ele><time>2010-10-10T09:47:18Z</time></trkpt><trkpt lat="42.906312" lon="0.148251"><ele>2069.86</ele><time>2010-10-10T09:47:19Z</time></trkpt><trkpt lat="42.906267" lon="0.148256"><ele>2070.34</ele><time>2010-10-10T09:47:20Z</time></trkpt><trkpt lat="42.906138" lon="0.148270"><ele>2071.30</ele><time>2010-10-10T09:47:23Z</time></trkpt><trkpt lat="42.906113" lon="0.148270"><ele>2071.78</ele><time>2010-10-10T09:47:24Z</time></trkpt><trkpt lat="42.906080" lon="0.148254"><ele>2072.26</ele><time>2010-10-10T09:47:25Z</time></trkpt><trkpt lat="42.906050" lon="0.148238"><ele>2072.74</ele><time>2010-10-10T09:47:26Z</time></trkpt><trkpt lat="42.906032" lon="0.148230"><ele>2072.74</ele><time>2010-10-10T09:47:27Z</time></trkpt><trkpt lat="42.906032" lon="0.148198"><ele>2073.22</ele><time>2010-10-10T09:47:28Z</time></trkpt><trkpt lat="42.906032" lon="0.148153"><ele>2074.18</ele><time>2010-10-10T09:47:29Z</time></trkpt><trkpt lat="42.906032" lon="0.148108"><ele>2074.66</ele><time>2010-10-10T09:47:30Z</time></trkpt><trkpt lat="42.906032" lon="0.148063"><ele>2075.14</ele><time>2010-10-10T09:47:31Z</time></trkpt><trkpt lat="42.906081" lon="0.147990"><ele>2076.10</ele><time>2010-10-10T09:47:32Z</time></trkpt><trkpt lat="42.906134" lon="0.147964"><ele>2076.59</ele><time>2010-10-10T09:47:33Z</time></trkpt><trkpt lat="42.906187" lon="0.147938"><ele>2077.07</ele><time>2010-10-10T09:47:34Z</time></trkpt><trkpt lat="42.906245" lon="0.147919"><ele>2077.55</ele><time>2010-10-10T09:47:35Z</time></trkpt><trkpt lat="42.906494" lon="0.147857"><ele>2079.95</ele><time>2010-10-10T09:47:39Z</time></trkpt><trkpt lat="42.907283" lon="0.147623"><ele>2088.12</ele><time>2010-10-10T09:47:51Z</time></trkpt><trkpt lat="42.907332" lon="0.147573"><ele>2088.60</ele><time>2010-10-10T09:47:52Z</time></trkpt><trkpt lat="42.907383" lon="0.147523"><ele>2089.56</ele><time>2010-10-10T09:47:53Z</time></trkpt><trkpt lat="42.907433" lon="0.147472"><ele>2090.04</ele><time>2010-10-10T09:47:54Z</time></trkpt><trkpt lat="42.907482" lon="0.147423"><ele>2090.52</ele><time>2010-10-10T09:47:55Z</time></trkpt><trkpt lat="42.907530" lon="0.147376"><ele>2091.49</ele><time>2010-10-10T09:47:56Z</time></trkpt><trkpt lat="42.907578" lon="0.147327"><ele>2091.97</ele><time>2010-10-10T09:47:57Z</time></trkpt><trkpt lat="42.908233" lon="0.146496"><ele>2102.06</ele><time>2010-10-10T09:48:12Z</time></trkpt><trkpt lat="42.908506" lon="0.146133"><ele>2106.39</ele><time>2010-10-10T09:48:18Z</time></trkpt><trkpt lat="42.908582" lon="0.146032"><ele>2107.83</ele><time>2010-10-10T09:48:20Z</time></trkpt><trkpt lat="42.908607" lon="0.145956"><ele>2108.31</ele><time>2010-10-10T09:48:21Z</time></trkpt><trkpt lat="42.908604" lon="0.145892"><ele>2109.27</ele><time>2010-10-10T09:48:22Z</time></trkpt><trkpt lat="42.908593" lon="0.145831"><ele>2109.75</ele><time>2010-10-10T09:48:23Z</time></trkpt><trkpt lat="42.908583" lon="0.145769"><ele>2110.23</ele><time>2010-10-10T09:48:24Z</time></trkpt><trkpt lat="42.908573" lon="0.145709"><ele>2110.71</ele><time>2010-10-10T09:48:25Z</time></trkpt><trkpt lat="42.908558" lon="0.145643"><ele>2111.19</ele><time>2010-10-10T09:48:26Z</time></trkpt><trkpt lat="42.908479" lon="0.145484"><ele>2112.63</ele><time>2010-10-10T09:48:29Z</time></trkpt><trkpt lat="42.908455" lon="0.145437"><ele>2113.12</ele><time>2010-10-10T09:48:30Z</time></trkpt><trkpt lat="42.908313" lon="0.145205"><ele>2114.56</ele><time>2010-10-10T09:48:38Z</time></trkpt><trkpt lat="42.908285" lon="0.145067"><ele>2114.08</ele><time>2010-10-10T09:48:46Z</time></trkpt><trkpt lat="42.908285" lon="0.145067"><ele>2114.56</ele><time>2010-10-10T09:48:49Z</time></trkpt><trkpt lat="42.908285" lon="0.145067"><ele>2114.56</ele><time>2010-10-10T09:49:07Z</time></trkpt><trkpt lat="42.908285" lon="0.145067"><ele>2115.04</ele><time>2010-10-10T09:49:34Z</time></trkpt><trkpt lat="42.908285" lon="0.145067"><ele>2115.04</ele><time>2010-10-10T09:50:01Z</time></trkpt><trkpt lat="42.908286" lon="0.145064"><ele>2115.52</ele><time>2010-10-10T09:50:08Z</time></trkpt><trkpt lat="42.908286" lon="0.145064"><ele>2115.52</ele><time>2010-10-10T09:50:23Z</time></trkpt><trkpt lat="42.908286" lon="0.145064"><ele>2115.52</ele><time>2010-10-10T09:51:25Z</time></trkpt><trkpt lat="42.908286" lon="0.145064"><ele>2115.04</ele><time>2010-10-10T09:55:49Z</time></trkpt><trkpt lat="42.908286" lon="0.145064"><ele>2115.04</ele><time>2010-10-10T09:56:35Z</time></trkpt><trkpt lat="42.908286" lon="0.145064"><ele>2115.04</ele><time>2010-10-10T09:57:09Z</time></trkpt><trkpt lat="42.908286" lon="0.145064"><ele>2115.52</ele><time>2010-10-10T09:57:39Z</time></trkpt><trkpt lat="42.908286" lon="0.145064"><ele>2115.52</ele><time>2010-10-10T09:58:10Z</time></trkpt><trkpt lat="42.908286" lon="0.145064"><ele>2115.52</ele><time>2010-10-10T09:58:47Z</time></trkpt><trkpt lat="42.908286" lon="0.145064"><ele>2115.52</ele><time>2010-10-10T09:59:20Z</time></trkpt><trkpt lat="42.908286" lon="0.145064"><ele>2115.52</ele><time>2010-10-10T09:59:53Z</time></trkpt><trkpt lat="42.908286" lon="0.145064"><ele>2116.96</ele><time>2010-10-10T10:00:25Z</time></trkpt><trkpt lat="42.908286" lon="0.145064"><ele>2117.44</ele><time>2010-10-10T10:00:27Z</time></trkpt><trkpt lat="42.908221" lon="0.145097"><ele>2117.44</ele><time>2010-10-10T10:00:28Z</time></trkpt><trkpt lat="42.908221" lon="0.145097"><ele>2117.92</ele><time>2010-10-10T10:00:42Z</time></trkpt></trkseg></trk><trk><name>ACTIVE LOG: 10 окт 2010 12:01</name><trkseg><trkpt lat="42.908221" lon="0.145097"><ele>2117.92</ele><time>2010-10-10T10:01:16Z</time></trkpt><trkpt lat="42.908221" lon="0.145097"><ele>2116.48</ele><time>2010-10-10T10:01:41Z</time></trkpt><trkpt lat="42.908221" lon="0.145097"><ele>2116.96</ele><time>2010-10-10T10:02:08Z</time></trkpt><trkpt lat="42.908221" lon="0.145097"><ele>2116.96</ele><time>2010-10-10T10:02:36Z</time></trkpt><trkpt lat="42.908221" lon="0.145097"><ele>2116.96</ele><time>2010-10-10T10:02:56Z</time></trkpt><trkpt lat="42.908221" lon="0.145097"><ele>2116.48</ele><time>2010-10-10T10:03:10Z</time></trkpt><trkpt lat="42.908208" lon="0.145097"><ele>2116.96</ele><time>2010-10-10T10:03:13Z</time></trkpt><trkpt lat="42.907904" lon="0.145191"><ele>2113.12</ele><time>2010-10-10T10:03:28Z</time></trkpt><trkpt lat="42.907658" lon="0.145175"><ele>2110.71</ele><time>2010-10-10T10:03:40Z</time></trkpt><trkpt lat="42.907267" lon="0.145142"><ele>2104.46</ele><time>2010-10-10T10:03:53Z</time></trkpt><trkpt lat="42.906922" lon="0.145231"><ele>2099.66</ele><time>2010-10-10T10:04:03Z</time></trkpt><trkpt lat="42.906633" lon="0.145518"><ele>2094.37</ele><time>2010-10-10T10:04:15Z</time></trkpt><trkpt lat="42.906426" lon="0.145762"><ele>2091.00</ele><time>2010-10-10T10:04:25Z</time></trkpt><trkpt lat="42.906184" lon="0.145977"><ele>2088.12</ele><time>2010-10-10T10:04:35Z</time></trkpt><trkpt lat="42.905859" lon="0.146300"><ele>2082.83</ele><time>2010-10-10T10:04:49Z</time></trkpt><trkpt lat="42.905762" lon="0.146397"><ele>2081.39</ele><time>2010-10-10T10:04:52Z</time></trkpt><trkpt lat="42.905729" lon="0.146430"><ele>2080.91</ele><time>2010-10-10T10:04:53Z</time></trkpt><trkpt lat="42.905487" lon="0.146582"><ele>2076.59</ele><time>2010-10-10T10:05:02Z</time></trkpt><trkpt lat="42.905174" lon="0.146629"><ele>2071.78</ele><time>2010-10-10T10:05:14Z</time></trkpt><trkpt lat="42.905174" lon="0.146605"><ele>2071.30</ele><time>2010-10-10T10:05:15Z</time></trkpt><trkpt lat="42.905174" lon="0.146583"><ele>2071.30</ele><time>2010-10-10T10:05:16Z</time></trkpt><trkpt lat="42.905174" lon="0.146561"><ele>2070.82</ele><time>2010-10-10T10:05:17Z</time></trkpt><trkpt lat="42.905174" lon="0.146543"><ele>2070.82</ele><time>2010-10-10T10:05:18Z</time></trkpt><trkpt lat="42.905209" lon="0.146497"><ele>2069.86</ele><time>2010-10-10T10:05:19Z</time></trkpt><trkpt lat="42.905533" lon="0.146353"><ele>2068.41</ele><time>2010-10-10T10:05:29Z</time></trkpt><trkpt lat="42.905602" lon="0.146273"><ele>2066.97</ele><time>2010-10-10T10:05:33Z</time></trkpt><trkpt lat="42.905614" lon="0.146255"><ele>2066.97</ele><time>2010-10-10T10:05:34Z</time></trkpt><trkpt lat="42.905629" lon="0.146230"><ele>2066.49</ele><time>2010-10-10T10:05:35Z</time></trkpt><trkpt lat="42.905647" lon="0.146202"><ele>2066.49</ele><time>2010-10-10T10:05:36Z</time></trkpt><trkpt lat="42.905666" lon="0.146172"><ele>2066.49</ele><time>2010-10-10T10:05:37Z</time></trkpt><trkpt lat="42.905686" lon="0.146140"><ele>2066.49</ele><time>2010-10-10T10:05:38Z</time></trkpt><trkpt lat="42.905706" lon="0.146108"><ele>2066.01</ele><time>2010-10-10T10:05:39Z</time></trkpt><trkpt lat="42.905796" lon="0.145941"><ele>2065.53</ele><time>2010-10-10T10:05:43Z</time></trkpt><trkpt lat="42.905883" lon="0.145705"><ele>2065.53</ele><time>2010-10-10T10:05:47Z</time></trkpt><trkpt lat="42.905946" lon="0.145536"><ele>2064.57</ele><time>2010-10-10T10:05:50Z</time></trkpt><trkpt lat="42.905965" lon="0.145484"><ele>2064.09</ele><time>2010-10-10T10:05:51Z</time></trkpt><trkpt lat="42.906046" lon="0.145265"><ele>2062.17</ele><time>2010-10-10T10:05:55Z</time></trkpt><trkpt lat="42.906088" lon="0.145152"><ele>2061.20</ele><time>2010-10-10T10:05:57Z</time></trkpt><trkpt lat="42.906264" lon="0.144719"><ele>2056.88</ele><time>2010-10-10T10:06:05Z</time></trkpt><trkpt lat="42.906290" lon="0.144667"><ele>2056.40</ele><time>2010-10-10T10:06:06Z</time></trkpt><trkpt lat="42.906313" lon="0.144620"><ele>2055.44</ele><time>2010-10-10T10:06:07Z</time></trkpt><trkpt lat="42.906345" lon="0.144574"><ele>2054.96</ele><time>2010-10-10T10:06:08Z</time></trkpt><trkpt lat="42.906385" lon="0.144551"><ele>2054.96</ele><time>2010-10-10T10:06:09Z</time></trkpt><trkpt lat="42.906427" lon="0.144526"><ele>2054.47</ele><time>2010-10-10T10:06:10Z</time></trkpt><trkpt lat="42.906524" lon="0.144469"><ele>2053.51</ele><time>2010-10-10T10:06:12Z</time></trkpt><trkpt lat="42.906927" lon="0.144232"><ele>2047.75</ele><time>2010-10-10T10:06:21Z</time></trkpt><trkpt lat="42.907021" lon="0.144177"><ele>2045.82</ele><time>2010-10-10T10:06:23Z</time></trkpt><trkpt lat="42.907225" lon="0.144044"><ele>2041.02</ele><time>2010-10-10T10:06:28Z</time></trkpt><trkpt lat="42.907440" lon="0.143780"><ele>2034.77</ele><time>2010-10-10T10:06:36Z</time></trkpt><trkpt lat="42.907448" lon="0.143750"><ele>2033.81</ele><time>2010-10-10T10:06:37Z</time></trkpt><trkpt lat="42.907448" lon="0.143696"><ele>2033.33</ele><time>2010-10-10T10:06:38Z</time></trkpt><trkpt lat="42.907448" lon="0.143399"><ele>2030.92</ele><time>2010-10-10T10:06:43Z</time></trkpt><trkpt lat="42.907420" lon="0.143131"><ele>2029.48</ele><time>2010-10-10T10:06:47Z</time></trkpt><trkpt lat="42.907398" lon="0.143070"><ele>2029.48</ele><time>2010-10-10T10:06:48Z</time></trkpt><trkpt lat="42.907259" lon="0.142628"><ele>2026.60</ele><time>2010-10-10T10:06:56Z</time></trkpt><trkpt lat="42.907259" lon="0.142628"><ele>2026.12</ele><time>2010-10-10T10:06:57Z</time></trkpt><trkpt lat="42.907239" lon="0.142513"><ele>2025.64</ele><time>2010-10-10T10:06:58Z</time></trkpt><trkpt lat="42.907230" lon="0.142456"><ele>2025.64</ele><time>2010-10-10T10:06:59Z</time></trkpt><trkpt lat="42.907220" lon="0.142400"><ele>2025.15</ele><time>2010-10-10T10:07:00Z</time></trkpt><trkpt lat="42.907211" lon="0.142344"><ele>2025.15</ele><time>2010-10-10T10:07:01Z</time></trkpt><trkpt lat="42.907202" lon="0.142291"><ele>2024.67</ele><time>2010-10-10T10:07:02Z</time></trkpt><trkpt lat="42.907193" lon="0.142237"><ele>2024.19</ele><time>2010-10-10T10:07:03Z</time></trkpt><trkpt lat="42.907314" lon="0.141728"><ele>2021.79</ele><time>2010-10-10T10:07:11Z</time></trkpt><trkpt lat="42.907329" lon="0.141670"><ele>2021.31</ele><time>2010-10-10T10:07:12Z</time></trkpt><trkpt lat="42.907437" lon="0.141310"><ele>2018.43</ele><time>2010-10-10T10:07:19Z</time></trkpt><trkpt lat="42.907490" lon="0.141222"><ele>2017.46</ele><time>2010-10-10T10:07:21Z</time></trkpt><trkpt lat="42.907516" lon="0.141179"><ele>2016.98</ele><time>2010-10-10T10:07:22Z</time></trkpt><trkpt lat="42.907757" lon="0.140845"><ele>2014.58</ele><time>2010-10-10T10:07:31Z</time></trkpt><trkpt lat="42.907786" lon="0.140804"><ele>2014.10</ele><time>2010-10-10T10:07:32Z</time></trkpt><trkpt lat="42.907903" lon="0.140645"><ele>2012.18</ele><time>2010-10-10T10:07:36Z</time></trkpt><trkpt lat="42.907934" lon="0.140604"><ele>2011.70</ele><time>2010-10-10T10:07:37Z</time></trkpt><trkpt lat="42.907963" lon="0.140564"><ele>2011.70</ele><time>2010-10-10T10:07:38Z</time></trkpt><trkpt lat="42.907991" lon="0.140525"><ele>2011.22</ele><time>2010-10-10T10:07:39Z</time></trkpt><trkpt lat="42.908022" lon="0.140489"><ele>2010.73</ele><time>2010-10-10T10:07:40Z</time></trkpt><trkpt lat="42.908054" lon="0.140457"><ele>2010.25</ele><time>2010-10-10T10:07:41Z</time></trkpt><trkpt lat="42.908084" lon="0.140427"><ele>2009.77</ele><time>2010-10-10T10:07:42Z</time></trkpt><trkpt lat="42.908147" lon="0.140364"><ele>2008.81</ele><time>2010-10-10T10:07:44Z</time></trkpt><trkpt lat="42.908461" lon="0.140045"><ele>2004.49</ele><time>2010-10-10T10:07:56Z</time></trkpt><trkpt lat="42.908641" lon="0.139828"><ele>2000.64</ele><time>2010-10-10T10:08:03Z</time></trkpt><trkpt lat="42.908673" lon="0.139790"><ele>2000.16</ele><time>2010-10-10T10:08:04Z</time></trkpt><trkpt lat="42.908764" lon="0.139682"><ele>1999.20</ele><time>2010-10-10T10:08:07Z</time></trkpt><trkpt lat="42.909082" lon="0.139462"><ele>1995.35</ele><time>2010-10-10T10:08:15Z</time></trkpt><trkpt lat="42.909169" lon="0.139422"><ele>1993.43</ele><time>2010-10-10T10:08:17Z</time></trkpt><trkpt lat="42.909261" lon="0.139380"><ele>1991.51</ele><time>2010-10-10T10:08:19Z</time></trkpt><trkpt lat="42.909302" lon="0.139362"><ele>1990.55</ele><time>2010-10-10T10:08:20Z</time></trkpt><trkpt lat="42.909391" lon="0.139349"><ele>1990.07</ele><time>2010-10-10T10:08:22Z</time></trkpt><trkpt lat="42.909435" lon="0.139351"><ele>1990.07</ele><time>2010-10-10T10:08:23Z</time></trkpt><trkpt lat="42.909524" lon="0.139355"><ele>1990.07</ele><time>2010-10-10T10:08:25Z</time></trkpt><trkpt lat="42.909573" lon="0.139357"><ele>1990.07</ele><time>2010-10-10T10:08:26Z</time></trkpt><trkpt lat="42.909620" lon="0.139359"><ele>1989.59</ele><time>2010-10-10T10:08:27Z</time></trkpt><trkpt lat="42.909669" lon="0.139361"><ele>1989.59</ele><time>2010-10-10T10:08:28Z</time></trkpt><trkpt lat="42.909720" lon="0.139364"><ele>1989.10</ele><time>2010-10-10T10:08:29Z</time></trkpt><trkpt lat="42.909816" lon="0.139368"><ele>1988.62</ele><time>2010-10-10T10:08:31Z</time></trkpt><trkpt lat="42.909861" lon="0.139370"><ele>1988.62</ele><time>2010-10-10T10:08:32Z</time></trkpt><trkpt lat="42.909906" lon="0.139372"><ele>1988.62</ele><time>2010-10-10T10:08:33Z</time></trkpt><trkpt lat="42.909939" lon="0.139374"><ele>1988.14</ele><time>2010-10-10T10:08:34Z</time></trkpt><trkpt lat="42.909973" lon="0.139375"><ele>1988.14</ele><time>2010-10-10T10:08:35Z</time></trkpt><trkpt lat="42.910020" lon="0.139377"><ele>1987.18</ele><time>2010-10-10T10:08:36Z</time></trkpt><trkpt lat="42.910465" lon="0.139420"><ele>1981.90</ele><time>2010-10-10T10:08:45Z</time></trkpt><trkpt lat="42.910620" lon="0.139446"><ele>1980.45</ele><time>2010-10-10T10:08:48Z</time></trkpt><trkpt lat="42.910672" lon="0.139454"><ele>1979.97</ele><time>2010-10-10T10:08:49Z</time></trkpt><trkpt lat="42.910727" lon="0.139463"><ele>1979.49</ele><time>2010-10-10T10:08:50Z</time></trkpt><trkpt lat="42.910782" lon="0.139473"><ele>1979.49</ele><time>2010-10-10T10:08:51Z</time></trkpt><trkpt lat="42.910830" lon="0.139481"><ele>1979.01</ele><time>2010-10-10T10:08:52Z</time></trkpt><trkpt lat="42.910877" lon="0.139489"><ele>1978.53</ele><time>2010-10-10T10:08:53Z</time></trkpt><trkpt lat="42.910925" lon="0.139497"><ele>1978.05</ele><time>2010-10-10T10:08:54Z</time></trkpt><trkpt lat="42.910970" lon="0.139504"><ele>1978.05</ele><time>2010-10-10T10:08:55Z</time></trkpt><trkpt lat="42.911005" lon="0.139510"><ele>1978.05</ele><time>2010-10-10T10:08:56Z</time></trkpt><trkpt lat="42.911037" lon="0.139515"><ele>1977.57</ele><time>2010-10-10T10:08:57Z</time></trkpt><trkpt lat="42.911072" lon="0.139518"><ele>1976.61</ele><time>2010-10-10T10:08:58Z</time></trkpt><trkpt lat="42.911108" lon="0.139518"><ele>1976.13</ele><time>2010-10-10T10:08:59Z</time></trkpt><trkpt lat="42.911233" lon="0.139467"><ele>1974.20</ele><time>2010-10-10T10:09:04Z</time></trkpt><trkpt lat="42.911253" lon="0.139446"><ele>1973.72</ele><time>2010-10-10T10:09:05Z</time></trkpt><trkpt lat="42.911268" lon="0.139432"><ele>1972.76</ele><time>2010-10-10T10:09:06Z</time></trkpt><trkpt lat="42.911271" lon="0.139424"><ele>1971.80</ele><time>2010-10-10T10:09:07Z</time></trkpt><trkpt lat="42.911280" lon="0.139404"><ele>1970.84</ele><time>2010-10-10T10:09:08Z</time></trkpt><trkpt lat="42.911289" lon="0.139380"><ele>1969.88</ele><time>2010-10-10T10:09:09Z</time></trkpt><trkpt lat="42.911300" lon="0.139354"><ele>1968.92</ele><time>2010-10-10T10:09:10Z</time></trkpt><trkpt lat="42.911444" lon="0.139009"><ele>1959.30</ele><time>2010-10-10T10:09:20Z</time></trkpt><trkpt lat="42.911456" lon="0.138980"><ele>1959.30</ele><time>2010-10-10T10:09:21Z</time></trkpt><trkpt lat="42.911470" lon="0.138946"><ele>1959.30</ele><time>2010-10-10T10:09:22Z</time></trkpt><trkpt lat="42.911487" lon="0.138910"><ele>1959.30</ele><time>2010-10-10T10:09:23Z</time></trkpt><trkpt lat="42.911507" lon="0.138878"><ele>1958.82</ele><time>2010-10-10T10:09:24Z</time></trkpt><trkpt lat="42.911529" lon="0.138844"><ele>1958.82</ele><time>2010-10-10T10:09:25Z</time></trkpt><trkpt lat="42.911738" lon="0.138515"><ele>1951.61</ele><time>2010-10-10T10:09:36Z</time></trkpt><trkpt lat="42.911863" lon="0.138391"><ele>1951.13</ele><time>2010-10-10T10:09:40Z</time></trkpt><trkpt lat="42.912175" lon="0.138355"><ele>1953.06</ele><time>2010-10-10T10:09:51Z</time></trkpt><trkpt lat="42.912426" lon="0.138187"><ele>1952.09</ele><time>2010-10-10T10:10:03Z</time></trkpt><trkpt lat="42.912653" lon="0.137922"><ele>1951.61</ele><time>2010-10-10T10:10:16Z</time></trkpt><trkpt lat="42.912833" lon="0.137614"><ele>1950.17</ele><time>2010-10-10T10:10:27Z</time></trkpt><trkpt lat="42.913075" lon="0.137360"><ele>1947.77</ele><time>2010-10-10T10:10:39Z</time></trkpt><trkpt lat="42.913351" lon="0.137064"><ele>1944.40</ele><time>2010-10-10T10:10:51Z</time></trkpt><trkpt lat="42.913359" lon="0.137031"><ele>1943.92</ele><time>2010-10-10T10:10:52Z</time></trkpt><trkpt lat="42.913366" lon="0.137003"><ele>1943.44</ele><time>2010-10-10T10:10:53Z</time></trkpt><trkpt lat="42.913371" lon="0.136980"><ele>1942.96</ele><time>2010-10-10T10:10:54Z</time></trkpt><trkpt lat="42.913371" lon="0.136944"><ele>1942.96</ele><time>2010-10-10T10:10:55Z</time></trkpt><trkpt lat="42.913362" lon="0.136891"><ele>1942.48</ele><time>2010-10-10T10:10:56Z</time></trkpt><trkpt lat="42.913344" lon="0.136873"><ele>1942.00</ele><time>2010-10-10T10:10:57Z</time></trkpt><trkpt lat="42.913325" lon="0.136855"><ele>1942.00</ele><time>2010-10-10T10:10:58Z</time></trkpt><trkpt lat="42.913371" lon="0.136986"><ele>1940.56</ele><time>2010-10-10T10:11:04Z</time></trkpt><trkpt lat="42.913170" lon="0.137000"><ele>1940.08</ele><time>2010-10-10T10:11:16Z</time></trkpt><trkpt lat="42.913173" lon="0.137006"><ele>1940.08</ele><time>2010-10-10T10:12:51Z</time></trkpt><trkpt lat="42.913131" lon="0.136978"><ele>1939.60</ele><time>2010-10-10T10:12:56Z</time></trkpt><trkpt lat="42.913031" lon="0.136856"><ele>1940.08</ele><time>2010-10-10T10:13:07Z</time></trkpt><trkpt lat="42.912928" lon="0.136991"><ele>1938.64</ele><time>2010-10-10T10:13:12Z</time></trkpt><trkpt lat="42.912594" lon="0.137523"><ele>1937.19</ele><time>2010-10-10T10:13:25Z</time></trkpt><trkpt lat="42.912403" lon="0.137670"><ele>1935.75</ele><time>2010-10-10T10:13:32Z</time></trkpt><trkpt lat="42.911927" lon="0.137844"><ele>1931.91</ele><time>2010-10-10T10:13:44Z</time></trkpt><trkpt lat="42.911492" lon="0.137972"><ele>1929.02</ele><time>2010-10-10T10:13:57Z</time></trkpt><trkpt lat="42.911137" lon="0.138424"><ele>1929.02</ele><time>2010-10-10T10:14:10Z</time></trkpt><trkpt lat="42.910929" lon="0.138554"><ele>1925.66</ele><time>2010-10-10T10:14:20Z</time></trkpt><trkpt lat="42.910914" lon="0.138547"><ele>1925.18</ele><time>2010-10-10T10:14:21Z</time></trkpt><trkpt lat="42.910882" lon="0.138531"><ele>1923.74</ele><time>2010-10-10T10:14:23Z</time></trkpt><trkpt lat="42.910654" lon="0.138132"><ele>1919.41</ele><time>2010-10-10T10:14:40Z</time></trkpt><trkpt lat="42.910338" lon="0.138045"><ele>1918.93</ele><time>2010-10-10T10:14:51Z</time></trkpt><trkpt lat="42.909904" lon="0.138021"><ele>1917.97</ele><time>2010-10-10T10:15:05Z</time></trkpt><trkpt lat="42.909448" lon="0.137960"><ele>1913.64</ele><time>2010-10-10T10:15:19Z</time></trkpt><trkpt lat="42.909108" lon="0.137876"><ele>1909.32</ele><time>2010-10-10T10:15:32Z</time></trkpt><trkpt lat="42.909108" lon="0.137876"><ele>1907.87</ele><time>2010-10-10T10:15:42Z</time></trkpt><trkpt lat="42.909077" lon="0.137865"><ele>1907.87</ele><time>2010-10-10T10:15:43Z</time></trkpt><trkpt lat="42.909077" lon="0.137865"><ele>1907.39</ele><time>2010-10-10T10:15:44Z</time></trkpt><trkpt lat="42.909054" lon="0.137856"><ele>1906.91</ele><time>2010-10-10T10:15:45Z</time></trkpt><trkpt lat="42.909038" lon="0.137850"><ele>1906.91</ele><time>2010-10-10T10:15:46Z</time></trkpt><trkpt lat="42.909017" lon="0.137842"><ele>1906.43</ele><time>2010-10-10T10:15:47Z</time></trkpt><trkpt lat="42.908997" lon="0.137835"><ele>1906.43</ele><time>2010-10-10T10:15:48Z</time></trkpt><trkpt lat="42.908975" lon="0.137826"><ele>1905.95</ele><time>2010-10-10T10:15:49Z</time></trkpt><trkpt lat="42.908950" lon="0.137817"><ele>1905.95</ele><time>2010-10-10T10:15:50Z</time></trkpt><trkpt lat="42.908923" lon="0.137807"><ele>1905.47</ele><time>2010-10-10T10:15:51Z</time></trkpt><trkpt lat="42.908894" lon="0.137800"><ele>1905.47</ele><time>2010-10-10T10:15:52Z</time></trkpt><trkpt lat="42.908863" lon="0.137797"><ele>1905.47</ele><time>2010-10-10T10:15:53Z</time></trkpt><trkpt lat="42.908834" lon="0.137794"><ele>1905.47</ele><time>2010-10-10T10:15:54Z</time></trkpt><trkpt lat="42.908804" lon="0.137791"><ele>1905.47</ele><time>2010-10-10T10:15:55Z</time></trkpt><trkpt lat="42.908774" lon="0.137788"><ele>1904.99</ele><time>2010-10-10T10:15:56Z</time></trkpt><trkpt lat="42.908427" lon="0.137784"><ele>1902.59</ele><time>2010-10-10T10:16:09Z</time></trkpt><trkpt lat="42.908138" lon="0.137928"><ele>1901.14</ele><time>2010-10-10T10:16:19Z</time></trkpt><trkpt lat="42.907854" lon="0.138125"><ele>1898.74</ele><time>2010-10-10T10:16:27Z</time></trkpt><trkpt lat="42.907818" lon="0.138161"><ele>1898.74</ele><time>2010-10-10T10:16:28Z</time></trkpt><trkpt lat="42.907785" lon="0.138194"><ele>1898.26</ele><time>2010-10-10T10:16:29Z</time></trkpt><trkpt lat="42.907753" lon="0.138226"><ele>1897.78</ele><time>2010-10-10T10:16:30Z</time></trkpt><trkpt lat="42.907722" lon="0.138257"><ele>1897.78</ele><time>2010-10-10T10:16:31Z</time></trkpt><trkpt lat="42.907385" lon="0.138543"><ele>1894.42</ele><time>2010-10-10T10:16:43Z</time></trkpt><trkpt lat="42.907145" lon="0.138591"><ele>1892.49</ele><time>2010-10-10T10:16:50Z</time></trkpt><trkpt lat="42.907102" lon="0.138600"><ele>1892.01</ele><time>2010-10-10T10:16:51Z</time></trkpt><trkpt lat="42.907056" lon="0.138609"><ele>1891.53</ele><time>2010-10-10T10:16:52Z</time></trkpt><trkpt lat="42.907006" lon="0.138619"><ele>1891.05</ele><time>2010-10-10T10:16:53Z</time></trkpt><trkpt lat="42.906955" lon="0.138630"><ele>1890.57</ele><time>2010-10-10T10:16:54Z</time></trkpt><trkpt lat="42.906527" lon="0.138688"><ele>1888.65</ele><time>2010-10-10T10:17:02Z</time></trkpt><trkpt lat="42.906479" lon="0.138678"><ele>1888.65</ele><time>2010-10-10T10:17:03Z</time></trkpt><trkpt lat="42.906432" lon="0.138667"><ele>1888.17</ele><time>2010-10-10T10:17:04Z</time></trkpt><trkpt lat="42.906383" lon="0.138656"><ele>1887.69</ele><time>2010-10-10T10:17:05Z</time></trkpt><trkpt lat="42.906333" lon="0.138645"><ele>1887.69</ele><time>2010-10-10T10:17:06Z</time></trkpt><trkpt lat="42.906282" lon="0.138634"><ele>1887.21</ele><time>2010-10-10T10:17:07Z</time></trkpt><trkpt lat="42.906233" lon="0.138623"><ele>1887.21</ele><time>2010-10-10T10:17:08Z</time></trkpt><trkpt lat="42.906176" lon="0.138597"><ele>1886.72</ele><time>2010-10-10T10:17:09Z</time></trkpt><trkpt lat="42.906044" lon="0.138502"><ele>1885.28</ele><time>2010-10-10T10:17:12Z</time></trkpt><trkpt lat="42.905997" lon="0.138469"><ele>1884.80</ele><time>2010-10-10T10:17:13Z</time></trkpt><trkpt lat="42.905951" lon="0.138436"><ele>1884.32</ele><time>2010-10-10T10:17:14Z</time></trkpt><trkpt lat="42.905907" lon="0.138404"><ele>1883.84</ele><time>2010-10-10T10:17:15Z</time></trkpt><trkpt lat="42.905864" lon="0.138374"><ele>1882.88</ele><time>2010-10-10T10:17:16Z</time></trkpt><trkpt lat="42.905822" lon="0.138344"><ele>1882.40</ele><time>2010-10-10T10:17:17Z</time></trkpt><trkpt lat="42.905737" lon="0.138283"><ele>1881.44</ele><time>2010-10-10T10:17:19Z</time></trkpt><trkpt lat="42.905615" lon="0.138196"><ele>1880.00</ele><time>2010-10-10T10:17:22Z</time></trkpt><trkpt lat="42.905299" lon="0.137722"><ele>1873.27</ele><time>2010-10-10T10:17:34Z</time></trkpt><trkpt lat="42.904964" lon="0.137208"><ele>1867.02</ele><time>2010-10-10T10:17:48Z</time></trkpt><trkpt lat="42.904610" lon="0.137115"><ele>1864.13</ele><time>2010-10-10T10:17:58Z</time></trkpt><trkpt lat="42.904228" lon="0.137140"><ele>1862.69</ele><time>2010-10-10T10:18:08Z</time></trkpt><trkpt lat="42.904186" lon="0.137123"><ele>1862.69</ele><time>2010-10-10T10:18:09Z</time></trkpt><trkpt lat="42.904104" lon="0.137090"><ele>1862.21</ele><time>2010-10-10T10:18:11Z</time></trkpt><trkpt lat="42.903641" lon="0.136733"><ele>1856.92</ele><time>2010-10-10T10:18:24Z</time></trkpt><trkpt lat="42.903557" lon="0.136546"><ele>1854.52</ele><time>2010-10-10T10:18:28Z</time></trkpt><trkpt lat="42.903543" lon="0.136514"><ele>1854.04</ele><time>2010-10-10T10:18:29Z</time></trkpt><trkpt lat="42.903513" lon="0.136484"><ele>1853.56</ele><time>2010-10-10T10:18:30Z</time></trkpt><trkpt lat="42.903480" lon="0.136451"><ele>1853.08</ele><time>2010-10-10T10:18:31Z</time></trkpt><trkpt lat="42.903444" lon="0.136415"><ele>1852.60</ele><time>2010-10-10T10:18:32Z</time></trkpt><trkpt lat="42.903408" lon="0.136378"><ele>1852.12</ele><time>2010-10-10T10:18:33Z</time></trkpt><trkpt lat="42.903371" lon="0.136342"><ele>1851.64</ele><time>2010-10-10T10:18:34Z</time></trkpt><trkpt lat="42.903292" lon="0.136313"><ele>1851.16</ele><time>2010-10-10T10:18:36Z</time></trkpt><trkpt lat="42.903248" lon="0.136297"><ele>1850.68</ele><time>2010-10-10T10:18:37Z</time></trkpt><trkpt lat="42.903205" lon="0.136281"><ele>1850.68</ele><time>2010-10-10T10:18:38Z</time></trkpt><trkpt lat="42.903162" lon="0.136266"><ele>1850.68</ele><time>2010-10-10T10:18:39Z</time></trkpt><trkpt lat="42.903122" lon="0.136251"><ele>1850.19</ele><time>2010-10-10T10:18:40Z</time></trkpt><trkpt lat="42.903084" lon="0.136237"><ele>1849.23</ele><time>2010-10-10T10:18:41Z</time></trkpt><trkpt lat="42.902895" lon="0.136150"><ele>1846.83</ele><time>2010-10-10T10:18:47Z</time></trkpt><trkpt lat="42.902886" lon="0.136112"><ele>1846.35</ele><time>2010-10-10T10:18:48Z</time></trkpt><trkpt lat="42.902878" lon="0.136074"><ele>1845.87</ele><time>2010-10-10T10:18:49Z</time></trkpt><trkpt lat="42.902870" lon="0.136038"><ele>1845.39</ele><time>2010-10-10T10:18:50Z</time></trkpt><trkpt lat="42.902863" lon="0.136009"><ele>1845.39</ele><time>2010-10-10T10:18:51Z</time></trkpt><trkpt lat="42.902858" lon="0.135982"><ele>1844.91</ele><time>2010-10-10T10:18:52Z</time></trkpt><trkpt lat="42.902851" lon="0.135954"><ele>1844.91</ele><time>2010-10-10T10:18:53Z</time></trkpt><trkpt lat="42.902844" lon="0.135920"><ele>1844.91</ele><time>2010-10-10T10:18:54Z</time></trkpt><trkpt lat="42.902835" lon="0.135882"><ele>1844.43</ele><time>2010-10-10T10:18:55Z</time></trkpt><trkpt lat="42.902765" lon="0.135567"><ele>1843.47</ele><time>2010-10-10T10:19:01Z</time></trkpt><trkpt lat="42.902737" lon="0.135231"><ele>1841.54</ele><time>2010-10-10T10:19:07Z</time></trkpt><trkpt lat="42.902743" lon="0.135117"><ele>1841.06</ele><time>2010-10-10T10:19:09Z</time></trkpt><trkpt lat="42.902746" lon="0.135059"><ele>1841.06</ele><time>2010-10-10T10:19:10Z</time></trkpt><trkpt lat="42.902749" lon="0.135006"><ele>1840.58</ele><time>2010-10-10T10:19:11Z</time></trkpt><trkpt lat="42.902768" lon="0.134677"><ele>1838.66</ele><time>2010-10-10T10:19:17Z</time></trkpt><trkpt lat="42.902768" lon="0.134617"><ele>1838.18</ele><time>2010-10-10T10:19:18Z</time></trkpt><trkpt lat="42.902750" lon="0.134564"><ele>1837.70</ele><time>2010-10-10T10:19:19Z</time></trkpt><trkpt lat="42.902696" lon="0.134401"><ele>1836.74</ele><time>2010-10-10T10:19:22Z</time></trkpt><trkpt lat="42.902625" lon="0.134249"><ele>1835.29</ele><time>2010-10-10T10:19:25Z</time></trkpt><trkpt lat="42.902600" lon="0.134198"><ele>1834.33</ele><time>2010-10-10T10:19:26Z</time></trkpt><trkpt lat="42.902559" lon="0.134162"><ele>1833.85</ele><time>2010-10-10T10:19:27Z</time></trkpt><trkpt lat="42.902516" lon="0.134125"><ele>1833.37</ele><time>2010-10-10T10:19:28Z</time></trkpt><trkpt lat="42.902476" lon="0.134091"><ele>1832.41</ele><time>2010-10-10T10:19:29Z</time></trkpt><trkpt lat="42.902438" lon="0.134059"><ele>1831.93</ele><time>2010-10-10T10:19:30Z</time></trkpt><trkpt lat="42.902404" lon="0.134029"><ele>1831.45</ele><time>2010-10-10T10:19:31Z</time></trkpt><trkpt lat="42.902370" lon="0.134000"><ele>1830.97</ele><time>2010-10-10T10:19:32Z</time></trkpt><trkpt lat="42.902335" lon="0.133970"><ele>1830.49</ele><time>2010-10-10T10:19:33Z</time></trkpt><trkpt lat="42.902300" lon="0.133940"><ele>1830.01</ele><time>2010-10-10T10:19:34Z</time></trkpt><trkpt lat="42.902288" lon="0.133903"><ele>1829.53</ele><time>2010-10-10T10:19:35Z</time></trkpt><trkpt lat="42.902272" lon="0.133850"><ele>1829.05</ele><time>2010-10-10T10:19:36Z</time></trkpt><trkpt lat="42.902257" lon="0.133800"><ele>1828.56</ele><time>2010-10-10T10:19:37Z</time></trkpt><trkpt lat="42.902227" lon="0.133701"><ele>1827.60</ele><time>2010-10-10T10:19:39Z</time></trkpt><trkpt lat="42.902135" lon="0.133394"><ele>1826.16</ele><time>2010-10-10T10:19:44Z</time></trkpt><trkpt lat="42.902114" lon="0.133323"><ele>1825.68</ele><time>2010-10-10T10:19:45Z</time></trkpt><trkpt lat="42.901912" lon="0.132682"><ele>1819.91</ele><time>2010-10-10T10:19:54Z</time></trkpt><trkpt lat="42.901912" lon="0.132619"><ele>1818.95</ele><time>2010-10-10T10:19:55Z</time></trkpt><trkpt lat="42.901912" lon="0.132557"><ele>1818.95</ele><time>2010-10-10T10:19:56Z</time></trkpt><trkpt lat="42.901938" lon="0.132497"><ele>1818.47</ele><time>2010-10-10T10:19:57Z</time></trkpt><trkpt lat="42.901970" lon="0.132464"><ele>1818.47</ele><time>2010-10-10T10:19:58Z</time></trkpt><trkpt lat="42.902006" lon="0.132429"><ele>1817.99</ele><time>2010-10-10T10:19:59Z</time></trkpt><trkpt lat="42.902039" lon="0.132395"><ele>1817.51</ele><time>2010-10-10T10:20:00Z</time></trkpt><trkpt lat="42.902081" lon="0.132383"><ele>1817.51</ele><time>2010-10-10T10:20:01Z</time></trkpt><trkpt lat="42.902129" lon="0.132370"><ele>1817.51</ele><time>2010-10-10T10:20:02Z</time></trkpt><trkpt lat="42.902179" lon="0.132357"><ele>1817.51</ele><time>2010-10-10T10:20:03Z</time></trkpt><trkpt lat="42.902228" lon="0.132344"><ele>1817.03</ele><time>2010-10-10T10:20:04Z</time></trkpt><trkpt lat="42.902278" lon="0.132330"><ele>1817.03</ele><time>2010-10-10T10:20:05Z</time></trkpt><trkpt lat="42.902701" lon="0.132200"><ele>1813.18</ele><time>2010-10-10T10:20:14Z</time></trkpt><trkpt lat="42.902729" lon="0.132163"><ele>1812.70</ele><time>2010-10-10T10:20:15Z</time></trkpt><trkpt lat="42.902759" lon="0.132123"><ele>1812.70</ele><time>2010-10-10T10:20:16Z</time></trkpt><trkpt lat="42.902793" lon="0.132078"><ele>1812.22</ele><time>2010-10-10T10:20:17Z</time></trkpt><trkpt lat="42.902829" lon="0.132030"><ele>1812.22</ele><time>2010-10-10T10:20:18Z</time></trkpt><trkpt lat="42.902866" lon="0.131981"><ele>1811.74</ele><time>2010-10-10T10:20:19Z</time></trkpt><trkpt lat="42.902903" lon="0.131931"><ele>1810.78</ele><time>2010-10-10T10:20:20Z</time></trkpt><trkpt lat="42.902940" lon="0.131882"><ele>1810.30</ele><time>2010-10-10T10:20:21Z</time></trkpt><trkpt lat="42.903085" lon="0.131689"><ele>1808.86</ele><time>2010-10-10T10:20:25Z</time></trkpt><trkpt lat="42.903122" lon="0.131642"><ele>1808.86</ele><time>2010-10-10T10:20:26Z</time></trkpt><trkpt lat="42.903261" lon="0.131463"><ele>1808.38</ele><time>2010-10-10T10:20:30Z</time></trkpt><trkpt lat="42.903292" lon="0.131422"><ele>1808.38</ele><time>2010-10-10T10:20:31Z</time></trkpt><trkpt lat="42.903354" lon="0.131343"><ele>1807.90</ele><time>2010-10-10T10:20:33Z</time></trkpt><trkpt lat="42.903371" lon="0.131299"><ele>1807.42</ele><time>2010-10-10T10:20:34Z</time></trkpt><trkpt lat="42.903371" lon="0.131178"><ele>1806.94</ele><time>2010-10-10T10:20:36Z</time></trkpt><trkpt lat="42.903371" lon="0.131114"><ele>1806.45</ele><time>2010-10-10T10:20:37Z</time></trkpt><trkpt lat="42.903371" lon="0.131050"><ele>1805.97</ele><time>2010-10-10T10:20:38Z</time></trkpt><trkpt lat="42.903371" lon="0.130990"><ele>1805.01</ele><time>2010-10-10T10:20:39Z</time></trkpt><trkpt lat="42.903371" lon="0.130933"><ele>1804.53</ele><time>2010-10-10T10:20:40Z</time></trkpt><trkpt lat="42.903371" lon="0.130878"><ele>1803.57</ele><time>2010-10-10T10:20:41Z</time></trkpt><trkpt lat="42.903371" lon="0.130824"><ele>1803.09</ele><time>2010-10-10T10:20:42Z</time></trkpt><trkpt lat="42.903371" lon="0.130775"><ele>1802.61</ele><time>2010-10-10T10:20:43Z</time></trkpt><trkpt lat="42.903371" lon="0.130729"><ele>1802.13</ele><time>2010-10-10T10:20:44Z</time></trkpt><trkpt lat="42.903371" lon="0.130682"><ele>1801.65</ele><time>2010-10-10T10:20:45Z</time></trkpt><trkpt lat="42.903376" lon="0.130638"><ele>1801.17</ele><time>2010-10-10T10:20:46Z</time></trkpt><trkpt lat="42.903383" lon="0.130589"><ele>1800.69</ele><time>2010-10-10T10:20:47Z</time></trkpt><trkpt lat="42.903466" lon="0.130165"><ele>1798.28</ele><time>2010-10-10T10:20:55Z</time></trkpt><trkpt lat="42.903577" lon="0.129804"><ele>1795.40</ele><time>2010-10-10T10:21:01Z</time></trkpt><trkpt lat="42.903594" lon="0.129750"><ele>1795.40</ele><time>2010-10-10T10:21:02Z</time></trkpt><trkpt lat="42.903758" lon="0.129151"><ele>1791.07</ele><time>2010-10-10T10:21:14Z</time></trkpt><trkpt lat="42.903758" lon="0.129099"><ele>1791.07</ele><time>2010-10-10T10:21:15Z</time></trkpt><trkpt lat="42.903758" lon="0.129043"><ele>1790.59</ele><time>2010-10-10T10:21:16Z</time></trkpt><trkpt lat="42.903758" lon="0.128808"><ele>1788.67</ele><time>2010-10-10T10:21:20Z</time></trkpt><trkpt lat="42.903749" lon="0.128753"><ele>1788.19</ele><time>2010-10-10T10:21:21Z</time></trkpt><trkpt lat="42.903736" lon="0.128701"><ele>1787.71</ele><time>2010-10-10T10:21:22Z</time></trkpt><trkpt lat="42.903722" lon="0.128648"><ele>1787.23</ele><time>2010-10-10T10:21:23Z</time></trkpt><trkpt lat="42.903709" lon="0.128595"><ele>1786.75</ele><time>2010-10-10T10:21:24Z</time></trkpt><trkpt lat="42.903696" lon="0.128541"><ele>1786.27</ele><time>2010-10-10T10:21:25Z</time></trkpt><trkpt lat="42.903682" lon="0.128486"><ele>1785.79</ele><time>2010-10-10T10:21:26Z</time></trkpt><trkpt lat="42.903576" lon="0.128052"><ele>1782.42</ele><time>2010-10-10T10:21:33Z</time></trkpt><trkpt lat="42.903564" lon="0.127993"><ele>1781.94</ele><time>2010-10-10T10:21:34Z</time></trkpt><trkpt lat="42.903552" lon="0.127933"><ele>1781.46</ele><time>2010-10-10T10:21:35Z</time></trkpt><trkpt lat="42.903551" lon="0.127867"><ele>1780.98</ele><time>2010-10-10T10:21:36Z</time></trkpt><trkpt lat="42.903572" lon="0.127816"><ele>1780.50</ele><time>2010-10-10T10:21:37Z</time></trkpt><trkpt lat="42.903594" lon="0.127760"><ele>1780.50</ele><time>2010-10-10T10:21:38Z</time></trkpt><trkpt lat="42.903618" lon="0.127701"><ele>1780.02</ele><time>2010-10-10T10:21:39Z</time></trkpt><trkpt lat="42.903715" lon="0.127334"><ele>1777.61</ele><time>2010-10-10T10:21:44Z</time></trkpt><trkpt lat="42.903715" lon="0.127249"><ele>1776.65</ele><time>2010-10-10T10:21:45Z</time></trkpt><trkpt lat="42.903715" lon="0.127165"><ele>1776.17</ele><time>2010-10-10T10:21:46Z</time></trkpt><trkpt lat="42.903715" lon="0.126876"><ele>1773.29</ele><time>2010-10-10T10:21:50Z</time></trkpt><trkpt lat="42.903735" lon="0.126821"><ele>1772.33</ele><time>2010-10-10T10:21:51Z</time></trkpt><trkpt lat="42.903763" lon="0.126770"><ele>1771.85</ele><time>2010-10-10T10:21:52Z</time></trkpt><trkpt lat="42.903817" lon="0.126673"><ele>1770.41</ele><time>2010-10-10T10:21:54Z</time></trkpt><trkpt lat="42.903845" lon="0.126624"><ele>1769.92</ele><time>2010-10-10T10:21:55Z</time></trkpt><trkpt lat="42.903872" lon="0.126575"><ele>1769.44</ele><time>2010-10-10T10:21:56Z</time></trkpt><trkpt lat="42.903898" lon="0.126527"><ele>1768.48</ele><time>2010-10-10T10:21:57Z</time></trkpt><trkpt lat="42.903922" lon="0.126484"><ele>1768.00</ele><time>2010-10-10T10:21:58Z</time></trkpt><trkpt lat="42.903949" lon="0.126472"><ele>1768.00</ele><time>2010-10-10T10:21:59Z</time></trkpt><trkpt lat="42.903980" lon="0.126472"><ele>1767.52</ele><time>2010-10-10T10:22:00Z</time></trkpt><trkpt lat="42.904006" lon="0.126472"><ele>1767.04</ele><time>2010-10-10T10:22:01Z</time></trkpt><trkpt lat="42.904031" lon="0.126472"><ele>1766.56</ele><time>2010-10-10T10:22:02Z</time></trkpt><trkpt lat="42.903929" lon="0.126472"><ele>1766.08</ele><time>2010-10-10T10:22:03Z</time></trkpt><trkpt lat="42.903929" lon="0.126472"><ele>1766.08</ele><time>2010-10-10T10:22:04Z</time></trkpt><trkpt lat="42.903929" lon="0.126472"><ele>1765.60</ele><time>2010-10-10T10:22:05Z</time></trkpt><trkpt lat="42.903924" lon="0.126481"><ele>1765.60</ele><time>2010-10-10T10:22:06Z</time></trkpt><trkpt lat="42.903898" lon="0.126527"><ele>1765.12</ele><time>2010-10-10T10:22:07Z</time></trkpt><trkpt lat="42.903869" lon="0.126579"><ele>1764.64</ele><time>2010-10-10T10:22:08Z</time></trkpt><trkpt lat="42.903786" lon="0.126729"><ele>1763.20</ele><time>2010-10-10T10:22:11Z</time></trkpt><trkpt lat="42.903715" lon="0.127072"><ele>1762.71</ele><time>2010-10-10T10:22:12Z</time></trkpt><trkpt lat="42.903715" lon="0.127152"><ele>1762.23</ele><time>2010-10-10T10:22:13Z</time></trkpt><trkpt lat="42.903715" lon="0.127459"><ele>1760.31</ele><time>2010-10-10T10:22:18Z</time></trkpt><trkpt lat="42.903715" lon="0.127459"><ele>1760.31</ele><time>2010-10-10T10:22:19Z</time></trkpt><trkpt lat="42.904241" lon="0.127772"><ele>1759.35</ele><time>2010-10-10T10:22:21Z</time></trkpt><trkpt lat="42.904252" lon="0.127996"><ele>1758.39</ele><time>2010-10-10T10:22:24Z</time></trkpt><trkpt lat="42.904256" lon="0.128069"><ele>1757.91</ele><time>2010-10-10T10:22:25Z</time></trkpt><trkpt lat="42.904263" lon="0.128212"><ele>1756.95</ele><time>2010-10-10T10:22:27Z</time></trkpt><trkpt lat="42.904338" lon="0.128715"><ele>1754.54</ele><time>2010-10-10T10:22:34Z</time></trkpt><trkpt lat="42.904385" lon="0.128942"><ele>1754.06</ele><time>2010-10-10T10:22:37Z</time></trkpt><trkpt lat="42.904402" lon="0.129023"><ele>1754.06</ele><time>2010-10-10T10:22:38Z</time></trkpt><trkpt lat="42.904556" lon="0.129597"><ele>1750.70</ele><time>2010-10-10T10:22:45Z</time></trkpt><trkpt lat="42.904621" lon="0.129754"><ele>1749.26</ele><time>2010-10-10T10:22:47Z</time></trkpt><trkpt lat="42.904654" lon="0.129833"><ele>1748.78</ele><time>2010-10-10T10:22:48Z</time></trkpt><trkpt lat="42.904686" lon="0.129911"><ele>1748.29</ele><time>2010-10-10T10:22:49Z</time></trkpt><trkpt lat="42.904752" lon="0.129998"><ele>1747.81</ele><time>2010-10-10T10:22:50Z</time></trkpt><trkpt lat="42.904814" lon="0.130060"><ele>1746.85</ele><time>2010-10-10T10:22:51Z</time></trkpt><trkpt lat="42.905216" lon="0.130215"><ele>1743.01</ele><time>2010-10-10T10:22:56Z</time></trkpt><trkpt lat="42.905284" lon="0.130278"><ele>1742.05</ele><time>2010-10-10T10:22:57Z</time></trkpt><trkpt lat="42.905344" lon="0.130353"><ele>1741.08</ele><time>2010-10-10T10:22:58Z</time></trkpt><trkpt lat="42.905404" lon="0.130428"><ele>1740.60</ele><time>2010-10-10T10:22:59Z</time></trkpt><trkpt lat="42.905457" lon="0.130524"><ele>1739.64</ele><time>2010-10-10T10:23:00Z</time></trkpt><trkpt lat="42.905499" lon="0.130625"><ele>1739.16</ele><time>2010-10-10T10:23:01Z</time></trkpt><trkpt lat="42.905624" lon="0.130926"><ele>1736.76</ele><time>2010-10-10T10:23:04Z</time></trkpt><trkpt lat="42.905646" lon="0.131044"><ele>1735.80</ele><time>2010-10-10T10:23:05Z</time></trkpt><trkpt lat="42.905649" lon="0.131253"><ele>1734.84</ele><time>2010-10-10T10:23:07Z</time></trkpt><trkpt lat="42.905668" lon="0.131345"><ele>1734.36</ele><time>2010-10-10T10:23:08Z</time></trkpt><trkpt lat="42.905765" lon="0.131511"><ele>1733.39</ele><time>2010-10-10T10:23:10Z</time></trkpt><trkpt lat="42.905821" lon="0.131555"><ele>1732.91</ele><time>2010-10-10T10:23:11Z</time></trkpt><trkpt lat="42.905873" lon="0.131597"><ele>1732.43</ele><time>2010-10-10T10:23:12Z</time></trkpt><trkpt lat="42.905941" lon="0.131615"><ele>1732.43</ele><time>2010-10-10T10:23:13Z</time></trkpt><trkpt lat="42.906000" lon="0.131604"><ele>1731.95</ele><time>2010-10-10T10:23:14Z</time></trkpt><trkpt lat="42.906062" lon="0.131593"><ele>1731.47</ele><time>2010-10-10T10:23:15Z</time></trkpt><trkpt lat="42.906125" lon="0.131581"><ele>1731.47</ele><time>2010-10-10T10:23:16Z</time></trkpt><trkpt lat="42.906191" lon="0.131569"><ele>1730.99</ele><time>2010-10-10T10:23:17Z</time></trkpt><trkpt lat="42.906259" lon="0.131557"><ele>1730.99</ele><time>2010-10-10T10:23:18Z</time></trkpt><trkpt lat="42.906324" lon="0.131545"><ele>1730.51</ele><time>2010-10-10T10:23:19Z</time></trkpt><trkpt lat="42.906410" lon="0.131484"><ele>1730.51</ele><time>2010-10-10T10:23:20Z</time></trkpt><trkpt lat="42.906450" lon="0.131424"><ele>1730.51</ele><time>2010-10-10T10:23:21Z</time></trkpt><trkpt lat="42.906490" lon="0.131364"><ele>1730.51</ele><time>2010-10-10T10:23:22Z</time></trkpt><trkpt lat="42.906529" lon="0.131305"><ele>1730.51</ele><time>2010-10-10T10:23:23Z</time></trkpt><trkpt lat="42.906558" lon="0.131231"><ele>1730.03</ele><time>2010-10-10T10:23:24Z</time></trkpt><trkpt lat="42.906576" lon="0.131157"><ele>1730.03</ele><time>2010-10-10T10:23:25Z</time></trkpt><trkpt lat="42.906596" lon="0.131079"><ele>1729.55</ele><time>2010-10-10T10:23:26Z</time></trkpt><trkpt lat="42.906614" lon="0.131002"><ele>1729.07</ele><time>2010-10-10T10:23:27Z</time></trkpt><trkpt lat="42.906893" lon="0.129857"><ele>1726.18</ele><time>2010-10-10T10:23:38Z</time></trkpt><trkpt lat="42.906935" lon="0.129633"><ele>1724.74</ele><time>2010-10-10T10:23:40Z</time></trkpt><trkpt lat="42.906938" lon="0.129513"><ele>1724.26</ele><time>2010-10-10T10:23:41Z</time></trkpt><trkpt lat="42.906996" lon="0.127691"><ele>1712.73</ele><time>2010-10-10T10:23:54Z</time></trkpt><trkpt lat="42.907102" lon="0.126217"><ele>1705.04</ele><time>2010-10-10T10:24:05Z</time></trkpt><trkpt lat="42.907101" lon="0.126073"><ele>1704.07</ele><time>2010-10-10T10:24:06Z</time></trkpt><trkpt lat="42.907062" lon="0.124716"><ele>1693.98</ele><time>2010-10-10T10:24:16Z</time></trkpt><trkpt lat="42.907101" lon="0.123167"><ele>1681.96</ele><time>2010-10-10T10:24:26Z</time></trkpt><trkpt lat="42.907105" lon="0.121399"><ele>1669.47</ele><time>2010-10-10T10:24:37Z</time></trkpt><trkpt lat="42.907105" lon="0.121080"><ele>1667.06</ele><time>2010-10-10T10:24:39Z</time></trkpt><trkpt lat="42.907235" lon="0.119352"><ele>1656.01</ele><time>2010-10-10T10:24:50Z</time></trkpt><trkpt lat="42.907308" lon="0.118493"><ele>1621.40</ele><time>2010-10-10T10:25:27Z</time></trkpt><trkpt lat="42.907308" lon="0.118493"><ele>1620.44</ele><time>2010-10-10T10:25:28Z</time></trkpt><trkpt lat="42.907308" lon="0.118493"><ele>1619.96</ele><time>2010-10-10T10:25:29Z</time></trkpt><trkpt lat="42.907308" lon="0.118493"><ele>1619.48</ele><time>2010-10-10T10:25:30Z</time></trkpt><trkpt lat="42.907321" lon="0.118353"><ele>1618.52</ele><time>2010-10-10T10:25:31Z</time></trkpt><trkpt lat="42.907321" lon="0.118353"><ele>1618.04</ele><time>2010-10-10T10:25:32Z</time></trkpt><trkpt lat="42.907321" lon="0.118353"><ele>1617.07</ele><time>2010-10-10T10:25:33Z</time></trkpt><trkpt lat="42.907321" lon="0.118353"><ele>1616.59</ele><time>2010-10-10T10:25:34Z</time></trkpt><trkpt lat="42.907939" lon="0.115627"><ele>1608.42</ele><time>2010-10-10T10:25:47Z</time></trkpt><trkpt lat="42.907939" lon="0.115627"><ele>1605.54</ele><time>2010-10-10T10:25:53Z</time></trkpt><trkpt lat="42.907939" lon="0.115627"><ele>1605.06</ele><time>2010-10-10T10:25:54Z</time></trkpt><trkpt lat="42.907939" lon="0.115627"><ele>1604.58</ele><time>2010-10-10T10:25:55Z</time></trkpt><trkpt lat="42.907939" lon="0.115627"><ele>1604.10</ele><time>2010-10-10T10:25:56Z</time></trkpt><trkpt lat="42.907939" lon="0.115627"><ele>1603.62</ele><time>2010-10-10T10:25:57Z</time></trkpt><trkpt lat="42.907939" lon="0.115627"><ele>1603.14</ele><time>2010-10-10T10:25:58Z</time></trkpt><trkpt lat="42.907939" lon="0.115627"><ele>1602.66</ele><time>2010-10-10T10:25:59Z</time></trkpt><trkpt lat="42.907939" lon="0.115627"><ele>1602.17</ele><time>2010-10-10T10:26:00Z</time></trkpt><trkpt lat="42.907939" lon="0.115627"><ele>1601.69</ele><time>2010-10-10T10:26:01Z</time></trkpt><trkpt lat="42.907309" lon="0.116258"><ele>1601.21</ele><time>2010-10-10T10:26:02Z</time></trkpt><trkpt lat="42.907309" lon="0.116258"><ele>1600.73</ele><time>2010-10-10T10:26:03Z</time></trkpt><trkpt lat="42.907200" lon="0.115940"><ele>1595.93</ele><time>2010-10-10T10:26:13Z</time></trkpt><trkpt lat="42.907200" lon="0.115940"><ele>1594.48</ele><time>2010-10-10T10:26:15Z</time></trkpt></trkseg></trk><trk><name>ACTIVE LOG: 10 окт 2010 12:26</name><trkseg><trkpt lat="42.907261" lon="0.112854"><ele>1586.31</ele><time>2010-10-10T10:26:25Z</time></trkpt><trkpt lat="42.907245" lon="0.112343"><ele>1583.91</ele><time>2010-10-10T10:26:28Z</time></trkpt><trkpt lat="42.907206" lon="0.111906"><ele>1581.99</ele><time>2010-10-10T10:26:32Z</time></trkpt><trkpt lat="42.907191" lon="0.111851"><ele>1581.51</ele><time>2010-10-10T10:26:33Z</time></trkpt><trkpt lat="42.907166" lon="0.111758"><ele>1580.06</ele><time>2010-10-10T10:26:41Z</time></trkpt><trkpt lat="42.907076" lon="0.111426"><ele>1580.54</ele><time>2010-10-10T10:26:55Z</time></trkpt><trkpt lat="42.907060" lon="0.111366"><ele>1581.03</ele><time>2010-10-10T10:27:02Z</time></trkpt><trkpt lat="42.906912" lon="0.110815"><ele>1580.06</ele><time>2010-10-10T10:27:10Z</time></trkpt><trkpt lat="42.906861" lon="0.110629"><ele>1578.62</ele><time>2010-10-10T10:27:17Z</time></trkpt><trkpt lat="42.906766" lon="0.110275"><ele>1577.66</ele><time>2010-10-10T10:27:25Z</time></trkpt><trkpt lat="42.906487" lon="0.109125"><ele>1570.45</ele><time>2010-10-10T10:27:37Z</time></trkpt><trkpt lat="42.906411" lon="0.108184"><ele>1562.28</ele><time>2010-10-10T10:27:49Z</time></trkpt><trkpt lat="42.906396" lon="0.107745"><ele>1556.99</ele><time>2010-10-10T10:27:59Z</time></trkpt><trkpt lat="42.906394" lon="0.107685"><ele>1556.51</ele><time>2010-10-10T10:28:00Z</time></trkpt><trkpt lat="42.906387" lon="0.107501"><ele>1555.55</ele><time>2010-10-10T10:28:03Z</time></trkpt><trkpt lat="42.906385" lon="0.107442"><ele>1555.07</ele><time>2010-10-10T10:28:04Z</time></trkpt><trkpt lat="42.906334" lon="0.106935"><ele>1549.30</ele><time>2010-10-10T10:28:15Z</time></trkpt><trkpt lat="42.906304" lon="0.106775"><ele>1548.82</ele><time>2010-10-10T10:28:26Z</time></trkpt><trkpt lat="42.906223" lon="0.106338"><ele>1549.30</ele><time>2010-10-10T10:28:35Z</time></trkpt><trkpt lat="42.906185" lon="0.106129"><ele>1548.82</ele><time>2010-10-10T10:28:43Z</time></trkpt><trkpt lat="42.906179" lon="0.105948"><ele>1549.78</ele><time>2010-10-10T10:28:58Z</time></trkpt><trkpt lat="42.906197" lon="0.105894"><ele>1549.30</ele><time>2010-10-10T10:28:59Z</time></trkpt><trkpt lat="42.906216" lon="0.105835"><ele>1549.30</ele><time>2010-10-10T10:29:00Z</time></trkpt><trkpt lat="42.906232" lon="0.105787"><ele>1548.82</ele><time>2010-10-10T10:29:06Z</time></trkpt><trkpt lat="42.906285" lon="0.105627"><ele>1548.82</ele><time>2010-10-10T10:29:36Z</time></trkpt><trkpt lat="42.906327" lon="0.105501"><ele>1548.34</ele><time>2010-10-10T10:29:38Z</time></trkpt><trkpt lat="42.906333" lon="0.105412"><ele>1548.34</ele><time>2010-10-10T10:29:39Z</time></trkpt><trkpt lat="42.906333" lon="0.105328"><ele>1547.86</ele><time>2010-10-10T10:29:40Z</time></trkpt><trkpt lat="42.906345" lon="0.104588"><ele>1544.01</ele><time>2010-10-10T10:29:50Z</time></trkpt><trkpt lat="42.906485" lon="0.103164"><ele>1535.36</ele><time>2010-10-10T10:30:03Z</time></trkpt><trkpt lat="42.906590" lon="0.102073"><ele>1527.19</ele><time>2010-10-10T10:30:15Z</time></trkpt><trkpt lat="42.906590" lon="0.102017"><ele>1526.71</ele><time>2010-10-10T10:30:16Z</time></trkpt><trkpt lat="42.906590" lon="0.101971"><ele>1526.71</ele><time>2010-10-10T10:30:17Z</time></trkpt><trkpt lat="42.906560" lon="0.101937"><ele>1526.23</ele><time>2010-10-10T10:30:18Z</time></trkpt><trkpt lat="42.906533" lon="0.101910"><ele>1525.75</ele><time>2010-10-10T10:30:19Z</time></trkpt><trkpt lat="42.906490" lon="0.101888"><ele>1525.27</ele><time>2010-10-10T10:30:20Z</time></trkpt><trkpt lat="42.906463" lon="0.101902"><ele>1524.31</ele><time>2010-10-10T10:30:21Z</time></trkpt><trkpt lat="42.906436" lon="0.101915"><ele>1523.83</ele><time>2010-10-10T10:30:22Z</time></trkpt><trkpt lat="42.906415" lon="0.101953"><ele>1523.35</ele><time>2010-10-10T10:30:23Z</time></trkpt><trkpt lat="42.906412" lon="0.101978"><ele>1522.87</ele><time>2010-10-10T10:30:24Z</time></trkpt><trkpt lat="42.906409" lon="0.102003"><ele>1522.39</ele><time>2010-10-10T10:30:25Z</time></trkpt><trkpt lat="42.906406" lon="0.102030"><ele>1521.90</ele><time>2010-10-10T10:30:26Z</time></trkpt><trkpt lat="42.906402" lon="0.102059"><ele>1521.90</ele><time>2010-10-10T10:30:27Z</time></trkpt><trkpt lat="42.906399" lon="0.102089"><ele>1521.42</ele><time>2010-10-10T10:30:28Z</time></trkpt><trkpt lat="42.906395" lon="0.102122"><ele>1520.94</ele><time>2010-10-10T10:30:29Z</time></trkpt><trkpt lat="42.906391" lon="0.102156"><ele>1520.94</ele><time>2010-10-10T10:30:30Z</time></trkpt><trkpt lat="42.906370" lon="0.102333"><ele>1518.54</ele><time>2010-10-10T10:30:40Z</time></trkpt><trkpt lat="42.906351" lon="0.102497"><ele>1517.10</ele><time>2010-10-10T10:31:02Z</time></trkpt><trkpt lat="42.906335" lon="0.102634"><ele>1516.62</ele><time>2010-10-10T10:31:05Z</time></trkpt><trkpt lat="42.906317" lon="0.102697"><ele>1516.62</ele><time>2010-10-10T10:31:06Z</time></trkpt><trkpt lat="42.906292" lon="0.102765"><ele>1516.14</ele><time>2010-10-10T10:31:07Z</time></trkpt><trkpt lat="42.905846" lon="0.103969"><ele>1508.93</ele><time>2010-10-10T10:31:21Z</time></trkpt><trkpt lat="42.905543" lon="0.104537"><ele>1504.60</ele><time>2010-10-10T10:31:28Z</time></trkpt><trkpt lat="42.905482" lon="0.104592"><ele>1504.12</ele><time>2010-10-10T10:31:29Z</time></trkpt><trkpt lat="42.905427" lon="0.104603"><ele>1503.16</ele><time>2010-10-10T10:31:30Z</time></trkpt><trkpt lat="42.905376" lon="0.104613"><ele>1502.68</ele><time>2010-10-10T10:31:31Z</time></trkpt><trkpt lat="42.905328" lon="0.104622"><ele>1502.20</ele><time>2010-10-10T10:31:32Z</time></trkpt><trkpt lat="42.905296" lon="0.104618"><ele>1501.72</ele><time>2010-10-10T10:31:33Z</time></trkpt><trkpt lat="42.905268" lon="0.104576"><ele>1501.72</ele><time>2010-10-10T10:31:34Z</time></trkpt><trkpt lat="42.905241" lon="0.104536"><ele>1501.24</ele><time>2010-10-10T10:31:35Z</time></trkpt><trkpt lat="42.905219" lon="0.104503"><ele>1500.76</ele><time>2010-10-10T10:31:36Z</time></trkpt><trkpt lat="42.905243" lon="0.104454"><ele>1500.27</ele><time>2010-10-10T10:31:37Z</time></trkpt><trkpt lat="42.905272" lon="0.104404"><ele>1499.79</ele><time>2010-10-10T10:31:38Z</time></trkpt><trkpt lat="42.905304" lon="0.104350"><ele>1499.31</ele><time>2010-10-10T10:31:39Z</time></trkpt><trkpt lat="42.905337" lon="0.104293"><ele>1498.83</ele><time>2010-10-10T10:31:40Z</time></trkpt><trkpt lat="42.905372" lon="0.104233"><ele>1498.35</ele><time>2010-10-10T10:31:41Z</time></trkpt><trkpt lat="42.905478" lon="0.104051"><ele>1497.39</ele><time>2010-10-10T10:31:44Z</time></trkpt><trkpt lat="42.905513" lon="0.103991"><ele>1496.91</ele><time>2010-10-10T10:31:45Z</time></trkpt><trkpt lat="42.905528" lon="0.103899"><ele>1496.43</ele><time>2010-10-10T10:31:46Z</time></trkpt><trkpt lat="42.905540" lon="0.103814"><ele>1496.43</ele><time>2010-10-10T10:31:47Z</time></trkpt><trkpt lat="42.905552" lon="0.103722"><ele>1495.95</ele><time>2010-10-10T10:31:48Z</time></trkpt><trkpt lat="42.905669" lon="0.102446"><ele>1489.70</ele><time>2010-10-10T10:31:59Z</time></trkpt><trkpt lat="42.905608" lon="0.101858"><ele>1484.89</ele><time>2010-10-10T10:32:07Z</time></trkpt><trkpt lat="42.905533" lon="0.101663"><ele>1483.45</ele><time>2010-10-10T10:32:17Z</time></trkpt><trkpt lat="42.905450" lon="0.101601"><ele>1483.45</ele><time>2010-10-10T10:32:23Z</time></trkpt><trkpt lat="42.905411" lon="0.101588"><ele>1483.45</ele><time>2010-10-10T10:32:24Z</time></trkpt><trkpt lat="42.905382" lon="0.101593"><ele>1482.97</ele><time>2010-10-10T10:32:25Z</time></trkpt><trkpt lat="42.905382" lon="0.101593"><ele>1481.53</ele><time>2010-10-10T10:32:32Z</time></trkpt><trkpt lat="42.905364" lon="0.101630"><ele>1481.53</ele><time>2010-10-10T10:32:35Z</time></trkpt><trkpt lat="42.905358" lon="0.101642"><ele>1481.53</ele><time>2010-10-10T10:32:36Z</time></trkpt><trkpt lat="42.905349" lon="0.101659"><ele>1481.05</ele><time>2010-10-10T10:32:37Z</time></trkpt><trkpt lat="42.905336" lon="0.101685"><ele>1481.05</ele><time>2010-10-10T10:32:38Z</time></trkpt><trkpt lat="42.905321" lon="0.101716"><ele>1481.05</ele><time>2010-10-10T10:32:39Z</time></trkpt><trkpt lat="42.905304" lon="0.101750"><ele>1480.57</ele><time>2010-10-10T10:32:40Z</time></trkpt><trkpt lat="42.905303" lon="0.101762"><ele>1480.57</ele><time>2010-10-10T10:32:41Z</time></trkpt><trkpt lat="42.905303" lon="0.101808"><ele>1480.09</ele><time>2010-10-10T10:32:42Z</time></trkpt><trkpt lat="42.905303" lon="0.101849"><ele>1480.09</ele><time>2010-10-10T10:32:43Z</time></trkpt><trkpt lat="42.905222" lon="0.102553"><ele>1475.28</ele><time>2010-10-10T10:32:55Z</time></trkpt><trkpt lat="42.905200" lon="0.102617"><ele>1474.80</ele><time>2010-10-10T10:32:56Z</time></trkpt><trkpt lat="42.905178" lon="0.102683"><ele>1474.32</ele><time>2010-10-10T10:32:57Z</time></trkpt><trkpt lat="42.905133" lon="0.102744"><ele>1473.84</ele><time>2010-10-10T10:32:58Z</time></trkpt><trkpt lat="42.905088" lon="0.102798"><ele>1473.36</ele><time>2010-10-10T10:32:59Z</time></trkpt><trkpt lat="42.904410" lon="0.103558"><ele>1464.71</ele><time>2010-10-10T10:33:12Z</time></trkpt><trkpt lat="42.904359" lon="0.103589"><ele>1464.71</ele><time>2010-10-10T10:33:13Z</time></trkpt><trkpt lat="42.904305" lon="0.103621"><ele>1464.23</ele><time>2010-10-10T10:33:14Z</time></trkpt><trkpt lat="42.904257" lon="0.103641"><ele>1464.23</ele><time>2010-10-10T10:33:15Z</time></trkpt><trkpt lat="42.904199" lon="0.103641"><ele>1463.74</ele><time>2010-10-10T10:33:16Z</time></trkpt><trkpt lat="42.904145" lon="0.103641"><ele>1463.74</ele><time>2010-10-10T10:33:17Z</time></trkpt><trkpt lat="42.904099" lon="0.103639"><ele>1463.74</ele><time>2010-10-10T10:33:18Z</time></trkpt><trkpt lat="42.904051" lon="0.103598"><ele>1463.26</ele><time>2010-10-10T10:33:19Z</time></trkpt><trkpt lat="42.903996" lon="0.103551"><ele>1463.26</ele><time>2010-10-10T10:33:20Z</time></trkpt><trkpt lat="42.903936" lon="0.103500"><ele>1462.78</ele><time>2010-10-10T10:33:21Z</time></trkpt><trkpt lat="42.903874" lon="0.103446"><ele>1462.78</ele><time>2010-10-10T10:33:22Z</time></trkpt><trkpt lat="42.903809" lon="0.103390"><ele>1462.30</ele><time>2010-10-10T10:33:23Z</time></trkpt><trkpt lat="42.903730" lon="0.103322"><ele>1461.82</ele><time>2010-10-10T10:33:24Z</time></trkpt><trkpt lat="42.903685" lon="0.103221"><ele>1461.34</ele><time>2010-10-10T10:33:25Z</time></trkpt><trkpt lat="42.903501" lon="0.102712"><ele>1458.94</ele><time>2010-10-10T10:33:30Z</time></trkpt><trkpt lat="42.903479" lon="0.102642"><ele>1458.94</ele><time>2010-10-10T10:33:31Z</time></trkpt><trkpt lat="42.903456" lon="0.102562"><ele>1457.98</ele><time>2010-10-10T10:33:32Z</time></trkpt><trkpt lat="42.903312" lon="0.101467"><ele>1452.69</ele><time>2010-10-10T10:33:42Z</time></trkpt><trkpt lat="42.903236" lon="0.100923"><ele>1451.25</ele><time>2010-10-10T10:33:48Z</time></trkpt><trkpt lat="42.903207" lon="0.100866"><ele>1450.77</ele><time>2010-10-10T10:33:49Z</time></trkpt><trkpt lat="42.903183" lon="0.100817"><ele>1450.29</ele><time>2010-10-10T10:33:50Z</time></trkpt><trkpt lat="42.903197" lon="0.100661"><ele>1450.29</ele><time>2010-10-10T10:33:51Z</time></trkpt><trkpt lat="42.903226" lon="0.100586"><ele>1449.81</ele><time>2010-10-10T10:33:52Z</time></trkpt><trkpt lat="42.903256" lon="0.100507"><ele>1449.32</ele><time>2010-10-10T10:33:53Z</time></trkpt><trkpt lat="42.903285" lon="0.100431"><ele>1449.32</ele><time>2010-10-10T10:33:54Z</time></trkpt><trkpt lat="42.903316" lon="0.100352"><ele>1448.84</ele><time>2010-10-10T10:33:55Z</time></trkpt><trkpt lat="42.903371" lon="0.100207"><ele>1447.40</ele><time>2010-10-10T10:33:57Z</time></trkpt><trkpt lat="42.903371" lon="0.100197"><ele>1446.92</ele><time>2010-10-10T10:33:58Z</time></trkpt><trkpt lat="42.903371" lon="0.100117"><ele>1446.44</ele><time>2010-10-10T10:33:59Z</time></trkpt><trkpt lat="42.903371" lon="0.100117"><ele>1445.96</ele><time>2010-10-10T10:34:00Z</time></trkpt><trkpt lat="42.903330" lon="0.099943"><ele>1445.48</ele><time>2010-10-10T10:34:01Z</time></trkpt><trkpt lat="42.903586" lon="0.099819"><ele>1445.00</ele><time>2010-10-10T10:34:02Z</time></trkpt><trkpt lat="42.903586" lon="0.099714"><ele>1444.52</ele><time>2010-10-10T10:34:03Z</time></trkpt><trkpt lat="42.903363" lon="0.099627"><ele>1444.52</ele><time>2010-10-10T10:34:04Z</time></trkpt><trkpt lat="42.903352" lon="0.099484"><ele>1444.04</ele><time>2010-10-10T10:34:05Z</time></trkpt><trkpt lat="42.903265" lon="0.098353"><ele>1437.79</ele><time>2010-10-10T10:34:13Z</time></trkpt><trkpt lat="42.903243" lon="0.097000"><ele>1432.02</ele><time>2010-10-10T10:34:21Z</time></trkpt><trkpt lat="42.903328" lon="0.094470"><ele>1420.97</ele><time>2010-10-10T10:34:35Z</time></trkpt><trkpt lat="42.902998" lon="0.092662"><ele>1413.76</ele><time>2010-10-10T10:34:47Z</time></trkpt><trkpt lat="42.902717" lon="0.091280"><ele>1408.47</ele><time>2010-10-10T10:34:58Z</time></trkpt><trkpt lat="42.902767" lon="0.090239"><ele>1403.66</ele><time>2010-10-10T10:35:06Z</time></trkpt><trkpt lat="42.902753" lon="0.090100"><ele>1402.70</ele><time>2010-10-10T10:35:07Z</time></trkpt><trkpt lat="42.902730" lon="0.089963"><ele>1402.22</ele><time>2010-10-10T10:35:08Z</time></trkpt><trkpt lat="42.902700" lon="0.089822"><ele>1401.74</ele><time>2010-10-10T10:35:09Z</time></trkpt><trkpt lat="42.902670" lon="0.089681"><ele>1401.26</ele><time>2010-10-10T10:35:10Z</time></trkpt><trkpt lat="42.902105" lon="0.087498"><ele>1395.01</ele><time>2010-10-10T10:35:26Z</time></trkpt><trkpt lat="42.901847" lon="0.085908"><ele>1389.72</ele><time>2010-10-10T10:35:36Z</time></trkpt><trkpt lat="42.901706" lon="0.084837"><ele>1384.44</ele><time>2010-10-10T10:35:42Z</time></trkpt><trkpt lat="42.901612" lon="0.083990"><ele>1378.19</ele><time>2010-10-10T10:35:47Z</time></trkpt><trkpt lat="42.901612" lon="0.083839"><ele>1376.75</ele><time>2010-10-10T10:35:48Z</time></trkpt><trkpt lat="42.901605" lon="0.083345"><ele>1371.94</ele><time>2010-10-10T10:35:52Z</time></trkpt><trkpt lat="42.901587" lon="0.083234"><ele>1370.98</ele><time>2010-10-10T10:35:53Z</time></trkpt><trkpt lat="42.901557" lon="0.083102"><ele>1369.54</ele><time>2010-10-10T10:35:54Z</time></trkpt><trkpt lat="42.901502" lon="0.082984"><ele>1368.57</ele><time>2010-10-10T10:35:55Z</time></trkpt><trkpt lat="42.901443" lon="0.082857"><ele>1367.61</ele><time>2010-10-10T10:35:56Z</time></trkpt><trkpt lat="42.900881" lon="0.081517"><ele>1356.56</ele><time>2010-10-10T10:36:05Z</time></trkpt><trkpt lat="42.900240" lon="0.079355"><ele>1341.66</ele><time>2010-10-10T10:36:16Z</time></trkpt><trkpt lat="42.899791" lon="0.077875"><ele>1329.16</ele><time>2010-10-10T10:36:24Z</time></trkpt><trkpt lat="42.899725" lon="0.077538"><ele>1326.28</ele><time>2010-10-10T10:36:26Z</time></trkpt><trkpt lat="42.899598" lon="0.076886"><ele>1320.99</ele><time>2010-10-10T10:36:30Z</time></trkpt><trkpt lat="42.899568" lon="0.076731"><ele>1319.55</ele><time>2010-10-10T10:36:31Z</time></trkpt><trkpt lat="42.899530" lon="0.076573"><ele>1318.10</ele><time>2010-10-10T10:36:32Z</time></trkpt><trkpt lat="42.899494" lon="0.076455"><ele>1316.66</ele><time>2010-10-10T10:36:33Z</time></trkpt><trkpt lat="42.899459" lon="0.076339"><ele>1315.70</ele><time>2010-10-10T10:36:34Z</time></trkpt><trkpt lat="42.899417" lon="0.076207"><ele>1314.74</ele><time>2010-10-10T10:36:35Z</time></trkpt><trkpt lat="42.899358" lon="0.076096"><ele>1313.78</ele><time>2010-10-10T10:36:36Z</time></trkpt><trkpt lat="42.899293" lon="0.075977"><ele>1312.34</ele><time>2010-10-10T10:36:37Z</time></trkpt><trkpt lat="42.898743" lon="0.074900"><ele>1303.20</ele><time>2010-10-10T10:36:45Z</time></trkpt><trkpt lat="42.898725" lon="0.074809"><ele>1302.24</ele><time>2010-10-10T10:36:46Z</time></trkpt><trkpt lat="42.898706" lon="0.074677"><ele>1300.80</ele><time>2010-10-10T10:36:47Z</time></trkpt><trkpt lat="42.898682" lon="0.074393"><ele>1298.40</ele><time>2010-10-10T10:36:49Z</time></trkpt><trkpt lat="42.898673" lon="0.074240"><ele>1296.96</ele><time>2010-10-10T10:36:50Z</time></trkpt><trkpt lat="42.898663" lon="0.074082"><ele>1295.51</ele><time>2010-10-10T10:36:51Z</time></trkpt><trkpt lat="42.898643" lon="0.073756"><ele>1292.63</ele><time>2010-10-10T10:36:53Z</time></trkpt><trkpt lat="42.898386" lon="0.072342"><ele>1279.17</ele><time>2010-10-10T10:37:03Z</time></trkpt><trkpt lat="42.898382" lon="0.072226"><ele>1278.21</ele><time>2010-10-10T10:37:04Z</time></trkpt><trkpt lat="42.898346" lon="0.070830"><ele>1265.23</ele><time>2010-10-10T10:37:16Z</time></trkpt><trkpt lat="42.898084" lon="0.069560"><ele>1256.58</ele><time>2010-10-10T10:37:26Z</time></trkpt><trkpt lat="42.897866" lon="0.068409"><ele>1247.45</ele><time>2010-10-10T10:37:37Z</time></trkpt><trkpt lat="42.897844" lon="0.068267"><ele>1246.01</ele><time>2010-10-10T10:37:39Z</time></trkpt><trkpt lat="42.897835" lon="0.068203"><ele>1245.04</ele><time>2010-10-10T10:37:40Z</time></trkpt><trkpt lat="42.897792" lon="0.067922"><ele>1242.16</ele><time>2010-10-10T10:37:45Z</time></trkpt><trkpt lat="42.897647" lon="0.067277"><ele>1237.83</ele><time>2010-10-10T10:37:55Z</time></trkpt><trkpt lat="42.897625" lon="0.067200"><ele>1237.35</ele><time>2010-10-10T10:37:56Z</time></trkpt><trkpt lat="42.897603" lon="0.067122"><ele>1237.35</ele><time>2010-10-10T10:37:57Z</time></trkpt><trkpt lat="42.897579" lon="0.067039"><ele>1236.87</ele><time>2010-10-10T10:37:58Z</time></trkpt><trkpt lat="42.897405" lon="0.066555"><ele>1234.95</ele><time>2010-10-10T10:38:04Z</time></trkpt><trkpt lat="42.897376" lon="0.066474"><ele>1234.47</ele><time>2010-10-10T10:38:05Z</time></trkpt><trkpt lat="42.897322" lon="0.066322"><ele>1233.99</ele><time>2010-10-10T10:38:07Z</time></trkpt><trkpt lat="42.897297" lon="0.066255"><ele>1233.51</ele><time>2010-10-10T10:38:08Z</time></trkpt><trkpt lat="42.897275" lon="0.066193"><ele>1233.03</ele><time>2010-10-10T10:38:09Z</time></trkpt><trkpt lat="42.897105" lon="0.065808"><ele>1229.18</ele><time>2010-10-10T10:38:19Z</time></trkpt><trkpt lat="42.897113" lon="0.065663"><ele>1229.18</ele><time>2010-10-10T10:38:20Z</time></trkpt><trkpt lat="42.897139" lon="0.065643"><ele>1228.70</ele><time>2010-10-10T10:38:21Z</time></trkpt><trkpt lat="42.897168" lon="0.065619"><ele>1228.70</ele><time>2010-10-10T10:38:22Z</time></trkpt><trkpt lat="42.897200" lon="0.065594"><ele>1228.22</ele><time>2010-10-10T10:38:23Z</time></trkpt><trkpt lat="42.897314" lon="0.065423"><ele>1225.34</ele><time>2010-10-10T10:38:28Z</time></trkpt><trkpt lat="42.897297" lon="0.065366"><ele>1224.86</ele><time>2010-10-10T10:38:29Z</time></trkpt><trkpt lat="42.897219" lon="0.065092"><ele>1222.45</ele><time>2010-10-10T10:38:33Z</time></trkpt><trkpt lat="42.897198" lon="0.065016"><ele>1221.97</ele><time>2010-10-10T10:38:34Z</time></trkpt><trkpt lat="42.897176" lon="0.064939"><ele>1221.49</ele><time>2010-10-10T10:38:35Z</time></trkpt><trkpt lat="42.897149" lon="0.064792"><ele>1220.53</ele><time>2010-10-10T10:38:37Z</time></trkpt><trkpt lat="42.897149" lon="0.064298"><ele>1218.13</ele><time>2010-10-10T10:38:44Z</time></trkpt><trkpt lat="42.897119" lon="0.064112"><ele>1217.65</ele><time>2010-10-10T10:38:47Z</time></trkpt><trkpt lat="42.897100" lon="0.064057"><ele>1217.17</ele><time>2010-10-10T10:38:48Z</time></trkpt><trkpt lat="42.897080" lon="0.063996"><ele>1216.69</ele><time>2010-10-10T10:38:49Z</time></trkpt><trkpt lat="42.896757" lon="0.063465"><ele>1213.32</ele><time>2010-10-10T10:38:57Z</time></trkpt><trkpt lat="42.896718" lon="0.063410"><ele>1212.84</ele><time>2010-10-10T10:38:58Z</time></trkpt><trkpt lat="42.896548" lon="0.063171"><ele>1210.92</ele><time>2010-10-10T10:39:03Z</time></trkpt><trkpt lat="42.896539" lon="0.063167"><ele>1210.44</ele><time>2010-10-10T10:39:04Z</time></trkpt><trkpt lat="42.896505" lon="0.063150"><ele>1210.44</ele><time>2010-10-10T10:39:05Z</time></trkpt><trkpt lat="42.896472" lon="0.063134"><ele>1210.92</ele><time>2010-10-10T10:39:06Z</time></trkpt><trkpt lat="42.896434" lon="0.063115"><ele>1211.88</ele><time>2010-10-10T10:39:07Z</time></trkpt><trkpt lat="42.896242" lon="0.063047"><ele>1213.32</ele><time>2010-10-10T10:39:12Z</time></trkpt><trkpt lat="42.896243" lon="0.063066"><ele>1213.32</ele><time>2010-10-10T10:39:13Z</time></trkpt><trkpt lat="42.896245" lon="0.063090"><ele>1213.32</ele><time>2010-10-10T10:39:14Z</time></trkpt><trkpt lat="42.896245" lon="0.063090"><ele>1212.84</ele><time>2010-10-10T10:39:15Z</time></trkpt><trkpt lat="42.896245" lon="0.063090"><ele>1212.84</ele><time>2010-10-10T10:39:16Z</time></trkpt><trkpt lat="42.896245" lon="0.063090"><ele>1213.32</ele><time>2010-10-10T10:39:17Z</time></trkpt><trkpt lat="42.896245" lon="0.063090"><ele>1212.84</ele><time>2010-10-10T10:39:18Z</time></trkpt><trkpt lat="42.896334" lon="0.063186"><ele>1212.84</ele><time>2010-10-10T10:39:19Z</time></trkpt><trkpt lat="42.896356" lon="0.063201"><ele>1212.36</ele><time>2010-10-10T10:39:20Z</time></trkpt><trkpt lat="42.896381" lon="0.063217"><ele>1211.88</ele><time>2010-10-10T10:39:21Z</time></trkpt><trkpt lat="42.896405" lon="0.063233"><ele>1211.88</ele><time>2010-10-10T10:39:22Z</time></trkpt><trkpt lat="42.896427" lon="0.063248"><ele>1211.88</ele><time>2010-10-10T10:39:23Z</time></trkpt><trkpt lat="42.896461" lon="0.063271"><ele>1212.36</ele><time>2010-10-10T10:39:34Z</time></trkpt><trkpt lat="42.896461" lon="0.063271"><ele>1210.92</ele><time>2010-10-10T10:43:10Z</time></trkpt><trkpt lat="42.896461" lon="0.063271"><ele>1211.88</ele><time>2010-10-10T10:43:44Z</time></trkpt><trkpt lat="42.896461" lon="0.063271"><ele>1213.80</ele><time>2010-10-10T10:45:12Z</time></trkpt><trkpt lat="42.896461" lon="0.063271"><ele>1213.80</ele><time>2010-10-10T10:46:03Z</time></trkpt><trkpt lat="42.896461" lon="0.063271"><ele>1214.76</ele><time>2010-10-10T10:46:21Z</time></trkpt><trkpt lat="42.896461" lon="0.063271"><ele>1214.28</ele><time>2010-10-10T10:46:39Z</time></trkpt><trkpt lat="42.896461" lon="0.063271"><ele>1214.28</ele><time>2010-10-10T10:46:54Z</time></trkpt><trkpt lat="42.896490" lon="0.063290"><ele>1215.24</ele><time>2010-10-10T10:47:05Z</time></trkpt><trkpt lat="42.896502" lon="0.063298"><ele>1214.76</ele><time>2010-10-10T10:47:06Z</time></trkpt><trkpt lat="42.896505" lon="0.063300"><ele>1214.76</ele><time>2010-10-10T10:47:07Z</time></trkpt><trkpt lat="42.896651" lon="0.063472"><ele>1212.84</ele><time>2010-10-10T10:47:13Z</time></trkpt><trkpt lat="42.896674" lon="0.063472"><ele>1212.36</ele><time>2010-10-10T10:47:14Z</time></trkpt><trkpt lat="42.896694" lon="0.063472"><ele>1211.88</ele><time>2010-10-10T10:47:15Z</time></trkpt><trkpt lat="42.896711" lon="0.063472"><ele>1211.40</ele><time>2010-10-10T10:47:16Z</time></trkpt><trkpt lat="42.896693" lon="0.063375"><ele>1211.40</ele><time>2010-10-10T10:47:17Z</time></trkpt><trkpt lat="42.896670" lon="0.063343"><ele>1210.92</ele><time>2010-10-10T10:47:18Z</time></trkpt><trkpt lat="42.896642" lon="0.063303"><ele>1210.92</ele><time>2010-10-10T10:47:19Z</time></trkpt><trkpt lat="42.896609" lon="0.063258"><ele>1210.92</ele><time>2010-10-10T10:47:20Z</time></trkpt><trkpt lat="42.896575" lon="0.063209"><ele>1210.44</ele><time>2010-10-10T10:47:21Z</time></trkpt><trkpt lat="42.896548" lon="0.063171"><ele>1210.44</ele><time>2010-10-10T10:47:22Z</time></trkpt><trkpt lat="42.896548" lon="0.063171"><ele>1210.44</ele><time>2010-10-10T10:47:23Z</time></trkpt><trkpt lat="42.896513" lon="0.063154"><ele>1210.44</ele><time>2010-10-10T10:47:24Z</time></trkpt><trkpt lat="42.896478" lon="0.063137"><ele>1210.44</ele><time>2010-10-10T10:47:25Z</time></trkpt><trkpt lat="42.896437" lon="0.063116"><ele>1210.44</ele><time>2010-10-10T10:47:26Z</time></trkpt><trkpt lat="42.896400" lon="0.063097"><ele>1210.44</ele><time>2010-10-10T10:47:27Z</time></trkpt><trkpt lat="42.896241" lon="0.063029"><ele>1210.92</ele><time>2010-10-10T10:47:30Z</time></trkpt><trkpt lat="42.896239" lon="0.063001"><ele>1210.92</ele><time>2010-10-10T10:47:31Z</time></trkpt><trkpt lat="42.896236" lon="0.062964"><ele>1210.92</ele><time>2010-10-10T10:47:32Z</time></trkpt><trkpt lat="42.896232" lon="0.062911"><ele>1210.92</ele><time>2010-10-10T10:47:33Z</time></trkpt><trkpt lat="42.896228" lon="0.062845"><ele>1210.92</ele><time>2010-10-10T10:47:34Z</time></trkpt><trkpt lat="42.896192" lon="0.062326"><ele>1209.00</ele><time>2010-10-10T10:47:43Z</time></trkpt><trkpt lat="42.896183" lon="0.062196"><ele>1208.51</ele><time>2010-10-10T10:47:47Z</time></trkpt><trkpt lat="42.896178" lon="0.062126"><ele>1208.03</ele><time>2010-10-10T10:47:48Z</time></trkpt><trkpt lat="42.896172" lon="0.062043"><ele>1207.55</ele><time>2010-10-10T10:47:49Z</time></trkpt><trkpt lat="42.896166" lon="0.061953"><ele>1207.55</ele><time>2010-10-10T10:47:50Z</time></trkpt><trkpt lat="42.896162" lon="0.061859"><ele>1207.55</ele><time>2010-10-10T10:47:51Z</time></trkpt><trkpt lat="42.896126" lon="0.060916"><ele>1204.19</ele><time>2010-10-10T10:48:00Z</time></trkpt><trkpt lat="42.896107" lon="0.060810"><ele>1203.23</ele><time>2010-10-10T10:48:01Z</time></trkpt><trkpt lat="42.896028" lon="0.060232"><ele>1199.86</ele><time>2010-10-10T10:48:06Z</time></trkpt><trkpt lat="42.895990" lon="0.059910"><ele>1197.94</ele><time>2010-10-10T10:48:09Z</time></trkpt><trkpt lat="42.895972" lon="0.059819"><ele>1196.98</ele><time>2010-10-10T10:48:10Z</time></trkpt><trkpt lat="42.895952" lon="0.059722"><ele>1196.50</ele><time>2010-10-10T10:48:11Z</time></trkpt><trkpt lat="42.895899" lon="0.059647"><ele>1195.54</ele><time>2010-10-10T10:48:12Z</time></trkpt><trkpt lat="42.895837" lon="0.059586"><ele>1194.58</ele><time>2010-10-10T10:48:13Z</time></trkpt><trkpt lat="42.895780" lon="0.059529"><ele>1194.09</ele><time>2010-10-10T10:48:14Z</time></trkpt><trkpt lat="42.895722" lon="0.059481"><ele>1193.13</ele><time>2010-10-10T10:48:15Z</time></trkpt><trkpt lat="42.895648" lon="0.059486"><ele>1192.17</ele><time>2010-10-10T10:48:16Z</time></trkpt><trkpt lat="42.895570" lon="0.059492"><ele>1191.21</ele><time>2010-10-10T10:48:17Z</time></trkpt><trkpt lat="42.895493" lon="0.059497"><ele>1190.25</ele><time>2010-10-10T10:48:18Z</time></trkpt><trkpt lat="42.895415" lon="0.059502"><ele>1189.77</ele><time>2010-10-10T10:48:19Z</time></trkpt><trkpt lat="42.895174" lon="0.059518"><ele>1187.85</ele><time>2010-10-10T10:48:22Z</time></trkpt><trkpt lat="42.895103" lon="0.059523"><ele>1187.37</ele><time>2010-10-10T10:48:23Z</time></trkpt><trkpt lat="42.895033" lon="0.059496"><ele>1186.40</ele><time>2010-10-10T10:48:24Z</time></trkpt><trkpt lat="42.894990" lon="0.059428"><ele>1185.92</ele><time>2010-10-10T10:48:25Z</time></trkpt><trkpt lat="42.894971" lon="0.059352"><ele>1184.96</ele><time>2010-10-10T10:48:26Z</time></trkpt><trkpt lat="42.894960" lon="0.059269"><ele>1184.48</ele><time>2010-10-10T10:48:27Z</time></trkpt><trkpt lat="42.894960" lon="0.059185"><ele>1184.00</ele><time>2010-10-10T10:48:28Z</time></trkpt><trkpt lat="42.894960" lon="0.059108"><ele>1183.04</ele><time>2010-10-10T10:48:29Z</time></trkpt><trkpt lat="42.895009" lon="0.059003"><ele>1182.56</ele><time>2010-10-10T10:48:30Z</time></trkpt><trkpt lat="42.895089" lon="0.058966"><ele>1181.60</ele><time>2010-10-10T10:48:31Z</time></trkpt><trkpt lat="42.895160" lon="0.058966"><ele>1180.64</ele><time>2010-10-10T10:48:32Z</time></trkpt><trkpt lat="42.895229" lon="0.058993"><ele>1179.67</ele><time>2010-10-10T10:48:33Z</time></trkpt><trkpt lat="42.895289" lon="0.059023"><ele>1178.71</ele><time>2010-10-10T10:48:34Z</time></trkpt><trkpt lat="42.895346" lon="0.059052"><ele>1178.23</ele><time>2010-10-10T10:48:35Z</time></trkpt><trkpt lat="42.895380" lon="0.059045"><ele>1177.27</ele><time>2010-10-10T10:48:36Z</time></trkpt><trkpt lat="42.895432" lon="0.059034"><ele>1176.31</ele><time>2010-10-10T10:48:37Z</time></trkpt><trkpt lat="42.895489" lon="0.059023"><ele>1175.35</ele><time>2010-10-10T10:48:38Z</time></trkpt><trkpt lat="42.895550" lon="0.059011"><ele>1174.87</ele><time>2010-10-10T10:48:39Z</time></trkpt><trkpt lat="42.895563" lon="0.059005"><ele>1174.87</ele><time>2010-10-10T10:48:40Z</time></trkpt><trkpt lat="42.895596" lon="0.058938"><ele>1174.87</ele><time>2010-10-10T10:48:41Z</time></trkpt><trkpt lat="42.895630" lon="0.058870"><ele>1174.39</ele><time>2010-10-10T10:48:42Z</time></trkpt><trkpt lat="42.895647" lon="0.058837"><ele>1173.91</ele><time>2010-10-10T10:48:43Z</time></trkpt><trkpt lat="42.895647" lon="0.058837"><ele>1173.91</ele><time>2010-10-10T10:48:44Z</time></trkpt><trkpt lat="42.895634" lon="0.058800"><ele>1173.43</ele><time>2010-10-10T10:48:45Z</time></trkpt><trkpt lat="42.895607" lon="0.058718"><ele>1172.95</ele><time>2010-10-10T10:48:46Z</time></trkpt><trkpt lat="42.895548" lon="0.058667"><ele>1171.98</ele><time>2010-10-10T10:48:47Z</time></trkpt><trkpt lat="42.895470" lon="0.058608"><ele>1171.02</ele><time>2010-10-10T10:48:48Z</time></trkpt><trkpt lat="42.894967" lon="0.058167"><ele>1165.74</ele><time>2010-10-10T10:48:54Z</time></trkpt><trkpt lat="42.894886" lon="0.058064"><ele>1164.77</ele><time>2010-10-10T10:48:55Z</time></trkpt><trkpt lat="42.894411" lon="0.057242"><ele>1159.01</ele><time>2010-10-10T10:49:02Z</time></trkpt><trkpt lat="42.894358" lon="0.057098"><ele>1158.05</ele><time>2010-10-10T10:49:03Z</time></trkpt><trkpt lat="42.894071" lon="0.056264"><ele>1152.28</ele><time>2010-10-10T10:49:09Z</time></trkpt><trkpt lat="42.893898" lon="0.055839"><ele>1149.87</ele><time>2010-10-10T10:49:12Z</time></trkpt><trkpt lat="42.893564" lon="0.055054"><ele>1149.39</ele><time>2010-10-10T10:49:17Z</time></trkpt><trkpt lat="42.893222" lon="0.054202"><ele>1146.51</ele><time>2010-10-10T10:49:22Z</time></trkpt><trkpt lat="42.893148" lon="0.054055"><ele>1145.55</ele><time>2010-10-10T10:49:23Z</time></trkpt><trkpt lat="42.893078" lon="0.053914"><ele>1145.07</ele><time>2010-10-10T10:49:24Z</time></trkpt><trkpt lat="42.893029" lon="0.053815"><ele>1143.63</ele><time>2010-10-10T10:49:25Z</time></trkpt><trkpt lat="42.892999" lon="0.053658"><ele>1142.66</ele><time>2010-10-10T10:49:26Z</time></trkpt><trkpt lat="42.892970" lon="0.053506"><ele>1141.70</ele><time>2010-10-10T10:49:27Z</time></trkpt><trkpt lat="42.892857" lon="0.052915"><ele>1137.86</ele><time>2010-10-10T10:49:31Z</time></trkpt><trkpt lat="42.892768" lon="0.052705"><ele>1135.94</ele><time>2010-10-10T10:49:33Z</time></trkpt><trkpt lat="42.892713" lon="0.052574"><ele>1134.49</ele><time>2010-10-10T10:49:34Z</time></trkpt><trkpt lat="42.892166" lon="0.051250"><ele>1123.44</ele><time>2010-10-10T10:49:43Z</time></trkpt><trkpt lat="42.892081" lon="0.051118"><ele>1123.44</ele><time>2010-10-10T10:49:44Z</time></trkpt><trkpt lat="42.891930" lon="0.050997"><ele>1122.96</ele><time>2010-10-10T10:49:46Z</time></trkpt><trkpt lat="42.891853" lon="0.050948"><ele>1122.48</ele><time>2010-10-10T10:49:47Z</time></trkpt><trkpt lat="42.891147" lon="0.050504"><ele>1117.19</ele><time>2010-10-10T10:49:55Z</time></trkpt><trkpt lat="42.891075" lon="0.050405"><ele>1116.71</ele><time>2010-10-10T10:49:56Z</time></trkpt><trkpt lat="42.890611" lon="0.049663"><ele>1110.46</ele><time>2010-10-10T10:50:03Z</time></trkpt><trkpt lat="42.890583" lon="0.049576"><ele>1109.50</ele><time>2010-10-10T10:50:04Z</time></trkpt><trkpt lat="42.890583" lon="0.049455"><ele>1108.54</ele><time>2010-10-10T10:50:05Z</time></trkpt><trkpt lat="42.890583" lon="0.049330"><ele>1108.06</ele><time>2010-10-10T10:50:06Z</time></trkpt><trkpt lat="42.890583" lon="0.049209"><ele>1106.61</ele><time>2010-10-10T10:50:07Z</time></trkpt><trkpt lat="42.890511" lon="0.048876"><ele>1103.73</ele><time>2010-10-10T10:50:10Z</time></trkpt><trkpt lat="42.890486" lon="0.048783"><ele>1103.25</ele><time>2010-10-10T10:50:11Z</time></trkpt><trkpt lat="42.890440" lon="0.048652"><ele>1102.29</ele><time>2010-10-10T10:50:12Z</time></trkpt><trkpt lat="42.890370" lon="0.048582"><ele>1101.81</ele><time>2010-10-10T10:50:13Z</time></trkpt><trkpt lat="42.890295" lon="0.048507"><ele>1101.33</ele><time>2010-10-10T10:50:14Z</time></trkpt><trkpt lat="42.890190" lon="0.048370"><ele>1100.37</ele><time>2010-10-10T10:50:16Z</time></trkpt><trkpt lat="42.890175" lon="0.048279"><ele>1099.89</ele><time>2010-10-10T10:50:17Z</time></trkpt><trkpt lat="42.890160" lon="0.048193"><ele>1099.40</ele><time>2010-10-10T10:50:18Z</time></trkpt><trkpt lat="42.890153" lon="0.048151"><ele>1098.44</ele><time>2010-10-10T10:50:19Z</time></trkpt><trkpt lat="42.890153" lon="0.048151"><ele>1097.96</ele><time>2010-10-10T10:50:20Z</time></trkpt><trkpt lat="42.890185" lon="0.048119"><ele>1097.00</ele><time>2010-10-10T10:50:21Z</time></trkpt><trkpt lat="42.890229" lon="0.048075"><ele>1096.52</ele><time>2010-10-10T10:50:22Z</time></trkpt><trkpt lat="42.890269" lon="0.048036"><ele>1096.04</ele><time>2010-10-10T10:50:23Z</time></trkpt><trkpt lat="42.890336" lon="0.048049"><ele>1095.08</ele><time>2010-10-10T10:50:24Z</time></trkpt><trkpt lat="42.890408" lon="0.048118"><ele>1094.60</ele><time>2010-10-10T10:50:25Z</time></trkpt><trkpt lat="42.890497" lon="0.048237"><ele>1093.64</ele><time>2010-10-10T10:50:26Z</time></trkpt><trkpt lat="42.890706" lon="0.048591"><ele>1091.71</ele><time>2010-10-10T10:50:30Z</time></trkpt><trkpt lat="42.890774" lon="0.048673"><ele>1090.75</ele><time>2010-10-10T10:50:31Z</time></trkpt><trkpt lat="42.890836" lon="0.048747"><ele>1089.79</ele><time>2010-10-10T10:50:32Z</time></trkpt><trkpt lat="42.890916" lon="0.048777"><ele>1088.83</ele><time>2010-10-10T10:50:33Z</time></trkpt><trkpt lat="42.890997" lon="0.048780"><ele>1087.87</ele><time>2010-10-10T10:50:34Z</time></trkpt><trkpt lat="42.891070" lon="0.048722"><ele>1087.39</ele><time>2010-10-10T10:50:35Z</time></trkpt><trkpt lat="42.891103" lon="0.048655"><ele>1086.91</ele><time>2010-10-10T10:50:36Z</time></trkpt><trkpt lat="42.891125" lon="0.048533"><ele>1086.43</ele><time>2010-10-10T10:50:37Z</time></trkpt><trkpt lat="42.891100" lon="0.048458"><ele>1086.43</ele><time>2010-10-10T10:50:38Z</time></trkpt><trkpt lat="42.891071" lon="0.048371"><ele>1085.95</ele><time>2010-10-10T10:50:39Z</time></trkpt><trkpt lat="42.891026" lon="0.048276"><ele>1085.47</ele><time>2010-10-10T10:50:40Z</time></trkpt><trkpt lat="42.890967" lon="0.048182"><ele>1084.99</ele><time>2010-10-10T10:50:41Z</time></trkpt><trkpt lat="42.890367" lon="0.047306"><ele>1079.22</ele><time>2010-10-10T10:50:49Z</time></trkpt><trkpt lat="42.890299" lon="0.047245"><ele>1078.26</ele><time>2010-10-10T10:50:50Z</time></trkpt><trkpt lat="42.890235" lon="0.047189"><ele>1076.81</ele><time>2010-10-10T10:50:51Z</time></trkpt><trkpt lat="42.890170" lon="0.047131"><ele>1075.85</ele><time>2010-10-10T10:50:52Z</time></trkpt><trkpt lat="42.890111" lon="0.047078"><ele>1074.41</ele><time>2010-10-10T10:50:53Z</time></trkpt><trkpt lat="42.890030" lon="0.047048"><ele>1073.45</ele><time>2010-10-10T10:50:54Z</time></trkpt><trkpt lat="42.889939" lon="0.047014"><ele>1072.49</ele><time>2010-10-10T10:50:55Z</time></trkpt><trkpt lat="42.889844" lon="0.046978"><ele>1071.53</ele><time>2010-10-10T10:50:56Z</time></trkpt><trkpt lat="42.888726" lon="0.046383"><ele>1059.51</ele><time>2010-10-10T10:51:07Z</time></trkpt><trkpt lat="42.888615" lon="0.046372"><ele>1058.55</ele><time>2010-10-10T10:51:08Z</time></trkpt><trkpt lat="42.887797" lon="0.046131"><ele>1050.86</ele><time>2010-10-10T10:51:15Z</time></trkpt><trkpt lat="42.887689" lon="0.046063"><ele>1049.90</ele><time>2010-10-10T10:51:16Z</time></trkpt><trkpt lat="42.887599" lon="0.045972"><ele>1048.94</ele><time>2010-10-10T10:51:17Z</time></trkpt><trkpt lat="42.887512" lon="0.045870"><ele>1047.97</ele><time>2010-10-10T10:51:18Z</time></trkpt><trkpt lat="42.887426" lon="0.045770"><ele>1047.01</ele><time>2010-10-10T10:51:19Z</time></trkpt><trkpt lat="42.887356" lon="0.045659"><ele>1046.53</ele><time>2010-10-10T10:51:20Z</time></trkpt><trkpt lat="42.887288" lon="0.045540"><ele>1045.57</ele><time>2010-10-10T10:51:21Z</time></trkpt><trkpt lat="42.887223" lon="0.045426"><ele>1044.61</ele><time>2010-10-10T10:51:22Z</time></trkpt><trkpt lat="42.887106" lon="0.045222"><ele>1043.17</ele><time>2010-10-10T10:51:24Z</time></trkpt><trkpt lat="42.887051" lon="0.045140"><ele>1042.69</ele><time>2010-10-10T10:51:25Z</time></trkpt><trkpt lat="42.886975" lon="0.045103"><ele>1041.73</ele><time>2010-10-10T10:51:26Z</time></trkpt><trkpt lat="42.886895" lon="0.045063"><ele>1041.25</ele><time>2010-10-10T10:51:27Z</time></trkpt><trkpt lat="42.886811" lon="0.045021"><ele>1040.28</ele><time>2010-10-10T10:51:28Z</time></trkpt><trkpt lat="42.886571" lon="0.044844"><ele>1037.88</ele><time>2010-10-10T10:51:31Z</time></trkpt><trkpt lat="42.886491" lon="0.044775"><ele>1037.40</ele><time>2010-10-10T10:51:32Z</time></trkpt><trkpt lat="42.885761" lon="0.043842"><ele>1028.75</ele><time>2010-10-10T10:51:41Z</time></trkpt><trkpt lat="42.885295" lon="0.043030"><ele>1021.06</ele><time>2010-10-10T10:51:50Z</time></trkpt><trkpt lat="42.885244" lon="0.042972"><ele>1020.10</ele><time>2010-10-10T10:51:51Z</time></trkpt><trkpt lat="42.885189" lon="0.042912"><ele>1019.13</ele><time>2010-10-10T10:51:52Z</time></trkpt><trkpt lat="42.885127" lon="0.042843"><ele>1018.17</ele><time>2010-10-10T10:51:53Z</time></trkpt><trkpt lat="42.885058" lon="0.042766"><ele>1017.21</ele><time>2010-10-10T10:51:54Z</time></trkpt><trkpt lat="42.884984" lon="0.042684"><ele>1016.25</ele><time>2010-10-10T10:51:55Z</time></trkpt><trkpt lat="42.884149" lon="0.041525"><ele>1006.64</ele><time>2010-10-10T10:52:05Z</time></trkpt><trkpt lat="42.883098" lon="0.040065"><ele>994.62</ele><time>2010-10-10T10:52:17Z</time></trkpt><trkpt lat="42.882950" lon="0.039940"><ele>992.70</ele><time>2010-10-10T10:52:19Z</time></trkpt><trkpt lat="42.882873" lon="0.039912"><ele>992.22</ele><time>2010-10-10T10:52:20Z</time></trkpt><trkpt lat="42.882805" lon="0.039886"><ele>991.26</ele><time>2010-10-10T10:52:21Z</time></trkpt><trkpt lat="42.882610" lon="0.039792"><ele>988.85</ele><time>2010-10-10T10:52:24Z</time></trkpt><trkpt lat="42.882557" lon="0.039740"><ele>987.89</ele><time>2010-10-10T10:52:25Z</time></trkpt><trkpt lat="42.882557" lon="0.039674"><ele>987.41</ele><time>2010-10-10T10:52:26Z</time></trkpt><trkpt lat="42.882557" lon="0.039598"><ele>986.93</ele><time>2010-10-10T10:52:27Z</time></trkpt><trkpt lat="42.882566" lon="0.039562"><ele>985.97</ele><time>2010-10-10T10:52:28Z</time></trkpt><trkpt lat="42.882611" lon="0.039532"><ele>985.49</ele><time>2010-10-10T10:52:29Z</time></trkpt><trkpt lat="42.882686" lon="0.039482"><ele>985.01</ele><time>2010-10-10T10:52:30Z</time></trkpt><trkpt lat="42.882714" lon="0.039482"><ele>985.01</ele><time>2010-10-10T10:52:31Z</time></trkpt><trkpt lat="42.882792" lon="0.039495"><ele>985.01</ele><time>2010-10-10T10:52:32Z</time></trkpt><trkpt lat="42.882869" lon="0.039547"><ele>985.01</ele><time>2010-10-10T10:52:33Z</time></trkpt><trkpt lat="42.883112" lon="0.039755"><ele>985.01</ele><time>2010-10-10T10:52:36Z</time></trkpt><trkpt lat="42.883180" lon="0.039839"><ele>985.01</ele><time>2010-10-10T10:52:37Z</time></trkpt><trkpt lat="42.883248" lon="0.039923"><ele>985.01</ele><time>2010-10-10T10:52:38Z</time></trkpt><trkpt lat="42.883321" lon="0.040013"><ele>985.01</ele><time>2010-10-10T10:52:39Z</time></trkpt><trkpt lat="42.883396" lon="0.040105"><ele>985.01</ele><time>2010-10-10T10:52:40Z</time></trkpt><trkpt lat="42.883468" lon="0.040193"><ele>984.53</ele><time>2010-10-10T10:52:41Z</time></trkpt><trkpt lat="42.883532" lon="0.040272"><ele>984.05</ele><time>2010-10-10T10:52:42Z</time></trkpt><trkpt lat="42.883584" lon="0.040336"><ele>983.57</ele><time>2010-10-10T10:52:43Z</time></trkpt><trkpt lat="42.883624" lon="0.040328"><ele>983.09</ele><time>2010-10-10T10:52:44Z</time></trkpt><trkpt lat="42.883678" lon="0.040310"><ele>982.60</ele><time>2010-10-10T10:52:45Z</time></trkpt><trkpt lat="42.883716" lon="0.040298"><ele>982.12</ele><time>2010-10-10T10:52:46Z</time></trkpt><trkpt lat="42.883759" lon="0.040169"><ele>981.16</ele><time>2010-10-10T10:52:47Z</time></trkpt><trkpt lat="42.883742" lon="0.040122"><ele>981.16</ele><time>2010-10-10T10:52:48Z</time></trkpt><trkpt lat="42.883703" lon="0.040012"><ele>980.68</ele><time>2010-10-10T10:52:49Z</time></trkpt><trkpt lat="42.883657" lon="0.039883"><ele>980.20</ele><time>2010-10-10T10:52:50Z</time></trkpt><trkpt lat="42.883183" lon="0.038609"><ele>972.99</ele><time>2010-10-10T10:52:58Z</time></trkpt><trkpt lat="42.882828" lon="0.037796"><ele>968.18</ele><time>2010-10-10T10:53:03Z</time></trkpt><trkpt lat="42.882724" lon="0.037427"><ele>965.78</ele><time>2010-10-10T10:53:05Z</time></trkpt><trkpt lat="42.882536" lon="0.035886"><ele>955.69</ele><time>2010-10-10T10:53:13Z</time></trkpt><trkpt lat="42.882521" lon="0.035758"><ele>954.73</ele><time>2010-10-10T10:53:14Z</time></trkpt><trkpt lat="42.882562" lon="0.035541"><ele>951.84</ele><time>2010-10-10T10:53:16Z</time></trkpt><trkpt lat="42.882586" lon="0.035455"><ele>950.40</ele><time>2010-10-10T10:53:17Z</time></trkpt><trkpt lat="42.882603" lon="0.035401"><ele>949.44</ele><time>2010-10-10T10:53:18Z</time></trkpt><trkpt lat="42.882624" lon="0.035358"><ele>948.00</ele><time>2010-10-10T10:53:19Z</time></trkpt><trkpt lat="42.882641" lon="0.035324"><ele>947.04</ele><time>2010-10-10T10:53:20Z</time></trkpt><trkpt lat="42.882654" lon="0.035298"><ele>945.59</ele><time>2010-10-10T10:53:21Z</time></trkpt><trkpt lat="42.882654" lon="0.035298"><ele>944.15</ele><time>2010-10-10T10:53:31Z</time></trkpt><trkpt lat="42.882664" lon="0.035278"><ele>944.15</ele><time>2010-10-10T10:53:36Z</time></trkpt><trkpt lat="42.882810" lon="0.034987"><ele>941.27</ele><time>2010-10-10T10:53:43Z</time></trkpt><trkpt lat="42.882841" lon="0.034923"><ele>941.27</ele><time>2010-10-10T10:53:44Z</time></trkpt><trkpt lat="42.882884" lon="0.034830"><ele>940.79</ele><time>2010-10-10T10:53:45Z</time></trkpt><trkpt lat="42.882929" lon="0.034724"><ele>940.79</ele><time>2010-10-10T10:53:46Z</time></trkpt><trkpt lat="42.882979" lon="0.034608"><ele>940.79</ele><time>2010-10-10T10:53:47Z</time></trkpt><trkpt lat="42.883004" lon="0.034434"><ele>940.31</ele><time>2010-10-10T10:53:48Z</time></trkpt><trkpt lat="42.883021" lon="0.034282"><ele>940.31</ele><time>2010-10-10T10:53:49Z</time></trkpt><trkpt lat="42.883025" lon="0.034103"><ele>939.83</ele><time>2010-10-10T10:53:50Z</time></trkpt><trkpt lat="42.883018" lon="0.033924"><ele>939.35</ele><time>2010-10-10T10:53:51Z</time></trkpt><trkpt lat="42.883010" lon="0.033737"><ele>938.86</ele><time>2010-10-10T10:53:52Z</time></trkpt><trkpt lat="42.883026" lon="0.032948"><ele>935.02</ele><time>2010-10-10T10:53:56Z</time></trkpt><trkpt lat="42.883062" lon="0.032746"><ele>933.58</ele><time>2010-10-10T10:53:57Z</time></trkpt><trkpt lat="42.883097" lon="0.032546"><ele>932.62</ele><time>2010-10-10T10:53:58Z</time></trkpt><trkpt lat="42.883138" lon="0.032372"><ele>931.65</ele><time>2010-10-10T10:53:59Z</time></trkpt><trkpt lat="42.883193" lon="0.032199"><ele>930.21</ele><time>2010-10-10T10:54:00Z</time></trkpt><trkpt lat="42.883246" lon="0.032030"><ele>929.25</ele><time>2010-10-10T10:54:01Z</time></trkpt><trkpt lat="42.883350" lon="0.031701"><ele>926.37</ele><time>2010-10-10T10:54:03Z</time></trkpt><trkpt lat="42.883373" lon="0.031534"><ele>924.93</ele><time>2010-10-10T10:54:04Z</time></trkpt><trkpt lat="42.883373" lon="0.031366"><ele>923.96</ele><time>2010-10-10T10:54:05Z</time></trkpt><trkpt lat="42.883373" lon="0.031192"><ele>922.52</ele><time>2010-10-10T10:54:06Z</time></trkpt><trkpt lat="42.883337" lon="0.031014"><ele>921.08</ele><time>2010-10-10T10:54:07Z</time></trkpt><trkpt lat="42.883294" lon="0.030840"><ele>920.12</ele><time>2010-10-10T10:54:08Z</time></trkpt><trkpt lat="42.883235" lon="0.030697"><ele>918.68</ele><time>2010-10-10T10:54:09Z</time></trkpt><trkpt lat="42.883172" lon="0.030554"><ele>917.24</ele><time>2010-10-10T10:54:10Z</time></trkpt><trkpt lat="42.883097" lon="0.030406"><ele>915.79</ele><time>2010-10-10T10:54:11Z</time></trkpt><trkpt lat="42.882992" lon="0.030291"><ele>914.35</ele><time>2010-10-10T10:54:12Z</time></trkpt><trkpt lat="42.882881" lon="0.030169"><ele>912.91</ele><time>2010-10-10T10:54:13Z</time></trkpt><trkpt lat="42.881608" lon="0.028766"><ele>898.97</ele><time>2010-10-10T10:54:23Z</time></trkpt><trkpt lat="42.879922" lon="0.026857"><ele>881.67</ele><time>2010-10-10T10:54:36Z</time></trkpt><trkpt lat="42.879518" lon="0.026294"><ele>876.86</ele><time>2010-10-10T10:54:40Z</time></trkpt><trkpt lat="42.879442" lon="0.026151"><ele>875.42</ele><time>2010-10-10T10:54:41Z</time></trkpt><trkpt lat="42.879382" lon="0.025981"><ele>874.46</ele><time>2010-10-10T10:54:42Z</time></trkpt><trkpt lat="42.879319" lon="0.025806"><ele>873.01</ele><time>2010-10-10T10:54:43Z</time></trkpt><trkpt lat="42.879254" lon="0.025623"><ele>872.05</ele><time>2010-10-10T10:54:44Z</time></trkpt><trkpt lat="42.879212" lon="0.025425"><ele>870.61</ele><time>2010-10-10T10:54:45Z</time></trkpt><trkpt lat="42.878709" lon="0.023174"><ele>862.44</ele><time>2010-10-10T10:54:56Z</time></trkpt><trkpt lat="42.878653" lon="0.023005"><ele>861.96</ele><time>2010-10-10T10:54:57Z</time></trkpt><trkpt lat="42.878605" lon="0.022819"><ele>861.48</ele><time>2010-10-10T10:54:58Z</time></trkpt><trkpt lat="42.878593" lon="0.022647"><ele>861.00</ele><time>2010-10-10T10:54:59Z</time></trkpt><trkpt lat="42.878581" lon="0.022478"><ele>860.04</ele><time>2010-10-10T10:55:00Z</time></trkpt><trkpt lat="42.878500" lon="0.020901"><ele>853.79</ele><time>2010-10-10T10:55:10Z</time></trkpt><trkpt lat="42.878395" lon="0.018799"><ele>841.77</ele><time>2010-10-10T10:55:22Z</time></trkpt><trkpt lat="42.878273" lon="0.016974"><ele>830.24</ele><time>2010-10-10T10:55:31Z</time></trkpt><trkpt lat="42.878260" lon="0.016772"><ele>828.79</ele><time>2010-10-10T10:55:32Z</time></trkpt><trkpt lat="42.878145" lon="0.015052"><ele>817.26</ele><time>2010-10-10T10:55:41Z</time></trkpt><trkpt lat="42.878137" lon="0.014867"><ele>816.30</ele><time>2010-10-10T10:55:42Z</time></trkpt><trkpt lat="42.878137" lon="0.014685"><ele>814.85</ele><time>2010-10-10T10:55:43Z</time></trkpt><trkpt lat="42.878050" lon="0.013062"><ele>803.80</ele><time>2010-10-10T10:55:52Z</time></trkpt><trkpt lat="42.877964" lon="0.012741"><ele>801.40</ele><time>2010-10-10T10:55:54Z</time></trkpt><trkpt lat="42.877920" lon="0.012576"><ele>799.95</ele><time>2010-10-10T10:55:55Z</time></trkpt><trkpt lat="42.877430" lon="0.011019"><ele>794.19</ele><time>2010-10-10T10:56:05Z</time></trkpt><trkpt lat="42.877312" lon="0.010741"><ele>793.71</ele><time>2010-10-10T10:56:07Z</time></trkpt><trkpt lat="42.876820" lon="0.009016"><ele>786.02</ele><time>2010-10-10T10:56:18Z</time></trkpt><trkpt lat="42.876680" lon="0.008739"><ele>783.61</ele><time>2010-10-10T10:56:20Z</time></trkpt><trkpt lat="42.876606" lon="0.008650"><ele>782.65</ele><time>2010-10-10T10:56:21Z</time></trkpt><trkpt lat="42.875894" lon="0.007768"><ele>775.44</ele><time>2010-10-10T10:56:30Z</time></trkpt><trkpt lat="42.875819" lon="0.007651"><ele>772.56</ele><time>2010-10-10T10:56:35Z</time></trkpt><trkpt lat="42.875623" lon="0.007345"><ele>771.11</ele><time>2010-10-10T10:56:42Z</time></trkpt><trkpt lat="42.875132" lon="0.006607"><ele>767.75</ele><time>2010-10-10T10:56:51Z</time></trkpt><trkpt lat="42.875002" lon="0.006432"><ele>765.83</ele><time>2010-10-10T10:56:55Z</time></trkpt><trkpt lat="42.874645" lon="0.005856"><ele>758.62</ele><time>2010-10-10T10:57:03Z</time></trkpt><trkpt lat="42.874584" lon="0.005764"><ele>757.18</ele><time>2010-10-10T10:57:04Z</time></trkpt><trkpt lat="42.874142" lon="0.005086"><ele>752.37</ele><time>2010-10-10T10:57:11Z</time></trkpt><trkpt lat="42.874122" lon="0.004962"><ele>751.41</ele><time>2010-10-10T10:57:12Z</time></trkpt><trkpt lat="42.874097" lon="0.004824"><ele>750.93</ele><time>2010-10-10T10:57:13Z</time></trkpt><trkpt lat="42.873946" lon="0.004234"><ele>747.56</ele><time>2010-10-10T10:57:17Z</time></trkpt><trkpt lat="42.873896" lon="0.004075"><ele>746.60</ele><time>2010-10-10T10:57:18Z</time></trkpt><trkpt lat="42.873224" lon="0.001772"><ele>736.99</ele><time>2010-10-10T10:57:31Z</time></trkpt><trkpt lat="42.872880" lon="0.000341"><ele>735.07</ele><time>2010-10-10T10:57:40Z</time></trkpt><trkpt lat="42.872844" lon="0.000200"><ele>734.58</ele><time>2010-10-10T10:57:41Z</time></trkpt><trkpt lat="42.872844" lon="0.000200"><ele>734.10</ele><time>2010-10-10T10:57:42Z</time></trkpt><trkpt lat="42.872391" lon="-0.001336"><ele>729.30</ele><time>2010-10-10T10:57:53Z</time></trkpt><trkpt lat="42.872301" lon="-0.001639"><ele>727.86</ele><time>2010-10-10T10:57:56Z</time></trkpt><trkpt lat="42.872301" lon="-0.001706"><ele>727.37</ele><time>2010-10-10T10:57:57Z</time></trkpt><trkpt lat="42.872316" lon="-0.001744"><ele>727.37</ele><time>2010-10-10T10:57:58Z</time></trkpt><trkpt lat="42.872329" lon="-0.001765"><ele>726.89</ele><time>2010-10-10T10:57:59Z</time></trkpt><trkpt lat="42.872338" lon="-0.001782"><ele>726.89</ele><time>2010-10-10T10:58:00Z</time></trkpt><trkpt lat="42.872543" lon="-0.002141"><ele>722.09</ele><time>2010-10-10T10:58:07Z</time></trkpt><trkpt lat="42.872590" lon="-0.002224"><ele>721.61</ele><time>2010-10-10T10:58:08Z</time></trkpt><trkpt lat="42.872689" lon="-0.002396"><ele>719.20</ele><time>2010-10-10T10:58:10Z</time></trkpt><trkpt lat="42.872732" lon="-0.002471"><ele>718.24</ele><time>2010-10-10T10:58:11Z</time></trkpt><trkpt lat="42.872774" lon="-0.002546"><ele>716.80</ele><time>2010-10-10T10:58:12Z</time></trkpt><trkpt lat="42.872818" lon="-0.002622"><ele>715.36</ele><time>2010-10-10T10:58:13Z</time></trkpt><trkpt lat="42.872859" lon="-0.002693"><ele>713.92</ele><time>2010-10-10T10:58:14Z</time></trkpt><trkpt lat="42.872892" lon="-0.002752"><ele>712.47</ele><time>2010-10-10T10:58:15Z</time></trkpt><trkpt lat="42.872920" lon="-0.002800"><ele>711.03</ele><time>2010-10-10T10:58:16Z</time></trkpt><trkpt lat="42.872947" lon="-0.002848"><ele>709.11</ele><time>2010-10-10T10:58:17Z</time></trkpt><trkpt lat="42.872973" lon="-0.002894"><ele>707.19</ele><time>2010-10-10T10:58:18Z</time></trkpt><trkpt lat="42.872996" lon="-0.002934"><ele>705.75</ele><time>2010-10-10T10:58:19Z</time></trkpt><trkpt lat="42.873020" lon="-0.002973"><ele>705.26</ele><time>2010-10-10T10:58:20Z</time></trkpt><trkpt lat="42.873050" lon="-0.003023"><ele>705.26</ele><time>2010-10-10T10:58:21Z</time></trkpt><trkpt lat="42.873087" lon="-0.003085"><ele>705.26</ele><time>2010-10-10T10:58:22Z</time></trkpt><trkpt lat="42.873116" lon="-0.003133"><ele>705.26</ele><time>2010-10-10T10:58:23Z</time></trkpt><trkpt lat="42.873173" lon="-0.003175"><ele>705.75</ele><time>2010-10-10T10:58:24Z</time></trkpt><trkpt lat="42.873173" lon="-0.003175"><ele>706.23</ele><time>2010-10-10T10:58:25Z</time></trkpt><trkpt lat="42.873353" lon="-0.003262"><ele>706.23</ele><time>2010-10-10T10:58:26Z</time></trkpt><trkpt lat="42.873435" lon="-0.003262"><ele>706.23</ele><time>2010-10-10T10:58:27Z</time></trkpt><trkpt lat="42.873522" lon="-0.003262"><ele>706.71</ele><time>2010-10-10T10:58:28Z</time></trkpt><trkpt lat="42.874081" lon="-0.003174"><ele>707.19</ele><time>2010-10-10T10:58:35Z</time></trkpt><trkpt lat="42.874233" lon="-0.003133"><ele>707.19</ele><time>2010-10-10T10:58:38Z</time></trkpt><trkpt lat="42.874270" lon="-0.003146"><ele>707.19</ele><time>2010-10-10T10:58:39Z</time></trkpt><trkpt lat="42.874324" lon="-0.003164"><ele>706.71</ele><time>2010-10-10T10:58:40Z</time></trkpt><trkpt lat="42.874446" lon="-0.003219"><ele>706.71</ele><time>2010-10-10T10:58:41Z</time></trkpt><trkpt lat="42.874460" lon="-0.003246"><ele>707.19</ele><time>2010-10-10T10:58:42Z</time></trkpt><trkpt lat="42.874491" lon="-0.003308"><ele>707.19</ele><time>2010-10-10T10:58:43Z</time></trkpt><trkpt lat="42.874526" lon="-0.003378"><ele>707.19</ele><time>2010-10-10T10:58:44Z</time></trkpt><trkpt lat="42.874561" lon="-0.003448"><ele>707.19</ele><time>2010-10-10T10:58:45Z</time></trkpt><trkpt lat="42.874593" lon="-0.003506"><ele>707.19</ele><time>2010-10-10T10:58:46Z</time></trkpt><trkpt lat="42.874630" lon="-0.003568"><ele>706.71</ele><time>2010-10-10T10:58:47Z</time></trkpt><trkpt lat="42.874663" lon="-0.003622"><ele>706.23</ele><time>2010-10-10T10:58:48Z</time></trkpt><trkpt lat="42.874698" lon="-0.003680"><ele>705.75</ele><time>2010-10-10T10:58:49Z</time></trkpt><trkpt lat="42.874720" lon="-0.003712"><ele>705.26</ele><time>2010-10-10T10:58:50Z</time></trkpt><trkpt lat="42.874751" lon="-0.003754"><ele>705.26</ele><time>2010-10-10T10:58:51Z</time></trkpt><trkpt lat="42.874812" lon="-0.003835"><ele>705.26</ele><time>2010-10-10T10:58:52Z</time></trkpt><trkpt lat="42.874878" lon="-0.003925"><ele>705.26</ele><time>2010-10-10T10:58:53Z</time></trkpt><trkpt lat="42.875573" lon="-0.004912"><ele>701.90</ele><time>2010-10-10T10:59:02Z</time></trkpt><trkpt lat="42.876461" lon="-0.006219"><ele>694.69</ele><time>2010-10-10T10:59:11Z</time></trkpt><trkpt lat="42.877680" lon="-0.007955"><ele>686.04</ele><time>2010-10-10T10:59:23Z</time></trkpt><trkpt lat="42.878959" lon="-0.009921"><ele>678.35</ele><time>2010-10-10T10:59:36Z</time></trkpt><trkpt lat="42.880326" lon="-0.011673"><ele>671.62</ele><time>2010-10-10T10:59:50Z</time></trkpt><trkpt lat="42.880416" lon="-0.011742"><ele>671.14</ele><time>2010-10-10T10:59:51Z</time></trkpt><trkpt lat="42.880763" lon="-0.012009"><ele>669.70</ele><time>2010-10-10T10:59:54Z</time></trkpt><trkpt lat="42.880881" lon="-0.012100"><ele>669.22</ele><time>2010-10-10T10:59:55Z</time></trkpt><trkpt lat="42.881908" lon="-0.012891"><ele>663.93</ele><time>2010-10-10T11:00:03Z</time></trkpt><trkpt lat="42.882154" lon="-0.013081"><ele>662.49</ele><time>2010-10-10T11:00:05Z</time></trkpt><trkpt lat="42.882273" lon="-0.013173"><ele>662.01</ele><time>2010-10-10T11:00:06Z</time></trkpt><trkpt lat="42.883058" lon="-0.013777"><ele>657.68</ele><time>2010-10-10T11:00:12Z</time></trkpt><trkpt lat="42.883196" lon="-0.013884"><ele>656.72</ele><time>2010-10-10T11:00:13Z</time></trkpt><trkpt lat="42.883688" lon="-0.014306"><ele>653.83</ele><time>2010-10-10T11:00:17Z</time></trkpt><trkpt lat="42.883821" lon="-0.014439"><ele>652.87</ele><time>2010-10-10T11:00:18Z</time></trkpt><trkpt lat="42.884165" lon="-0.014703"><ele>651.43</ele><time>2010-10-10T11:00:20Z</time></trkpt><trkpt lat="42.884302" lon="-0.014805"><ele>650.47</ele><time>2010-10-10T11:00:21Z</time></trkpt><trkpt lat="42.884661" lon="-0.015074"><ele>648.55</ele><time>2010-10-10T11:00:24Z</time></trkpt><trkpt lat="42.885245" lon="-0.015546"><ele>648.07</ele><time>2010-10-10T11:00:31Z</time></trkpt><trkpt lat="42.885293" lon="-0.015643"><ele>648.07</ele><time>2010-10-10T11:00:32Z</time></trkpt><trkpt lat="42.885308" lon="-0.015686"><ele>648.07</ele><time>2010-10-10T11:00:33Z</time></trkpt><trkpt lat="42.885326" lon="-0.015797"><ele>648.07</ele><time>2010-10-10T11:00:34Z</time></trkpt><trkpt lat="42.885345" lon="-0.015912"><ele>648.07</ele><time>2010-10-10T11:00:35Z</time></trkpt><trkpt lat="42.885365" lon="-0.016029"><ele>648.07</ele><time>2010-10-10T11:00:36Z</time></trkpt><trkpt lat="42.885384" lon="-0.016145"><ele>648.07</ele><time>2010-10-10T11:00:37Z</time></trkpt><trkpt lat="42.885390" lon="-0.016223"><ele>648.07</ele><time>2010-10-10T11:00:38Z</time></trkpt><trkpt lat="42.885469" lon="-0.016407"><ele>648.07</ele><time>2010-10-10T11:00:39Z</time></trkpt><trkpt lat="42.885531" lon="-0.016485"><ele>648.07</ele><time>2010-10-10T11:00:40Z</time></trkpt><trkpt lat="42.885608" lon="-0.016565"><ele>648.07</ele><time>2010-10-10T11:00:41Z</time></trkpt><trkpt lat="42.885688" lon="-0.016638"><ele>648.07</ele><time>2010-10-10T11:00:42Z</time></trkpt><trkpt lat="42.885773" lon="-0.016716"><ele>648.07</ele><time>2010-10-10T11:00:43Z</time></trkpt><trkpt lat="42.886647" lon="-0.017512"><ele>647.59</ele><time>2010-10-10T11:00:51Z</time></trkpt><trkpt lat="42.887888" lon="-0.018618"><ele>644.22</ele><time>2010-10-10T11:01:00Z</time></trkpt><trkpt lat="42.888382" lon="-0.019126"><ele>642.78</ele><time>2010-10-10T11:01:04Z</time></trkpt><trkpt lat="42.888467" lon="-0.019286"><ele>642.30</ele><time>2010-10-10T11:01:05Z</time></trkpt><trkpt lat="42.889364" lon="-0.020711"><ele>639.89</ele><time>2010-10-10T11:01:14Z</time></trkpt><trkpt lat="42.889794" lon="-0.021141"><ele>640.38</ele><time>2010-10-10T11:01:18Z</time></trkpt><trkpt lat="42.890459" lon="-0.022301"><ele>640.38</ele><time>2010-10-10T11:01:26Z</time></trkpt><trkpt lat="42.891233" lon="-0.023611"><ele>640.86</ele><time>2010-10-10T11:01:34Z</time></trkpt><trkpt lat="42.891381" lon="-0.023749"><ele>640.86</ele><time>2010-10-10T11:01:35Z</time></trkpt><trkpt lat="42.892348" lon="-0.024369"><ele>637.97</ele><time>2010-10-10T11:01:43Z</time></trkpt><trkpt lat="42.894566" lon="-0.025716"><ele>631.24</ele><time>2010-10-10T11:01:57Z</time></trkpt><trkpt lat="42.897209" lon="-0.027348"><ele>622.11</ele><time>2010-10-10T11:02:14Z</time></trkpt><trkpt lat="42.899118" lon="-0.028506"><ele>615.38</ele><time>2010-10-10T11:02:27Z</time></trkpt><trkpt lat="42.900314" lon="-0.029432"><ele>617.78</ele><time>2010-10-10T11:02:37Z</time></trkpt><trkpt lat="42.902258" lon="-0.030872"><ele>615.38</ele><time>2010-10-10T11:02:51Z</time></trkpt><trkpt lat="42.903349" lon="-0.031469"><ele>612.98</ele><time>2010-10-10T11:03:00Z</time></trkpt><trkpt lat="42.903432" lon="-0.031493"><ele>612.50</ele><time>2010-10-10T11:03:01Z</time></trkpt><trkpt lat="42.903518" lon="-0.031483"><ele>612.02</ele><time>2010-10-10T11:03:02Z</time></trkpt><trkpt lat="42.903604" lon="-0.031460"><ele>611.54</ele><time>2010-10-10T11:03:03Z</time></trkpt><trkpt lat="42.903692" lon="-0.031436"><ele>611.06</ele><time>2010-10-10T11:03:04Z</time></trkpt><trkpt lat="42.903782" lon="-0.031411"><ele>610.57</ele><time>2010-10-10T11:03:05Z</time></trkpt><trkpt lat="42.903873" lon="-0.031387"><ele>610.09</ele><time>2010-10-10T11:03:06Z</time></trkpt><trkpt lat="42.903957" lon="-0.031391"><ele>609.61</ele><time>2010-10-10T11:03:07Z</time></trkpt><trkpt lat="42.904044" lon="-0.031453"><ele>609.13</ele><time>2010-10-10T11:03:08Z</time></trkpt><trkpt lat="42.904141" lon="-0.031523"><ele>609.13</ele><time>2010-10-10T11:03:09Z</time></trkpt><trkpt lat="42.904239" lon="-0.031595"><ele>608.65</ele><time>2010-10-10T11:03:10Z</time></trkpt><trkpt lat="42.904334" lon="-0.031690"><ele>608.65</ele><time>2010-10-10T11:03:11Z</time></trkpt><trkpt lat="42.904430" lon="-0.031786"><ele>608.17</ele><time>2010-10-10T11:03:12Z</time></trkpt><trkpt lat="42.905106" lon="-0.033028"><ele>605.29</ele><time>2010-10-10T11:03:20Z</time></trkpt><trkpt lat="42.905942" lon="-0.034541"><ele>600.96</ele><time>2010-10-10T11:03:30Z</time></trkpt><trkpt lat="42.906032" lon="-0.034676"><ele>600.96</ele><time>2010-10-10T11:03:31Z</time></trkpt><trkpt lat="42.906070" lon="-0.034661"><ele>600.96</ele><time>2010-10-10T11:03:32Z</time></trkpt><trkpt lat="42.906128" lon="-0.034640"><ele>600.48</ele><time>2010-10-10T11:03:33Z</time></trkpt><trkpt lat="42.906191" lon="-0.034616"><ele>599.52</ele><time>2010-10-10T11:03:34Z</time></trkpt><trkpt lat="42.906260" lon="-0.034590"><ele>599.52</ele><time>2010-10-10T11:03:35Z</time></trkpt><trkpt lat="42.906504" lon="-0.034590"><ele>598.56</ele><time>2010-10-10T11:03:37Z</time></trkpt><trkpt lat="42.906522" lon="-0.034603"><ele>598.56</ele><time>2010-10-10T11:03:38Z</time></trkpt><trkpt lat="42.906608" lon="-0.034667"><ele>598.08</ele><time>2010-10-10T11:03:39Z</time></trkpt><trkpt lat="42.906699" lon="-0.034736"><ele>598.08</ele><time>2010-10-10T11:03:40Z</time></trkpt><trkpt lat="42.906791" lon="-0.034805"><ele>597.60</ele><time>2010-10-10T11:03:41Z</time></trkpt><trkpt lat="42.906996" lon="-0.034907"><ele>597.60</ele><time>2010-10-10T11:03:43Z</time></trkpt><trkpt lat="42.907107" lon="-0.034951"><ele>597.60</ele><time>2010-10-10T11:03:44Z</time></trkpt><trkpt lat="42.907432" lon="-0.035135"><ele>596.64</ele><time>2010-10-10T11:03:47Z</time></trkpt><trkpt lat="42.907534" lon="-0.035212"><ele>596.64</ele><time>2010-10-10T11:03:48Z</time></trkpt><trkpt lat="42.907636" lon="-0.035288"><ele>596.64</ele><time>2010-10-10T11:03:49Z</time></trkpt><trkpt lat="42.907733" lon="-0.035361"><ele>596.64</ele><time>2010-10-10T11:03:50Z</time></trkpt><trkpt lat="42.907813" lon="-0.035421"><ele>596.64</ele><time>2010-10-10T11:03:51Z</time></trkpt><trkpt lat="42.907872" lon="-0.035465"><ele>596.64</ele><time>2010-10-10T11:03:52Z</time></trkpt><trkpt lat="42.907960" lon="-0.035531"><ele>596.64</ele><time>2010-10-10T11:03:54Z</time></trkpt><trkpt lat="42.907993" lon="-0.035561"><ele>596.15</ele><time>2010-10-10T11:03:55Z</time></trkpt><trkpt lat="42.908031" lon="-0.035594"><ele>596.15</ele><time>2010-10-10T11:03:56Z</time></trkpt><trkpt lat="42.908087" lon="-0.035643"><ele>596.15</ele><time>2010-10-10T11:03:57Z</time></trkpt><trkpt lat="42.908160" lon="-0.035708"><ele>596.15</ele><time>2010-10-10T11:03:58Z</time></trkpt><trkpt lat="42.908838" lon="-0.036282"><ele>597.12</ele><time>2010-10-10T11:04:05Z</time></trkpt><trkpt lat="42.909707" lon="-0.036593"><ele>598.56</ele><time>2010-10-10T11:04:12Z</time></trkpt><trkpt lat="42.909830" lon="-0.036608"><ele>598.56</ele><time>2010-10-10T11:04:13Z</time></trkpt><trkpt lat="42.911002" lon="-0.036806"><ele>599.52</ele><time>2010-10-10T11:04:22Z</time></trkpt><trkpt lat="42.911114" lon="-0.036871"><ele>599.52</ele><time>2010-10-10T11:04:23Z</time></trkpt><trkpt lat="42.911225" lon="-0.036936"><ele>599.52</ele><time>2010-10-10T11:04:24Z</time></trkpt><trkpt lat="42.911339" lon="-0.037002"><ele>599.52</ele><time>2010-10-10T11:04:25Z</time></trkpt><trkpt lat="42.911458" lon="-0.037059"><ele>599.52</ele><time>2010-10-10T11:04:26Z</time></trkpt><trkpt lat="42.911712" lon="-0.037156"><ele>599.52</ele><time>2010-10-10T11:04:28Z</time></trkpt><trkpt lat="42.911840" lon="-0.037205"><ele>599.52</ele><time>2010-10-10T11:04:29Z</time></trkpt><trkpt lat="42.911967" lon="-0.037253"><ele>599.52</ele><time>2010-10-10T11:04:30Z</time></trkpt><trkpt lat="42.912414" lon="-0.037379"><ele>599.04</ele><time>2010-10-10T11:04:34Z</time></trkpt><trkpt lat="42.912512" lon="-0.037379"><ele>599.04</ele><time>2010-10-10T11:04:35Z</time></trkpt><trkpt lat="42.912609" lon="-0.037336"><ele>599.04</ele><time>2010-10-10T11:04:36Z</time></trkpt><trkpt lat="42.912719" lon="-0.037285"><ele>598.56</ele><time>2010-10-10T11:04:37Z</time></trkpt><trkpt lat="42.912834" lon="-0.037233"><ele>598.56</ele><time>2010-10-10T11:04:38Z</time></trkpt><trkpt lat="42.913083" lon="-0.037155"><ele>597.60</ele><time>2010-10-10T11:04:40Z</time></trkpt><trkpt lat="42.913193" lon="-0.037144"><ele>597.12</ele><time>2010-10-10T11:04:41Z</time></trkpt><trkpt lat="42.913300" lon="-0.037133"><ele>597.12</ele><time>2010-10-10T11:04:42Z</time></trkpt><trkpt lat="42.913414" lon="-0.037122"><ele>596.64</ele><time>2010-10-10T11:04:43Z</time></trkpt><trkpt lat="42.913519" lon="-0.037061"><ele>596.15</ele><time>2010-10-10T11:04:44Z</time></trkpt><trkpt lat="42.913645" lon="-0.036990"><ele>595.67</ele><time>2010-10-10T11:04:45Z</time></trkpt><trkpt lat="42.913788" lon="-0.036950"><ele>595.19</ele><time>2010-10-10T11:04:46Z</time></trkpt><trkpt lat="42.913906" lon="-0.036950"><ele>595.19</ele><time>2010-10-10T11:04:47Z</time></trkpt><trkpt lat="42.914057" lon="-0.036950"><ele>594.71</ele><time>2010-10-10T11:04:48Z</time></trkpt><trkpt lat="42.914148" lon="-0.037023"><ele>594.71</ele><time>2010-10-10T11:04:49Z</time></trkpt><trkpt lat="42.914278" lon="-0.037125"><ele>594.23</ele><time>2010-10-10T11:04:50Z</time></trkpt><trkpt lat="42.914435" lon="-0.037205"><ele>593.75</ele><time>2010-10-10T11:04:51Z</time></trkpt><trkpt lat="42.916053" lon="-0.038032"><ele>590.87</ele><time>2010-10-10T11:05:02Z</time></trkpt><trkpt lat="42.916174" lon="-0.038094"><ele>590.39</ele><time>2010-10-10T11:05:03Z</time></trkpt><trkpt lat="42.916271" lon="-0.038165"><ele>589.91</ele><time>2010-10-10T11:05:04Z</time></trkpt><trkpt lat="42.916365" lon="-0.038244"><ele>589.43</ele><time>2010-10-10T11:05:05Z</time></trkpt><trkpt lat="42.916454" lon="-0.038318"><ele>588.95</ele><time>2010-10-10T11:05:06Z</time></trkpt><trkpt lat="42.916506" lon="-0.038390"><ele>588.46</ele><time>2010-10-10T11:05:07Z</time></trkpt><trkpt lat="42.916572" lon="-0.038489"><ele>587.98</ele><time>2010-10-10T11:05:08Z</time></trkpt><trkpt lat="42.916642" lon="-0.038592"><ele>587.50</ele><time>2010-10-10T11:05:09Z</time></trkpt><trkpt lat="42.916715" lon="-0.038699"><ele>587.02</ele><time>2010-10-10T11:05:10Z</time></trkpt><trkpt lat="42.917010" lon="-0.039135"><ele>586.54</ele><time>2010-10-10T11:05:14Z</time></trkpt><trkpt lat="42.917076" lon="-0.039233"><ele>586.06</ele><time>2010-10-10T11:05:15Z</time></trkpt><trkpt lat="42.917142" lon="-0.039331"><ele>586.06</ele><time>2010-10-10T11:05:16Z</time></trkpt><trkpt lat="42.917206" lon="-0.039425"><ele>586.06</ele><time>2010-10-10T11:05:17Z</time></trkpt><trkpt lat="42.917266" lon="-0.039514"><ele>586.06</ele><time>2010-10-10T11:05:18Z</time></trkpt><trkpt lat="42.917335" lon="-0.039616"><ele>586.06</ele><time>2010-10-10T11:05:19Z</time></trkpt><trkpt lat="42.917403" lon="-0.039717"><ele>586.06</ele><time>2010-10-10T11:05:20Z</time></trkpt><trkpt lat="42.917448" lon="-0.039783"><ele>586.06</ele><time>2010-10-10T11:05:21Z</time></trkpt><trkpt lat="42.917544" lon="-0.039806"><ele>587.98</ele><time>2010-10-10T11:05:22Z</time></trkpt><trkpt lat="42.917633" lon="-0.039829"><ele>588.46</ele><time>2010-10-10T11:05:23Z</time></trkpt><trkpt lat="42.917791" lon="-0.039868"><ele>588.46</ele><time>2010-10-10T11:05:24Z</time></trkpt><trkpt lat="42.917824" lon="-0.039872"><ele>588.46</ele><time>2010-10-10T11:05:25Z</time></trkpt><trkpt lat="42.917928" lon="-0.039885"><ele>588.46</ele><time>2010-10-10T11:05:26Z</time></trkpt><trkpt lat="42.918033" lon="-0.039899"><ele>588.95</ele><time>2010-10-10T11:05:27Z</time></trkpt><trkpt lat="42.918144" lon="-0.039921"><ele>588.95</ele><time>2010-10-10T11:05:28Z</time></trkpt><trkpt lat="42.918221" lon="-0.039998"><ele>589.43</ele><time>2010-10-10T11:05:29Z</time></trkpt><trkpt lat="42.918300" lon="-0.040077"><ele>589.91</ele><time>2010-10-10T11:05:30Z</time></trkpt><trkpt lat="42.918383" lon="-0.040160"><ele>590.39</ele><time>2010-10-10T11:05:31Z</time></trkpt><trkpt lat="42.918465" lon="-0.040242"><ele>590.39</ele><time>2010-10-10T11:05:32Z</time></trkpt><trkpt lat="42.918624" lon="-0.040339"><ele>590.87</ele><time>2010-10-10T11:05:34Z</time></trkpt><trkpt lat="42.918704" lon="-0.040371"><ele>590.87</ele><time>2010-10-10T11:05:35Z</time></trkpt><trkpt lat="42.918757" lon="-0.040374"><ele>590.87</ele><time>2010-10-10T11:05:36Z</time></trkpt><trkpt lat="42.918839" lon="-0.040337"><ele>590.87</ele><time>2010-10-10T11:05:37Z</time></trkpt><trkpt lat="42.918926" lon="-0.040299"><ele>590.87</ele><time>2010-10-10T11:05:38Z</time></trkpt><trkpt lat="42.919015" lon="-0.040259"><ele>591.35</ele><time>2010-10-10T11:05:39Z</time></trkpt><trkpt lat="42.919109" lon="-0.040217"><ele>591.35</ele><time>2010-10-10T11:05:40Z</time></trkpt><trkpt lat="42.919207" lon="-0.040190"><ele>591.35</ele><time>2010-10-10T11:05:41Z</time></trkpt><trkpt lat="42.919296" lon="-0.040169"><ele>591.35</ele><time>2010-10-10T11:05:42Z</time></trkpt><trkpt lat="42.919378" lon="-0.040181"><ele>591.35</ele><time>2010-10-10T11:05:43Z</time></trkpt><trkpt lat="42.919447" lon="-0.040191"><ele>591.83</ele><time>2010-10-10T11:05:44Z</time></trkpt><trkpt lat="42.919530" lon="-0.040203"><ele>591.83</ele><time>2010-10-10T11:05:45Z</time></trkpt><trkpt lat="42.919627" lon="-0.040216"><ele>591.83</ele><time>2010-10-10T11:05:46Z</time></trkpt><trkpt lat="42.919721" lon="-0.040230"><ele>591.83</ele><time>2010-10-10T11:05:47Z</time></trkpt><trkpt lat="42.919817" lon="-0.040244"><ele>591.83</ele><time>2010-10-10T11:05:48Z</time></trkpt><trkpt lat="42.920093" lon="-0.040283"><ele>592.79</ele><time>2010-10-10T11:05:51Z</time></trkpt><trkpt lat="42.920177" lon="-0.040295"><ele>592.79</ele><time>2010-10-10T11:05:52Z</time></trkpt><trkpt lat="42.920225" lon="-0.040335"><ele>592.79</ele><time>2010-10-10T11:05:53Z</time></trkpt><trkpt lat="42.920280" lon="-0.040401"><ele>592.31</ele><time>2010-10-10T11:05:54Z</time></trkpt><trkpt lat="42.920337" lon="-0.040469"><ele>592.31</ele><time>2010-10-10T11:05:55Z</time></trkpt><trkpt lat="42.920468" lon="-0.040626"><ele>592.79</ele><time>2010-10-10T11:05:57Z</time></trkpt><trkpt lat="42.920539" lon="-0.040711"><ele>592.79</ele><time>2010-10-10T11:05:58Z</time></trkpt><trkpt lat="42.920682" lon="-0.040842"><ele>592.79</ele><time>2010-10-10T11:06:00Z</time></trkpt><trkpt lat="42.922299" lon="-0.040770"><ele>593.27</ele><time>2010-10-10T11:06:19Z</time></trkpt><trkpt lat="42.922452" lon="-0.040770"><ele>593.27</ele><time>2010-10-10T11:06:21Z</time></trkpt><trkpt lat="42.922555" lon="-0.040770"><ele>593.27</ele><time>2010-10-10T11:06:22Z</time></trkpt><trkpt lat="42.922660" lon="-0.040763"><ele>593.75</ele><time>2010-10-10T11:06:23Z</time></trkpt><trkpt lat="42.923595" lon="-0.040882"><ele>593.75</ele><time>2010-10-10T11:06:28Z</time></trkpt><trkpt lat="42.923713" lon="-0.040847"><ele>594.23</ele><time>2010-10-10T11:06:29Z</time></trkpt><trkpt lat="42.924045" lon="-0.040807"><ele>594.71</ele><time>2010-10-10T11:06:32Z</time></trkpt><trkpt lat="42.924133" lon="-0.040903"><ele>594.71</ele><time>2010-10-10T11:06:33Z</time></trkpt><trkpt lat="42.924208" lon="-0.040992"><ele>594.23</ele><time>2010-10-10T11:06:34Z</time></trkpt><trkpt lat="42.924294" lon="-0.041093"><ele>594.23</ele><time>2010-10-10T11:06:35Z</time></trkpt><trkpt lat="42.924380" lon="-0.041194"><ele>594.23</ele><time>2010-10-10T11:06:36Z</time></trkpt><trkpt lat="42.925081" lon="-0.041854"><ele>591.35</ele><time>2010-10-10T11:06:42Z</time></trkpt><trkpt lat="42.925533" lon="-0.042112"><ele>588.46</ele><time>2010-10-10T11:06:46Z</time></trkpt><trkpt lat="42.925622" lon="-0.042136"><ele>587.50</ele><time>2010-10-10T11:06:47Z</time></trkpt><trkpt lat="42.925724" lon="-0.042102"><ele>587.02</ele><time>2010-10-10T11:06:48Z</time></trkpt><trkpt lat="42.925894" lon="-0.042013"><ele>587.02</ele><time>2010-10-10T11:06:50Z</time></trkpt><trkpt lat="42.926052" lon="-0.041809"><ele>587.02</ele><time>2010-10-10T11:06:52Z</time></trkpt><trkpt lat="42.926977" lon="-0.041671"><ele>587.50</ele><time>2010-10-10T11:07:01Z</time></trkpt><trkpt lat="42.927082" lon="-0.041703"><ele>587.50</ele><time>2010-10-10T11:07:02Z</time></trkpt><trkpt lat="42.927285" lon="-0.041765"><ele>587.50</ele><time>2010-10-10T11:07:04Z</time></trkpt><trkpt lat="42.927457" lon="-0.041817"><ele>587.50</ele><time>2010-10-10T11:07:05Z</time></trkpt><trkpt lat="42.927625" lon="-0.041869"><ele>587.50</ele><time>2010-10-10T11:07:06Z</time></trkpt><trkpt lat="42.927928" lon="-0.041961"><ele>587.98</ele><time>2010-10-10T11:07:08Z</time></trkpt><trkpt lat="42.928719" lon="-0.042552"><ele>587.98</ele><time>2010-10-10T11:07:14Z</time></trkpt><trkpt lat="42.928823" lon="-0.042676"><ele>587.98</ele><time>2010-10-10T11:07:15Z</time></trkpt><trkpt lat="42.928928" lon="-0.042801"><ele>587.98</ele><time>2010-10-10T11:07:16Z</time></trkpt><trkpt lat="42.929036" lon="-0.042930"><ele>587.98</ele><time>2010-10-10T11:07:17Z</time></trkpt><trkpt lat="42.929147" lon="-0.043062"><ele>588.46</ele><time>2010-10-10T11:07:18Z</time></trkpt><trkpt lat="42.929255" lon="-0.043192"><ele>588.46</ele><time>2010-10-10T11:07:19Z</time></trkpt><trkpt lat="42.929355" lon="-0.043311"><ele>588.46</ele><time>2010-10-10T11:07:20Z</time></trkpt><trkpt lat="42.929433" lon="-0.043403"><ele>588.46</ele><time>2010-10-10T11:07:21Z</time></trkpt><trkpt lat="42.929654" lon="-0.043693"><ele>588.46</ele><time>2010-10-10T11:07:25Z</time></trkpt><trkpt lat="42.929671" lon="-0.043739"><ele>588.46</ele><time>2010-10-10T11:07:26Z</time></trkpt><trkpt lat="42.929683" lon="-0.043771"><ele>588.46</ele><time>2010-10-10T11:07:27Z</time></trkpt><trkpt lat="42.929696" lon="-0.043806"><ele>588.46</ele><time>2010-10-10T11:07:28Z</time></trkpt><trkpt lat="42.929705" lon="-0.043828"><ele>588.46</ele><time>2010-10-10T11:07:29Z</time></trkpt><trkpt lat="42.929715" lon="-0.043854"><ele>588.46</ele><time>2010-10-10T11:07:30Z</time></trkpt><trkpt lat="42.929728" lon="-0.043889"><ele>588.46</ele><time>2010-10-10T11:07:31Z</time></trkpt><trkpt lat="42.929748" lon="-0.043941"><ele>587.98</ele><time>2010-10-10T11:07:32Z</time></trkpt><trkpt lat="42.929772" lon="-0.044006"><ele>587.50</ele><time>2010-10-10T11:07:33Z</time></trkpt><trkpt lat="42.929801" lon="-0.044083"><ele>586.54</ele><time>2010-10-10T11:07:34Z</time></trkpt><trkpt lat="42.929834" lon="-0.044168"><ele>586.06</ele><time>2010-10-10T11:07:35Z</time></trkpt><trkpt lat="42.929870" lon="-0.044265"><ele>585.58</ele><time>2010-10-10T11:07:36Z</time></trkpt><trkpt lat="42.930095" lon="-0.044858"><ele>582.70</ele><time>2010-10-10T11:07:42Z</time></trkpt><trkpt lat="42.930132" lon="-0.044958"><ele>582.22</ele><time>2010-10-10T11:07:43Z</time></trkpt><trkpt lat="42.930215" lon="-0.045177"><ele>580.77</ele><time>2010-10-10T11:07:45Z</time></trkpt><trkpt lat="42.930269" lon="-0.045278"><ele>579.81</ele><time>2010-10-10T11:07:46Z</time></trkpt><trkpt lat="42.930574" lon="-0.045697"><ele>573.56</ele><time>2010-10-10T11:07:53Z</time></trkpt><trkpt lat="42.930596" lon="-0.045724"><ele>573.56</ele><time>2010-10-10T11:08:00Z</time></trkpt><trkpt lat="42.930609" lon="-0.045739"><ele>573.56</ele><time>2010-10-10T11:08:01Z</time></trkpt><trkpt lat="42.930629" lon="-0.045762"><ele>573.56</ele><time>2010-10-10T11:08:02Z</time></trkpt><trkpt lat="42.930720" lon="-0.045869"><ele>573.56</ele><time>2010-10-10T11:08:06Z</time></trkpt><trkpt lat="42.930752" lon="-0.045906"><ele>573.56</ele><time>2010-10-10T11:08:07Z</time></trkpt><trkpt lat="42.930837" lon="-0.046005"><ele>574.04</ele><time>2010-10-10T11:08:15Z</time></trkpt><trkpt lat="42.930895" lon="-0.046030"><ele>574.04</ele><time>2010-10-10T11:08:17Z</time></trkpt><trkpt lat="42.930931" lon="-0.046045"><ele>574.04</ele><time>2010-10-10T11:08:18Z</time></trkpt><trkpt lat="42.930964" lon="-0.046060"><ele>574.04</ele><time>2010-10-10T11:08:19Z</time></trkpt><trkpt lat="42.930999" lon="-0.046074"><ele>574.04</ele><time>2010-10-10T11:08:20Z</time></trkpt><trkpt lat="42.931036" lon="-0.046090"><ele>574.04</ele><time>2010-10-10T11:08:21Z</time></trkpt><trkpt lat="42.931075" lon="-0.046107"><ele>574.04</ele><time>2010-10-10T11:08:22Z</time></trkpt><trkpt lat="42.931138" lon="-0.046134"><ele>574.04</ele><time>2010-10-10T11:08:24Z</time></trkpt><trkpt lat="42.931138" lon="-0.046134"><ele>574.04</ele><time>2010-10-10T11:08:25Z</time></trkpt><trkpt lat="42.931142" lon="-0.046133"><ele>574.04</ele><time>2010-10-10T11:08:26Z</time></trkpt><trkpt lat="42.931170" lon="-0.046130"><ele>574.04</ele><time>2010-10-10T11:08:27Z</time></trkpt><trkpt lat="42.931207" lon="-0.046125"><ele>574.53</ele><time>2010-10-10T11:08:36Z</time></trkpt><trkpt lat="42.931179" lon="-0.046129"><ele>574.53</ele><time>2010-10-10T11:08:37Z</time></trkpt><trkpt lat="42.931139" lon="-0.046134"><ele>574.53</ele><time>2010-10-10T11:08:38Z</time></trkpt><trkpt lat="42.931138" lon="-0.046134"><ele>574.53</ele><time>2010-10-10T11:08:39Z</time></trkpt><trkpt lat="42.931138" lon="-0.046134"><ele>574.53</ele><time>2010-10-10T11:08:40Z</time></trkpt><trkpt lat="42.931138" lon="-0.046134"><ele>574.53</ele><time>2010-10-10T11:08:41Z</time></trkpt><trkpt lat="42.931138" lon="-0.046134"><ele>574.53</ele><time>2010-10-10T11:08:42Z</time></trkpt><trkpt lat="42.931138" lon="-0.046134"><ele>574.53</ele><time>2010-10-10T11:08:43Z</time></trkpt><trkpt lat="42.930246" lon="-0.048389"><ele>574.53</ele><time>2010-10-10T11:08:51Z</time></trkpt><trkpt lat="42.930343" lon="-0.048664"><ele>574.53</ele><time>2010-10-10T11:08:55Z</time></trkpt><trkpt lat="42.930314" lon="-0.048785"><ele>574.53</ele><time>2010-10-10T11:08:57Z</time></trkpt><trkpt lat="42.930086" lon="-0.049019"><ele>575.01</ele><time>2010-10-10T11:09:02Z</time></trkpt><trkpt lat="42.928793" lon="-0.048853"><ele>574.53</ele><time>2010-10-10T11:09:11Z</time></trkpt><trkpt lat="42.928223" lon="-0.048802"><ele>574.53</ele><time>2010-10-10T11:09:17Z</time></trkpt><trkpt lat="42.929161" lon="-0.048984"><ele>575.01</ele><time>2010-10-10T11:09:20Z</time></trkpt><trkpt lat="42.929530" lon="-0.049066"><ele>575.49</ele><time>2010-10-10T11:09:21Z</time></trkpt><trkpt lat="42.930998" lon="-0.049618"><ele>575.97</ele><time>2010-10-10T11:09:28Z</time></trkpt><trkpt lat="42.932176" lon="-0.050135"><ele>576.45</ele><time>2010-10-10T11:09:34Z</time></trkpt><trkpt lat="42.932461" lon="-0.050229"><ele>576.93</ele><time>2010-10-10T11:09:35Z</time></trkpt><trkpt lat="42.933294" lon="-0.050878"><ele>577.41</ele><time>2010-10-10T11:09:41Z</time></trkpt><trkpt lat="42.933470" lon="-0.051116"><ele>577.41</ele><time>2010-10-10T11:09:43Z</time></trkpt><trkpt lat="42.933779" lon="-0.051322"><ele>577.41</ele><time>2010-10-10T11:09:45Z</time></trkpt><trkpt lat="42.935074" lon="-0.052092"><ele>577.89</ele><time>2010-10-10T11:09:52Z</time></trkpt><trkpt lat="42.935575" lon="-0.052379"><ele>577.89</ele><time>2010-10-10T11:09:54Z</time></trkpt><trkpt lat="42.936108" lon="-0.052994"><ele>578.37</ele><time>2010-10-10T11:09:58Z</time></trkpt><trkpt lat="42.936513" lon="-0.053501"><ele>578.37</ele><time>2010-10-10T11:10:02Z</time></trkpt><trkpt lat="42.936840" lon="-0.053666"><ele>578.37</ele><time>2010-10-10T11:10:04Z</time></trkpt><trkpt lat="42.937481" lon="-0.053688"><ele>578.85</ele><time>2010-10-10T11:10:09Z</time></trkpt><trkpt lat="42.937634" lon="-0.053617"><ele>578.85</ele><time>2010-10-10T11:10:10Z</time></trkpt><trkpt lat="42.938358" lon="-0.052946"><ele>579.33</ele><time>2010-10-10T11:10:16Z</time></trkpt><trkpt lat="42.938960" lon="-0.052570"><ele>579.33</ele><time>2010-10-10T11:10:21Z</time></trkpt><trkpt lat="42.939612" lon="-0.052362"><ele>579.33</ele><time>2010-10-10T11:10:23Z</time></trkpt><trkpt lat="42.939627" lon="-0.052431"><ele>579.33</ele><time>2010-10-10T11:10:24Z</time></trkpt><trkpt lat="42.939637" lon="-0.052475"><ele>579.33</ele><time>2010-10-10T11:10:25Z</time></trkpt><trkpt lat="42.939642" lon="-0.052495"><ele>579.33</ele><time>2010-10-10T11:10:26Z</time></trkpt><trkpt lat="42.939645" lon="-0.052508"><ele>579.33</ele><time>2010-10-10T11:10:27Z</time></trkpt><trkpt lat="42.939642" lon="-0.052496"><ele>579.33</ele><time>2010-10-10T11:10:28Z</time></trkpt><trkpt lat="42.940092" lon="-0.052277"><ele>579.33</ele><time>2010-10-10T11:10:33Z</time></trkpt><trkpt lat="42.940576" lon="-0.052161"><ele>579.33</ele><time>2010-10-10T11:10:55Z</time></trkpt><trkpt lat="42.942352" lon="-0.052329"><ele>649.99</ele><time>2010-10-10T11:12:55Z</time></trkpt><trkpt lat="42.942294" lon="-0.052406"><ele>648.55</ele><time>2010-10-10T11:12:59Z</time></trkpt><trkpt lat="42.942319" lon="-0.052479"><ele>648.55</ele><time>2010-10-10T11:13:01Z</time></trkpt><trkpt lat="42.942321" lon="-0.052482"><ele>648.07</ele><time>2010-10-10T11:13:02Z</time></trkpt><trkpt lat="42.942607" lon="-0.052741"><ele>646.62</ele><time>2010-10-10T11:13:08Z</time></trkpt><trkpt lat="42.942748" lon="-0.052869"><ele>646.14</ele><time>2010-10-10T11:13:10Z</time></trkpt><trkpt lat="42.942821" lon="-0.052935"><ele>643.74</ele><time>2010-10-10T11:13:11Z</time></trkpt><trkpt lat="42.943477" lon="-0.053402"><ele>626.92</ele><time>2010-10-10T11:13:18Z</time></trkpt><trkpt lat="42.943606" lon="-0.053488"><ele>615.86</ele><time>2010-10-10T11:13:19Z</time></trkpt><trkpt lat="42.944083" lon="-0.053844"><ele>601.92</ele><time>2010-10-10T11:13:23Z</time></trkpt><trkpt lat="42.944083" lon="-0.053844"><ele>601.44</ele><time>2010-10-10T11:13:24Z</time></trkpt><trkpt lat="42.944302" lon="-0.054062"><ele>600.48</ele><time>2010-10-10T11:13:25Z</time></trkpt><trkpt lat="42.944414" lon="-0.054179"><ele>600.00</ele><time>2010-10-10T11:13:26Z</time></trkpt><trkpt lat="42.944516" lon="-0.054307"><ele>599.52</ele><time>2010-10-10T11:13:27Z</time></trkpt><trkpt lat="42.944623" lon="-0.054441"><ele>599.52</ele><time>2010-10-10T11:13:28Z</time></trkpt><trkpt lat="42.944733" lon="-0.054581"><ele>599.04</ele><time>2010-10-10T11:13:29Z</time></trkpt><trkpt lat="42.944847" lon="-0.054724"><ele>598.56</ele><time>2010-10-10T11:13:30Z</time></trkpt><trkpt lat="42.944962" lon="-0.054868"><ele>598.56</ele><time>2010-10-10T11:13:31Z</time></trkpt><trkpt lat="42.946023" lon="-0.056123"><ele>593.27</ele><time>2010-10-10T11:13:40Z</time></trkpt><trkpt lat="42.946450" lon="-0.056586"><ele>590.87</ele><time>2010-10-10T11:13:44Z</time></trkpt><trkpt lat="42.946541" lon="-0.056684"><ele>589.43</ele><time>2010-10-10T11:13:45Z</time></trkpt><trkpt lat="42.946627" lon="-0.056804"><ele>587.98</ele><time>2010-10-10T11:13:46Z</time></trkpt><trkpt lat="42.946780" lon="-0.057090"><ele>586.06</ele><time>2010-10-10T11:13:48Z</time></trkpt><trkpt lat="42.946841" lon="-0.057255"><ele>585.10</ele><time>2010-10-10T11:13:49Z</time></trkpt><trkpt lat="42.947169" lon="-0.058589"><ele>576.93</ele><time>2010-10-10T11:13:56Z</time></trkpt><trkpt lat="42.947429" lon="-0.059475"><ele>572.12</ele><time>2010-10-10T11:14:01Z</time></trkpt><trkpt lat="42.947500" lon="-0.059636"><ele>571.16</ele><time>2010-10-10T11:14:02Z</time></trkpt><trkpt lat="42.947788" lon="-0.060188"><ele>550.01</ele><time>2010-10-10T11:14:05Z</time></trkpt><trkpt lat="42.948007" lon="-0.060516"><ele>538.48</ele><time>2010-10-10T11:14:07Z</time></trkpt><trkpt lat="42.948108" lon="-0.060675"><ele>534.15</ele><time>2010-10-10T11:14:08Z</time></trkpt><trkpt lat="42.948216" lon="-0.060880"><ele>525.02</ele><time>2010-10-10T11:14:09Z</time></trkpt><trkpt lat="42.948692" lon="-0.061780"><ele>511.56</ele><time>2010-10-10T11:14:14Z</time></trkpt><trkpt lat="42.949166" lon="-0.062677"><ele>508.19</ele><time>2010-10-10T11:14:19Z</time></trkpt><trkpt lat="42.949251" lon="-0.062838"><ele>507.71</ele><time>2010-10-10T11:14:20Z</time></trkpt><trkpt lat="42.949331" lon="-0.063002"><ele>507.23</ele><time>2010-10-10T11:14:21Z</time></trkpt><trkpt lat="42.949408" lon="-0.063168"><ele>506.75</ele><time>2010-10-10T11:14:22Z</time></trkpt><trkpt lat="42.949485" lon="-0.063335"><ele>506.27</ele><time>2010-10-10T11:14:23Z</time></trkpt><trkpt lat="42.949566" lon="-0.063511"><ele>506.27</ele><time>2010-10-10T11:14:24Z</time></trkpt><trkpt lat="42.949643" lon="-0.063678"><ele>505.79</ele><time>2010-10-10T11:14:25Z</time></trkpt><trkpt lat="42.949998" lon="-0.064683"><ele>502.91</ele><time>2010-10-10T11:14:31Z</time></trkpt><trkpt lat="42.950339" lon="-0.066461"><ele>499.06</ele><time>2010-10-10T11:14:41Z</time></trkpt><trkpt lat="42.950397" lon="-0.066768"><ele>498.58</ele><time>2010-10-10T11:14:43Z</time></trkpt><trkpt lat="42.950445" lon="-0.066923"><ele>498.58</ele><time>2010-10-10T11:14:44Z</time></trkpt><trkpt lat="42.950489" lon="-0.067038"><ele>498.10</ele><time>2010-10-10T11:14:45Z</time></trkpt><trkpt lat="42.950530" lon="-0.067147"><ele>498.10</ele><time>2010-10-10T11:14:46Z</time></trkpt><trkpt lat="42.950586" lon="-0.067239"><ele>498.10</ele><time>2010-10-10T11:14:47Z</time></trkpt><trkpt lat="42.950653" lon="-0.067338"><ele>498.10</ele><time>2010-10-10T11:14:49Z</time></trkpt><trkpt lat="42.950675" lon="-0.067372"><ele>498.10</ele><time>2010-10-10T11:14:50Z</time></trkpt><trkpt lat="42.950711" lon="-0.067413"><ele>498.10</ele><time>2010-10-10T11:14:51Z</time></trkpt><trkpt lat="42.950726" lon="-0.067382"><ele>498.58</ele><time>2010-10-10T11:14:52Z</time></trkpt><trkpt lat="42.950778" lon="-0.067329"><ele>499.06</ele><time>2010-10-10T11:14:53Z</time></trkpt><trkpt lat="42.950950" lon="-0.067294"><ele>499.54</ele><time>2010-10-10T11:14:56Z</time></trkpt><trkpt lat="42.950950" lon="-0.067294"><ele>499.06</ele><time>2010-10-10T11:14:57Z</time></trkpt><trkpt lat="42.951066" lon="-0.067189"><ele>499.54</ele><time>2010-10-10T11:14:58Z</time></trkpt><trkpt lat="42.951711" lon="-0.066545"><ele>500.98</ele><time>2010-10-10T11:15:05Z</time></trkpt><trkpt lat="42.951821" lon="-0.066434"><ele>501.46</ele><time>2010-10-10T11:15:06Z</time></trkpt><trkpt lat="42.951920" lon="-0.066341"><ele>501.95</ele><time>2010-10-10T11:15:07Z</time></trkpt><trkpt lat="42.952058" lon="-0.066272"><ele>502.43</ele><time>2010-10-10T11:15:08Z</time></trkpt><trkpt lat="42.952831" lon="-0.065878"><ele>503.87</ele><time>2010-10-10T11:15:13Z</time></trkpt><trkpt lat="42.952959" lon="-0.065798"><ele>504.35</ele><time>2010-10-10T11:15:14Z</time></trkpt><trkpt lat="42.952959" lon="-0.065798"><ele>504.83</ele><time>2010-10-10T11:15:15Z</time></trkpt><trkpt lat="42.953239" lon="-0.065001"><ele>506.75</ele><time>2010-10-10T11:15:21Z</time></trkpt><trkpt lat="42.954419" lon="-0.064953"><ele>508.19</ele><time>2010-10-10T11:15:27Z</time></trkpt><trkpt lat="42.954548" lon="-0.065022"><ele>508.67</ele><time>2010-10-10T11:15:28Z</time></trkpt><trkpt lat="42.955255" lon="-0.065450"><ele>505.79</ele><time>2010-10-10T11:15:33Z</time></trkpt><trkpt lat="42.956492" lon="-0.065611"><ele>499.06</ele><time>2010-10-10T11:15:40Z</time></trkpt><trkpt lat="42.956817" lon="-0.065560"><ele>496.66</ele><time>2010-10-10T11:15:42Z</time></trkpt><trkpt lat="42.957451" lon="-0.064373"><ele>484.16</ele><time>2010-10-10T11:15:47Z</time></trkpt><trkpt lat="42.957552" lon="-0.064373"><ele>480.80</ele><time>2010-10-10T11:15:48Z</time></trkpt><trkpt lat="42.957647" lon="-0.064373"><ele>478.87</ele><time>2010-10-10T11:15:49Z</time></trkpt><trkpt lat="42.958260" lon="-0.064073"><ele>475.99</ele><time>2010-10-10T11:15:54Z</time></trkpt><trkpt lat="42.958390" lon="-0.063980"><ele>475.99</ele><time>2010-10-10T11:15:55Z</time></trkpt><trkpt lat="42.959736" lon="-0.063105"><ele>472.63</ele><time>2010-10-10T11:16:04Z</time></trkpt><trkpt lat="42.959883" lon="-0.063027"><ele>472.63</ele><time>2010-10-10T11:16:05Z</time></trkpt><trkpt lat="42.959883" lon="-0.063027"><ele>472.14</ele><time>2010-10-10T11:16:06Z</time></trkpt><trkpt lat="42.960203" lon="-0.062966"><ele>472.14</ele><time>2010-10-10T11:16:07Z</time></trkpt><trkpt lat="42.960377" lon="-0.062951"><ele>472.14</ele><time>2010-10-10T11:16:08Z</time></trkpt><trkpt lat="42.960558" lon="-0.062939"><ele>472.14</ele><time>2010-10-10T11:16:09Z</time></trkpt><trkpt lat="42.962153" lon="-0.062751"><ele>469.26</ele><time>2010-10-10T11:16:18Z</time></trkpt><trkpt lat="42.963532" lon="-0.062029"><ele>465.90</ele><time>2010-10-10T11:16:26Z</time></trkpt><trkpt lat="42.964916" lon="-0.060796"><ele>464.45</ele><time>2010-10-10T11:16:35Z</time></trkpt><trkpt lat="42.965221" lon="-0.060567"><ele>463.97</ele><time>2010-10-10T11:16:37Z</time></trkpt><trkpt lat="42.965375" lon="-0.060506"><ele>463.49</ele><time>2010-10-10T11:16:38Z</time></trkpt><trkpt lat="42.965556" lon="-0.060468"><ele>463.49</ele><time>2010-10-10T11:16:39Z</time></trkpt><trkpt lat="42.965721" lon="-0.060468"><ele>463.49</ele><time>2010-10-10T11:16:40Z</time></trkpt><trkpt lat="42.965890" lon="-0.060500"><ele>463.49</ele><time>2010-10-10T11:16:41Z</time></trkpt><trkpt lat="42.966042" lon="-0.060563"><ele>463.01</ele><time>2010-10-10T11:16:42Z</time></trkpt><trkpt lat="42.966199" lon="-0.060628"><ele>463.01</ele><time>2010-10-10T11:16:43Z</time></trkpt><trkpt lat="42.966361" lon="-0.060705"><ele>463.01</ele><time>2010-10-10T11:16:44Z</time></trkpt><trkpt lat="42.966515" lon="-0.060809"><ele>462.53</ele><time>2010-10-10T11:16:45Z</time></trkpt><trkpt lat="42.966994" lon="-0.061134"><ele>462.05</ele><time>2010-10-10T11:16:48Z</time></trkpt><trkpt lat="42.967162" lon="-0.061248"><ele>462.05</ele><time>2010-10-10T11:16:49Z</time></trkpt><trkpt lat="42.967331" lon="-0.061363"><ele>462.05</ele><time>2010-10-10T11:16:50Z</time></trkpt><trkpt lat="42.968630" lon="-0.061812"><ele>462.05</ele><time>2010-10-10T11:16:57Z</time></trkpt><trkpt lat="42.970605" lon="-0.062387"><ele>461.57</ele><time>2010-10-10T11:17:07Z</time></trkpt><trkpt lat="42.972801" lon="-0.064690"><ele>461.09</ele><time>2010-10-10T11:17:19Z</time></trkpt><trkpt lat="42.974261" lon="-0.066193"><ele>460.61</ele><time>2010-10-10T11:17:28Z</time></trkpt><trkpt lat="42.975700" lon="-0.067788"><ele>460.13</ele><time>2010-10-10T11:17:37Z</time></trkpt><trkpt lat="42.976267" lon="-0.068140"><ele>459.65</ele><time>2010-10-10T11:17:40Z</time></trkpt><trkpt lat="42.977832" lon="-0.068796"><ele>457.72</ele><time>2010-10-10T11:17:48Z</time></trkpt><trkpt lat="42.979035" lon="-0.069309"><ele>457.24</ele><time>2010-10-10T11:17:56Z</time></trkpt><trkpt lat="42.979616" lon="-0.069458"><ele>456.76</ele><time>2010-10-10T11:18:06Z</time></trkpt><trkpt lat="42.979616" lon="-0.069458"><ele>446.19</ele><time>2010-10-10T11:19:17Z</time></trkpt><trkpt lat="42.979616" lon="-0.069458"><ele>443.31</ele><time>2010-10-10T11:19:24Z</time></trkpt></trkseg></trk><trk><name>ACTIVE LOG: 10 окт 2010 13:19</name><trkseg><trkpt lat="42.997163" lon="-0.077509"><ele>441.38</ele><time>2010-10-10T11:19:30Z</time></trkpt><trkpt lat="42.997551" lon="-0.077518"><ele>440.90</ele><time>2010-10-10T11:19:32Z</time></trkpt><trkpt lat="42.997759" lon="-0.077522"><ele>440.90</ele><time>2010-10-10T11:19:33Z</time></trkpt><trkpt lat="42.999314" lon="-0.077659"><ele>435.61</ele><time>2010-10-10T11:19:41Z</time></trkpt><trkpt lat="43.000772" lon="-0.078396"><ele>431.77</ele><time>2010-10-10T11:19:49Z</time></trkpt><trkpt lat="43.000944" lon="-0.078488"><ele>431.29</ele><time>2010-10-10T11:19:50Z</time></trkpt><trkpt lat="43.001117" lon="-0.078580"><ele>431.29</ele><time>2010-10-10T11:19:51Z</time></trkpt><trkpt lat="43.001294" lon="-0.078675"><ele>430.81</ele><time>2010-10-10T11:19:52Z</time></trkpt><trkpt lat="43.002970" lon="-0.079146"><ele>428.89</ele><time>2010-10-10T11:20:01Z</time></trkpt><trkpt lat="43.004338" lon="-0.079423"><ele>427.92</ele><time>2010-10-10T11:20:09Z</time></trkpt><trkpt lat="43.004653" lon="-0.079654"><ele>427.92</ele><time>2010-10-10T11:20:12Z</time></trkpt><trkpt lat="43.004725" lon="-0.079774"><ele>427.92</ele><time>2010-10-10T11:20:13Z</time></trkpt><trkpt lat="43.004798" lon="-0.079895"><ele>427.92</ele><time>2010-10-10T11:20:14Z</time></trkpt><trkpt lat="43.004947" lon="-0.080140"><ele>427.92</ele><time>2010-10-10T11:20:16Z</time></trkpt><trkpt lat="43.005089" lon="-0.080368"><ele>428.40</ele><time>2010-10-10T11:20:18Z</time></trkpt><trkpt lat="43.005297" lon="-0.080700"><ele>429.85</ele><time>2010-10-10T11:20:21Z</time></trkpt><trkpt lat="43.005347" lon="-0.080801"><ele>430.33</ele><time>2010-10-10T11:20:22Z</time></trkpt><trkpt lat="43.005381" lon="-0.080938"><ele>430.33</ele><time>2010-10-10T11:20:23Z</time></trkpt><trkpt lat="43.005392" lon="-0.081126"><ele>430.81</ele><time>2010-10-10T11:20:25Z</time></trkpt><trkpt lat="43.005399" lon="-0.081250"><ele>430.81</ele><time>2010-10-10T11:20:26Z</time></trkpt><trkpt lat="43.005407" lon="-0.081384"><ele>431.29</ele><time>2010-10-10T11:20:27Z</time></trkpt><trkpt lat="43.005425" lon="-0.081677"><ele>431.77</ele><time>2010-10-10T11:20:29Z</time></trkpt><trkpt lat="43.005450" lon="-0.082579"><ele>429.37</ele><time>2010-10-10T11:20:36Z</time></trkpt><trkpt lat="43.005510" lon="-0.082748"><ele>428.89</ele><time>2010-10-10T11:20:38Z</time></trkpt><trkpt lat="43.005495" lon="-0.082849"><ele>428.40</ele><time>2010-10-10T11:20:39Z</time></trkpt><trkpt lat="43.005449" lon="-0.082918"><ele>428.40</ele><time>2010-10-10T11:20:40Z</time></trkpt><trkpt lat="43.005393" lon="-0.082971"><ele>428.40</ele><time>2010-10-10T11:20:41Z</time></trkpt><trkpt lat="43.005327" lon="-0.082998"><ele>428.40</ele><time>2010-10-10T11:20:42Z</time></trkpt><trkpt lat="43.005250" lon="-0.082998"><ele>427.92</ele><time>2010-10-10T11:20:43Z</time></trkpt><trkpt lat="43.005189" lon="-0.082957"><ele>427.92</ele><time>2010-10-10T11:20:44Z</time></trkpt><trkpt lat="43.005147" lon="-0.082873"><ele>427.92</ele><time>2010-10-10T11:20:45Z</time></trkpt><trkpt lat="43.005104" lon="-0.082788"><ele>427.44</ele><time>2010-10-10T11:20:46Z</time></trkpt><trkpt lat="43.005081" lon="-0.082706"><ele>426.96</ele><time>2010-10-10T11:20:47Z</time></trkpt><trkpt lat="43.005081" lon="-0.082607"><ele>425.52</ele><time>2010-10-10T11:20:48Z</time></trkpt><trkpt lat="43.005132" lon="-0.082518"><ele>424.08</ele><time>2010-10-10T11:20:49Z</time></trkpt><trkpt lat="43.005178" lon="-0.082472"><ele>423.60</ele><time>2010-10-10T11:20:50Z</time></trkpt><trkpt lat="43.005193" lon="-0.082311"><ele>422.64</ele><time>2010-10-10T11:20:51Z</time></trkpt><trkpt lat="43.005180" lon="-0.082203"><ele>422.16</ele><time>2010-10-10T11:20:52Z</time></trkpt><trkpt lat="43.005437" lon="-0.081814"><ele>422.16</ele><time>2010-10-10T11:20:55Z</time></trkpt><trkpt lat="43.005429" lon="-0.081720"><ele>422.16</ele><time>2010-10-10T11:20:56Z</time></trkpt><trkpt lat="43.005423" lon="-0.081654"><ele>422.64</ele><time>2010-10-10T11:20:57Z</time></trkpt><trkpt lat="43.005419" lon="-0.081576"><ele>422.64</ele><time>2010-10-10T11:20:58Z</time></trkpt><trkpt lat="43.005002" lon="-0.081558"><ele>422.64</ele><time>2010-10-10T11:20:59Z</time></trkpt><trkpt lat="43.004930" lon="-0.081510"><ele>423.12</ele><time>2010-10-10T11:21:00Z</time></trkpt><trkpt lat="43.004847" lon="-0.081487"><ele>423.12</ele><time>2010-10-10T11:21:01Z</time></trkpt><trkpt lat="43.004750" lon="-0.081473"><ele>423.12</ele><time>2010-10-10T11:21:02Z</time></trkpt><trkpt lat="43.004631" lon="-0.081455"><ele>423.12</ele><time>2010-10-10T11:21:03Z</time></trkpt><trkpt lat="43.004494" lon="-0.081435"><ele>423.12</ele><time>2010-10-10T11:21:04Z</time></trkpt><trkpt lat="43.004365" lon="-0.081416"><ele>423.60</ele><time>2010-10-10T11:21:05Z</time></trkpt><trkpt lat="43.004251" lon="-0.081399"><ele>423.60</ele><time>2010-10-10T11:21:06Z</time></trkpt><trkpt lat="43.003820" lon="-0.081335"><ele>424.08</ele><time>2010-10-10T11:21:10Z</time></trkpt><trkpt lat="43.003820" lon="-0.081335"><ele>424.08</ele><time>2010-10-10T11:21:11Z</time></trkpt><trkpt lat="43.003820" lon="-0.081335"><ele>424.08</ele><time>2010-10-10T11:21:12Z</time></trkpt><trkpt lat="43.002605" lon="-0.081156"><ele>424.56</ele><time>2010-10-10T11:21:22Z</time></trkpt><trkpt lat="43.002605" lon="-0.081156"><ele>424.56</ele><time>2010-10-10T11:21:23Z</time></trkpt><trkpt lat="43.002605" lon="-0.081156"><ele>424.08</ele><time>2010-10-10T11:21:24Z</time></trkpt><trkpt lat="43.000668" lon="-0.081110"><ele>423.60</ele><time>2010-10-10T11:21:34Z</time></trkpt><trkpt lat="42.999245" lon="-0.081153"><ele>422.64</ele><time>2010-10-10T11:21:45Z</time></trkpt><trkpt lat="42.999169" lon="-0.081191"><ele>422.64</ele><time>2010-10-10T11:21:46Z</time></trkpt><trkpt lat="42.999095" lon="-0.081228"><ele>422.64</ele><time>2010-10-10T11:21:47Z</time></trkpt><trkpt lat="42.999038" lon="-0.081283"><ele>422.64</ele><time>2010-10-10T11:21:48Z</time></trkpt><trkpt lat="42.998981" lon="-0.081353"><ele>423.12</ele><time>2010-10-10T11:21:49Z</time></trkpt><trkpt lat="42.998930" lon="-0.081417"><ele>423.12</ele><time>2010-10-10T11:21:50Z</time></trkpt><trkpt lat="42.998903" lon="-0.081496"><ele>423.12</ele><time>2010-10-10T11:21:51Z</time></trkpt><trkpt lat="42.998909" lon="-0.081595"><ele>423.12</ele><time>2010-10-10T11:21:52Z</time></trkpt><trkpt lat="42.998915" lon="-0.081703"><ele>423.12</ele><time>2010-10-10T11:21:53Z</time></trkpt><trkpt lat="42.998921" lon="-0.081814"><ele>423.12</ele><time>2010-10-10T11:21:54Z</time></trkpt><trkpt lat="42.998933" lon="-0.082037"><ele>423.12</ele><time>2010-10-10T11:21:56Z</time></trkpt></trkseg></trk><trk><name>ACTIVE LOG: 10 окт 2010 13:21</name><trkseg><trkpt lat="42.998939" lon="-0.082145"><ele>423.12</ele><time>2010-10-10T11:21:57Z</time></trkpt><trkpt lat="42.998940" lon="-0.082238"><ele>423.12</ele><time>2010-10-10T11:21:58Z</time></trkpt><trkpt lat="42.998910" lon="-0.082326"><ele>423.12</ele><time>2010-10-10T11:21:59Z</time></trkpt><trkpt lat="42.998882" lon="-0.082363"><ele>423.12</ele><time>2010-10-10T11:22:00Z</time></trkpt><trkpt lat="42.998812" lon="-0.082396"><ele>423.60</ele><time>2010-10-10T11:22:01Z</time></trkpt><trkpt lat="42.998729" lon="-0.082434"><ele>423.60</ele><time>2010-10-10T11:22:02Z</time></trkpt><trkpt lat="42.998640" lon="-0.082475"><ele>424.08</ele><time>2010-10-10T11:22:03Z</time></trkpt><trkpt lat="42.998559" lon="-0.082512"><ele>424.08</ele><time>2010-10-10T11:22:04Z</time></trkpt><trkpt lat="42.998334" lon="-0.082623"><ele>424.56</ele><time>2010-10-10T11:22:07Z</time></trkpt><trkpt lat="42.998274" lon="-0.082699"><ele>425.04</ele><time>2010-10-10T11:22:08Z</time></trkpt><trkpt lat="42.998213" lon="-0.082775"><ele>424.56</ele><time>2010-10-10T11:22:09Z</time></trkpt><trkpt lat="42.998165" lon="-0.082899"><ele>424.08</ele><time>2010-10-10T11:22:10Z</time></trkpt><trkpt lat="42.998153" lon="-0.083024"><ele>422.64</ele><time>2010-10-10T11:22:11Z</time></trkpt><trkpt lat="42.998144" lon="-0.083129"><ele>422.64</ele><time>2010-10-10T11:22:12Z</time></trkpt><trkpt lat="42.998136" lon="-0.083216"><ele>423.12</ele><time>2010-10-10T11:22:13Z</time></trkpt><trkpt lat="42.998129" lon="-0.083294"><ele>423.60</ele><time>2010-10-10T11:22:14Z</time></trkpt><trkpt lat="42.998136" lon="-0.083416"><ele>424.56</ele><time>2010-10-10T11:22:16Z</time></trkpt><trkpt lat="42.998171" lon="-0.083942"><ele>425.04</ele><time>2010-10-10T11:22:17Z</time></trkpt><trkpt lat="42.998171" lon="-0.083956"><ele>425.04</ele><time>2010-10-10T11:22:18Z</time></trkpt><trkpt lat="42.998171" lon="-0.083942"><ele>425.52</ele><time>2010-10-10T11:22:19Z</time></trkpt><trkpt lat="42.998171" lon="-0.083942"><ele>424.56</ele><time>2010-10-10T11:22:20Z</time></trkpt><trkpt lat="42.998171" lon="-0.083942"><ele>424.08</ele><time>2010-10-10T11:22:21Z</time></trkpt><trkpt lat="42.998171" lon="-0.083942"><ele>424.08</ele><time>2010-10-10T11:22:34Z</time></trkpt><trkpt lat="42.998171" lon="-0.083942"><ele>424.08</ele><time>2010-10-10T11:22:59Z</time></trkpt><trkpt lat="42.998171" lon="-0.083942"><ele>422.16</ele><time>2010-10-10T11:24:40Z</time></trkpt><trkpt lat="42.998171" lon="-0.083942"><ele>422.16</ele><time>2010-10-10T11:24:41Z</time></trkpt><trkpt lat="42.998131" lon="-0.083267"><ele>422.16</ele><time>2010-10-10T11:24:42Z</time></trkpt><trkpt lat="42.998136" lon="-0.083212"><ele>422.16</ele><time>2010-10-10T11:24:43Z</time></trkpt><trkpt lat="42.998139" lon="-0.083183"><ele>422.16</ele><time>2010-10-10T11:24:44Z</time></trkpt><trkpt lat="42.998141" lon="-0.083161"><ele>422.16</ele><time>2010-10-10T11:24:45Z</time></trkpt><trkpt lat="42.998308" lon="-0.083140"><ele>422.64</ele><time>2010-10-10T11:24:48Z</time></trkpt><trkpt lat="42.998298" lon="-0.083292"><ele>422.64</ele><time>2010-10-10T11:24:58Z</time></trkpt><trkpt lat="42.998209" lon="-0.083327"><ele>422.64</ele><time>2010-10-10T11:25:19Z</time></trkpt></trkseg></trk><trk><name>ACTIVE LOG: 10 окт 2010 13:29</name><trkseg><trkpt lat="42.998116" lon="-0.083327"><ele>424.08</ele><time>2010-10-10T11:29:16Z</time></trkpt><trkpt lat="42.998081" lon="-0.083301"><ele>424.56</ele><time>2010-10-10T11:29:19Z</time></trkpt><trkpt lat="42.998080" lon="-0.083333"><ele>424.56</ele><time>2010-10-10T11:29:22Z</time></trkpt><trkpt lat="42.998161" lon="-0.082945"><ele>424.08</ele><time>2010-10-10T11:29:30Z</time></trkpt><trkpt lat="42.998167" lon="-0.082871"><ele>424.08</ele><time>2010-10-10T11:29:31Z</time></trkpt><trkpt lat="42.998196" lon="-0.082796"><ele>424.08</ele><time>2010-10-10T11:29:32Z</time></trkpt><trkpt lat="42.998239" lon="-0.082742"><ele>424.08</ele><time>2010-10-10T11:29:33Z</time></trkpt><trkpt lat="42.998284" lon="-0.082685"><ele>424.08</ele><time>2010-10-10T11:29:34Z</time></trkpt><trkpt lat="42.998333" lon="-0.082624"><ele>424.08</ele><time>2010-10-10T11:29:35Z</time></trkpt><trkpt lat="42.998400" lon="-0.082586"><ele>424.08</ele><time>2010-10-10T11:29:36Z</time></trkpt><trkpt lat="42.998467" lon="-0.082555"><ele>424.08</ele><time>2010-10-10T11:29:37Z</time></trkpt><trkpt lat="42.998536" lon="-0.082523"><ele>424.08</ele><time>2010-10-10T11:29:38Z</time></trkpt><trkpt lat="42.998826" lon="-0.082389"><ele>423.60</ele><time>2010-10-10T11:29:42Z</time></trkpt><trkpt lat="42.998883" lon="-0.082363"><ele>423.60</ele><time>2010-10-10T11:29:43Z</time></trkpt><trkpt lat="42.998924" lon="-0.082286"><ele>423.12</ele><time>2010-10-10T11:29:44Z</time></trkpt><trkpt lat="42.998942" lon="-0.082190"><ele>423.12</ele><time>2010-10-10T11:29:45Z</time></trkpt><trkpt lat="42.998936" lon="-0.082089"><ele>423.12</ele><time>2010-10-10T11:29:46Z</time></trkpt><trkpt lat="42.998930" lon="-0.081975"><ele>423.12</ele><time>2010-10-10T11:29:47Z</time></trkpt><trkpt lat="42.998923" lon="-0.081855"><ele>423.12</ele><time>2010-10-10T11:29:48Z</time></trkpt><trkpt lat="42.998910" lon="-0.081615"><ele>423.12</ele><time>2010-10-10T11:29:50Z</time></trkpt><trkpt lat="42.998904" lon="-0.081499"><ele>423.12</ele><time>2010-10-10T11:29:51Z</time></trkpt><trkpt lat="42.998930" lon="-0.081417"><ele>423.60</ele><time>2010-10-10T11:29:52Z</time></trkpt><trkpt lat="42.998979" lon="-0.081356"><ele>423.60</ele><time>2010-10-10T11:29:53Z</time></trkpt><trkpt lat="42.999030" lon="-0.081292"><ele>423.60</ele><time>2010-10-10T11:29:54Z</time></trkpt><trkpt lat="42.999073" lon="-0.081239"><ele>423.60</ele><time>2010-10-10T11:29:55Z</time></trkpt><trkpt lat="42.999150" lon="-0.081200"><ele>423.60</ele><time>2010-10-10T11:29:56Z</time></trkpt><trkpt lat="42.999235" lon="-0.081157"><ele>423.60</ele><time>2010-10-10T11:29:57Z</time></trkpt><trkpt lat="42.999327" lon="-0.081111"><ele>423.60</ele><time>2010-10-10T11:29:58Z</time></trkpt><trkpt lat="42.999438" lon="-0.081110"><ele>423.60</ele><time>2010-10-10T11:29:59Z</time></trkpt><trkpt lat="42.999555" lon="-0.081110"><ele>423.60</ele><time>2010-10-10T11:30:00Z</time></trkpt><trkpt lat="42.999938" lon="-0.081110"><ele>422.64</ele><time>2010-10-10T11:30:03Z</time></trkpt><trkpt lat="43.000079" lon="-0.081110"><ele>422.64</ele><time>2010-10-10T11:30:04Z</time></trkpt><trkpt lat="43.001454" lon="-0.081110"><ele>418.31</ele><time>2010-10-10T11:30:13Z</time></trkpt><trkpt lat="43.002852" lon="-0.081193"><ele>413.02</ele><time>2010-10-10T11:30:23Z</time></trkpt><trkpt lat="43.004282" lon="-0.081404"><ele>409.18</ele><time>2010-10-10T11:30:32Z</time></trkpt><trkpt lat="43.004914" lon="-0.081500"><ele>408.22</ele><time>2010-10-10T11:30:37Z</time></trkpt><trkpt lat="43.004992" lon="-0.081551"><ele>407.74</ele><time>2010-10-10T11:30:38Z</time></trkpt><trkpt lat="43.005058" lon="-0.081622"><ele>407.74</ele><time>2010-10-10T11:30:39Z</time></trkpt><trkpt lat="43.005100" lon="-0.081707"><ele>408.70</ele><time>2010-10-10T11:30:40Z</time></trkpt><trkpt lat="43.005130" lon="-0.081806"><ele>408.70</ele><time>2010-10-10T11:30:41Z</time></trkpt><trkpt lat="43.005143" lon="-0.081909"><ele>409.18</ele><time>2010-10-10T11:30:42Z</time></trkpt><trkpt lat="43.005189" lon="-0.082277"><ele>410.62</ele><time>2010-10-10T11:30:46Z</time></trkpt><trkpt lat="43.005225" lon="-0.082440"><ele>411.58</ele><time>2010-10-10T11:30:47Z</time></trkpt><trkpt lat="43.005267" lon="-0.082440"><ele>411.58</ele><time>2010-10-10T11:30:48Z</time></trkpt><trkpt lat="43.005318" lon="-0.082440"><ele>411.58</ele><time>2010-10-10T11:30:49Z</time></trkpt><trkpt lat="43.005371" lon="-0.082440"><ele>412.06</ele><time>2010-10-10T11:30:50Z</time></trkpt><trkpt lat="43.005396" lon="-0.082470"><ele>412.06</ele><time>2010-10-10T11:30:51Z</time></trkpt><trkpt lat="43.005427" lon="-0.082533"><ele>412.54</ele><time>2010-10-10T11:30:52Z</time></trkpt><trkpt lat="43.005460" lon="-0.082597"><ele>413.02</ele><time>2010-10-10T11:30:53Z</time></trkpt><trkpt lat="43.005490" lon="-0.082658"><ele>413.02</ele><time>2010-10-10T11:30:54Z</time></trkpt><trkpt lat="43.005510" lon="-0.082703"><ele>413.02</ele><time>2010-10-10T11:30:55Z</time></trkpt><trkpt lat="43.005510" lon="-0.082771"><ele>413.50</ele><time>2010-10-10T11:30:56Z</time></trkpt><trkpt lat="43.005501" lon="-0.082839"><ele>413.98</ele><time>2010-10-10T11:30:57Z</time></trkpt><trkpt lat="43.005501" lon="-0.082839"><ele>414.95</ele><time>2010-10-10T11:30:58Z</time></trkpt><trkpt lat="43.005460" lon="-0.083024"><ele>414.95</ele><time>2010-10-10T11:30:59Z</time></trkpt><trkpt lat="43.005499" lon="-0.083098"><ele>414.95</ele><time>2010-10-10T11:31:00Z</time></trkpt><trkpt lat="43.005546" lon="-0.083189"><ele>414.95</ele><time>2010-10-10T11:31:01Z</time></trkpt><trkpt lat="43.005598" lon="-0.083288"><ele>414.95</ele><time>2010-10-10T11:31:02Z</time></trkpt><trkpt lat="43.005658" lon="-0.083404"><ele>414.95</ele><time>2010-10-10T11:31:03Z</time></trkpt><trkpt lat="43.005728" lon="-0.083538"><ele>414.47</ele><time>2010-10-10T11:31:04Z</time></trkpt><trkpt lat="43.005880" lon="-0.083829"><ele>413.98</ele><time>2010-10-10T11:31:06Z</time></trkpt><trkpt lat="43.006166" lon="-0.084282"><ele>413.02</ele><time>2010-10-10T11:31:09Z</time></trkpt><trkpt lat="43.006521" lon="-0.084727"><ele>412.54</ele><time>2010-10-10T11:31:12Z</time></trkpt><trkpt lat="43.006951" lon="-0.085092"><ele>413.98</ele><time>2010-10-10T11:31:15Z</time></trkpt><trkpt lat="43.008391" lon="-0.085480"><ele>413.98</ele><time>2010-10-10T11:31:23Z</time></trkpt><trkpt lat="43.010448" lon="-0.085973"><ele>414.47</ele><time>2010-10-10T11:31:33Z</time></trkpt><trkpt lat="43.012240" lon="-0.086376"><ele>414.95</ele><time>2010-10-10T11:31:42Z</time></trkpt><trkpt lat="43.012657" lon="-0.086449"><ele>415.43</ele><time>2010-10-10T11:31:45Z</time></trkpt><trkpt lat="43.012806" lon="-0.086473"><ele>415.43</ele><time>2010-10-10T11:31:46Z</time></trkpt><trkpt lat="43.012866" lon="-0.086384"><ele>415.43</ele><time>2010-10-10T11:31:47Z</time></trkpt><trkpt lat="43.013111" lon="-0.086367"><ele>415.43</ele><time>2010-10-10T11:31:49Z</time></trkpt><trkpt lat="43.013149" lon="-0.086517"><ele>415.43</ele><time>2010-10-10T11:31:50Z</time></trkpt><trkpt lat="43.013228" lon="-0.086537"><ele>415.43</ele><time>2010-10-10T11:31:51Z</time></trkpt><trkpt lat="43.013326" lon="-0.086562"><ele>414.95</ele><time>2010-10-10T11:31:52Z</time></trkpt><trkpt lat="43.013438" lon="-0.086590"><ele>414.95</ele><time>2010-10-10T11:31:53Z</time></trkpt><trkpt lat="43.013561" lon="-0.086620"><ele>414.95</ele><time>2010-10-10T11:31:54Z</time></trkpt><trkpt lat="43.014734" lon="-0.086913"><ele>414.47</ele><time>2010-10-10T11:32:01Z</time></trkpt><trkpt lat="43.016472" lon="-0.087222"><ele>413.98</ele><time>2010-10-10T11:32:09Z</time></trkpt><trkpt lat="43.018468" lon="-0.087028"><ele>412.06</ele><time>2010-10-10T11:32:17Z</time></trkpt><trkpt lat="43.019741" lon="-0.086546"><ele>410.62</ele><time>2010-10-10T11:32:22Z</time></trkpt><trkpt lat="43.022322" lon="-0.084999"><ele>408.22</ele><time>2010-10-10T11:32:33Z</time></trkpt><trkpt lat="43.025402" lon="-0.083227"><ele>409.18</ele><time>2010-10-10T11:32:47Z</time></trkpt><trkpt lat="43.026791" lon="-0.081790"><ele>407.74</ele><time>2010-10-10T11:32:54Z</time></trkpt><trkpt lat="43.027742" lon="-0.079831"><ele>407.26</ele><time>2010-10-10T11:33:01Z</time></trkpt><trkpt lat="43.028142" lon="-0.077963"><ele>406.77</ele><time>2010-10-10T11:33:07Z</time></trkpt><trkpt lat="43.028410" lon="-0.075662"><ele>405.81</ele><time>2010-10-10T11:33:14Z</time></trkpt><trkpt lat="43.028841" lon="-0.071822"><ele>407.74</ele><time>2010-10-10T11:33:27Z</time></trkpt><trkpt lat="43.029379" lon="-0.068639"><ele>406.77</ele><time>2010-10-10T11:33:38Z</time></trkpt><trkpt lat="43.030197" lon="-0.066718"><ele>404.37</ele><time>2010-10-10T11:33:45Z</time></trkpt><trkpt lat="43.031379" lon="-0.065198"><ele>401.97</ele><time>2010-10-10T11:33:52Z</time></trkpt><trkpt lat="43.032980" lon="-0.064122"><ele>401.01</ele><time>2010-10-10T11:34:00Z</time></trkpt><trkpt lat="43.034521" lon="-0.063729"><ele>399.57</ele><time>2010-10-10T11:34:07Z</time></trkpt><trkpt lat="43.036090" lon="-0.063942"><ele>399.08</ele><time>2010-10-10T11:34:14Z</time></trkpt><trkpt lat="43.037801" lon="-0.064544"><ele>398.12</ele><time>2010-10-10T11:34:22Z</time></trkpt><trkpt lat="43.039367" lon="-0.064880"><ele>397.16</ele><time>2010-10-10T11:34:29Z</time></trkpt><trkpt lat="43.040899" lon="-0.064476"><ele>396.20</ele><time>2010-10-10T11:34:36Z</time></trkpt><trkpt lat="43.042255" lon="-0.063503"><ele>397.64</ele><time>2010-10-10T11:34:43Z</time></trkpt><trkpt lat="43.043855" lon="-0.061649"><ele>400.05</ele><time>2010-10-10T11:34:53Z</time></trkpt><trkpt lat="43.045934" lon="-0.059643"><ele>401.01</ele><time>2010-10-10T11:35:05Z</time></trkpt><trkpt lat="43.048392" lon="-0.057203"><ele>401.49</ele><time>2010-10-10T11:35:18Z</time></trkpt><trkpt lat="43.049468" lon="-0.055538"><ele>400.05</ele><time>2010-10-10T11:35:25Z</time></trkpt><trkpt lat="43.050865" lon="-0.053591"><ele>397.64</ele><time>2010-10-10T11:35:34Z</time></trkpt><trkpt lat="43.052942" lon="-0.051042"><ele>392.36</ele><time>2010-10-10T11:35:46Z</time></trkpt><trkpt lat="43.055220" lon="-0.048242"><ele>391.87</ele><time>2010-10-10T11:35:59Z</time></trkpt><trkpt lat="43.057828" lon="-0.045063"><ele>392.84</ele><time>2010-10-10T11:36:15Z</time></trkpt><trkpt lat="43.059725" lon="-0.043416"><ele>393.80</ele><time>2010-10-10T11:36:25Z</time></trkpt><trkpt lat="43.061188" lon="-0.042608"><ele>394.28</ele><time>2010-10-10T11:36:32Z</time></trkpt><trkpt lat="43.063299" lon="-0.042038"><ele>394.76</ele><time>2010-10-10T11:36:42Z</time></trkpt><trkpt lat="43.065548" lon="-0.041775"><ele>395.72</ele><time>2010-10-10T11:36:53Z</time></trkpt><trkpt lat="43.066851" lon="-0.041764"><ele>395.24</ele><time>2010-10-10T11:37:01Z</time></trkpt><trkpt lat="43.068117" lon="-0.042225"><ele>395.72</ele><time>2010-10-10T11:37:09Z</time></trkpt><trkpt lat="43.069618" lon="-0.043362"><ele>397.16</ele><time>2010-10-10T11:37:18Z</time></trkpt><trkpt lat="43.069791" lon="-0.043440"><ele>397.64</ele><time>2010-10-10T11:37:19Z</time></trkpt><trkpt lat="43.071056" lon="-0.043653"><ele>400.53</ele><time>2010-10-10T11:37:26Z</time></trkpt><trkpt lat="43.072234" lon="-0.043178"><ele>404.85</ele><time>2010-10-10T11:37:33Z</time></trkpt><trkpt lat="43.073198" lon="-0.042719"><ele>409.18</ele><time>2010-10-10T11:37:39Z</time></trkpt><trkpt lat="43.073366" lon="-0.042696"><ele>409.66</ele><time>2010-10-10T11:37:40Z</time></trkpt><trkpt lat="43.074571" lon="-0.042661"><ele>412.06</ele><time>2010-10-10T11:37:47Z</time></trkpt><trkpt lat="43.076232" lon="-0.043279"><ele>412.54</ele><time>2010-10-10T11:37:56Z</time></trkpt><trkpt lat="43.079316" lon="-0.044513"><ele>408.22</ele><time>2010-10-10T11:38:11Z</time></trkpt><trkpt lat="43.081158" lon="-0.044740"><ele>408.22</ele><time>2010-10-10T11:38:20Z</time></trkpt><trkpt lat="43.082455" lon="-0.044657"><ele>411.10</ele><time>2010-10-10T11:38:29Z</time></trkpt><trkpt lat="43.082681" lon="-0.044641"><ele>411.58</ele><time>2010-10-10T11:38:32Z</time></trkpt><trkpt lat="43.082756" lon="-0.044635"><ele>412.54</ele><time>2010-10-10T11:38:35Z</time></trkpt><trkpt lat="43.082887" lon="-0.044374"><ele>413.02</ele><time>2010-10-10T11:38:38Z</time></trkpt><trkpt lat="43.082973" lon="-0.044332"><ele>413.50</ele><time>2010-10-10T11:38:39Z</time></trkpt><trkpt lat="43.083037" lon="-0.044332"><ele>413.50</ele><time>2010-10-10T11:38:40Z</time></trkpt><trkpt lat="43.083120" lon="-0.044370"><ele>413.98</ele><time>2010-10-10T11:38:41Z</time></trkpt><trkpt lat="43.083149" lon="-0.044427"><ele>413.98</ele><time>2010-10-10T11:38:42Z</time></trkpt><trkpt lat="43.083184" lon="-0.044497"><ele>413.98</ele><time>2010-10-10T11:38:43Z</time></trkpt><trkpt lat="43.083212" lon="-0.044579"><ele>413.98</ele><time>2010-10-10T11:38:44Z</time></trkpt><trkpt lat="43.083220" lon="-0.044680"><ele>414.47</ele><time>2010-10-10T11:38:45Z</time></trkpt><trkpt lat="43.083220" lon="-0.044680"><ele>414.47</ele><time>2010-10-10T11:38:46Z</time></trkpt><trkpt lat="43.083187" lon="-0.044904"><ele>414.47</ele><time>2010-10-10T11:38:47Z</time></trkpt><trkpt lat="43.083187" lon="-0.045021"><ele>413.98</ele><time>2010-10-10T11:38:48Z</time></trkpt><trkpt lat="43.083214" lon="-0.045143"><ele>413.50</ele><time>2010-10-10T11:38:49Z</time></trkpt><trkpt lat="43.083273" lon="-0.045409"><ele>413.02</ele><time>2010-10-10T11:38:51Z</time></trkpt><trkpt lat="43.083329" lon="-0.045632"><ele>412.06</ele><time>2010-10-10T11:38:53Z</time></trkpt><trkpt lat="43.083391" lon="-0.045695"><ele>412.06</ele><time>2010-10-10T11:38:54Z</time></trkpt><trkpt lat="43.083447" lon="-0.045748"><ele>411.58</ele><time>2010-10-10T11:38:55Z</time></trkpt><trkpt lat="43.083522" lon="-0.045767"><ele>411.58</ele><time>2010-10-10T11:38:56Z</time></trkpt><trkpt lat="43.083598" lon="-0.045786"><ele>411.58</ele><time>2010-10-10T11:38:57Z</time></trkpt><trkpt lat="43.083681" lon="-0.045778"><ele>411.10</ele><time>2010-10-10T11:38:58Z</time></trkpt><trkpt lat="43.083765" lon="-0.045761"><ele>411.10</ele><time>2010-10-10T11:38:59Z</time></trkpt><trkpt lat="43.084253" lon="-0.045633"><ele>411.10</ele><time>2010-10-10T11:39:04Z</time></trkpt><trkpt lat="43.084358" lon="-0.045630"><ele>411.58</ele><time>2010-10-10T11:39:05Z</time></trkpt><trkpt lat="43.085293" lon="-0.045812"><ele>409.18</ele><time>2010-10-10T11:39:14Z</time></trkpt><trkpt lat="43.085438" lon="-0.045839"><ele>408.22</ele><time>2010-10-10T11:39:16Z</time></trkpt><trkpt lat="43.085669" lon="-0.045883"><ele>405.81</ele><time>2010-10-10T11:39:22Z</time></trkpt><trkpt lat="43.086234" lon="-0.045981"><ele>404.37</ele><time>2010-10-10T11:39:29Z</time></trkpt><trkpt lat="43.086369" lon="-0.046004"><ele>404.37</ele><time>2010-10-10T11:39:31Z</time></trkpt><trkpt lat="43.086522" lon="-0.046031"><ele>404.37</ele><time>2010-10-10T11:39:34Z</time></trkpt><trkpt lat="43.086561" lon="-0.046038"><ele>404.37</ele><time>2010-10-10T11:39:35Z</time></trkpt><trkpt lat="43.086602" lon="-0.046045"><ele>404.37</ele><time>2010-10-10T11:39:36Z</time></trkpt><trkpt lat="43.086649" lon="-0.046051"><ele>404.37</ele><time>2010-10-10T11:39:37Z</time></trkpt><trkpt lat="43.086704" lon="-0.046056"><ele>404.37</ele><time>2010-10-10T11:39:38Z</time></trkpt></trkseg><trkseg><trkpt lat="43.093899" lon="-0.051847"><ele>388.51</ele><time>2010-10-10T12:01:06Z</time></trkpt><trkpt lat="43.093866" lon="-0.051943"><ele>384.18</ele><time>2010-10-10T12:01:14Z</time></trkpt><trkpt lat="43.093865" lon="-0.051979"><ele>381.30</ele><time>2010-10-10T12:01:30Z</time></trkpt><trkpt lat="43.093915" lon="-0.051992"><ele>379.38</ele><time>2010-10-10T12:01:45Z</time></trkpt><trkpt lat="43.094417" lon="-0.051890"><ele>373.61</ele><time>2010-10-10T12:02:16Z</time></trkpt><trkpt lat="43.094962" lon="-0.052069"><ele>372.65</ele><time>2010-10-10T12:02:33Z</time></trkpt><trkpt lat="43.095238" lon="-0.051946"><ele>370.73</ele><time>2010-10-10T12:02:42Z</time></trkpt><trkpt lat="43.095609" lon="-0.051303"><ele>365.44</ele><time>2010-10-10T12:02:58Z</time></trkpt><trkpt lat="43.095474" lon="-0.050192"><ele>360.15</ele><time>2010-10-10T12:03:28Z</time></trkpt><trkpt lat="43.095242" lon="-0.049719"><ele>359.67</ele><time>2010-10-10T12:03:42Z</time></trkpt><trkpt lat="43.095054" lon="-0.049480"><ele>358.71</ele><time>2010-10-10T12:03:52Z</time></trkpt><trkpt lat="43.095031" lon="-0.051670"><ele>359.19</ele><time>2010-10-10T12:03:54Z</time></trkpt><trkpt lat="43.095031" lon="-0.051670"><ele>359.19</ele><time>2010-10-10T12:03:55Z</time></trkpt><trkpt lat="43.095031" lon="-0.051670"><ele>359.19</ele><time>2010-10-10T12:03:56Z</time></trkpt><trkpt lat="43.095031" lon="-0.051670"><ele>359.19</ele><time>2010-10-10T12:03:57Z</time></trkpt><trkpt lat="43.095031" lon="-0.051670"><ele>359.67</ele><time>2010-10-10T12:03:58Z</time></trkpt><trkpt lat="43.095031" lon="-0.051670"><ele>359.67</ele><time>2010-10-10T12:03:59Z</time></trkpt><trkpt lat="43.095031" lon="-0.051670"><ele>359.67</ele><time>2010-10-10T12:04:00Z</time></trkpt><trkpt lat="43.095031" lon="-0.051670"><ele>361.11</ele><time>2010-10-10T12:04:06Z</time></trkpt><trkpt lat="43.095031" lon="-0.051670"><ele>361.11</ele><time>2010-10-10T12:04:19Z</time></trkpt><trkpt lat="43.095031" lon="-0.051670"><ele>361.59</ele><time>2010-10-10T12:04:29Z</time></trkpt><trkpt lat="43.095031" lon="-0.051670"><ele>361.11</ele><time>2010-10-10T12:04:32Z</time></trkpt><trkpt lat="43.095031" lon="-0.051670"><ele>359.67</ele><time>2010-10-10T12:04:40Z</time></trkpt><trkpt lat="43.095031" lon="-0.051670"><ele>359.67</ele><time>2010-10-10T12:04:50Z</time></trkpt><trkpt lat="43.095031" lon="-0.051670"><ele>360.15</ele><time>2010-10-10T12:04:53Z</time></trkpt><trkpt lat="43.095031" lon="-0.051670"><ele>360.63</ele><time>2010-10-10T12:04:54Z</time></trkpt><trkpt lat="43.095031" lon="-0.051670"><ele>361.59</ele><time>2010-10-10T12:04:57Z</time></trkpt><trkpt lat="43.095031" lon="-0.051670"><ele>362.07</ele><time>2010-10-10T12:04:58Z</time></trkpt><trkpt lat="43.095031" lon="-0.051670"><ele>363.04</ele><time>2010-10-10T12:04:59Z</time></trkpt><trkpt lat="43.095031" lon="-0.051670"><ele>364.00</ele><time>2010-10-10T12:05:00Z</time></trkpt><trkpt lat="43.095031" lon="-0.051670"><ele>364.48</ele><time>2010-10-10T12:05:01Z</time></trkpt><trkpt lat="43.095031" lon="-0.051670"><ele>365.44</ele><time>2010-10-10T12:05:02Z</time></trkpt><trkpt lat="43.095031" lon="-0.051670"><ele>369.76</ele><time>2010-10-10T12:05:10Z</time></trkpt><trkpt lat="43.095031" lon="-0.051670"><ele>370.24</ele><time>2010-10-10T12:05:11Z</time></trkpt><trkpt lat="43.095031" lon="-0.051670"><ele>370.24</ele><time>2010-10-10T12:05:12Z</time></trkpt><trkpt lat="43.095031" lon="-0.051670"><ele>370.24</ele><time>2010-10-10T12:05:13Z</time></trkpt><trkpt lat="43.095031" lon="-0.051670"><ele>370.73</ele><time>2010-10-10T12:05:22Z</time></trkpt><trkpt lat="43.092674" lon="-0.050968"><ele>375.53</ele><time>2010-10-10T12:05:33Z</time></trkpt></trkseg><trkseg><trkpt lat="43.097017" lon="-0.045513"><ele>408.22</ele><time>2010-10-10T13:15:20Z</time></trkpt><trkpt lat="43.097026" lon="-0.045577"><ele>409.18</ele><time>2010-10-10T13:15:45Z</time></trkpt><trkpt lat="43.096912" lon="-0.045628"><ele>406.77</ele><time>2010-10-10T13:16:16Z</time></trkpt><trkpt lat="43.096895" lon="-0.045618"><ele>405.33</ele><time>2010-10-10T13:16:35Z</time></trkpt><trkpt lat="43.096992" lon="-0.045575"><ele>400.05</ele><time>2010-10-10T13:16:49Z</time></trkpt><trkpt lat="43.097059" lon="-0.045359"><ele>401.49</ele><time>2010-10-10T13:16:55Z</time></trkpt><trkpt lat="43.097073" lon="-0.045052"><ele>402.93</ele><time>2010-10-10T13:17:04Z</time></trkpt><trkpt lat="43.097043" lon="-0.044851"><ele>404.37</ele><time>2010-10-10T13:17:09Z</time></trkpt><trkpt lat="43.097039" lon="-0.044795"><ele>404.85</ele><time>2010-10-10T13:17:10Z</time></trkpt><trkpt lat="43.097034" lon="-0.044738"><ele>405.33</ele><time>2010-10-10T13:17:11Z</time></trkpt><trkpt lat="43.097030" lon="-0.044676"><ele>405.81</ele><time>2010-10-10T13:17:12Z</time></trkpt><trkpt lat="43.097025" lon="-0.044609"><ele>405.81</ele><time>2010-10-10T13:17:13Z</time></trkpt><trkpt lat="43.097020" lon="-0.044538"><ele>405.81</ele><time>2010-10-10T13:17:14Z</time></trkpt><trkpt lat="43.097015" lon="-0.044461"><ele>406.29</ele><time>2010-10-10T13:17:15Z</time></trkpt><trkpt lat="43.097010" lon="-0.044392"><ele>406.29</ele><time>2010-10-10T13:17:16Z</time></trkpt><trkpt lat="43.097005" lon="-0.044331"><ele>406.77</ele><time>2010-10-10T13:17:17Z</time></trkpt><trkpt lat="43.097005" lon="-0.044261"><ele>406.77</ele><time>2010-10-10T13:17:18Z</time></trkpt><trkpt lat="43.097005" lon="-0.044187"><ele>407.26</ele><time>2010-10-10T13:17:19Z</time></trkpt><trkpt lat="43.097009" lon="-0.044111"><ele>407.26</ele><time>2010-10-10T13:17:20Z</time></trkpt><trkpt lat="43.097015" lon="-0.044029"><ele>407.74</ele><time>2010-10-10T13:17:21Z</time></trkpt><trkpt lat="43.097022" lon="-0.043945"><ele>407.74</ele><time>2010-10-10T13:17:22Z</time></trkpt><trkpt lat="43.097010" lon="-0.043183"><ele>407.74</ele><time>2010-10-10T13:17:30Z</time></trkpt><trkpt lat="43.097005" lon="-0.043084"><ele>407.74</ele><time>2010-10-10T13:17:31Z</time></trkpt><trkpt lat="43.097005" lon="-0.042974"><ele>407.26</ele><time>2010-10-10T13:17:32Z</time></trkpt><trkpt lat="43.097005" lon="-0.042859"><ele>407.26</ele><time>2010-10-10T13:17:33Z</time></trkpt><trkpt lat="43.097005" lon="-0.042743"><ele>407.26</ele><time>2010-10-10T13:17:34Z</time></trkpt><trkpt lat="43.097005" lon="-0.042632"><ele>407.26</ele><time>2010-10-10T13:17:35Z</time></trkpt><trkpt lat="43.097005" lon="-0.041519"><ele>405.81</ele><time>2010-10-10T13:17:45Z</time></trkpt><trkpt lat="43.096926" lon="-0.039858"><ele>405.33</ele><time>2010-10-10T13:17:58Z</time></trkpt><trkpt lat="43.096889" lon="-0.039090"><ele>405.33</ele><time>2010-10-10T13:18:05Z</time></trkpt><trkpt lat="43.096886" lon="-0.039023"><ele>405.33</ele><time>2010-10-10T13:18:06Z</time></trkpt><trkpt lat="43.096883" lon="-0.038961"><ele>405.33</ele><time>2010-10-10T13:18:07Z</time></trkpt><trkpt lat="43.096883" lon="-0.038961"><ele>404.85</ele><time>2010-10-10T13:18:08Z</time></trkpt><trkpt lat="43.096883" lon="-0.038831"><ele>404.37</ele><time>2010-10-10T13:18:09Z</time></trkpt><trkpt lat="43.096933" lon="-0.038770"><ele>403.41</ele><time>2010-10-10T13:18:10Z</time></trkpt><trkpt lat="43.096986" lon="-0.038707"><ele>401.97</ele><time>2010-10-10T13:18:11Z</time></trkpt><trkpt lat="43.097035" lon="-0.038649"><ele>401.01</ele><time>2010-10-10T13:18:12Z</time></trkpt><trkpt lat="43.097169" lon="-0.038555"><ele>398.60</ele><time>2010-10-10T13:18:18Z</time></trkpt><trkpt lat="43.097169" lon="-0.038555"><ele>398.12</ele><time>2010-10-10T13:18:19Z</time></trkpt><trkpt lat="43.097851" lon="-0.038206"><ele>398.12</ele><time>2010-10-10T13:18:26Z</time></trkpt><trkpt lat="43.097941" lon="-0.038159"><ele>398.12</ele><time>2010-10-10T13:18:27Z</time></trkpt><trkpt lat="43.098023" lon="-0.038115"><ele>398.60</ele><time>2010-10-10T13:18:28Z</time></trkpt><trkpt lat="43.098180" lon="-0.038085"><ele>399.57</ele><time>2010-10-10T13:18:30Z</time></trkpt><trkpt lat="43.098432" lon="-0.038051"><ele>401.01</ele><time>2010-10-10T13:18:33Z</time></trkpt><trkpt lat="43.098525" lon="-0.038040"><ele>401.49</ele><time>2010-10-10T13:18:34Z</time></trkpt><trkpt lat="43.098612" lon="-0.038031"><ele>401.97</ele><time>2010-10-10T13:18:35Z</time></trkpt><trkpt lat="43.098981" lon="-0.037956"><ele>404.37</ele><time>2010-10-10T13:18:40Z</time></trkpt><trkpt lat="43.099215" lon="-0.037885"><ele>405.33</ele><time>2010-10-10T13:18:45Z</time></trkpt><trkpt lat="43.099325" lon="-0.037862"><ele>404.85</ele><time>2010-10-10T13:18:46Z</time></trkpt><trkpt lat="43.099323" lon="-0.037851"><ele>405.33</ele><time>2010-10-10T13:18:47Z</time></trkpt><trkpt lat="43.099323" lon="-0.037851"><ele>404.85</ele><time>2010-10-10T13:18:48Z</time></trkpt><trkpt lat="43.099396" lon="-0.038183"><ele>405.33</ele><time>2010-10-10T13:18:49Z</time></trkpt><trkpt lat="43.099420" lon="-0.038297"><ele>405.33</ele><time>2010-10-10T13:18:50Z</time></trkpt><trkpt lat="43.099604" lon="-0.039405"><ele>404.85</ele><time>2010-10-10T13:18:59Z</time></trkpt><trkpt lat="43.099633" lon="-0.039520"><ele>405.33</ele><time>2010-10-10T13:19:00Z</time></trkpt><trkpt lat="43.099661" lon="-0.039632"><ele>405.33</ele><time>2010-10-10T13:19:01Z</time></trkpt><trkpt lat="43.099855" lon="-0.040589"><ele>405.81</ele><time>2010-10-10T13:19:09Z</time></trkpt><trkpt lat="43.099967" lon="-0.041290"><ele>405.81</ele><time>2010-10-10T13:19:16Z</time></trkpt><trkpt lat="43.099961" lon="-0.041511"><ele>406.29</ele><time>2010-10-10T13:19:17Z</time></trkpt><trkpt lat="43.099955" lon="-0.041633"><ele>406.29</ele><time>2010-10-10T13:19:18Z</time></trkpt><trkpt lat="43.099948" lon="-0.041757"><ele>405.81</ele><time>2010-10-10T13:19:19Z</time></trkpt><trkpt lat="43.099942" lon="-0.041877"><ele>405.81</ele><time>2010-10-10T13:19:20Z</time></trkpt><trkpt lat="43.099931" lon="-0.042087"><ele>405.81</ele><time>2010-10-10T13:19:22Z</time></trkpt><trkpt lat="43.099924" lon="-0.042229"><ele>405.81</ele><time>2010-10-10T13:19:23Z</time></trkpt><trkpt lat="43.099916" lon="-0.042282"><ele>405.81</ele><time>2010-10-10T13:19:24Z</time></trkpt><trkpt lat="43.099853" lon="-0.042726"><ele>406.29</ele><time>2010-10-10T13:19:28Z</time></trkpt><trkpt lat="43.099837" lon="-0.042838"><ele>405.81</ele><time>2010-10-10T13:19:29Z</time></trkpt><trkpt lat="43.099821" lon="-0.042955"><ele>405.81</ele><time>2010-10-10T13:19:30Z</time></trkpt><trkpt lat="43.099789" lon="-0.043183"><ele>405.33</ele><time>2010-10-10T13:19:32Z</time></trkpt><trkpt lat="43.099709" lon="-0.043755"><ele>403.89</ele><time>2010-10-10T13:19:37Z</time></trkpt><trkpt lat="43.099694" lon="-0.043865"><ele>403.41</ele><time>2010-10-10T13:19:38Z</time></trkpt><trkpt lat="43.099678" lon="-0.043974"><ele>403.41</ele><time>2010-10-10T13:19:39Z</time></trkpt><trkpt lat="43.099663" lon="-0.044086"><ele>402.93</ele><time>2010-10-10T13:19:40Z</time></trkpt><trkpt lat="43.099647" lon="-0.044201"><ele>402.93</ele><time>2010-10-10T13:19:41Z</time></trkpt><trkpt lat="43.099613" lon="-0.044442"><ele>401.97</ele><time>2010-10-10T13:19:43Z</time></trkpt><trkpt lat="43.099596" lon="-0.044560"><ele>401.49</ele><time>2010-10-10T13:19:44Z</time></trkpt><trkpt lat="43.099581" lon="-0.044666"><ele>401.01</ele><time>2010-10-10T13:19:45Z</time></trkpt><trkpt lat="43.099568" lon="-0.044764"><ele>400.53</ele><time>2010-10-10T13:19:46Z</time></trkpt><trkpt lat="43.099557" lon="-0.044849"><ele>400.05</ele><time>2010-10-10T13:19:47Z</time></trkpt><trkpt lat="43.099549" lon="-0.044906"><ele>399.57</ele><time>2010-10-10T13:19:48Z</time></trkpt><trkpt lat="43.099544" lon="-0.044949"><ele>399.08</ele><time>2010-10-10T13:19:49Z</time></trkpt><trkpt lat="43.099537" lon="-0.044996"><ele>398.12</ele><time>2010-10-10T13:19:50Z</time></trkpt><trkpt lat="43.099530" lon="-0.045049"><ele>397.64</ele><time>2010-10-10T13:19:51Z</time></trkpt><trkpt lat="43.099523" lon="-0.045104"><ele>397.64</ele><time>2010-10-10T13:19:52Z</time></trkpt><trkpt lat="43.099515" lon="-0.045164"><ele>397.16</ele><time>2010-10-10T13:19:53Z</time></trkpt><trkpt lat="43.099506" lon="-0.045231"><ele>397.16</ele><time>2010-10-10T13:19:54Z</time></trkpt><trkpt lat="43.099506" lon="-0.045231"><ele>396.68</ele><time>2010-10-10T13:19:55Z</time></trkpt><trkpt lat="43.099494" lon="-0.045319"><ele>396.68</ele><time>2010-10-10T13:19:56Z</time></trkpt><trkpt lat="43.099455" lon="-0.045327"><ele>396.20</ele><time>2010-10-10T13:19:57Z</time></trkpt><trkpt lat="43.099381" lon="-0.045341"><ele>396.20</ele><time>2010-10-10T13:19:58Z</time></trkpt><trkpt lat="43.099305" lon="-0.045357"><ele>396.20</ele><time>2010-10-10T13:19:59Z</time></trkpt><trkpt lat="43.099223" lon="-0.045362"><ele>395.72</ele><time>2010-10-10T13:20:00Z</time></trkpt><trkpt lat="43.099139" lon="-0.045362"><ele>395.24</ele><time>2010-10-10T13:20:01Z</time></trkpt><trkpt lat="43.098321" lon="-0.045569"><ele>390.91</ele><time>2010-10-10T13:20:10Z</time></trkpt><trkpt lat="43.097700" lon="-0.045713"><ele>388.51</ele><time>2010-10-10T13:20:18Z</time></trkpt><trkpt lat="43.097619" lon="-0.045736"><ele>388.03</ele><time>2010-10-10T13:20:19Z</time></trkpt><trkpt lat="43.097104" lon="-0.045880"><ele>386.11</ele><time>2010-10-10T13:20:26Z</time></trkpt><trkpt lat="43.097028" lon="-0.045901"><ele>385.15</ele><time>2010-10-10T13:20:32Z</time></trkpt><trkpt lat="43.096968" lon="-0.045867"><ele>384.66</ele><time>2010-10-10T13:20:47Z</time></trkpt><trkpt lat="43.096973" lon="-0.045822"><ele>384.18</ele><time>2010-10-10T13:20:48Z</time></trkpt><trkpt lat="43.096979" lon="-0.045767"><ele>384.66</ele><time>2010-10-10T13:20:49Z</time></trkpt><trkpt lat="43.096988" lon="-0.045685"><ele>384.18</ele><time>2010-10-10T13:20:50Z</time></trkpt><trkpt lat="43.096999" lon="-0.045594"><ele>383.70</ele><time>2010-10-10T13:20:51Z</time></trkpt><trkpt lat="43.097018" lon="-0.045416"><ele>383.22</ele><time>2010-10-10T13:20:53Z</time></trkpt><trkpt lat="43.097048" lon="-0.045031"><ele>382.74</ele><time>2010-10-10T13:21:00Z</time></trkpt><trkpt lat="43.097048" lon="-0.044973"><ele>382.74</ele><time>2010-10-10T13:21:01Z</time></trkpt><trkpt lat="43.097046" lon="-0.044901"><ele>383.22</ele><time>2010-10-10T13:21:02Z</time></trkpt><trkpt lat="43.097041" lon="-0.044824"><ele>383.22</ele><time>2010-10-10T13:21:03Z</time></trkpt><trkpt lat="43.097035" lon="-0.044742"><ele>383.70</ele><time>2010-10-10T13:21:04Z</time></trkpt><trkpt lat="43.097022" lon="-0.044560"><ele>384.66</ele><time>2010-10-10T13:21:06Z</time></trkpt><trkpt lat="43.097016" lon="-0.044477"><ele>385.15</ele><time>2010-10-10T13:21:07Z</time></trkpt><trkpt lat="43.097007" lon="-0.044142"><ele>386.59</ele><time>2010-10-10T13:21:11Z</time></trkpt><trkpt lat="43.097023" lon="-0.043926"><ele>387.07</ele><time>2010-10-10T13:21:13Z</time></trkpt><trkpt lat="43.097039" lon="-0.043724"><ele>387.55</ele><time>2010-10-10T13:21:15Z</time></trkpt><trkpt lat="43.097040" lon="-0.043511"><ele>388.51</ele><time>2010-10-10T13:21:17Z</time></trkpt><trkpt lat="43.097031" lon="-0.043414"><ele>388.99</ele><time>2010-10-10T13:21:18Z</time></trkpt><trkpt lat="43.097005" lon="-0.043041"><ele>389.95</ele><time>2010-10-10T13:21:22Z</time></trkpt><trkpt lat="43.097005" lon="-0.042840"><ele>390.43</ele><time>2010-10-10T13:21:24Z</time></trkpt><trkpt lat="43.097005" lon="-0.042732"><ele>390.43</ele><time>2010-10-10T13:21:25Z</time></trkpt><trkpt lat="43.097005" lon="-0.042618"><ele>390.91</ele><time>2010-10-10T13:21:26Z</time></trkpt><trkpt lat="43.097005" lon="-0.042497"><ele>390.91</ele><time>2010-10-10T13:21:27Z</time></trkpt><trkpt lat="43.097005" lon="-0.042372"><ele>391.39</ele><time>2010-10-10T13:21:28Z</time></trkpt><trkpt lat="43.097005" lon="-0.042246"><ele>391.39</ele><time>2010-10-10T13:21:29Z</time></trkpt><trkpt lat="43.097005" lon="-0.042116"><ele>391.39</ele><time>2010-10-10T13:21:30Z</time></trkpt><trkpt lat="43.096944" lon="-0.040226"><ele>392.84</ele><time>2010-10-10T13:21:43Z</time></trkpt><trkpt lat="43.096885" lon="-0.039014"><ele>393.32</ele><time>2010-10-10T13:21:52Z</time></trkpt><trkpt lat="43.096842" lon="-0.038857"><ele>393.32</ele><time>2010-10-10T13:21:53Z</time></trkpt><trkpt lat="43.096886" lon="-0.038827"><ele>393.32</ele><time>2010-10-10T13:21:54Z</time></trkpt><trkpt lat="43.096941" lon="-0.038761"><ele>393.32</ele><time>2010-10-10T13:21:55Z</time></trkpt><trkpt lat="43.096998" lon="-0.038692"><ele>392.84</ele><time>2010-10-10T13:21:56Z</time></trkpt><trkpt lat="43.097051" lon="-0.038630"><ele>392.36</ele><time>2010-10-10T13:21:57Z</time></trkpt><trkpt lat="43.097091" lon="-0.038581"><ele>391.87</ele><time>2010-10-10T13:21:58Z</time></trkpt><trkpt lat="43.097172" lon="-0.038554"><ele>391.39</ele><time>2010-10-10T13:22:00Z</time></trkpt><trkpt lat="43.097251" lon="-0.038522"><ele>391.39</ele><time>2010-10-10T13:22:01Z</time></trkpt><trkpt lat="43.097977" lon="-0.038140"><ele>391.87</ele><time>2010-10-10T13:22:08Z</time></trkpt><trkpt lat="43.098267" lon="-0.038070"><ele>393.32</ele><time>2010-10-10T13:22:11Z</time></trkpt><trkpt lat="43.098462" lon="-0.038047"><ele>394.76</ele><time>2010-10-10T13:22:13Z</time></trkpt><trkpt lat="43.098560" lon="-0.038036"><ele>395.24</ele><time>2010-10-10T13:22:14Z</time></trkpt><trkpt lat="43.098996" lon="-0.037952"><ele>397.16</ele><time>2010-10-10T13:22:19Z</time></trkpt><trkpt lat="43.099249" lon="-0.037874"><ele>397.64</ele><time>2010-10-10T13:22:23Z</time></trkpt><trkpt lat="43.099292" lon="-0.037861"><ele>397.64</ele><time>2010-10-10T13:22:24Z</time></trkpt><trkpt lat="43.099337" lon="-0.037916"><ele>397.16</ele><time>2010-10-10T13:22:25Z</time></trkpt><trkpt lat="43.099359" lon="-0.038013"><ele>397.16</ele><time>2010-10-10T13:22:26Z</time></trkpt><trkpt lat="43.099386" lon="-0.038135"><ele>396.68</ele><time>2010-10-10T13:22:27Z</time></trkpt><trkpt lat="43.099415" lon="-0.038274"><ele>396.20</ele><time>2010-10-10T13:22:28Z</time></trkpt><trkpt lat="43.099443" lon="-0.038421"><ele>396.20</ele><time>2010-10-10T13:22:29Z</time></trkpt><trkpt lat="43.099471" lon="-0.038568"><ele>395.72</ele><time>2010-10-10T13:22:30Z</time></trkpt><trkpt lat="43.099691" lon="-0.039752"><ele>392.84</ele><time>2010-10-10T13:22:38Z</time></trkpt><trkpt lat="43.099722" lon="-0.039894"><ele>392.36</ele><time>2010-10-10T13:22:39Z</time></trkpt><trkpt lat="43.099749" lon="-0.040034"><ele>392.36</ele><time>2010-10-10T13:22:40Z</time></trkpt><trkpt lat="43.099776" lon="-0.040178"><ele>392.36</ele><time>2010-10-10T13:22:41Z</time></trkpt><trkpt lat="43.099803" lon="-0.040320"><ele>391.87</ele><time>2010-10-10T13:22:42Z</time></trkpt><trkpt lat="43.099944" lon="-0.041107"><ele>390.43</ele><time>2010-10-10T13:22:48Z</time></trkpt><trkpt lat="43.099967" lon="-0.041410"><ele>389.47</ele><time>2010-10-10T13:22:51Z</time></trkpt><trkpt lat="43.099961" lon="-0.041520"><ele>389.47</ele><time>2010-10-10T13:22:52Z</time></trkpt><trkpt lat="43.099955" lon="-0.041641"><ele>389.47</ele><time>2010-10-10T13:22:53Z</time></trkpt><trkpt lat="43.099942" lon="-0.041877"><ele>389.47</ele><time>2010-10-10T13:22:55Z</time></trkpt><trkpt lat="43.099889" lon="-0.042473"><ele>390.43</ele><time>2010-10-10T13:23:00Z</time></trkpt><trkpt lat="43.099871" lon="-0.042598"><ele>390.43</ele><time>2010-10-10T13:23:01Z</time></trkpt><trkpt lat="43.099817" lon="-0.042981"><ele>390.91</ele><time>2010-10-10T13:23:04Z</time></trkpt><trkpt lat="43.099801" lon="-0.043096"><ele>390.91</ele><time>2010-10-10T13:23:05Z</time></trkpt><trkpt lat="43.099786" lon="-0.043204"><ele>390.91</ele><time>2010-10-10T13:23:06Z</time></trkpt><trkpt lat="43.099712" lon="-0.043736"><ele>390.91</ele><time>2010-10-10T13:23:11Z</time></trkpt><trkpt lat="43.099682" lon="-0.043950"><ele>390.91</ele><time>2010-10-10T13:23:13Z</time></trkpt><trkpt lat="43.099667" lon="-0.044058"><ele>390.91</ele><time>2010-10-10T13:23:14Z</time></trkpt><trkpt lat="43.099635" lon="-0.044283"><ele>390.43</ele><time>2010-10-10T13:23:16Z</time></trkpt><trkpt lat="43.099606" lon="-0.044495"><ele>389.95</ele><time>2010-10-10T13:23:18Z</time></trkpt><trkpt lat="43.099570" lon="-0.044749"><ele>389.47</ele><time>2010-10-10T13:23:21Z</time></trkpt><trkpt lat="43.099563" lon="-0.044801"><ele>388.99</ele><time>2010-10-10T13:23:22Z</time></trkpt><trkpt lat="43.099559" lon="-0.044834"><ele>388.51</ele><time>2010-10-10T13:23:29Z</time></trkpt><trkpt lat="43.099663" lon="-0.044966"><ele>388.51</ele><time>2010-10-10T13:23:31Z</time></trkpt><trkpt lat="43.099699" lon="-0.045024"><ele>388.03</ele><time>2010-10-10T13:23:32Z</time></trkpt><trkpt lat="43.099727" lon="-0.045067"><ele>388.03</ele><time>2010-10-10T13:23:33Z</time></trkpt><trkpt lat="43.099526" lon="-0.045081"><ele>387.55</ele><time>2010-10-10T13:23:34Z</time></trkpt><trkpt lat="43.099518" lon="-0.045141"><ele>387.07</ele><time>2010-10-10T13:23:35Z</time></trkpt><trkpt lat="43.099510" lon="-0.045204"><ele>387.07</ele><time>2010-10-10T13:23:36Z</time></trkpt><trkpt lat="43.099501" lon="-0.045269"><ele>386.59</ele><time>2010-10-10T13:23:37Z</time></trkpt><trkpt lat="43.099494" lon="-0.045353"><ele>386.11</ele><time>2010-10-10T13:23:38Z</time></trkpt><trkpt lat="43.099494" lon="-0.045407"><ele>385.63</ele><time>2010-10-10T13:23:39Z</time></trkpt><trkpt lat="43.099494" lon="-0.045470"><ele>385.63</ele><time>2010-10-10T13:23:40Z</time></trkpt><trkpt lat="43.099488" lon="-0.045645"><ele>384.66</ele><time>2010-10-10T13:23:42Z</time></trkpt><trkpt lat="43.099478" lon="-0.045752"><ele>384.18</ele><time>2010-10-10T13:23:43Z</time></trkpt><trkpt lat="43.099461" lon="-0.045945"><ele>383.70</ele><time>2010-10-10T13:23:45Z</time></trkpt><trkpt lat="43.099455" lon="-0.046015"><ele>383.70</ele><time>2010-10-10T13:23:46Z</time></trkpt><trkpt lat="43.099455" lon="-0.046015"><ele>383.22</ele><time>2010-10-10T13:23:47Z</time></trkpt><trkpt lat="43.099415" lon="-0.046087"><ele>383.22</ele><time>2010-10-10T13:23:48Z</time></trkpt><trkpt lat="43.099388" lon="-0.046115"><ele>383.22</ele><time>2010-10-10T13:23:49Z</time></trkpt><trkpt lat="43.099356" lon="-0.046150"><ele>383.22</ele><time>2010-10-10T13:23:50Z</time></trkpt><trkpt lat="43.099303" lon="-0.046205"><ele>383.70</ele><time>2010-10-10T13:23:51Z</time></trkpt><trkpt lat="43.099236" lon="-0.046277"><ele>383.70</ele><time>2010-10-10T13:23:52Z</time></trkpt><trkpt lat="43.098563" lon="-0.046926"><ele>388.51</ele><time>2010-10-10T13:24:03Z</time></trkpt><trkpt lat="43.098509" lon="-0.046962"><ele>388.99</ele><time>2010-10-10T13:24:04Z</time></trkpt><trkpt lat="43.098454" lon="-0.047036"><ele>388.99</ele><time>2010-10-10T13:24:05Z</time></trkpt><trkpt lat="43.098431" lon="-0.047128"><ele>389.47</ele><time>2010-10-10T13:24:06Z</time></trkpt><trkpt lat="43.098422" lon="-0.047240"><ele>389.47</ele><time>2010-10-10T13:24:07Z</time></trkpt><trkpt lat="43.098422" lon="-0.047340"><ele>389.95</ele><time>2010-10-10T13:24:08Z</time></trkpt><trkpt lat="43.098446" lon="-0.047457"><ele>389.95</ele><time>2010-10-10T13:24:09Z</time></trkpt><trkpt lat="43.098474" lon="-0.047548"><ele>389.95</ele><time>2010-10-10T13:24:10Z</time></trkpt><trkpt lat="43.098498" lon="-0.047626"><ele>389.95</ele><time>2010-10-10T13:24:11Z</time></trkpt><trkpt lat="43.098519" lon="-0.047694"><ele>389.95</ele><time>2010-10-10T13:24:12Z</time></trkpt><trkpt lat="43.098540" lon="-0.047762"><ele>389.95</ele><time>2010-10-10T13:24:13Z</time></trkpt><trkpt lat="43.098588" lon="-0.047919"><ele>389.47</ele><time>2010-10-10T13:24:15Z</time></trkpt><trkpt lat="43.098609" lon="-0.047998"><ele>389.47</ele><time>2010-10-10T13:24:16Z</time></trkpt><trkpt lat="43.098743" lon="-0.048535"><ele>389.47</ele><time>2010-10-10T13:24:23Z</time></trkpt><trkpt lat="43.098764" lon="-0.048618"><ele>389.47</ele><time>2010-10-10T13:24:24Z</time></trkpt><trkpt lat="43.098785" lon="-0.048702"><ele>389.47</ele><time>2010-10-10T13:24:25Z</time></trkpt><trkpt lat="43.098845" lon="-0.048945"><ele>389.95</ele><time>2010-10-10T13:24:28Z</time></trkpt><trkpt lat="43.098865" lon="-0.049022"><ele>389.95</ele><time>2010-10-10T13:24:29Z</time></trkpt><trkpt lat="43.098923" lon="-0.049256"><ele>389.95</ele><time>2010-10-10T13:24:37Z</time></trkpt><trkpt lat="43.098951" lon="-0.049359"><ele>390.91</ele><time>2010-10-10T13:24:42Z</time></trkpt><trkpt lat="43.098970" lon="-0.049425"><ele>390.91</ele><time>2010-10-10T13:24:43Z</time></trkpt><trkpt lat="43.099219" lon="-0.050299"><ele>390.91</ele><time>2010-10-10T13:24:51Z</time></trkpt><trkpt lat="43.099386" lon="-0.050884"><ele>391.87</ele><time>2010-10-10T13:24:57Z</time></trkpt><trkpt lat="43.099420" lon="-0.051000"><ele>391.87</ele><time>2010-10-10T13:24:58Z</time></trkpt><trkpt lat="43.099454" lon="-0.051121"><ele>391.87</ele><time>2010-10-10T13:24:59Z</time></trkpt><trkpt lat="43.099724" lon="-0.052164"><ele>393.32</ele><time>2010-10-10T13:25:08Z</time></trkpt><trkpt lat="43.099745" lon="-0.052735"><ele>392.36</ele><time>2010-10-10T13:25:13Z</time></trkpt><trkpt lat="43.099722" lon="-0.052849"><ele>391.87</ele><time>2010-10-10T13:25:14Z</time></trkpt><trkpt lat="43.099580" lon="-0.053558"><ele>390.43</ele><time>2010-10-10T13:25:20Z</time></trkpt><trkpt lat="43.099580" lon="-0.053569"><ele>390.43</ele><time>2010-10-10T13:25:21Z</time></trkpt><trkpt lat="43.099580" lon="-0.053558"><ele>389.95</ele><time>2010-10-10T13:25:26Z</time></trkpt><trkpt lat="43.099606" lon="-0.054661"><ele>388.51</ele><time>2010-10-10T13:25:33Z</time></trkpt><trkpt lat="43.099612" lon="-0.054726"><ele>388.03</ele><time>2010-10-10T13:25:34Z</time></trkpt><trkpt lat="43.099618" lon="-0.054791"><ele>387.55</ele><time>2010-10-10T13:25:35Z</time></trkpt><trkpt lat="43.099625" lon="-0.054870"><ele>387.07</ele><time>2010-10-10T13:25:36Z</time></trkpt><trkpt lat="43.099635" lon="-0.054975"><ele>386.59</ele><time>2010-10-10T13:25:37Z</time></trkpt><trkpt lat="43.099647" lon="-0.055103"><ele>386.11</ele><time>2010-10-10T13:25:38Z</time></trkpt><trkpt lat="43.099766" lon="-0.056413"><ele>380.34</ele><time>2010-10-10T13:25:48Z</time></trkpt><trkpt lat="43.099808" lon="-0.056879"><ele>379.38</ele><time>2010-10-10T13:25:52Z</time></trkpt><trkpt lat="43.099823" lon="-0.057038"><ele>378.90</ele><time>2010-10-10T13:25:54Z</time></trkpt><trkpt lat="43.099829" lon="-0.057110"><ele>378.42</ele><time>2010-10-10T13:25:55Z</time></trkpt><trkpt lat="43.099836" lon="-0.057186"><ele>378.42</ele><time>2010-10-10T13:25:56Z</time></trkpt><trkpt lat="43.099843" lon="-0.057262"><ele>378.42</ele><time>2010-10-10T13:25:57Z</time></trkpt><trkpt lat="43.099850" lon="-0.057344"><ele>378.42</ele><time>2010-10-10T13:25:58Z</time></trkpt><trkpt lat="43.099859" lon="-0.057436"><ele>377.94</ele><time>2010-10-10T13:25:59Z</time></trkpt><trkpt lat="43.099868" lon="-0.057537"><ele>377.94</ele><time>2010-10-10T13:26:00Z</time></trkpt><trkpt lat="43.099881" lon="-0.057678"><ele>377.94</ele><time>2010-10-10T13:26:01Z</time></trkpt><trkpt lat="43.099887" lon="-0.057744"><ele>377.94</ele><time>2010-10-10T13:26:02Z</time></trkpt><trkpt lat="43.099932" lon="-0.058217"><ele>377.45</ele><time>2010-10-10T13:26:06Z</time></trkpt><trkpt lat="43.099998" lon="-0.058922"><ele>375.53</ele><time>2010-10-10T13:26:11Z</time></trkpt><trkpt lat="43.100010" lon="-0.059047"><ele>375.53</ele><time>2010-10-10T13:26:12Z</time></trkpt><trkpt lat="43.100022" lon="-0.059170"><ele>375.53</ele><time>2010-10-10T13:26:13Z</time></trkpt><trkpt lat="43.100155" lon="-0.060575"><ele>373.61</ele><time>2010-10-10T13:26:23Z</time></trkpt><trkpt lat="43.100237" lon="-0.061438"><ele>372.17</ele><time>2010-10-10T13:26:30Z</time></trkpt><trkpt lat="43.100249" lon="-0.061565"><ele>372.17</ele><time>2010-10-10T13:26:31Z</time></trkpt><trkpt lat="43.100384" lon="-0.063043"><ele>367.84</ele><time>2010-10-10T13:26:42Z</time></trkpt><trkpt lat="43.100518" lon="-0.064462"><ele>364.48</ele><time>2010-10-10T13:26:53Z</time></trkpt><trkpt lat="43.100526" lon="-0.064544"><ele>364.00</ele><time>2010-10-10T13:26:54Z</time></trkpt><trkpt lat="43.100545" lon="-0.064738"><ele>364.00</ele><time>2010-10-10T13:26:56Z</time></trkpt><trkpt lat="43.100556" lon="-0.064852"><ele>364.00</ele><time>2010-10-10T13:26:57Z</time></trkpt><trkpt lat="43.100569" lon="-0.064976"><ele>364.00</ele><time>2010-10-10T13:26:58Z</time></trkpt><trkpt lat="43.100581" lon="-0.065105"><ele>364.00</ele><time>2010-10-10T13:26:59Z</time></trkpt><trkpt lat="43.100594" lon="-0.065232"><ele>364.00</ele><time>2010-10-10T13:27:00Z</time></trkpt><trkpt lat="43.100606" lon="-0.065358"><ele>363.52</ele><time>2010-10-10T13:27:01Z</time></trkpt><trkpt lat="43.100652" lon="-0.065782"><ele>363.52</ele><time>2010-10-10T13:27:05Z</time></trkpt><trkpt lat="43.100660" lon="-0.065848"><ele>363.52</ele><time>2010-10-10T13:27:06Z</time></trkpt><trkpt lat="43.100666" lon="-0.065903"><ele>363.52</ele><time>2010-10-10T13:27:07Z</time></trkpt><trkpt lat="43.100674" lon="-0.065974"><ele>363.52</ele><time>2010-10-10T13:27:09Z</time></trkpt><trkpt lat="43.100676" lon="-0.065993"><ele>363.52</ele><time>2010-10-10T13:27:10Z</time></trkpt><trkpt lat="43.100683" lon="-0.066058"><ele>363.52</ele><time>2010-10-10T13:27:12Z</time></trkpt><trkpt lat="43.100690" lon="-0.066121"><ele>363.52</ele><time>2010-10-10T13:27:13Z</time></trkpt><trkpt lat="43.100696" lon="-0.066177"><ele>363.52</ele><time>2010-10-10T13:27:14Z</time></trkpt><trkpt lat="43.100696" lon="-0.066177"><ele>363.52</ele><time>2010-10-10T13:27:15Z</time></trkpt><trkpt lat="43.100589" lon="-0.066234"><ele>363.52</ele><time>2010-10-10T13:27:16Z</time></trkpt><trkpt lat="43.100534" lon="-0.066265"><ele>363.52</ele><time>2010-10-10T13:27:17Z</time></trkpt><trkpt lat="43.100472" lon="-0.066299"><ele>363.52</ele><time>2010-10-10T13:27:18Z</time></trkpt><trkpt lat="43.099788" lon="-0.066697"><ele>362.07</ele><time>2010-10-10T13:27:26Z</time></trkpt><trkpt lat="43.099699" lon="-0.066787"><ele>361.59</ele><time>2010-10-10T13:27:27Z</time></trkpt><trkpt lat="43.099608" lon="-0.066878"><ele>361.59</ele><time>2010-10-10T13:27:28Z</time></trkpt><trkpt lat="43.099526" lon="-0.066975"><ele>361.59</ele><time>2010-10-10T13:27:29Z</time></trkpt><trkpt lat="43.099467" lon="-0.067112"><ele>361.11</ele><time>2010-10-10T13:27:30Z</time></trkpt><trkpt lat="43.099408" lon="-0.067251"><ele>361.11</ele><time>2010-10-10T13:27:31Z</time></trkpt><trkpt lat="43.099356" lon="-0.067410"><ele>361.11</ele><time>2010-10-10T13:27:32Z</time></trkpt><trkpt lat="43.099303" lon="-0.067571"><ele>361.11</ele><time>2010-10-10T13:27:33Z</time></trkpt><trkpt lat="43.098723" lon="-0.069307"><ele>364.96</ele><time>2010-10-10T13:27:44Z</time></trkpt><trkpt lat="43.098665" lon="-0.069423"><ele>365.44</ele><time>2010-10-10T13:27:45Z</time></trkpt><trkpt lat="43.098594" lon="-0.069523"><ele>366.40</ele><time>2010-10-10T13:27:46Z</time></trkpt><trkpt lat="43.098516" lon="-0.069600"><ele>367.36</ele><time>2010-10-10T13:27:47Z</time></trkpt><trkpt lat="43.098426" lon="-0.069662"><ele>367.84</ele><time>2010-10-10T13:27:48Z</time></trkpt><trkpt lat="43.098334" lon="-0.069687"><ele>368.80</ele><time>2010-10-10T13:27:49Z</time></trkpt><trkpt lat="43.098242" lon="-0.069712"><ele>369.28</ele><time>2010-10-10T13:27:50Z</time></trkpt><trkpt lat="43.098150" lon="-0.069737"><ele>370.24</ele><time>2010-10-10T13:27:51Z</time></trkpt><trkpt lat="43.098057" lon="-0.069763"><ele>370.73</ele><time>2010-10-10T13:27:52Z</time></trkpt><trkpt lat="43.097957" lon="-0.069772"><ele>371.69</ele><time>2010-10-10T13:27:53Z</time></trkpt><trkpt lat="43.097858" lon="-0.069748"><ele>372.17</ele><time>2010-10-10T13:27:54Z</time></trkpt><trkpt lat="43.097758" lon="-0.069724"><ele>373.13</ele><time>2010-10-10T13:27:55Z</time></trkpt><trkpt lat="43.097268" lon="-0.069608"><ele>377.45</ele><time>2010-10-10T13:28:00Z</time></trkpt><trkpt lat="43.097182" lon="-0.069587"><ele>377.94</ele><time>2010-10-10T13:28:01Z</time></trkpt><trkpt lat="43.097100" lon="-0.069568"><ele>378.90</ele><time>2010-10-10T13:28:02Z</time></trkpt><trkpt lat="43.097021" lon="-0.069519"><ele>379.38</ele><time>2010-10-10T13:28:03Z</time></trkpt><trkpt lat="43.096947" lon="-0.069457"><ele>380.34</ele><time>2010-10-10T13:28:04Z</time></trkpt><trkpt lat="43.096898" lon="-0.069383"><ele>380.82</ele><time>2010-10-10T13:28:05Z</time></trkpt><trkpt lat="43.096851" lon="-0.069313"><ele>381.30</ele><time>2010-10-10T13:28:06Z</time></trkpt><trkpt lat="43.096791" lon="-0.069222"><ele>382.26</ele><time>2010-10-10T13:28:08Z</time></trkpt><trkpt lat="43.096791" lon="-0.069222"><ele>382.74</ele><time>2010-10-10T13:28:09Z</time></trkpt><trkpt lat="43.096737" lon="-0.069089"><ele>383.22</ele><time>2010-10-10T13:28:10Z</time></trkpt><trkpt lat="43.096722" lon="-0.069051"><ele>383.70</ele><time>2010-10-10T13:28:11Z</time></trkpt><trkpt lat="43.096713" lon="-0.069027"><ele>383.70</ele><time>2010-10-10T13:28:12Z</time></trkpt><trkpt lat="43.096713" lon="-0.069027"><ele>384.66</ele><time>2010-10-10T13:28:15Z</time></trkpt><trkpt lat="43.096791" lon="-0.069222"><ele>385.15</ele><time>2010-10-10T13:28:16Z</time></trkpt><trkpt lat="43.096796" lon="-0.069219"><ele>387.07</ele><time>2010-10-10T13:28:23Z</time></trkpt><trkpt lat="43.096852" lon="-0.069186"><ele>387.55</ele><time>2010-10-10T13:28:25Z</time></trkpt><trkpt lat="43.097008" lon="-0.069094"><ele>386.59</ele><time>2010-10-10T13:28:29Z</time></trkpt><trkpt lat="43.097062" lon="-0.069094"><ele>386.59</ele><time>2010-10-10T13:28:30Z</time></trkpt><trkpt lat="43.097264" lon="-0.069193"><ele>387.07</ele><time>2010-10-10T13:28:33Z</time></trkpt><trkpt lat="43.096791" lon="-0.069222"><ele>388.99</ele><time>2010-10-10T13:28:39Z</time></trkpt><trkpt lat="43.097301" lon="-0.069616"><ele>389.47</ele><time>2010-10-10T13:28:40Z</time></trkpt><trkpt lat="43.097376" lon="-0.069633"><ele>389.95</ele><time>2010-10-10T13:28:41Z</time></trkpt><trkpt lat="43.097560" lon="-0.069196"><ele>390.43</ele><time>2010-10-10T13:28:42Z</time></trkpt><trkpt lat="43.097634" lon="-0.069147"><ele>390.43</ele><time>2010-10-10T13:28:43Z</time></trkpt><trkpt lat="43.097710" lon="-0.069096"><ele>390.91</ele><time>2010-10-10T13:28:44Z</time></trkpt><trkpt lat="43.097777" lon="-0.069051"><ele>390.91</ele><time>2010-10-10T13:28:45Z</time></trkpt><trkpt lat="43.097832" lon="-0.069015"><ele>390.91</ele><time>2010-10-10T13:28:46Z</time></trkpt><trkpt lat="43.097880" lon="-0.068983"><ele>391.39</ele><time>2010-10-10T13:28:47Z</time></trkpt><trkpt lat="43.097936" lon="-0.068910"><ele>391.39</ele><time>2010-10-10T13:28:48Z</time></trkpt><trkpt lat="43.097968" lon="-0.068850"><ele>391.39</ele><time>2010-10-10T13:28:49Z</time></trkpt><trkpt lat="43.098021" lon="-0.068748"><ele>391.87</ele><time>2010-10-10T13:28:51Z</time></trkpt><trkpt lat="43.098275" lon="-0.068270"><ele>389.47</ele><time>2010-10-10T13:28:59Z</time></trkpt><trkpt lat="43.098356" lon="-0.068020"><ele>388.03</ele><time>2010-10-10T13:29:01Z</time></trkpt><trkpt lat="43.098379" lon="-0.067940"><ele>388.03</ele><time>2010-10-10T13:29:02Z</time></trkpt><trkpt lat="43.098521" lon="-0.067869"><ele>388.03</ele><time>2010-10-10T13:29:03Z</time></trkpt><trkpt lat="43.098538" lon="-0.067784"><ele>388.51</ele><time>2010-10-10T13:29:04Z</time></trkpt><trkpt lat="43.098558" lon="-0.067681"><ele>388.51</ele><time>2010-10-10T13:29:05Z</time></trkpt><trkpt lat="43.098578" lon="-0.067584"><ele>388.99</ele><time>2010-10-10T13:29:06Z</time></trkpt><trkpt lat="43.098595" lon="-0.067496"><ele>389.47</ele><time>2010-10-10T13:29:07Z</time></trkpt><trkpt lat="43.098593" lon="-0.067205"><ele>389.95</ele><time>2010-10-10T13:29:08Z</time></trkpt><trkpt lat="43.098552" lon="-0.067348"><ele>389.95</ele><time>2010-10-10T13:29:09Z</time></trkpt><trkpt lat="43.098612" lon="-0.067004"><ele>390.91</ele><time>2010-10-10T13:29:14Z</time></trkpt><trkpt lat="43.098619" lon="-0.066926"><ele>390.91</ele><time>2010-10-10T13:29:15Z</time></trkpt><trkpt lat="43.098627" lon="-0.066839"><ele>391.39</ele><time>2010-10-10T13:29:16Z</time></trkpt><trkpt lat="43.098632" lon="-0.066689"><ele>391.39</ele><time>2010-10-10T13:29:17Z</time></trkpt><trkpt lat="43.098623" lon="-0.066590"><ele>391.87</ele><time>2010-10-10T13:29:18Z</time></trkpt><trkpt lat="43.098613" lon="-0.066488"><ele>392.36</ele><time>2010-10-10T13:29:19Z</time></trkpt></trkseg><trkseg><trkpt lat="43.097088" lon="-0.058985"><ele>388.03</ele><time>2010-10-10T14:00:56Z</time></trkpt><trkpt lat="43.097145" lon="-0.058938"><ele>390.91</ele><time>2010-10-10T14:01:25Z</time></trkpt><trkpt lat="43.097168" lon="-0.059018"><ele>401.49</ele><time>2010-10-10T14:02:01Z</time></trkpt><trkpt lat="43.097185" lon="-0.059113"><ele>402.45</ele><time>2010-10-10T14:02:03Z</time></trkpt><trkpt lat="43.097177" lon="-0.059684"><ele>401.97</ele><time>2010-10-10T14:02:10Z</time></trkpt><trkpt lat="43.097177" lon="-0.059777"><ele>401.97</ele><time>2010-10-10T14:02:11Z</time></trkpt><trkpt lat="43.097189" lon="-0.059945"><ele>402.45</ele><time>2010-10-10T14:02:13Z</time></trkpt><trkpt lat="43.097203" lon="-0.060035"><ele>402.93</ele><time>2010-10-10T14:02:14Z</time></trkpt><trkpt lat="43.097263" lon="-0.060848"><ele>404.37</ele><time>2010-10-10T14:02:22Z</time></trkpt><trkpt lat="43.097263" lon="-0.060951"><ele>404.37</ele><time>2010-10-10T14:02:23Z</time></trkpt><trkpt lat="43.097272" lon="-0.061597"><ele>403.89</ele><time>2010-10-10T14:02:29Z</time></trkpt><trkpt lat="43.097289" lon="-0.061696"><ele>403.89</ele><time>2010-10-10T14:02:30Z</time></trkpt><trkpt lat="43.097305" lon="-0.061795"><ele>403.89</ele><time>2010-10-10T14:02:31Z</time></trkpt><trkpt lat="43.097322" lon="-0.061898"><ele>403.89</ele><time>2010-10-10T14:02:32Z</time></trkpt><trkpt lat="43.097340" lon="-0.062001"><ele>403.89</ele><time>2010-10-10T14:02:33Z</time></trkpt><trkpt lat="43.097358" lon="-0.062100"><ele>403.41</ele><time>2010-10-10T14:02:34Z</time></trkpt><trkpt lat="43.097380" lon="-0.062202"><ele>402.93</ele><time>2010-10-10T14:02:35Z</time></trkpt><trkpt lat="43.097401" lon="-0.062295"><ele>402.93</ele><time>2010-10-10T14:02:36Z</time></trkpt><trkpt lat="43.097418" lon="-0.062374"><ele>402.93</ele><time>2010-10-10T14:02:37Z</time></trkpt><trkpt lat="43.097433" lon="-0.062447"><ele>402.45</ele><time>2010-10-10T14:02:38Z</time></trkpt><trkpt lat="43.097450" lon="-0.062523"><ele>402.45</ele><time>2010-10-10T14:02:39Z</time></trkpt><trkpt lat="43.097467" lon="-0.062603"><ele>402.45</ele><time>2010-10-10T14:02:40Z</time></trkpt><trkpt lat="43.097533" lon="-0.062907"><ele>402.93</ele><time>2010-10-10T14:02:44Z</time></trkpt><trkpt lat="43.097548" lon="-0.062976"><ele>402.93</ele><time>2010-10-10T14:02:45Z</time></trkpt><trkpt lat="43.097581" lon="-0.063127"><ele>402.93</ele><time>2010-10-10T14:02:47Z</time></trkpt><trkpt lat="43.097600" lon="-0.063213"><ele>403.41</ele><time>2010-10-10T14:02:48Z</time></trkpt><trkpt lat="43.097619" lon="-0.063304"><ele>403.41</ele><time>2010-10-10T14:02:49Z</time></trkpt><trkpt lat="43.097640" lon="-0.063402"><ele>403.89</ele><time>2010-10-10T14:02:50Z</time></trkpt><trkpt lat="43.097663" lon="-0.063506"><ele>403.89</ele><time>2010-10-10T14:02:51Z</time></trkpt><trkpt lat="43.097686" lon="-0.063612"><ele>404.37</ele><time>2010-10-10T14:02:52Z</time></trkpt><trkpt lat="43.097710" lon="-0.063721"><ele>404.37</ele><time>2010-10-10T14:02:53Z</time></trkpt><trkpt lat="43.097830" lon="-0.064275"><ele>403.41</ele><time>2010-10-10T14:02:58Z</time></trkpt><trkpt lat="43.097919" lon="-0.064667"><ele>401.97</ele><time>2010-10-10T14:03:03Z</time></trkpt><trkpt lat="43.097937" lon="-0.064721"><ele>401.49</ele><time>2010-10-10T14:03:04Z</time></trkpt><trkpt lat="43.097955" lon="-0.064775"><ele>401.49</ele><time>2010-10-10T14:03:05Z</time></trkpt><trkpt lat="43.097973" lon="-0.064829"><ele>401.49</ele><time>2010-10-10T14:03:06Z</time></trkpt><trkpt lat="43.097992" lon="-0.064885"><ele>401.01</ele><time>2010-10-10T14:03:07Z</time></trkpt><trkpt lat="43.098028" lon="-0.064934"><ele>400.53</ele><time>2010-10-10T14:03:08Z</time></trkpt><trkpt lat="43.098065" lon="-0.064983"><ele>400.05</ele><time>2010-10-10T14:03:09Z</time></trkpt><trkpt lat="43.098238" lon="-0.065208"><ele>399.57</ele><time>2010-10-10T14:03:13Z</time></trkpt><trkpt lat="43.098286" lon="-0.065270"><ele>399.08</ele><time>2010-10-10T14:03:14Z</time></trkpt><trkpt lat="43.098334" lon="-0.065332"><ele>399.08</ele><time>2010-10-10T14:03:15Z</time></trkpt><trkpt lat="43.098390" lon="-0.065404"><ele>399.08</ele><time>2010-10-10T14:03:16Z</time></trkpt><trkpt lat="43.098426" lon="-0.065459"><ele>399.08</ele><time>2010-10-10T14:03:17Z</time></trkpt><trkpt lat="43.098452" lon="-0.065537"><ele>398.60</ele><time>2010-10-10T14:03:18Z</time></trkpt><trkpt lat="43.098480" lon="-0.065621"><ele>398.12</ele><time>2010-10-10T14:03:19Z</time></trkpt><trkpt lat="43.098507" lon="-0.065703"><ele>397.64</ele><time>2010-10-10T14:03:20Z</time></trkpt><trkpt lat="43.098534" lon="-0.065782"><ele>397.16</ele><time>2010-10-10T14:03:21Z</time></trkpt><trkpt lat="43.098569" lon="-0.066030"><ele>395.72</ele><time>2010-10-10T14:03:24Z</time></trkpt><trkpt lat="43.098622" lon="-0.066581"><ele>393.32</ele><time>2010-10-10T14:03:30Z</time></trkpt><trkpt lat="43.098631" lon="-0.066681"><ele>392.84</ele><time>2010-10-10T14:03:31Z</time></trkpt><trkpt lat="43.098623" lon="-0.066883"><ele>392.36</ele><time>2010-10-10T14:03:33Z</time></trkpt><trkpt lat="43.098614" lon="-0.066980"><ele>391.87</ele><time>2010-10-10T14:03:34Z</time></trkpt><trkpt lat="43.098605" lon="-0.067078"><ele>391.39</ele><time>2010-10-10T14:03:35Z</time></trkpt><trkpt lat="43.098315" lon="-0.068158"><ele>388.51</ele><time>2010-10-10T14:03:46Z</time></trkpt><trkpt lat="43.098118" lon="-0.068566"><ele>387.07</ele><time>2010-10-10T14:03:51Z</time></trkpt><trkpt lat="43.098044" lon="-0.068706"><ele>387.07</ele><time>2010-10-10T14:03:53Z</time></trkpt><trkpt lat="43.098006" lon="-0.068778"><ele>386.59</ele><time>2010-10-10T14:03:54Z</time></trkpt><trkpt lat="43.097969" lon="-0.068848"><ele>386.59</ele><time>2010-10-10T14:03:55Z</time></trkpt><trkpt lat="43.097938" lon="-0.068905"><ele>386.59</ele><time>2010-10-10T14:03:56Z</time></trkpt><trkpt lat="43.097910" lon="-0.068959"><ele>386.59</ele><time>2010-10-10T14:03:57Z</time></trkpt><trkpt lat="43.097863" lon="-0.068994"><ele>386.59</ele><time>2010-10-10T14:03:58Z</time></trkpt><trkpt lat="43.097801" lon="-0.069036"><ele>386.59</ele><time>2010-10-10T14:03:59Z</time></trkpt><trkpt lat="43.097733" lon="-0.069081"><ele>386.59</ele><time>2010-10-10T14:04:00Z</time></trkpt><trkpt lat="43.097465" lon="-0.069241"><ele>386.11</ele><time>2010-10-10T14:04:04Z</time></trkpt><trkpt lat="43.097404" lon="-0.069261"><ele>386.11</ele><time>2010-10-10T14:04:05Z</time></trkpt><trkpt lat="43.097340" lon="-0.069236"><ele>385.63</ele><time>2010-10-10T14:04:06Z</time></trkpt><trkpt lat="43.097285" lon="-0.069204"><ele>385.63</ele><time>2010-10-10T14:04:07Z</time></trkpt><trkpt lat="43.097233" lon="-0.069175"><ele>385.15</ele><time>2010-10-10T14:04:08Z</time></trkpt><trkpt lat="43.097185" lon="-0.069147"><ele>385.15</ele><time>2010-10-10T14:04:09Z</time></trkpt><trkpt lat="43.097135" lon="-0.069119"><ele>384.66</ele><time>2010-10-10T14:04:10Z</time></trkpt><trkpt lat="43.097081" lon="-0.069094"><ele>384.18</ele><time>2010-10-10T14:04:11Z</time></trkpt><trkpt lat="43.097027" lon="-0.069094"><ele>384.18</ele><time>2010-10-10T14:04:12Z</time></trkpt><trkpt lat="43.096985" lon="-0.069106"><ele>384.18</ele><time>2010-10-10T14:04:13Z</time></trkpt><trkpt lat="43.096950" lon="-0.069127"><ele>384.18</ele><time>2010-10-10T14:04:14Z</time></trkpt><trkpt lat="43.096919" lon="-0.069145"><ele>384.18</ele><time>2010-10-10T14:04:15Z</time></trkpt><trkpt lat="43.096791" lon="-0.069222"><ele>384.18</ele><time>2010-10-10T14:04:16Z</time></trkpt><trkpt lat="43.096791" lon="-0.069222"><ele>384.18</ele><time>2010-10-10T14:04:17Z</time></trkpt><trkpt lat="43.096934" lon="-0.069437"><ele>384.18</ele><time>2010-10-10T14:04:18Z</time></trkpt><trkpt lat="43.096997" lon="-0.069503"><ele>383.70</ele><time>2010-10-10T14:04:19Z</time></trkpt><trkpt lat="43.097058" lon="-0.069543"><ele>383.70</ele><time>2010-10-10T14:04:20Z</time></trkpt><trkpt lat="43.097132" lon="-0.069575"><ele>383.70</ele><time>2010-10-10T14:04:21Z</time></trkpt><trkpt lat="43.097201" lon="-0.069592"><ele>383.22</ele><time>2010-10-10T14:04:22Z</time></trkpt><trkpt lat="43.097279" lon="-0.069610"><ele>383.22</ele><time>2010-10-10T14:04:23Z</time></trkpt><trkpt lat="43.097359" lon="-0.069630"><ele>382.74</ele><time>2010-10-10T14:04:24Z</time></trkpt><trkpt lat="43.097930" lon="-0.069765"><ele>379.86</ele><time>2010-10-10T14:04:30Z</time></trkpt><trkpt lat="43.098036" lon="-0.069768"><ele>379.38</ele><time>2010-10-10T14:04:31Z</time></trkpt><trkpt lat="43.098132" lon="-0.069743"><ele>378.90</ele><time>2010-10-10T14:04:32Z</time></trkpt><trkpt lat="43.098229" lon="-0.069716"><ele>377.94</ele><time>2010-10-10T14:04:33Z</time></trkpt><trkpt lat="43.098332" lon="-0.069688"><ele>377.45</ele><time>2010-10-10T14:04:34Z</time></trkpt><trkpt lat="43.098428" lon="-0.069662"><ele>376.97</ele><time>2010-10-10T14:04:35Z</time></trkpt><trkpt lat="43.098537" lon="-0.069580"><ele>376.01</ele><time>2010-10-10T14:04:36Z</time></trkpt><trkpt lat="43.098621" lon="-0.069495"><ele>375.05</ele><time>2010-10-10T14:04:37Z</time></trkpt><trkpt lat="43.098700" lon="-0.069352"><ele>374.09</ele><time>2010-10-10T14:04:38Z</time></trkpt><trkpt lat="43.098767" lon="-0.069216"><ele>373.61</ele><time>2010-10-10T14:04:39Z</time></trkpt><trkpt lat="43.098814" lon="-0.069073"><ele>372.65</ele><time>2010-10-10T14:04:40Z</time></trkpt><trkpt lat="43.098862" lon="-0.068924"><ele>371.69</ele><time>2010-10-10T14:04:41Z</time></trkpt><trkpt lat="43.098912" lon="-0.068770"><ele>371.21</ele><time>2010-10-10T14:04:42Z</time></trkpt><trkpt lat="43.099481" lon="-0.067080"><ele>367.36</ele><time>2010-10-10T14:04:53Z</time></trkpt><trkpt lat="43.099534" lon="-0.066955"><ele>367.84</ele><time>2010-10-10T14:04:54Z</time></trkpt><trkpt lat="43.099608" lon="-0.066878"><ele>367.36</ele><time>2010-10-10T14:04:55Z</time></trkpt><trkpt lat="43.099693" lon="-0.066793"><ele>367.84</ele><time>2010-10-10T14:04:56Z</time></trkpt><trkpt lat="43.099775" lon="-0.066710"><ele>367.84</ele><time>2010-10-10T14:04:57Z</time></trkpt><trkpt lat="43.099858" lon="-0.066637"><ele>367.84</ele><time>2010-10-10T14:04:58Z</time></trkpt><trkpt lat="43.099955" lon="-0.066583"><ele>368.32</ele><time>2010-10-10T14:04:59Z</time></trkpt><trkpt lat="43.100054" lon="-0.066529"><ele>368.32</ele><time>2010-10-10T14:05:00Z</time></trkpt><trkpt lat="43.100591" lon="-0.066233"><ele>368.80</ele><time>2010-10-10T14:05:08Z</time></trkpt><trkpt lat="43.100693" lon="-0.066147"><ele>369.76</ele><time>2010-10-10T14:05:12Z</time></trkpt><trkpt lat="43.100686" lon="-0.066088"><ele>370.24</ele><time>2010-10-10T14:05:13Z</time></trkpt><trkpt lat="43.100677" lon="-0.066003"><ele>370.24</ele><time>2010-10-10T14:05:14Z</time></trkpt><trkpt lat="43.100665" lon="-0.065895"><ele>370.24</ele><time>2010-10-10T14:05:15Z</time></trkpt><trkpt lat="43.100651" lon="-0.065768"><ele>370.73</ele><time>2010-10-10T14:05:16Z</time></trkpt><trkpt lat="43.100508" lon="-0.064351"><ele>369.76</ele><time>2010-10-10T14:05:25Z</time></trkpt><trkpt lat="43.100340" lon="-0.062555"><ele>372.17</ele><time>2010-10-10T14:05:38Z</time></trkpt><trkpt lat="43.100281" lon="-0.061914"><ele>374.57</ele><time>2010-10-10T14:05:46Z</time></trkpt><trkpt lat="43.100194" lon="-0.060985"><ele>377.94</ele><time>2010-10-10T14:05:55Z</time></trkpt><trkpt lat="43.100042" lon="-0.059377"><ele>382.74</ele><time>2010-10-10T14:06:09Z</time></trkpt><trkpt lat="43.099964" lon="-0.058561"><ele>384.66</ele><time>2010-10-10T14:06:18Z</time></trkpt><trkpt lat="43.099858" lon="-0.057428"><ele>387.07</ele><time>2010-10-10T14:06:28Z</time></trkpt><trkpt lat="43.099832" lon="-0.057148"><ele>387.55</ele><time>2010-10-10T14:06:31Z</time></trkpt><trkpt lat="43.099825" lon="-0.057064"><ele>388.03</ele><time>2010-10-10T14:06:32Z</time></trkpt><trkpt lat="43.099743" lon="-0.056158"><ele>389.95</ele><time>2010-10-10T14:06:43Z</time></trkpt><trkpt lat="43.099719" lon="-0.055900"><ele>390.91</ele><time>2010-10-10T14:06:49Z</time></trkpt><trkpt lat="43.099667" lon="-0.055326"><ele>391.87</ele><time>2010-10-10T14:06:55Z</time></trkpt><trkpt lat="43.099580" lon="-0.053997"><ele>399.08</ele><time>2010-10-10T14:07:07Z</time></trkpt><trkpt lat="43.099580" lon="-0.053627"><ele>400.53</ele><time>2010-10-10T14:07:11Z</time></trkpt><trkpt lat="43.099600" lon="-0.053463"><ele>400.53</ele><time>2010-10-10T14:07:13Z</time></trkpt><trkpt lat="43.099618" lon="-0.053368"><ele>400.53</ele><time>2010-10-10T14:07:14Z</time></trkpt><trkpt lat="43.099680" lon="-0.053060"><ele>401.01</ele><time>2010-10-10T14:07:17Z</time></trkpt><trkpt lat="43.099689" lon="-0.051944"><ele>402.93</ele><time>2010-10-10T14:07:28Z</time></trkpt><trkpt lat="43.099600" lon="-0.051631"><ele>403.41</ele><time>2010-10-10T14:07:31Z</time></trkpt><trkpt lat="43.099438" lon="-0.051063"><ele>402.93</ele><time>2010-10-10T14:07:36Z</time></trkpt><trkpt lat="43.098932" lon="-0.049692"><ele>403.41</ele><time>2010-10-10T14:07:50Z</time></trkpt><trkpt lat="43.098786" lon="-0.049284"><ele>403.89</ele><time>2010-10-10T14:07:56Z</time></trkpt><trkpt lat="43.098757" lon="-0.049201"><ele>403.89</ele><time>2010-10-10T14:07:57Z</time></trkpt><trkpt lat="43.098654" lon="-0.048915"><ele>404.37</ele><time>2010-10-10T14:08:00Z</time></trkpt><trkpt lat="43.098622" lon="-0.048824"><ele>403.89</ele><time>2010-10-10T14:08:01Z</time></trkpt><trkpt lat="43.098592" lon="-0.048738"><ele>403.89</ele><time>2010-10-10T14:08:02Z</time></trkpt><trkpt lat="43.098536" lon="-0.048579"><ele>403.89</ele><time>2010-10-10T14:08:04Z</time></trkpt><trkpt lat="43.098395" lon="-0.048157"><ele>404.37</ele><time>2010-10-10T14:08:13Z</time></trkpt><trkpt lat="43.098379" lon="-0.048109"><ele>404.37</ele><time>2010-10-10T14:08:14Z</time></trkpt><trkpt lat="43.098379" lon="-0.048108"><ele>404.37</ele><time>2010-10-10T14:08:15Z</time></trkpt><trkpt lat="43.098379" lon="-0.048108"><ele>404.37</ele><time>2010-10-10T14:08:16Z</time></trkpt><trkpt lat="43.098379" lon="-0.048108"><ele>404.85</ele><time>2010-10-10T14:08:17Z</time></trkpt><trkpt lat="43.098379" lon="-0.048108"><ele>404.85</ele><time>2010-10-10T14:08:18Z</time></trkpt><trkpt lat="43.098507" lon="-0.047656"><ele>405.33</ele><time>2010-10-10T14:08:19Z</time></trkpt><trkpt lat="43.098479" lon="-0.047565"><ele>405.33</ele><time>2010-10-10T14:08:20Z</time></trkpt><trkpt lat="43.098451" lon="-0.047473"><ele>405.81</ele><time>2010-10-10T14:08:21Z</time></trkpt><trkpt lat="43.098422" lon="-0.047368"><ele>405.81</ele><time>2010-10-10T14:08:22Z</time></trkpt><trkpt lat="43.098422" lon="-0.047280"><ele>405.81</ele><time>2010-10-10T14:08:23Z</time></trkpt><trkpt lat="43.098436" lon="-0.047106"><ele>406.29</ele><time>2010-10-10T14:08:25Z</time></trkpt><trkpt lat="43.098455" lon="-0.047031"><ele>406.29</ele><time>2010-10-10T14:08:26Z</time></trkpt><trkpt lat="43.098487" lon="-0.046977"><ele>406.29</ele><time>2010-10-10T14:08:27Z</time></trkpt><trkpt lat="43.098539" lon="-0.046943"><ele>406.77</ele><time>2010-10-10T14:08:28Z</time></trkpt><trkpt lat="43.098586" lon="-0.046911"><ele>406.77</ele><time>2010-10-10T14:08:29Z</time></trkpt><trkpt lat="43.098635" lon="-0.046878"><ele>406.77</ele><time>2010-10-10T14:08:30Z</time></trkpt><trkpt lat="43.098678" lon="-0.046850"><ele>406.77</ele><time>2010-10-10T14:08:31Z</time></trkpt><trkpt lat="43.098725" lon="-0.046818"><ele>407.26</ele><time>2010-10-10T14:08:32Z</time></trkpt><trkpt lat="43.098778" lon="-0.046761"><ele>407.26</ele><time>2010-10-10T14:08:33Z</time></trkpt><trkpt lat="43.098838" lon="-0.046698"><ele>406.77</ele><time>2010-10-10T14:08:34Z</time></trkpt><trkpt lat="43.098902" lon="-0.046630"><ele>406.77</ele><time>2010-10-10T14:08:35Z</time></trkpt><trkpt lat="43.099351" lon="-0.046155"><ele>402.45</ele><time>2010-10-10T14:08:43Z</time></trkpt><trkpt lat="43.099414" lon="-0.046088"><ele>399.57</ele><time>2010-10-10T14:08:45Z</time></trkpt><trkpt lat="43.099437" lon="-0.046063"><ele>399.08</ele><time>2010-10-10T14:08:46Z</time></trkpt><trkpt lat="43.099437" lon="-0.046063"><ele>399.08</ele><time>2010-10-10T14:08:47Z</time></trkpt><trkpt lat="43.099470" lon="-0.045845"><ele>398.60</ele><time>2010-10-10T14:08:49Z</time></trkpt><trkpt lat="43.099458" lon="-0.045540"><ele>398.60</ele><time>2010-10-10T14:08:52Z</time></trkpt><trkpt lat="43.099392" lon="-0.045474"><ele>398.60</ele><time>2010-10-10T14:08:55Z</time></trkpt><trkpt lat="43.099392" lon="-0.045474"><ele>398.60</ele><time>2010-10-10T14:09:08Z</time></trkpt><trkpt lat="43.099295" lon="-0.045359"><ele>398.60</ele><time>2010-10-10T14:09:23Z</time></trkpt><trkpt lat="43.099280" lon="-0.045362"><ele>399.08</ele><time>2010-10-10T14:09:24Z</time></trkpt><trkpt lat="43.098556" lon="-0.045509"><ele>396.20</ele><time>2010-10-10T14:09:33Z</time></trkpt><trkpt lat="43.097679" lon="-0.045719"><ele>394.76</ele><time>2010-10-10T14:09:43Z</time></trkpt><trkpt lat="43.097212" lon="-0.045850"><ele>394.28</ele><time>2010-10-10T14:09:49Z</time></trkpt><trkpt lat="43.097131" lon="-0.045872"><ele>393.80</ele><time>2010-10-10T14:09:50Z</time></trkpt><trkpt lat="43.096977" lon="-0.045915"><ele>392.36</ele><time>2010-10-10T14:09:56Z</time></trkpt><trkpt lat="43.096795" lon="-0.045992"><ele>391.39</ele><time>2010-10-10T14:09:57Z</time></trkpt><trkpt lat="43.096956" lon="-0.045921"><ele>390.91</ele><time>2010-10-10T14:09:58Z</time></trkpt><trkpt lat="43.096970" lon="-0.045852"><ele>389.95</ele><time>2010-10-10T14:09:59Z</time></trkpt><trkpt lat="43.096979" lon="-0.045768"><ele>388.99</ele><time>2010-10-10T14:10:00Z</time></trkpt><trkpt lat="43.096989" lon="-0.045683"><ele>388.03</ele><time>2010-10-10T14:10:01Z</time></trkpt><trkpt lat="43.096998" lon="-0.045597"><ele>387.07</ele><time>2010-10-10T14:10:02Z</time></trkpt><trkpt lat="43.097008" lon="-0.045508"><ele>386.11</ele><time>2010-10-10T14:10:03Z</time></trkpt><trkpt lat="43.097027" lon="-0.045335"><ele>382.26</ele><time>2010-10-10T14:10:08Z</time></trkpt><trkpt lat="43.096957" lon="-0.045162"><ele>382.26</ele><time>2010-10-10T14:10:09Z</time></trkpt><trkpt lat="43.096957" lon="-0.045162"><ele>383.22</ele><time>2010-10-10T14:10:10Z</time></trkpt><trkpt lat="43.096963" lon="-0.045161"><ele>387.55</ele><time>2010-10-10T14:10:18Z</time></trkpt><trkpt lat="43.096963" lon="-0.045161"><ele>388.03</ele><time>2010-10-10T14:10:25Z</time></trkpt><trkpt lat="43.096963" lon="-0.045161"><ele>389.95</ele><time>2010-10-10T14:10:35Z</time></trkpt><trkpt lat="43.096963" lon="-0.045161"><ele>391.87</ele><time>2010-10-10T14:10:45Z</time></trkpt><trkpt lat="43.096963" lon="-0.045161"><ele>393.80</ele><time>2010-10-10T14:11:00Z</time></trkpt><trkpt lat="43.096963" lon="-0.045161"><ele>394.76</ele><time>2010-10-10T14:11:54Z</time></trkpt><trkpt lat="43.096963" lon="-0.045161"><ele>406.77</ele><time>2010-10-10T14:27:25Z</time></trkpt></trkseg></trk><trk><name>ACTIVE LOG: 10 окт 2010 16:30</name><trkseg><trkpt lat="43.096963" lon="-0.045161"><ele>406.77</ele><time>2010-10-10T14:30:11Z</time></trkpt><trkpt lat="43.096963" lon="-0.045161"><ele>406.29</ele><time>2010-10-10T14:30:16Z</time></trkpt><trkpt lat="43.097048" lon="-0.045062"><ele>405.81</ele><time>2010-10-10T14:30:26Z</time></trkpt><trkpt lat="43.097048" lon="-0.045062"><ele>408.22</ele><time>2010-10-10T14:30:56Z</time></trkpt><trkpt lat="43.097048" lon="-0.045030"><ele>406.77</ele><time>2010-10-10T14:31:00Z</time></trkpt><trkpt lat="43.097048" lon="-0.044992"><ele>405.81</ele><time>2010-10-10T14:31:01Z</time></trkpt><trkpt lat="43.097048" lon="-0.044969"><ele>405.81</ele><time>2010-10-10T14:31:02Z</time></trkpt><trkpt lat="43.097048" lon="-0.044946"><ele>405.33</ele><time>2010-10-10T14:31:03Z</time></trkpt><trkpt lat="43.097048" lon="-0.044946"><ele>405.33</ele><time>2010-10-10T14:31:04Z</time></trkpt><trkpt lat="43.097040" lon="-0.044813"><ele>405.81</ele><time>2010-10-10T14:31:10Z</time></trkpt><trkpt lat="43.097036" lon="-0.044766"><ele>405.81</ele><time>2010-10-10T14:31:11Z</time></trkpt><trkpt lat="43.097033" lon="-0.044714"><ele>405.33</ele><time>2010-10-10T14:31:12Z</time></trkpt><trkpt lat="43.097029" lon="-0.044657"><ele>405.33</ele><time>2010-10-10T14:31:13Z</time></trkpt><trkpt lat="43.097025" lon="-0.044598"><ele>405.33</ele><time>2010-10-10T14:31:14Z</time></trkpt><trkpt lat="43.097005" lon="-0.044280"><ele>406.29</ele><time>2010-10-10T14:31:19Z</time></trkpt><trkpt lat="43.097005" lon="-0.044280"><ele>406.29</ele><time>2010-10-10T14:31:20Z</time></trkpt><trkpt lat="43.097007" lon="-0.044132"><ele>406.29</ele><time>2010-10-10T14:31:21Z</time></trkpt><trkpt lat="43.097013" lon="-0.044057"><ele>406.29</ele><time>2010-10-10T14:31:22Z</time></trkpt><trkpt lat="43.097019" lon="-0.043984"><ele>406.29</ele><time>2010-10-10T14:31:23Z</time></trkpt><trkpt lat="43.097019" lon="-0.043984"><ele>406.29</ele><time>2010-10-10T14:31:24Z</time></trkpt><trkpt lat="43.097030" lon="-0.043837"><ele>406.77</ele><time>2010-10-10T14:31:25Z</time></trkpt><trkpt lat="43.097036" lon="-0.043763"><ele>406.77</ele><time>2010-10-10T14:31:26Z</time></trkpt><trkpt lat="43.097042" lon="-0.043686"><ele>406.77</ele><time>2010-10-10T14:31:27Z</time></trkpt><trkpt lat="43.097005" lon="-0.042450"><ele>407.74</ele><time>2010-10-10T14:31:40Z</time></trkpt><trkpt lat="43.097005" lon="-0.042351"><ele>407.74</ele><time>2010-10-10T14:31:41Z</time></trkpt><trkpt lat="43.097005" lon="-0.042258"><ele>407.74</ele><time>2010-10-10T14:31:42Z</time></trkpt><trkpt lat="43.097005" lon="-0.042172"><ele>407.74</ele><time>2010-10-10T14:31:43Z</time></trkpt><trkpt lat="43.097005" lon="-0.041928"><ele>407.74</ele><time>2010-10-10T14:31:45Z</time></trkpt><trkpt lat="43.097005" lon="-0.041887"><ele>407.74</ele><time>2010-10-10T14:31:46Z</time></trkpt><trkpt lat="43.097003" lon="-0.041129"><ele>408.22</ele><time>2010-10-10T14:31:55Z</time></trkpt><trkpt lat="43.096965" lon="-0.040635"><ele>407.74</ele><time>2010-10-10T14:32:02Z</time></trkpt><trkpt lat="43.096959" lon="-0.040523"><ele>407.26</ele><time>2010-10-10T14:32:03Z</time></trkpt><trkpt lat="43.096953" lon="-0.040407"><ele>407.26</ele><time>2010-10-10T14:32:04Z</time></trkpt><trkpt lat="43.096892" lon="-0.039162"><ele>404.37</ele><time>2010-10-10T14:32:15Z</time></trkpt><trkpt lat="43.096880" lon="-0.038902"><ele>402.45</ele><time>2010-10-10T14:32:22Z</time></trkpt><trkpt lat="43.096911" lon="-0.038797"><ele>402.45</ele><time>2010-10-10T14:32:23Z</time></trkpt><trkpt lat="43.096963" lon="-0.038735"><ele>401.97</ele><time>2010-10-10T14:32:24Z</time></trkpt><trkpt lat="43.097014" lon="-0.038674"><ele>401.49</ele><time>2010-10-10T14:32:25Z</time></trkpt><trkpt lat="43.097063" lon="-0.038615"><ele>401.49</ele><time>2010-10-10T14:32:26Z</time></trkpt><trkpt lat="43.097175" lon="-0.038553"><ele>400.53</ele><time>2010-10-10T14:32:31Z</time></trkpt><trkpt lat="43.097813" lon="-0.038226"><ele>399.57</ele><time>2010-10-10T14:32:37Z</time></trkpt><trkpt lat="43.097919" lon="-0.038170"><ele>399.57</ele><time>2010-10-10T14:32:38Z</time></trkpt><trkpt lat="43.098018" lon="-0.038118"><ele>400.53</ele><time>2010-10-10T14:32:39Z</time></trkpt><trkpt lat="43.098113" lon="-0.038096"><ele>401.49</ele><time>2010-10-10T14:32:40Z</time></trkpt><trkpt lat="43.098204" lon="-0.038081"><ele>402.45</ele><time>2010-10-10T14:32:41Z</time></trkpt><trkpt lat="43.098293" lon="-0.038066"><ele>403.41</ele><time>2010-10-10T14:32:42Z</time></trkpt><trkpt lat="43.098383" lon="-0.038056"><ele>404.37</ele><time>2010-10-10T14:32:43Z</time></trkpt><trkpt lat="43.098983" lon="-0.037956"><ele>411.10</ele><time>2010-10-10T14:32:50Z</time></trkpt><trkpt lat="43.099220" lon="-0.037883"><ele>413.98</ele><time>2010-10-10T14:32:54Z</time></trkpt><trkpt lat="43.099220" lon="-0.037883"><ele>414.95</ele><time>2010-10-10T14:32:55Z</time></trkpt><trkpt lat="43.099324" lon="-0.037859"><ele>415.43</ele><time>2010-10-10T14:32:56Z</time></trkpt><trkpt lat="43.099323" lon="-0.037851"><ele>416.39</ele><time>2010-10-10T14:32:57Z</time></trkpt><trkpt lat="43.099323" lon="-0.037851"><ele>416.87</ele><time>2010-10-10T14:32:58Z</time></trkpt><trkpt lat="43.099404" lon="-0.038217"><ele>416.87</ele><time>2010-10-10T14:32:59Z</time></trkpt><trkpt lat="43.099428" lon="-0.038340"><ele>416.87</ele><time>2010-10-10T14:33:00Z</time></trkpt><trkpt lat="43.099779" lon="-0.040191"><ele>415.91</ele><time>2010-10-10T14:33:14Z</time></trkpt><trkpt lat="43.099964" lon="-0.041465"><ele>414.47</ele><time>2010-10-10T14:33:25Z</time></trkpt><trkpt lat="43.099906" lon="-0.042354"><ele>412.54</ele><time>2010-10-10T14:33:33Z</time></trkpt><trkpt lat="43.099891" lon="-0.042454"><ele>412.06</ele><time>2010-10-10T14:33:34Z</time></trkpt><trkpt lat="43.099781" lon="-0.043242"><ele>411.10</ele><time>2010-10-10T14:33:41Z</time></trkpt><trkpt lat="43.099666" lon="-0.044066"><ele>409.18</ele><time>2010-10-10T14:33:48Z</time></trkpt><trkpt lat="43.099593" lon="-0.044719"><ele>407.74</ele><time>2010-10-10T14:33:54Z</time></trkpt><trkpt lat="43.099614" lon="-0.044791"><ele>407.26</ele><time>2010-10-10T14:33:55Z</time></trkpt><trkpt lat="43.099631" lon="-0.044852"><ele>407.26</ele><time>2010-10-10T14:33:56Z</time></trkpt><trkpt lat="43.099643" lon="-0.044893"><ele>406.77</ele><time>2010-10-10T14:33:57Z</time></trkpt><trkpt lat="43.099695" lon="-0.045018"><ele>403.89</ele><time>2010-10-10T14:34:06Z</time></trkpt><trkpt lat="43.099732" lon="-0.045074"><ele>403.89</ele><time>2010-10-10T14:34:07Z</time></trkpt><trkpt lat="43.099769" lon="-0.045129"><ele>403.89</ele><time>2010-10-10T14:34:08Z</time></trkpt><trkpt lat="43.099769" lon="-0.045129"><ele>403.89</ele><time>2010-10-10T14:34:09Z</time></trkpt><trkpt lat="43.099890" lon="-0.045187"><ele>403.89</ele><time>2010-10-10T14:34:10Z</time></trkpt><trkpt lat="43.099951" lon="-0.045169"><ele>403.89</ele><time>2010-10-10T14:34:11Z</time></trkpt><trkpt lat="43.100020" lon="-0.045149"><ele>404.37</ele><time>2010-10-10T14:34:12Z</time></trkpt><trkpt lat="43.100334" lon="-0.045057"><ele>405.33</ele><time>2010-10-10T14:34:17Z</time></trkpt><trkpt lat="43.100370" lon="-0.045046"><ele>405.81</ele><time>2010-10-10T14:34:18Z</time></trkpt><trkpt lat="43.100397" lon="-0.045038"><ele>405.81</ele><time>2010-10-10T14:34:19Z</time></trkpt><trkpt lat="43.100397" lon="-0.045038"><ele>406.29</ele><time>2010-10-10T14:34:21Z</time></trkpt><trkpt lat="43.100433" lon="-0.045027"><ele>406.29</ele><time>2010-10-10T14:34:22Z</time></trkpt><trkpt lat="43.100473" lon="-0.045016"><ele>407.26</ele><time>2010-10-10T14:34:24Z</time></trkpt><trkpt lat="43.100514" lon="-0.045004"><ele>409.66</ele><time>2010-10-10T14:34:31Z</time></trkpt><trkpt lat="43.100588" lon="-0.045065"><ele>410.14</ele><time>2010-10-10T14:34:32Z</time></trkpt><trkpt lat="43.100567" lon="-0.045150"><ele>410.62</ele><time>2010-10-10T14:34:33Z</time></trkpt><trkpt lat="43.100538" lon="-0.045400"><ele>412.06</ele><time>2010-10-10T14:34:35Z</time></trkpt><trkpt lat="43.100559" lon="-0.045524"><ele>412.54</ele><time>2010-10-10T14:34:36Z</time></trkpt><trkpt lat="43.100580" lon="-0.045640"><ele>413.02</ele><time>2010-10-10T14:34:37Z</time></trkpt><trkpt lat="43.100602" lon="-0.045750"><ele>413.98</ele><time>2010-10-10T14:34:38Z</time></trkpt><trkpt lat="43.100656" lon="-0.045859"><ele>414.47</ele><time>2010-10-10T14:34:39Z</time></trkpt><trkpt lat="43.100704" lon="-0.045951"><ele>415.43</ele><time>2010-10-10T14:34:40Z</time></trkpt><trkpt lat="43.100733" lon="-0.046067"><ele>416.39</ele><time>2010-10-10T14:34:41Z</time></trkpt><trkpt lat="43.100739" lon="-0.046180"><ele>416.87</ele><time>2010-10-10T14:34:42Z</time></trkpt><trkpt lat="43.100739" lon="-0.046306"><ele>417.83</ele><time>2010-10-10T14:34:43Z</time></trkpt><trkpt lat="43.100739" lon="-0.046432"><ele>418.31</ele><time>2010-10-10T14:34:44Z</time></trkpt><trkpt lat="43.100695" lon="-0.046522"><ele>418.79</ele><time>2010-10-10T14:34:45Z</time></trkpt><trkpt lat="43.100695" lon="-0.046522"><ele>419.27</ele><time>2010-10-10T14:34:46Z</time></trkpt><trkpt lat="43.100640" lon="-0.046632"><ele>419.75</ele><time>2010-10-10T14:34:47Z</time></trkpt><trkpt lat="43.100522" lon="-0.046868"><ele>419.75</ele><time>2010-10-10T14:34:48Z</time></trkpt><trkpt lat="43.100212" lon="-0.047513"><ele>420.71</ele><time>2010-10-10T14:34:53Z</time></trkpt><trkpt lat="43.100180" lon="-0.047652"><ele>420.71</ele><time>2010-10-10T14:34:54Z</time></trkpt><trkpt lat="43.100151" lon="-0.047775"><ele>421.19</ele><time>2010-10-10T14:34:55Z</time></trkpt><trkpt lat="43.100127" lon="-0.047876"><ele>421.19</ele><time>2010-10-10T14:34:56Z</time></trkpt><trkpt lat="43.100107" lon="-0.047961"><ele>421.19</ele><time>2010-10-10T14:34:57Z</time></trkpt><trkpt lat="43.100090" lon="-0.048035"><ele>421.19</ele><time>2010-10-10T14:34:58Z</time></trkpt><trkpt lat="43.100071" lon="-0.048113"><ele>421.68</ele><time>2010-10-10T14:34:59Z</time></trkpt><trkpt lat="43.100050" lon="-0.048220"><ele>421.68</ele><time>2010-10-10T14:35:00Z</time></trkpt><trkpt lat="43.100044" lon="-0.048299"><ele>422.16</ele><time>2010-10-10T14:35:01Z</time></trkpt><trkpt lat="43.100036" lon="-0.048394"><ele>422.16</ele><time>2010-10-10T14:35:02Z</time></trkpt><trkpt lat="43.100027" lon="-0.048508"><ele>422.16</ele><time>2010-10-10T14:35:03Z</time></trkpt><trkpt lat="43.100017" lon="-0.048634"><ele>422.16</ele><time>2010-10-10T14:35:04Z</time></trkpt><trkpt lat="43.099909" lon="-0.049987"><ele>418.79</ele><time>2010-10-10T14:35:13Z</time></trkpt><trkpt lat="43.099881" lon="-0.050483"><ele>417.83</ele><time>2010-10-10T14:35:16Z</time></trkpt><trkpt lat="43.099924" lon="-0.051970"><ele>413.02</ele><time>2010-10-10T14:35:25Z</time></trkpt><trkpt lat="43.099944" lon="-0.052039"><ele>412.06</ele><time>2010-10-10T14:35:26Z</time></trkpt><trkpt lat="43.100052" lon="-0.052468"><ele>408.70</ele><time>2010-10-10T14:35:32Z</time></trkpt><trkpt lat="43.100052" lon="-0.052829"><ele>407.74</ele><time>2010-10-10T14:35:41Z</time></trkpt><trkpt lat="43.100052" lon="-0.052908"><ele>407.74</ele><time>2010-10-10T14:35:42Z</time></trkpt><trkpt lat="43.100217" lon="-0.054018"><ele>408.70</ele><time>2010-10-10T14:35:52Z</time></trkpt><trkpt lat="43.100269" lon="-0.054290"><ele>408.70</ele><time>2010-10-10T14:35:54Z</time></trkpt><trkpt lat="43.100702" lon="-0.056351"><ele>408.22</ele><time>2010-10-10T14:36:08Z</time></trkpt><trkpt lat="43.101217" lon="-0.058178"><ele>409.18</ele><time>2010-10-10T14:36:20Z</time></trkpt><trkpt lat="43.101427" lon="-0.058539"><ele>409.18</ele><time>2010-10-10T14:36:23Z</time></trkpt><trkpt lat="43.101502" lon="-0.058652"><ele>409.18</ele><time>2010-10-10T14:36:24Z</time></trkpt><trkpt lat="43.101597" lon="-0.058739"><ele>409.18</ele><time>2010-10-10T14:36:25Z</time></trkpt><trkpt lat="43.101694" lon="-0.058822"><ele>409.18</ele><time>2010-10-10T14:36:26Z</time></trkpt><trkpt lat="43.101792" lon="-0.058906"><ele>409.66</ele><time>2010-10-10T14:36:27Z</time></trkpt><trkpt lat="43.101907" lon="-0.058968"><ele>409.66</ele><time>2010-10-10T14:36:28Z</time></trkpt><trkpt lat="43.103180" lon="-0.059730"><ele>415.43</ele><time>2010-10-10T14:36:39Z</time></trkpt><trkpt lat="43.104251" lon="-0.060799"><ele>415.43</ele><time>2010-10-10T14:36:49Z</time></trkpt><trkpt lat="43.105461" lon="-0.061903"><ele>412.54</ele><time>2010-10-10T14:37:00Z</time></trkpt><trkpt lat="43.106107" lon="-0.063092"><ele>411.58</ele><time>2010-10-10T14:37:08Z</time></trkpt><trkpt lat="43.106893" lon="-0.064937"><ele>408.70</ele><time>2010-10-10T14:37:18Z</time></trkpt><trkpt lat="43.107778" lon="-0.067015"><ele>413.50</ele><time>2010-10-10T14:37:29Z</time></trkpt><trkpt lat="43.108639" lon="-0.068688"><ele>418.31</ele><time>2010-10-10T14:37:40Z</time></trkpt><trkpt lat="43.109696" lon="-0.070197"><ele>412.54</ele><time>2010-10-10T14:37:50Z</time></trkpt><trkpt lat="43.110329" lon="-0.070892"><ele>411.58</ele><time>2010-10-10T14:37:55Z</time></trkpt><trkpt lat="43.110417" lon="-0.071069"><ele>411.58</ele><time>2010-10-10T14:37:56Z</time></trkpt><trkpt lat="43.110499" lon="-0.071243"><ele>411.58</ele><time>2010-10-10T14:37:57Z</time></trkpt><trkpt lat="43.111280" lon="-0.073034"><ele>414.95</ele><time>2010-10-10T14:38:07Z</time></trkpt><trkpt lat="43.111381" lon="-0.073169"><ele>415.91</ele><time>2010-10-10T14:38:08Z</time></trkpt><trkpt lat="43.111483" lon="-0.073306"><ele>416.39</ele><time>2010-10-10T14:38:09Z</time></trkpt><trkpt lat="43.112260" lon="-0.073971"><ele>419.27</ele><time>2010-10-10T14:38:15Z</time></trkpt><trkpt lat="43.112882" lon="-0.074276"><ele>420.23</ele><time>2010-10-10T14:38:19Z</time></trkpt><trkpt lat="43.113049" lon="-0.074327"><ele>420.71</ele><time>2010-10-10T14:38:20Z</time></trkpt><trkpt lat="43.113223" lon="-0.074341"><ele>420.71</ele><time>2010-10-10T14:38:21Z</time></trkpt><trkpt lat="43.115102" lon="-0.074422"><ele>417.83</ele><time>2010-10-10T14:38:31Z</time></trkpt><trkpt lat="43.117270" lon="-0.074630"><ele>412.54</ele><time>2010-10-10T14:38:43Z</time></trkpt><trkpt lat="43.118866" lon="-0.074513"><ele>413.98</ele><time>2010-10-10T14:38:52Z</time></trkpt><trkpt lat="43.120460" lon="-0.074326"><ele>415.91</ele><time>2010-10-10T14:39:01Z</time></trkpt><trkpt lat="43.120638" lon="-0.074390"><ele>416.39</ele><time>2010-10-10T14:39:02Z</time></trkpt><trkpt lat="43.120814" lon="-0.074454"><ele>417.35</ele><time>2010-10-10T14:39:03Z</time></trkpt><trkpt lat="43.120978" lon="-0.074548"><ele>417.83</ele><time>2010-10-10T14:39:04Z</time></trkpt><trkpt lat="43.121143" lon="-0.074644"><ele>418.79</ele><time>2010-10-10T14:39:05Z</time></trkpt><trkpt lat="43.121306" lon="-0.074740"><ele>419.75</ele><time>2010-10-10T14:39:06Z</time></trkpt><trkpt lat="43.121450" lon="-0.074878"><ele>420.71</ele><time>2010-10-10T14:39:07Z</time></trkpt><trkpt lat="43.121589" lon="-0.075029"><ele>421.68</ele><time>2010-10-10T14:39:08Z</time></trkpt><trkpt lat="43.121728" lon="-0.075178"><ele>423.12</ele><time>2010-10-10T14:39:09Z</time></trkpt><trkpt lat="43.122513" lon="-0.076463"><ele>428.89</ele><time>2010-10-10T14:39:16Z</time></trkpt><trkpt lat="43.123448" lon="-0.077722"><ele>431.77</ele><time>2010-10-10T14:39:23Z</time></trkpt><trkpt lat="43.123984" lon="-0.078093"><ele>432.25</ele><time>2010-10-10T14:39:26Z</time></trkpt><trkpt lat="43.124179" lon="-0.078174"><ele>432.73</ele><time>2010-10-10T14:39:27Z</time></trkpt><trkpt lat="43.124382" lon="-0.078230"><ele>432.73</ele><time>2010-10-10T14:39:28Z</time></trkpt><trkpt lat="43.124583" lon="-0.078279"><ele>432.73</ele><time>2010-10-10T14:39:29Z</time></trkpt><trkpt lat="43.124789" lon="-0.078292"><ele>432.73</ele><time>2010-10-10T14:39:30Z</time></trkpt><trkpt lat="43.124995" lon="-0.078305"><ele>433.21</ele><time>2010-10-10T14:39:31Z</time></trkpt><trkpt lat="43.125194" lon="-0.078317"><ele>433.21</ele><time>2010-10-10T14:39:32Z</time></trkpt><trkpt lat="43.126560" lon="-0.078524"><ele>432.25</ele><time>2010-10-10T14:39:39Z</time></trkpt><trkpt lat="43.128754" lon="-0.079240"><ele>426.96</ele><time>2010-10-10T14:39:51Z</time></trkpt><trkpt lat="43.130480" lon="-0.079768"><ele>424.08</ele><time>2010-10-10T14:40:02Z</time></trkpt><trkpt lat="43.132286" lon="-0.080368"><ele>419.75</ele><time>2010-10-10T14:40:12Z</time></trkpt><trkpt lat="43.132605" lon="-0.080533"><ele>419.27</ele><time>2010-10-10T14:40:14Z</time></trkpt><trkpt lat="43.132759" lon="-0.080617"><ele>419.27</ele><time>2010-10-10T14:40:15Z</time></trkpt><trkpt lat="43.134277" lon="-0.081865"><ele>414.95</ele><time>2010-10-10T14:40:26Z</time></trkpt><trkpt lat="43.135318" lon="-0.082528"><ele>413.98</ele><time>2010-10-10T14:40:34Z</time></trkpt><trkpt lat="43.135416" lon="-0.082642"><ele>413.50</ele><time>2010-10-10T14:40:35Z</time></trkpt><trkpt lat="43.136527" lon="-0.083963"><ele>408.22</ele><time>2010-10-10T14:40:44Z</time></trkpt><trkpt lat="43.138612" lon="-0.086537"><ele>403.41</ele><time>2010-10-10T14:40:58Z</time></trkpt><trkpt lat="43.141264" lon="-0.089787"><ele>401.49</ele><time>2010-10-10T14:41:15Z</time></trkpt><trkpt lat="43.143690" lon="-0.092530"><ele>401.49</ele><time>2010-10-10T14:41:30Z</time></trkpt><trkpt lat="43.146050" lon="-0.095112"><ele>398.12</ele><time>2010-10-10T14:41:45Z</time></trkpt><trkpt lat="43.147671" lon="-0.096901"><ele>396.68</ele><time>2010-10-10T14:41:57Z</time></trkpt><trkpt lat="43.149274" lon="-0.098398"><ele>395.72</ele><time>2010-10-10T14:42:09Z</time></trkpt><trkpt lat="43.151209" lon="-0.099938"><ele>392.36</ele><time>2010-10-10T14:42:21Z</time></trkpt><trkpt lat="43.152828" lon="-0.101245"><ele>393.32</ele><time>2010-10-10T14:42:32Z</time></trkpt><trkpt lat="43.154648" lon="-0.102695"><ele>392.84</ele><time>2010-10-10T14:42:44Z</time></trkpt><trkpt lat="43.156864" lon="-0.104450"><ele>389.95</ele><time>2010-10-10T14:42:57Z</time></trkpt><trkpt lat="43.159812" lon="-0.106817"><ele>385.63</ele><time>2010-10-10T14:43:14Z</time></trkpt><trkpt lat="43.162525" lon="-0.108977"><ele>380.82</ele><time>2010-10-10T14:43:30Z</time></trkpt><trkpt lat="43.162976" lon="-0.109286"><ele>379.86</ele><time>2010-10-10T14:43:33Z</time></trkpt><trkpt lat="43.163140" lon="-0.109359"><ele>379.38</ele><time>2010-10-10T14:43:34Z</time></trkpt><trkpt lat="43.165333" lon="-0.110122"><ele>374.57</ele><time>2010-10-10T14:43:46Z</time></trkpt><trkpt lat="43.168147" lon="-0.111150"><ele>373.13</ele><time>2010-10-10T14:44:01Z</time></trkpt><trkpt lat="43.170178" lon="-0.112152"><ele>371.21</ele><time>2010-10-10T14:44:12Z</time></trkpt><trkpt lat="43.171450" lon="-0.113505"><ele>369.28</ele><time>2010-10-10T14:44:20Z</time></trkpt><trkpt lat="43.172399" lon="-0.115369"><ele>368.80</ele><time>2010-10-10T14:44:28Z</time></trkpt><trkpt lat="43.173722" lon="-0.117986"><ele>370.73</ele><time>2010-10-10T14:44:39Z</time></trkpt><trkpt lat="43.174909" lon="-0.119355"><ele>367.84</ele><time>2010-10-10T14:44:46Z</time></trkpt><trkpt lat="43.176470" lon="-0.120243"><ele>370.73</ele><time>2010-10-10T14:44:54Z</time></trkpt><trkpt lat="43.179195" lon="-0.121038"><ele>371.21</ele><time>2010-10-10T14:45:07Z</time></trkpt><trkpt lat="43.182064" lon="-0.121880"><ele>368.80</ele><time>2010-10-10T14:45:19Z</time></trkpt><trkpt lat="43.185485" lon="-0.122887"><ele>367.84</ele><time>2010-10-10T14:45:33Z</time></trkpt><trkpt lat="43.187920" lon="-0.123619"><ele>368.32</ele><time>2010-10-10T14:45:44Z</time></trkpt><trkpt lat="43.189332" lon="-0.124371"><ele>365.44</ele><time>2010-10-10T14:45:52Z</time></trkpt><trkpt lat="43.190218" lon="-0.124969"><ele>364.00</ele><time>2010-10-10T14:45:59Z</time></trkpt><trkpt lat="43.190266" lon="-0.124921"><ele>363.52</ele><time>2010-10-10T14:46:00Z</time></trkpt><trkpt lat="43.190479" lon="-0.124949"><ele>363.52</ele><time>2010-10-10T14:46:02Z</time></trkpt><trkpt lat="43.190489" lon="-0.125011"><ele>363.52</ele><time>2010-10-10T14:46:03Z</time></trkpt><trkpt lat="43.190502" lon="-0.125088"><ele>363.52</ele><time>2010-10-10T14:46:04Z</time></trkpt><trkpt lat="43.190607" lon="-0.125253"><ele>363.52</ele><time>2010-10-10T14:46:06Z</time></trkpt><trkpt lat="43.190677" lon="-0.125307"><ele>363.52</ele><time>2010-10-10T14:46:07Z</time></trkpt><trkpt lat="43.191448" lon="-0.125901"><ele>363.04</ele><time>2010-10-10T14:46:14Z</time></trkpt><trkpt lat="43.193236" lon="-0.127280"><ele>360.63</ele><time>2010-10-10T14:46:25Z</time></trkpt><trkpt lat="43.195636" lon="-0.128984"><ele>359.19</ele><time>2010-10-10T14:46:38Z</time></trkpt><trkpt lat="43.197553" lon="-0.129647"><ele>357.75</ele><time>2010-10-10T14:46:47Z</time></trkpt><trkpt lat="43.199911" lon="-0.130411"><ele>355.34</ele><time>2010-10-10T14:46:58Z</time></trkpt><trkpt lat="43.202124" lon="-0.131360"><ele>353.90</ele><time>2010-10-10T14:47:08Z</time></trkpt><trkpt lat="43.204552" lon="-0.132657"><ele>351.02</ele><time>2010-10-10T14:47:19Z</time></trkpt><trkpt lat="43.206663" lon="-0.134220"><ele>347.65</ele><time>2010-10-10T14:47:29Z</time></trkpt><trkpt lat="43.208659" lon="-0.135702"><ele>344.77</ele><time>2010-10-10T14:47:39Z</time></trkpt><trkpt lat="43.210677" lon="-0.137546"><ele>340.44</ele><time>2010-10-10T14:47:50Z</time></trkpt><trkpt lat="43.213642" lon="-0.140597"><ele>338.04</ele><time>2010-10-10T14:48:06Z</time></trkpt><trkpt lat="43.215573" lon="-0.141924"><ele>337.56</ele><time>2010-10-10T14:48:15Z</time></trkpt><trkpt lat="43.217719" lon="-0.143275"><ele>335.64</ele><time>2010-10-10T14:48:25Z</time></trkpt><trkpt lat="43.219605" lon="-0.144504"><ele>334.68</ele><time>2010-10-10T14:48:34Z</time></trkpt><trkpt lat="43.221729" lon="-0.146037"><ele>331.31</ele><time>2010-10-10T14:48:44Z</time></trkpt><trkpt lat="43.224018" lon="-0.147699"><ele>328.91</ele><time>2010-10-10T14:48:55Z</time></trkpt><trkpt lat="43.226576" lon="-0.149574"><ele>326.50</ele><time>2010-10-10T14:49:07Z</time></trkpt><trkpt lat="43.229486" lon="-0.151400"><ele>325.06</ele><time>2010-10-10T14:49:20Z</time></trkpt><trkpt lat="43.231218" lon="-0.152142"><ele>323.62</ele><time>2010-10-10T14:49:29Z</time></trkpt><trkpt lat="43.231802" lon="-0.152337"><ele>321.70</ele><time>2010-10-10T14:49:34Z</time></trkpt><trkpt lat="43.231840" lon="-0.152294"><ele>321.70</ele><time>2010-10-10T14:49:35Z</time></trkpt><trkpt lat="43.231938" lon="-0.152271"><ele>321.70</ele><time>2010-10-10T14:49:36Z</time></trkpt><trkpt lat="43.231988" lon="-0.152320"><ele>321.70</ele><time>2010-10-10T14:49:37Z</time></trkpt><trkpt lat="43.232044" lon="-0.152377"><ele>321.70</ele><time>2010-10-10T14:49:38Z</time></trkpt><trkpt lat="43.232090" lon="-0.152533"><ele>321.70</ele><time>2010-10-10T14:49:39Z</time></trkpt><trkpt lat="43.232168" lon="-0.152564"><ele>321.22</ele><time>2010-10-10T14:49:40Z</time></trkpt><trkpt lat="43.232261" lon="-0.152601"><ele>321.22</ele><time>2010-10-10T14:49:41Z</time></trkpt><trkpt lat="43.232367" lon="-0.152644"><ele>320.74</ele><time>2010-10-10T14:49:42Z</time></trkpt><trkpt lat="43.232486" lon="-0.152691"><ele>320.74</ele><time>2010-10-10T14:49:43Z</time></trkpt><trkpt lat="43.232617" lon="-0.152744"><ele>320.26</ele><time>2010-10-10T14:49:44Z</time></trkpt><trkpt lat="43.232756" lon="-0.152810"><ele>320.26</ele><time>2010-10-10T14:49:45Z</time></trkpt><trkpt lat="43.234005" lon="-0.153699"><ele>317.85</ele><time>2010-10-10T14:49:53Z</time></trkpt><trkpt lat="43.235133" lon="-0.155101"><ele>315.93</ele><time>2010-10-10T14:50:01Z</time></trkpt><trkpt lat="43.237093" lon="-0.158269"><ele>312.09</ele><time>2010-10-10T14:50:16Z</time></trkpt><trkpt lat="43.238646" lon="-0.160732"><ele>303.91</ele><time>2010-10-10T14:50:28Z</time></trkpt><trkpt lat="43.239835" lon="-0.162105"><ele>300.07</ele><time>2010-10-10T14:50:36Z</time></trkpt><trkpt lat="43.241362" lon="-0.162968"><ele>298.63</ele><time>2010-10-10T14:50:45Z</time></trkpt><trkpt lat="43.242831" lon="-0.163217"><ele>299.11</ele><time>2010-10-10T14:50:54Z</time></trkpt><trkpt lat="43.243708" lon="-0.163328"><ele>299.59</ele><time>2010-10-10T14:51:01Z</time></trkpt><trkpt lat="43.244359" lon="-0.163372"><ele>301.03</ele><time>2010-10-10T14:51:09Z</time></trkpt><trkpt lat="43.244406" lon="-0.163326"><ele>301.03</ele><time>2010-10-10T14:51:10Z</time></trkpt><trkpt lat="43.244460" lon="-0.163308"><ele>301.03</ele><time>2010-10-10T14:51:11Z</time></trkpt><trkpt lat="43.244520" lon="-0.163307"><ele>301.03</ele><time>2010-10-10T14:51:12Z</time></trkpt><trkpt lat="43.244564" lon="-0.163352"><ele>301.03</ele><time>2010-10-10T14:51:13Z</time></trkpt><trkpt lat="43.244591" lon="-0.163507"><ele>301.51</ele><time>2010-10-10T14:51:14Z</time></trkpt><trkpt lat="43.244656" lon="-0.163540"><ele>301.51</ele><time>2010-10-10T14:51:15Z</time></trkpt><trkpt lat="43.244736" lon="-0.163580"><ele>301.03</ele><time>2010-10-10T14:51:16Z</time></trkpt><trkpt lat="43.244824" lon="-0.163624"><ele>301.03</ele><time>2010-10-10T14:51:17Z</time></trkpt><trkpt lat="43.245751" lon="-0.164147"><ele>300.55</ele><time>2010-10-10T14:51:25Z</time></trkpt><trkpt lat="43.247027" lon="-0.165436"><ele>299.11</ele><time>2010-10-10T14:51:35Z</time></trkpt><trkpt lat="43.247968" lon="-0.167067"><ele>298.15</ele><time>2010-10-10T14:51:44Z</time></trkpt><trkpt lat="43.248633" lon="-0.169195"><ele>295.74</ele><time>2010-10-10T14:51:53Z</time></trkpt><trkpt lat="43.249499" lon="-0.171602"><ele>293.34</ele><time>2010-10-10T14:52:03Z</time></trkpt><trkpt lat="43.250578" lon="-0.173030"><ele>293.82</ele><time>2010-10-10T14:52:11Z</time></trkpt><trkpt lat="43.252180" lon="-0.174239"><ele>293.34</ele><time>2010-10-10T14:52:21Z</time></trkpt><trkpt lat="43.253811" lon="-0.175344"><ele>291.90</ele><time>2010-10-10T14:52:31Z</time></trkpt><trkpt lat="43.255667" lon="-0.176646"><ele>291.90</ele><time>2010-10-10T14:52:43Z</time></trkpt><trkpt lat="43.257675" lon="-0.177967"><ele>292.38</ele><time>2010-10-10T14:52:55Z</time></trkpt><trkpt lat="43.259480" lon="-0.179174"><ele>290.46</ele><time>2010-10-10T14:53:06Z</time></trkpt><trkpt lat="43.259625" lon="-0.179287"><ele>290.46</ele><time>2010-10-10T14:53:07Z</time></trkpt><trkpt lat="43.259770" lon="-0.179387"><ele>290.46</ele><time>2010-10-10T14:53:08Z</time></trkpt><trkpt lat="43.260894" lon="-0.180153"><ele>290.46</ele><time>2010-10-10T14:53:17Z</time></trkpt><trkpt lat="43.261825" lon="-0.180766"><ele>290.94</ele><time>2010-10-10T14:53:26Z</time></trkpt><trkpt lat="43.261914" lon="-0.180824"><ele>290.94</ele><time>2010-10-10T14:53:27Z</time></trkpt><trkpt lat="43.262000" lon="-0.180880"><ele>291.42</ele><time>2010-10-10T14:53:28Z</time></trkpt><trkpt lat="43.263011" lon="-0.181590"><ele>292.86</ele><time>2010-10-10T14:53:39Z</time></trkpt><trkpt lat="43.263860" lon="-0.182212"><ele>296.22</ele><time>2010-10-10T14:53:49Z</time></trkpt><trkpt lat="43.263923" lon="-0.182257"><ele>296.70</ele><time>2010-10-10T14:53:50Z</time></trkpt><trkpt lat="43.263976" lon="-0.182295"><ele>296.70</ele><time>2010-10-10T14:53:51Z</time></trkpt><trkpt lat="43.264033" lon="-0.182304"><ele>297.18</ele><time>2010-10-10T14:53:52Z</time></trkpt><trkpt lat="43.264084" lon="-0.182295"><ele>297.67</ele><time>2010-10-10T14:53:53Z</time></trkpt><trkpt lat="43.264084" lon="-0.182295"><ele>298.15</ele><time>2010-10-10T14:53:54Z</time></trkpt><trkpt lat="43.264204" lon="-0.182350"><ele>298.15</ele><time>2010-10-10T14:53:55Z</time></trkpt><trkpt lat="43.264226" lon="-0.182413"><ele>298.63</ele><time>2010-10-10T14:53:56Z</time></trkpt><trkpt lat="43.264249" lon="-0.182484"><ele>299.11</ele><time>2010-10-10T14:53:57Z</time></trkpt><trkpt lat="43.264277" lon="-0.182569"><ele>299.11</ele><time>2010-10-10T14:53:58Z</time></trkpt><trkpt lat="43.264309" lon="-0.182664"><ele>299.11</ele><time>2010-10-10T14:53:59Z</time></trkpt><trkpt lat="43.264343" lon="-0.182766"><ele>299.11</ele><time>2010-10-10T14:54:00Z</time></trkpt><trkpt lat="43.264379" lon="-0.182874"><ele>299.11</ele><time>2010-10-10T14:54:01Z</time></trkpt><trkpt lat="43.264418" lon="-0.182991"><ele>299.11</ele><time>2010-10-10T14:54:02Z</time></trkpt><trkpt lat="43.264456" lon="-0.183114"><ele>299.11</ele><time>2010-10-10T14:54:03Z</time></trkpt><trkpt lat="43.264495" lon="-0.183239"><ele>299.11</ele><time>2010-10-10T14:54:04Z</time></trkpt><trkpt lat="43.264534" lon="-0.183367"><ele>299.11</ele><time>2010-10-10T14:54:05Z</time></trkpt><trkpt lat="43.264575" lon="-0.183501"><ele>298.63</ele><time>2010-10-10T14:54:06Z</time></trkpt><trkpt lat="43.264617" lon="-0.183637"><ele>298.63</ele><time>2010-10-10T14:54:07Z</time></trkpt><trkpt lat="43.264655" lon="-0.183761"><ele>298.63</ele><time>2010-10-10T14:54:08Z</time></trkpt><trkpt lat="43.264691" lon="-0.183877"><ele>298.15</ele><time>2010-10-10T14:54:09Z</time></trkpt><trkpt lat="43.264733" lon="-0.184013"><ele>297.67</ele><time>2010-10-10T14:54:10Z</time></trkpt><trkpt lat="43.264781" lon="-0.184170"><ele>297.18</ele><time>2010-10-10T14:54:11Z</time></trkpt><trkpt lat="43.265399" lon="-0.186052"><ele>293.34</ele><time>2010-10-10T14:54:23Z</time></trkpt><trkpt lat="43.265842" lon="-0.187424"><ele>291.90</ele><time>2010-10-10T14:54:34Z</time></trkpt><trkpt lat="43.265914" lon="-0.187646"><ele>291.42</ele><time>2010-10-10T14:54:37Z</time></trkpt><trkpt lat="43.265931" lon="-0.187697"><ele>291.42</ele><time>2010-10-10T14:54:38Z</time></trkpt><trkpt lat="43.265944" lon="-0.187739"><ele>291.42</ele><time>2010-10-10T14:54:39Z</time></trkpt><trkpt lat="43.265956" lon="-0.187776"><ele>291.42</ele><time>2010-10-10T14:54:40Z</time></trkpt><trkpt lat="43.266008" lon="-0.187812"><ele>290.94</ele><time>2010-10-10T14:54:41Z</time></trkpt><trkpt lat="43.266035" lon="-0.187821"><ele>290.94</ele><time>2010-10-10T14:54:42Z</time></trkpt><trkpt lat="43.266035" lon="-0.187821"><ele>290.94</ele><time>2010-10-10T14:54:43Z</time></trkpt><trkpt lat="43.266137" lon="-0.187770"><ele>290.94</ele><time>2010-10-10T14:54:44Z</time></trkpt><trkpt lat="43.266181" lon="-0.187702"><ele>290.46</ele><time>2010-10-10T14:54:45Z</time></trkpt><trkpt lat="43.266229" lon="-0.187627"><ele>289.97</ele><time>2010-10-10T14:54:46Z</time></trkpt><trkpt lat="43.266285" lon="-0.187539"><ele>289.49</ele><time>2010-10-10T14:54:47Z</time></trkpt><trkpt lat="43.266339" lon="-0.187455"><ele>289.01</ele><time>2010-10-10T14:54:48Z</time></trkpt><trkpt lat="43.266821" lon="-0.186769"><ele>288.53</ele><time>2010-10-10T14:54:58Z</time></trkpt><trkpt lat="43.266956" lon="-0.186556"><ele>288.53</ele><time>2010-10-10T14:55:00Z</time></trkpt><trkpt lat="43.267583" lon="-0.185492"><ele>289.01</ele><time>2010-10-10T14:55:10Z</time></trkpt><trkpt lat="43.268026" lon="-0.184789"><ele>290.94</ele><time>2010-10-10T14:55:17Z</time></trkpt><trkpt lat="43.268093" lon="-0.184700"><ele>291.42</ele><time>2010-10-10T14:55:18Z</time></trkpt><trkpt lat="43.268245" lon="-0.184575"><ele>292.38</ele><time>2010-10-10T14:55:20Z</time></trkpt><trkpt lat="43.268330" lon="-0.184533"><ele>292.86</ele><time>2010-10-10T14:55:21Z</time></trkpt><trkpt lat="43.268416" lon="-0.184492"><ele>293.34</ele><time>2010-10-10T14:55:22Z</time></trkpt><trkpt lat="43.268513" lon="-0.184476"><ele>293.82</ele><time>2010-10-10T14:55:23Z</time></trkpt><trkpt lat="43.268616" lon="-0.184459"><ele>294.30</ele><time>2010-10-10T14:55:24Z</time></trkpt><trkpt lat="43.268720" lon="-0.184463"><ele>294.78</ele><time>2010-10-10T14:55:25Z</time></trkpt><trkpt lat="43.268825" lon="-0.184489"><ele>295.26</ele><time>2010-10-10T14:55:26Z</time></trkpt><trkpt lat="43.269356" lon="-0.184611"><ele>296.70</ele><time>2010-10-10T14:55:31Z</time></trkpt><trkpt lat="43.269463" lon="-0.184630"><ele>297.18</ele><time>2010-10-10T14:55:32Z</time></trkpt><trkpt lat="43.269571" lon="-0.184650"><ele>297.67</ele><time>2010-10-10T14:55:33Z</time></trkpt><trkpt lat="43.269679" lon="-0.184677"><ele>298.15</ele><time>2010-10-10T14:55:34Z</time></trkpt><trkpt lat="43.269778" lon="-0.184727"><ele>298.63</ele><time>2010-10-10T14:55:35Z</time></trkpt><trkpt lat="43.269858" lon="-0.184783"><ele>299.59</ele><time>2010-10-10T14:55:36Z</time></trkpt><trkpt lat="43.269928" lon="-0.184853"><ele>300.07</ele><time>2010-10-10T14:55:37Z</time></trkpt><trkpt lat="43.270000" lon="-0.184925"><ele>301.03</ele><time>2010-10-10T14:55:38Z</time></trkpt><trkpt lat="43.270076" lon="-0.185001"><ele>301.99</ele><time>2010-10-10T14:55:39Z</time></trkpt><trkpt lat="43.270324" lon="-0.185243"><ele>305.36</ele><time>2010-10-10T14:55:42Z</time></trkpt><trkpt lat="43.270523" lon="-0.185396"><ele>307.28</ele><time>2010-10-10T14:55:44Z</time></trkpt><trkpt lat="43.270978" lon="-0.185725"><ele>310.16</ele><time>2010-10-10T14:55:48Z</time></trkpt><trkpt lat="43.271415" lon="-0.185985"><ele>312.57</ele><time>2010-10-10T14:55:52Z</time></trkpt><trkpt lat="43.272326" lon="-0.186526"><ele>317.85</ele><time>2010-10-10T14:56:00Z</time></trkpt><trkpt lat="43.272921" lon="-0.186743"><ele>321.22</ele><time>2010-10-10T14:56:05Z</time></trkpt><trkpt lat="43.273250" lon="-0.186917"><ele>324.10</ele><time>2010-10-10T14:56:08Z</time></trkpt><trkpt lat="43.273354" lon="-0.186979"><ele>325.06</ele><time>2010-10-10T14:56:09Z</time></trkpt><trkpt lat="43.273455" lon="-0.187055"><ele>325.54</ele><time>2010-10-10T14:56:10Z</time></trkpt><trkpt lat="43.274191" lon="-0.187955"><ele>332.27</ele><time>2010-10-10T14:56:18Z</time></trkpt><trkpt lat="43.274273" lon="-0.188004"><ele>332.75</ele><time>2010-10-10T14:56:19Z</time></trkpt><trkpt lat="43.274343" lon="-0.188040"><ele>333.23</ele><time>2010-10-10T14:56:20Z</time></trkpt><trkpt lat="43.274397" lon="-0.188046"><ele>334.20</ele><time>2010-10-10T14:56:21Z</time></trkpt><trkpt lat="43.274439" lon="-0.188029"><ele>334.68</ele><time>2010-10-10T14:56:22Z</time></trkpt><trkpt lat="43.274478" lon="-0.188014"><ele>335.16</ele><time>2010-10-10T14:56:23Z</time></trkpt><trkpt lat="43.274517" lon="-0.187998"><ele>335.64</ele><time>2010-10-10T14:56:24Z</time></trkpt><trkpt lat="43.274561" lon="-0.187981"><ele>335.64</ele><time>2010-10-10T14:56:25Z</time></trkpt><trkpt lat="43.274605" lon="-0.187905"><ele>336.12</ele><time>2010-10-10T14:56:26Z</time></trkpt><trkpt lat="43.274628" lon="-0.187813"><ele>336.60</ele><time>2010-10-10T14:56:27Z</time></trkpt><trkpt lat="43.274632" lon="-0.187706"><ele>336.60</ele><time>2010-10-10T14:56:28Z</time></trkpt><trkpt lat="43.274632" lon="-0.187593"><ele>337.08</ele><time>2010-10-10T14:56:29Z</time></trkpt><trkpt lat="43.274579" lon="-0.187484"><ele>337.08</ele><time>2010-10-10T14:56:30Z</time></trkpt><trkpt lat="43.274522" lon="-0.187377"><ele>337.56</ele><time>2010-10-10T14:56:31Z</time></trkpt><trkpt lat="43.274461" lon="-0.187263"><ele>338.04</ele><time>2010-10-10T14:56:32Z</time></trkpt><trkpt lat="43.273925" lon="-0.186193"><ele>341.89</ele><time>2010-10-10T14:56:40Z</time></trkpt><trkpt lat="43.273925" lon="-0.186193"><ele>342.37</ele><time>2010-10-10T14:56:41Z</time></trkpt><trkpt lat="43.273497" lon="-0.184493"><ele>351.50</ele><time>2010-10-10T14:56:51Z</time></trkpt><trkpt lat="43.273476" lon="-0.184395"><ele>352.94</ele><time>2010-10-10T14:56:52Z</time></trkpt><trkpt lat="43.273503" lon="-0.184290"><ele>353.90</ele><time>2010-10-10T14:56:53Z</time></trkpt><trkpt lat="43.273529" lon="-0.184184"><ele>354.86</ele><time>2010-10-10T14:56:54Z</time></trkpt><trkpt lat="43.273557" lon="-0.184073"><ele>355.34</ele><time>2010-10-10T14:56:55Z</time></trkpt><trkpt lat="43.273615" lon="-0.183965"><ele>355.83</ele><time>2010-10-10T14:56:56Z</time></trkpt><trkpt lat="43.274284" lon="-0.182775"><ele>360.63</ele><time>2010-10-10T14:57:05Z</time></trkpt><trkpt lat="43.274517" lon="-0.182394"><ele>361.11</ele><time>2010-10-10T14:57:08Z</time></trkpt><trkpt lat="43.274630" lon="-0.182213"><ele>361.59</ele><time>2010-10-10T14:57:10Z</time></trkpt><trkpt lat="43.274669" lon="-0.182151"><ele>361.59</ele><time>2010-10-10T14:57:11Z</time></trkpt><trkpt lat="43.274795" lon="-0.182055"><ele>362.07</ele><time>2010-10-10T14:57:12Z</time></trkpt><trkpt lat="43.274838" lon="-0.182120"><ele>362.55</ele><time>2010-10-10T14:57:13Z</time></trkpt><trkpt lat="43.274889" lon="-0.182196"><ele>363.04</ele><time>2010-10-10T14:57:14Z</time></trkpt><trkpt lat="43.274941" lon="-0.182264"><ele>363.04</ele><time>2010-10-10T14:57:15Z</time></trkpt><trkpt lat="43.275030" lon="-0.182294"><ele>363.52</ele><time>2010-10-10T14:57:16Z</time></trkpt><trkpt lat="43.275129" lon="-0.182327"><ele>363.52</ele><time>2010-10-10T14:57:17Z</time></trkpt><trkpt lat="43.275237" lon="-0.182363"><ele>364.00</ele><time>2010-10-10T14:57:18Z</time></trkpt><trkpt lat="43.275724" lon="-0.182532"><ele>364.00</ele><time>2010-10-10T14:57:22Z</time></trkpt><trkpt lat="43.275852" lon="-0.182577"><ele>363.52</ele><time>2010-10-10T14:57:23Z</time></trkpt><trkpt lat="43.276374" lon="-0.182826"><ele>362.55</ele><time>2010-10-10T14:57:28Z</time></trkpt><trkpt lat="43.276548" lon="-0.182916"><ele>362.07</ele><time>2010-10-10T14:57:30Z</time></trkpt><trkpt lat="43.277356" lon="-0.183440"><ele>359.67</ele><time>2010-10-10T14:57:37Z</time></trkpt><trkpt lat="43.278214" lon="-0.184435"><ele>358.23</ele><time>2010-10-10T14:57:45Z</time></trkpt><trkpt lat="43.278306" lon="-0.184584"><ele>358.23</ele><time>2010-10-10T14:57:46Z</time></trkpt><trkpt lat="43.279228" lon="-0.186324"><ele>355.83</ele><time>2010-10-10T14:57:56Z</time></trkpt><trkpt lat="43.280194" lon="-0.188171"><ele>356.79</ele><time>2010-10-10T14:58:06Z</time></trkpt><trkpt lat="43.281450" lon="-0.190100"><ele>358.23</ele><time>2010-10-10T14:58:18Z</time></trkpt><trkpt lat="43.282526" lon="-0.191874"><ele>358.23</ele><time>2010-10-10T14:58:28Z</time></trkpt><trkpt lat="43.283847" lon="-0.193732"><ele>357.75</ele><time>2010-10-10T14:58:39Z</time></trkpt><trkpt lat="43.284460" lon="-0.194542"><ele>356.31</ele><time>2010-10-10T14:58:44Z</time></trkpt><trkpt lat="43.284554" lon="-0.194703"><ele>356.31</ele><time>2010-10-10T14:58:45Z</time></trkpt><trkpt lat="43.285413" lon="-0.196485"><ele>353.90</ele><time>2010-10-10T14:58:55Z</time></trkpt><trkpt lat="43.286267" lon="-0.197880"><ele>351.02</ele><time>2010-10-10T14:59:04Z</time></trkpt><trkpt lat="43.287447" lon="-0.199784"><ele>348.62</ele><time>2010-10-10T14:59:16Z</time></trkpt><trkpt lat="43.287532" lon="-0.199916"><ele>348.13</ele><time>2010-10-10T14:59:17Z</time></trkpt><trkpt lat="43.287634" lon="-0.200009"><ele>347.65</ele><time>2010-10-10T14:59:18Z</time></trkpt><trkpt lat="43.287746" lon="-0.200097"><ele>347.65</ele><time>2010-10-10T14:59:19Z</time></trkpt><trkpt lat="43.289023" lon="-0.201158"><ele>346.21</ele><time>2010-10-10T14:59:29Z</time></trkpt><trkpt lat="43.290696" lon="-0.202910"><ele>345.25</ele><time>2010-10-10T14:59:41Z</time></trkpt><trkpt lat="43.292577" lon="-0.205261"><ele>344.77</ele><time>2010-10-10T14:59:55Z</time></trkpt><trkpt lat="43.293099" lon="-0.206039"><ele>345.25</ele><time>2010-10-10T15:00:02Z</time></trkpt><trkpt lat="43.294079" lon="-0.207025"><ele>344.77</ele><time>2010-10-10T15:00:12Z</time></trkpt><trkpt lat="43.295535" lon="-0.208332"><ele>343.33</ele><time>2010-10-10T15:00:24Z</time></trkpt><trkpt lat="43.297220" lon="-0.210108"><ele>340.44</ele><time>2010-10-10T15:00:37Z</time></trkpt><trkpt lat="43.298518" lon="-0.211511"><ele>339.00</ele><time>2010-10-10T15:00:48Z</time></trkpt><trkpt lat="43.298944" lon="-0.211879"><ele>337.56</ele><time>2010-10-10T15:00:52Z</time></trkpt><trkpt lat="43.299058" lon="-0.211932"><ele>337.08</ele><time>2010-10-10T15:00:53Z</time></trkpt><trkpt lat="43.300295" lon="-0.212496"><ele>335.16</ele><time>2010-10-10T15:01:03Z</time></trkpt><trkpt lat="43.301483" lon="-0.213147"><ele>335.16</ele><time>2010-10-10T15:01:12Z</time></trkpt><trkpt lat="43.302672" lon="-0.214224"><ele>334.20</ele><time>2010-10-10T15:01:22Z</time></trkpt><trkpt lat="43.303341" lon="-0.214726"><ele>333.71</ele><time>2010-10-10T15:01:30Z</time></trkpt><trkpt lat="43.303783" lon="-0.215057"><ele>333.71</ele><time>2010-10-10T15:01:37Z</time></trkpt><trkpt lat="43.304071" lon="-0.215273"><ele>332.75</ele><time>2010-10-10T15:01:42Z</time></trkpt><trkpt lat="43.304124" lon="-0.215325"><ele>332.75</ele><time>2010-10-10T15:01:43Z</time></trkpt><trkpt lat="43.304158" lon="-0.215394"><ele>332.75</ele><time>2010-10-10T15:01:44Z</time></trkpt><trkpt lat="43.304193" lon="-0.215463"><ele>332.75</ele><time>2010-10-10T15:01:45Z</time></trkpt><trkpt lat="43.304231" lon="-0.215517"><ele>333.23</ele><time>2010-10-10T15:01:46Z</time></trkpt><trkpt lat="43.304278" lon="-0.215578"><ele>333.23</ele><time>2010-10-10T15:01:47Z</time></trkpt><trkpt lat="43.304332" lon="-0.215647"><ele>333.23</ele><time>2010-10-10T15:01:48Z</time></trkpt><trkpt lat="43.304396" lon="-0.215729"><ele>333.23</ele><time>2010-10-10T15:01:49Z</time></trkpt><trkpt lat="43.304468" lon="-0.215823"><ele>332.75</ele><time>2010-10-10T15:01:50Z</time></trkpt><trkpt lat="43.305247" lon="-0.216827"><ele>331.79</ele><time>2010-10-10T15:01:58Z</time></trkpt><trkpt lat="43.306067" lon="-0.218004"><ele>331.79</ele><time>2010-10-10T15:02:07Z</time></trkpt><trkpt lat="43.306986" lon="-0.219591"><ele>332.27</ele><time>2010-10-10T15:02:17Z</time></trkpt><trkpt lat="43.308284" lon="-0.221592"><ele>330.35</ele><time>2010-10-10T15:02:30Z</time></trkpt><trkpt lat="43.309186" lon="-0.223130"><ele>328.43</ele><time>2010-10-10T15:02:42Z</time></trkpt><trkpt lat="43.309786" lon="-0.224221"><ele>326.02</ele><time>2010-10-10T15:02:51Z</time></trkpt><trkpt lat="43.310615" lon="-0.225739"><ele>320.74</ele><time>2010-10-10T15:03:02Z</time></trkpt><trkpt lat="43.310928" lon="-0.226604"><ele>316.89</ele><time>2010-10-10T15:03:08Z</time></trkpt><trkpt lat="43.311281" lon="-0.227791"><ele>312.57</ele><time>2010-10-10T15:03:17Z</time></trkpt><trkpt lat="43.311301" lon="-0.227935"><ele>312.09</ele><time>2010-10-10T15:03:18Z</time></trkpt><trkpt lat="43.311322" lon="-0.228087"><ele>311.60</ele><time>2010-10-10T15:03:19Z</time></trkpt><trkpt lat="43.311363" lon="-0.228390"><ele>310.64</ele><time>2010-10-10T15:03:21Z</time></trkpt><trkpt lat="43.311403" lon="-0.228761"><ele>310.16</ele><time>2010-10-10T15:03:24Z</time></trkpt><trkpt lat="43.311369" lon="-0.228864"><ele>309.68</ele><time>2010-10-10T15:03:25Z</time></trkpt><trkpt lat="43.311334" lon="-0.228969"><ele>309.68</ele><time>2010-10-10T15:03:26Z</time></trkpt><trkpt lat="43.311298" lon="-0.229075"><ele>309.68</ele><time>2010-10-10T15:03:27Z</time></trkpt><trkpt lat="43.311256" lon="-0.229167"><ele>309.68</ele><time>2010-10-10T15:03:28Z</time></trkpt><trkpt lat="43.311205" lon="-0.229252"><ele>309.68</ele><time>2010-10-10T15:03:29Z</time></trkpt><trkpt lat="43.311069" lon="-0.229479"><ele>310.64</ele><time>2010-10-10T15:03:36Z</time></trkpt><trkpt lat="43.311050" lon="-0.229575"><ele>311.12</ele><time>2010-10-10T15:03:37Z</time></trkpt><trkpt lat="43.311080" lon="-0.229600"><ele>311.60</ele><time>2010-10-10T15:03:39Z</time></trkpt><trkpt lat="43.311116" lon="-0.229629"><ele>312.09</ele><time>2010-10-10T15:03:40Z</time></trkpt><trkpt lat="43.311165" lon="-0.229669"><ele>312.09</ele><time>2010-10-10T15:03:41Z</time></trkpt><trkpt lat="43.311824" lon="-0.230150"><ele>312.09</ele><time>2010-10-10T15:03:49Z</time></trkpt><trkpt lat="43.313251" lon="-0.231062"><ele>312.57</ele><time>2010-10-10T15:04:01Z</time></trkpt><trkpt lat="43.314730" lon="-0.232024"><ele>315.45</ele><time>2010-10-10T15:04:14Z</time></trkpt><trkpt lat="43.316111" lon="-0.232945"><ele>314.97</ele><time>2010-10-10T15:04:25Z</time></trkpt><trkpt lat="43.316959" lon="-0.233538"><ele>313.05</ele><time>2010-10-10T15:04:32Z</time></trkpt><trkpt lat="43.317070" lon="-0.233632"><ele>312.57</ele><time>2010-10-10T15:04:33Z</time></trkpt><trkpt lat="43.317169" lon="-0.233734"><ele>312.57</ele><time>2010-10-10T15:04:34Z</time></trkpt><trkpt lat="43.317265" lon="-0.233848"><ele>312.57</ele><time>2010-10-10T15:04:35Z</time></trkpt><trkpt lat="43.317359" lon="-0.233959"><ele>312.57</ele><time>2010-10-10T15:04:36Z</time></trkpt><trkpt lat="43.317558" lon="-0.234193"><ele>313.05</ele><time>2010-10-10T15:04:38Z</time></trkpt><trkpt lat="43.317665" lon="-0.234270"><ele>313.05</ele><time>2010-10-10T15:04:39Z</time></trkpt><trkpt lat="43.317782" lon="-0.234328"><ele>313.05</ele><time>2010-10-10T15:04:40Z</time></trkpt><trkpt lat="43.318579" lon="-0.234726"><ele>314.49</ele><time>2010-10-10T15:04:48Z</time></trkpt><trkpt lat="43.318814" lon="-0.234844"><ele>314.49</ele><time>2010-10-10T15:04:50Z</time></trkpt><trkpt lat="43.318924" lon="-0.234867"><ele>314.49</ele><time>2010-10-10T15:04:51Z</time></trkpt><trkpt lat="43.319030" lon="-0.234845"><ele>314.49</ele><time>2010-10-10T15:04:52Z</time></trkpt><trkpt lat="43.319121" lon="-0.234809"><ele>314.49</ele><time>2010-10-10T15:04:53Z</time></trkpt><trkpt lat="43.319214" lon="-0.234732"><ele>314.01</ele><time>2010-10-10T15:04:54Z</time></trkpt><trkpt lat="43.319312" lon="-0.234650"><ele>314.01</ele><time>2010-10-10T15:04:55Z</time></trkpt><trkpt lat="43.319389" lon="-0.234544"><ele>313.53</ele><time>2010-10-10T15:04:56Z</time></trkpt><trkpt lat="43.319463" lon="-0.234404"><ele>313.05</ele><time>2010-10-10T15:04:57Z</time></trkpt><trkpt lat="43.319538" lon="-0.234261"><ele>312.57</ele><time>2010-10-10T15:04:58Z</time></trkpt><trkpt lat="43.319617" lon="-0.234111"><ele>312.57</ele><time>2010-10-10T15:04:59Z</time></trkpt><trkpt lat="43.319942" lon="-0.233412"><ele>309.68</ele><time>2010-10-10T15:05:04Z</time></trkpt><trkpt lat="43.319984" lon="-0.233310"><ele>309.20</ele><time>2010-10-10T15:05:05Z</time></trkpt><trkpt lat="43.320061" lon="-0.233259"><ele>308.72</ele><time>2010-10-10T15:05:06Z</time></trkpt><trkpt lat="43.320140" lon="-0.233225"><ele>308.24</ele><time>2010-10-10T15:05:07Z</time></trkpt><trkpt lat="43.320294" lon="-0.233159"><ele>307.76</ele><time>2010-10-10T15:05:08Z</time></trkpt><trkpt lat="43.320315" lon="-0.233159"><ele>307.76</ele><time>2010-10-10T15:05:09Z</time></trkpt><trkpt lat="43.320419" lon="-0.233159"><ele>307.28</ele><time>2010-10-10T15:05:10Z</time></trkpt><trkpt lat="43.321754" lon="-0.233159"><ele>305.36</ele><time>2010-10-10T15:05:21Z</time></trkpt><trkpt lat="43.323156" lon="-0.233343"><ele>305.84</ele><time>2010-10-10T15:05:32Z</time></trkpt><trkpt lat="43.324446" lon="-0.233567"><ele>304.39</ele><time>2010-10-10T15:05:41Z</time></trkpt><trkpt lat="43.325096" lon="-0.233837"><ele>303.43</ele><time>2010-10-10T15:05:46Z</time></trkpt><trkpt lat="43.325216" lon="-0.233946"><ele>303.43</ele><time>2010-10-10T15:05:47Z</time></trkpt><trkpt lat="43.326910" lon="-0.235410"><ele>305.36</ele><time>2010-10-10T15:06:00Z</time></trkpt><trkpt lat="43.327998" lon="-0.236529"><ele>302.95</ele><time>2010-10-10T15:06:08Z</time></trkpt><trkpt lat="43.329507" lon="-0.238388"><ele>298.15</ele><time>2010-10-10T15:06:19Z</time></trkpt><trkpt lat="43.330094" lon="-0.239222"><ele>297.18</ele><time>2010-10-10T15:06:24Z</time></trkpt><trkpt lat="43.330294" lon="-0.239545"><ele>297.67</ele><time>2010-10-10T15:06:27Z</time></trkpt><trkpt lat="43.331626" lon="-0.241307"><ele>297.67</ele><time>2010-10-10T15:06:37Z</time></trkpt><trkpt lat="43.333067" lon="-0.242690"><ele>292.86</ele><time>2010-10-10T15:06:47Z</time></trkpt><trkpt lat="43.333597" lon="-0.243226"><ele>290.94</ele><time>2010-10-10T15:06:51Z</time></trkpt><trkpt lat="43.333731" lon="-0.243372"><ele>290.46</ele><time>2010-10-10T15:06:52Z</time></trkpt><trkpt lat="43.334607" lon="-0.244407"><ele>293.34</ele><time>2010-10-10T15:07:00Z</time></trkpt><trkpt lat="43.335330" lon="-0.245951"><ele>293.34</ele><time>2010-10-10T15:07:09Z</time></trkpt><trkpt lat="43.335583" lon="-0.246491"><ele>290.94</ele><time>2010-10-10T15:07:14Z</time></trkpt><trkpt lat="43.335872" lon="-0.247211"><ele>288.53</ele><time>2010-10-10T15:07:20Z</time></trkpt><trkpt lat="43.335894" lon="-0.247371"><ele>288.53</ele><time>2010-10-10T15:07:21Z</time></trkpt><trkpt lat="43.335921" lon="-0.247542"><ele>288.05</ele><time>2010-10-10T15:07:22Z</time></trkpt><trkpt lat="43.336144" lon="-0.248875"><ele>288.05</ele><time>2010-10-10T15:07:30Z</time></trkpt><trkpt lat="43.336217" lon="-0.248926"><ele>288.53</ele><time>2010-10-10T15:07:31Z</time></trkpt><trkpt lat="43.336298" lon="-0.248982"><ele>289.01</ele><time>2010-10-10T15:07:32Z</time></trkpt><trkpt lat="43.336678" lon="-0.249241"><ele>290.94</ele><time>2010-10-10T15:07:36Z</time></trkpt><trkpt lat="43.336791" lon="-0.249319"><ele>291.42</ele><time>2010-10-10T15:07:37Z</time></trkpt><trkpt lat="43.336908" lon="-0.249399"><ele>291.90</ele><time>2010-10-10T15:07:38Z</time></trkpt><trkpt lat="43.337851" lon="-0.250647"><ele>293.82</ele><time>2010-10-10T15:07:47Z</time></trkpt><trkpt lat="43.338171" lon="-0.251152"><ele>293.34</ele><time>2010-10-10T15:07:51Z</time></trkpt><trkpt lat="43.338243" lon="-0.251265"><ele>293.34</ele><time>2010-10-10T15:07:52Z</time></trkpt><trkpt lat="43.338532" lon="-0.251628"><ele>293.34</ele><time>2010-10-10T15:07:56Z</time></trkpt><trkpt lat="43.338586" lon="-0.251592"><ele>293.82</ele><time>2010-10-10T15:07:57Z</time></trkpt><trkpt lat="43.338705" lon="-0.251570"><ele>293.82</ele><time>2010-10-10T15:07:58Z</time></trkpt><trkpt lat="43.338705" lon="-0.251570"><ele>293.82</ele><time>2010-10-10T15:07:59Z</time></trkpt><trkpt lat="43.338903" lon="-0.251538"><ele>293.82</ele><time>2010-10-10T15:08:00Z</time></trkpt><trkpt lat="43.339018" lon="-0.251505"><ele>293.82</ele><time>2010-10-10T15:08:01Z</time></trkpt><trkpt lat="43.339137" lon="-0.251438"><ele>294.30</ele><time>2010-10-10T15:08:02Z</time></trkpt><trkpt lat="43.340204" lon="-0.250877"><ele>294.78</ele><time>2010-10-10T15:08:09Z</time></trkpt><trkpt lat="43.341476" lon="-0.250894"><ele>294.30</ele><time>2010-10-10T15:08:16Z</time></trkpt><trkpt lat="43.341657" lon="-0.250942"><ele>294.30</ele><time>2010-10-10T15:08:17Z</time></trkpt><trkpt lat="43.341840" lon="-0.251024"><ele>293.82</ele><time>2010-10-10T15:08:18Z</time></trkpt><trkpt lat="43.343325" lon="-0.252015"><ele>292.38</ele><time>2010-10-10T15:08:26Z</time></trkpt><trkpt lat="43.346203" lon="-0.253962"><ele>288.53</ele><time>2010-10-10T15:08:40Z</time></trkpt><trkpt lat="43.348452" lon="-0.255073"><ele>286.61</ele><time>2010-10-10T15:08:50Z</time></trkpt><trkpt lat="43.349713" lon="-0.255840"><ele>286.61</ele><time>2010-10-10T15:08:57Z</time></trkpt><trkpt lat="43.349956" lon="-0.256145"><ele>287.09</ele><time>2010-10-10T15:08:59Z</time></trkpt><trkpt lat="43.350061" lon="-0.256295"><ele>287.09</ele><time>2010-10-10T15:09:00Z</time></trkpt><trkpt lat="43.350382" lon="-0.256724"><ele>287.09</ele><time>2010-10-10T15:09:04Z</time></trkpt><trkpt lat="43.350443" lon="-0.256785"><ele>287.09</ele><time>2010-10-10T15:09:05Z</time></trkpt><trkpt lat="43.350489" lon="-0.256831"><ele>287.09</ele><time>2010-10-10T15:09:06Z</time></trkpt><trkpt lat="43.350524" lon="-0.256866"><ele>287.09</ele><time>2010-10-10T15:09:07Z</time></trkpt><trkpt lat="43.350524" lon="-0.256866"><ele>287.09</ele><time>2010-10-10T15:09:08Z</time></trkpt><trkpt lat="43.350658" lon="-0.256847"><ele>286.61</ele><time>2010-10-10T15:09:09Z</time></trkpt><trkpt lat="43.350697" lon="-0.256794"><ele>286.61</ele><time>2010-10-10T15:09:10Z</time></trkpt><trkpt lat="43.350760" lon="-0.256763"><ele>286.61</ele><time>2010-10-10T15:09:11Z</time></trkpt><trkpt lat="43.350821" lon="-0.256763"><ele>286.13</ele><time>2010-10-10T15:09:12Z</time></trkpt><trkpt lat="43.350885" lon="-0.256810"><ele>286.13</ele><time>2010-10-10T15:09:13Z</time></trkpt><trkpt lat="43.350927" lon="-0.256866"><ele>285.65</ele><time>2010-10-10T15:09:14Z</time></trkpt><trkpt lat="43.350971" lon="-0.256977"><ele>286.13</ele><time>2010-10-10T15:09:15Z</time></trkpt><trkpt lat="43.350956" lon="-0.257070"><ele>286.13</ele><time>2010-10-10T15:09:16Z</time></trkpt><trkpt lat="43.350956" lon="-0.257070"><ele>286.13</ele><time>2010-10-10T15:09:17Z</time></trkpt><trkpt lat="43.351017" lon="-0.257314"><ele>286.61</ele><time>2010-10-10T15:09:18Z</time></trkpt><trkpt lat="43.351092" lon="-0.257414"><ele>286.61</ele><time>2010-10-10T15:09:19Z</time></trkpt><trkpt lat="43.351173" lon="-0.257530"><ele>286.61</ele><time>2010-10-10T15:09:20Z</time></trkpt><trkpt lat="43.351776" lon="-0.258736"><ele>286.13</ele><time>2010-10-10T15:09:27Z</time></trkpt><trkpt lat="43.351833" lon="-0.258944"><ele>285.65</ele><time>2010-10-10T15:09:28Z</time></trkpt><trkpt lat="43.351938" lon="-0.259394"><ele>284.21</ele><time>2010-10-10T15:09:30Z</time></trkpt><trkpt lat="43.351982" lon="-0.259625"><ele>283.25</ele><time>2010-10-10T15:09:31Z</time></trkpt><trkpt lat="43.352017" lon="-0.259867"><ele>282.77</ele><time>2010-10-10T15:09:32Z</time></trkpt><trkpt lat="43.352051" lon="-0.260107"><ele>281.80</ele><time>2010-10-10T15:09:33Z</time></trkpt><trkpt lat="43.352024" lon="-0.260354"><ele>280.84</ele><time>2010-10-10T15:09:34Z</time></trkpt><trkpt lat="43.351996" lon="-0.260607"><ele>280.36</ele><time>2010-10-10T15:09:35Z</time></trkpt><trkpt lat="43.351968" lon="-0.260864"><ele>279.40</ele><time>2010-10-10T15:09:36Z</time></trkpt><trkpt lat="43.351915" lon="-0.261106"><ele>278.92</ele><time>2010-10-10T15:09:37Z</time></trkpt><trkpt lat="43.351858" lon="-0.261355"><ele>278.92</ele><time>2010-10-10T15:09:38Z</time></trkpt><trkpt lat="43.351802" lon="-0.261603"><ele>278.44</ele><time>2010-10-10T15:09:39Z</time></trkpt><trkpt lat="43.351802" lon="-0.261603"><ele>277.96</ele><time>2010-10-10T15:09:40Z</time></trkpt><trkpt lat="43.351646" lon="-0.262065"><ele>277.96</ele><time>2010-10-10T15:09:41Z</time></trkpt><trkpt lat="43.351103" lon="-0.263319"><ele>279.40</ele><time>2010-10-10T15:09:48Z</time></trkpt><trkpt lat="43.351088" lon="-0.263460"><ele>279.88</ele><time>2010-10-10T15:09:49Z</time></trkpt><trkpt lat="43.351088" lon="-0.263460"><ele>279.88</ele><time>2010-10-10T15:09:50Z</time></trkpt><trkpt lat="43.351074" lon="-0.263750"><ele>280.36</ele><time>2010-10-10T15:09:51Z</time></trkpt><trkpt lat="43.351093" lon="-0.263902"><ele>280.84</ele><time>2010-10-10T15:09:52Z</time></trkpt><trkpt lat="43.351129" lon="-0.264063"><ele>281.32</ele><time>2010-10-10T15:09:53Z</time></trkpt><trkpt lat="43.351191" lon="-0.264199"><ele>281.80</ele><time>2010-10-10T15:09:54Z</time></trkpt><trkpt lat="43.351251" lon="-0.264332"><ele>281.80</ele><time>2010-10-10T15:09:55Z</time></trkpt><trkpt lat="43.351312" lon="-0.264465"><ele>282.28</ele><time>2010-10-10T15:09:56Z</time></trkpt><trkpt lat="43.351834" lon="-0.265293"><ele>283.25</ele><time>2010-10-10T15:10:05Z</time></trkpt><trkpt lat="43.352325" lon="-0.266039"><ele>283.25</ele><time>2010-10-10T15:10:12Z</time></trkpt><trkpt lat="43.353286" lon="-0.267490"><ele>280.36</ele><time>2010-10-10T15:10:23Z</time></trkpt><trkpt lat="43.354180" lon="-0.268925"><ele>275.56</ele><time>2010-10-10T15:10:33Z</time></trkpt><trkpt lat="43.354245" lon="-0.269058"><ele>275.07</ele><time>2010-10-10T15:10:34Z</time></trkpt><trkpt lat="43.354285" lon="-0.269218"><ele>275.07</ele><time>2010-10-10T15:10:35Z</time></trkpt><trkpt lat="43.354326" lon="-0.269381"><ele>274.59</ele><time>2010-10-10T15:10:36Z</time></trkpt><trkpt lat="43.354368" lon="-0.269547"><ele>274.59</ele><time>2010-10-10T15:10:37Z</time></trkpt><trkpt lat="43.354494" lon="-0.270052"><ele>275.56</ele><time>2010-10-10T15:10:40Z</time></trkpt><trkpt lat="43.354578" lon="-0.270207"><ele>276.04</ele><time>2010-10-10T15:10:41Z</time></trkpt><trkpt lat="43.354661" lon="-0.270352"><ele>276.52</ele><time>2010-10-10T15:10:42Z</time></trkpt><trkpt lat="43.355591" lon="-0.271841"><ele>281.32</ele><time>2010-10-10T15:10:52Z</time></trkpt><trkpt lat="43.356785" lon="-0.272825"><ele>284.69</ele><time>2010-10-10T15:11:00Z</time></trkpt><trkpt lat="43.358227" lon="-0.273964"><ele>285.65</ele><time>2010-10-10T15:11:09Z</time></trkpt><trkpt lat="43.358573" lon="-0.274173"><ele>284.21</ele><time>2010-10-10T15:11:11Z</time></trkpt><trkpt lat="43.360278" lon="-0.274904"><ele>280.84</ele><time>2010-10-10T15:11:21Z</time></trkpt><trkpt lat="43.360945" lon="-0.275282"><ele>280.84</ele><time>2010-10-10T15:11:27Z</time></trkpt></trkseg></trk><trk><name>ACTIVE LOG: 10 окт 2010 17:11</name><trkseg><trkpt lat="43.361018" lon="-0.275333"><ele>280.84</ele><time>2010-10-10T15:11:28Z</time></trkpt><trkpt lat="43.361081" lon="-0.275377"><ele>280.84</ele><time>2010-10-10T15:11:29Z</time></trkpt><trkpt lat="43.361140" lon="-0.275417"><ele>280.84</ele><time>2010-10-10T15:11:30Z</time></trkpt><trkpt lat="43.361203" lon="-0.275461"><ele>280.36</ele><time>2010-10-10T15:11:32Z</time></trkpt><trkpt lat="43.361349" lon="-0.275562"><ele>280.36</ele><time>2010-10-10T15:11:33Z</time></trkpt><trkpt lat="43.361920" lon="-0.276002"><ele>278.92</ele><time>2010-10-10T15:11:40Z</time></trkpt><trkpt lat="43.362030" lon="-0.276102"><ele>278.44</ele><time>2010-10-10T15:11:42Z</time></trkpt><trkpt lat="43.362096" lon="-0.276163"><ele>277.96</ele><time>2010-10-10T15:11:43Z</time></trkpt><trkpt lat="43.362844" lon="-0.276786"><ele>276.04</ele><time>2010-10-10T15:11:51Z</time></trkpt><trkpt lat="43.364082" lon="-0.278076"><ele>277.48</ele><time>2010-10-10T15:12:03Z</time></trkpt><trkpt lat="43.365231" lon="-0.279813"><ele>278.92</ele><time>2010-10-10T15:12:14Z</time></trkpt><trkpt lat="43.366618" lon="-0.281530"><ele>281.80</ele><time>2010-10-10T15:12:25Z</time></trkpt><trkpt lat="43.366864" lon="-0.281931"><ele>282.77</ele><time>2010-10-10T15:12:28Z</time></trkpt><trkpt lat="43.366929" lon="-0.282066"><ele>283.25</ele><time>2010-10-10T15:12:29Z</time></trkpt><trkpt lat="43.366990" lon="-0.282214"><ele>283.73</ele><time>2010-10-10T15:12:30Z</time></trkpt><trkpt lat="43.367415" lon="-0.283241"><ele>285.17</ele><time>2010-10-10T15:12:37Z</time></trkpt><trkpt lat="43.367793" lon="-0.283996"><ele>287.09</ele><time>2010-10-10T15:12:41Z</time></trkpt><trkpt lat="43.367867" lon="-0.284146"><ele>287.57</ele><time>2010-10-10T15:12:42Z</time></trkpt><trkpt lat="43.367944" lon="-0.284483"><ele>288.53</ele><time>2010-10-10T15:12:44Z</time></trkpt><trkpt lat="43.367978" lon="-0.284658"><ele>289.49</ele><time>2010-10-10T15:12:45Z</time></trkpt><trkpt lat="43.368078" lon="-0.285179"><ele>292.38</ele><time>2010-10-10T15:12:49Z</time></trkpt><trkpt lat="43.368121" lon="-0.285344"><ele>293.34</ele><time>2010-10-10T15:12:50Z</time></trkpt><trkpt lat="43.368246" lon="-0.285626"><ele>294.30</ele><time>2010-10-10T15:12:51Z</time></trkpt><trkpt lat="43.368330" lon="-0.285744"><ele>295.26</ele><time>2010-10-10T15:12:52Z</time></trkpt><trkpt lat="43.368430" lon="-0.285844"><ele>296.22</ele><time>2010-10-10T15:12:53Z</time></trkpt><trkpt lat="43.368538" lon="-0.285938"><ele>297.18</ele><time>2010-10-10T15:12:54Z</time></trkpt><trkpt lat="43.368651" lon="-0.286033"><ele>298.15</ele><time>2010-10-10T15:12:55Z</time></trkpt><trkpt lat="43.369389" lon="-0.286610"><ele>302.95</ele><time>2010-10-10T15:13:01Z</time></trkpt><trkpt lat="43.369529" lon="-0.286680"><ele>303.43</ele><time>2010-10-10T15:13:02Z</time></trkpt><trkpt lat="43.371123" lon="-0.287438"><ele>307.28</ele><time>2010-10-10T15:13:12Z</time></trkpt><trkpt lat="43.372305" lon="-0.288004"><ele>307.76</ele><time>2010-10-10T15:13:21Z</time></trkpt><trkpt lat="43.373667" lon="-0.288535"><ele>306.80</ele><time>2010-10-10T15:13:31Z</time></trkpt><trkpt lat="43.374289" lon="-0.288701"><ele>305.84</ele><time>2010-10-10T15:13:36Z</time></trkpt><trkpt lat="43.374396" lon="-0.288707"><ele>305.84</ele><time>2010-10-10T15:13:37Z</time></trkpt><trkpt lat="43.374498" lon="-0.288713"><ele>305.36</ele><time>2010-10-10T15:13:38Z</time></trkpt><trkpt lat="43.375212" lon="-0.288734"><ele>305.36</ele><time>2010-10-10T15:13:45Z</time></trkpt><trkpt lat="43.375357" lon="-0.288734"><ele>305.84</ele><time>2010-10-10T15:13:49Z</time></trkpt><trkpt lat="43.375397" lon="-0.288734"><ele>305.84</ele><time>2010-10-10T15:13:50Z</time></trkpt><trkpt lat="43.375446" lon="-0.288744"><ele>305.84</ele><time>2010-10-10T15:13:51Z</time></trkpt><trkpt lat="43.375562" lon="-0.288767"><ele>305.84</ele><time>2010-10-10T15:13:53Z</time></trkpt><trkpt lat="43.375562" lon="-0.288767"><ele>305.84</ele><time>2010-10-10T15:13:54Z</time></trkpt><trkpt lat="43.375668" lon="-0.288791"><ele>305.84</ele><time>2010-10-10T15:13:55Z</time></trkpt><trkpt lat="43.376079" lon="-0.288894"><ele>306.80</ele><time>2010-10-10T15:14:03Z</time></trkpt><trkpt lat="43.376794" lon="-0.289114"><ele>307.76</ele><time>2010-10-10T15:14:11Z</time></trkpt><trkpt lat="43.378010" lon="-0.289520"><ele>307.76</ele><time>2010-10-10T15:14:20Z</time></trkpt><trkpt lat="43.379756" lon="-0.290259"><ele>308.24</ele><time>2010-10-10T15:14:33Z</time></trkpt><trkpt lat="43.381079" lon="-0.290757"><ele>308.72</ele><time>2010-10-10T15:14:43Z</time></trkpt><trkpt lat="43.381209" lon="-0.290864"><ele>308.24</ele><time>2010-10-10T15:14:44Z</time></trkpt><trkpt lat="43.381340" lon="-0.290971"><ele>308.24</ele><time>2010-10-10T15:14:45Z</time></trkpt><trkpt lat="43.382637" lon="-0.292057"><ele>307.76</ele><time>2010-10-10T15:14:55Z</time></trkpt><trkpt lat="43.383651" lon="-0.292588"><ele>306.32</ele><time>2010-10-10T15:15:03Z</time></trkpt><trkpt lat="43.385217" lon="-0.292804"><ele>306.80</ele><time>2010-10-10T15:15:13Z</time></trkpt><trkpt lat="43.387209" lon="-0.292844"><ele>305.36</ele><time>2010-10-10T15:15:25Z</time></trkpt><trkpt lat="43.388085" lon="-0.292745"><ele>303.91</ele><time>2010-10-10T15:15:31Z</time></trkpt><trkpt lat="43.388231" lon="-0.292754"><ele>303.43</ele><time>2010-10-10T15:15:32Z</time></trkpt><trkpt lat="43.388379" lon="-0.292764"><ele>303.43</ele><time>2010-10-10T15:15:33Z</time></trkpt><trkpt lat="43.389782" lon="-0.293120"><ele>303.91</ele><time>2010-10-10T15:15:42Z</time></trkpt><trkpt lat="43.390388" lon="-0.293155"><ele>301.99</ele><time>2010-10-10T15:15:46Z</time></trkpt><trkpt lat="43.390493" lon="-0.293095"><ele>301.99</ele><time>2010-10-10T15:15:47Z</time></trkpt><trkpt lat="43.390601" lon="-0.293010"><ele>301.51</ele><time>2010-10-10T15:15:48Z</time></trkpt><trkpt lat="43.390713" lon="-0.292923"><ele>300.55</ele><time>2010-10-10T15:15:49Z</time></trkpt><trkpt lat="43.390829" lon="-0.292832"><ele>300.07</ele><time>2010-10-10T15:15:50Z</time></trkpt><trkpt lat="43.391337" lon="-0.292483"><ele>296.70</ele><time>2010-10-10T15:15:54Z</time></trkpt><trkpt lat="43.391477" lon="-0.292422"><ele>295.74</ele><time>2010-10-10T15:15:55Z</time></trkpt><trkpt lat="43.391626" lon="-0.292388"><ele>294.78</ele><time>2010-10-10T15:15:56Z</time></trkpt><trkpt lat="43.391775" lon="-0.292404"><ele>294.30</ele><time>2010-10-10T15:15:57Z</time></trkpt><trkpt lat="43.391928" lon="-0.292421"><ele>293.34</ele><time>2010-10-10T15:15:58Z</time></trkpt><trkpt lat="43.392068" lon="-0.292492"><ele>292.38</ele><time>2010-10-10T15:15:59Z</time></trkpt><trkpt lat="43.392209" lon="-0.292581"><ele>291.42</ele><time>2010-10-10T15:16:00Z</time></trkpt><trkpt lat="43.392356" lon="-0.292674"><ele>289.97</ele><time>2010-10-10T15:16:01Z</time></trkpt><trkpt lat="43.392506" lon="-0.292769"><ele>289.01</ele><time>2010-10-10T15:16:02Z</time></trkpt><trkpt lat="43.393198" lon="-0.293208"><ele>283.25</ele><time>2010-10-10T15:16:07Z</time></trkpt><trkpt lat="43.393753" lon="-0.293282"><ele>278.92</ele><time>2010-10-10T15:16:11Z</time></trkpt><trkpt lat="43.393906" lon="-0.293295"><ele>277.96</ele><time>2010-10-10T15:16:12Z</time></trkpt><trkpt lat="43.395224" lon="-0.293247"><ele>268.35</ele><time>2010-10-10T15:16:21Z</time></trkpt><trkpt lat="43.395396" lon="-0.293198"><ele>267.38</ele><time>2010-10-10T15:16:22Z</time></trkpt><trkpt lat="43.395446" lon="-0.293169"><ele>265.94</ele><time>2010-10-10T15:16:23Z</time></trkpt><trkpt lat="43.395885" lon="-0.292918"><ele>261.14</ele><time>2010-10-10T15:16:27Z</time></trkpt><trkpt lat="43.395994" lon="-0.292856"><ele>260.17</ele><time>2010-10-10T15:16:28Z</time></trkpt><trkpt lat="43.396113" lon="-0.292869"><ele>259.21</ele><time>2010-10-10T15:16:29Z</time></trkpt><trkpt lat="43.396237" lon="-0.292884"><ele>258.25</ele><time>2010-10-10T15:16:30Z</time></trkpt><trkpt lat="43.396363" lon="-0.292900"><ele>257.29</ele><time>2010-10-10T15:16:31Z</time></trkpt><trkpt lat="43.396489" lon="-0.292916"><ele>256.81</ele><time>2010-10-10T15:16:32Z</time></trkpt><trkpt lat="43.396618" lon="-0.292932"><ele>255.85</ele><time>2010-10-10T15:16:33Z</time></trkpt><trkpt lat="43.396746" lon="-0.292940"><ele>255.37</ele><time>2010-10-10T15:16:34Z</time></trkpt><trkpt lat="43.396875" lon="-0.292940"><ele>254.89</ele><time>2010-10-10T15:16:35Z</time></trkpt><trkpt lat="43.397006" lon="-0.292925"><ele>254.41</ele><time>2010-10-10T15:16:36Z</time></trkpt><trkpt lat="43.397122" lon="-0.292850"><ele>253.93</ele><time>2010-10-10T15:16:37Z</time></trkpt><trkpt lat="43.397242" lon="-0.292773"><ele>253.93</ele><time>2010-10-10T15:16:38Z</time></trkpt><trkpt lat="43.398165" lon="-0.292293"><ele>251.04</ele><time>2010-10-10T15:16:45Z</time></trkpt><trkpt lat="43.398306" lon="-0.292275"><ele>250.56</ele><time>2010-10-10T15:16:46Z</time></trkpt><trkpt lat="43.399619" lon="-0.292366"><ele>249.12</ele><time>2010-10-10T15:16:55Z</time></trkpt><trkpt lat="43.400732" lon="-0.292468"><ele>244.79</ele><time>2010-10-10T15:17:03Z</time></trkpt><trkpt lat="43.400821" lon="-0.292515"><ele>244.31</ele><time>2010-10-10T15:17:04Z</time></trkpt><trkpt lat="43.400859" lon="-0.292612"><ele>243.83</ele><time>2010-10-10T15:17:05Z</time></trkpt><trkpt lat="43.400901" lon="-0.292719"><ele>242.87</ele><time>2010-10-10T15:17:06Z</time></trkpt><trkpt lat="43.400947" lon="-0.292839"><ele>242.39</ele><time>2010-10-10T15:17:07Z</time></trkpt><trkpt lat="43.400995" lon="-0.292962"><ele>241.43</ele><time>2010-10-10T15:17:08Z</time></trkpt><trkpt lat="43.401045" lon="-0.293090"><ele>240.47</ele><time>2010-10-10T15:17:09Z</time></trkpt><trkpt lat="43.401106" lon="-0.293242"><ele>239.51</ele><time>2010-10-10T15:17:10Z</time></trkpt><trkpt lat="43.401183" lon="-0.293280"><ele>238.06</ele><time>2010-10-10T15:17:11Z</time></trkpt><trkpt lat="43.401262" lon="-0.293320"><ele>237.58</ele><time>2010-10-10T15:17:12Z</time></trkpt><trkpt lat="43.401328" lon="-0.293300"><ele>236.62</ele><time>2010-10-10T15:17:13Z</time></trkpt><trkpt lat="43.401413" lon="-0.293258"><ele>235.66</ele><time>2010-10-10T15:17:14Z</time></trkpt><trkpt lat="43.401501" lon="-0.293214"><ele>234.70</ele><time>2010-10-10T15:17:15Z</time></trkpt><trkpt lat="43.401570" lon="-0.293142"><ele>233.74</ele><time>2010-10-10T15:17:16Z</time></trkpt><trkpt lat="43.401648" lon="-0.293025"><ele>232.78</ele><time>2010-10-10T15:17:17Z</time></trkpt><trkpt lat="43.401733" lon="-0.292897"><ele>231.81</ele><time>2010-10-10T15:17:18Z</time></trkpt><trkpt lat="43.402600" lon="-0.291930"><ele>223.64</ele><time>2010-10-10T15:17:26Z</time></trkpt><trkpt lat="43.402717" lon="-0.291897"><ele>222.68</ele><time>2010-10-10T15:17:27Z</time></trkpt><trkpt lat="43.402833" lon="-0.291864"><ele>221.72</ele><time>2010-10-10T15:17:28Z</time></trkpt><trkpt lat="43.402955" lon="-0.291829"><ele>220.76</ele><time>2010-10-10T15:17:29Z</time></trkpt><trkpt lat="43.402955" lon="-0.291829"><ele>219.80</ele><time>2010-10-10T15:17:30Z</time></trkpt><trkpt lat="43.403227" lon="-0.291778"><ele>218.84</ele><time>2010-10-10T15:17:31Z</time></trkpt><trkpt lat="43.404588" lon="-0.291682"><ele>212.59</ele><time>2010-10-10T15:17:39Z</time></trkpt><trkpt lat="43.406593" lon="-0.291049"><ele>205.38</ele><time>2010-10-10T15:17:49Z</time></trkpt><trkpt lat="43.407860" lon="-0.290668"><ele>201.53</ele><time>2010-10-10T15:17:56Z</time></trkpt><trkpt lat="43.408009" lon="-0.290684"><ele>201.53</ele><time>2010-10-10T15:17:57Z</time></trkpt><trkpt lat="43.408158" lon="-0.290701"><ele>201.05</ele><time>2010-10-10T15:17:58Z</time></trkpt><trkpt lat="43.408594" lon="-0.290749"><ele>200.57</ele><time>2010-10-10T15:18:01Z</time></trkpt><trkpt lat="43.410319" lon="-0.290679"><ele>198.17</ele><time>2010-10-10T15:18:12Z</time></trkpt><trkpt lat="43.412366" lon="-0.290311"><ele>195.77</ele><time>2010-10-10T15:18:24Z</time></trkpt><trkpt lat="43.414101" lon="-0.290147"><ele>193.84</ele><time>2010-10-10T15:18:35Z</time></trkpt><trkpt lat="43.414219" lon="-0.290167"><ele>193.36</ele><time>2010-10-10T15:18:36Z</time></trkpt><trkpt lat="43.415515" lon="-0.290739"><ele>191.92</ele><time>2010-10-10T15:18:46Z</time></trkpt><trkpt lat="43.417209" lon="-0.292231"><ele>190.48</ele><time>2010-10-10T15:18:58Z</time></trkpt><trkpt lat="43.418475" lon="-0.293014"><ele>189.52</ele><time>2010-10-10T15:19:06Z</time></trkpt><trkpt lat="43.420028" lon="-0.294015"><ele>188.56</ele><time>2010-10-10T15:19:16Z</time></trkpt><trkpt lat="43.420578" lon="-0.294476"><ele>187.59</ele><time>2010-10-10T15:19:20Z</time></trkpt><trkpt lat="43.420679" lon="-0.294608"><ele>187.11</ele><time>2010-10-10T15:19:21Z</time></trkpt><trkpt lat="43.420771" lon="-0.294760"><ele>187.11</ele><time>2010-10-10T15:19:22Z</time></trkpt><trkpt lat="43.421769" lon="-0.296139"><ele>184.71</ele><time>2010-10-10T15:19:31Z</time></trkpt><trkpt lat="43.423293" lon="-0.297696"><ele>183.75</ele><time>2010-10-10T15:19:41Z</time></trkpt><trkpt lat="43.424026" lon="-0.298657"><ele>183.27</ele><time>2010-10-10T15:19:47Z</time></trkpt><trkpt lat="43.425370" lon="-0.300911"><ele>181.35</ele><time>2010-10-10T15:19:58Z</time></trkpt><trkpt lat="43.426914" lon="-0.303392"><ele>179.42</ele><time>2010-10-10T15:20:10Z</time></trkpt><trkpt lat="43.428528" lon="-0.305645"><ele>177.50</ele><time>2010-10-10T15:20:22Z</time></trkpt><trkpt lat="43.430363" lon="-0.307957"><ele>175.58</ele><time>2010-10-10T15:20:35Z</time></trkpt><trkpt lat="43.430817" lon="-0.308599"><ele>175.10</ele><time>2010-10-10T15:20:39Z</time></trkpt><trkpt lat="43.430924" lon="-0.308767"><ele>175.10</ele><time>2010-10-10T15:20:40Z</time></trkpt><trkpt lat="43.431551" lon="-0.310120"><ele>174.62</ele><time>2010-10-10T15:20:48Z</time></trkpt><trkpt lat="43.432348" lon="-0.311249"><ele>175.10</ele><time>2010-10-10T15:20:56Z</time></trkpt><trkpt lat="43.432596" lon="-0.311514"><ele>174.62</ele><time>2010-10-10T15:20:58Z</time></trkpt><trkpt lat="43.432737" lon="-0.311598"><ele>174.14</ele><time>2010-10-10T15:20:59Z</time></trkpt><trkpt lat="43.432887" lon="-0.311682"><ele>174.14</ele><time>2010-10-10T15:21:00Z</time></trkpt><trkpt lat="43.434662" lon="-0.312681"><ele>171.73</ele><time>2010-10-10T15:21:11Z</time></trkpt><trkpt lat="43.434791" lon="-0.312803"><ele>171.73</ele><time>2010-10-10T15:21:12Z</time></trkpt><trkpt lat="43.434925" lon="-0.312933"><ele>171.25</ele><time>2010-10-10T15:21:13Z</time></trkpt><trkpt lat="43.435888" lon="-0.313858"><ele>170.77</ele><time>2010-10-10T15:21:20Z</time></trkpt><trkpt lat="43.435993" lon="-0.313959"><ele>170.77</ele><time>2010-10-10T15:21:24Z</time></trkpt><trkpt lat="43.436203" lon="-0.314161"><ele>171.25</ele><time>2010-10-10T15:21:32Z</time></trkpt><trkpt lat="43.436819" lon="-0.314753"><ele>171.25</ele><time>2010-10-10T15:21:40Z</time></trkpt><trkpt lat="43.437816" lon="-0.315806"><ele>168.37</ele><time>2010-10-10T15:21:49Z</time></trkpt><trkpt lat="43.439699" lon="-0.317803"><ele>165.96</ele><time>2010-10-10T15:22:02Z</time></trkpt><trkpt lat="43.441403" lon="-0.319605"><ele>165.96</ele><time>2010-10-10T15:22:13Z</time></trkpt><trkpt lat="43.442667" lon="-0.320921"><ele>166.45</ele><time>2010-10-10T15:22:23Z</time></trkpt><trkpt lat="43.444307" lon="-0.322629"><ele>164.04</ele><time>2010-10-10T15:22:34Z</time></trkpt><trkpt lat="43.446052" lon="-0.324446"><ele>160.68</ele><time>2010-10-10T15:22:46Z</time></trkpt><trkpt lat="43.446240" lon="-0.324641"><ele>160.20</ele><time>2010-10-10T15:22:48Z</time></trkpt><trkpt lat="43.446300" lon="-0.324735"><ele>160.20</ele><time>2010-10-10T15:22:49Z</time></trkpt><trkpt lat="43.446314" lon="-0.324821"><ele>160.20</ele><time>2010-10-10T15:22:50Z</time></trkpt><trkpt lat="43.446314" lon="-0.324821"><ele>160.20</ele><time>2010-10-10T15:22:51Z</time></trkpt><trkpt lat="43.446428" lon="-0.324978"><ele>161.16</ele><time>2010-10-10T15:22:55Z</time></trkpt><trkpt lat="43.446487" lon="-0.324993"><ele>160.68</ele><time>2010-10-10T15:22:56Z</time></trkpt><trkpt lat="43.446570" lon="-0.325013"><ele>160.68</ele><time>2010-10-10T15:22:57Z</time></trkpt><trkpt lat="43.446671" lon="-0.325039"><ele>160.68</ele><time>2010-10-10T15:22:58Z</time></trkpt><trkpt lat="43.447565" lon="-0.325248"><ele>159.24</ele><time>2010-10-10T15:23:04Z</time></trkpt><trkpt lat="43.449870" lon="-0.325797"><ele>158.27</ele><time>2010-10-10T15:23:15Z</time></trkpt><trkpt lat="43.452269" lon="-0.326421"><ele>160.20</ele><time>2010-10-10T15:23:26Z</time></trkpt><trkpt lat="43.454356" lon="-0.327202"><ele>167.89</ele><time>2010-10-10T15:23:38Z</time></trkpt><trkpt lat="43.455119" lon="-0.327557"><ele>173.17</ele><time>2010-10-10T15:23:43Z</time></trkpt><trkpt lat="43.455233" lon="-0.327672"><ele>174.14</ele><time>2010-10-10T15:23:44Z</time></trkpt><trkpt lat="43.455336" lon="-0.327798"><ele>175.10</ele><time>2010-10-10T15:23:45Z</time></trkpt><trkpt lat="43.455424" lon="-0.327951"><ele>176.06</ele><time>2010-10-10T15:23:46Z</time></trkpt><trkpt lat="43.455505" lon="-0.328109"><ele>176.54</ele><time>2010-10-10T15:23:47Z</time></trkpt><trkpt lat="43.456166" lon="-0.329636"><ele>183.75</ele><time>2010-10-10T15:23:55Z</time></trkpt><trkpt lat="43.456453" lon="-0.330141"><ele>186.63</ele><time>2010-10-10T15:23:58Z</time></trkpt><trkpt lat="43.456552" lon="-0.330271"><ele>187.59</ele><time>2010-10-10T15:23:59Z</time></trkpt><trkpt lat="43.456665" lon="-0.330365"><ele>188.56</ele><time>2010-10-10T15:24:00Z</time></trkpt><trkpt lat="43.456786" lon="-0.330448"><ele>189.52</ele><time>2010-10-10T15:24:01Z</time></trkpt><trkpt lat="43.456914" lon="-0.330448"><ele>190.48</ele><time>2010-10-10T15:24:02Z</time></trkpt><trkpt lat="43.457040" lon="-0.330448"><ele>191.44</ele><time>2010-10-10T15:24:03Z</time></trkpt><trkpt lat="43.457171" lon="-0.330431"><ele>192.40</ele><time>2010-10-10T15:24:04Z</time></trkpt><trkpt lat="43.457277" lon="-0.330340"><ele>192.88</ele><time>2010-10-10T15:24:05Z</time></trkpt><trkpt lat="43.457386" lon="-0.330247"><ele>193.84</ele><time>2010-10-10T15:24:06Z</time></trkpt><trkpt lat="43.457493" lon="-0.330125"><ele>194.80</ele><time>2010-10-10T15:24:07Z</time></trkpt><trkpt lat="43.457580" lon="-0.329989"><ele>195.28</ele><time>2010-10-10T15:24:08Z</time></trkpt><trkpt lat="43.457993" lon="-0.329277"><ele>200.09</ele><time>2010-10-10T15:24:13Z</time></trkpt><trkpt lat="43.458030" lon="-0.329163"><ele>201.05</ele><time>2010-10-10T15:24:14Z</time></trkpt><trkpt lat="43.458043" lon="-0.329039"><ele>201.53</ele><time>2010-10-10T15:24:15Z</time></trkpt><trkpt lat="43.458014" lon="-0.328924"><ele>202.49</ele><time>2010-10-10T15:24:16Z</time></trkpt><trkpt lat="43.457953" lon="-0.328818"><ele>203.46</ele><time>2010-10-10T15:24:17Z</time></trkpt><trkpt lat="43.457846" lon="-0.328759"><ele>203.94</ele><time>2010-10-10T15:24:18Z</time></trkpt><trkpt lat="43.457756" lon="-0.328741"><ele>204.90</ele><time>2010-10-10T15:24:19Z</time></trkpt><trkpt lat="43.457630" lon="-0.328800"><ele>205.38</ele><time>2010-10-10T15:24:20Z</time></trkpt><trkpt lat="43.457540" lon="-0.328879"><ele>206.34</ele><time>2010-10-10T15:24:21Z</time></trkpt><trkpt lat="43.457446" lon="-0.328962"><ele>206.82</ele><time>2010-10-10T15:24:22Z</time></trkpt><trkpt lat="43.457356" lon="-0.329032"><ele>207.30</ele><time>2010-10-10T15:24:23Z</time></trkpt><trkpt lat="43.457243" lon="-0.329032"><ele>207.78</ele><time>2010-10-10T15:24:24Z</time></trkpt><trkpt lat="43.457148" lon="-0.329005"><ele>208.26</ele><time>2010-10-10T15:24:25Z</time></trkpt><trkpt lat="43.457040" lon="-0.328940"><ele>208.74</ele><time>2010-10-10T15:24:26Z</time></trkpt><trkpt lat="43.456964" lon="-0.328864"><ele>209.22</ele><time>2010-10-10T15:24:27Z</time></trkpt><trkpt lat="43.456904" lon="-0.328715"><ele>209.70</ele><time>2010-10-10T15:24:28Z</time></trkpt><trkpt lat="43.456842" lon="-0.328561"><ele>210.19</ele><time>2010-10-10T15:24:29Z</time></trkpt><trkpt lat="43.456802" lon="-0.328403"><ele>211.15</ele><time>2010-10-10T15:24:30Z</time></trkpt><trkpt lat="43.456786" lon="-0.328218"><ele>211.63</ele><time>2010-10-10T15:24:31Z</time></trkpt><trkpt lat="43.456770" lon="-0.328028"><ele>212.59</ele><time>2010-10-10T15:24:32Z</time></trkpt><trkpt lat="43.456790" lon="-0.327834"><ele>213.55</ele><time>2010-10-10T15:24:33Z</time></trkpt><trkpt lat="43.456830" lon="-0.327632"><ele>214.51</ele><time>2010-10-10T15:24:34Z</time></trkpt><trkpt lat="43.456868" lon="-0.327415"><ele>215.47</ele><time>2010-10-10T15:24:35Z</time></trkpt><trkpt lat="43.457392" lon="-0.324439"><ele>228.45</ele><time>2010-10-10T15:24:48Z</time></trkpt><trkpt lat="43.457644" lon="-0.323336"><ele>232.78</ele><time>2010-10-10T15:24:54Z</time></trkpt><trkpt lat="43.457709" lon="-0.323173"><ele>232.78</ele><time>2010-10-10T15:24:55Z</time></trkpt><trkpt lat="43.457782" lon="-0.323026"><ele>233.26</ele><time>2010-10-10T15:24:56Z</time></trkpt><trkpt lat="43.457880" lon="-0.322896"><ele>233.26</ele><time>2010-10-10T15:24:57Z</time></trkpt><trkpt lat="43.457972" lon="-0.322774"><ele>233.74</ele><time>2010-10-10T15:24:58Z</time></trkpt><trkpt lat="43.458065" lon="-0.322696"><ele>233.74</ele><time>2010-10-10T15:24:59Z</time></trkpt><trkpt lat="43.458168" lon="-0.322644"><ele>234.22</ele><time>2010-10-10T15:25:00Z</time></trkpt><trkpt lat="43.458263" lon="-0.322597"><ele>234.22</ele><time>2010-10-10T15:25:01Z</time></trkpt><trkpt lat="43.458396" lon="-0.322509"><ele>234.70</ele><time>2010-10-10T15:25:02Z</time></trkpt><trkpt lat="43.458423" lon="-0.322509"><ele>234.70</ele><time>2010-10-10T15:25:03Z</time></trkpt><trkpt lat="43.458510" lon="-0.322509"><ele>234.70</ele><time>2010-10-10T15:25:04Z</time></trkpt><trkpt lat="43.458603" lon="-0.322509"><ele>234.70</ele><time>2010-10-10T15:25:05Z</time></trkpt><trkpt lat="43.458705" lon="-0.322509"><ele>234.70</ele><time>2010-10-10T15:25:06Z</time></trkpt><trkpt lat="43.459254" lon="-0.322559"><ele>234.22</ele><time>2010-10-10T15:25:13Z</time></trkpt><trkpt lat="43.459798" lon="-0.322645"><ele>234.70</ele><time>2010-10-10T15:25:22Z</time></trkpt><trkpt lat="43.459845" lon="-0.322657"><ele>234.70</ele><time>2010-10-10T15:25:23Z</time></trkpt><trkpt lat="43.459884" lon="-0.322666"><ele>234.22</ele><time>2010-10-10T15:25:24Z</time></trkpt><trkpt lat="43.459911" lon="-0.322673"><ele>234.22</ele><time>2010-10-10T15:25:25Z</time></trkpt><trkpt lat="43.460060" lon="-0.322680"><ele>234.70</ele><time>2010-10-10T15:25:30Z</time></trkpt><trkpt lat="43.460112" lon="-0.322680"><ele>234.70</ele><time>2010-10-10T15:25:31Z</time></trkpt><trkpt lat="43.460112" lon="-0.322680"><ele>234.70</ele><time>2010-10-10T15:25:32Z</time></trkpt><trkpt lat="43.460232" lon="-0.322702"><ele>234.70</ele><time>2010-10-10T15:25:33Z</time></trkpt><trkpt lat="43.460293" lon="-0.322713"><ele>234.22</ele><time>2010-10-10T15:25:34Z</time></trkpt><trkpt lat="43.460349" lon="-0.322723"><ele>234.22</ele><time>2010-10-10T15:25:35Z</time></trkpt><trkpt lat="43.460414" lon="-0.322735"><ele>234.22</ele><time>2010-10-10T15:25:36Z</time></trkpt><trkpt lat="43.460495" lon="-0.322750"><ele>233.74</ele><time>2010-10-10T15:25:37Z</time></trkpt><trkpt lat="43.460593" lon="-0.322768"><ele>233.74</ele><time>2010-10-10T15:25:38Z</time></trkpt><trkpt lat="43.460690" lon="-0.322786"><ele>234.22</ele><time>2010-10-10T15:25:39Z</time></trkpt><trkpt lat="43.460772" lon="-0.322800"><ele>234.22</ele><time>2010-10-10T15:25:40Z</time></trkpt><trkpt lat="43.461543" lon="-0.322940"><ele>233.26</ele><time>2010-10-10T15:25:47Z</time></trkpt><trkpt lat="43.463161" lon="-0.323186"><ele>232.78</ele><time>2010-10-10T15:25:56Z</time></trkpt><trkpt lat="43.465960" lon="-0.323619"><ele>231.33</ele><time>2010-10-10T15:26:10Z</time></trkpt><trkpt lat="43.468540" lon="-0.324022"><ele>229.89</ele><time>2010-10-10T15:26:22Z</time></trkpt><trkpt lat="43.471072" lon="-0.324403"><ele>228.45</ele><time>2010-10-10T15:26:34Z</time></trkpt><trkpt lat="43.472492" lon="-0.324622"><ele>227.97</ele><time>2010-10-10T15:26:42Z</time></trkpt><trkpt lat="43.472788" lon="-0.324671"><ele>228.45</ele><time>2010-10-10T15:26:45Z</time></trkpt><trkpt lat="43.472852" lon="-0.324682"><ele>228.45</ele><time>2010-10-10T15:26:46Z</time></trkpt><trkpt lat="43.472972" lon="-0.324702"><ele>228.93</ele><time>2010-10-10T15:26:48Z</time></trkpt><trkpt lat="43.473043" lon="-0.324714"><ele>228.93</ele><time>2010-10-10T15:26:49Z</time></trkpt><trkpt lat="43.473116" lon="-0.324726"><ele>228.93</ele><time>2010-10-10T15:26:50Z</time></trkpt><trkpt lat="43.473188" lon="-0.324738"><ele>228.93</ele><time>2010-10-10T15:26:51Z</time></trkpt><trkpt lat="43.473256" lon="-0.324749"><ele>228.93</ele><time>2010-10-10T15:26:52Z</time></trkpt><trkpt lat="43.473321" lon="-0.324760"><ele>228.45</ele><time>2010-10-10T15:26:53Z</time></trkpt><trkpt lat="43.473395" lon="-0.324773"><ele>227.97</ele><time>2010-10-10T15:26:54Z</time></trkpt><trkpt lat="43.473485" lon="-0.324788"><ele>227.49</ele><time>2010-10-10T15:26:55Z</time></trkpt><trkpt lat="43.473591" lon="-0.324805"><ele>227.49</ele><time>2010-10-10T15:26:56Z</time></trkpt><trkpt lat="43.474491" lon="-0.324955"><ele>226.05</ele><time>2010-10-10T15:27:02Z</time></trkpt><trkpt lat="43.476337" lon="-0.325250"><ele>224.12</ele><time>2010-10-10T15:27:11Z</time></trkpt><trkpt lat="43.479636" lon="-0.325769"><ele>222.68</ele><time>2010-10-10T15:27:26Z</time></trkpt><trkpt lat="43.482696" lon="-0.326232"><ele>215.47</ele><time>2010-10-10T15:27:40Z</time></trkpt><trkpt lat="43.485572" lon="-0.326718"><ele>206.82</ele><time>2010-10-10T15:27:53Z</time></trkpt><trkpt lat="43.487362" lon="-0.326926"><ele>206.82</ele><time>2010-10-10T15:28:02Z</time></trkpt><trkpt lat="43.488548" lon="-0.326595"><ele>205.38</ele><time>2010-10-10T15:28:09Z</time></trkpt><trkpt lat="43.490419" lon="-0.325551"><ele>194.32</ele><time>2010-10-10T15:28:19Z</time></trkpt><trkpt lat="43.492509" lon="-0.324381"><ele>185.67</ele><time>2010-10-10T15:28:30Z</time></trkpt><trkpt lat="43.495195" lon="-0.322922"><ele>176.06</ele><time>2010-10-10T15:28:43Z</time></trkpt><trkpt lat="43.497926" lon="-0.321428"><ele>165.48</ele><time>2010-10-10T15:28:56Z</time></trkpt><trkpt lat="43.499997" lon="-0.320329"><ele>156.35</ele><time>2010-10-10T15:29:07Z</time></trkpt><trkpt lat="43.502019" lon="-0.319224"><ele>152.51</ele><time>2010-10-10T15:29:18Z</time></trkpt><trkpt lat="43.504930" lon="-0.317598"><ele>145.30</ele><time>2010-10-10T15:29:34Z</time></trkpt><trkpt lat="43.507517" lon="-0.316143"><ele>142.41</ele><time>2010-10-10T15:29:48Z</time></trkpt><trkpt lat="43.510384" lon="-0.314595"><ele>144.34</ele><time>2010-10-10T15:30:03Z</time></trkpt><trkpt lat="43.511563" lon="-0.313643"><ele>149.14</ele><time>2010-10-10T15:30:10Z</time></trkpt><trkpt lat="43.512272" lon="-0.312774"><ele>151.54</ele><time>2010-10-10T15:30:15Z</time></trkpt><trkpt lat="43.512376" lon="-0.312567"><ele>152.03</ele><time>2010-10-10T15:30:16Z</time></trkpt><trkpt lat="43.512457" lon="-0.312349"><ele>152.99</ele><time>2010-10-10T15:30:17Z</time></trkpt><trkpt lat="43.512518" lon="-0.312120"><ele>153.47</ele><time>2010-10-10T15:30:18Z</time></trkpt><trkpt lat="43.512578" lon="-0.311895"><ele>154.43</ele><time>2010-10-10T15:30:19Z</time></trkpt><trkpt lat="43.512609" lon="-0.311658"><ele>155.39</ele><time>2010-10-10T15:30:20Z</time></trkpt><trkpt lat="43.512624" lon="-0.311420"><ele>156.35</ele><time>2010-10-10T15:30:21Z</time></trkpt><trkpt lat="43.512640" lon="-0.311185"><ele>157.31</ele><time>2010-10-10T15:30:22Z</time></trkpt><trkpt lat="43.512620" lon="-0.310938"><ele>158.27</ele><time>2010-10-10T15:30:23Z</time></trkpt><trkpt lat="43.512365" lon="-0.308328"><ele>168.85</ele><time>2010-10-10T15:30:34Z</time></trkpt><trkpt lat="43.512305" lon="-0.308122"><ele>169.81</ele><time>2010-10-10T15:30:35Z</time></trkpt><trkpt lat="43.512245" lon="-0.307915"><ele>170.77</ele><time>2010-10-10T15:30:36Z</time></trkpt><trkpt lat="43.511822" lon="-0.306563"><ele>177.50</ele><time>2010-10-10T15:30:43Z</time></trkpt><trkpt lat="43.511798" lon="-0.306397"><ele>178.46</ele><time>2010-10-10T15:30:44Z</time></trkpt><trkpt lat="43.511794" lon="-0.306263"><ele>179.42</ele><time>2010-10-10T15:30:45Z</time></trkpt><trkpt lat="43.511850" lon="-0.306152"><ele>180.38</ele><time>2010-10-10T15:30:46Z</time></trkpt><trkpt lat="43.511906" lon="-0.306039"><ele>180.87</ele><time>2010-10-10T15:30:47Z</time></trkpt><trkpt lat="43.511966" lon="-0.305996"><ele>181.83</ele><time>2010-10-10T15:30:48Z</time></trkpt><trkpt lat="43.512062" lon="-0.305939"><ele>182.31</ele><time>2010-10-10T15:30:49Z</time></trkpt><trkpt lat="43.512137" lon="-0.305904"><ele>183.27</ele><time>2010-10-10T15:30:50Z</time></trkpt><trkpt lat="43.512243" lon="-0.305940"><ele>184.23</ele><time>2010-10-10T15:30:51Z</time></trkpt><trkpt lat="43.512351" lon="-0.305976"><ele>185.19</ele><time>2010-10-10T15:30:52Z</time></trkpt><trkpt lat="43.512454" lon="-0.306057"><ele>186.15</ele><time>2010-10-10T15:30:53Z</time></trkpt><trkpt lat="43.512560" lon="-0.306164"><ele>186.63</ele><time>2010-10-10T15:30:54Z</time></trkpt><trkpt lat="43.513494" lon="-0.307234"><ele>191.44</ele><time>2010-10-10T15:31:02Z</time></trkpt><trkpt lat="43.513619" lon="-0.307326"><ele>192.40</ele><time>2010-10-10T15:31:03Z</time></trkpt><trkpt lat="43.513762" lon="-0.307360"><ele>193.36</ele><time>2010-10-10T15:31:04Z</time></trkpt><trkpt lat="43.513895" lon="-0.307360"><ele>193.84</ele><time>2010-10-10T15:31:05Z</time></trkpt><trkpt lat="43.514029" lon="-0.307328"><ele>194.80</ele><time>2010-10-10T15:31:06Z</time></trkpt><trkpt lat="43.514151" lon="-0.307260"><ele>195.77</ele><time>2010-10-10T15:31:07Z</time></trkpt><trkpt lat="43.514273" lon="-0.307192"><ele>196.25</ele><time>2010-10-10T15:31:08Z</time></trkpt><trkpt lat="43.514396" lon="-0.307113"><ele>197.21</ele><time>2010-10-10T15:31:09Z</time></trkpt><trkpt lat="43.515578" lon="-0.306191"><ele>207.78</ele><time>2010-10-10T15:31:18Z</time></trkpt><trkpt lat="43.515704" lon="-0.306115"><ele>209.22</ele><time>2010-10-10T15:31:19Z</time></trkpt><trkpt lat="43.515840" lon="-0.306115"><ele>210.67</ele><time>2010-10-10T15:31:20Z</time></trkpt><trkpt lat="43.515976" lon="-0.306115"><ele>211.63</ele><time>2010-10-10T15:31:21Z</time></trkpt><trkpt lat="43.516088" lon="-0.306182"><ele>212.59</ele><time>2010-10-10T15:31:22Z</time></trkpt><trkpt lat="43.516210" lon="-0.306263"><ele>213.55</ele><time>2010-10-10T15:31:23Z</time></trkpt><trkpt lat="43.516330" lon="-0.306343"><ele>214.51</ele><time>2010-10-10T15:31:24Z</time></trkpt><trkpt lat="43.516427" lon="-0.306478"><ele>214.99</ele><time>2010-10-10T15:31:25Z</time></trkpt><trkpt lat="43.516509" lon="-0.306642"><ele>215.47</ele><time>2010-10-10T15:31:26Z</time></trkpt><trkpt lat="43.516579" lon="-0.306815"><ele>215.47</ele><time>2010-10-10T15:31:27Z</time></trkpt><trkpt lat="43.516639" lon="-0.306995"><ele>215.95</ele><time>2010-10-10T15:31:28Z</time></trkpt><trkpt lat="43.516777" lon="-0.307302"><ele>216.91</ele><time>2010-10-10T15:31:30Z</time></trkpt><trkpt lat="43.516868" lon="-0.307411"><ele>217.40</ele><time>2010-10-10T15:31:31Z</time></trkpt><trkpt lat="43.516959" lon="-0.307503"><ele>218.36</ele><time>2010-10-10T15:31:32Z</time></trkpt><trkpt lat="43.517071" lon="-0.307564"><ele>218.84</ele><time>2010-10-10T15:31:33Z</time></trkpt><trkpt lat="43.517188" lon="-0.307628"><ele>219.32</ele><time>2010-10-10T15:31:34Z</time></trkpt><trkpt lat="43.517310" lon="-0.307695"><ele>219.80</ele><time>2010-10-10T15:31:35Z</time></trkpt><trkpt lat="43.517997" lon="-0.308018"><ele>223.64</ele><time>2010-10-10T15:31:40Z</time></trkpt><trkpt lat="43.518145" lon="-0.308037"><ele>224.12</ele><time>2010-10-10T15:31:41Z</time></trkpt><trkpt lat="43.518289" lon="-0.308014"><ele>225.09</ele><time>2010-10-10T15:31:42Z</time></trkpt><trkpt lat="43.518432" lon="-0.307948"><ele>225.57</ele><time>2010-10-10T15:31:43Z</time></trkpt><trkpt lat="43.518578" lon="-0.307881"><ele>226.53</ele><time>2010-10-10T15:31:44Z</time></trkpt><trkpt lat="43.518725" lon="-0.307813"><ele>227.01</ele><time>2010-10-10T15:31:45Z</time></trkpt><trkpt lat="43.518864" lon="-0.307729"><ele>227.97</ele><time>2010-10-10T15:31:46Z</time></trkpt><trkpt lat="43.519005" lon="-0.307633"><ele>228.45</ele><time>2010-10-10T15:31:47Z</time></trkpt><trkpt lat="43.519150" lon="-0.307533"><ele>229.41</ele><time>2010-10-10T15:31:48Z</time></trkpt><trkpt lat="43.520791" lon="-0.306516"><ele>235.66</ele><time>2010-10-10T15:31:58Z</time></trkpt><trkpt lat="43.522715" lon="-0.305410"><ele>230.85</ele><time>2010-10-10T15:32:07Z</time></trkpt><trkpt lat="43.525585" lon="-0.303761"><ele>224.61</ele><time>2010-10-10T15:32:20Z</time></trkpt><trkpt lat="43.527848" lon="-0.302449"><ele>228.45</ele><time>2010-10-10T15:32:31Z</time></trkpt><trkpt lat="43.529752" lon="-0.301354"><ele>231.81</ele><time>2010-10-10T15:32:42Z</time></trkpt><trkpt lat="43.532394" lon="-0.299837"><ele>214.99</ele><time>2010-10-10T15:32:56Z</time></trkpt><trkpt lat="43.535081" lon="-0.298283"><ele>213.55</ele><time>2010-10-10T15:33:09Z</time></trkpt><trkpt lat="43.538123" lon="-0.296557"><ele>209.22</ele><time>2010-10-10T15:33:23Z</time></trkpt><trkpt lat="43.540698" lon="-0.295052"><ele>214.03</ele><time>2010-10-10T15:33:36Z</time></trkpt><trkpt lat="43.542519" lon="-0.294016"><ele>219.32</ele><time>2010-10-10T15:33:47Z</time></trkpt><trkpt lat="43.544633" lon="-0.292803"><ele>211.63</ele><time>2010-10-10T15:33:59Z</time></trkpt><trkpt lat="43.546536" lon="-0.291708"><ele>209.70</ele><time>2010-10-10T15:34:10Z</time></trkpt><trkpt lat="43.548372" lon="-0.290657"><ele>207.78</ele><time>2010-10-10T15:34:20Z</time></trkpt><trkpt lat="43.551170" lon="-0.289067"><ele>206.34</ele><time>2010-10-10T15:34:35Z</time></trkpt><trkpt lat="43.553328" lon="-0.287826"><ele>209.22</ele><time>2010-10-10T15:34:47Z</time></trkpt><trkpt lat="43.555007" lon="-0.286826"><ele>209.70</ele><time>2010-10-10T15:34:58Z</time></trkpt><trkpt lat="43.556974" lon="-0.285704"><ele>206.82</ele><time>2010-10-10T15:35:12Z</time></trkpt><trkpt lat="43.557726" lon="-0.285269"><ele>205.86</ele><time>2010-10-10T15:35:19Z</time></trkpt><trkpt lat="43.557788" lon="-0.285201"><ele>205.86</ele><time>2010-10-10T15:35:20Z</time></trkpt><trkpt lat="43.557831" lon="-0.285143"><ele>205.38</ele><time>2010-10-10T15:35:21Z</time></trkpt><trkpt lat="43.557873" lon="-0.285037"><ele>205.38</ele><time>2010-10-10T15:35:22Z</time></trkpt><trkpt lat="43.557873" lon="-0.284947"><ele>204.90</ele><time>2010-10-10T15:35:23Z</time></trkpt><trkpt lat="43.557873" lon="-0.284860"><ele>204.90</ele><time>2010-10-10T15:35:24Z</time></trkpt><trkpt lat="43.557949" lon="-0.284727"><ele>204.42</ele><time>2010-10-10T15:35:25Z</time></trkpt><trkpt lat="43.558043" lon="-0.284731"><ele>203.94</ele><time>2010-10-10T15:35:26Z</time></trkpt><trkpt lat="43.558096" lon="-0.284771"><ele>203.94</ele><time>2010-10-10T15:35:27Z</time></trkpt><trkpt lat="43.558160" lon="-0.284819"><ele>203.94</ele><time>2010-10-10T15:35:28Z</time></trkpt><trkpt lat="43.558234" lon="-0.284953"><ele>203.94</ele><time>2010-10-10T15:35:29Z</time></trkpt><trkpt lat="43.558300" lon="-0.284936"><ele>203.94</ele><time>2010-10-10T15:35:30Z</time></trkpt><trkpt lat="43.558375" lon="-0.284917"><ele>203.94</ele><time>2010-10-10T15:35:31Z</time></trkpt><trkpt lat="43.558459" lon="-0.284895"><ele>203.94</ele><time>2010-10-10T15:35:32Z</time></trkpt><trkpt lat="43.558548" lon="-0.284872"><ele>204.42</ele><time>2010-10-10T15:35:33Z</time></trkpt><trkpt lat="43.558647" lon="-0.284846"><ele>204.42</ele><time>2010-10-10T15:35:34Z</time></trkpt><trkpt lat="43.558756" lon="-0.284818"><ele>204.90</ele><time>2010-10-10T15:35:35Z</time></trkpt><trkpt lat="43.559946" lon="-0.284476"><ele>205.38</ele><time>2010-10-10T15:35:43Z</time></trkpt><trkpt lat="43.562262" lon="-0.283738"><ele>205.38</ele><time>2010-10-10T15:35:55Z</time></trkpt><trkpt lat="43.564745" lon="-0.282886"><ele>203.46</ele><time>2010-10-10T15:36:08Z</time></trkpt><trkpt lat="43.567996" lon="-0.281798"><ele>201.53</ele><time>2010-10-10T15:36:24Z</time></trkpt><trkpt lat="43.570920" lon="-0.280824"><ele>199.61</ele><time>2010-10-10T15:36:39Z</time></trkpt><trkpt lat="43.573307" lon="-0.280025"><ele>199.61</ele><time>2010-10-10T15:36:51Z</time></trkpt><trkpt lat="43.576236" lon="-0.279038"><ele>197.21</ele><time>2010-10-10T15:37:06Z</time></trkpt><trkpt lat="43.578504" lon="-0.278296"><ele>195.77</ele><time>2010-10-10T15:37:18Z</time></trkpt><trkpt lat="43.581478" lon="-0.277295"><ele>195.77</ele><time>2010-10-10T15:37:33Z</time></trkpt><trkpt lat="43.584157" lon="-0.276387"><ele>195.28</ele><time>2010-10-10T15:37:47Z</time></trkpt><trkpt lat="43.586827" lon="-0.275493"><ele>191.92</ele><time>2010-10-10T15:38:00Z</time></trkpt><trkpt lat="43.588995" lon="-0.274792"><ele>190.00</ele><time>2010-10-10T15:38:11Z</time></trkpt><trkpt lat="43.591014" lon="-0.274099"><ele>189.52</ele><time>2010-10-10T15:38:22Z</time></trkpt><trkpt lat="43.592667" lon="-0.273578"><ele>187.11</ele><time>2010-10-10T15:38:32Z</time></trkpt><trkpt lat="43.595051" lon="-0.272925"><ele>185.67</ele><time>2010-10-10T15:38:46Z</time></trkpt><trkpt lat="43.597050" lon="-0.272790"><ele>185.67</ele><time>2010-10-10T15:38:57Z</time></trkpt><trkpt lat="43.600616" lon="-0.272673"><ele>183.75</ele><time>2010-10-10T15:39:15Z</time></trkpt><trkpt lat="43.603067" lon="-0.272598"><ele>182.79</ele><time>2010-10-10T15:39:28Z</time></trkpt><trkpt lat="43.605475" lon="-0.272555"><ele>183.75</ele><time>2010-10-10T15:39:41Z</time></trkpt><trkpt lat="43.608230" lon="-0.272470"><ele>183.75</ele><time>2010-10-10T15:39:55Z</time></trkpt><trkpt lat="43.610394" lon="-0.272429"><ele>183.27</ele><time>2010-10-10T15:40:06Z</time></trkpt><trkpt lat="43.613307" lon="-0.272341"><ele>182.31</ele><time>2010-10-10T15:40:19Z</time></trkpt><trkpt lat="43.615641" lon="-0.272272"><ele>180.38</ele><time>2010-10-10T15:40:30Z</time></trkpt><trkpt lat="43.618878" lon="-0.272151"><ele>179.42</ele><time>2010-10-10T15:40:46Z</time></trkpt><trkpt lat="43.622047" lon="-0.272073"><ele>177.02</ele><time>2010-10-10T15:41:01Z</time></trkpt><trkpt lat="43.625276" lon="-0.271960"><ele>177.02</ele><time>2010-10-10T15:41:16Z</time></trkpt><trkpt lat="43.628756" lon="-0.271830"><ele>175.10</ele><time>2010-10-10T15:41:32Z</time></trkpt><trkpt lat="43.631272" lon="-0.271673"><ele>172.69</ele><time>2010-10-10T15:41:44Z</time></trkpt><trkpt lat="43.634093" lon="-0.271529"><ele>172.69</ele><time>2010-10-10T15:41:57Z</time></trkpt><trkpt lat="43.637492" lon="-0.271347"><ele>171.73</ele><time>2010-10-10T15:42:13Z</time></trkpt><trkpt lat="43.639204" lon="-0.271381"><ele>172.21</ele><time>2010-10-10T15:42:22Z</time></trkpt><trkpt lat="43.641358" lon="-0.271650"><ele>171.73</ele><time>2010-10-10T15:42:34Z</time></trkpt><trkpt lat="43.642954" lon="-0.271877"><ele>170.77</ele><time>2010-10-10T15:42:43Z</time></trkpt><trkpt lat="43.644802" lon="-0.272137"><ele>169.81</ele><time>2010-10-10T15:42:52Z</time></trkpt><trkpt lat="43.647817" lon="-0.272561"><ele>168.37</ele><time>2010-10-10T15:43:05Z</time></trkpt><trkpt lat="43.651761" lon="-0.273118"><ele>165.96</ele><time>2010-10-10T15:43:24Z</time></trkpt><trkpt lat="43.655372" lon="-0.273635"><ele>164.04</ele><time>2010-10-10T15:43:42Z</time></trkpt><trkpt lat="43.657995" lon="-0.273984"><ele>164.04</ele><time>2010-10-10T15:43:55Z</time></trkpt><trkpt lat="43.661060" lon="-0.274419"><ele>163.08</ele><time>2010-10-10T15:44:09Z</time></trkpt><trkpt lat="43.663511" lon="-0.274751"><ele>161.64</ele><time>2010-10-10T15:44:21Z</time></trkpt><trkpt lat="43.664090" lon="-0.274827"><ele>162.12</ele><time>2010-10-10T15:44:26Z</time></trkpt><trkpt lat="43.664116" lon="-0.274762"><ele>161.64</ele><time>2010-10-10T15:44:27Z</time></trkpt><trkpt lat="43.664254" lon="-0.274615"><ele>161.64</ele><time>2010-10-10T15:44:29Z</time></trkpt><trkpt lat="43.664338" lon="-0.274641"><ele>161.16</ele><time>2010-10-10T15:44:30Z</time></trkpt><trkpt lat="43.664403" lon="-0.274690"><ele>161.16</ele><time>2010-10-10T15:44:31Z</time></trkpt><trkpt lat="43.664464" lon="-0.274736"><ele>161.16</ele><time>2010-10-10T15:44:32Z</time></trkpt><trkpt lat="43.664518" lon="-0.274916"><ele>161.16</ele><time>2010-10-10T15:44:33Z</time></trkpt><trkpt lat="43.664486" lon="-0.274964"><ele>161.16</ele><time>2010-10-10T15:44:34Z</time></trkpt><trkpt lat="43.664438" lon="-0.275036"><ele>160.68</ele><time>2010-10-10T15:44:35Z</time></trkpt><trkpt lat="43.664353" lon="-0.275168"><ele>160.68</ele><time>2010-10-10T15:44:36Z</time></trkpt><trkpt lat="43.664369" lon="-0.275264"><ele>160.20</ele><time>2010-10-10T15:44:37Z</time></trkpt><trkpt lat="43.664386" lon="-0.275366"><ele>159.72</ele><time>2010-10-10T15:44:38Z</time></trkpt><trkpt lat="43.664406" lon="-0.275481"><ele>159.72</ele><time>2010-10-10T15:44:39Z</time></trkpt><trkpt lat="43.664428" lon="-0.275610"><ele>159.24</ele><time>2010-10-10T15:44:40Z</time></trkpt><trkpt lat="43.664495" lon="-0.276009"><ele>158.75</ele><time>2010-10-10T15:44:43Z</time></trkpt><trkpt lat="43.664512" lon="-0.276107"><ele>158.75</ele><time>2010-10-10T15:44:44Z</time></trkpt><trkpt lat="43.664522" lon="-0.276166"><ele>158.27</ele><time>2010-10-10T15:44:45Z</time></trkpt><trkpt lat="43.664541" lon="-0.276278"><ele>158.27</ele><time>2010-10-10T15:44:48Z</time></trkpt><trkpt lat="43.664555" lon="-0.276358"><ele>158.27</ele><time>2010-10-10T15:44:49Z</time></trkpt><trkpt lat="43.664573" lon="-0.276463"><ele>157.31</ele><time>2010-10-10T15:44:50Z</time></trkpt><trkpt lat="43.664594" lon="-0.276589"><ele>156.83</ele><time>2010-10-10T15:44:51Z</time></trkpt><trkpt lat="43.664619" lon="-0.276738"><ele>156.83</ele><time>2010-10-10T15:44:52Z</time></trkpt><trkpt lat="43.664648" lon="-0.276905"><ele>155.87</ele><time>2010-10-10T15:44:53Z</time></trkpt><trkpt lat="43.664677" lon="-0.277079"><ele>155.39</ele><time>2010-10-10T15:44:54Z</time></trkpt><trkpt lat="43.664708" lon="-0.277262"><ele>154.91</ele><time>2010-10-10T15:44:55Z</time></trkpt><trkpt lat="43.664740" lon="-0.277446"><ele>153.95</ele><time>2010-10-10T15:44:56Z</time></trkpt><trkpt lat="43.664878" lon="-0.278262"><ele>150.58</ele><time>2010-10-10T15:45:01Z</time></trkpt><trkpt lat="43.664906" lon="-0.278425"><ele>149.62</ele><time>2010-10-10T15:45:02Z</time></trkpt><trkpt lat="43.665179" lon="-0.279935"><ele>141.45</ele><time>2010-10-10T15:45:09Z</time></trkpt><trkpt lat="43.665837" lon="-0.281803"><ele>131.36</ele><time>2010-10-10T15:45:17Z</time></trkpt><trkpt lat="43.666855" lon="-0.283318"><ele>120.78</ele><time>2010-10-10T15:45:25Z</time></trkpt><trkpt lat="43.668270" lon="-0.284411"><ele>113.09</ele><time>2010-10-10T15:45:34Z</time></trkpt><trkpt lat="43.670883" lon="-0.285951"><ele>113.09</ele><time>2010-10-10T15:45:48Z</time></trkpt><trkpt lat="43.673537" lon="-0.287451"><ele>113.57</ele><time>2010-10-10T15:46:01Z</time></trkpt><trkpt lat="43.676325" lon="-0.289000"><ele>115.01</ele><time>2010-10-10T15:46:13Z</time></trkpt><trkpt lat="43.679798" lon="-0.290781"><ele>120.30</ele><time>2010-10-10T15:46:27Z</time></trkpt><trkpt lat="43.682247" lon="-0.291472"><ele>125.59</ele><time>2010-10-10T15:46:37Z</time></trkpt><trkpt lat="43.684884" lon="-0.291772"><ele>122.71</ele><time>2010-10-10T15:46:48Z</time></trkpt><trkpt lat="43.687558" lon="-0.291111"><ele>112.61</ele><time>2010-10-10T15:46:58Z</time></trkpt><trkpt lat="43.689954" lon="-0.290153"><ele>99.15</ele><time>2010-10-10T15:47:06Z</time></trkpt><trkpt lat="43.692468" lon="-0.288540"><ele>90.50</ele><time>2010-10-10T15:47:15Z</time></trkpt><trkpt lat="43.695460" lon="-0.286748"><ele>89.06</ele><time>2010-10-10T15:47:26Z</time></trkpt><trkpt lat="43.700121" lon="-0.284739"><ele>86.66</ele><time>2010-10-10T15:47:44Z</time></trkpt><trkpt lat="43.703025" lon="-0.283509"><ele>85.21</ele><time>2010-10-10T15:47:56Z</time></trkpt><trkpt lat="43.705669" lon="-0.282827"><ele>83.29</ele><time>2010-10-10T15:48:07Z</time></trkpt><trkpt lat="43.708425" lon="-0.282237"><ele>82.33</ele><time>2010-10-10T15:48:19Z</time></trkpt><trkpt lat="43.710389" lon="-0.281350"><ele>81.37</ele><time>2010-10-10T15:48:28Z</time></trkpt><trkpt lat="43.712174" lon="-0.280080"><ele>79.93</ele><time>2010-10-10T15:48:38Z</time></trkpt><trkpt lat="43.714455" lon="-0.278018"><ele>77.52</ele><time>2010-10-10T15:48:53Z</time></trkpt><trkpt lat="43.716689" lon="-0.275998"><ele>75.60</ele><time>2010-10-10T15:49:07Z</time></trkpt><trkpt lat="43.718991" lon="-0.273970"><ele>74.16</ele><time>2010-10-10T15:49:22Z</time></trkpt><trkpt lat="43.721185" lon="-0.272422"><ele>72.72</ele><time>2010-10-10T15:49:35Z</time></trkpt><trkpt lat="43.722944" lon="-0.271723"><ele>73.68</ele><time>2010-10-10T15:49:46Z</time></trkpt><trkpt lat="43.723563" lon="-0.271515"><ele>72.72</ele><time>2010-10-10T15:49:51Z</time></trkpt><trkpt lat="43.723640" lon="-0.271464"><ele>72.72</ele><time>2010-10-10T15:49:52Z</time></trkpt><trkpt lat="43.723708" lon="-0.271419"><ele>72.72</ele><time>2010-10-10T15:49:53Z</time></trkpt><trkpt lat="43.723779" lon="-0.271297"><ele>72.72</ele><time>2010-10-10T15:49:54Z</time></trkpt><trkpt lat="43.723810" lon="-0.271212"><ele>72.72</ele><time>2010-10-10T15:49:55Z</time></trkpt><trkpt lat="43.723779" lon="-0.270993"><ele>72.72</ele><time>2010-10-10T15:49:56Z</time></trkpt><trkpt lat="43.723741" lon="-0.270967"><ele>72.72</ele><time>2010-10-10T15:49:57Z</time></trkpt><trkpt lat="43.723693" lon="-0.270904"><ele>72.72</ele><time>2010-10-10T15:49:58Z</time></trkpt><trkpt lat="43.723612" lon="-0.270796"><ele>72.72</ele><time>2010-10-10T15:49:59Z</time></trkpt><trkpt lat="43.723612" lon="-0.270697"><ele>72.72</ele><time>2010-10-10T15:50:00Z</time></trkpt><trkpt lat="43.723632" lon="-0.270552"><ele>73.20</ele><time>2010-10-10T15:50:01Z</time></trkpt><trkpt lat="43.723685" lon="-0.270473"><ele>73.20</ele><time>2010-10-10T15:50:02Z</time></trkpt><trkpt lat="43.723733" lon="-0.270382"><ele>73.20</ele><time>2010-10-10T15:50:03Z</time></trkpt><trkpt lat="43.723821" lon="-0.270347"><ele>73.20</ele><time>2010-10-10T15:50:04Z</time></trkpt><trkpt lat="43.723902" lon="-0.270327"><ele>73.20</ele><time>2010-10-10T15:50:05Z</time></trkpt><trkpt lat="43.723971" lon="-0.270368"><ele>73.68</ele><time>2010-10-10T15:50:06Z</time></trkpt><trkpt lat="43.724039" lon="-0.270419"><ele>73.68</ele><time>2010-10-10T15:50:07Z</time></trkpt><trkpt lat="43.724093" lon="-0.270475"><ele>73.68</ele><time>2010-10-10T15:50:08Z</time></trkpt><trkpt lat="43.724128" lon="-0.270562"><ele>73.68</ele><time>2010-10-10T15:50:09Z</time></trkpt><trkpt lat="43.724162" lon="-0.270646"><ele>73.20</ele><time>2010-10-10T15:50:10Z</time></trkpt><trkpt lat="43.724161" lon="-0.270694"><ele>73.20</ele><time>2010-10-10T15:50:11Z</time></trkpt><trkpt lat="43.724148" lon="-0.270735"><ele>73.20</ele><time>2010-10-10T15:50:12Z</time></trkpt><trkpt lat="43.724298" lon="-0.270918"><ele>73.20</ele><time>2010-10-10T15:50:13Z</time></trkpt><trkpt lat="43.724370" lon="-0.270915"><ele>73.20</ele><time>2010-10-10T15:50:14Z</time></trkpt><trkpt lat="43.724452" lon="-0.270913"><ele>73.20</ele><time>2010-10-10T15:50:15Z</time></trkpt><trkpt lat="43.724541" lon="-0.270910"><ele>73.20</ele><time>2010-10-10T15:50:16Z</time></trkpt><trkpt lat="43.725540" lon="-0.270832"><ele>73.20</ele><time>2010-10-10T15:50:25Z</time></trkpt><trkpt lat="43.726513" lon="-0.270108"><ele>73.68</ele><time>2010-10-10T15:50:33Z</time></trkpt><trkpt lat="43.726815" lon="-0.269609"><ele>74.16</ele><time>2010-10-10T15:50:36Z</time></trkpt><trkpt lat="43.726906" lon="-0.269429"><ele>74.16</ele><time>2010-10-10T15:50:37Z</time></trkpt><trkpt lat="43.727900" lon="-0.266993"><ele>77.52</ele><time>2010-10-10T15:50:50Z</time></trkpt><trkpt lat="43.728094" lon="-0.266518"><ele>78.48</ele><time>2010-10-10T15:50:54Z</time></trkpt><trkpt lat="43.728133" lon="-0.266421"><ele>79.45</ele><time>2010-10-10T15:51:00Z</time></trkpt><trkpt lat="43.728198" lon="-0.266231"><ele>79.45</ele><time>2010-10-10T15:51:05Z</time></trkpt><trkpt lat="43.728178" lon="-0.266180"><ele>79.45</ele><time>2010-10-10T15:51:06Z</time></trkpt><trkpt lat="43.728151" lon="-0.266114"><ele>79.45</ele><time>2010-10-10T15:51:07Z</time></trkpt><trkpt lat="43.728120" lon="-0.266036"><ele>79.93</ele><time>2010-10-10T15:51:08Z</time></trkpt><trkpt lat="43.728118" lon="-0.265956"><ele>79.93</ele><time>2010-10-10T15:51:09Z</time></trkpt><trkpt lat="43.728118" lon="-0.265775"><ele>79.93</ele><time>2010-10-10T15:51:10Z</time></trkpt><trkpt lat="43.728123" lon="-0.265772"><ele>79.93</ele><time>2010-10-10T15:51:11Z</time></trkpt><trkpt lat="43.728180" lon="-0.265729"><ele>79.93</ele><time>2010-10-10T15:51:12Z</time></trkpt><trkpt lat="43.728245" lon="-0.265680"><ele>79.93</ele><time>2010-10-10T15:51:13Z</time></trkpt><trkpt lat="43.728305" lon="-0.265650"><ele>79.93</ele><time>2010-10-10T15:51:14Z</time></trkpt><trkpt lat="43.728382" lon="-0.265669"><ele>79.93</ele><time>2010-10-10T15:51:15Z</time></trkpt><trkpt lat="43.728462" lon="-0.265689"><ele>79.93</ele><time>2010-10-10T15:51:16Z</time></trkpt><trkpt lat="43.728487" lon="-0.265776"><ele>79.93</ele><time>2010-10-10T15:51:17Z</time></trkpt><trkpt lat="43.728487" lon="-0.265776"><ele>79.93</ele><time>2010-10-10T15:51:18Z</time></trkpt><trkpt lat="43.728635" lon="-0.266009"><ele>79.93</ele><time>2010-10-10T15:51:19Z</time></trkpt><trkpt lat="43.728719" lon="-0.266028"><ele>79.93</ele><time>2010-10-10T15:51:20Z</time></trkpt><trkpt lat="43.728813" lon="-0.266050"><ele>79.93</ele><time>2010-10-10T15:51:21Z</time></trkpt><trkpt lat="43.728914" lon="-0.266073"><ele>79.93</ele><time>2010-10-10T15:51:22Z</time></trkpt><trkpt lat="43.730094" lon="-0.266342"><ele>79.93</ele><time>2010-10-10T15:51:31Z</time></trkpt><trkpt lat="43.731869" lon="-0.266746"><ele>79.45</ele><time>2010-10-10T15:51:44Z</time></trkpt><trkpt lat="43.733213" lon="-0.267019"><ele>79.45</ele><time>2010-10-10T15:51:56Z</time></trkpt><trkpt lat="43.733317" lon="-0.267019"><ele>78.97</ele><time>2010-10-10T15:52:02Z</time></trkpt><trkpt lat="43.733397" lon="-0.267044"><ele>79.45</ele><time>2010-10-10T15:52:06Z</time></trkpt><trkpt lat="43.733467" lon="-0.266927"><ele>79.45</ele><time>2010-10-10T15:52:08Z</time></trkpt><trkpt lat="43.733544" lon="-0.266908"><ele>78.97</ele><time>2010-10-10T15:52:09Z</time></trkpt><trkpt lat="43.733631" lon="-0.266897"><ele>78.97</ele><time>2010-10-10T15:52:10Z</time></trkpt><trkpt lat="43.733713" lon="-0.266924"><ele>78.97</ele><time>2010-10-10T15:52:11Z</time></trkpt><trkpt lat="43.733826" lon="-0.267105"><ele>78.97</ele><time>2010-10-10T15:52:12Z</time></trkpt><trkpt lat="43.733858" lon="-0.267128"><ele>78.97</ele><time>2010-10-10T15:52:13Z</time></trkpt><trkpt lat="43.733952" lon="-0.267195"><ele>78.97</ele><time>2010-10-10T15:52:14Z</time></trkpt><trkpt lat="43.734054" lon="-0.267268"><ele>78.97</ele><time>2010-10-10T15:52:15Z</time></trkpt><trkpt lat="43.734173" lon="-0.267332"><ele>78.97</ele><time>2010-10-10T15:52:16Z</time></trkpt><trkpt lat="43.735493" lon="-0.267654"><ele>78.00</ele><time>2010-10-10T15:52:25Z</time></trkpt><trkpt lat="43.737811" lon="-0.268241"><ele>77.52</ele><time>2010-10-10T15:52:39Z</time></trkpt><trkpt lat="43.740175" lon="-0.268831"><ele>77.04</ele><time>2010-10-10T15:52:52Z</time></trkpt><trkpt lat="43.743005" lon="-0.269512"><ele>78.00</ele><time>2010-10-10T15:53:08Z</time></trkpt><trkpt lat="43.744824" lon="-0.269896"><ele>78.97</ele><time>2010-10-10T15:53:20Z</time></trkpt><trkpt lat="43.745511" lon="-0.270056"><ele>79.45</ele><time>2010-10-10T15:53:26Z</time></trkpt><trkpt lat="43.745664" lon="-0.270071"><ele>79.45</ele><time>2010-10-10T15:53:27Z</time></trkpt><trkpt lat="43.745677" lon="-0.270017"><ele>79.45</ele><time>2010-10-10T15:53:28Z</time></trkpt><trkpt lat="43.745747" lon="-0.269947"><ele>79.45</ele><time>2010-10-10T15:53:29Z</time></trkpt><trkpt lat="43.745822" lon="-0.269883"><ele>79.45</ele><time>2010-10-10T15:53:30Z</time></trkpt><trkpt lat="43.745917" lon="-0.269877"><ele>79.45</ele><time>2010-10-10T15:53:31Z</time></trkpt><trkpt lat="43.745989" lon="-0.269935"><ele>79.93</ele><time>2010-10-10T15:53:32Z</time></trkpt><trkpt lat="43.746069" lon="-0.269998"><ele>79.93</ele><time>2010-10-10T15:53:33Z</time></trkpt><trkpt lat="43.746069" lon="-0.269998"><ele>79.93</ele><time>2010-10-10T15:53:34Z</time></trkpt><trkpt lat="43.746210" lon="-0.270219"><ele>79.93</ele><time>2010-10-10T15:53:35Z</time></trkpt><trkpt lat="43.746299" lon="-0.270250"><ele>79.93</ele><time>2010-10-10T15:53:36Z</time></trkpt><trkpt lat="43.746398" lon="-0.270285"><ele>79.93</ele><time>2010-10-10T15:53:37Z</time></trkpt><trkpt lat="43.746505" lon="-0.270323"><ele>79.45</ele><time>2010-10-10T15:53:38Z</time></trkpt><trkpt lat="43.747828" lon="-0.270717"><ele>79.45</ele><time>2010-10-10T15:53:48Z</time></trkpt><trkpt lat="43.749731" lon="-0.271188"><ele>78.00</ele><time>2010-10-10T15:53:59Z</time></trkpt></trkseg></trk><trk><name>ACTIVE LOG: 10 окт 2010 17:54</name><trkseg><trkpt lat="43.751574" lon="-0.271635"><ele>77.04</ele><time>2010-10-10T15:54:09Z</time></trkpt><trkpt lat="43.753595" lon="-0.272124"><ele>78.97</ele><time>2010-10-10T15:54:19Z</time></trkpt><trkpt lat="43.756330" lon="-0.272787"><ele>84.73</ele><time>2010-10-10T15:54:33Z</time></trkpt><trkpt lat="43.757478" lon="-0.273065"><ele>87.14</ele><time>2010-10-10T15:54:39Z</time></trkpt><trkpt lat="43.757665" lon="-0.273111"><ele>87.62</ele><time>2010-10-10T15:54:40Z</time></trkpt><trkpt lat="43.757847" lon="-0.273155"><ele>88.58</ele><time>2010-10-10T15:54:41Z</time></trkpt><trkpt lat="43.759708" lon="-0.272572"><ele>90.50</ele><time>2010-10-10T15:54:51Z</time></trkpt><trkpt lat="43.760077" lon="-0.272577"><ele>90.50</ele><time>2010-10-10T15:54:54Z</time></trkpt><trkpt lat="43.760263" lon="-0.272592"><ele>90.02</ele><time>2010-10-10T15:54:55Z</time></trkpt><trkpt lat="43.760638" lon="-0.272727"><ele>90.02</ele><time>2010-10-10T15:54:56Z</time></trkpt><trkpt lat="43.760820" lon="-0.272847"><ele>89.54</ele><time>2010-10-10T15:54:57Z</time></trkpt><trkpt lat="43.760983" lon="-0.272994"><ele>89.54</ele><time>2010-10-10T15:54:58Z</time></trkpt><trkpt lat="43.761149" lon="-0.273144"><ele>89.54</ele><time>2010-10-10T15:54:59Z</time></trkpt><trkpt lat="43.761305" lon="-0.273322"><ele>89.06</ele><time>2010-10-10T15:55:00Z</time></trkpt><trkpt lat="43.761455" lon="-0.273516"><ele>89.06</ele><time>2010-10-10T15:55:01Z</time></trkpt><trkpt lat="43.761581" lon="-0.273737"><ele>88.58</ele><time>2010-10-10T15:55:02Z</time></trkpt><trkpt lat="43.761707" lon="-0.273957"><ele>88.10</ele><time>2010-10-10T15:55:03Z</time></trkpt><trkpt lat="43.762864" lon="-0.276188"><ele>80.41</ele><time>2010-10-10T15:55:13Z</time></trkpt><trkpt lat="43.763782" lon="-0.277851"><ele>75.60</ele><time>2010-10-10T15:55:20Z</time></trkpt><trkpt lat="43.763947" lon="-0.278037"><ele>75.60</ele><time>2010-10-10T15:55:21Z</time></trkpt><trkpt lat="43.764112" lon="-0.278222"><ele>76.08</ele><time>2010-10-10T15:55:22Z</time></trkpt><trkpt lat="43.765813" lon="-0.280034"><ele>81.37</ele><time>2010-10-10T15:55:33Z</time></trkpt><trkpt lat="43.768346" lon="-0.282390"><ele>82.81</ele><time>2010-10-10T15:55:49Z</time></trkpt><trkpt lat="43.769905" lon="-0.283115"><ele>78.97</ele><time>2010-10-10T15:55:57Z</time></trkpt><trkpt lat="43.771832" lon="-0.283572"><ele>83.77</ele><time>2010-10-10T15:56:07Z</time></trkpt><trkpt lat="43.773172" lon="-0.283890"><ele>90.98</ele><time>2010-10-10T15:56:16Z</time></trkpt><trkpt lat="43.775194" lon="-0.284362"><ele>95.79</ele><time>2010-10-10T15:56:29Z</time></trkpt><trkpt lat="43.777655" lon="-0.284946"><ele>94.35</ele><time>2010-10-10T15:56:42Z</time></trkpt><trkpt lat="43.780576" lon="-0.285666"><ele>93.87</ele><time>2010-10-10T15:56:57Z</time></trkpt><trkpt lat="43.782785" lon="-0.286217"><ele>98.67</ele><time>2010-10-10T15:57:09Z</time></trkpt><trkpt lat="43.785373" lon="-0.286838"><ele>99.15</ele><time>2010-10-10T15:57:24Z</time></trkpt><trkpt lat="43.787793" lon="-0.287449"><ele>103.48</ele><time>2010-10-10T15:57:37Z</time></trkpt><trkpt lat="43.790132" lon="-0.288033"><ele>107.32</ele><time>2010-10-10T15:57:50Z</time></trkpt><trkpt lat="43.792255" lon="-0.288569"><ele>109.25</ele><time>2010-10-10T15:58:01Z</time></trkpt><trkpt lat="43.793680" lon="-0.288903"><ele>111.65</ele><time>2010-10-10T15:58:09Z</time></trkpt><trkpt lat="43.795319" lon="-0.288081"><ele>110.21</ele><time>2010-10-10T15:58:18Z</time></trkpt><trkpt lat="43.795809" lon="-0.288296"><ele>109.25</ele><time>2010-10-10T15:58:21Z</time></trkpt><trkpt lat="43.795968" lon="-0.288410"><ele>108.77</ele><time>2010-10-10T15:58:22Z</time></trkpt><trkpt lat="43.796130" lon="-0.288526"><ele>108.29</ele><time>2010-10-10T15:58:23Z</time></trkpt><trkpt lat="43.796130" lon="-0.288526"><ele>108.29</ele><time>2010-10-10T15:58:24Z</time></trkpt><trkpt lat="43.796432" lon="-0.288837"><ele>107.81</ele><time>2010-10-10T15:58:25Z</time></trkpt><trkpt lat="43.797612" lon="-0.289826"><ele>104.44</ele><time>2010-10-10T15:58:32Z</time></trkpt><trkpt lat="43.799047" lon="-0.290741"><ele>100.60</ele><time>2010-10-10T15:58:40Z</time></trkpt><trkpt lat="43.801461" lon="-0.292511"><ele>92.90</ele><time>2010-10-10T15:58:53Z</time></trkpt><trkpt lat="43.803656" lon="-0.293850"><ele>87.14</ele><time>2010-10-10T15:59:05Z</time></trkpt><trkpt lat="43.805534" lon="-0.294137"><ele>85.69</ele><time>2010-10-10T15:59:14Z</time></trkpt><trkpt lat="43.807452" lon="-0.294496"><ele>87.62</ele><time>2010-10-10T15:59:24Z</time></trkpt><trkpt lat="43.809715" lon="-0.295485"><ele>84.73</ele><time>2010-10-10T15:59:36Z</time></trkpt><trkpt lat="43.811389" lon="-0.296218"><ele>81.37</ele><time>2010-10-10T15:59:46Z</time></trkpt><trkpt lat="43.812880" lon="-0.296567"><ele>81.37</ele><time>2010-10-10T15:59:56Z</time></trkpt><trkpt lat="43.814683" lon="-0.296586"><ele>81.85</ele><time>2010-10-10T16:00:06Z</time></trkpt><trkpt lat="43.816779" lon="-0.296528"><ele>86.66</ele><time>2010-10-10T16:00:18Z</time></trkpt><trkpt lat="43.818760" lon="-0.296498"><ele>86.66</ele><time>2010-10-10T16:00:28Z</time></trkpt><trkpt lat="43.820858" lon="-0.296535"><ele>83.29</ele><time>2010-10-10T16:00:39Z</time></trkpt><trkpt lat="43.822584" lon="-0.297006"><ele>82.81</ele><time>2010-10-10T16:00:48Z</time></trkpt><trkpt lat="43.825150" lon="-0.297785"><ele>88.58</ele><time>2010-10-10T16:01:02Z</time></trkpt><trkpt lat="43.827765" lon="-0.298595"><ele>88.58</ele><time>2010-10-10T16:01:16Z</time></trkpt><trkpt lat="43.830349" lon="-0.299391"><ele>89.06</ele><time>2010-10-10T16:01:30Z</time></trkpt><trkpt lat="43.832961" lon="-0.300234"><ele>86.18</ele><time>2010-10-10T16:01:44Z</time></trkpt><trkpt lat="43.834558" lon="-0.300757"><ele>84.73</ele><time>2010-10-10T16:01:54Z</time></trkpt><trkpt lat="43.835877" lon="-0.301236"><ele>83.29</ele><time>2010-10-10T16:02:06Z</time></trkpt><trkpt lat="43.836963" lon="-0.301413"><ele>80.41</ele><time>2010-10-10T16:02:16Z</time></trkpt><trkpt lat="43.838365" lon="-0.301500"><ele>75.12</ele><time>2010-10-10T16:02:26Z</time></trkpt><trkpt lat="43.840303" lon="-0.301641"><ele>71.27</ele><time>2010-10-10T16:02:37Z</time></trkpt><trkpt lat="43.842874" lon="-0.302057"><ele>80.41</ele><time>2010-10-10T16:02:51Z</time></trkpt><trkpt lat="43.845447" lon="-0.302510"><ele>98.67</ele><time>2010-10-10T16:03:07Z</time></trkpt><trkpt lat="43.847857" lon="-0.302934"><ele>105.40</ele><time>2010-10-10T16:03:20Z</time></trkpt><trkpt lat="43.850617" lon="-0.303421"><ele>103.00</ele><time>2010-10-10T16:03:33Z</time></trkpt><trkpt lat="43.853589" lon="-0.303926"><ele>93.39</ele><time>2010-10-10T16:03:47Z</time></trkpt><trkpt lat="43.856337" lon="-0.304402"><ele>89.54</ele><time>2010-10-10T16:04:00Z</time></trkpt><trkpt lat="43.858295" lon="-0.304713"><ele>89.54</ele><time>2010-10-10T16:04:10Z</time></trkpt><trkpt lat="43.860732" lon="-0.305117"><ele>83.77</ele><time>2010-10-10T16:04:22Z</time></trkpt><trkpt lat="43.862522" lon="-0.305395"><ele>85.69</ele><time>2010-10-10T16:04:31Z</time></trkpt><trkpt lat="43.864955" lon="-0.305800"><ele>91.46</ele><time>2010-10-10T16:04:43Z</time></trkpt><trkpt lat="43.867213" lon="-0.306176"><ele>92.42</ele><time>2010-10-10T16:04:54Z</time></trkpt><trkpt lat="43.869737" lon="-0.306893"><ele>86.66</ele><time>2010-10-10T16:05:06Z</time></trkpt><trkpt lat="43.872569" lon="-0.307666"><ele>81.85</ele><time>2010-10-10T16:05:19Z</time></trkpt><trkpt lat="43.875062" lon="-0.308335"><ele>80.41</ele><time>2010-10-10T16:05:31Z</time></trkpt><trkpt lat="43.876600" lon="-0.308157"><ele>82.81</ele><time>2010-10-10T16:05:39Z</time></trkpt><trkpt lat="43.878354" lon="-0.307918"><ele>83.77</ele><time>2010-10-10T16:05:48Z</time></trkpt><trkpt lat="43.880324" lon="-0.307407"><ele>83.77</ele><time>2010-10-10T16:05:58Z</time></trkpt><trkpt lat="43.882203" lon="-0.306440"><ele>84.25</ele><time>2010-10-10T16:06:08Z</time></trkpt><trkpt lat="43.883422" lon="-0.304957"><ele>84.25</ele><time>2010-10-10T16:06:16Z</time></trkpt><trkpt lat="43.883536" lon="-0.304716"><ele>84.25</ele><time>2010-10-10T16:06:17Z</time></trkpt><trkpt lat="43.884187" lon="-0.302995"><ele>83.77</ele><time>2010-10-10T16:06:25Z</time></trkpt><trkpt lat="43.885205" lon="-0.300532"><ele>81.85</ele><time>2010-10-10T16:06:35Z</time></trkpt><trkpt lat="43.886421" lon="-0.299147"><ele>79.93</ele><time>2010-10-10T16:06:43Z</time></trkpt><trkpt lat="43.887957" lon="-0.298149"><ele>76.08</ele><time>2010-10-10T16:06:51Z</time></trkpt><trkpt lat="43.889992" lon="-0.296944"><ele>71.27</ele><time>2010-10-10T16:07:02Z</time></trkpt><trkpt lat="43.891814" lon="-0.295952"><ele>66.95</ele><time>2010-10-10T16:07:12Z</time></trkpt><trkpt lat="43.893480" lon="-0.295561"><ele>68.39</ele><time>2010-10-10T16:07:21Z</time></trkpt><trkpt lat="43.895079" lon="-0.295531"><ele>71.27</ele><time>2010-10-10T16:07:31Z</time></trkpt><trkpt lat="43.897306" lon="-0.295613"><ele>73.20</ele><time>2010-10-10T16:07:45Z</time></trkpt><trkpt lat="43.899592" lon="-0.295706"><ele>73.20</ele><time>2010-10-10T16:07:58Z</time></trkpt><trkpt lat="43.901915" lon="-0.295917"><ele>66.47</ele><time>2010-10-10T16:08:11Z</time></trkpt><trkpt lat="43.903371" lon="-0.296683"><ele>58.30</ele><time>2010-10-10T16:08:20Z</time></trkpt><trkpt lat="43.904531" lon="-0.298032"><ele>53.49</ele><time>2010-10-10T16:08:28Z</time></trkpt><trkpt lat="43.906029" lon="-0.300562"><ele>55.89</ele><time>2010-10-10T16:08:40Z</time></trkpt><trkpt lat="43.907423" lon="-0.302669"><ele>62.14</ele><time>2010-10-10T16:08:51Z</time></trkpt><trkpt lat="43.908639" lon="-0.303571"><ele>64.07</ele><time>2010-10-10T16:08:58Z</time></trkpt><trkpt lat="43.910182" lon="-0.304117"><ele>65.51</ele><time>2010-10-10T16:09:06Z</time></trkpt><trkpt lat="43.912764" lon="-0.304598"><ele>66.47</ele><time>2010-10-10T16:09:19Z</time></trkpt><trkpt lat="43.915805" lon="-0.305195"><ele>67.91</ele><time>2010-10-10T16:09:34Z</time></trkpt><trkpt lat="43.918253" lon="-0.305669"><ele>71.27</ele><time>2010-10-10T16:09:46Z</time></trkpt><trkpt lat="43.920871" lon="-0.306205"><ele>75.60</ele><time>2010-10-10T16:10:00Z</time></trkpt><trkpt lat="43.923682" lon="-0.306724"><ele>87.14</ele><time>2010-10-10T16:10:15Z</time></trkpt><trkpt lat="43.926262" lon="-0.307234"><ele>93.39</ele><time>2010-10-10T16:10:28Z</time></trkpt><trkpt lat="43.928776" lon="-0.307729"><ele>90.02</ele><time>2010-10-10T16:10:40Z</time></trkpt><trkpt lat="43.931413" lon="-0.308241"><ele>89.54</ele><time>2010-10-10T16:10:52Z</time></trkpt><trkpt lat="43.933948" lon="-0.308747"><ele>90.02</ele><time>2010-10-10T16:11:04Z</time></trkpt><trkpt lat="43.936778" lon="-0.309295"><ele>90.50</ele><time>2010-10-10T16:11:18Z</time></trkpt><trkpt lat="43.941099" lon="-0.310132"><ele>89.06</ele><time>2010-10-10T16:11:39Z</time></trkpt><trkpt lat="43.943827" lon="-0.310693"><ele>86.18</ele><time>2010-10-10T16:11:52Z</time></trkpt><trkpt lat="43.946473" lon="-0.311189"><ele>87.62</ele><time>2010-10-10T16:12:05Z</time></trkpt><trkpt lat="43.948572" lon="-0.311583"><ele>87.14</ele><time>2010-10-10T16:12:16Z</time></trkpt><trkpt lat="43.950919" lon="-0.312074"><ele>89.54</ele><time>2010-10-10T16:12:28Z</time></trkpt><trkpt lat="43.952667" lon="-0.312432"><ele>88.58</ele><time>2010-10-10T16:12:37Z</time></trkpt><trkpt lat="43.954908" lon="-0.312891"><ele>89.06</ele><time>2010-10-10T16:12:49Z</time></trkpt><trkpt lat="43.957595" lon="-0.313395"><ele>96.27</ele><time>2010-10-10T16:13:03Z</time></trkpt><trkpt lat="43.960527" lon="-0.313987"><ele>103.00</ele><time>2010-10-10T16:13:18Z</time></trkpt><trkpt lat="43.962777" lon="-0.314428"><ele>110.21</ele><time>2010-10-10T16:13:31Z</time></trkpt><trkpt lat="43.965109" lon="-0.314885"><ele>114.05</ele><time>2010-10-10T16:13:42Z</time></trkpt><trkpt lat="43.968131" lon="-0.315455"><ele>119.34</ele><time>2010-10-10T16:13:56Z</time></trkpt><trkpt lat="43.971302" lon="-0.316119"><ele>118.38</ele><time>2010-10-10T16:14:09Z</time></trkpt><trkpt lat="43.974292" lon="-0.316704"><ele>114.53</ele><time>2010-10-10T16:14:22Z</time></trkpt><trkpt lat="43.977428" lon="-0.317328"><ele>110.21</ele><time>2010-10-10T16:14:36Z</time></trkpt><trkpt lat="43.980653" lon="-0.317959"><ele>104.44</ele><time>2010-10-10T16:14:51Z</time></trkpt><trkpt lat="43.982980" lon="-0.318408"><ele>101.56</ele><time>2010-10-10T16:15:02Z</time></trkpt><trkpt lat="43.985209" lon="-0.318853"><ele>97.71</ele><time>2010-10-10T16:15:13Z</time></trkpt><trkpt lat="43.988090" lon="-0.319440"><ele>94.35</ele><time>2010-10-10T16:15:27Z</time></trkpt><trkpt lat="43.989742" lon="-0.319768"><ele>97.23</ele><time>2010-10-10T16:15:36Z</time></trkpt><trkpt lat="43.992151" lon="-0.320247"><ele>100.60</ele><time>2010-10-10T16:15:47Z</time></trkpt><trkpt lat="43.994371" lon="-0.320716"><ele>102.52</ele><time>2010-10-10T16:15:58Z</time></trkpt><trkpt lat="43.997226" lon="-0.321279"><ele>102.52</ele><time>2010-10-10T16:16:12Z</time></trkpt><trkpt lat="43.999536" lon="-0.321734"><ele>103.48</ele><time>2010-10-10T16:16:23Z</time></trkpt><trkpt lat="44.002148" lon="-0.322249"><ele>104.44</ele><time>2010-10-10T16:16:36Z</time></trkpt><trkpt lat="44.004964" lon="-0.322805"><ele>105.40</ele><time>2010-10-10T16:16:50Z</time></trkpt><trkpt lat="44.007114" lon="-0.323229"><ele>106.36</ele><time>2010-10-10T16:17:01Z</time></trkpt><trkpt lat="44.009328" lon="-0.323665"><ele>104.44</ele><time>2010-10-10T16:17:12Z</time></trkpt><trkpt lat="44.011767" lon="-0.324140"><ele>101.56</ele><time>2010-10-10T16:17:24Z</time></trkpt><trkpt lat="44.013797" lon="-0.324535"><ele>100.60</ele><time>2010-10-10T16:17:35Z</time></trkpt><trkpt lat="44.015133" lon="-0.324795"><ele>100.11</ele><time>2010-10-10T16:17:44Z</time></trkpt><trkpt lat="44.017044" lon="-0.325167"><ele>99.63</ele><time>2010-10-10T16:17:55Z</time></trkpt><trkpt lat="44.019357" lon="-0.325812"><ele>99.15</ele><time>2010-10-10T16:18:08Z</time></trkpt><trkpt lat="44.021357" lon="-0.327048"><ele>96.75</ele><time>2010-10-10T16:18:19Z</time></trkpt><trkpt lat="44.022968" lon="-0.328751"><ele>94.35</ele><time>2010-10-10T16:18:29Z</time></trkpt><trkpt lat="44.024283" lon="-0.330922"><ele>90.02</ele><time>2010-10-10T16:18:39Z</time></trkpt><trkpt lat="44.025998" lon="-0.334400"><ele>82.81</ele><time>2010-10-10T16:18:54Z</time></trkpt><trkpt lat="44.027266" lon="-0.336563"><ele>80.41</ele><time>2010-10-10T16:19:04Z</time></trkpt><trkpt lat="44.028648" lon="-0.338152"><ele>79.93</ele><time>2010-10-10T16:19:13Z</time></trkpt><trkpt lat="44.030260" lon="-0.339363"><ele>78.48</ele><time>2010-10-10T16:19:22Z</time></trkpt><trkpt lat="44.032052" lon="-0.340279"><ele>73.20</ele><time>2010-10-10T16:19:31Z</time></trkpt><trkpt lat="44.034110" lon="-0.341093"><ele>64.07</ele><time>2010-10-10T16:19:41Z</time></trkpt><trkpt lat="44.035856" lon="-0.341263"><ele>59.26</ele><time>2010-10-10T16:19:50Z</time></trkpt><trkpt lat="44.037931" lon="-0.340909"><ele>59.26</ele><time>2010-10-10T16:20:01Z</time></trkpt><trkpt lat="44.038691" lon="-0.340650"><ele>59.74</ele><time>2010-10-10T16:20:05Z</time></trkpt><trkpt lat="44.038877" lon="-0.340588"><ele>60.22</ele><time>2010-10-10T16:20:06Z</time></trkpt><trkpt lat="44.040935" lon="-0.339773"><ele>62.14</ele><time>2010-10-10T16:20:17Z</time></trkpt><trkpt lat="44.042675" lon="-0.338497"><ele>64.07</ele><time>2010-10-10T16:20:27Z</time></trkpt><trkpt lat="44.044242" lon="-0.336682"><ele>65.51</ele><time>2010-10-10T16:20:37Z</time></trkpt><trkpt lat="44.046217" lon="-0.333558"><ele>67.91</ele><time>2010-10-10T16:20:52Z</time></trkpt><trkpt lat="44.048461" lon="-0.330044"><ele>68.87</ele><time>2010-10-10T16:21:08Z</time></trkpt><trkpt lat="44.050350" lon="-0.327053"><ele>71.27</ele><time>2010-10-10T16:21:22Z</time></trkpt><trkpt lat="44.052175" lon="-0.324192"><ele>72.72</ele><time>2010-10-10T16:21:35Z</time></trkpt><trkpt lat="44.053990" lon="-0.321371"><ele>73.68</ele><time>2010-10-10T16:21:49Z</time></trkpt><trkpt lat="44.054929" lon="-0.320257"><ele>75.60</ele><time>2010-10-10T16:21:57Z</time></trkpt><trkpt lat="44.054998" lon="-0.320182"><ele>75.60</ele><time>2010-10-10T16:21:58Z</time></trkpt><trkpt lat="44.055054" lon="-0.320122"><ele>75.60</ele><time>2010-10-10T16:21:59Z</time></trkpt><trkpt lat="44.054833" lon="-0.319633"><ele>75.60</ele><time>2010-10-10T16:22:00Z</time></trkpt><trkpt lat="44.054795" lon="-0.319482"><ele>75.60</ele><time>2010-10-10T16:22:01Z</time></trkpt><trkpt lat="44.054852" lon="-0.319314"><ele>76.08</ele><time>2010-10-10T16:22:02Z</time></trkpt><trkpt lat="44.055005" lon="-0.319290"><ele>76.08</ele><time>2010-10-10T16:22:03Z</time></trkpt><trkpt lat="44.055018" lon="-0.319267"><ele>76.56</ele><time>2010-10-10T16:22:04Z</time></trkpt><trkpt lat="44.055065" lon="-0.319185"><ele>76.56</ele><time>2010-10-10T16:22:05Z</time></trkpt><trkpt lat="44.055120" lon="-0.319089"><ele>76.56</ele><time>2010-10-10T16:22:06Z</time></trkpt><trkpt lat="44.055182" lon="-0.318980"><ele>76.08</ele><time>2010-10-10T16:22:07Z</time></trkpt><trkpt lat="44.055251" lon="-0.318860"><ele>76.08</ele><time>2010-10-10T16:22:08Z</time></trkpt><trkpt lat="44.055325" lon="-0.318730"><ele>76.08</ele><time>2010-10-10T16:22:09Z</time></trkpt><trkpt lat="44.055970" lon="-0.317628"><ele>76.56</ele><time>2010-10-10T16:22:17Z</time></trkpt><trkpt lat="44.056213" lon="-0.317271"><ele>77.04</ele><time>2010-10-10T16:22:18Z</time></trkpt><trkpt lat="44.056347" lon="-0.317098"><ele>77.04</ele><time>2010-10-10T16:22:19Z</time></trkpt><trkpt lat="44.056507" lon="-0.316965"><ele>77.52</ele><time>2010-10-10T16:22:20Z</time></trkpt><trkpt lat="44.056670" lon="-0.316846"><ele>78.00</ele><time>2010-10-10T16:22:21Z</time></trkpt><trkpt lat="44.056829" lon="-0.316731"><ele>78.48</ele><time>2010-10-10T16:22:22Z</time></trkpt><trkpt lat="44.056997" lon="-0.316654"><ele>78.97</ele><time>2010-10-10T16:22:23Z</time></trkpt><trkpt lat="44.056997" lon="-0.316654"><ele>79.45</ele><time>2010-10-10T16:22:24Z</time></trkpt><trkpt lat="44.057163" lon="-0.316585"><ele>79.93</ele><time>2010-10-10T16:22:25Z</time></trkpt><trkpt lat="44.057488" lon="-0.316501"><ele>80.89</ele><time>2010-10-10T16:22:26Z</time></trkpt><trkpt lat="44.057655" lon="-0.316501"><ele>81.37</ele><time>2010-10-10T16:22:27Z</time></trkpt><trkpt lat="44.057821" lon="-0.316507"><ele>81.85</ele><time>2010-10-10T16:22:28Z</time></trkpt><trkpt lat="44.057984" lon="-0.316545"><ele>82.33</ele><time>2010-10-10T16:22:29Z</time></trkpt><trkpt lat="44.058147" lon="-0.316584"><ele>82.81</ele><time>2010-10-10T16:22:30Z</time></trkpt><trkpt lat="44.060076" lon="-0.317461"><ele>82.81</ele><time>2010-10-10T16:22:42Z</time></trkpt><trkpt lat="44.061540" lon="-0.317075"><ele>80.89</ele><time>2010-10-10T16:22:50Z</time></trkpt><trkpt lat="44.063590" lon="-0.316535"><ele>80.41</ele><time>2010-10-10T16:23:02Z</time></trkpt><trkpt lat="44.065375" lon="-0.316065"><ele>82.81</ele><time>2010-10-10T16:23:12Z</time></trkpt><trkpt lat="44.067213" lon="-0.315578"><ele>87.62</ele><time>2010-10-10T16:23:22Z</time></trkpt><trkpt lat="44.069228" lon="-0.315044"><ele>94.35</ele><time>2010-10-10T16:23:33Z</time></trkpt><trkpt lat="44.071178" lon="-0.314528"><ele>97.71</ele><time>2010-10-10T16:23:43Z</time></trkpt><trkpt lat="44.073253" lon="-0.313978"><ele>98.67</ele><time>2010-10-10T16:23:53Z</time></trkpt><trkpt lat="44.075315" lon="-0.313430"><ele>97.71</ele><time>2010-10-10T16:24:03Z</time></trkpt><trkpt lat="44.078099" lon="-0.312682"><ele>96.27</ele><time>2010-10-10T16:24:16Z</time></trkpt><trkpt lat="44.080588" lon="-0.312007"><ele>96.75</ele><time>2010-10-10T16:24:27Z</time></trkpt><trkpt lat="44.083419" lon="-0.311252"><ele>96.27</ele><time>2010-10-10T16:24:40Z</time></trkpt><trkpt lat="44.085734" lon="-0.310614"><ele>93.87</ele><time>2010-10-10T16:24:51Z</time></trkpt><trkpt lat="44.088041" lon="-0.309996"><ele>91.46</ele><time>2010-10-10T16:25:02Z</time></trkpt><trkpt lat="44.090581" lon="-0.309323"><ele>90.98</ele><time>2010-10-10T16:25:14Z</time></trkpt><trkpt lat="44.092800" lon="-0.308736"><ele>90.98</ele><time>2010-10-10T16:25:25Z</time></trkpt><trkpt lat="44.095511" lon="-0.308014"><ele>89.54</ele><time>2010-10-10T16:25:38Z</time></trkpt><trkpt lat="44.097983" lon="-0.307350"><ele>90.50</ele><time>2010-10-10T16:25:50Z</time></trkpt><trkpt lat="44.100710" lon="-0.306602"><ele>92.42</ele><time>2010-10-10T16:26:03Z</time></trkpt><trkpt lat="44.102965" lon="-0.306003"><ele>91.94</ele><time>2010-10-10T16:26:13Z</time></trkpt><trkpt lat="44.105185" lon="-0.305420"><ele>91.94</ele><time>2010-10-10T16:26:24Z</time></trkpt><trkpt lat="44.106651" lon="-0.304778"><ele>92.90</ele><time>2010-10-10T16:26:32Z</time></trkpt><trkpt lat="44.108557" lon="-0.303087"><ele>95.31</ele><time>2010-10-10T16:26:44Z</time></trkpt><trkpt lat="44.110936" lon="-0.300924"><ele>92.42</ele><time>2010-10-10T16:26:58Z</time></trkpt><trkpt lat="44.113610" lon="-0.298449"><ele>89.54</ele><time>2010-10-10T16:27:13Z</time></trkpt><trkpt lat="44.115130" lon="-0.297053"><ele>91.46</ele><time>2010-10-10T16:27:22Z</time></trkpt><trkpt lat="44.117474" lon="-0.294900"><ele>94.83</ele><time>2010-10-10T16:27:36Z</time></trkpt><trkpt lat="44.119827" lon="-0.292759"><ele>96.27</ele><time>2010-10-10T16:27:49Z</time></trkpt><trkpt lat="44.121917" lon="-0.290858"><ele>96.75</ele><time>2010-10-10T16:28:01Z</time></trkpt><trkpt lat="44.123232" lon="-0.290215"><ele>96.75</ele><time>2010-10-10T16:28:08Z</time></trkpt><trkpt lat="44.125108" lon="-0.289912"><ele>97.23</ele><time>2010-10-10T16:28:17Z</time></trkpt><trkpt lat="44.127164" lon="-0.289735"><ele>98.67</ele><time>2010-10-10T16:28:25Z</time></trkpt><trkpt lat="44.129824" lon="-0.289506"><ele>101.56</ele><time>2010-10-10T16:28:34Z</time></trkpt><trkpt lat="44.131943" lon="-0.289323"><ele>103.48</ele><time>2010-10-10T16:28:42Z</time></trkpt><trkpt lat="44.133935" lon="-0.289193"><ele>103.96</ele><time>2010-10-10T16:28:50Z</time></trkpt><trkpt lat="44.137461" lon="-0.288907"><ele>104.44</ele><time>2010-10-10T16:29:03Z</time></trkpt><trkpt lat="44.140149" lon="-0.288700"><ele>105.88</ele><time>2010-10-10T16:29:13Z</time></trkpt><trkpt lat="44.143023" lon="-0.288474"><ele>109.25</ele><time>2010-10-10T16:29:24Z</time></trkpt><trkpt lat="44.145523" lon="-0.288283"><ele>112.61</ele><time>2010-10-10T16:29:34Z</time></trkpt><trkpt lat="44.147727" lon="-0.288114"><ele>115.50</ele><time>2010-10-10T16:29:43Z</time></trkpt><trkpt lat="44.150609" lon="-0.287893"><ele>119.34</ele><time>2010-10-10T16:29:55Z</time></trkpt><trkpt lat="44.152983" lon="-0.287726"><ele>119.82</ele><time>2010-10-10T16:30:05Z</time></trkpt><trkpt lat="44.155886" lon="-0.287346"><ele>119.34</ele><time>2010-10-10T16:30:17Z</time></trkpt><trkpt lat="44.158114" lon="-0.286518"><ele>120.78</ele><time>2010-10-10T16:30:27Z</time></trkpt><trkpt lat="44.161421" lon="-0.285142"><ele>122.22</ele><time>2010-10-10T16:30:42Z</time></trkpt><trkpt lat="44.163569" lon="-0.284271"><ele>123.19</ele><time>2010-10-10T16:30:53Z</time></trkpt><trkpt lat="44.166449" lon="-0.283112"><ele>123.67</ele><time>2010-10-10T16:31:07Z</time></trkpt><trkpt lat="44.169746" lon="-0.281785"><ele>126.55</ele><time>2010-10-10T16:31:23Z</time></trkpt><trkpt lat="44.172956" lon="-0.280537"><ele>127.03</ele><time>2010-10-10T16:31:38Z</time></trkpt><trkpt lat="44.176398" lon="-0.279112"><ele>127.51</ele><time>2010-10-10T16:31:55Z</time></trkpt><trkpt lat="44.180054" lon="-0.277628"><ele>128.47</ele><time>2010-10-10T16:32:11Z</time></trkpt><trkpt lat="44.184235" lon="-0.275929"><ele>129.43</ele><time>2010-10-10T16:32:31Z</time></trkpt><trkpt lat="44.187133" lon="-0.274763"><ele>130.88</ele><time>2010-10-10T16:32:45Z</time></trkpt><trkpt lat="44.190168" lon="-0.273545"><ele>134.24</ele><time>2010-10-10T16:32:59Z</time></trkpt><trkpt lat="44.192979" lon="-0.272418"><ele>134.72</ele><time>2010-10-10T16:33:12Z</time></trkpt><trkpt lat="44.195611" lon="-0.271580"><ele>135.68</ele><time>2010-10-10T16:33:24Z</time></trkpt><trkpt lat="44.198248" lon="-0.270788"><ele>135.68</ele><time>2010-10-10T16:33:36Z</time></trkpt><trkpt lat="44.200372" lon="-0.270162"><ele>136.16</ele><time>2010-10-10T16:33:46Z</time></trkpt><trkpt lat="44.201660" lon="-0.269782"><ele>137.13</ele><time>2010-10-10T16:33:52Z</time></trkpt><trkpt lat="44.204223" lon="-0.268993"><ele>136.64</ele><time>2010-10-10T16:34:04Z</time></trkpt><trkpt lat="44.207254" lon="-0.268126"><ele>134.72</ele><time>2010-10-10T16:34:18Z</time></trkpt><trkpt lat="44.210954" lon="-0.267031"><ele>131.36</ele><time>2010-10-10T16:34:35Z</time></trkpt><trkpt lat="44.214258" lon="-0.266032"><ele>132.32</ele><time>2010-10-10T16:34:49Z</time></trkpt><trkpt lat="44.217824" lon="-0.264982"><ele>130.88</ele><time>2010-10-10T16:35:04Z</time></trkpt><trkpt lat="44.221085" lon="-0.264032"><ele>128.95</ele><time>2010-10-10T16:35:18Z</time></trkpt><trkpt lat="44.223431" lon="-0.263320"><ele>127.99</ele><time>2010-10-10T16:35:28Z</time></trkpt><trkpt lat="44.225932" lon="-0.262593"><ele>127.51</ele><time>2010-10-10T16:35:39Z</time></trkpt><trkpt lat="44.228708" lon="-0.261765"><ele>126.07</ele><time>2010-10-10T16:35:52Z</time></trkpt><trkpt lat="44.231791" lon="-0.260848"><ele>124.63</ele><time>2010-10-10T16:36:06Z</time></trkpt><trkpt lat="44.233576" lon="-0.260721"><ele>123.67</ele><time>2010-10-10T16:36:14Z</time></trkpt><trkpt lat="44.236164" lon="-0.260782"><ele>123.19</ele><time>2010-10-10T16:36:25Z</time></trkpt><trkpt lat="44.238520" lon="-0.260807"><ele>121.74</ele><time>2010-10-10T16:36:35Z</time></trkpt><trkpt lat="44.241392" lon="-0.260868"><ele>119.82</ele><time>2010-10-10T16:36:47Z</time></trkpt><trkpt lat="44.243927" lon="-0.260944"><ele>117.42</ele><time>2010-10-10T16:36:58Z</time></trkpt><trkpt lat="44.246692" lon="-0.261011"><ele>115.01</ele><time>2010-10-10T16:37:10Z</time></trkpt><trkpt lat="44.250123" lon="-0.261100"><ele>112.13</ele><time>2010-10-10T16:37:24Z</time></trkpt><trkpt lat="44.253468" lon="-0.261204"><ele>110.21</ele><time>2010-10-10T16:37:38Z</time></trkpt><trkpt lat="44.256342" lon="-0.261258"><ele>109.25</ele><time>2010-10-10T16:37:50Z</time></trkpt><trkpt lat="44.259285" lon="-0.261331"><ele>108.77</ele><time>2010-10-10T16:38:02Z</time></trkpt><trkpt lat="44.262387" lon="-0.261398"><ele>108.29</ele><time>2010-10-10T16:38:15Z</time></trkpt><trkpt lat="44.265016" lon="-0.261490"><ele>106.84</ele><time>2010-10-10T16:38:26Z</time></trkpt><trkpt lat="44.267419" lon="-0.261552"><ele>104.92</ele><time>2010-10-10T16:38:36Z</time></trkpt><trkpt lat="44.270112" lon="-0.261621"><ele>103.48</ele><time>2010-10-10T16:38:47Z</time></trkpt><trkpt lat="44.273035" lon="-0.261696"><ele>101.56</ele><time>2010-10-10T16:38:59Z</time></trkpt><trkpt lat="44.275570" lon="-0.261761"><ele>100.60</ele><time>2010-10-10T16:39:10Z</time></trkpt><trkpt lat="44.278637" lon="-0.261840"><ele>97.71</ele><time>2010-10-10T16:39:23Z</time></trkpt><trkpt lat="44.281351" lon="-0.261909"><ele>96.75</ele><time>2010-10-10T16:39:35Z</time></trkpt><trkpt lat="44.283450" lon="-0.261912"><ele>95.79</ele><time>2010-10-10T16:39:45Z</time></trkpt><trkpt lat="44.284839" lon="-0.261912"><ele>94.35</ele><time>2010-10-10T16:39:53Z</time></trkpt><trkpt lat="44.286338" lon="-0.262035"><ele>93.39</ele><time>2010-10-10T16:40:04Z</time></trkpt><trkpt lat="44.287928" lon="-0.262540"><ele>91.46</ele><time>2010-10-10T16:40:15Z</time></trkpt><trkpt lat="44.289042" lon="-0.262572"><ele>90.98</ele><time>2010-10-10T16:40:23Z</time></trkpt><trkpt lat="44.290277" lon="-0.262554"><ele>88.10</ele><time>2010-10-10T16:40:32Z</time></trkpt><trkpt lat="44.290417" lon="-0.262519"><ele>88.10</ele><time>2010-10-10T16:40:33Z</time></trkpt><trkpt lat="44.290554" lon="-0.262462"><ele>87.62</ele><time>2010-10-10T16:40:34Z</time></trkpt><trkpt lat="44.291816" lon="-0.261901"><ele>89.54</ele><time>2010-10-10T16:40:44Z</time></trkpt><trkpt lat="44.293048" lon="-0.261139"><ele>90.50</ele><time>2010-10-10T16:40:53Z</time></trkpt><trkpt lat="44.294485" lon="-0.260239"><ele>92.42</ele><time>2010-10-10T16:41:05Z</time></trkpt><trkpt lat="44.295627" lon="-0.259523"><ele>95.79</ele><time>2010-10-10T16:41:14Z</time></trkpt><trkpt lat="44.297031" lon="-0.258613"><ele>95.79</ele><time>2010-10-10T16:41:24Z</time></trkpt><trkpt lat="44.298429" lon="-0.257724"><ele>96.27</ele><time>2010-10-10T16:41:35Z</time></trkpt><trkpt lat="44.300033" lon="-0.256727"><ele>94.35</ele><time>2010-10-10T16:41:46Z</time></trkpt><trkpt lat="44.301905" lon="-0.255564"><ele>93.39</ele><time>2010-10-10T16:41:56Z</time></trkpt><trkpt lat="44.304609" lon="-0.253834"><ele>93.39</ele><time>2010-10-10T16:42:09Z</time></trkpt><trkpt lat="44.306978" lon="-0.252325"><ele>94.35</ele><time>2010-10-10T16:42:21Z</time></trkpt><trkpt lat="44.309515" lon="-0.250712"><ele>93.39</ele><time>2010-10-10T16:42:34Z</time></trkpt><trkpt lat="44.312094" lon="-0.249094"><ele>92.90</ele><time>2010-10-10T16:42:46Z</time></trkpt><trkpt lat="44.314790" lon="-0.247402"><ele>93.87</ele><time>2010-10-10T16:42:59Z</time></trkpt><trkpt lat="44.318310" lon="-0.245289"><ele>93.87</ele><time>2010-10-10T16:43:14Z</time></trkpt><trkpt lat="44.320959" lon="-0.243696"><ele>93.39</ele><time>2010-10-10T16:43:27Z</time></trkpt><trkpt lat="44.323520" lon="-0.242140"><ele>94.83</ele><time>2010-10-10T16:43:40Z</time></trkpt><trkpt lat="44.326254" lon="-0.240477"><ele>95.79</ele><time>2010-10-10T16:43:53Z</time></trkpt><trkpt lat="44.329042" lon="-0.238814"><ele>95.31</ele><time>2010-10-10T16:44:06Z</time></trkpt><trkpt lat="44.332074" lon="-0.236992"><ele>95.31</ele><time>2010-10-10T16:44:20Z</time></trkpt><trkpt lat="44.334839" lon="-0.235321"><ele>93.39</ele><time>2010-10-10T16:44:33Z</time></trkpt><trkpt lat="44.336660" lon="-0.234522"><ele>89.54</ele><time>2010-10-10T16:44:42Z</time></trkpt><trkpt lat="44.337945" lon="-0.234568"><ele>87.62</ele><time>2010-10-10T16:44:48Z</time></trkpt><trkpt lat="44.341145" lon="-0.235034"><ele>82.81</ele><time>2010-10-10T16:45:02Z</time></trkpt><trkpt lat="44.344957" lon="-0.235677"><ele>77.52</ele><time>2010-10-10T16:45:19Z</time></trkpt><trkpt lat="44.347596" lon="-0.236099"><ele>68.87</ele><time>2010-10-10T16:45:30Z</time></trkpt><trkpt lat="44.350387" lon="-0.236546"><ele>68.39</ele><time>2010-10-10T16:45:43Z</time></trkpt><trkpt lat="44.353567" lon="-0.237052"><ele>67.43</ele><time>2010-10-10T16:45:57Z</time></trkpt><trkpt lat="44.356869" lon="-0.237640"><ele>66.47</ele><time>2010-10-10T16:46:11Z</time></trkpt><trkpt lat="44.358277" lon="-0.238307"><ele>65.51</ele><time>2010-10-10T16:46:18Z</time></trkpt><trkpt lat="44.360675" lon="-0.239657"><ele>64.07</ele><time>2010-10-10T16:46:30Z</time></trkpt><trkpt lat="44.362549" lon="-0.240701"><ele>64.07</ele><time>2010-10-10T16:46:40Z</time></trkpt><trkpt lat="44.364511" lon="-0.241833"><ele>61.18</ele><time>2010-10-10T16:46:52Z</time></trkpt><trkpt lat="44.366530" lon="-0.242985"><ele>61.18</ele><time>2010-10-10T16:47:05Z</time></trkpt><trkpt lat="44.368024" lon="-0.243669"><ele>60.70</ele><time>2010-10-10T16:47:15Z</time></trkpt><trkpt lat="44.368174" lon="-0.243692"><ele>61.18</ele><time>2010-10-10T16:47:16Z</time></trkpt><trkpt lat="44.369588" lon="-0.243716"><ele>59.74</ele><time>2010-10-10T16:47:26Z</time></trkpt><trkpt lat="44.370631" lon="-0.243690"><ele>59.26</ele><time>2010-10-10T16:47:34Z</time></trkpt><trkpt lat="44.372317" lon="-0.243604"><ele>60.22</ele><time>2010-10-10T16:47:45Z</time></trkpt><trkpt lat="44.372433" lon="-0.243527"><ele>60.70</ele><time>2010-10-10T16:47:46Z</time></trkpt><trkpt lat="44.372545" lon="-0.243444"><ele>60.70</ele><time>2010-10-10T16:47:47Z</time></trkpt><trkpt lat="44.372633" lon="-0.243312"><ele>61.18</ele><time>2010-10-10T16:47:48Z</time></trkpt><trkpt lat="44.372724" lon="-0.243176"><ele>61.66</ele><time>2010-10-10T16:47:49Z</time></trkpt><trkpt lat="44.372815" lon="-0.243039"><ele>62.14</ele><time>2010-10-10T16:47:50Z</time></trkpt><trkpt lat="44.373302" lon="-0.242323"><ele>65.03</ele><time>2010-10-10T16:47:55Z</time></trkpt><trkpt lat="44.373414" lon="-0.242231"><ele>65.51</ele><time>2010-10-10T16:47:56Z</time></trkpt><trkpt lat="44.373543" lon="-0.242177"><ele>65.99</ele><time>2010-10-10T16:47:57Z</time></trkpt><trkpt lat="44.373677" lon="-0.242121"><ele>66.47</ele><time>2010-10-10T16:47:58Z</time></trkpt><trkpt lat="44.373816" lon="-0.242063"><ele>67.43</ele><time>2010-10-10T16:47:59Z</time></trkpt><trkpt lat="44.375305" lon="-0.241626"><ele>71.27</ele><time>2010-10-10T16:48:08Z</time></trkpt><trkpt lat="44.377458" lon="-0.241273"><ele>80.89</ele><time>2010-10-10T16:48:20Z</time></trkpt><trkpt lat="44.379088" lon="-0.241231"><ele>91.46</ele><time>2010-10-10T16:48:30Z</time></trkpt><trkpt lat="44.380850" lon="-0.241014"><ele>100.11</ele><time>2010-10-10T16:48:41Z</time></trkpt><trkpt lat="44.383074" lon="-0.240694"><ele>103.96</ele><time>2010-10-10T16:48:53Z</time></trkpt><trkpt lat="44.384814" lon="-0.240406"><ele>103.48</ele><time>2010-10-10T16:49:03Z</time></trkpt><trkpt lat="44.386260" lon="-0.241134"><ele>102.04</ele><time>2010-10-10T16:49:11Z</time></trkpt><trkpt lat="44.387009" lon="-0.241270"><ele>102.52</ele><time>2010-10-10T16:49:15Z</time></trkpt><trkpt lat="44.387009" lon="-0.241270"><ele>102.52</ele><time>2010-10-10T16:49:16Z</time></trkpt><trkpt lat="44.387364" lon="-0.241199"><ele>103.00</ele><time>2010-10-10T16:49:17Z</time></trkpt><trkpt lat="44.387535" lon="-0.241120"><ele>103.00</ele><time>2010-10-10T16:49:18Z</time></trkpt><trkpt lat="44.387704" lon="-0.241041"><ele>103.00</ele><time>2010-10-10T16:49:19Z</time></trkpt><trkpt lat="44.387866" lon="-0.240961"><ele>103.48</ele><time>2010-10-10T16:49:20Z</time></trkpt><trkpt lat="44.387866" lon="-0.240961"><ele>103.48</ele><time>2010-10-10T16:49:21Z</time></trkpt><trkpt lat="44.388164" lon="-0.240701"><ele>103.96</ele><time>2010-10-10T16:49:22Z</time></trkpt><trkpt lat="44.388299" lon="-0.240539"><ele>103.96</ele><time>2010-10-10T16:49:23Z</time></trkpt><trkpt lat="44.388431" lon="-0.240366"><ele>104.44</ele><time>2010-10-10T16:49:24Z</time></trkpt><trkpt lat="44.388566" lon="-0.240190"><ele>104.92</ele><time>2010-10-10T16:49:25Z</time></trkpt><trkpt lat="44.390100" lon="-0.238251"><ele>103.96</ele><time>2010-10-10T16:49:35Z</time></trkpt><trkpt lat="44.391492" lon="-0.236969"><ele>104.92</ele><time>2010-10-10T16:49:43Z</time></trkpt><trkpt lat="44.393021" lon="-0.235765"><ele>105.40</ele><time>2010-10-10T16:49:52Z</time></trkpt><trkpt lat="44.394924" lon="-0.234284"><ele>102.04</ele><time>2010-10-10T16:50:03Z</time></trkpt><trkpt lat="44.395853" lon="-0.233550"><ele>100.11</ele><time>2010-10-10T16:50:08Z</time></trkpt><trkpt lat="44.397878" lon="-0.231734"><ele>103.00</ele><time>2010-10-10T16:50:19Z</time></trkpt><trkpt lat="44.399410" lon="-0.230620"><ele>107.81</ele><time>2010-10-10T16:50:27Z</time></trkpt><trkpt lat="44.401361" lon="-0.229207"><ele>111.17</ele><time>2010-10-10T16:50:37Z</time></trkpt><trkpt lat="44.403390" lon="-0.227705"><ele>114.05</ele><time>2010-10-10T16:50:47Z</time></trkpt><trkpt lat="44.405017" lon="-0.226505"><ele>115.50</ele><time>2010-10-10T16:50:56Z</time></trkpt><trkpt lat="44.405492" lon="-0.226110"><ele>115.98</ele><time>2010-10-10T16:50:59Z</time></trkpt><trkpt lat="44.405937" lon="-0.225617"><ele>117.42</ele><time>2010-10-10T16:51:02Z</time></trkpt><trkpt lat="44.406799" lon="-0.224735"><ele>116.94</ele><time>2010-10-10T16:51:08Z</time></trkpt><trkpt lat="44.407125" lon="-0.224490"><ele>116.94</ele><time>2010-10-10T16:51:10Z</time></trkpt><trkpt lat="44.407291" lon="-0.224425"><ele>116.94</ele><time>2010-10-10T16:51:11Z</time></trkpt><trkpt lat="44.408825" lon="-0.223727"><ele>116.46</ele><time>2010-10-10T16:51:19Z</time></trkpt><trkpt lat="44.411180" lon="-0.222017"><ele>116.46</ele><time>2010-10-10T16:51:31Z</time></trkpt><trkpt lat="44.413079" lon="-0.220604"><ele>116.94</ele><time>2010-10-10T16:51:41Z</time></trkpt><trkpt lat="44.414797" lon="-0.219335"><ele>114.53</ele><time>2010-10-10T16:51:50Z</time></trkpt><trkpt lat="44.415578" lon="-0.218903"><ele>113.57</ele><time>2010-10-10T16:51:54Z</time></trkpt><trkpt lat="44.415771" lon="-0.218813"><ele>113.57</ele><time>2010-10-10T16:51:55Z</time></trkpt><trkpt lat="44.417171" lon="-0.218685"><ele>110.21</ele><time>2010-10-10T16:52:02Z</time></trkpt><trkpt lat="44.418631" lon="-0.219362"><ele>107.32</ele><time>2010-10-10T16:52:09Z</time></trkpt><trkpt lat="44.419692" lon="-0.220637"><ele>105.88</ele><time>2010-10-10T16:52:15Z</time></trkpt><trkpt lat="44.421841" lon="-0.223875"><ele>103.96</ele><time>2010-10-10T16:52:28Z</time></trkpt><trkpt lat="44.423824" lon="-0.226468"><ele>102.04</ele><time>2010-10-10T16:52:39Z</time></trkpt><trkpt lat="44.425900" lon="-0.228515"><ele>97.71</ele><time>2010-10-10T16:52:50Z</time></trkpt><trkpt lat="44.428237" lon="-0.230857"><ele>86.66</ele><time>2010-10-10T16:53:03Z</time></trkpt><trkpt lat="44.429588" lon="-0.232969"><ele>82.81</ele><time>2010-10-10T16:53:12Z</time></trkpt><trkpt lat="44.431076" lon="-0.235447"><ele>89.54</ele><time>2010-10-10T16:53:23Z</time></trkpt><trkpt lat="44.432219" lon="-0.237132"><ele>94.83</ele><time>2010-10-10T16:53:31Z</time></trkpt><trkpt lat="44.433665" lon="-0.238318"><ele>98.67</ele><time>2010-10-10T16:53:39Z</time></trkpt><trkpt lat="44.435084" lon="-0.238897"><ele>100.60</ele><time>2010-10-10T16:53:47Z</time></trkpt><trkpt lat="44.435563" lon="-0.238997"><ele>101.56</ele><time>2010-10-10T16:53:51Z</time></trkpt><trkpt lat="44.435617" lon="-0.238915"><ele>102.04</ele><time>2010-10-10T16:53:52Z</time></trkpt><trkpt lat="44.435713" lon="-0.238864"><ele>102.04</ele><time>2010-10-10T16:53:53Z</time></trkpt><trkpt lat="44.435836" lon="-0.238867"><ele>102.52</ele><time>2010-10-10T16:53:54Z</time></trkpt><trkpt lat="44.435921" lon="-0.239081"><ele>102.52</ele><time>2010-10-10T16:53:55Z</time></trkpt><trkpt lat="44.436009" lon="-0.239081"><ele>102.52</ele><time>2010-10-10T16:53:56Z</time></trkpt><trkpt lat="44.436116" lon="-0.239081"><ele>103.00</ele><time>2010-10-10T16:53:57Z</time></trkpt><trkpt lat="44.436235" lon="-0.239081"><ele>103.00</ele><time>2010-10-10T16:53:58Z</time></trkpt><trkpt lat="44.436367" lon="-0.239081"><ele>103.00</ele><time>2010-10-10T16:53:59Z</time></trkpt><trkpt lat="44.437539" lon="-0.238951"><ele>104.92</ele><time>2010-10-10T16:54:06Z</time></trkpt><trkpt lat="44.439372" lon="-0.238299"><ele>109.73</ele><time>2010-10-10T16:54:16Z</time></trkpt><trkpt lat="44.441772" lon="-0.237201"><ele>115.01</ele><time>2010-10-10T16:54:30Z</time></trkpt><trkpt lat="44.443403" lon="-0.236404"><ele>116.94</ele><time>2010-10-10T16:54:41Z</time></trkpt><trkpt lat="44.443903" lon="-0.236160"><ele>117.42</ele><time>2010-10-10T16:54:45Z</time></trkpt><trkpt lat="44.443918" lon="-0.236077"><ele>117.42</ele><time>2010-10-10T16:54:46Z</time></trkpt><trkpt lat="44.443979" lon="-0.235970"><ele>117.90</ele><time>2010-10-10T16:54:47Z</time></trkpt><trkpt lat="44.444055" lon="-0.235919"><ele>117.90</ele><time>2010-10-10T16:54:48Z</time></trkpt><trkpt lat="44.444161" lon="-0.235906"><ele>117.90</ele><time>2010-10-10T16:54:49Z</time></trkpt><trkpt lat="44.444247" lon="-0.235949"><ele>118.38</ele><time>2010-10-10T16:54:50Z</time></trkpt><trkpt lat="44.444292" lon="-0.235949"><ele>118.38</ele><time>2010-10-10T16:54:51Z</time></trkpt><trkpt lat="44.444381" lon="-0.235949"><ele>118.38</ele><time>2010-10-10T16:54:52Z</time></trkpt><trkpt lat="44.444481" lon="-0.235945"><ele>118.38</ele><time>2010-10-10T16:54:53Z</time></trkpt><trkpt lat="44.444589" lon="-0.235924"><ele>118.38</ele><time>2010-10-10T16:54:54Z</time></trkpt><trkpt lat="44.444707" lon="-0.235902"><ele>118.38</ele><time>2010-10-10T16:54:55Z</time></trkpt><trkpt lat="44.445948" lon="-0.235618"><ele>119.82</ele><time>2010-10-10T16:55:03Z</time></trkpt><trkpt lat="44.448071" lon="-0.235040"><ele>119.82</ele><time>2010-10-10T16:55:15Z</time></trkpt><trkpt lat="44.448717" lon="-0.234855"><ele>119.82</ele><time>2010-10-10T16:55:19Z</time></trkpt><trkpt lat="44.448878" lon="-0.234809"><ele>119.34</ele><time>2010-10-10T16:55:20Z</time></trkpt><trkpt lat="44.449857" lon="-0.234530"><ele>120.78</ele><time>2010-10-10T16:55:26Z</time></trkpt><trkpt lat="44.450028" lon="-0.234481"><ele>120.78</ele><time>2010-10-10T16:55:27Z</time></trkpt><trkpt lat="44.450199" lon="-0.234432"><ele>121.26</ele><time>2010-10-10T16:55:28Z</time></trkpt><trkpt lat="44.452254" lon="-0.233872"><ele>119.34</ele><time>2010-10-10T16:55:39Z</time></trkpt><trkpt lat="44.454626" lon="-0.233213"><ele>117.42</ele><time>2010-10-10T16:55:50Z</time></trkpt><trkpt lat="44.457637" lon="-0.232362"><ele>115.98</ele><time>2010-10-10T16:56:04Z</time></trkpt><trkpt lat="44.459726" lon="-0.231765"><ele>115.98</ele><time>2010-10-10T16:56:15Z</time></trkpt><trkpt lat="44.462404" lon="-0.230983"><ele>115.01</ele><time>2010-10-10T16:56:30Z</time></trkpt><trkpt lat="44.465341" lon="-0.230155"><ele>115.01</ele><time>2010-10-10T16:56:47Z</time></trkpt><trkpt lat="44.467891" lon="-0.229485"><ele>112.61</ele><time>2010-10-10T16:57:01Z</time></trkpt><trkpt lat="44.470303" lon="-0.228804"><ele>109.73</ele><time>2010-10-10T16:57:14Z</time></trkpt><trkpt lat="44.472067" lon="-0.228310"><ele>110.21</ele><time>2010-10-10T16:57:23Z</time></trkpt><trkpt lat="44.474602" lon="-0.227579"><ele>116.94</ele><time>2010-10-10T16:57:37Z</time></trkpt><trkpt lat="44.475951" lon="-0.227557"><ele>117.90</ele><time>2010-10-10T16:57:45Z</time></trkpt><trkpt lat="44.476616" lon="-0.227926"><ele>117.42</ele><time>2010-10-10T16:57:49Z</time></trkpt><trkpt lat="44.478622" lon="-0.229073"><ele>115.01</ele><time>2010-10-10T16:58:00Z</time></trkpt><trkpt lat="44.481231" lon="-0.230182"><ele>110.69</ele><time>2010-10-10T16:58:13Z</time></trkpt><trkpt lat="44.483695" lon="-0.231238"><ele>106.84</ele><time>2010-10-10T16:58:25Z</time></trkpt><trkpt lat="44.486227" lon="-0.232324"><ele>100.11</ele><time>2010-10-10T16:58:37Z</time></trkpt><trkpt lat="44.488391" lon="-0.233255"><ele>96.27</ele><time>2010-10-10T16:58:47Z</time></trkpt><trkpt lat="44.490265" lon="-0.234031"><ele>94.83</ele><time>2010-10-10T16:58:57Z</time></trkpt><trkpt lat="44.492763" lon="-0.235143"><ele>94.83</ele><time>2010-10-10T16:59:11Z</time></trkpt><trkpt lat="44.495083" lon="-0.236121"><ele>97.71</ele><time>2010-10-10T16:59:23Z</time></trkpt><trkpt lat="44.496928" lon="-0.236904"><ele>97.71</ele><time>2010-10-10T16:59:33Z</time></trkpt><trkpt lat="44.499051" lon="-0.237678"><ele>94.83</ele><time>2010-10-10T16:59:45Z</time></trkpt><trkpt lat="44.501019" lon="-0.237918"><ele>92.42</ele><time>2010-10-10T16:59:55Z</time></trkpt><trkpt lat="44.503993" lon="-0.238242"><ele>89.06</ele><time>2010-10-10T17:00:10Z</time></trkpt><trkpt lat="44.506347" lon="-0.238407"><ele>82.33</ele><time>2010-10-10T17:00:21Z</time></trkpt><trkpt lat="44.509374" lon="-0.238730"><ele>77.04</ele><time>2010-10-10T17:00:34Z</time></trkpt><trkpt lat="44.512073" lon="-0.239019"><ele>75.60</ele><time>2010-10-10T17:00:46Z</time></trkpt><trkpt lat="44.513914" lon="-0.239204"><ele>68.87</ele><time>2010-10-10T17:00:56Z</time></trkpt><trkpt lat="44.515606" lon="-0.239445"><ele>62.62</ele><time>2010-10-10T17:01:06Z</time></trkpt><trkpt lat="44.517496" lon="-0.239644"><ele>56.86</ele><time>2010-10-10T17:01:18Z</time></trkpt><trkpt lat="44.519550" lon="-0.239873"><ele>54.93</ele><time>2010-10-10T17:01:30Z</time></trkpt><trkpt lat="44.521648" lon="-0.240077"><ele>54.45</ele><time>2010-10-10T17:01:43Z</time></trkpt><trkpt lat="44.523532" lon="-0.240290"><ele>52.05</ele><time>2010-10-10T17:01:55Z</time></trkpt><trkpt lat="44.525317" lon="-0.240452"><ele>50.61</ele><time>2010-10-10T17:02:05Z</time></trkpt><trkpt lat="44.527937" lon="-0.240724"><ele>48.20</ele><time>2010-10-10T17:02:20Z</time></trkpt><trkpt lat="44.530029" lon="-0.240768"><ele>47.72</ele><time>2010-10-10T17:02:31Z</time></trkpt><trkpt lat="44.532072" lon="-0.240788"><ele>51.57</ele><time>2010-10-10T17:02:44Z</time></trkpt><trkpt lat="44.534030" lon="-0.241280"><ele>46.28</ele><time>2010-10-10T17:02:56Z</time></trkpt><trkpt lat="44.535422" lon="-0.241562"><ele>43.40</ele><time>2010-10-10T17:03:05Z</time></trkpt><trkpt lat="44.536903" lon="-0.241699"><ele>42.44</ele><time>2010-10-10T17:03:16Z</time></trkpt><trkpt lat="44.537526" lon="-0.241656"><ele>41.95</ele><time>2010-10-10T17:03:23Z</time></trkpt><trkpt lat="44.537661" lon="-0.241631"><ele>41.95</ele><time>2010-10-10T17:03:25Z</time></trkpt><trkpt lat="44.537661" lon="-0.241631"><ele>41.95</ele><time>2010-10-10T17:03:26Z</time></trkpt><trkpt lat="44.537789" lon="-0.241523"><ele>41.95</ele><time>2010-10-10T17:03:27Z</time></trkpt><trkpt lat="44.537854" lon="-0.241433"><ele>41.95</ele><time>2010-10-10T17:03:28Z</time></trkpt><trkpt lat="44.537919" lon="-0.241368"><ele>41.47</ele><time>2010-10-10T17:03:29Z</time></trkpt><trkpt lat="44.538019" lon="-0.241370"><ele>41.47</ele><time>2010-10-10T17:03:30Z</time></trkpt><trkpt lat="44.538099" lon="-0.241384"><ele>41.47</ele><time>2010-10-10T17:03:31Z</time></trkpt><trkpt lat="44.538184" lon="-0.241398"><ele>41.47</ele><time>2010-10-10T17:03:32Z</time></trkpt><trkpt lat="44.538249" lon="-0.241477"><ele>40.99</ele><time>2010-10-10T17:03:33Z</time></trkpt><trkpt lat="44.538299" lon="-0.241576"><ele>40.51</ele><time>2010-10-10T17:03:34Z</time></trkpt><trkpt lat="44.538349" lon="-0.241676"><ele>40.51</ele><time>2010-10-10T17:03:35Z</time></trkpt><trkpt lat="44.538338" lon="-0.241787"><ele>40.51</ele><time>2010-10-10T17:03:36Z</time></trkpt><trkpt lat="44.538310" lon="-0.241893"><ele>40.51</ele><time>2010-10-10T17:03:37Z</time></trkpt><trkpt lat="44.538274" lon="-0.242000"><ele>40.51</ele><time>2010-10-10T17:03:38Z</time></trkpt><trkpt lat="44.538217" lon="-0.242076"><ele>40.51</ele><time>2010-10-10T17:03:39Z</time></trkpt><trkpt lat="44.538101" lon="-0.242328"><ele>40.99</ele><time>2010-10-10T17:03:41Z</time></trkpt><trkpt lat="44.538065" lon="-0.242455"><ele>40.99</ele><time>2010-10-10T17:03:42Z</time></trkpt><trkpt lat="44.538060" lon="-0.242628"><ele>40.99</ele><time>2010-10-10T17:03:43Z</time></trkpt><trkpt lat="44.538196" lon="-0.244361"><ele>42.44</ele><time>2010-10-10T17:03:52Z</time></trkpt><trkpt lat="44.538581" lon="-0.246520"><ele>39.07</ele><time>2010-10-10T17:04:02Z</time></trkpt><trkpt lat="44.539334" lon="-0.249448"><ele>25.61</ele><time>2010-10-10T17:04:17Z</time></trkpt><trkpt lat="44.539931" lon="-0.250611"><ele>17.92</ele><time>2010-10-10T17:04:25Z</time></trkpt><trkpt lat="44.540289" lon="-0.251228"><ele>14.08</ele><time>2010-10-10T17:04:33Z</time></trkpt><trkpt lat="44.540491" lon="-0.251521"><ele>13.12</ele><time>2010-10-10T17:04:37Z</time></trkpt><trkpt lat="44.540543" lon="-0.251511"><ele>13.12</ele><time>2010-10-10T17:04:38Z</time></trkpt><trkpt lat="44.540662" lon="-0.251487"><ele>12.63</ele><time>2010-10-10T17:04:40Z</time></trkpt><trkpt lat="44.540738" lon="-0.251545"><ele>12.15</ele><time>2010-10-10T17:04:41Z</time></trkpt><trkpt lat="44.540806" lon="-0.251641"><ele>12.15</ele><time>2010-10-10T17:04:42Z</time></trkpt><trkpt lat="44.540806" lon="-0.251730"><ele>12.15</ele><time>2010-10-10T17:04:43Z</time></trkpt><trkpt lat="44.540806" lon="-0.251827"><ele>12.15</ele><time>2010-10-10T17:04:44Z</time></trkpt><trkpt lat="44.540800" lon="-0.251971"><ele>12.15</ele><time>2010-10-10T17:04:45Z</time></trkpt><trkpt lat="44.540851" lon="-0.252052"><ele>12.15</ele><time>2010-10-10T17:04:46Z</time></trkpt><trkpt lat="44.540911" lon="-0.252148"><ele>12.15</ele><time>2010-10-10T17:04:47Z</time></trkpt><trkpt lat="44.540979" lon="-0.252255"><ele>12.63</ele><time>2010-10-10T17:04:48Z</time></trkpt><trkpt lat="44.541050" lon="-0.252368"><ele>12.63</ele><time>2010-10-10T17:04:49Z</time></trkpt><trkpt lat="44.541855" lon="-0.253584"><ele>16.96</ele><time>2010-10-10T17:05:01Z</time></trkpt><trkpt lat="44.542018" lon="-0.253801"><ele>17.44</ele><time>2010-10-10T17:05:06Z</time></trkpt><trkpt lat="44.542223" lon="-0.253887"><ele>17.92</ele><time>2010-10-10T17:05:09Z</time></trkpt><trkpt lat="44.542245" lon="-0.253910"><ele>18.40</ele><time>2010-10-10T17:05:10Z</time></trkpt><trkpt lat="44.542308" lon="-0.253993"><ele>18.88</ele><time>2010-10-10T17:05:11Z</time></trkpt><trkpt lat="44.542308" lon="-0.254099"><ele>19.36</ele><time>2010-10-10T17:05:12Z</time></trkpt><trkpt lat="44.542309" lon="-0.254231"><ele>19.36</ele><time>2010-10-10T17:05:13Z</time></trkpt><trkpt lat="44.542345" lon="-0.254358"><ele>19.36</ele><time>2010-10-10T17:05:14Z</time></trkpt><trkpt lat="44.542384" lon="-0.254497"><ele>19.84</ele><time>2010-10-10T17:05:15Z</time></trkpt><trkpt lat="44.542456" lon="-0.254638"><ele>19.84</ele><time>2010-10-10T17:05:16Z</time></trkpt><trkpt lat="44.543404" lon="-0.256317"><ele>23.21</ele><time>2010-10-10T17:05:28Z</time></trkpt><trkpt lat="44.543848" lon="-0.257260"><ele>23.21</ele><time>2010-10-10T17:05:37Z</time></trkpt><trkpt lat="44.544014" lon="-0.257629"><ele>23.69</ele><time>2010-10-10T17:05:41Z</time></trkpt><trkpt lat="44.544095" lon="-0.257750"><ele>23.69</ele><time>2010-10-10T17:05:42Z</time></trkpt><trkpt lat="44.544159" lon="-0.257750"><ele>23.69</ele><time>2010-10-10T17:05:43Z</time></trkpt><trkpt lat="44.544227" lon="-0.257750"><ele>23.21</ele><time>2010-10-10T17:05:44Z</time></trkpt><trkpt lat="44.544292" lon="-0.257837"><ele>23.21</ele><time>2010-10-10T17:05:45Z</time></trkpt><trkpt lat="44.544368" lon="-0.257964"><ele>23.21</ele><time>2010-10-10T17:05:46Z</time></trkpt><trkpt lat="44.544348" lon="-0.258015"><ele>23.21</ele><time>2010-10-10T17:05:47Z</time></trkpt><trkpt lat="44.544315" lon="-0.258099"><ele>23.21</ele><time>2010-10-10T17:05:48Z</time></trkpt><trkpt lat="44.544282" lon="-0.258179"><ele>23.21</ele><time>2010-10-10T17:05:49Z</time></trkpt><trkpt lat="44.544207" lon="-0.258340"><ele>23.21</ele><time>2010-10-10T17:05:50Z</time></trkpt><trkpt lat="44.544223" lon="-0.258452"><ele>23.21</ele><time>2010-10-10T17:05:51Z</time></trkpt><trkpt lat="44.544245" lon="-0.258587"><ele>23.69</ele><time>2010-10-10T17:05:52Z</time></trkpt><trkpt lat="44.544280" lon="-0.258723"><ele>23.69</ele><time>2010-10-10T17:05:53Z</time></trkpt><trkpt lat="44.544317" lon="-0.258868"><ele>23.69</ele><time>2010-10-10T17:05:54Z</time></trkpt><trkpt lat="44.544650" lon="-0.260171"><ele>24.17</ele><time>2010-10-10T17:06:03Z</time></trkpt><trkpt lat="44.544677" lon="-0.260277"><ele>24.17</ele><time>2010-10-10T17:06:04Z</time></trkpt><trkpt lat="44.544677" lon="-0.260277"><ele>24.17</ele><time>2010-10-10T17:06:05Z</time></trkpt><trkpt lat="44.544969" lon="-0.260496"><ele>24.17</ele><time>2010-10-10T17:06:07Z</time></trkpt><trkpt lat="44.544985" lon="-0.260545"><ele>24.17</ele><time>2010-10-10T17:06:08Z</time></trkpt><trkpt lat="44.545012" lon="-0.260625"><ele>24.17</ele><time>2010-10-10T17:06:09Z</time></trkpt><trkpt lat="44.544991" lon="-0.260752"><ele>24.17</ele><time>2010-10-10T17:06:10Z</time></trkpt><trkpt lat="44.544975" lon="-0.260850"><ele>24.17</ele><time>2010-10-10T17:06:11Z</time></trkpt><trkpt lat="44.544932" lon="-0.260919"><ele>24.17</ele><time>2010-10-10T17:06:12Z</time></trkpt><trkpt lat="44.544875" lon="-0.260977"><ele>24.17</ele><time>2010-10-10T17:06:13Z</time></trkpt><trkpt lat="44.544816" lon="-0.261005"><ele>24.17</ele><time>2010-10-10T17:06:14Z</time></trkpt><trkpt lat="44.544759" lon="-0.260991"><ele>24.17</ele><time>2010-10-10T17:06:15Z</time></trkpt><trkpt lat="44.544638" lon="-0.261085"><ele>24.65</ele><time>2010-10-10T17:06:16Z</time></trkpt><trkpt lat="44.544615" lon="-0.261171"><ele>24.65</ele><time>2010-10-10T17:06:17Z</time></trkpt><trkpt lat="44.544589" lon="-0.261266"><ele>24.65</ele><time>2010-10-10T17:06:18Z</time></trkpt><trkpt lat="44.544561" lon="-0.261371"><ele>25.13</ele><time>2010-10-10T17:06:19Z</time></trkpt><trkpt lat="44.544362" lon="-0.261962"><ele>26.09</ele><time>2010-10-10T17:06:27Z</time></trkpt><trkpt lat="44.544328" lon="-0.262051"><ele>26.09</ele><time>2010-10-10T17:06:35Z</time></trkpt><trkpt lat="44.544319" lon="-0.262076"><ele>26.09</ele><time>2010-10-10T17:06:36Z</time></trkpt><trkpt lat="44.544302" lon="-0.262120"><ele>25.61</ele><time>2010-10-10T17:06:37Z</time></trkpt><trkpt lat="44.544277" lon="-0.262184"><ele>25.61</ele><time>2010-10-10T17:06:38Z</time></trkpt><trkpt lat="44.544245" lon="-0.262267"><ele>25.61</ele><time>2010-10-10T17:06:39Z</time></trkpt><trkpt lat="44.543881" lon="-0.263187"><ele>26.09</ele><time>2010-10-10T17:06:46Z</time></trkpt><trkpt lat="44.543510" lon="-0.264946"><ele>28.02</ele><time>2010-10-10T17:06:56Z</time></trkpt><trkpt lat="44.543510" lon="-0.264946"><ele>28.02</ele><time>2010-10-10T17:06:57Z</time></trkpt><trkpt lat="44.543515" lon="-0.265284"><ele>28.02</ele><time>2010-10-10T17:06:58Z</time></trkpt><trkpt lat="44.543546" lon="-0.265439"><ele>28.02</ele><time>2010-10-10T17:06:59Z</time></trkpt><trkpt lat="44.543577" lon="-0.265594"><ele>27.53</ele><time>2010-10-10T17:07:00Z</time></trkpt><trkpt lat="44.543610" lon="-0.265754"><ele>27.53</ele><time>2010-10-10T17:07:01Z</time></trkpt><trkpt lat="44.543646" lon="-0.265916"><ele>27.53</ele><time>2010-10-10T17:07:02Z</time></trkpt><trkpt lat="44.543685" lon="-0.266082"><ele>27.53</ele><time>2010-10-10T17:07:03Z</time></trkpt><trkpt lat="44.543758" lon="-0.266228"><ele>27.05</ele><time>2010-10-10T17:07:04Z</time></trkpt><trkpt lat="44.543833" lon="-0.266378"><ele>26.57</ele><time>2010-10-10T17:07:05Z</time></trkpt><trkpt lat="44.543922" lon="-0.266517"><ele>26.57</ele><time>2010-10-10T17:07:06Z</time></trkpt><trkpt lat="44.544021" lon="-0.266659"><ele>26.57</ele><time>2010-10-10T17:07:07Z</time></trkpt><trkpt lat="44.544123" lon="-0.266806"><ele>26.57</ele><time>2010-10-10T17:07:08Z</time></trkpt><trkpt lat="44.544540" lon="-0.267406"><ele>26.09</ele><time>2010-10-10T17:07:15Z</time></trkpt><trkpt lat="44.546888" lon="-0.270343"><ele>25.13</ele><time>2010-10-10T17:07:27Z</time></trkpt><trkpt lat="44.548807" lon="-0.272933"><ele>24.17</ele><time>2010-10-10T17:07:39Z</time></trkpt><trkpt lat="44.551348" lon="-0.276724"><ele>22.73</ele><time>2010-10-10T17:07:55Z</time></trkpt><trkpt lat="44.554017" lon="-0.280946"><ele>22.25</ele><time>2010-10-10T17:08:12Z</time></trkpt><trkpt lat="44.556275" lon="-0.284615"><ele>21.29</ele><time>2010-10-10T17:08:26Z</time></trkpt><trkpt lat="44.558328" lon="-0.288468"><ele>23.21</ele><time>2010-10-10T17:08:40Z</time></trkpt><trkpt lat="44.560312" lon="-0.292956"><ele>25.13</ele><time>2010-10-10T17:08:55Z</time></trkpt><trkpt lat="44.562601" lon="-0.298453"><ele>21.29</ele><time>2010-10-10T17:09:13Z</time></trkpt><trkpt lat="44.564159" lon="-0.301052"><ele>16.48</ele><time>2010-10-10T17:09:22Z</time></trkpt><trkpt lat="44.566642" lon="-0.304068"><ele>11.19</ele><time>2010-10-10T17:09:34Z</time></trkpt><trkpt lat="44.569643" lon="-0.307577"><ele>10.23</ele><time>2010-10-10T17:09:49Z</time></trkpt><trkpt lat="44.571432" lon="-0.310220"><ele>9.27</ele><time>2010-10-10T17:09:59Z</time></trkpt><trkpt lat="44.572834" lon="-0.313345"><ele>7.83</ele><time>2010-10-10T17:10:09Z</time></trkpt><trkpt lat="44.575330" lon="-0.319709"><ele>9.75</ele><time>2010-10-10T17:10:29Z</time></trkpt><trkpt lat="44.577401" lon="-0.325035"><ele>10.71</ele><time>2010-10-10T17:10:46Z</time></trkpt><trkpt lat="44.579322" lon="-0.330326"><ele>11.67</ele><time>2010-10-10T17:11:03Z</time></trkpt><trkpt lat="44.580677" lon="-0.334924"><ele>12.63</ele><time>2010-10-10T17:11:17Z</time></trkpt><trkpt lat="44.582230" lon="-0.339866"><ele>13.60</ele><time>2010-10-10T17:11:32Z</time></trkpt><trkpt lat="44.583494" lon="-0.342567"><ele>14.08</ele><time>2010-10-10T17:11:42Z</time></trkpt><trkpt lat="44.585894" lon="-0.346622"><ele>14.56</ele><time>2010-10-10T17:11:57Z</time></trkpt><trkpt lat="44.588529" lon="-0.350780"><ele>13.60</ele><time>2010-10-10T17:12:14Z</time></trkpt><trkpt lat="44.591254" lon="-0.354702"><ele>11.67</ele><time>2010-10-10T17:12:29Z</time></trkpt><trkpt lat="44.593724" lon="-0.357846"><ele>10.23</ele><time>2010-10-10T17:12:42Z</time></trkpt><trkpt lat="44.596325" lon="-0.360931"><ele>9.75</ele><time>2010-10-10T17:12:55Z</time></trkpt><trkpt lat="44.598884" lon="-0.363622"><ele>10.71</ele><time>2010-10-10T17:13:08Z</time></trkpt><trkpt lat="44.601760" lon="-0.366607"><ele>14.08</ele><time>2010-10-10T17:13:23Z</time></trkpt><trkpt lat="44.605303" lon="-0.370294"><ele>18.88</ele><time>2010-10-10T17:13:41Z</time></trkpt><trkpt lat="44.607680" lon="-0.372732"><ele>20.81</ele><time>2010-10-10T17:13:54Z</time></trkpt><trkpt lat="44.609298" lon="-0.374421"><ele>21.29</ele><time>2010-10-10T17:14:05Z</time></trkpt><trkpt lat="44.611268" lon="-0.376535"><ele>20.81</ele><time>2010-10-10T17:14:17Z</time></trkpt><trkpt lat="44.612747" lon="-0.378202"><ele>20.32</ele><time>2010-10-10T17:14:25Z</time></trkpt><trkpt lat="44.615096" lon="-0.381090"><ele>20.81</ele><time>2010-10-10T17:14:36Z</time></trkpt><trkpt lat="44.617650" lon="-0.384772"><ele>20.81</ele><time>2010-10-10T17:14:48Z</time></trkpt><trkpt lat="44.620596" lon="-0.389817"><ele>20.81</ele><time>2010-10-10T17:15:03Z</time></trkpt><trkpt lat="44.622395" lon="-0.393201"><ele>20.81</ele><time>2010-10-10T17:15:13Z</time></trkpt><trkpt lat="44.624763" lon="-0.397785"><ele>20.81</ele><time>2010-10-10T17:15:27Z</time></trkpt><trkpt lat="44.627047" lon="-0.402208"><ele>20.81</ele><time>2010-10-10T17:15:40Z</time></trkpt><trkpt lat="44.629921" lon="-0.408234"><ele>20.81</ele><time>2010-10-10T17:15:56Z</time></trkpt><trkpt lat="44.633209" lon="-0.415274"><ele>20.32</ele><time>2010-10-10T17:16:14Z</time></trkpt><trkpt lat="44.635756" lon="-0.420319"><ele>19.36</ele><time>2010-10-10T17:16:28Z</time></trkpt><trkpt lat="44.637878" lon="-0.423931"><ele>18.40</ele><time>2010-10-10T17:16:40Z</time></trkpt><trkpt lat="44.640655" lon="-0.428015"><ele>17.44</ele><time>2010-10-10T17:16:55Z</time></trkpt><trkpt lat="44.642436" lon="-0.430417"><ele>17.44</ele><time>2010-10-10T17:17:05Z</time></trkpt><trkpt lat="44.643929" lon="-0.432409"><ele>16.48</ele><time>2010-10-10T17:17:15Z</time></trkpt><trkpt lat="44.644693" lon="-0.433437"><ele>16.96</ele><time>2010-10-10T17:17:23Z</time></trkpt><trkpt lat="44.644748" lon="-0.433511"><ele>17.44</ele><time>2010-10-10T17:17:24Z</time></trkpt><trkpt lat="44.644792" lon="-0.433570"><ele>17.44</ele><time>2010-10-10T17:17:25Z</time></trkpt><trkpt lat="44.644827" lon="-0.433617"><ele>17.92</ele><time>2010-10-10T17:17:26Z</time></trkpt><trkpt lat="44.644854" lon="-0.433653"><ele>17.92</ele><time>2010-10-10T17:17:27Z</time></trkpt><trkpt lat="44.644923" lon="-0.433746"><ele>17.44</ele><time>2010-10-10T17:17:35Z</time></trkpt><trkpt lat="44.645573" lon="-0.433230"><ele>17.92</ele><time>2010-10-10T17:17:41Z</time></trkpt><trkpt lat="44.645860" lon="-0.433273"><ele>17.92</ele><time>2010-10-10T17:17:49Z</time></trkpt><trkpt lat="44.645893" lon="-0.433297"><ele>17.92</ele><time>2010-10-10T17:17:50Z</time></trkpt><trkpt lat="44.645939" lon="-0.433334"><ele>17.92</ele><time>2010-10-10T17:17:51Z</time></trkpt><trkpt lat="44.645989" lon="-0.433374"><ele>17.44</ele><time>2010-10-10T17:17:52Z</time></trkpt><trkpt lat="44.646041" lon="-0.433416"><ele>17.44</ele><time>2010-10-10T17:17:53Z</time></trkpt><trkpt lat="44.646087" lon="-0.433460"><ele>16.96</ele><time>2010-10-10T17:17:54Z</time></trkpt><trkpt lat="44.646126" lon="-0.433522"><ele>16.96</ele><time>2010-10-10T17:17:55Z</time></trkpt><trkpt lat="44.646165" lon="-0.433585"><ele>17.44</ele><time>2010-10-10T17:17:56Z</time></trkpt><trkpt lat="44.646358" lon="-0.433953"><ele>16.48</ele><time>2010-10-10T17:18:04Z</time></trkpt><trkpt lat="44.646358" lon="-0.433953"><ele>16.48</ele><time>2010-10-10T17:18:05Z</time></trkpt><trkpt lat="44.646342" lon="-0.434588"><ele>16.96</ele><time>2010-10-10T17:18:14Z</time></trkpt><trkpt lat="44.646338" lon="-0.434638"><ele>17.44</ele><time>2010-10-10T17:18:25Z</time></trkpt><trkpt lat="44.646335" lon="-0.434686"><ele>17.92</ele><time>2010-10-10T17:18:36Z</time></trkpt><trkpt lat="44.646337" lon="-0.434695"><ele>17.92</ele><time>2010-10-10T17:18:37Z</time></trkpt><trkpt lat="44.646427" lon="-0.434933"><ele>17.92</ele><time>2010-10-10T17:18:46Z</time></trkpt><trkpt lat="44.646464" lon="-0.435047"><ele>17.92</ele><time>2010-10-10T17:18:50Z</time></trkpt><trkpt lat="44.646464" lon="-0.435068"><ele>17.92</ele><time>2010-10-10T17:18:51Z</time></trkpt><trkpt lat="44.646464" lon="-0.435068"><ele>17.92</ele><time>2010-10-10T17:18:53Z</time></trkpt><trkpt lat="44.646464" lon="-0.435068"><ele>17.92</ele><time>2010-10-10T17:18:54Z</time></trkpt><trkpt lat="44.646108" lon="-0.435573"><ele>18.40</ele><time>2010-10-10T17:18:55Z</time></trkpt><trkpt lat="44.646090" lon="-0.435551"><ele>17.92</ele><time>2010-10-10T17:18:56Z</time></trkpt><trkpt lat="44.646065" lon="-0.435517"><ele>17.92</ele><time>2010-10-10T17:18:57Z</time></trkpt><trkpt lat="44.645650" lon="-0.434963"><ele>17.92</ele><time>2010-10-10T17:19:05Z</time></trkpt><trkpt lat="44.645371" lon="-0.434592"><ele>17.44</ele><time>2010-10-10T17:19:12Z</time></trkpt><trkpt lat="44.645256" lon="-0.435051"><ele>17.44</ele><time>2010-10-10T17:19:17Z</time></trkpt><trkpt lat="44.645288" lon="-0.434481"><ele>16.96</ele><time>2010-10-10T17:19:18Z</time></trkpt><trkpt lat="44.645255" lon="-0.434437"><ele>16.96</ele><time>2010-10-10T17:19:19Z</time></trkpt></trkseg></trk><trk><name>ACTIVE LOG: 10 окт 2010 19:30</name><trkseg><trkpt lat="44.645611" lon="-0.434224"><ele>19.84</ele><time>2010-10-10T17:30:40Z</time></trkpt><trkpt lat="44.645611" lon="-0.434224"><ele>19.84</ele><time>2010-10-10T17:31:59Z</time></trkpt><trkpt lat="44.645611" lon="-0.434224"><ele>19.84</ele><time>2010-10-10T17:33:20Z</time></trkpt><trkpt lat="44.645611" lon="-0.434224"><ele>19.36</ele><time>2010-10-10T17:34:05Z</time></trkpt><trkpt lat="44.645792" lon="-0.433994"><ele>19.84</ele><time>2010-10-10T17:34:11Z</time></trkpt><trkpt lat="44.645916" lon="-0.434636"><ele>18.88</ele><time>2010-10-10T17:34:21Z</time></trkpt><trkpt lat="44.646290" lon="-0.435141"><ele>19.36</ele><time>2010-10-10T17:34:32Z</time></trkpt><trkpt lat="44.646332" lon="-0.435197"><ele>19.36</ele><time>2010-10-10T17:34:33Z</time></trkpt><trkpt lat="44.646372" lon="-0.435253"><ele>19.36</ele><time>2010-10-10T17:34:34Z</time></trkpt><trkpt lat="44.646410" lon="-0.435304"><ele>19.36</ele><time>2010-10-10T17:34:35Z</time></trkpt><trkpt lat="44.646449" lon="-0.435356"><ele>19.84</ele><time>2010-10-10T17:34:36Z</time></trkpt><trkpt lat="44.646489" lon="-0.435410"><ele>19.84</ele><time>2010-10-10T17:34:37Z</time></trkpt><trkpt lat="44.646530" lon="-0.435464"><ele>19.84</ele><time>2010-10-10T17:34:38Z</time></trkpt><trkpt lat="44.646574" lon="-0.435522"><ele>19.84</ele><time>2010-10-10T17:34:39Z</time></trkpt><trkpt lat="44.646574" lon="-0.435522"><ele>19.36</ele><time>2010-10-10T17:34:40Z</time></trkpt><trkpt lat="44.646675" lon="-0.435655"><ele>19.36</ele><time>2010-10-10T17:34:41Z</time></trkpt><trkpt lat="44.646731" lon="-0.435730"><ele>18.88</ele><time>2010-10-10T17:34:42Z</time></trkpt><trkpt lat="44.647451" lon="-0.436681"><ele>18.88</ele><time>2010-10-10T17:34:51Z</time></trkpt><trkpt lat="44.648606" lon="-0.438428"><ele>18.40</ele><time>2010-10-10T17:35:03Z</time></trkpt><trkpt lat="44.649872" lon="-0.440404"><ele>19.36</ele><time>2010-10-10T17:35:14Z</time></trkpt><trkpt lat="44.651946" lon="-0.443202"><ele>20.81</ele><time>2010-10-10T17:35:27Z</time></trkpt><trkpt lat="44.654020" lon="-0.446002"><ele>21.77</ele><time>2010-10-10T17:35:41Z</time></trkpt><trkpt lat="44.655510" lon="-0.448107"><ele>22.25</ele><time>2010-10-10T17:35:53Z</time></trkpt><trkpt lat="44.657082" lon="-0.450560"><ele>22.73</ele><time>2010-10-10T17:36:07Z</time></trkpt><trkpt lat="44.658869" lon="-0.453299"><ele>23.69</ele><time>2010-10-10T17:36:25Z</time></trkpt><trkpt lat="44.659168" lon="-0.453765"><ele>23.69</ele><time>2010-10-10T17:36:31Z</time></trkpt><trkpt lat="44.659242" lon="-0.453884"><ele>24.17</ele><time>2010-10-10T17:36:40Z</time></trkpt><trkpt lat="44.659265" lon="-0.453922"><ele>24.17</ele><time>2010-10-10T17:36:58Z</time></trkpt><trkpt lat="44.659458" lon="-0.454250"><ele>23.21</ele><time>2010-10-10T17:37:06Z</time></trkpt><trkpt lat="44.660092" lon="-0.455296"><ele>23.21</ele><time>2010-10-10T17:37:14Z</time></trkpt><trkpt lat="44.661657" lon="-0.457813"><ele>22.73</ele><time>2010-10-10T17:37:28Z</time></trkpt><trkpt lat="44.662613" lon="-0.459351"><ele>22.73</ele><time>2010-10-10T17:37:35Z</time></trkpt><trkpt lat="44.662757" lon="-0.459595"><ele>22.73</ele><time>2010-10-10T17:37:36Z</time></trkpt><trkpt lat="44.664544" lon="-0.462472"><ele>22.73</ele><time>2010-10-10T17:37:47Z</time></trkpt><trkpt lat="44.666545" lon="-0.465647"><ele>23.69</ele><time>2010-10-10T17:37:58Z</time></trkpt><trkpt lat="44.667789" lon="-0.467622"><ele>24.17</ele><time>2010-10-10T17:38:06Z</time></trkpt><trkpt lat="44.670165" lon="-0.471618"><ele>19.84</ele><time>2010-10-10T17:38:22Z</time></trkpt><trkpt lat="44.672673" lon="-0.476383"><ele>10.23</ele><time>2010-10-10T17:38:39Z</time></trkpt><trkpt lat="44.674917" lon="-0.480430"><ele>3.98</ele><time>2010-10-10T17:38:54Z</time></trkpt><trkpt lat="44.677283" lon="-0.483849"><ele>2.06</ele><time>2010-10-10T17:39:08Z</time></trkpt><trkpt lat="44.679717" lon="-0.486636"><ele>2.06</ele><time>2010-10-10T17:39:21Z</time></trkpt><trkpt lat="44.682533" lon="-0.489128"><ele>6.87</ele><time>2010-10-10T17:39:35Z</time></trkpt><trkpt lat="44.685699" lon="-0.491217"><ele>15.04</ele><time>2010-10-10T17:39:50Z</time></trkpt><trkpt lat="44.687459" lon="-0.492205"><ele>17.92</ele><time>2010-10-10T17:39:58Z</time></trkpt><trkpt lat="44.691536" lon="-0.494588"><ele>16.00</ele><time>2010-10-10T17:40:17Z</time></trkpt><trkpt lat="44.694809" lon="-0.496810"><ele>9.75</ele><time>2010-10-10T17:40:31Z</time></trkpt><trkpt lat="44.697781" lon="-0.499268"><ele>4.46</ele><time>2010-10-10T17:40:46Z</time></trkpt><trkpt lat="44.700935" lon="-0.502400"><ele>3.02</ele><time>2010-10-10T17:41:03Z</time></trkpt><trkpt lat="44.703462" lon="-0.505352"><ele>2.54</ele><time>2010-10-10T17:41:18Z</time></trkpt><trkpt lat="44.706089" lon="-0.508612"><ele>5.42</ele><time>2010-10-10T17:41:35Z</time></trkpt><trkpt lat="44.708959" lon="-0.512100"><ele>7.83</ele><time>2010-10-10T17:41:51Z</time></trkpt><trkpt lat="44.712008" lon="-0.515331"><ele>9.27</ele><time>2010-10-10T17:42:08Z</time></trkpt><trkpt lat="44.714895" lon="-0.517898"><ele>7.35</ele><time>2010-10-10T17:42:23Z</time></trkpt><trkpt lat="44.717834" lon="-0.520200"><ele>5.42</ele><time>2010-10-10T17:42:38Z</time></trkpt><trkpt lat="44.720757" lon="-0.522509"><ele>3.98</ele><time>2010-10-10T17:42:52Z</time></trkpt><trkpt lat="44.722900" lon="-0.524204"><ele>2.54</ele><time>2010-10-10T17:43:01Z</time></trkpt><trkpt lat="44.725763" lon="-0.526379"><ele>3.02</ele><time>2010-10-10T17:43:13Z</time></trkpt><trkpt lat="44.728602" lon="-0.528500"><ele>3.02</ele><time>2010-10-10T17:43:24Z</time></trkpt><trkpt lat="44.731995" lon="-0.530721"><ele>2.54</ele><time>2010-10-10T17:43:36Z</time></trkpt><trkpt lat="44.736875" lon="-0.533583"><ele>1.58</ele><time>2010-10-10T17:43:52Z</time></trkpt><trkpt lat="44.739782" lon="-0.535259"><ele>3.02</ele><time>2010-10-10T17:44:02Z</time></trkpt><trkpt lat="44.745398" lon="-0.538491"><ele>5.42</ele><time>2010-10-10T17:44:23Z</time></trkpt><trkpt lat="44.749833" lon="-0.541037"><ele>6.39</ele><time>2010-10-10T17:44:40Z</time></trkpt><trkpt lat="44.753223" lon="-0.543007"><ele>4.46</ele><time>2010-10-10T17:44:54Z</time></trkpt><trkpt lat="44.756794" lon="-0.545016"><ele>1.58</ele><time>2010-10-10T17:45:09Z</time></trkpt><trkpt lat="44.760319" lon="-0.546570"><ele>0.62</ele><time>2010-10-10T17:45:24Z</time></trkpt><trkpt lat="44.762525" lon="-0.547580"><ele>0.14</ele><time>2010-10-10T17:45:35Z</time></trkpt><trkpt lat="44.764346" lon="-0.548819"><ele>1.10</ele><time>2010-10-10T17:45:45Z</time></trkpt><trkpt lat="44.766214" lon="-0.550848"><ele>3.50</ele><time>2010-10-10T17:45:56Z</time></trkpt><trkpt lat="44.768221" lon="-0.553122"><ele>8.31</ele><time>2010-10-10T17:46:08Z</time></trkpt><trkpt lat="44.769952" lon="-0.554390"><ele>11.19</ele><time>2010-10-10T17:46:18Z</time></trkpt><trkpt lat="44.772362" lon="-0.555509"><ele>10.71</ele><time>2010-10-10T17:46:31Z</time></trkpt><trkpt lat="44.774853" lon="-0.556499"><ele>8.31</ele><time>2010-10-10T17:46:45Z</time></trkpt><trkpt lat="44.776288" lon="-0.556705"><ele>6.39</ele><time>2010-10-10T17:46:53Z</time></trkpt><trkpt lat="44.777180" lon="-0.556446"><ele>5.42</ele><time>2010-10-10T17:46:58Z</time></trkpt><trkpt lat="44.777343" lon="-0.556352"><ele>5.91</ele><time>2010-10-10T17:46:59Z</time></trkpt><trkpt lat="44.777491" lon="-0.556261"><ele>5.91</ele><time>2010-10-10T17:47:00Z</time></trkpt><trkpt lat="44.777852" lon="-0.555810"><ele>6.39</ele><time>2010-10-10T17:47:03Z</time></trkpt><trkpt lat="44.777961" lon="-0.555653"><ele>6.87</ele><time>2010-10-10T17:47:04Z</time></trkpt><trkpt lat="44.778066" lon="-0.555500"><ele>6.87</ele><time>2010-10-10T17:47:05Z</time></trkpt><trkpt lat="44.778153" lon="-0.555343"><ele>6.87</ele><time>2010-10-10T17:47:06Z</time></trkpt><trkpt lat="44.778220" lon="-0.555158"><ele>7.35</ele><time>2010-10-10T17:47:07Z</time></trkpt><trkpt lat="44.778288" lon="-0.554970"><ele>7.35</ele><time>2010-10-10T17:47:08Z</time></trkpt><trkpt lat="44.778359" lon="-0.554776"><ele>7.83</ele><time>2010-10-10T17:47:09Z</time></trkpt><trkpt lat="44.778878" lon="-0.552568"><ele>7.35</ele><time>2010-10-10T17:47:18Z</time></trkpt><trkpt lat="44.779361" lon="-0.550368"><ele>7.83</ele><time>2010-10-10T17:47:28Z</time></trkpt><trkpt lat="44.780025" lon="-0.547356"><ele>7.83</ele><time>2010-10-10T17:47:42Z</time></trkpt><trkpt lat="44.780818" lon="-0.545168"><ele>6.39</ele><time>2010-10-10T17:47:51Z</time></trkpt><trkpt lat="44.781954" lon="-0.543490"><ele>3.98</ele><time>2010-10-10T17:47:59Z</time></trkpt><trkpt lat="44.783425" lon="-0.542323"><ele>0.14</ele><time>2010-10-10T17:48:07Z</time></trkpt><trkpt lat="44.785261" lon="-0.541631"><ele>-1.30</ele><time>2010-10-10T17:48:16Z</time></trkpt><trkpt lat="44.789095" lon="-0.540781"><ele>0.14</ele><time>2010-10-10T17:48:35Z</time></trkpt><trkpt lat="44.792134" lon="-0.540056"><ele>-0.34</ele><time>2010-10-10T17:48:51Z</time></trkpt><trkpt lat="44.794900" lon="-0.539048"><ele>-0.34</ele><time>2010-10-10T17:49:06Z</time></trkpt><trkpt lat="44.796956" lon="-0.537896"><ele>0.14</ele><time>2010-10-10T17:49:17Z</time></trkpt><trkpt lat="44.799749" lon="-0.535636"><ele>0.14</ele><time>2010-10-10T17:49:32Z</time></trkpt><trkpt lat="44.801532" lon="-0.534105"><ele>0.62</ele><time>2010-10-10T17:49:43Z</time></trkpt><trkpt lat="44.803612" lon="-0.532547"><ele>0.62</ele><time>2010-10-10T17:49:54Z</time></trkpt><trkpt lat="44.804978" lon="-0.531265"><ele>4.46</ele><time>2010-10-10T17:50:02Z</time></trkpt><trkpt lat="44.806930" lon="-0.528417"><ele>9.27</ele><time>2010-10-10T17:50:16Z</time></trkpt><trkpt lat="44.809405" lon="-0.524635"><ele>5.42</ele><time>2010-10-10T17:50:33Z</time></trkpt><trkpt lat="44.811266" lon="-0.522166"><ele>0.14</ele><time>2010-10-10T17:50:45Z</time></trkpt><trkpt lat="44.812921" lon="-0.520986"><ele>0.62</ele><time>2010-10-10T17:50:54Z</time></trkpt><trkpt lat="44.814538" lon="-0.520553"><ele>0.14</ele><time>2010-10-10T17:51:03Z</time></trkpt><trkpt lat="44.816729" lon="-0.520748"><ele>0.14</ele><time>2010-10-10T17:51:12Z</time></trkpt><trkpt lat="44.818189" lon="-0.520590"><ele>0.14</ele><time>2010-10-10T17:51:19Z</time></trkpt><trkpt lat="44.819370" lon="-0.519968"><ele>-0.34</ele><time>2010-10-10T17:51:26Z</time></trkpt><trkpt lat="44.820704" lon="-0.518418"><ele>0.14</ele><time>2010-10-10T17:51:33Z</time></trkpt><trkpt lat="44.821581" lon="-0.516497"><ele>0.62</ele><time>2010-10-10T17:51:40Z</time></trkpt><trkpt lat="44.822457" lon="-0.513904"><ele>5.42</ele><time>2010-10-10T17:51:49Z</time></trkpt><trkpt lat="44.823602" lon="-0.511917"><ele>9.75</ele><time>2010-10-10T17:51:57Z</time></trkpt><trkpt lat="44.825240" lon="-0.510144"><ele>11.19</ele><time>2010-10-10T17:52:06Z</time></trkpt><trkpt lat="44.826631" lon="-0.508276"><ele>12.63</ele><time>2010-10-10T17:52:14Z</time></trkpt><trkpt lat="44.827646" lon="-0.505943"><ele>15.52</ele><time>2010-10-10T17:52:22Z</time></trkpt><trkpt lat="44.828756" lon="-0.503297"><ele>20.81</ele><time>2010-10-10T17:52:31Z</time></trkpt><trkpt lat="44.830057" lon="-0.501797"><ele>26.57</ele><time>2010-10-10T17:52:38Z</time></trkpt><trkpt lat="44.831600" lon="-0.500856"><ele>34.74</ele><time>2010-10-10T17:52:46Z</time></trkpt><trkpt lat="44.834615" lon="-0.499865"><ele>47.24</ele><time>2010-10-10T17:52:58Z</time></trkpt><trkpt lat="44.836422" lon="-0.500133"><ele>54.93</ele><time>2010-10-10T17:53:06Z</time></trkpt><trkpt lat="44.838547" lon="-0.501092"><ele>63.10</ele><time>2010-10-10T17:53:16Z</time></trkpt><trkpt lat="44.840631" lon="-0.501533"><ele>67.43</ele><time>2010-10-10T17:53:25Z</time></trkpt><trkpt lat="44.843080" lon="-0.501476"><ele>65.99</ele><time>2010-10-10T17:53:35Z</time></trkpt><trkpt lat="44.845164" lon="-0.501924"><ele>62.62</ele><time>2010-10-10T17:53:43Z</time></trkpt><trkpt lat="44.848318" lon="-0.503186"><ele>57.34</ele><time>2010-10-10T17:53:55Z</time></trkpt><trkpt lat="44.852325" lon="-0.504773"><ele>52.53</ele><time>2010-10-10T17:54:11Z</time></trkpt><trkpt lat="44.854462" lon="-0.505184"><ele>52.05</ele><time>2010-10-10T17:54:20Z</time></trkpt><trkpt lat="44.856842" lon="-0.504919"><ele>50.61</ele><time>2010-10-10T17:54:30Z</time></trkpt><trkpt lat="44.860663" lon="-0.504054"><ele>45.32</ele><time>2010-10-10T17:54:47Z</time></trkpt><trkpt lat="44.863385" lon="-0.503788"><ele>40.51</ele><time>2010-10-10T17:54:59Z</time></trkpt><trkpt lat="44.865963" lon="-0.503926"><ele>35.71</ele><time>2010-10-10T17:55:11Z</time></trkpt><trkpt lat="44.868609" lon="-0.504517"><ele>29.94</ele><time>2010-10-10T17:55:23Z</time></trkpt><trkpt lat="44.871658" lon="-0.505696"><ele>28.98</ele><time>2010-10-10T17:55:38Z</time></trkpt><trkpt lat="44.875187" lon="-0.507590"><ele>28.50</ele><time>2010-10-10T17:55:56Z</time></trkpt><trkpt lat="44.878143" lon="-0.509180"><ele>29.46</ele><time>2010-10-10T17:56:11Z</time></trkpt><trkpt lat="44.881138" lon="-0.510839"><ele>28.02</ele><time>2010-10-10T17:56:26Z</time></trkpt><trkpt lat="44.882569" lon="-0.511348"><ele>30.42</ele><time>2010-10-10T17:56:34Z</time></trkpt><trkpt lat="44.883808" lon="-0.511499"><ele>33.30</ele><time>2010-10-10T17:56:43Z</time></trkpt><trkpt lat="44.883930" lon="-0.511446"><ele>33.30</ele><time>2010-10-10T17:56:44Z</time></trkpt><trkpt lat="44.884053" lon="-0.511393"><ele>33.30</ele><time>2010-10-10T17:56:45Z</time></trkpt><trkpt lat="44.884162" lon="-0.511303"><ele>33.30</ele><time>2010-10-10T17:56:46Z</time></trkpt><trkpt lat="44.884272" lon="-0.511194"><ele>33.30</ele><time>2010-10-10T17:56:47Z</time></trkpt><trkpt lat="44.884372" lon="-0.511078"><ele>32.82</ele><time>2010-10-10T17:56:48Z</time></trkpt><trkpt lat="44.884466" lon="-0.510930"><ele>32.82</ele><time>2010-10-10T17:56:49Z</time></trkpt><trkpt lat="44.884561" lon="-0.510780"><ele>32.34</ele><time>2010-10-10T17:56:50Z</time></trkpt><trkpt lat="44.884651" lon="-0.510628"><ele>31.86</ele><time>2010-10-10T17:56:51Z</time></trkpt><trkpt lat="44.884709" lon="-0.510435"><ele>31.86</ele><time>2010-10-10T17:56:52Z</time></trkpt><trkpt lat="44.884769" lon="-0.510238"><ele>31.38</ele><time>2010-10-10T17:56:53Z</time></trkpt><trkpt lat="44.884830" lon="-0.510036"><ele>31.38</ele><time>2010-10-10T17:56:54Z</time></trkpt><trkpt lat="44.885563" lon="-0.507976"><ele>26.57</ele><time>2010-10-10T17:57:04Z</time></trkpt><trkpt lat="44.886635" lon="-0.506395"><ele>22.25</ele><time>2010-10-10T17:57:12Z</time></trkpt><trkpt lat="44.888391" lon="-0.504714"><ele>17.92</ele><time>2010-10-10T17:57:22Z</time></trkpt><trkpt lat="44.890640" lon="-0.502389"><ele>16.48</ele><time>2010-10-10T17:57:34Z</time></trkpt><trkpt lat="44.894569" lon="-0.497958"><ele>14.56</ele><time>2010-10-10T17:57:55Z</time></trkpt><trkpt lat="44.896712" lon="-0.496022"><ele>16.96</ele><time>2010-10-10T17:58:06Z</time></trkpt><trkpt lat="44.898905" lon="-0.494887"><ele>18.40</ele><time>2010-10-10T17:58:16Z</time></trkpt><trkpt lat="44.902707" lon="-0.493321"><ele>12.15</ele><time>2010-10-10T17:58:33Z</time></trkpt><trkpt lat="44.905639" lon="-0.492098"><ele>10.71</ele><time>2010-10-10T17:58:47Z</time></trkpt><trkpt lat="44.907413" lon="-0.491113"><ele>9.75</ele><time>2010-10-10T17:58:57Z</time></trkpt><trkpt lat="44.909097" lon="-0.489466"><ele>9.27</ele><time>2010-10-10T17:59:07Z</time></trkpt><trkpt lat="44.910479" lon="-0.487379"><ele>12.63</ele><time>2010-10-10T17:59:17Z</time></trkpt><trkpt lat="44.912610" lon="-0.483106"><ele>19.36</ele><time>2010-10-10T17:59:36Z</time></trkpt><trkpt lat="44.914334" lon="-0.479984"><ele>14.56</ele><time>2010-10-10T17:59:49Z</time></trkpt><trkpt lat="44.916054" lon="-0.478081"><ele>11.67</ele><time>2010-10-10T17:59:59Z</time></trkpt><trkpt lat="44.917986" lon="-0.476749"><ele>12.63</ele><time>2010-10-10T18:00:09Z</time></trkpt><trkpt lat="44.921571" lon="-0.474827"><ele>18.40</ele><time>2010-10-10T18:00:27Z</time></trkpt><trkpt lat="44.924512" lon="-0.473058"><ele>19.36</ele><time>2010-10-10T18:00:41Z</time></trkpt><trkpt lat="44.929020" lon="-0.470066"><ele>19.36</ele><time>2010-10-10T18:01:02Z</time></trkpt><trkpt lat="44.931738" lon="-0.468398"><ele>19.36</ele><time>2010-10-10T18:01:14Z</time></trkpt><trkpt lat="44.934127" lon="-0.467560"><ele>18.40</ele><time>2010-10-10T18:01:24Z</time></trkpt><trkpt lat="44.937355" lon="-0.466989"><ele>9.27</ele><time>2010-10-10T18:01:38Z</time></trkpt><trkpt lat="44.940648" lon="-0.466430"><ele>0.14</ele><time>2010-10-10T18:01:53Z</time></trkpt><trkpt lat="44.944234" lon="-0.465822"><ele>-1.30</ele><time>2010-10-10T18:02:08Z</time></trkpt><trkpt lat="44.947147" lon="-0.464952"><ele>-2.27</ele><time>2010-10-10T18:02:20Z</time></trkpt><trkpt lat="44.949321" lon="-0.463525"><ele>-1.30</ele><time>2010-10-10T18:02:30Z</time></trkpt><trkpt lat="44.950789" lon="-0.461915"><ele>1.10</ele><time>2010-10-10T18:02:38Z</time></trkpt><trkpt lat="44.951791" lon="-0.460461"><ele>8.79</ele><time>2010-10-10T18:02:47Z</time></trkpt><trkpt lat="44.953495" lon="-0.457171"><ele>21.77</ele><time>2010-10-10T18:03:01Z</time></trkpt><trkpt lat="44.955058" lon="-0.454013"><ele>22.73</ele><time>2010-10-10T18:03:14Z</time></trkpt><trkpt lat="44.957356" lon="-0.449428"><ele>6.39</ele><time>2010-10-10T18:03:29Z</time></trkpt><trkpt lat="44.959301" lon="-0.446169"><ele>-0.82</ele><time>2010-10-10T18:03:41Z</time></trkpt><trkpt lat="44.961570" lon="-0.443465"><ele>-0.82</ele><time>2010-10-10T18:03:53Z</time></trkpt><trkpt lat="44.964932" lon="-0.440089"><ele>-0.34</ele><time>2010-10-10T18:04:09Z</time></trkpt><trkpt lat="44.968716" lon="-0.436706"><ele>7.83</ele><time>2010-10-10T18:04:26Z</time></trkpt><trkpt lat="44.971295" lon="-0.435163"><ele>18.40</ele><time>2010-10-10T18:04:37Z</time></trkpt><trkpt lat="44.974361" lon="-0.433817"><ele>22.25</ele><time>2010-10-10T18:04:49Z</time></trkpt><trkpt lat="44.977049" lon="-0.432112"><ele>21.77</ele><time>2010-10-10T18:05:00Z</time></trkpt><trkpt lat="44.980517" lon="-0.429767"><ele>22.25</ele><time>2010-10-10T18:05:15Z</time></trkpt><trkpt lat="44.983564" lon="-0.428351"><ele>23.69</ele><time>2010-10-10T18:05:27Z</time></trkpt><trkpt lat="44.986782" lon="-0.427421"><ele>26.57</ele><time>2010-10-10T18:05:39Z</time></trkpt><trkpt lat="44.989966" lon="-0.426996"><ele>28.50</ele><time>2010-10-10T18:05:52Z</time></trkpt><trkpt lat="44.992868" lon="-0.426903"><ele>29.94</ele><time>2010-10-10T18:06:02Z</time></trkpt><trkpt lat="44.997138" lon="-0.426771"><ele>33.30</ele><time>2010-10-10T18:06:18Z</time></trkpt><trkpt lat="45.000587" lon="-0.426773"><ele>39.55</ele><time>2010-10-10T18:06:32Z</time></trkpt><trkpt lat="45.002554" lon="-0.426934"><ele>42.92</ele><time>2010-10-10T18:06:41Z</time></trkpt><trkpt lat="45.005210" lon="-0.427320"><ele>43.88</ele><time>2010-10-10T18:06:53Z</time></trkpt><trkpt lat="45.007685" lon="-0.427890"><ele>41.95</ele><time>2010-10-10T18:07:04Z</time></trkpt><trkpt lat="45.011329" lon="-0.428949"><ele>40.03</ele><time>2010-10-10T18:07:19Z</time></trkpt><trkpt lat="45.012939" lon="-0.429095"><ele>40.51</ele><time>2010-10-10T18:07:26Z</time></trkpt><trkpt lat="45.013930" lon="-0.428694"><ele>42.92</ele><time>2010-10-10T18:07:32Z</time></trkpt><trkpt lat="45.015970" lon="-0.427181"><ele>40.51</ele><time>2010-10-10T18:07:41Z</time></trkpt><trkpt lat="45.018064" lon="-0.426138"><ele>39.07</ele><time>2010-10-10T18:07:50Z</time></trkpt><trkpt lat="45.022677" lon="-0.424698"><ele>40.99</ele><time>2010-10-10T18:08:09Z</time></trkpt><trkpt lat="45.025262" lon="-0.423516"><ele>42.44</ele><time>2010-10-10T18:08:20Z</time></trkpt><trkpt lat="45.029524" lon="-0.421075"><ele>44.36</ele><time>2010-10-10T18:08:38Z</time></trkpt><trkpt lat="45.033425" lon="-0.418919"><ele>43.88</ele><time>2010-10-10T18:08:54Z</time></trkpt><trkpt lat="45.035925" lon="-0.417231"><ele>41.47</ele><time>2010-10-10T18:09:05Z</time></trkpt><trkpt lat="45.037989" lon="-0.415100"><ele>40.03</ele><time>2010-10-10T18:09:15Z</time></trkpt><trkpt lat="45.040122" lon="-0.413083"><ele>40.03</ele><time>2010-10-10T18:09:25Z</time></trkpt><trkpt lat="45.042488" lon="-0.411761"><ele>40.99</ele><time>2010-10-10T18:09:35Z</time></trkpt><trkpt lat="45.045199" lon="-0.410838"><ele>43.88</ele><time>2010-10-10T18:09:46Z</time></trkpt><trkpt lat="45.047378" lon="-0.409663"><ele>45.80</ele><time>2010-10-10T18:09:55Z</time></trkpt><trkpt lat="45.051583" lon="-0.406825"><ele>46.76</ele><time>2010-10-10T18:10:12Z</time></trkpt><trkpt lat="45.056381" lon="-0.403543"><ele>44.84</ele><time>2010-10-10T18:10:32Z</time></trkpt><trkpt lat="45.057877" lon="-0.402203"><ele>44.36</ele><time>2010-10-10T18:10:40Z</time></trkpt><trkpt lat="45.059566" lon="-0.399837"><ele>46.76</ele><time>2010-10-10T18:10:49Z</time></trkpt><trkpt lat="45.061173" lon="-0.397443"><ele>50.13</ele><time>2010-10-10T18:11:00Z</time></trkpt><trkpt lat="45.062915" lon="-0.395589"><ele>50.13</ele><time>2010-10-10T18:11:10Z</time></trkpt><trkpt lat="45.065768" lon="-0.393337"><ele>51.57</ele><time>2010-10-10T18:11:25Z</time></trkpt><trkpt lat="45.069664" lon="-0.390323"><ele>55.89</ele><time>2010-10-10T18:11:45Z</time></trkpt><trkpt lat="45.072741" lon="-0.387986"><ele>53.01</ele><time>2010-10-10T18:12:01Z</time></trkpt><trkpt lat="45.074678" lon="-0.386942"><ele>52.05</ele><time>2010-10-10T18:12:10Z</time></trkpt><trkpt lat="45.077879" lon="-0.385906"><ele>48.20</ele><time>2010-10-10T18:12:24Z</time></trkpt><trkpt lat="45.080886" lon="-0.384922"><ele>51.09</ele><time>2010-10-10T18:12:38Z</time></trkpt><trkpt lat="45.085051" lon="-0.383554"><ele>58.30</ele><time>2010-10-10T18:12:57Z</time></trkpt><trkpt lat="45.088815" lon="-0.382327"><ele>57.34</ele><time>2010-10-10T18:13:13Z</time></trkpt><trkpt lat="45.093022" lon="-0.381017"><ele>55.89</ele><time>2010-10-10T18:13:29Z</time></trkpt><trkpt lat="45.095410" lon="-0.380745"><ele>54.93</ele><time>2010-10-10T18:13:38Z</time></trkpt><trkpt lat="45.098857" lon="-0.380702"><ele>46.28</ele><time>2010-10-10T18:13:50Z</time></trkpt><trkpt lat="45.102835" lon="-0.380656"><ele>44.84</ele><time>2010-10-10T18:14:05Z</time></trkpt><trkpt lat="45.106858" lon="-0.380261"><ele>35.71</ele><time>2010-10-10T18:14:21Z</time></trkpt><trkpt lat="45.108676" lon="-0.379622"><ele>29.46</ele><time>2010-10-10T18:14:29Z</time></trkpt><trkpt lat="45.111009" lon="-0.378403"><ele>26.57</ele><time>2010-10-10T18:14:39Z</time></trkpt><trkpt lat="45.114500" lon="-0.376686"><ele>26.57</ele><time>2010-10-10T18:14:53Z</time></trkpt><trkpt lat="45.117272" lon="-0.376088"><ele>28.02</ele><time>2010-10-10T18:15:04Z</time></trkpt><trkpt lat="45.121604" lon="-0.375343"><ele>32.34</ele><time>2010-10-10T18:15:21Z</time></trkpt><trkpt lat="45.126019" lon="-0.374517"><ele>33.78</ele><time>2010-10-10T18:15:38Z</time></trkpt><trkpt lat="45.128332" lon="-0.373597"><ele>37.15</ele><time>2010-10-10T18:15:47Z</time></trkpt><trkpt lat="45.132794" lon="-0.371265"><ele>41.95</ele><time>2010-10-10T18:16:04Z</time></trkpt><trkpt lat="45.137944" lon="-0.368578"><ele>49.65</ele><time>2010-10-10T18:16:23Z</time></trkpt><trkpt lat="45.141548" lon="-0.366644"><ele>55.41</ele><time>2010-10-10T18:16:36Z</time></trkpt><trkpt lat="45.144812" lon="-0.364934"><ele>54.45</ele><time>2010-10-10T18:16:48Z</time></trkpt><trkpt lat="45.147971" lon="-0.363276"><ele>52.53</ele><time>2010-10-10T18:17:00Z</time></trkpt><trkpt lat="45.151000" lon="-0.361518"><ele>56.37</ele><time>2010-10-10T18:17:12Z</time></trkpt><trkpt lat="45.152741" lon="-0.359904"><ele>61.18</ele><time>2010-10-10T18:17:20Z</time></trkpt><trkpt lat="45.154399" lon="-0.357694"><ele>64.55</ele><time>2010-10-10T18:17:29Z</time></trkpt><trkpt lat="45.156105" lon="-0.354653"><ele>63.10</ele><time>2010-10-10T18:17:39Z</time></trkpt><trkpt lat="45.158605" lon="-0.350197"><ele>58.78</ele><time>2010-10-10T18:17:53Z</time></trkpt><trkpt lat="45.160486" lon="-0.346843"><ele>61.66</ele><time>2010-10-10T18:18:04Z</time></trkpt><trkpt lat="45.162823" lon="-0.343095"><ele>53.01</ele><time>2010-10-10T18:18:17Z</time></trkpt><trkpt lat="45.165335" lon="-0.340297"><ele>55.41</ele><time>2010-10-10T18:18:29Z</time></trkpt><trkpt lat="45.169207" lon="-0.336298"><ele>58.78</ele><time>2010-10-10T18:18:46Z</time></trkpt><trkpt lat="45.173072" lon="-0.332209"><ele>62.14</ele><time>2010-10-10T18:19:03Z</time></trkpt><trkpt lat="45.176827" lon="-0.328248"><ele>60.70</ele><time>2010-10-10T18:19:20Z</time></trkpt><trkpt lat="45.180817" lon="-0.324055"><ele>67.91</ele><time>2010-10-10T18:19:38Z</time></trkpt><trkpt lat="45.183918" lon="-0.320801"><ele>69.35</ele><time>2010-10-10T18:19:52Z</time></trkpt><trkpt lat="45.186662" lon="-0.317919"><ele>71.27</ele><time>2010-10-10T18:20:05Z</time></trkpt><trkpt lat="45.190352" lon="-0.314095"><ele>73.68</ele><time>2010-10-10T18:20:21Z</time></trkpt><trkpt lat="45.193834" lon="-0.310420"><ele>76.56</ele><time>2010-10-10T18:20:36Z</time></trkpt><trkpt lat="45.198193" lon="-0.305762"><ele>70.31</ele><time>2010-10-10T18:20:55Z</time></trkpt><trkpt lat="45.200833" lon="-0.303519"><ele>69.83</ele><time>2010-10-10T18:21:06Z</time></trkpt><trkpt lat="45.204075" lon="-0.300962"><ele>69.83</ele><time>2010-10-10T18:21:20Z</time></trkpt><trkpt lat="45.207175" lon="-0.298590"><ele>72.24</ele><time>2010-10-10T18:21:34Z</time></trkpt><trkpt lat="45.210649" lon="-0.295835"><ele>72.72</ele><time>2010-10-10T18:21:49Z</time></trkpt><trkpt lat="45.213275" lon="-0.293752"><ele>73.68</ele><time>2010-10-10T18:22:01Z</time></trkpt><trkpt lat="45.217180" lon="-0.290643"><ele>78.00</ele><time>2010-10-10T18:22:18Z</time></trkpt><trkpt lat="45.220202" lon="-0.288235"><ele>86.66</ele><time>2010-10-10T18:22:32Z</time></trkpt><trkpt lat="45.223606" lon="-0.285536"><ele>95.31</ele><time>2010-10-10T18:22:48Z</time></trkpt><trkpt lat="45.226505" lon="-0.283236"><ele>103.00</ele><time>2010-10-10T18:23:01Z</time></trkpt><trkpt lat="45.230405" lon="-0.280080"><ele>115.98</ele><time>2010-10-10T18:23:19Z</time></trkpt><trkpt lat="45.233305" lon="-0.277828"><ele>116.94</ele><time>2010-10-10T18:23:32Z</time></trkpt><trkpt lat="45.235699" lon="-0.276634"><ele>117.90</ele><time>2010-10-10T18:23:42Z</time></trkpt><trkpt lat="45.238325" lon="-0.275132"><ele>124.15</ele><time>2010-10-10T18:23:53Z</time></trkpt><trkpt lat="45.240466" lon="-0.273221"><ele>129.92</ele><time>2010-10-10T18:24:03Z</time></trkpt><trkpt lat="45.243261" lon="-0.270658"><ele>127.99</ele><time>2010-10-10T18:24:16Z</time></trkpt><trkpt lat="45.246654" lon="-0.267569"><ele>110.21</ele><time>2010-10-10T18:24:30Z</time></trkpt><trkpt lat="45.249584" lon="-0.264595"><ele>100.11</ele><time>2010-10-10T18:24:43Z</time></trkpt><trkpt lat="45.251843" lon="-0.262190"><ele>98.67</ele><time>2010-10-10T18:24:54Z</time></trkpt><trkpt lat="45.254553" lon="-0.260143"><ele>99.15</ele><time>2010-10-10T18:25:06Z</time></trkpt><trkpt lat="45.256894" lon="-0.258049"><ele>108.29</ele><time>2010-10-10T18:25:17Z</time></trkpt><trkpt lat="45.258315" lon="-0.255893"><ele>117.42</ele><time>2010-10-10T18:25:26Z</time></trkpt><trkpt lat="45.260252" lon="-0.252668"><ele>130.40</ele><time>2010-10-10T18:25:39Z</time></trkpt><trkpt lat="45.262248" lon="-0.250303"><ele>130.40</ele><time>2010-10-10T18:25:50Z</time></trkpt><trkpt lat="45.264176" lon="-0.248821"><ele>125.59</ele><time>2010-10-10T18:25:59Z</time></trkpt><trkpt lat="45.266568" lon="-0.247791"><ele>121.26</ele><time>2010-10-10T18:26:09Z</time></trkpt><trkpt lat="45.270355" lon="-0.246623"><ele>115.98</ele><time>2010-10-10T18:26:23Z</time></trkpt><trkpt lat="45.276143" lon="-0.244781"><ele>111.65</ele><time>2010-10-10T18:26:43Z</time></trkpt><trkpt lat="45.280453" lon="-0.243423"><ele>107.32</ele><time>2010-10-10T18:26:58Z</time></trkpt><trkpt lat="45.284826" lon="-0.242126"><ele>99.63</ele><time>2010-10-10T18:27:14Z</time></trkpt><trkpt lat="45.288462" lon="-0.241483"><ele>94.35</ele><time>2010-10-10T18:27:27Z</time></trkpt><trkpt lat="45.290437" lon="-0.241150"><ele>93.87</ele><time>2010-10-10T18:27:35Z</time></trkpt><trkpt lat="45.293407" lon="-0.240610"><ele>96.27</ele><time>2010-10-10T18:27:47Z</time></trkpt><trkpt lat="45.297176" lon="-0.239744"><ele>99.15</ele><time>2010-10-10T18:28:01Z</time></trkpt><trkpt lat="45.301286" lon="-0.238731"><ele>98.67</ele><time>2010-10-10T18:28:15Z</time></trkpt><trkpt lat="45.303612" lon="-0.237907"><ele>98.19</ele><time>2010-10-10T18:28:24Z</time></trkpt><trkpt lat="45.305946" lon="-0.236552"><ele>99.63</ele><time>2010-10-10T18:28:34Z</time></trkpt><trkpt lat="45.309089" lon="-0.234481"><ele>112.13</ele><time>2010-10-10T18:28:49Z</time></trkpt><trkpt lat="45.311864" lon="-0.232712"><ele>112.61</ele><time>2010-10-10T18:29:01Z</time></trkpt><trkpt lat="45.314922" lon="-0.230880"><ele>105.40</ele><time>2010-10-10T18:29:13Z</time></trkpt><trkpt lat="45.317465" lon="-0.229837"><ele>108.77</ele><time>2010-10-10T18:29:23Z</time></trkpt><trkpt lat="45.320049" lon="-0.229203"><ele>119.82</ele><time>2010-10-10T18:29:34Z</time></trkpt><trkpt lat="45.323643" lon="-0.228036"><ele>131.84</ele><time>2010-10-10T18:29:50Z</time></trkpt><trkpt lat="45.326001" lon="-0.226652"><ele>133.28</ele><time>2010-10-10T18:30:01Z</time></trkpt><trkpt lat="45.328654" lon="-0.225206"><ele>132.80</ele><time>2010-10-10T18:30:13Z</time></trkpt><trkpt lat="45.330997" lon="-0.223790"><ele>132.32</ele><time>2010-10-10T18:30:24Z</time></trkpt><trkpt lat="45.333480" lon="-0.222286"><ele>133.28</ele><time>2010-10-10T18:30:36Z</time></trkpt><trkpt lat="45.336541" lon="-0.220323"><ele>130.40</ele><time>2010-10-10T18:30:51Z</time></trkpt><trkpt lat="45.338247" lon="-0.218893"><ele>130.88</ele><time>2010-10-10T18:31:00Z</time></trkpt><trkpt lat="45.339970" lon="-0.216489"><ele>132.32</ele><time>2010-10-10T18:31:11Z</time></trkpt><trkpt lat="45.341895" lon="-0.213746"><ele>131.36</ele><time>2010-10-10T18:31:24Z</time></trkpt><trkpt lat="45.344078" lon="-0.210607"><ele>130.40</ele><time>2010-10-10T18:31:38Z</time></trkpt><trkpt lat="45.346383" lon="-0.207282"><ele>130.88</ele><time>2010-10-10T18:31:53Z</time></trkpt><trkpt lat="45.348189" lon="-0.204685"><ele>134.24</ele><time>2010-10-10T18:32:05Z</time></trkpt><trkpt lat="45.350026" lon="-0.202275"><ele>130.40</ele><time>2010-10-10T18:32:17Z</time></trkpt><trkpt lat="45.351454" lon="-0.201415"><ele>126.55</ele><time>2010-10-10T18:32:24Z</time></trkpt><trkpt lat="45.353037" lon="-0.201255"><ele>126.07</ele><time>2010-10-10T18:32:31Z</time></trkpt><trkpt lat="45.355017" lon="-0.201328"><ele>128.95</ele><time>2010-10-10T18:32:41Z</time></trkpt><trkpt lat="45.357445" lon="-0.200965"><ele>131.84</ele><time>2010-10-10T18:32:53Z</time></trkpt><trkpt lat="45.359194" lon="-0.200312"><ele>135.68</ele><time>2010-10-10T18:33:02Z</time></trkpt><trkpt lat="45.360554" lon="-0.199050"><ele>137.61</ele><time>2010-10-10T18:33:10Z</time></trkpt><trkpt lat="45.362419" lon="-0.196133"><ele>139.05</ele><time>2010-10-10T18:33:23Z</time></trkpt><trkpt lat="45.364146" lon="-0.193462"><ele>137.61</ele><time>2010-10-10T18:33:35Z</time></trkpt><trkpt lat="45.366622" lon="-0.189653"><ele>137.61</ele><time>2010-10-10T18:33:51Z</time></trkpt><trkpt lat="45.368618" lon="-0.186823"><ele>136.16</ele><time>2010-10-10T18:34:04Z</time></trkpt><trkpt lat="45.370467" lon="-0.185088"><ele>135.68</ele><time>2010-10-10T18:34:14Z</time></trkpt><trkpt lat="45.372421" lon="-0.184088"><ele>132.32</ele><time>2010-10-10T18:34:23Z</time></trkpt><trkpt lat="45.374797" lon="-0.183653"><ele>124.63</ele><time>2010-10-10T18:34:33Z</time></trkpt><trkpt lat="45.377843" lon="-0.183334"><ele>112.61</ele><time>2010-10-10T18:34:46Z</time></trkpt><trkpt lat="45.380699" lon="-0.183067"><ele>114.53</ele><time>2010-10-10T18:34:59Z</time></trkpt><trkpt lat="45.382452" lon="-0.182564"><ele>123.67</ele><time>2010-10-10T18:35:08Z</time></trkpt><trkpt lat="45.385126" lon="-0.181205"><ele>133.76</ele><time>2010-10-10T18:35:22Z</time></trkpt><trkpt lat="45.387408" lon="-0.180354"><ele>138.57</ele><time>2010-10-10T18:35:33Z</time></trkpt><trkpt lat="45.389696" lon="-0.180019"><ele>133.28</ele><time>2010-10-10T18:35:44Z</time></trkpt><trkpt lat="45.392855" lon="-0.179745"><ele>124.15</ele><time>2010-10-10T18:35:57Z</time></trkpt><trkpt lat="45.396234" lon="-0.179490"><ele>114.53</ele><time>2010-10-10T18:36:11Z</time></trkpt><trkpt lat="45.400236" lon="-0.179166"><ele>103.96</ele><time>2010-10-10T18:36:28Z</time></trkpt><trkpt lat="45.403173" lon="-0.178853"><ele>105.40</ele><time>2010-10-10T18:36:41Z</time></trkpt><trkpt lat="45.405887" lon="-0.178632"><ele>106.84</ele><time>2010-10-10T18:36:53Z</time></trkpt><trkpt lat="45.408746" lon="-0.178313"><ele>95.31</ele><time>2010-10-10T18:37:04Z</time></trkpt><trkpt lat="45.411081" lon="-0.177757"><ele>96.27</ele><time>2010-10-10T18:37:13Z</time></trkpt><trkpt lat="45.413545" lon="-0.176427"><ele>97.23</ele><time>2010-10-10T18:37:23Z</time></trkpt><trkpt lat="45.415728" lon="-0.175534"><ele>91.94</ele><time>2010-10-10T18:37:32Z</time></trkpt><trkpt lat="45.418506" lon="-0.175099"><ele>86.66</ele><time>2010-10-10T18:37:43Z</time></trkpt><trkpt lat="45.420876" lon="-0.174357"><ele>89.54</ele><time>2010-10-10T18:37:52Z</time></trkpt><trkpt lat="45.424702" lon="-0.172968"><ele>93.87</ele><time>2010-10-10T18:38:07Z</time></trkpt><trkpt lat="45.427252" lon="-0.172648"><ele>92.42</ele><time>2010-10-10T18:38:17Z</time></trkpt><trkpt lat="45.430094" lon="-0.173051"><ele>97.23</ele><time>2010-10-10T18:38:28Z</time></trkpt><trkpt lat="45.434113" lon="-0.173757"><ele>102.04</ele><time>2010-10-10T18:38:43Z</time></trkpt><trkpt lat="45.436252" lon="-0.173696"><ele>100.11</ele><time>2010-10-10T18:38:52Z</time></trkpt><trkpt lat="45.438841" lon="-0.172816"><ele>95.31</ele><time>2010-10-10T18:39:01Z</time></trkpt><trkpt lat="45.441007" lon="-0.171310"><ele>95.31</ele><time>2010-10-10T18:39:10Z</time></trkpt><trkpt lat="45.442810" lon="-0.169363"><ele>100.60</ele><time>2010-10-10T18:39:19Z</time></trkpt><trkpt lat="45.444285" lon="-0.166949"><ele>105.40</ele><time>2010-10-10T18:39:28Z</time></trkpt><trkpt lat="45.446259" lon="-0.163580"><ele>104.92</ele><time>2010-10-10T18:39:40Z</time></trkpt><trkpt lat="45.449167" lon="-0.158880"><ele>98.19</ele><time>2010-10-10T18:39:57Z</time></trkpt><trkpt lat="45.452032" lon="-0.154251"><ele>92.90</ele><time>2010-10-10T18:40:12Z</time></trkpt><trkpt lat="45.455011" lon="-0.149489"><ele>87.62</ele><time>2010-10-10T18:40:29Z</time></trkpt><trkpt lat="45.457935" lon="-0.144765"><ele>81.85</ele><time>2010-10-10T18:40:46Z</time></trkpt><trkpt lat="45.459975" lon="-0.141063"><ele>78.00</ele><time>2010-10-10T18:40:59Z</time></trkpt><trkpt lat="45.461833" lon="-0.137976"><ele>72.72</ele><time>2010-10-10T18:41:10Z</time></trkpt><trkpt lat="45.463713" lon="-0.135876"><ele>68.39</ele><time>2010-10-10T18:41:19Z</time></trkpt><trkpt lat="45.465858" lon="-0.134425"><ele>65.99</ele><time>2010-10-10T18:41:28Z</time></trkpt><trkpt lat="45.468110" lon="-0.133577"><ele>65.03</ele><time>2010-10-10T18:41:37Z</time></trkpt><trkpt lat="45.470373" lon="-0.133256"><ele>65.03</ele><time>2010-10-10T18:41:46Z</time></trkpt><trkpt lat="45.473656" lon="-0.132734"><ele>66.47</ele><time>2010-10-10T18:41:59Z</time></trkpt><trkpt lat="45.477475" lon="-0.131801"><ele>68.87</ele><time>2010-10-10T18:42:14Z</time></trkpt><trkpt lat="45.481507" lon="-0.130890"><ele>69.35</ele><time>2010-10-10T18:42:29Z</time></trkpt><trkpt lat="45.484679" lon="-0.130556"><ele>65.03</ele><time>2010-10-10T18:42:41Z</time></trkpt><trkpt lat="45.487594" lon="-0.130249"><ele>60.22</ele><time>2010-10-10T18:42:52Z</time></trkpt><trkpt lat="45.490571" lon="-0.129747"><ele>55.41</ele><time>2010-10-10T18:43:04Z</time></trkpt><trkpt lat="45.492452" lon="-0.128925"><ele>52.05</ele><time>2010-10-10T18:43:13Z</time></trkpt><trkpt lat="45.494443" lon="-0.127555"><ele>49.65</ele><time>2010-10-10T18:43:24Z</time></trkpt><trkpt lat="45.496992" lon="-0.125675"><ele>45.80</ele><time>2010-10-10T18:43:38Z</time></trkpt><trkpt lat="45.498368" lon="-0.124421"><ele>44.36</ele><time>2010-10-10T18:43:47Z</time></trkpt><trkpt lat="45.500243" lon="-0.122306"><ele>46.76</ele><time>2010-10-10T18:44:00Z</time></trkpt><trkpt lat="45.503250" lon="-0.119040"><ele>57.82</ele><time>2010-10-10T18:44:21Z</time></trkpt><trkpt lat="45.506324" lon="-0.115613"><ele>67.43</ele><time>2010-10-10T18:44:41Z</time></trkpt><trkpt lat="45.508673" lon="-0.113047"><ele>79.93</ele><time>2010-10-10T18:44:56Z</time></trkpt><trkpt lat="45.511013" lon="-0.110498"><ele>81.85</ele><time>2010-10-10T18:45:11Z</time></trkpt><trkpt lat="45.513567" lon="-0.107657"><ele>74.16</ele><time>2010-10-10T18:45:26Z</time></trkpt><trkpt lat="45.516135" lon="-0.104842"><ele>65.99</ele><time>2010-10-10T18:45:41Z</time></trkpt><trkpt lat="45.518910" lon="-0.101805"><ele>56.86</ele><time>2010-10-10T18:45:57Z</time></trkpt><trkpt lat="45.519924" lon="-0.100517"><ele>53.97</ele><time>2010-10-10T18:46:05Z</time></trkpt><trkpt lat="45.520781" lon="-0.098758"><ele>51.57</ele><time>2010-10-10T18:46:14Z</time></trkpt><trkpt lat="45.521417" lon="-0.096139"><ele>49.16</ele><time>2010-10-10T18:46:25Z</time></trkpt><trkpt lat="45.521843" lon="-0.092782"><ele>46.28</ele><time>2010-10-10T18:46:37Z</time></trkpt><trkpt lat="45.522416" lon="-0.088604"><ele>44.84</ele><time>2010-10-10T18:46:51Z</time></trkpt><trkpt lat="45.522565" lon="-0.085738"><ele>45.80</ele><time>2010-10-10T18:47:01Z</time></trkpt><trkpt lat="45.522370" lon="-0.082438"><ele>51.09</ele><time>2010-10-10T18:47:13Z</time></trkpt><trkpt lat="45.522092" lon="-0.078504"><ele>57.34</ele><time>2010-10-10T18:47:28Z</time></trkpt><trkpt lat="45.521963" lon="-0.076675"><ele>58.30</ele><time>2010-10-10T18:47:36Z</time></trkpt><trkpt lat="45.522103" lon="-0.073652"><ele>58.30</ele><time>2010-10-10T18:47:46Z</time></trkpt><trkpt lat="45.523470" lon="-0.070980"><ele>58.78</ele><time>2010-10-10T18:47:56Z</time></trkpt><trkpt lat="45.524561" lon="-0.068604"><ele>63.58</ele><time>2010-10-10T18:48:07Z</time></trkpt><trkpt lat="45.526179" lon="-0.066302"><ele>70.79</ele><time>2010-10-10T18:48:19Z</time></trkpt><trkpt lat="45.528027" lon="-0.063582"><ele>80.41</ele><time>2010-10-10T18:48:32Z</time></trkpt><trkpt lat="45.529253" lon="-0.061115"><ele>87.62</ele><time>2010-10-10T18:48:42Z</time></trkpt><trkpt lat="45.531316" lon="-0.056443"><ele>96.75</ele><time>2010-10-10T18:48:59Z</time></trkpt><trkpt lat="45.534187" lon="-0.051046"><ele>108.77</ele><time>2010-10-10T18:49:20Z</time></trkpt><trkpt lat="45.536651" lon="-0.046395"><ele>123.67</ele><time>2010-10-10T18:49:39Z</time></trkpt><trkpt lat="45.538476" lon="-0.044895"><ele>125.11</ele><time>2010-10-10T18:49:48Z</time></trkpt><trkpt lat="45.540283" lon="-0.043514"><ele>118.86</ele><time>2010-10-10T18:49:57Z</time></trkpt><trkpt lat="45.541967" lon="-0.042058"><ele>109.73</ele><time>2010-10-10T18:50:05Z</time></trkpt><trkpt lat="45.543428" lon="-0.040038"><ele>99.63</ele><time>2010-10-10T18:50:13Z</time></trkpt><trkpt lat="45.544550" lon="-0.037530"><ele>89.54</ele><time>2010-10-10T18:50:21Z</time></trkpt><trkpt lat="45.545217" lon="-0.034718"><ele>81.85</ele><time>2010-10-10T18:50:29Z</time></trkpt><trkpt lat="45.545429" lon="-0.031578"><ele>77.52</ele><time>2010-10-10T18:50:38Z</time></trkpt><trkpt lat="45.545650" lon="-0.025335"><ele>73.68</ele><time>2010-10-10T18:50:57Z</time></trkpt><trkpt lat="45.546314" lon="-0.021867"><ele>69.35</ele><time>2010-10-10T18:51:08Z</time></trkpt><trkpt lat="45.547308" lon="-0.018968"><ele>62.14</ele><time>2010-10-10T18:51:18Z</time></trkpt><trkpt lat="45.549490" lon="-0.013311"><ele>60.22</ele><time>2010-10-10T18:51:38Z</time></trkpt><trkpt lat="45.551145" lon="-0.009029"><ele>74.16</ele><time>2010-10-10T18:51:54Z</time></trkpt><trkpt lat="45.552794" lon="-0.005196"><ele>85.69</ele><time>2010-10-10T18:52:10Z</time></trkpt><trkpt lat="45.555289" lon="-0.000686"><ele>96.75</ele><time>2010-10-10T18:52:30Z</time></trkpt><trkpt lat="45.557235" lon="0.002963"><ele>91.94</ele><time>2010-10-10T18:52:44Z</time></trkpt><trkpt lat="45.559026" lon="0.006251"><ele>84.25</ele><time>2010-10-10T18:52:57Z</time></trkpt><trkpt lat="45.561435" lon="0.010565"><ele>68.39</ele><time>2010-10-10T18:53:13Z</time></trkpt><trkpt lat="45.564360" lon="0.015823"><ele>63.10</ele><time>2010-10-10T18:53:33Z</time></trkpt><trkpt lat="45.567455" lon="0.021433"><ele>67.91</ele><time>2010-10-10T18:53:56Z</time></trkpt><trkpt lat="45.570045" lon="0.026147"><ele>66.47</ele><time>2010-10-10T18:54:14Z</time></trkpt><trkpt lat="45.572022" lon="0.029280"><ele>63.10</ele><time>2010-10-10T18:54:26Z</time></trkpt><trkpt lat="45.574168" lon="0.031898"><ele>64.55</ele><time>2010-10-10T18:54:38Z</time></trkpt><trkpt lat="45.576418" lon="0.034545"><ele>67.91</ele><time>2010-10-10T18:54:50Z</time></trkpt><trkpt lat="45.578404" lon="0.036903"><ele>65.51</ele><time>2010-10-10T18:55:01Z</time></trkpt><trkpt lat="45.582111" lon="0.041263"><ele>53.49</ele><time>2010-10-10T18:55:22Z</time></trkpt><trkpt lat="45.585543" lon="0.045280"><ele>41.95</ele><time>2010-10-10T18:55:41Z</time></trkpt><trkpt lat="45.586995" lon="0.047284"><ele>40.99</ele><time>2010-10-10T18:55:50Z</time></trkpt><trkpt lat="45.588033" lon="0.049756"><ele>42.44</ele><time>2010-10-10T18:55:59Z</time></trkpt><trkpt lat="45.589733" lon="0.054632"><ele>47.24</ele><time>2010-10-10T18:56:16Z</time></trkpt><trkpt lat="45.591124" lon="0.058235"><ele>51.57</ele><time>2010-10-10T18:56:29Z</time></trkpt><trkpt lat="45.592745" lon="0.061118"><ele>56.86</ele><time>2010-10-10T18:56:41Z</time></trkpt><trkpt lat="45.594930" lon="0.064833"><ele>61.18</ele><time>2010-10-10T18:56:57Z</time></trkpt><trkpt lat="45.597241" lon="0.068721"><ele>57.82</ele><time>2010-10-10T18:57:14Z</time></trkpt><trkpt lat="45.598907" lon="0.070987"><ele>61.18</ele><time>2010-10-10T18:57:25Z</time></trkpt><trkpt lat="45.600419" lon="0.072037"><ele>63.10</ele><time>2010-10-10T18:57:33Z</time></trkpt><trkpt lat="45.603689" lon="0.073728"><ele>67.43</ele><time>2010-10-10T18:57:49Z</time></trkpt><trkpt lat="45.605726" lon="0.075163"><ele>69.35</ele><time>2010-10-10T18:57:59Z</time></trkpt><trkpt lat="45.607244" lon="0.077092"><ele>65.51</ele><time>2010-10-10T18:58:08Z</time></trkpt><trkpt lat="45.608290" lon="0.079303"><ele>58.78</ele><time>2010-10-10T18:58:16Z</time></trkpt><trkpt lat="45.609060" lon="0.081948"><ele>50.13</ele><time>2010-10-10T18:58:24Z</time></trkpt><trkpt lat="45.609827" lon="0.085414"><ele>44.84</ele><time>2010-10-10T18:58:35Z</time></trkpt><trkpt lat="45.610817" lon="0.088209"><ele>44.36</ele><time>2010-10-10T18:58:45Z</time></trkpt><trkpt lat="45.612328" lon="0.092022"><ele>49.65</ele><time>2010-10-10T18:59:00Z</time></trkpt><trkpt lat="45.613890" lon="0.095643"><ele>51.57</ele><time>2010-10-10T18:59:13Z</time></trkpt><trkpt lat="45.615773" lon="0.098783"><ele>54.45</ele><time>2010-10-10T18:59:27Z</time></trkpt><trkpt lat="45.618171" lon="0.101893"><ele>61.18</ele><time>2010-10-10T18:59:42Z</time></trkpt><trkpt lat="45.620726" lon="0.105103"><ele>58.30</ele><time>2010-10-10T18:59:57Z</time></trkpt><trkpt lat="45.623412" lon="0.108360"><ele>49.16</ele><time>2010-10-10T19:00:12Z</time></trkpt><trkpt lat="45.625881" lon="0.110577"><ele>42.44</ele><time>2010-10-10T19:00:25Z</time></trkpt><trkpt lat="45.628626" lon="0.112654"><ele>40.03</ele><time>2010-10-10T19:00:39Z</time></trkpt><trkpt lat="45.631730" lon="0.114975"><ele>43.88</ele><time>2010-10-10T19:00:55Z</time></trkpt><trkpt lat="45.634352" lon="0.116872"><ele>45.80</ele><time>2010-10-10T19:01:09Z</time></trkpt><trkpt lat="45.636596" lon="0.118049"><ele>39.07</ele><time>2010-10-10T19:01:20Z</time></trkpt><trkpt lat="45.638488" lon="0.118531"><ele>36.19</ele><time>2010-10-10T19:01:29Z</time></trkpt><trkpt lat="45.640755" lon="0.118618"><ele>35.71</ele><time>2010-10-10T19:01:40Z</time></trkpt><trkpt lat="45.643596" lon="0.118635"><ele>41.95</ele><time>2010-10-10T19:01:54Z</time></trkpt><trkpt lat="45.647190" lon="0.118633"><ele>49.65</ele><time>2010-10-10T19:02:11Z</time></trkpt><trkpt lat="45.649972" lon="0.118644"><ele>53.49</ele><time>2010-10-10T19:02:24Z</time></trkpt><trkpt lat="45.652443" lon="0.118910"><ele>54.93</ele><time>2010-10-10T19:02:36Z</time></trkpt><trkpt lat="45.654496" lon="0.119832"><ele>54.45</ele><time>2010-10-10T19:02:46Z</time></trkpt><trkpt lat="45.656280" lon="0.121132"><ele>50.61</ele><time>2010-10-10T19:02:55Z</time></trkpt><trkpt lat="45.658453" lon="0.123512"><ele>42.44</ele><time>2010-10-10T19:03:07Z</time></trkpt><trkpt lat="45.661090" lon="0.126672"><ele>35.71</ele><time>2010-10-10T19:03:23Z</time></trkpt><trkpt lat="45.662207" lon="0.128019"><ele>36.67</ele><time>2010-10-10T19:03:32Z</time></trkpt><trkpt lat="45.663106" lon="0.129189"><ele>37.15</ele><time>2010-10-10T19:03:43Z</time></trkpt><trkpt lat="45.663526" lon="0.129818"><ele>35.23</ele><time>2010-10-10T19:03:52Z</time></trkpt><trkpt lat="45.663512" lon="0.129858"><ele>35.23</ele><time>2010-10-10T19:03:53Z</time></trkpt><trkpt lat="45.663493" lon="0.129910"><ele>34.74</ele><time>2010-10-10T19:03:54Z</time></trkpt><trkpt lat="45.663466" lon="0.129982"><ele>34.74</ele><time>2010-10-10T19:03:55Z</time></trkpt><trkpt lat="45.663436" lon="0.130064"><ele>34.74</ele><time>2010-10-10T19:03:56Z</time></trkpt><trkpt lat="45.663402" lon="0.130157"><ele>34.74</ele><time>2010-10-10T19:03:57Z</time></trkpt><trkpt lat="45.663038" lon="0.131250"><ele>33.78</ele><time>2010-10-10T19:04:05Z</time></trkpt><trkpt lat="45.662751" lon="0.132557"><ele>34.74</ele><time>2010-10-10T19:04:14Z</time></trkpt><trkpt lat="45.662144" lon="0.135046"><ele>35.71</ele><time>2010-10-10T19:04:30Z</time></trkpt><trkpt lat="45.661685" lon="0.137032"><ele>37.63</ele><time>2010-10-10T19:04:43Z</time></trkpt><trkpt lat="45.661440" lon="0.137950"><ele>36.67</ele><time>2010-10-10T19:04:52Z</time></trkpt><trkpt lat="45.661417" lon="0.138105"><ele>36.67</ele><time>2010-10-10T19:04:54Z</time></trkpt><trkpt lat="45.661371" lon="0.138185"><ele>36.19</ele><time>2010-10-10T19:04:55Z</time></trkpt><trkpt lat="45.661027" lon="0.139018"><ele>35.71</ele><time>2010-10-10T19:05:02Z</time></trkpt><trkpt lat="45.660130" lon="0.140923"><ele>34.26</ele><time>2010-10-10T19:05:17Z</time></trkpt><trkpt lat="45.659435" lon="0.142509"><ele>32.34</ele><time>2010-10-10T19:05:29Z</time></trkpt><trkpt lat="45.659323" lon="0.142679"><ele>32.34</ele><time>2010-10-10T19:05:31Z</time></trkpt><trkpt lat="45.659292" lon="0.142664"><ele>32.34</ele><time>2010-10-10T19:05:32Z</time></trkpt><trkpt lat="45.659174" lon="0.142669"><ele>32.34</ele><time>2010-10-10T19:05:33Z</time></trkpt><trkpt lat="45.659152" lon="0.142735"><ele>32.34</ele><time>2010-10-10T19:05:34Z</time></trkpt><trkpt lat="45.659137" lon="0.142779"><ele>32.34</ele><time>2010-10-10T19:05:35Z</time></trkpt><trkpt lat="45.659172" lon="0.142917"><ele>31.86</ele><time>2010-10-10T19:05:36Z</time></trkpt><trkpt lat="45.659156" lon="0.143009"><ele>31.86</ele><time>2010-10-10T19:05:37Z</time></trkpt><trkpt lat="45.659124" lon="0.143087"><ele>31.38</ele><time>2010-10-10T19:05:38Z</time></trkpt><trkpt lat="45.659088" lon="0.143172"><ele>31.38</ele><time>2010-10-10T19:05:39Z</time></trkpt><trkpt lat="45.659049" lon="0.143267"><ele>31.38</ele><time>2010-10-10T19:05:40Z</time></trkpt><trkpt lat="45.658442" lon="0.144676"><ele>30.42</ele><time>2010-10-10T19:05:52Z</time></trkpt><trkpt lat="45.657585" lon="0.146532"><ele>30.90</ele><time>2010-10-10T19:06:07Z</time></trkpt><trkpt lat="45.657334" lon="0.147112"><ele>30.42</ele><time>2010-10-10T19:06:14Z</time></trkpt><trkpt lat="45.656949" lon="0.147815"><ele>29.46</ele><time>2010-10-10T19:06:22Z</time></trkpt><trkpt lat="45.656893" lon="0.147889"><ele>29.46</ele><time>2010-10-10T19:06:23Z</time></trkpt><trkpt lat="45.656833" lon="0.147950"><ele>29.46</ele><time>2010-10-10T19:06:24Z</time></trkpt><trkpt lat="45.656757" lon="0.148003"><ele>28.98</ele><time>2010-10-10T19:06:25Z</time></trkpt><trkpt lat="45.656677" lon="0.148059"><ele>28.98</ele><time>2010-10-10T19:06:26Z</time></trkpt><trkpt lat="45.655724" lon="0.148444"><ele>26.57</ele><time>2010-10-10T19:06:36Z</time></trkpt><trkpt lat="45.655408" lon="0.148430"><ele>26.57</ele><time>2010-10-10T19:06:39Z</time></trkpt><trkpt lat="45.655296" lon="0.148418"><ele>26.57</ele><time>2010-10-10T19:06:40Z</time></trkpt><trkpt lat="45.653938" lon="0.148075"><ele>28.98</ele><time>2010-10-10T19:06:53Z</time></trkpt><trkpt lat="45.653534" lon="0.147940"><ele>31.38</ele><time>2010-10-10T19:06:59Z</time></trkpt><trkpt lat="45.653490" lon="0.147924"><ele>31.86</ele><time>2010-10-10T19:07:00Z</time></trkpt><trkpt lat="45.653490" lon="0.147924"><ele>32.34</ele><time>2010-10-10T19:07:01Z</time></trkpt><trkpt lat="45.653387" lon="0.148134"><ele>32.34</ele><time>2010-10-10T19:07:02Z</time></trkpt><trkpt lat="45.653387" lon="0.148226"><ele>32.34</ele><time>2010-10-10T19:07:03Z</time></trkpt><trkpt lat="45.653387" lon="0.148326"><ele>32.34</ele><time>2010-10-10T19:07:04Z</time></trkpt><trkpt lat="45.653355" lon="0.148961"><ele>31.86</ele><time>2010-10-10T19:07:09Z</time></trkpt><trkpt lat="45.653306" lon="0.149606"><ele>31.86</ele><time>2010-10-10T19:07:14Z</time></trkpt><trkpt lat="45.653296" lon="0.149722"><ele>31.38</ele><time>2010-10-10T19:07:15Z</time></trkpt><trkpt lat="45.653084" lon="0.150932"><ele>31.38</ele><time>2010-10-10T19:07:25Z</time></trkpt><trkpt lat="45.652767" lon="0.152678"><ele>34.26</ele><time>2010-10-10T19:07:37Z</time></trkpt><trkpt lat="45.652680" lon="0.154462"><ele>37.63</ele><time>2010-10-10T19:07:49Z</time></trkpt><trkpt lat="45.652753" lon="0.155683"><ele>40.51</ele><time>2010-10-10T19:07:58Z</time></trkpt><trkpt lat="45.652906" lon="0.156798"><ele>41.47</ele><time>2010-10-10T19:08:06Z</time></trkpt><trkpt lat="45.652897" lon="0.156908"><ele>41.95</ele><time>2010-10-10T19:08:07Z</time></trkpt><trkpt lat="45.652881" lon="0.157117"><ele>41.95</ele><time>2010-10-10T19:08:09Z</time></trkpt><trkpt lat="45.652873" lon="0.157230"><ele>41.47</ele><time>2010-10-10T19:08:10Z</time></trkpt><trkpt lat="45.652308" lon="0.158424"><ele>44.36</ele><time>2010-10-10T19:08:21Z</time></trkpt><trkpt lat="45.652056" lon="0.158773"><ele>46.76</ele><time>2010-10-10T19:08:28Z</time></trkpt><trkpt lat="45.651948" lon="0.158935"><ele>47.72</ele><time>2010-10-10T19:08:32Z</time></trkpt><trkpt lat="45.651965" lon="0.158984"><ele>47.72</ele><time>2010-10-10T19:08:33Z</time></trkpt><trkpt lat="45.651940" lon="0.159302"><ele>47.24</ele><time>2010-10-10T19:08:37Z</time></trkpt><trkpt lat="45.651930" lon="0.159407"><ele>47.24</ele><time>2010-10-10T19:08:38Z</time></trkpt><trkpt lat="45.651903" lon="0.159516"><ele>46.76</ele><time>2010-10-10T19:08:39Z</time></trkpt><trkpt lat="45.651660" lon="0.160382"><ele>46.76</ele><time>2010-10-10T19:08:47Z</time></trkpt><trkpt lat="45.651641" lon="0.160475"><ele>46.76</ele><time>2010-10-10T19:08:48Z</time></trkpt><trkpt lat="45.651630" lon="0.160563"><ele>46.76</ele><time>2010-10-10T19:08:49Z</time></trkpt><trkpt lat="45.651647" lon="0.160648"><ele>47.24</ele><time>2010-10-10T19:08:50Z</time></trkpt><trkpt lat="45.651665" lon="0.160738"><ele>47.24</ele><time>2010-10-10T19:08:51Z</time></trkpt><trkpt lat="45.651699" lon="0.160818"><ele>47.72</ele><time>2010-10-10T19:08:52Z</time></trkpt><trkpt lat="45.651740" lon="0.160900"><ele>48.20</ele><time>2010-10-10T19:08:53Z</time></trkpt><trkpt lat="45.651783" lon="0.160987"><ele>48.20</ele><time>2010-10-10T19:08:54Z</time></trkpt><trkpt lat="45.651951" lon="0.161401"><ele>49.16</ele><time>2010-10-10T19:09:00Z</time></trkpt><trkpt lat="45.651928" lon="0.161619"><ele>49.65</ele><time>2010-10-10T19:09:01Z</time></trkpt><trkpt lat="45.651928" lon="0.161619"><ele>49.65</ele><time>2010-10-10T19:09:02Z</time></trkpt><trkpt lat="45.651928" lon="0.161619"><ele>49.65</ele><time>2010-10-10T19:09:03Z</time></trkpt><trkpt lat="45.651917" lon="0.161640"><ele>50.13</ele><time>2010-10-10T19:09:04Z</time></trkpt><trkpt lat="45.651895" lon="0.161683"><ele>50.13</ele><time>2010-10-10T19:09:05Z</time></trkpt><trkpt lat="45.651875" lon="0.161734"><ele>50.13</ele><time>2010-10-10T19:09:06Z</time></trkpt><trkpt lat="45.651854" lon="0.161796"><ele>50.13</ele><time>2010-10-10T19:09:07Z</time></trkpt><trkpt lat="45.651824" lon="0.161869"><ele>50.13</ele><time>2010-10-10T19:09:08Z</time></trkpt><trkpt lat="45.651799" lon="0.161920"><ele>50.61</ele><time>2010-10-10T19:09:09Z</time></trkpt><trkpt lat="45.651810" lon="0.161986"><ele>50.61</ele><time>2010-10-10T19:09:10Z</time></trkpt><trkpt lat="45.651824" lon="0.162070"><ele>50.61</ele><time>2010-10-10T19:09:11Z</time></trkpt><trkpt lat="45.651839" lon="0.162160"><ele>51.09</ele><time>2010-10-10T19:09:12Z</time></trkpt><trkpt lat="45.651854" lon="0.162252"><ele>51.09</ele><time>2010-10-10T19:09:13Z</time></trkpt><trkpt lat="45.651912" lon="0.162705"><ele>52.53</ele><time>2010-10-10T19:09:19Z</time></trkpt><trkpt lat="45.651799" lon="0.162974"><ele>53.97</ele><time>2010-10-10T19:09:27Z</time></trkpt><trkpt lat="45.651799" lon="0.163003"><ele>53.97</ele><time>2010-10-10T19:09:28Z</time></trkpt><trkpt lat="45.651841" lon="0.163092"><ele>53.97</ele><time>2010-10-10T19:09:29Z</time></trkpt><trkpt lat="45.651880" lon="0.163105"><ele>53.97</ele><time>2010-10-10T19:09:30Z</time></trkpt><trkpt lat="45.651923" lon="0.163120"><ele>53.49</ele><time>2010-10-10T19:09:31Z</time></trkpt><trkpt lat="45.651928" lon="0.163121"><ele>53.01</ele><time>2010-10-10T19:09:32Z</time></trkpt><trkpt lat="45.651928" lon="0.163121"><ele>53.01</ele><time>2010-10-10T19:09:33Z</time></trkpt><trkpt lat="45.652400" lon="0.163665"><ele>48.68</ele><time>2010-10-10T19:09:40Z</time></trkpt><trkpt lat="45.652834" lon="0.164368"><ele>43.88</ele><time>2010-10-10T19:09:49Z</time></trkpt><trkpt lat="45.652974" lon="0.164682"><ele>41.47</ele><time>2010-10-10T19:09:54Z</time></trkpt></trkseg></trk><trk><name>ACTIVE LOG: 11 окт 2010 01:16</name><trkseg><trkpt lat="45.652884" lon="0.165678"><ele>38.11</ele><time>2010-10-10T23:16:05Z</time></trkpt><trkpt lat="45.652880" lon="0.165640"><ele>53.01</ele><time>2010-10-10T23:26:18Z</time></trkpt><trkpt lat="45.652894" lon="0.165648"><ele>52.05</ele><time>2010-10-10T23:26:25Z</time></trkpt><trkpt lat="45.652831" lon="0.165638"><ele>51.57</ele><time>2010-10-10T23:26:33Z</time></trkpt><trkpt lat="45.652840" lon="0.165623"><ele>48.68</ele><time>2010-10-10T23:26:43Z</time></trkpt><trkpt lat="45.653037" lon="0.165856"><ele>42.92</ele><time>2010-10-10T23:26:54Z</time></trkpt><trkpt lat="45.653096" lon="0.165937"><ele>40.51</ele><time>2010-10-10T23:26:58Z</time></trkpt><trkpt lat="45.653230" lon="0.165912"><ele>42.92</ele><time>2010-10-10T23:27:10Z</time></trkpt><trkpt lat="45.653266" lon="0.165900"><ele>42.92</ele><time>2010-10-10T23:27:12Z</time></trkpt><trkpt lat="45.653347" lon="0.165980"><ele>43.40</ele><time>2010-10-10T23:27:16Z</time></trkpt><trkpt lat="45.653644" lon="0.166554"><ele>42.44</ele><time>2010-10-10T23:27:27Z</time></trkpt><trkpt lat="45.654103" lon="0.167357"><ele>41.47</ele><time>2010-10-10T23:27:36Z</time></trkpt><trkpt lat="45.654137" lon="0.167406"><ele>41.47</ele><time>2010-10-10T23:27:37Z</time></trkpt><trkpt lat="45.654181" lon="0.167628"><ele>40.51</ele><time>2010-10-10T23:27:41Z</time></trkpt><trkpt lat="45.654204" lon="0.167670"><ele>40.51</ele><time>2010-10-10T23:27:42Z</time></trkpt><trkpt lat="45.654545" lon="0.167885"><ele>40.03</ele><time>2010-10-10T23:27:47Z</time></trkpt><trkpt lat="45.654647" lon="0.168003"><ele>40.51</ele><time>2010-10-10T23:27:48Z</time></trkpt><trkpt lat="45.655559" lon="0.169118"><ele>40.99</ele><time>2010-10-10T23:27:58Z</time></trkpt><trkpt lat="45.656615" lon="0.170384"><ele>42.92</ele><time>2010-10-10T23:28:10Z</time></trkpt><trkpt lat="45.657498" lon="0.171332"><ele>45.32</ele><time>2010-10-10T23:28:21Z</time></trkpt><trkpt lat="45.657560" lon="0.171400"><ele>45.32</ele><time>2010-10-10T23:28:22Z</time></trkpt><trkpt lat="45.657622" lon="0.171466"><ele>45.32</ele><time>2010-10-10T23:28:23Z</time></trkpt><trkpt lat="45.658279" lon="0.172176"><ele>47.24</ele><time>2010-10-10T23:28:34Z</time></trkpt><trkpt lat="45.658279" lon="0.172176"><ele>47.24</ele><time>2010-10-10T23:28:35Z</time></trkpt><trkpt lat="45.658275" lon="0.172502"><ele>47.24</ele><time>2010-10-10T23:28:37Z</time></trkpt><trkpt lat="45.658303" lon="0.172556"><ele>47.24</ele><time>2010-10-10T23:28:38Z</time></trkpt><trkpt lat="45.658336" lon="0.172605"><ele>47.24</ele><time>2010-10-10T23:28:39Z</time></trkpt><trkpt lat="45.658378" lon="0.172648"><ele>47.24</ele><time>2010-10-10T23:28:40Z</time></trkpt><trkpt lat="45.658423" lon="0.172648"><ele>47.24</ele><time>2010-10-10T23:28:41Z</time></trkpt><trkpt lat="45.658469" lon="0.172639"><ele>47.24</ele><time>2010-10-10T23:28:42Z</time></trkpt><trkpt lat="45.658519" lon="0.172615"><ele>47.24</ele><time>2010-10-10T23:28:43Z</time></trkpt><trkpt lat="45.658565" lon="0.172577"><ele>47.24</ele><time>2010-10-10T23:28:44Z</time></trkpt><trkpt lat="45.658610" lon="0.172532"><ele>47.24</ele><time>2010-10-10T23:28:45Z</time></trkpt><trkpt lat="45.658622" lon="0.172434"><ele>47.24</ele><time>2010-10-10T23:28:46Z</time></trkpt><trkpt lat="45.658604" lon="0.172341"><ele>46.76</ele><time>2010-10-10T23:28:47Z</time></trkpt><trkpt lat="45.658604" lon="0.172341"><ele>46.76</ele><time>2010-10-10T23:28:48Z</time></trkpt><trkpt lat="45.658596" lon="0.172050"><ele>46.28</ele><time>2010-10-10T23:28:50Z</time></trkpt><trkpt lat="45.658607" lon="0.171945"><ele>46.28</ele><time>2010-10-10T23:28:51Z</time></trkpt><trkpt lat="45.658622" lon="0.171790"><ele>45.80</ele><time>2010-10-10T23:28:52Z</time></trkpt><trkpt lat="45.658792" lon="0.171069"><ele>42.92</ele><time>2010-10-10T23:28:59Z</time></trkpt><trkpt lat="45.658792" lon="0.171069"><ele>42.92</ele><time>2010-10-10T23:29:00Z</time></trkpt><trkpt lat="45.658883" lon="0.170932"><ele>42.44</ele><time>2010-10-10T23:29:01Z</time></trkpt><trkpt lat="45.658932" lon="0.170922"><ele>42.44</ele><time>2010-10-10T23:29:02Z</time></trkpt><trkpt lat="45.658932" lon="0.170922"><ele>41.95</ele><time>2010-10-10T23:29:03Z</time></trkpt><trkpt lat="45.659059" lon="0.170866"><ele>41.95</ele><time>2010-10-10T23:29:04Z</time></trkpt><trkpt lat="45.659121" lon="0.170891"><ele>41.95</ele><time>2010-10-10T23:29:05Z</time></trkpt><trkpt lat="45.659191" lon="0.170919"><ele>41.95</ele><time>2010-10-10T23:29:06Z</time></trkpt><trkpt lat="45.659275" lon="0.170947"><ele>41.95</ele><time>2010-10-10T23:29:07Z</time></trkpt><trkpt lat="45.659366" lon="0.170974"><ele>41.95</ele><time>2010-10-10T23:29:08Z</time></trkpt><trkpt lat="45.659461" lon="0.171003"><ele>41.95</ele><time>2010-10-10T23:29:09Z</time></trkpt><trkpt lat="45.660579" lon="0.171339"><ele>44.84</ele><time>2010-10-10T23:29:19Z</time></trkpt><trkpt lat="45.662301" lon="0.171893"><ele>50.13</ele><time>2010-10-10T23:29:32Z</time></trkpt><trkpt lat="45.663155" lon="0.172032"><ele>53.49</ele><time>2010-10-10T23:29:39Z</time></trkpt><trkpt lat="45.663468" lon="0.172048"><ele>53.49</ele><time>2010-10-10T23:29:42Z</time></trkpt><trkpt lat="45.663566" lon="0.172029"><ele>53.01</ele><time>2010-10-10T23:29:43Z</time></trkpt><trkpt lat="45.664062" lon="0.171930"><ele>52.05</ele><time>2010-10-10T23:29:49Z</time></trkpt><trkpt lat="45.664138" lon="0.171934"><ele>51.57</ele><time>2010-10-10T23:29:50Z</time></trkpt><trkpt lat="45.664204" lon="0.171978"><ele>51.09</ele><time>2010-10-10T23:29:51Z</time></trkpt><trkpt lat="45.664634" lon="0.172193"><ele>49.16</ele><time>2010-10-10T23:29:57Z</time></trkpt><trkpt lat="45.664705" lon="0.172202"><ele>48.68</ele><time>2010-10-10T23:29:58Z</time></trkpt><trkpt lat="45.664773" lon="0.172210"><ele>48.68</ele><time>2010-10-10T23:29:59Z</time></trkpt><trkpt lat="45.664845" lon="0.172219"><ele>48.20</ele><time>2010-10-10T23:30:00Z</time></trkpt><trkpt lat="45.664913" lon="0.172183"><ele>47.72</ele><time>2010-10-10T23:30:01Z</time></trkpt><trkpt lat="45.664996" lon="0.172140"><ele>47.24</ele><time>2010-10-10T23:30:02Z</time></trkpt><trkpt lat="45.666064" lon="0.171576"><ele>40.03</ele><time>2010-10-10T23:30:14Z</time></trkpt><trkpt lat="45.666197" lon="0.171506"><ele>39.07</ele><time>2010-10-10T23:30:21Z</time></trkpt><trkpt lat="45.666390" lon="0.171404"><ele>38.59</ele><time>2010-10-10T23:30:36Z</time></trkpt><trkpt lat="45.666390" lon="0.171404"><ele>38.59</ele><time>2010-10-10T23:30:37Z</time></trkpt><trkpt lat="45.666501" lon="0.171483"><ele>38.59</ele><time>2010-10-10T23:30:38Z</time></trkpt><trkpt lat="45.667484" lon="0.171907"><ele>37.63</ele><time>2010-10-10T23:30:49Z</time></trkpt><trkpt lat="45.669182" lon="0.172570"><ele>37.63</ele><time>2010-10-10T23:31:04Z</time></trkpt><trkpt lat="45.670215" lon="0.172967"><ele>40.99</ele><time>2010-10-10T23:31:16Z</time></trkpt><trkpt lat="45.671350" lon="0.173457"><ele>45.32</ele><time>2010-10-10T23:31:27Z</time></trkpt><trkpt lat="45.672863" lon="0.173943"><ele>43.40</ele><time>2010-10-10T23:31:41Z</time></trkpt><trkpt lat="45.674092" lon="0.174202"><ele>37.63</ele><time>2010-10-10T23:31:54Z</time></trkpt><trkpt lat="45.674992" lon="0.174581"><ele>34.74</ele><time>2010-10-10T23:32:04Z</time></trkpt><trkpt lat="45.676444" lon="0.175402"><ele>31.38</ele><time>2010-10-10T23:32:17Z</time></trkpt><trkpt lat="45.677170" lon="0.175836"><ele>29.94</ele><time>2010-10-10T23:32:26Z</time></trkpt><trkpt lat="45.677283" lon="0.175917"><ele>29.94</ele><time>2010-10-10T23:32:28Z</time></trkpt><trkpt lat="45.677376" lon="0.176167"><ele>29.94</ele><time>2010-10-10T23:32:30Z</time></trkpt><trkpt lat="45.677466" lon="0.176195"><ele>30.42</ele><time>2010-10-10T23:32:35Z</time></trkpt><trkpt lat="45.677535" lon="0.176172"><ele>30.42</ele><time>2010-10-10T23:32:40Z</time></trkpt><trkpt lat="45.677557" lon="0.176131"><ele>30.42</ele><time>2010-10-10T23:32:41Z</time></trkpt><trkpt lat="45.677570" lon="0.176079"><ele>30.42</ele><time>2010-10-10T23:32:42Z</time></trkpt><trkpt lat="45.677584" lon="0.176025"><ele>29.94</ele><time>2010-10-10T23:32:43Z</time></trkpt><trkpt lat="45.677591" lon="0.175996"><ele>29.94</ele><time>2010-10-10T23:32:44Z</time></trkpt><trkpt lat="45.677591" lon="0.175996"><ele>29.46</ele><time>2010-10-10T23:32:45Z</time></trkpt><trkpt lat="45.677591" lon="0.175996"><ele>29.46</ele><time>2010-10-10T23:32:46Z</time></trkpt><trkpt lat="45.678501" lon="0.175068"><ele>29.46</ele><time>2010-10-10T23:32:58Z</time></trkpt><trkpt lat="45.679274" lon="0.174254"><ele>32.34</ele><time>2010-10-10T23:33:09Z</time></trkpt><trkpt lat="45.679774" lon="0.173559"><ele>33.30</ele><time>2010-10-10T23:33:16Z</time></trkpt><trkpt lat="45.679818" lon="0.173439"><ele>33.30</ele><time>2010-10-10T23:33:17Z</time></trkpt><trkpt lat="45.679858" lon="0.173323"><ele>33.30</ele><time>2010-10-10T23:33:18Z</time></trkpt><trkpt lat="45.679898" lon="0.173207"><ele>33.30</ele><time>2010-10-10T23:33:19Z</time></trkpt><trkpt lat="45.679939" lon="0.173087"><ele>32.82</ele><time>2010-10-10T23:33:20Z</time></trkpt><trkpt lat="45.680129" lon="0.172535"><ele>32.34</ele><time>2010-10-10T23:33:25Z</time></trkpt><trkpt lat="45.680180" lon="0.172390"><ele>31.86</ele><time>2010-10-10T23:33:27Z</time></trkpt><trkpt lat="45.680198" lon="0.172336"><ele>31.38</ele><time>2010-10-10T23:33:28Z</time></trkpt><trkpt lat="45.680198" lon="0.172336"><ele>30.90</ele><time>2010-10-10T23:33:29Z</time></trkpt><trkpt lat="45.680225" lon="0.172231"><ele>30.90</ele><time>2010-10-10T23:33:30Z</time></trkpt><trkpt lat="45.680234" lon="0.172190"><ele>30.42</ele><time>2010-10-10T23:33:31Z</time></trkpt><trkpt lat="45.680242" lon="0.172157"><ele>30.42</ele><time>2010-10-10T23:33:32Z</time></trkpt><trkpt lat="45.680246" lon="0.172137"><ele>30.90</ele><time>2010-10-10T23:33:33Z</time></trkpt><trkpt lat="45.680202" lon="0.172124"><ele>32.34</ele><time>2010-10-10T23:33:44Z</time></trkpt><trkpt lat="45.680202" lon="0.172124"><ele>32.34</ele><time>2010-10-10T23:33:46Z</time></trkpt><trkpt lat="45.680209" lon="0.172305"><ele>32.82</ele><time>2010-10-10T23:33:55Z</time></trkpt><trkpt lat="45.679757" lon="0.173583"><ele>33.30</ele><time>2010-10-10T23:34:03Z</time></trkpt><trkpt lat="45.679696" lon="0.173675"><ele>33.30</ele><time>2010-10-10T23:34:04Z</time></trkpt><trkpt lat="45.678756" lon="0.174824"><ele>34.26</ele><time>2010-10-10T23:34:16Z</time></trkpt><trkpt lat="45.677630" lon="0.175951"><ele>34.74</ele><time>2010-10-10T23:34:30Z</time></trkpt><trkpt lat="45.677596" lon="0.175990"><ele>34.74</ele><time>2010-10-10T23:34:31Z</time></trkpt><trkpt lat="45.677596" lon="0.175990"><ele>34.26</ele><time>2010-10-10T23:34:32Z</time></trkpt><trkpt lat="45.677536" lon="0.175913"><ele>34.26</ele><time>2010-10-10T23:34:33Z</time></trkpt><trkpt lat="45.677450" lon="0.175885"><ele>34.26</ele><time>2010-10-10T23:34:34Z</time></trkpt><trkpt lat="45.677409" lon="0.175899"><ele>34.26</ele><time>2010-10-10T23:34:35Z</time></trkpt><trkpt lat="45.677344" lon="0.176005"><ele>34.26</ele><time>2010-10-10T23:34:36Z</time></trkpt><trkpt lat="45.677350" lon="0.176033"><ele>34.74</ele><time>2010-10-10T23:34:37Z</time></trkpt><trkpt lat="45.677358" lon="0.176075"><ele>34.74</ele><time>2010-10-10T23:34:38Z</time></trkpt><trkpt lat="45.677367" lon="0.176122"><ele>34.74</ele><time>2010-10-10T23:34:39Z</time></trkpt><trkpt lat="45.677376" lon="0.176165"><ele>35.23</ele><time>2010-10-10T23:34:40Z</time></trkpt><trkpt lat="45.677399" lon="0.176190"><ele>35.23</ele><time>2010-10-10T23:34:41Z</time></trkpt><trkpt lat="45.677419" lon="0.176210"><ele>35.23</ele><time>2010-10-10T23:34:42Z</time></trkpt><trkpt lat="45.677419" lon="0.176210"><ele>35.71</ele><time>2010-10-10T23:34:43Z</time></trkpt><trkpt lat="45.677464" lon="0.176196"><ele>35.71</ele><time>2010-10-10T23:34:44Z</time></trkpt><trkpt lat="45.677487" lon="0.176188"><ele>35.71</ele><time>2010-10-10T23:34:45Z</time></trkpt><trkpt lat="45.677930" lon="0.176574"><ele>36.19</ele><time>2010-10-10T23:34:53Z</time></trkpt><trkpt lat="45.678144" lon="0.176741"><ele>36.67</ele><time>2010-10-10T23:34:56Z</time></trkpt><trkpt lat="45.678217" lon="0.176798"><ele>36.67</ele><time>2010-10-10T23:34:57Z</time></trkpt><trkpt lat="45.679139" lon="0.177026"><ele>38.59</ele><time>2010-10-10T23:35:06Z</time></trkpt><trkpt lat="45.681038" lon="0.177399"><ele>48.20</ele><time>2010-10-10T23:35:21Z</time></trkpt><trkpt lat="45.681960" lon="0.177564"><ele>53.49</ele><time>2010-10-10T23:35:29Z</time></trkpt><trkpt lat="45.682135" lon="0.177595"><ele>53.49</ele><time>2010-10-10T23:35:32Z</time></trkpt><trkpt lat="45.682195" lon="0.177606"><ele>53.97</ele><time>2010-10-10T23:35:33Z</time></trkpt><trkpt lat="45.682831" lon="0.177761"><ele>56.86</ele><time>2010-10-10T23:35:40Z</time></trkpt><trkpt lat="45.683347" lon="0.177895"><ele>60.70</ele><time>2010-10-10T23:35:47Z</time></trkpt><trkpt lat="45.683470" lon="0.177927"><ele>61.18</ele><time>2010-10-10T23:35:48Z</time></trkpt><trkpt lat="45.683470" lon="0.177955"><ele>61.66</ele><time>2010-10-10T23:35:49Z</time></trkpt><trkpt lat="45.683470" lon="0.178000"><ele>61.66</ele><time>2010-10-10T23:35:50Z</time></trkpt><trkpt lat="45.683470" lon="0.178055"><ele>61.66</ele><time>2010-10-10T23:35:51Z</time></trkpt><trkpt lat="45.683520" lon="0.178158"><ele>62.14</ele><time>2010-10-10T23:35:52Z</time></trkpt><trkpt lat="45.683564" lon="0.178173"><ele>62.62</ele><time>2010-10-10T23:35:53Z</time></trkpt><trkpt lat="45.683619" lon="0.178171"><ele>63.10</ele><time>2010-10-10T23:35:54Z</time></trkpt><trkpt lat="45.683665" lon="0.178140"><ele>63.10</ele><time>2010-10-10T23:35:55Z</time></trkpt><trkpt lat="45.683728" lon="0.178099"><ele>63.58</ele><time>2010-10-10T23:35:56Z</time></trkpt><trkpt lat="45.683862" lon="0.178076"><ele>64.07</ele><time>2010-10-10T23:35:58Z</time></trkpt><trkpt lat="45.683943" lon="0.178063"><ele>64.07</ele><time>2010-10-10T23:35:59Z</time></trkpt><trkpt lat="45.684028" lon="0.178064"><ele>64.55</ele><time>2010-10-10T23:36:00Z</time></trkpt><trkpt lat="45.685251" lon="0.178309"><ele>73.20</ele><time>2010-10-10T23:36:11Z</time></trkpt><trkpt lat="45.686642" lon="0.178704"><ele>80.41</ele><time>2010-10-10T23:36:23Z</time></trkpt><trkpt lat="45.686763" lon="0.178774"><ele>81.37</ele><time>2010-10-10T23:36:25Z</time></trkpt><trkpt lat="45.686808" lon="0.178818"><ele>81.85</ele><time>2010-10-10T23:36:26Z</time></trkpt><trkpt lat="45.686808" lon="0.178818"><ele>82.33</ele><time>2010-10-10T23:36:27Z</time></trkpt><trkpt lat="45.686927" lon="0.179015"><ele>82.81</ele><time>2010-10-10T23:36:29Z</time></trkpt><trkpt lat="45.686982" lon="0.179052"><ele>82.81</ele><time>2010-10-10T23:36:30Z</time></trkpt><trkpt lat="45.687053" lon="0.179072"><ele>82.81</ele><time>2010-10-10T23:36:31Z</time></trkpt><trkpt lat="45.687101" lon="0.179040"><ele>82.81</ele><time>2010-10-10T23:36:32Z</time></trkpt><trkpt lat="45.687152" lon="0.179006"><ele>82.81</ele><time>2010-10-10T23:36:33Z</time></trkpt><trkpt lat="45.687193" lon="0.178952"><ele>82.33</ele><time>2010-10-10T23:36:34Z</time></trkpt><trkpt lat="45.687273" lon="0.178871"><ele>82.33</ele><time>2010-10-10T23:36:35Z</time></trkpt><trkpt lat="45.687351" lon="0.178871"><ele>82.33</ele><time>2010-10-10T23:36:36Z</time></trkpt><trkpt lat="45.687438" lon="0.178871"><ele>82.33</ele><time>2010-10-10T23:36:37Z</time></trkpt><trkpt lat="45.688365" lon="0.178966"><ele>86.66</ele><time>2010-10-10T23:36:46Z</time></trkpt><trkpt lat="45.689457" lon="0.179183"><ele>87.62</ele><time>2010-10-10T23:36:56Z</time></trkpt><trkpt lat="45.690147" lon="0.179350"><ele>86.66</ele><time>2010-10-10T23:37:04Z</time></trkpt><trkpt lat="45.690266" lon="0.179487"><ele>86.66</ele><time>2010-10-10T23:37:07Z</time></trkpt><trkpt lat="45.690323" lon="0.179493"><ele>86.66</ele><time>2010-10-10T23:37:08Z</time></trkpt><trkpt lat="45.690360" lon="0.179465"><ele>86.66</ele><time>2010-10-10T23:37:09Z</time></trkpt><trkpt lat="45.690402" lon="0.179434"><ele>86.66</ele><time>2010-10-10T23:37:10Z</time></trkpt><trkpt lat="45.690468" lon="0.179386"><ele>86.66</ele><time>2010-10-10T23:37:11Z</time></trkpt><trkpt lat="45.690516" lon="0.179395"><ele>86.66</ele><time>2010-10-10T23:37:12Z</time></trkpt><trkpt lat="45.690566" lon="0.179404"><ele>86.66</ele><time>2010-10-10T23:37:13Z</time></trkpt><trkpt lat="45.690621" lon="0.179414"><ele>86.66</ele><time>2010-10-10T23:37:14Z</time></trkpt><trkpt lat="45.691352" lon="0.179544"><ele>85.21</ele><time>2010-10-10T23:37:23Z</time></trkpt><trkpt lat="45.691876" lon="0.179637"><ele>83.29</ele><time>2010-10-10T23:37:29Z</time></trkpt></trkseg></trk><trk><name>ACTIVE LOG: 11 окт 2010 11:40</name><trkseg><trkpt lat="45.693764" lon="0.181405"><ele>92.90</ele><time>2010-10-11T09:40:55Z</time></trkpt><trkpt lat="45.693723" lon="0.181609"><ele>93.39</ele><time>2010-10-11T09:41:55Z</time></trkpt><trkpt lat="45.693962" lon="0.180105"><ele>93.87</ele><time>2010-10-11T09:41:57Z</time></trkpt><trkpt lat="45.694178" lon="0.180034"><ele>89.06</ele><time>2010-10-11T09:42:38Z</time></trkpt><trkpt lat="45.694143" lon="0.180026"><ele>89.06</ele><time>2010-10-11T09:42:39Z</time></trkpt><trkpt lat="45.694117" lon="0.180020"><ele>89.54</ele><time>2010-10-11T09:42:40Z</time></trkpt><trkpt lat="45.693936" lon="0.179980"><ele>91.94</ele><time>2010-10-11T09:42:50Z</time></trkpt><trkpt lat="45.693742" lon="0.179936"><ele>91.46</ele><time>2010-10-11T09:42:55Z</time></trkpt><trkpt lat="45.693690" lon="0.179924"><ele>91.46</ele><time>2010-10-11T09:42:56Z</time></trkpt><trkpt lat="45.693636" lon="0.179912"><ele>91.94</ele><time>2010-10-11T09:42:57Z</time></trkpt><trkpt lat="45.693331" lon="0.180901"><ele>93.39</ele><time>2010-10-11T09:43:05Z</time></trkpt><trkpt lat="45.692654" lon="0.181232"><ele>95.31</ele><time>2010-10-11T09:43:14Z</time></trkpt><trkpt lat="45.693440" lon="0.179980"><ele>95.31</ele><time>2010-10-11T09:43:16Z</time></trkpt><trkpt lat="45.693451" lon="0.179983"><ele>95.31</ele><time>2010-10-11T09:43:17Z</time></trkpt><trkpt lat="45.693466" lon="0.179986"><ele>95.31</ele><time>2010-10-11T09:43:18Z</time></trkpt><trkpt lat="45.693466" lon="0.179986"><ele>95.79</ele><time>2010-10-11T09:43:34Z</time></trkpt><trkpt lat="45.693466" lon="0.179986"><ele>98.19</ele><time>2010-10-11T09:43:58Z</time></trkpt><trkpt lat="45.693558" lon="0.180008"><ele>98.19</ele><time>2010-10-11T09:44:00Z</time></trkpt><trkpt lat="45.693558" lon="0.180008"><ele>98.19</ele><time>2010-10-11T09:44:17Z</time></trkpt><trkpt lat="45.693558" lon="0.180008"><ele>98.19</ele><time>2010-10-11T09:44:36Z</time></trkpt><trkpt lat="45.693558" lon="0.180008"><ele>94.83</ele><time>2010-10-11T09:45:39Z</time></trkpt><trkpt lat="45.692654" lon="0.181232"><ele>94.83</ele><time>2010-10-11T09:45:40Z</time></trkpt><trkpt lat="45.692654" lon="0.181232"><ele>95.79</ele><time>2010-10-11T09:45:55Z</time></trkpt><trkpt lat="45.692654" lon="0.181232"><ele>94.35</ele><time>2010-10-11T09:46:38Z</time></trkpt><trkpt lat="45.692654" lon="0.181232"><ele>92.42</ele><time>2010-10-11T09:46:56Z</time></trkpt><trkpt lat="45.692654" lon="0.181232"><ele>91.94</ele><time>2010-10-11T09:47:13Z</time></trkpt><trkpt lat="45.692654" lon="0.181232"><ele>91.94</ele><time>2010-10-11T09:47:42Z</time></trkpt><trkpt lat="45.692654" lon="0.181232"><ele>91.46</ele><time>2010-10-11T09:48:34Z</time></trkpt><trkpt lat="45.692654" lon="0.181232"><ele>86.66</ele><time>2010-10-11T09:48:51Z</time></trkpt><trkpt lat="45.692654" lon="0.181232"><ele>85.69</ele><time>2010-10-11T09:49:05Z</time></trkpt><trkpt lat="45.692654" lon="0.181232"><ele>82.81</ele><time>2010-10-11T09:49:32Z</time></trkpt><trkpt lat="45.692654" lon="0.181232"><ele>87.14</ele><time>2010-10-11T09:54:28Z</time></trkpt><trkpt lat="45.692654" lon="0.181232"><ele>86.18</ele><time>2010-10-11T09:54:39Z</time></trkpt><trkpt lat="45.692654" lon="0.181232"><ele>86.18</ele><time>2010-10-11T09:55:10Z</time></trkpt><trkpt lat="45.693792" lon="0.180064"><ele>91.46</ele><time>2010-10-11T09:55:21Z</time></trkpt><trkpt lat="45.693792" lon="0.180064"><ele>90.50</ele><time>2010-10-11T09:56:53Z</time></trkpt><trkpt lat="45.693589" lon="0.181240"><ele>90.50</ele><time>2010-10-11T09:57:00Z</time></trkpt><trkpt lat="45.693453" lon="0.181122"><ele>90.50</ele><time>2010-10-11T09:57:05Z</time></trkpt><trkpt lat="45.693333" lon="0.181046"><ele>90.02</ele><time>2010-10-11T09:57:09Z</time></trkpt><trkpt lat="45.693209" lon="0.181188"><ele>89.54</ele><time>2010-10-11T09:57:14Z</time></trkpt><trkpt lat="45.693005" lon="0.181392"><ele>88.58</ele><time>2010-10-11T09:57:25Z</time></trkpt><trkpt lat="45.692654" lon="0.181232"><ele>88.58</ele><time>2010-10-11T09:57:28Z</time></trkpt><trkpt lat="45.692654" lon="0.181232"><ele>88.58</ele><time>2010-10-11T09:57:29Z</time></trkpt><trkpt lat="45.692516" lon="0.181301"><ele>89.06</ele><time>2010-10-11T09:57:35Z</time></trkpt><trkpt lat="45.692464" lon="0.181327"><ele>89.06</ele><time>2010-10-11T09:57:36Z</time></trkpt><trkpt lat="45.692408" lon="0.181355"><ele>89.06</ele><time>2010-10-11T09:57:37Z</time></trkpt><trkpt lat="45.692353" lon="0.181404"><ele>89.06</ele><time>2010-10-11T09:57:38Z</time></trkpt><trkpt lat="45.692300" lon="0.181457"><ele>89.06</ele><time>2010-10-11T09:57:39Z</time></trkpt><trkpt lat="45.691950" lon="0.181686"><ele>89.06</ele><time>2010-10-11T09:57:48Z</time></trkpt><trkpt lat="45.691838" lon="0.181639"><ele>90.02</ele><time>2010-10-11T09:57:51Z</time></trkpt><trkpt lat="45.691784" lon="0.181678"><ele>90.02</ele><time>2010-10-11T09:57:52Z</time></trkpt><trkpt lat="45.691755" lon="0.181721"><ele>90.02</ele><time>2010-10-11T09:57:53Z</time></trkpt><trkpt lat="45.691723" lon="0.181843"><ele>90.02</ele><time>2010-10-11T09:57:54Z</time></trkpt><trkpt lat="45.691738" lon="0.181902"><ele>89.54</ele><time>2010-10-11T09:57:55Z</time></trkpt><trkpt lat="45.691753" lon="0.181961"><ele>89.54</ele><time>2010-10-11T09:57:56Z</time></trkpt><trkpt lat="45.691882" lon="0.182090"><ele>89.06</ele><time>2010-10-11T09:57:57Z</time></trkpt><trkpt lat="45.691882" lon="0.182090"><ele>89.06</ele><time>2010-10-11T09:57:58Z</time></trkpt><trkpt lat="45.691882" lon="0.182090"><ele>89.06</ele><time>2010-10-11T09:57:59Z</time></trkpt><trkpt lat="45.691961" lon="0.182296"><ele>88.58</ele><time>2010-10-11T09:58:04Z</time></trkpt><trkpt lat="45.691980" lon="0.182344"><ele>88.58</ele><time>2010-10-11T09:58:05Z</time></trkpt><trkpt lat="45.691999" lon="0.182396"><ele>88.58</ele><time>2010-10-11T09:58:06Z</time></trkpt><trkpt lat="45.692020" lon="0.182448"><ele>88.10</ele><time>2010-10-11T09:58:07Z</time></trkpt><trkpt lat="45.692041" lon="0.182503"><ele>88.10</ele><time>2010-10-11T09:58:08Z</time></trkpt><trkpt lat="45.692061" lon="0.182556"><ele>87.62</ele><time>2010-10-11T09:58:09Z</time></trkpt><trkpt lat="45.692082" lon="0.182611"><ele>87.62</ele><time>2010-10-11T09:58:10Z</time></trkpt><trkpt lat="45.692113" lon="0.182690"><ele>86.66</ele><time>2010-10-11T09:58:18Z</time></trkpt><trkpt lat="45.692119" lon="0.182706"><ele>86.66</ele><time>2010-10-11T09:58:23Z</time></trkpt><trkpt lat="45.692126" lon="0.182724"><ele>87.14</ele><time>2010-10-11T09:58:24Z</time></trkpt><trkpt lat="45.692136" lon="0.182752"><ele>87.14</ele><time>2010-10-11T09:58:25Z</time></trkpt><trkpt lat="45.692166" lon="0.182829"><ele>87.62</ele><time>2010-10-11T09:58:28Z</time></trkpt><trkpt lat="45.691657" lon="0.183416"><ele>87.62</ele><time>2010-10-11T09:58:29Z</time></trkpt><trkpt lat="45.691675" lon="0.183449"><ele>87.62</ele><time>2010-10-11T09:58:30Z</time></trkpt><trkpt lat="45.691689" lon="0.183476"><ele>87.62</ele><time>2010-10-11T09:58:31Z</time></trkpt><trkpt lat="45.691700" lon="0.183497"><ele>87.62</ele><time>2010-10-11T09:58:32Z</time></trkpt><trkpt lat="45.692263" lon="0.183081"><ele>88.10</ele><time>2010-10-11T09:58:37Z</time></trkpt><trkpt lat="45.692277" lon="0.183117"><ele>88.10</ele><time>2010-10-11T09:58:38Z</time></trkpt><trkpt lat="45.692295" lon="0.183163"><ele>87.62</ele><time>2010-10-11T09:58:39Z</time></trkpt><trkpt lat="45.692311" lon="0.183286"><ele>87.62</ele><time>2010-10-11T09:58:40Z</time></trkpt><trkpt lat="45.692311" lon="0.183335"><ele>87.62</ele><time>2010-10-11T09:58:41Z</time></trkpt><trkpt lat="45.692311" lon="0.183385"><ele>87.62</ele><time>2010-10-11T09:58:42Z</time></trkpt><trkpt lat="45.692244" lon="0.183558"><ele>87.62</ele><time>2010-10-11T09:58:43Z</time></trkpt><trkpt lat="45.692235" lon="0.183560"><ele>87.62</ele><time>2010-10-11T09:58:44Z</time></trkpt><trkpt lat="45.692217" lon="0.183562"><ele>88.10</ele><time>2010-10-11T09:58:45Z</time></trkpt><trkpt lat="45.692199" lon="0.183565"><ele>88.10</ele><time>2010-10-11T09:58:46Z</time></trkpt><trkpt lat="45.692186" lon="0.183567"><ele>88.10</ele><time>2010-10-11T09:58:47Z</time></trkpt><trkpt lat="45.692186" lon="0.183567"><ele>88.58</ele><time>2010-10-11T09:58:48Z</time></trkpt><trkpt lat="45.692128" lon="0.183575"><ele>88.58</ele><time>2010-10-11T09:58:50Z</time></trkpt><trkpt lat="45.692079" lon="0.183582"><ele>88.58</ele><time>2010-10-11T09:58:51Z</time></trkpt><trkpt lat="45.692023" lon="0.183590"><ele>88.10</ele><time>2010-10-11T09:58:52Z</time></trkpt><trkpt lat="45.691961" lon="0.183641"><ele>88.10</ele><time>2010-10-11T09:58:53Z</time></trkpt><trkpt lat="45.691922" lon="0.183680"><ele>88.10</ele><time>2010-10-11T09:58:54Z</time></trkpt><trkpt lat="45.691787" lon="0.183660"><ele>88.10</ele><time>2010-10-11T09:58:55Z</time></trkpt><trkpt lat="45.691744" lon="0.183579"><ele>87.62</ele><time>2010-10-11T09:58:56Z</time></trkpt><trkpt lat="45.691695" lon="0.183487"><ele>87.62</ele><time>2010-10-11T09:58:57Z</time></trkpt><trkpt lat="45.691643" lon="0.183389"><ele>87.62</ele><time>2010-10-11T09:58:58Z</time></trkpt><trkpt lat="45.691026" lon="0.182223"><ele>84.73</ele><time>2010-10-11T09:59:07Z</time></trkpt><trkpt lat="45.690360" lon="0.180479"><ele>83.77</ele><time>2010-10-11T09:59:17Z</time></trkpt><trkpt lat="45.690294" lon="0.179894"><ele>84.73</ele><time>2010-10-11T09:59:21Z</time></trkpt><trkpt lat="45.690294" lon="0.179789"><ele>85.21</ele><time>2010-10-11T09:59:22Z</time></trkpt><trkpt lat="45.690294" lon="0.179628"><ele>85.21</ele><time>2010-10-11T09:59:24Z</time></trkpt><trkpt lat="45.690297" lon="0.179512"><ele>85.21</ele><time>2010-10-11T09:59:25Z</time></trkpt><trkpt lat="45.690333" lon="0.179486"><ele>85.21</ele><time>2010-10-11T09:59:26Z</time></trkpt><trkpt lat="45.690413" lon="0.179425"><ele>85.69</ele><time>2010-10-11T09:59:28Z</time></trkpt><trkpt lat="45.690442" lon="0.179242"><ele>85.69</ele><time>2010-10-11T09:59:29Z</time></trkpt><trkpt lat="45.690415" lon="0.179174"><ele>85.69</ele><time>2010-10-11T09:59:30Z</time></trkpt><trkpt lat="45.690364" lon="0.179078"><ele>86.18</ele><time>2010-10-11T09:59:31Z</time></trkpt><trkpt lat="45.690277" lon="0.179060"><ele>86.66</ele><time>2010-10-11T09:59:32Z</time></trkpt><trkpt lat="45.690277" lon="0.179060"><ele>87.14</ele><time>2010-10-11T09:59:33Z</time></trkpt><trkpt lat="45.690165" lon="0.179172"><ele>87.14</ele><time>2010-10-11T09:59:34Z</time></trkpt><trkpt lat="45.690137" lon="0.179167"><ele>87.14</ele><time>2010-10-11T09:59:35Z</time></trkpt><trkpt lat="45.690069" lon="0.179156"><ele>87.14</ele><time>2010-10-11T09:59:36Z</time></trkpt><trkpt lat="45.689988" lon="0.179142"><ele>87.14</ele><time>2010-10-11T09:59:37Z</time></trkpt><trkpt lat="45.689895" lon="0.179127"><ele>87.14</ele><time>2010-10-11T09:59:38Z</time></trkpt><trkpt lat="45.688716" lon="0.178912"><ele>90.02</ele><time>2010-10-11T09:59:48Z</time></trkpt><trkpt lat="45.687811" lon="0.178767"><ele>90.02</ele><time>2010-10-11T09:59:57Z</time></trkpt><trkpt lat="45.687294" lon="0.178705"><ele>86.66</ele><time>2010-10-11T10:00:05Z</time></trkpt><trkpt lat="45.687099" lon="0.178507"><ele>86.66</ele><time>2010-10-11T10:00:11Z</time></trkpt><trkpt lat="45.687016" lon="0.178493"><ele>86.66</ele><time>2010-10-11T10:00:12Z</time></trkpt><trkpt lat="45.686961" lon="0.178520"><ele>86.66</ele><time>2010-10-11T10:00:13Z</time></trkpt><trkpt lat="45.686840" lon="0.178567"><ele>86.18</ele><time>2010-10-11T10:00:15Z</time></trkpt><trkpt lat="45.686762" lon="0.178551"><ele>85.69</ele><time>2010-10-11T10:00:16Z</time></trkpt><trkpt lat="45.686676" lon="0.178533"><ele>85.21</ele><time>2010-10-11T10:00:17Z</time></trkpt><trkpt lat="45.685448" lon="0.178281"><ele>79.45</ele><time>2010-10-11T10:00:30Z</time></trkpt><trkpt lat="45.684018" lon="0.177987"><ele>71.76</ele><time>2010-10-11T10:00:47Z</time></trkpt><trkpt lat="45.683742" lon="0.177930"><ele>70.31</ele><time>2010-10-11T10:00:51Z</time></trkpt><trkpt lat="45.683742" lon="0.177930"><ele>70.31</ele><time>2010-10-11T10:00:52Z</time></trkpt><trkpt lat="45.683641" lon="0.177869"><ele>69.83</ele><time>2010-10-11T10:00:53Z</time></trkpt><trkpt lat="45.683562" lon="0.177866"><ele>69.83</ele><time>2010-10-11T10:00:54Z</time></trkpt><trkpt lat="45.683470" lon="0.177927"><ele>69.83</ele><time>2010-10-11T10:00:55Z</time></trkpt><trkpt lat="45.683413" lon="0.177912"><ele>69.35</ele><time>2010-10-11T10:00:56Z</time></trkpt><trkpt lat="45.682617" lon="0.177706"><ele>65.03</ele><time>2010-10-11T10:01:04Z</time></trkpt><trkpt lat="45.682403" lon="0.177650"><ele>63.58</ele><time>2010-10-11T10:01:07Z</time></trkpt><trkpt lat="45.682341" lon="0.177634"><ele>63.58</ele><time>2010-10-11T10:01:08Z</time></trkpt><trkpt lat="45.682240" lon="0.177614"><ele>63.58</ele><time>2010-10-11T10:01:10Z</time></trkpt><trkpt lat="45.682194" lon="0.177605"><ele>63.58</ele><time>2010-10-11T10:01:11Z</time></trkpt><trkpt lat="45.682157" lon="0.177599"><ele>63.10</ele><time>2010-10-11T10:01:12Z</time></trkpt><trkpt lat="45.682386" lon="0.178067"><ele>62.62</ele><time>2010-10-11T10:01:13Z</time></trkpt><trkpt lat="45.682360" lon="0.178093"><ele>61.66</ele><time>2010-10-11T10:01:14Z</time></trkpt><trkpt lat="45.682208" lon="0.177608"><ele>61.18</ele><time>2010-10-11T10:01:16Z</time></trkpt><trkpt lat="45.682243" lon="0.177614"><ele>60.70</ele><time>2010-10-11T10:01:17Z</time></trkpt><trkpt lat="45.682276" lon="0.177620"><ele>60.70</ele><time>2010-10-11T10:01:18Z</time></trkpt><trkpt lat="45.682308" lon="0.177626"><ele>60.70</ele><time>2010-10-11T10:01:19Z</time></trkpt><trkpt lat="45.682352" lon="0.177637"><ele>60.22</ele><time>2010-10-11T10:01:20Z</time></trkpt><trkpt lat="45.682383" lon="0.177645"><ele>60.22</ele><time>2010-10-11T10:01:21Z</time></trkpt><trkpt lat="45.682355" lon="0.178280"><ele>59.74</ele><time>2010-10-11T10:01:24Z</time></trkpt><trkpt lat="45.682384" lon="0.178387"><ele>59.26</ele><time>2010-10-11T10:01:25Z</time></trkpt><trkpt lat="45.682478" lon="0.178679"><ele>58.30</ele><time>2010-10-11T10:01:28Z</time></trkpt><trkpt lat="45.682540" lon="0.178775"><ele>57.82</ele><time>2010-10-11T10:01:29Z</time></trkpt><trkpt lat="45.682599" lon="0.178853"><ele>57.34</ele><time>2010-10-11T10:01:30Z</time></trkpt><trkpt lat="45.682922" lon="0.179250"><ele>55.41</ele><time>2010-10-11T10:01:35Z</time></trkpt><trkpt lat="45.682979" lon="0.179320"><ele>54.93</ele><time>2010-10-11T10:01:36Z</time></trkpt><trkpt lat="45.683020" lon="0.179397"><ele>53.97</ele><time>2010-10-11T10:01:37Z</time></trkpt><trkpt lat="45.683048" lon="0.179467"><ele>53.49</ele><time>2010-10-11T10:01:38Z</time></trkpt><trkpt lat="45.683073" lon="0.179530"><ele>53.01</ele><time>2010-10-11T10:01:39Z</time></trkpt><trkpt lat="45.683041" lon="0.179729"><ele>50.61</ele><time>2010-10-11T10:01:44Z</time></trkpt><trkpt lat="45.683025" lon="0.179753"><ele>49.65</ele><time>2010-10-11T10:01:45Z</time></trkpt><trkpt lat="45.683006" lon="0.179783"><ele>49.65</ele><time>2010-10-11T10:01:46Z</time></trkpt><trkpt lat="45.682955" lon="0.179874"><ele>49.16</ele><time>2010-10-11T10:01:47Z</time></trkpt><trkpt lat="45.682961" lon="0.179961"><ele>48.68</ele><time>2010-10-11T10:01:48Z</time></trkpt><trkpt lat="45.682981" lon="0.180022"><ele>48.68</ele><time>2010-10-11T10:01:49Z</time></trkpt><trkpt lat="45.683042" lon="0.180073"><ele>48.68</ele><time>2010-10-11T10:01:50Z</time></trkpt><trkpt lat="45.683127" lon="0.180114"><ele>48.20</ele><time>2010-10-11T10:01:51Z</time></trkpt><trkpt lat="45.683127" lon="0.180181"><ele>48.20</ele><time>2010-10-11T10:01:52Z</time></trkpt><trkpt lat="45.683127" lon="0.180267"><ele>48.20</ele><time>2010-10-11T10:01:53Z</time></trkpt><trkpt lat="45.683127" lon="0.180365"><ele>47.72</ele><time>2010-10-11T10:01:54Z</time></trkpt><trkpt lat="45.683127" lon="0.180475"><ele>47.24</ele><time>2010-10-11T10:01:55Z</time></trkpt><trkpt lat="45.683100" lon="0.180602"><ele>46.76</ele><time>2010-10-11T10:01:56Z</time></trkpt><trkpt lat="45.682973" lon="0.181081"><ele>43.40</ele><time>2010-10-11T10:02:03Z</time></trkpt><trkpt lat="45.682965" lon="0.181108"><ele>42.92</ele><time>2010-10-11T10:02:09Z</time></trkpt><trkpt lat="45.683031" lon="0.181202"><ele>42.92</ele><time>2010-10-11T10:02:10Z</time></trkpt><trkpt lat="45.683096" lon="0.181250"><ele>42.92</ele><time>2010-10-11T10:02:11Z</time></trkpt><trkpt lat="45.683802" lon="0.181775"><ele>42.92</ele><time>2010-10-11T10:02:17Z</time></trkpt><trkpt lat="45.685007" lon="0.182811"><ele>43.40</ele><time>2010-10-11T10:02:27Z</time></trkpt><trkpt lat="45.685316" lon="0.183120"><ele>43.40</ele><time>2010-10-11T10:02:33Z</time></trkpt><trkpt lat="45.685316" lon="0.183159"><ele>43.40</ele><time>2010-10-11T10:02:42Z</time></trkpt><trkpt lat="45.685316" lon="0.183224"><ele>43.40</ele><time>2010-10-11T10:02:43Z</time></trkpt><trkpt lat="45.685339" lon="0.183315"><ele>43.40</ele><time>2010-10-11T10:02:44Z</time></trkpt><trkpt lat="45.685411" lon="0.183321"><ele>43.40</ele><time>2010-10-11T10:02:45Z</time></trkpt><trkpt lat="45.685461" lon="0.183309"><ele>43.40</ele><time>2010-10-11T10:02:46Z</time></trkpt><trkpt lat="45.685540" lon="0.183302"><ele>43.40</ele><time>2010-10-11T10:02:47Z</time></trkpt><trkpt lat="45.685591" lon="0.183352"><ele>43.40</ele><time>2010-10-11T10:02:48Z</time></trkpt><trkpt lat="45.685650" lon="0.183411"><ele>43.88</ele><time>2010-10-11T10:02:49Z</time></trkpt><trkpt lat="45.686413" lon="0.184202"><ele>43.88</ele><time>2010-10-11T10:02:58Z</time></trkpt><trkpt lat="45.686857" lon="0.184914"><ele>44.36</ele><time>2010-10-11T10:03:04Z</time></trkpt><trkpt lat="45.686888" lon="0.185046"><ele>44.36</ele><time>2010-10-11T10:03:05Z</time></trkpt><trkpt lat="45.686915" lon="0.185168"><ele>44.36</ele><time>2010-10-11T10:03:06Z</time></trkpt><trkpt lat="45.686940" lon="0.185281"><ele>44.36</ele><time>2010-10-11T10:03:07Z</time></trkpt><trkpt lat="45.686946" lon="0.185394"><ele>44.36</ele><time>2010-10-11T10:03:08Z</time></trkpt><trkpt lat="45.686946" lon="0.185523"><ele>44.36</ele><time>2010-10-11T10:03:09Z</time></trkpt><trkpt lat="45.686946" lon="0.185523"><ele>44.36</ele><time>2010-10-11T10:03:10Z</time></trkpt><trkpt lat="45.686821" lon="0.185837"><ele>44.84</ele><time>2010-10-11T10:03:12Z</time></trkpt><trkpt lat="45.686750" lon="0.185922"><ele>44.84</ele><time>2010-10-11T10:03:13Z</time></trkpt><trkpt lat="45.686674" lon="0.186004"><ele>44.84</ele><time>2010-10-11T10:03:14Z</time></trkpt><trkpt lat="45.686674" lon="0.186004"><ele>44.84</ele><time>2010-10-11T10:03:15Z</time></trkpt><trkpt lat="45.686463" lon="0.186136"><ele>44.36</ele><time>2010-10-11T10:03:16Z</time></trkpt><trkpt lat="45.686343" lon="0.186210"><ele>44.36</ele><time>2010-10-11T10:03:17Z</time></trkpt><trkpt lat="45.686207" lon="0.186233"><ele>43.88</ele><time>2010-10-11T10:03:18Z</time></trkpt><trkpt lat="45.684867" lon="0.186453"><ele>44.36</ele><time>2010-10-11T10:03:26Z</time></trkpt><trkpt lat="45.682620" lon="0.186822"><ele>48.68</ele><time>2010-10-11T10:03:37Z</time></trkpt><trkpt lat="45.679820" lon="0.187283"><ele>46.76</ele><time>2010-10-11T10:03:52Z</time></trkpt><trkpt lat="45.678525" lon="0.187470"><ele>40.99</ele><time>2010-10-11T10:04:01Z</time></trkpt><trkpt lat="45.678365" lon="0.187497"><ele>39.55</ele><time>2010-10-11T10:04:05Z</time></trkpt><trkpt lat="45.678320" lon="0.187476"><ele>39.55</ele><time>2010-10-11T10:04:06Z</time></trkpt><trkpt lat="45.678253" lon="0.187442"><ele>39.07</ele><time>2010-10-11T10:04:07Z</time></trkpt><trkpt lat="45.678153" lon="0.187449"><ele>39.07</ele><time>2010-10-11T10:04:08Z</time></trkpt><trkpt lat="45.678094" lon="0.187509"><ele>39.07</ele><time>2010-10-11T10:04:09Z</time></trkpt><trkpt lat="45.678019" lon="0.187583"><ele>39.07</ele><time>2010-10-11T10:04:10Z</time></trkpt><trkpt lat="45.677936" lon="0.187593"><ele>38.59</ele><time>2010-10-11T10:04:11Z</time></trkpt><trkpt lat="45.677846" lon="0.187603"><ele>38.59</ele><time>2010-10-11T10:04:12Z</time></trkpt><trkpt lat="45.677746" lon="0.187615"><ele>38.11</ele><time>2010-10-11T10:04:13Z</time></trkpt><trkpt lat="45.676782" lon="0.187796"><ele>37.15</ele><time>2010-10-11T10:04:20Z</time></trkpt><trkpt lat="45.675042" lon="0.187842"><ele>41.47</ele><time>2010-10-11T10:04:31Z</time></trkpt><trkpt lat="45.673446" lon="0.187462"><ele>48.20</ele><time>2010-10-11T10:04:43Z</time></trkpt><trkpt lat="45.673142" lon="0.187392"><ele>48.68</ele><time>2010-10-11T10:04:48Z</time></trkpt><trkpt lat="45.673019" lon="0.187345"><ele>49.16</ele><time>2010-10-11T10:04:49Z</time></trkpt><trkpt lat="45.672899" lon="0.187236"><ele>49.16</ele><time>2010-10-11T10:04:51Z</time></trkpt><trkpt lat="45.672741" lon="0.187197"><ele>49.16</ele><time>2010-10-11T10:04:52Z</time></trkpt><trkpt lat="45.672731" lon="0.187207"><ele>49.16</ele><time>2010-10-11T10:04:53Z</time></trkpt><trkpt lat="45.672699" lon="0.187240"><ele>49.65</ele><time>2010-10-11T10:04:54Z</time></trkpt><trkpt lat="45.672604" lon="0.187334"><ele>49.65</ele><time>2010-10-11T10:04:55Z</time></trkpt><trkpt lat="45.672544" lon="0.187394"><ele>49.65</ele><time>2010-10-11T10:04:56Z</time></trkpt><trkpt lat="45.672515" lon="0.187492"><ele>49.65</ele><time>2010-10-11T10:04:57Z</time></trkpt><trkpt lat="45.672499" lon="0.187605"><ele>49.65</ele><time>2010-10-11T10:04:58Z</time></trkpt><trkpt lat="45.672501" lon="0.187747"><ele>49.65</ele><time>2010-10-11T10:04:59Z</time></trkpt><trkpt lat="45.672545" lon="0.187834"><ele>49.65</ele><time>2010-10-11T10:05:00Z</time></trkpt><trkpt lat="45.672583" lon="0.187910"><ele>49.65</ele><time>2010-10-11T10:05:01Z</time></trkpt><trkpt lat="45.672622" lon="0.187972"><ele>49.65</ele><time>2010-10-11T10:05:02Z</time></trkpt><trkpt lat="45.672666" lon="0.187987"><ele>49.65</ele><time>2010-10-11T10:05:03Z</time></trkpt><trkpt lat="45.672666" lon="0.187987"><ele>49.16</ele><time>2010-10-11T10:05:04Z</time></trkpt><trkpt lat="45.672786" lon="0.188101"><ele>48.68</ele><time>2010-10-11T10:05:05Z</time></trkpt><trkpt lat="45.672833" lon="0.188196"><ele>48.68</ele><time>2010-10-11T10:05:06Z</time></trkpt><trkpt lat="45.672888" lon="0.188305"><ele>48.20</ele><time>2010-10-11T10:05:07Z</time></trkpt><trkpt lat="45.673199" lon="0.189832"><ele>46.76</ele><time>2010-10-11T10:05:15Z</time></trkpt><trkpt lat="45.673453" lon="0.192398"><ele>48.20</ele><time>2010-10-11T10:05:25Z</time></trkpt><trkpt lat="45.673459" lon="0.195629"><ele>53.01</ele><time>2010-10-11T10:05:37Z</time></trkpt><trkpt lat="45.673264" lon="0.200061"><ele>60.22</ele><time>2010-10-11T10:05:52Z</time></trkpt><trkpt lat="45.673058" lon="0.204727"><ele>68.39</ele><time>2010-10-11T10:06:07Z</time></trkpt><trkpt lat="45.672845" lon="0.206963"><ele>73.20</ele><time>2010-10-11T10:06:16Z</time></trkpt><trkpt lat="45.672721" lon="0.207357"><ele>74.16</ele><time>2010-10-11T10:06:18Z</time></trkpt><trkpt lat="45.672632" lon="0.207506"><ele>74.64</ele><time>2010-10-11T10:06:19Z</time></trkpt><trkpt lat="45.672552" lon="0.207639"><ele>74.64</ele><time>2010-10-11T10:06:20Z</time></trkpt><trkpt lat="45.672484" lon="0.207753"><ele>75.12</ele><time>2010-10-11T10:06:21Z</time></trkpt><trkpt lat="45.672407" lon="0.207830"><ele>75.12</ele><time>2010-10-11T10:06:22Z</time></trkpt><trkpt lat="45.672335" lon="0.207902"><ele>75.60</ele><time>2010-10-11T10:06:23Z</time></trkpt><trkpt lat="45.671909" lon="0.208220"><ele>78.00</ele><time>2010-10-11T10:06:31Z</time></trkpt><trkpt lat="45.671809" lon="0.208237"><ele>78.97</ele><time>2010-10-11T10:06:35Z</time></trkpt><trkpt lat="45.671754" lon="0.208217"><ele>78.97</ele><time>2010-10-11T10:06:36Z</time></trkpt><trkpt lat="45.671686" lon="0.208203"><ele>79.45</ele><time>2010-10-11T10:06:37Z</time></trkpt><trkpt lat="45.671608" lon="0.208188"><ele>79.45</ele><time>2010-10-11T10:06:38Z</time></trkpt><trkpt lat="45.671523" lon="0.208202"><ele>79.45</ele><time>2010-10-11T10:06:39Z</time></trkpt><trkpt lat="45.671441" lon="0.208243"><ele>79.93</ele><time>2010-10-11T10:06:40Z</time></trkpt><trkpt lat="45.671392" lon="0.208308"><ele>79.93</ele><time>2010-10-11T10:06:41Z</time></trkpt><trkpt lat="45.671392" lon="0.208308"><ele>79.93</ele><time>2010-10-11T10:06:42Z</time></trkpt><trkpt lat="45.671216" lon="0.208309"><ele>79.93</ele><time>2010-10-11T10:06:43Z</time></trkpt><trkpt lat="45.671144" lon="0.208251"><ele>79.45</ele><time>2010-10-11T10:06:44Z</time></trkpt><trkpt lat="45.671061" lon="0.208185"><ele>79.45</ele><time>2010-10-11T10:06:45Z</time></trkpt><trkpt lat="45.670206" lon="0.207416"><ele>76.56</ele><time>2010-10-11T10:06:53Z</time></trkpt><trkpt lat="45.669898" lon="0.207132"><ele>73.20</ele><time>2010-10-11T10:06:59Z</time></trkpt><trkpt lat="45.669601" lon="0.206846"><ele>70.79</ele><time>2010-10-11T10:07:05Z</time></trkpt><trkpt lat="45.668605" lon="0.205948"><ele>63.58</ele><time>2010-10-11T10:07:17Z</time></trkpt><trkpt lat="45.667298" lon="0.204738"><ele>58.78</ele><time>2010-10-11T10:07:30Z</time></trkpt><trkpt lat="45.666129" lon="0.203689"><ele>54.93</ele><time>2010-10-11T10:07:43Z</time></trkpt><trkpt lat="45.665875" lon="0.203461"><ele>53.97</ele><time>2010-10-11T10:07:48Z</time></trkpt><trkpt lat="45.665875" lon="0.203420"><ele>53.49</ele><time>2010-10-11T10:07:49Z</time></trkpt><trkpt lat="45.665875" lon="0.203374"><ele>53.49</ele><time>2010-10-11T10:07:50Z</time></trkpt><trkpt lat="45.665841" lon="0.203204"><ele>53.01</ele><time>2010-10-11T10:07:52Z</time></trkpt><trkpt lat="45.665801" lon="0.203204"><ele>53.01</ele><time>2010-10-11T10:07:53Z</time></trkpt><trkpt lat="45.665762" lon="0.203204"><ele>53.01</ele><time>2010-10-11T10:07:54Z</time></trkpt><trkpt lat="45.665703" lon="0.203313"><ele>53.01</ele><time>2010-10-11T10:07:55Z</time></trkpt><trkpt lat="45.665703" lon="0.203313"><ele>53.01</ele><time>2010-10-11T10:07:56Z</time></trkpt><trkpt lat="45.665703" lon="0.203491"><ele>53.01</ele><time>2010-10-11T10:07:57Z</time></trkpt><trkpt lat="45.665688" lon="0.204040"><ele>53.01</ele><time>2010-10-11T10:08:01Z</time></trkpt><trkpt lat="45.665496" lon="0.206121"><ele>53.97</ele><time>2010-10-11T10:08:13Z</time></trkpt><trkpt lat="45.665099" lon="0.207615"><ele>55.41</ele><time>2010-10-11T10:08:22Z</time></trkpt><trkpt lat="45.664401" lon="0.209773"><ele>58.78</ele><time>2010-10-11T10:08:35Z</time></trkpt><trkpt lat="45.663624" lon="0.212130"><ele>62.62</ele><time>2010-10-11T10:08:49Z</time></trkpt><trkpt lat="45.663120" lon="0.214420"><ele>68.87</ele><time>2010-10-11T10:09:01Z</time></trkpt><trkpt lat="45.662354" lon="0.217760"><ele>78.97</ele><time>2010-10-11T10:09:19Z</time></trkpt><trkpt lat="45.661842" lon="0.219476"><ele>83.29</ele><time>2010-10-11T10:09:29Z</time></trkpt><trkpt lat="45.660920" lon="0.221836"><ele>86.18</ele><time>2010-10-11T10:09:42Z</time></trkpt><trkpt lat="45.660204" lon="0.223551"><ele>85.21</ele><time>2010-10-11T10:09:53Z</time></trkpt><trkpt lat="45.659968" lon="0.224030"><ele>83.77</ele><time>2010-10-11T10:09:57Z</time></trkpt><trkpt lat="45.659928" lon="0.224018"><ele>83.77</ele><time>2010-10-11T10:09:58Z</time></trkpt><trkpt lat="45.659851" lon="0.224018"><ele>83.77</ele><time>2010-10-11T10:09:59Z</time></trkpt><trkpt lat="45.659760" lon="0.224039"><ele>83.29</ele><time>2010-10-11T10:10:00Z</time></trkpt><trkpt lat="45.659687" lon="0.224112"><ele>83.29</ele><time>2010-10-11T10:10:01Z</time></trkpt><trkpt lat="45.659615" lon="0.224184"><ele>83.29</ele><time>2010-10-11T10:10:02Z</time></trkpt><trkpt lat="45.659554" lon="0.224270"><ele>83.29</ele><time>2010-10-11T10:10:03Z</time></trkpt><trkpt lat="45.659524" lon="0.224389"><ele>82.81</ele><time>2010-10-11T10:10:04Z</time></trkpt><trkpt lat="45.659524" lon="0.224519"><ele>82.81</ele><time>2010-10-11T10:10:05Z</time></trkpt><trkpt lat="45.659524" lon="0.224653"><ele>82.33</ele><time>2010-10-11T10:10:06Z</time></trkpt><trkpt lat="45.659609" lon="0.224833"><ele>82.33</ele><time>2010-10-11T10:10:07Z</time></trkpt><trkpt lat="45.659589" lon="0.224920"><ele>82.33</ele><time>2010-10-11T10:10:08Z</time></trkpt><trkpt lat="45.659561" lon="0.225037"><ele>81.85</ele><time>2010-10-11T10:10:09Z</time></trkpt><trkpt lat="45.659530" lon="0.225170"><ele>81.85</ele><time>2010-10-11T10:10:10Z</time></trkpt><trkpt lat="45.659496" lon="0.225315"><ele>81.85</ele><time>2010-10-11T10:10:11Z</time></trkpt><trkpt lat="45.659309" lon="0.226630"><ele>82.33</ele><time>2010-10-11T10:10:18Z</time></trkpt><trkpt lat="45.659309" lon="0.228551"><ele>81.37</ele><time>2010-10-11T10:10:28Z</time></trkpt><trkpt lat="45.659317" lon="0.228691"><ele>81.37</ele><time>2010-10-11T10:10:29Z</time></trkpt><trkpt lat="45.659331" lon="0.228832"><ele>80.89</ele><time>2010-10-11T10:10:30Z</time></trkpt><trkpt lat="45.659331" lon="0.228832"><ele>80.89</ele><time>2010-10-11T10:10:31Z</time></trkpt><trkpt lat="45.659328" lon="0.229110"><ele>80.89</ele><time>2010-10-11T10:10:32Z</time></trkpt><trkpt lat="45.659295" lon="0.229223"><ele>80.89</ele><time>2010-10-11T10:10:33Z</time></trkpt><trkpt lat="45.659266" lon="0.229353"><ele>80.89</ele><time>2010-10-11T10:10:34Z</time></trkpt><trkpt lat="45.659260" lon="0.229503"><ele>80.41</ele><time>2010-10-11T10:10:35Z</time></trkpt><trkpt lat="45.659223" lon="0.231268"><ele>79.93</ele><time>2010-10-11T10:10:44Z</time></trkpt><trkpt lat="45.658917" lon="0.233507"><ele>80.89</ele><time>2010-10-11T10:10:55Z</time></trkpt><trkpt lat="45.658623" lon="0.236362"><ele>81.37</ele><time>2010-10-11T10:11:09Z</time></trkpt><trkpt lat="45.658649" lon="0.239982"><ele>79.45</ele><time>2010-10-11T10:11:27Z</time></trkpt><trkpt lat="45.658697" lon="0.242522"><ele>73.20</ele><time>2010-10-11T10:11:40Z</time></trkpt><trkpt lat="45.658759" lon="0.242959"><ele>71.27</ele><time>2010-10-11T10:11:43Z</time></trkpt><trkpt lat="45.658898" lon="0.243374"><ele>69.35</ele><time>2010-10-11T10:11:47Z</time></trkpt><trkpt lat="45.658945" lon="0.243453"><ele>68.87</ele><time>2010-10-11T10:11:48Z</time></trkpt><trkpt lat="45.658998" lon="0.243541"><ele>67.91</ele><time>2010-10-11T10:11:49Z</time></trkpt><trkpt lat="45.659245" lon="0.243952"><ele>65.51</ele><time>2010-10-11T10:11:53Z</time></trkpt><trkpt lat="45.659312" lon="0.244088"><ele>65.03</ele><time>2010-10-11T10:11:54Z</time></trkpt><trkpt lat="45.659325" lon="0.244200"><ele>64.55</ele><time>2010-10-11T10:11:55Z</time></trkpt><trkpt lat="45.659335" lon="0.244295"><ele>64.07</ele><time>2010-10-11T10:11:56Z</time></trkpt><trkpt lat="45.659343" lon="0.244366"><ele>63.10</ele><time>2010-10-11T10:11:57Z</time></trkpt><trkpt lat="45.659343" lon="0.244366"><ele>62.62</ele><time>2010-10-11T10:11:58Z</time></trkpt><trkpt lat="45.659326" lon="0.244483"><ele>62.14</ele><time>2010-10-11T10:11:59Z</time></trkpt><trkpt lat="45.659315" lon="0.244498"><ele>61.66</ele><time>2010-10-11T10:12:00Z</time></trkpt><trkpt lat="45.659305" lon="0.244512"><ele>61.18</ele><time>2010-10-11T10:12:01Z</time></trkpt><trkpt lat="45.659292" lon="0.244530"><ele>60.70</ele><time>2010-10-11T10:12:02Z</time></trkpt><trkpt lat="45.659271" lon="0.244559"><ele>60.22</ele><time>2010-10-11T10:12:03Z</time></trkpt><trkpt lat="45.659240" lon="0.244603"><ele>59.74</ele><time>2010-10-11T10:12:04Z</time></trkpt><trkpt lat="45.658991" lon="0.244951"><ele>57.34</ele><time>2010-10-11T10:12:09Z</time></trkpt><trkpt lat="45.658891" lon="0.245206"><ele>56.86</ele><time>2010-10-11T10:12:11Z</time></trkpt><trkpt lat="45.658505" lon="0.247135"><ele>55.41</ele><time>2010-10-11T10:12:23Z</time></trkpt><trkpt lat="45.658037" lon="0.249508"><ele>54.93</ele><time>2010-10-11T10:12:37Z</time></trkpt><trkpt lat="45.657469" lon="0.252363"><ele>53.49</ele><time>2010-10-11T10:12:53Z</time></trkpt><trkpt lat="45.656863" lon="0.255498"><ele>53.49</ele><time>2010-10-11T10:13:08Z</time></trkpt><trkpt lat="45.656487" lon="0.257855"><ele>52.53</ele><time>2010-10-11T10:13:19Z</time></trkpt><trkpt lat="45.656477" lon="0.258043"><ele>52.53</ele><time>2010-10-11T10:13:20Z</time></trkpt><trkpt lat="45.656489" lon="0.258222"><ele>52.53</ele><time>2010-10-11T10:13:21Z</time></trkpt><trkpt lat="45.656647" lon="0.259803"><ele>52.05</ele><time>2010-10-11T10:13:31Z</time></trkpt><trkpt lat="45.656689" lon="0.259945"><ele>52.05</ele><time>2010-10-11T10:13:32Z</time></trkpt><trkpt lat="45.656675" lon="0.260002"><ele>52.05</ele><time>2010-10-11T10:13:33Z</time></trkpt><trkpt lat="45.656660" lon="0.260062"><ele>51.57</ele><time>2010-10-11T10:13:34Z</time></trkpt><trkpt lat="45.656650" lon="0.260116"><ele>51.57</ele><time>2010-10-11T10:13:35Z</time></trkpt><trkpt lat="45.656679" lon="0.260298"><ele>51.09</ele><time>2010-10-11T10:13:36Z</time></trkpt><trkpt lat="45.656629" lon="0.260364"><ele>51.09</ele><time>2010-10-11T10:13:37Z</time></trkpt><trkpt lat="45.656564" lon="0.260451"><ele>51.09</ele><time>2010-10-11T10:13:38Z</time></trkpt><trkpt lat="45.656489" lon="0.260551"><ele>51.09</ele><time>2010-10-11T10:13:39Z</time></trkpt><trkpt lat="45.655807" lon="0.261460"><ele>52.05</ele><time>2010-10-11T10:13:46Z</time></trkpt><trkpt lat="45.655703" lon="0.261599"><ele>52.05</ele><time>2010-10-11T10:13:47Z</time></trkpt><trkpt lat="45.655618" lon="0.261757"><ele>52.05</ele><time>2010-10-11T10:13:48Z</time></trkpt><trkpt lat="45.655542" lon="0.261941"><ele>52.05</ele><time>2010-10-11T10:13:49Z</time></trkpt><trkpt lat="45.655447" lon="0.262170"><ele>52.53</ele><time>2010-10-11T10:13:50Z</time></trkpt><trkpt lat="45.654977" lon="0.263460"><ele>53.97</ele><time>2010-10-11T10:13:57Z</time></trkpt><trkpt lat="45.654882" lon="0.263609"><ele>54.45</ele><time>2010-10-11T10:13:58Z</time></trkpt><trkpt lat="45.654791" lon="0.263752"><ele>54.93</ele><time>2010-10-11T10:13:59Z</time></trkpt><trkpt lat="45.654675" lon="0.263839"><ele>55.41</ele><time>2010-10-11T10:14:00Z</time></trkpt><trkpt lat="45.654548" lon="0.263897"><ele>55.89</ele><time>2010-10-11T10:14:01Z</time></trkpt><trkpt lat="45.654418" lon="0.263956"><ele>56.37</ele><time>2010-10-11T10:14:02Z</time></trkpt><trkpt lat="45.654288" lon="0.264015"><ele>56.86</ele><time>2010-10-11T10:14:03Z</time></trkpt><trkpt lat="45.654150" lon="0.264057"><ele>57.34</ele><time>2010-10-11T10:14:04Z</time></trkpt><trkpt lat="45.652314" lon="0.264616"><ele>59.26</ele><time>2010-10-11T10:14:16Z</time></trkpt><trkpt lat="45.651935" lon="0.264935"><ele>59.74</ele><time>2010-10-11T10:14:19Z</time></trkpt><trkpt lat="45.651808" lon="0.265042"><ele>59.74</ele><time>2010-10-11T10:14:20Z</time></trkpt><trkpt lat="45.651375" lon="0.265352"><ele>59.26</ele><time>2010-10-11T10:14:24Z</time></trkpt><trkpt lat="45.651289" lon="0.265386"><ele>59.26</ele><time>2010-10-11T10:14:25Z</time></trkpt><trkpt lat="45.651216" lon="0.265388"><ele>59.26</ele><time>2010-10-11T10:14:26Z</time></trkpt><trkpt lat="45.651135" lon="0.265388"><ele>58.78</ele><time>2010-10-11T10:14:27Z</time></trkpt><trkpt lat="45.651048" lon="0.265374"><ele>58.78</ele><time>2010-10-11T10:14:28Z</time></trkpt><trkpt lat="45.650960" lon="0.265316"><ele>58.78</ele><time>2010-10-11T10:14:29Z</time></trkpt><trkpt lat="45.650867" lon="0.265254"><ele>58.78</ele><time>2010-10-11T10:14:30Z</time></trkpt><trkpt lat="45.650784" lon="0.265175"><ele>58.78</ele><time>2010-10-11T10:14:31Z</time></trkpt><trkpt lat="45.650713" lon="0.265064"><ele>58.78</ele><time>2010-10-11T10:14:32Z</time></trkpt><trkpt lat="45.650645" lon="0.264935"><ele>58.78</ele><time>2010-10-11T10:14:33Z</time></trkpt><trkpt lat="45.650572" lon="0.264796"><ele>58.78</ele><time>2010-10-11T10:14:34Z</time></trkpt><trkpt lat="45.650494" lon="0.264650"><ele>59.26</ele><time>2010-10-11T10:14:35Z</time></trkpt><trkpt lat="45.649999" lon="0.263712"><ele>60.70</ele><time>2010-10-11T10:14:42Z</time></trkpt><trkpt lat="45.649855" lon="0.263513"><ele>60.70</ele><time>2010-10-11T10:14:44Z</time></trkpt><trkpt lat="45.649752" lon="0.263455"><ele>60.70</ele><time>2010-10-11T10:14:45Z</time></trkpt><trkpt lat="45.649642" lon="0.263395"><ele>60.70</ele><time>2010-10-11T10:14:46Z</time></trkpt><trkpt lat="45.649529" lon="0.263332"><ele>60.70</ele><time>2010-10-11T10:14:47Z</time></trkpt><trkpt lat="45.649418" lon="0.263271"><ele>61.18</ele><time>2010-10-11T10:14:48Z</time></trkpt><trkpt lat="45.648418" lon="0.262720"><ele>65.51</ele><time>2010-10-11T10:14:57Z</time></trkpt><trkpt lat="45.646884" lon="0.261885"><ele>69.35</ele><time>2010-10-11T10:15:08Z</time></trkpt><trkpt lat="45.644715" lon="0.260737"><ele>72.72</ele><time>2010-10-11T10:15:22Z</time></trkpt><trkpt lat="45.641654" lon="0.259116"><ele>88.10</ele><time>2010-10-11T10:15:42Z</time></trkpt><trkpt lat="45.638990" lon="0.257730"><ele>88.58</ele><time>2010-10-11T10:15:57Z</time></trkpt><trkpt lat="45.636976" lon="0.256406"><ele>90.98</ele><time>2010-10-11T10:16:09Z</time></trkpt><trkpt lat="45.635834" lon="0.255512"><ele>92.90</ele><time>2010-10-11T10:16:17Z</time></trkpt><trkpt lat="45.633953" lon="0.254041"><ele>99.63</ele><time>2010-10-11T10:16:29Z</time></trkpt><trkpt lat="45.632365" lon="0.252801"><ele>107.81</ele><time>2010-10-11T10:16:40Z</time></trkpt><trkpt lat="45.631609" lon="0.251737"><ele>113.09</ele><time>2010-10-11T10:16:48Z</time></trkpt><trkpt lat="45.630524" lon="0.249715"><ele>121.74</ele><time>2010-10-11T10:17:01Z</time></trkpt><trkpt lat="45.630352" lon="0.249437"><ele>122.71</ele><time>2010-10-11T10:17:03Z</time></trkpt><trkpt lat="45.630262" lon="0.249291"><ele>122.71</ele><time>2010-10-11T10:17:04Z</time></trkpt><trkpt lat="45.630154" lon="0.249163"><ele>123.19</ele><time>2010-10-11T10:17:05Z</time></trkpt><trkpt lat="45.630026" lon="0.249060"><ele>123.19</ele><time>2010-10-11T10:17:06Z</time></trkpt><trkpt lat="45.629884" lon="0.248985"><ele>123.67</ele><time>2010-10-11T10:17:07Z</time></trkpt><trkpt lat="45.629738" lon="0.248916"><ele>123.67</ele><time>2010-10-11T10:17:08Z</time></trkpt><trkpt lat="45.627508" lon="0.247857"><ele>128.95</ele><time>2010-10-11T10:17:22Z</time></trkpt><trkpt lat="45.626135" lon="0.247364"><ele>137.13</ele><time>2010-10-11T10:17:32Z</time></trkpt><trkpt lat="45.624902" lon="0.246851"><ele>143.37</ele><time>2010-10-11T10:17:39Z</time></trkpt><trkpt lat="45.624740" lon="0.246511"><ele>145.78</ele><time>2010-10-11T10:17:43Z</time></trkpt><trkpt lat="45.624708" lon="0.246444"><ele>145.78</ele><time>2010-10-11T10:17:44Z</time></trkpt><trkpt lat="45.624679" lon="0.246383"><ele>146.26</ele><time>2010-10-11T10:17:45Z</time></trkpt><trkpt lat="45.624676" lon="0.246340"><ele>146.26</ele><time>2010-10-11T10:17:46Z</time></trkpt><trkpt lat="45.624676" lon="0.246286"><ele>146.74</ele><time>2010-10-11T10:17:47Z</time></trkpt><trkpt lat="45.624574" lon="0.246120"><ele>146.74</ele><time>2010-10-11T10:17:48Z</time></trkpt><trkpt lat="45.624528" lon="0.246120"><ele>147.22</ele><time>2010-10-11T10:17:49Z</time></trkpt><trkpt lat="45.624447" lon="0.246135"><ele>147.22</ele><time>2010-10-11T10:17:50Z</time></trkpt><trkpt lat="45.624419" lon="0.246213"><ele>147.22</ele><time>2010-10-11T10:17:51Z</time></trkpt><trkpt lat="45.624419" lon="0.246282"><ele>146.74</ele><time>2010-10-11T10:17:52Z</time></trkpt><trkpt lat="45.624433" lon="0.246346"><ele>146.74</ele><time>2010-10-11T10:17:53Z</time></trkpt><trkpt lat="45.624433" lon="0.246346"><ele>146.26</ele><time>2010-10-11T10:17:54Z</time></trkpt><trkpt lat="45.624420" lon="0.246636"><ele>145.78</ele><time>2010-10-11T10:17:55Z</time></trkpt><trkpt lat="45.624389" lon="0.246764"><ele>145.30</ele><time>2010-10-11T10:17:56Z</time></trkpt><trkpt lat="45.624353" lon="0.246910"><ele>144.82</ele><time>2010-10-11T10:17:57Z</time></trkpt><trkpt lat="45.624314" lon="0.247073"><ele>144.34</ele><time>2010-10-11T10:17:58Z</time></trkpt><trkpt lat="45.623810" lon="0.248737"><ele>140.49</ele><time>2010-10-11T10:18:07Z</time></trkpt><trkpt lat="45.622932" lon="0.250673"><ele>140.97</ele><time>2010-10-11T10:18:19Z</time></trkpt><trkpt lat="45.621602" lon="0.252335"><ele>143.85</ele><time>2010-10-11T10:18:31Z</time></trkpt><trkpt lat="45.620642" lon="0.253458"><ele>145.78</ele><time>2010-10-11T10:18:40Z</time></trkpt><trkpt lat="45.620602" lon="0.253438"><ele>145.78</ele><time>2010-10-11T10:18:41Z</time></trkpt><trkpt lat="45.620462" lon="0.253433"><ele>145.78</ele><time>2010-10-11T10:18:42Z</time></trkpt><trkpt lat="45.620428" lon="0.253567"><ele>145.78</ele><time>2010-10-11T10:18:43Z</time></trkpt><trkpt lat="45.620428" lon="0.253716"><ele>146.26</ele><time>2010-10-11T10:18:44Z</time></trkpt><trkpt lat="45.620377" lon="0.253770"><ele>146.26</ele><time>2010-10-11T10:18:45Z</time></trkpt><trkpt lat="45.619682" lon="0.254567"><ele>147.70</ele><time>2010-10-11T10:18:52Z</time></trkpt><trkpt lat="45.618508" lon="0.255892"><ele>148.18</ele><time>2010-10-11T10:19:00Z</time></trkpt><trkpt lat="45.616627" lon="0.258090"><ele>149.62</ele><time>2010-10-11T10:19:12Z</time></trkpt><trkpt lat="45.614216" lon="0.260868"><ele>143.37</ele><time>2010-10-11T10:19:28Z</time></trkpt><trkpt lat="45.612126" lon="0.263301"><ele>147.70</ele><time>2010-10-11T10:19:42Z</time></trkpt><trkpt lat="45.610128" lon="0.265603"><ele>141.45</ele><time>2010-10-11T10:19:56Z</time></trkpt><trkpt lat="45.609439" lon="0.266259"><ele>140.01</ele><time>2010-10-11T10:20:01Z</time></trkpt><trkpt lat="45.609293" lon="0.266351"><ele>140.01</ele><time>2010-10-11T10:20:02Z</time></trkpt><trkpt lat="45.609144" lon="0.266431"><ele>139.53</ele><time>2010-10-11T10:20:03Z</time></trkpt><trkpt lat="45.608987" lon="0.266478"><ele>139.05</ele><time>2010-10-11T10:20:04Z</time></trkpt><trkpt lat="45.608828" lon="0.266525"><ele>138.57</ele><time>2010-10-11T10:20:05Z</time></trkpt><trkpt lat="45.606538" lon="0.267040"><ele>137.61</ele><time>2010-10-11T10:20:19Z</time></trkpt><trkpt lat="45.604456" lon="0.267501"><ele>134.72</ele><time>2010-10-11T10:20:29Z</time></trkpt><trkpt lat="45.602479" lon="0.267935"><ele>136.16</ele><time>2010-10-11T10:20:38Z</time></trkpt><trkpt lat="45.600191" lon="0.268463"><ele>136.16</ele><time>2010-10-11T10:20:49Z</time></trkpt><trkpt lat="45.597928" lon="0.268951"><ele>133.28</ele><time>2010-10-11T10:21:01Z</time></trkpt><trkpt lat="45.595687" lon="0.269460"><ele>130.88</ele><time>2010-10-11T10:21:13Z</time></trkpt><trkpt lat="45.593559" lon="0.270186"><ele>139.53</ele><time>2010-10-11T10:21:24Z</time></trkpt><trkpt lat="45.590112" lon="0.271546"><ele>149.14</ele><time>2010-10-11T10:21:40Z</time></trkpt><trkpt lat="45.587633" lon="0.272565"><ele>143.37</ele><time>2010-10-11T10:21:52Z</time></trkpt><trkpt lat="45.585381" lon="0.273490"><ele>152.51</ele><time>2010-10-11T10:22:03Z</time></trkpt><trkpt lat="45.582910" lon="0.274505"><ele>164.04</ele><time>2010-10-11T10:22:15Z</time></trkpt><trkpt lat="45.580843" lon="0.275354"><ele>171.25</ele><time>2010-10-11T10:22:24Z</time></trkpt><trkpt lat="45.578629" lon="0.276264"><ele>179.42</ele><time>2010-10-11T10:22:34Z</time></trkpt><trkpt lat="45.576245" lon="0.277121"><ele>178.94</ele><time>2010-10-11T10:22:45Z</time></trkpt><trkpt lat="45.574621" lon="0.276956"><ele>175.10</ele><time>2010-10-11T10:22:52Z</time></trkpt><trkpt lat="45.573112" lon="0.276043"><ele>168.85</ele><time>2010-10-11T10:22:59Z</time></trkpt><trkpt lat="45.572746" lon="0.275637"><ele>167.89</ele><time>2010-10-11T10:23:01Z</time></trkpt><trkpt lat="45.571302" lon="0.274035"><ele>168.37</ele><time>2010-10-11T10:23:09Z</time></trkpt><trkpt lat="45.570024" lon="0.273308"><ele>167.89</ele><time>2010-10-11T10:23:15Z</time></trkpt><trkpt lat="45.568658" lon="0.273185"><ele>169.33</ele><time>2010-10-11T10:23:21Z</time></trkpt><trkpt lat="45.565863" lon="0.273326"><ele>167.41</ele><time>2010-10-11T10:23:32Z</time></trkpt><trkpt lat="45.565148" lon="0.273504"><ele>165.48</ele><time>2010-10-11T10:23:35Z</time></trkpt><trkpt lat="45.562560" lon="0.274647"><ele>154.43</ele><time>2010-10-11T10:23:46Z</time></trkpt><trkpt lat="45.560010" lon="0.275760"><ele>151.54</ele><time>2010-10-11T10:23:57Z</time></trkpt><trkpt lat="45.558497" lon="0.276445"><ele>146.26</ele><time>2010-10-11T10:24:05Z</time></trkpt><trkpt lat="45.557180" lon="0.276941"><ele>144.82</ele><time>2010-10-11T10:24:14Z</time></trkpt><trkpt lat="45.557052" lon="0.276973"><ele>144.82</ele><time>2010-10-11T10:24:15Z</time></trkpt><trkpt lat="45.555823" lon="0.276906"><ele>145.78</ele><time>2010-10-11T10:24:25Z</time></trkpt><trkpt lat="45.554206" lon="0.276697"><ele>148.18</ele><time>2010-10-11T10:24:38Z</time></trkpt><trkpt lat="45.552870" lon="0.276240"><ele>150.58</ele><time>2010-10-11T10:24:48Z</time></trkpt><trkpt lat="45.551121" lon="0.275188"><ele>153.95</ele><time>2010-10-11T10:25:03Z</time></trkpt><trkpt lat="45.549749" lon="0.274293"><ele>158.75</ele><time>2010-10-11T10:25:13Z</time></trkpt><trkpt lat="45.547822" lon="0.273107"><ele>168.85</ele><time>2010-10-11T10:25:24Z</time></trkpt><trkpt lat="45.545624" lon="0.272078"><ele>183.27</ele><time>2010-10-11T10:25:36Z</time></trkpt><trkpt lat="45.544208" lon="0.272329"><ele>189.52</ele><time>2010-10-11T10:25:43Z</time></trkpt><trkpt lat="45.541876" lon="0.273037"><ele>196.73</ele><time>2010-10-11T10:25:53Z</time></trkpt><trkpt lat="45.539652" lon="0.273701"><ele>192.88</ele><time>2010-10-11T10:26:03Z</time></trkpt><trkpt lat="45.537348" lon="0.274395"><ele>189.04</ele><time>2010-10-11T10:26:14Z</time></trkpt><trkpt lat="45.535770" lon="0.275026"><ele>187.11</ele><time>2010-10-11T10:26:22Z</time></trkpt><trkpt lat="45.535412" lon="0.275300"><ele>187.59</ele><time>2010-10-11T10:26:24Z</time></trkpt><trkpt lat="45.535232" lon="0.275442"><ele>187.59</ele><time>2010-10-11T10:26:25Z</time></trkpt><trkpt lat="45.535074" lon="0.275643"><ele>187.59</ele><time>2010-10-11T10:26:26Z</time></trkpt><trkpt lat="45.534915" lon="0.275846"><ele>187.11</ele><time>2010-10-11T10:26:27Z</time></trkpt><trkpt lat="45.534757" lon="0.276056"><ele>187.11</ele><time>2010-10-11T10:26:28Z</time></trkpt><trkpt lat="45.534636" lon="0.276314"><ele>187.11</ele><time>2010-10-11T10:26:29Z</time></trkpt><trkpt lat="45.534510" lon="0.276580"><ele>187.11</ele><time>2010-10-11T10:26:30Z</time></trkpt><trkpt lat="45.534382" lon="0.276852"><ele>187.11</ele><time>2010-10-11T10:26:31Z</time></trkpt><trkpt lat="45.533071" lon="0.280014"><ele>180.38</ele><time>2010-10-11T10:26:41Z</time></trkpt><trkpt lat="45.531511" lon="0.283153"><ele>166.93</ele><time>2010-10-11T10:26:51Z</time></trkpt><trkpt lat="45.529865" lon="0.285228"><ele>156.83</ele><time>2010-10-11T10:26:59Z</time></trkpt><trkpt lat="45.529022" lon="0.286353"><ele>152.03</ele><time>2010-10-11T10:27:04Z</time></trkpt><trkpt lat="45.528900" lon="0.286590"><ele>151.54</ele><time>2010-10-11T10:27:05Z</time></trkpt><trkpt lat="45.528803" lon="0.286852"><ele>150.58</ele><time>2010-10-11T10:27:06Z</time></trkpt><trkpt lat="45.528708" lon="0.287112"><ele>149.62</ele><time>2010-10-11T10:27:07Z</time></trkpt><trkpt lat="45.528623" lon="0.287363"><ele>149.14</ele><time>2010-10-11T10:27:08Z</time></trkpt><trkpt lat="45.528564" lon="0.287649"><ele>148.18</ele><time>2010-10-11T10:27:09Z</time></trkpt><trkpt lat="45.528504" lon="0.287943"><ele>147.22</ele><time>2010-10-11T10:27:10Z</time></trkpt><trkpt lat="45.527860" lon="0.291517"><ele>141.45</ele><time>2010-10-11T10:27:21Z</time></trkpt><trkpt lat="45.527237" lon="0.294881"><ele>140.01</ele><time>2010-10-11T10:27:31Z</time></trkpt><trkpt lat="45.527138" lon="0.295166"><ele>140.01</ele><time>2010-10-11T10:27:32Z</time></trkpt><trkpt lat="45.527040" lon="0.295449"><ele>140.01</ele><time>2010-10-11T10:27:33Z</time></trkpt><trkpt lat="45.526937" lon="0.295726"><ele>140.01</ele><time>2010-10-11T10:27:34Z</time></trkpt><trkpt lat="45.526797" lon="0.295986"><ele>140.01</ele><time>2010-10-11T10:27:35Z</time></trkpt><trkpt lat="45.526655" lon="0.296248"><ele>140.01</ele><time>2010-10-11T10:27:36Z</time></trkpt><trkpt lat="45.526483" lon="0.296478"><ele>140.49</ele><time>2010-10-11T10:27:37Z</time></trkpt><trkpt lat="45.524216" lon="0.299543"><ele>140.49</ele><time>2010-10-11T10:27:49Z</time></trkpt><trkpt lat="45.522472" lon="0.301925"><ele>137.61</ele><time>2010-10-11T10:27:59Z</time></trkpt><trkpt lat="45.521606" lon="0.302917"><ele>132.80</ele><time>2010-10-11T10:28:05Z</time></trkpt><trkpt lat="45.521463" lon="0.302995"><ele>131.84</ele><time>2010-10-11T10:28:06Z</time></trkpt><trkpt lat="45.521321" lon="0.303072"><ele>130.88</ele><time>2010-10-11T10:28:07Z</time></trkpt><trkpt lat="45.521175" lon="0.303139"><ele>129.92</ele><time>2010-10-11T10:28:08Z</time></trkpt><trkpt lat="45.521022" lon="0.303197"><ele>129.43</ele><time>2010-10-11T10:28:09Z</time></trkpt><trkpt lat="45.519823" lon="0.303852"><ele>123.19</ele><time>2010-10-11T10:28:17Z</time></trkpt><trkpt lat="45.519700" lon="0.303979"><ele>122.22</ele><time>2010-10-11T10:28:18Z</time></trkpt><trkpt lat="45.519613" lon="0.304138"><ele>121.26</ele><time>2010-10-11T10:28:19Z</time></trkpt><trkpt lat="45.519528" lon="0.304294"><ele>120.78</ele><time>2010-10-11T10:28:20Z</time></trkpt><trkpt lat="45.519447" lon="0.304445"><ele>119.82</ele><time>2010-10-11T10:28:21Z</time></trkpt><trkpt lat="45.519391" lon="0.304619"><ele>119.34</ele><time>2010-10-11T10:28:22Z</time></trkpt><trkpt lat="45.518827" lon="0.306425"><ele>116.46</ele><time>2010-10-11T10:28:31Z</time></trkpt><trkpt lat="45.517966" lon="0.309387"><ele>119.34</ele><time>2010-10-11T10:28:44Z</time></trkpt><trkpt lat="45.517785" lon="0.309787"><ele>120.30</ele><time>2010-10-11T10:28:46Z</time></trkpt><trkpt lat="45.517678" lon="0.309966"><ele>121.26</ele><time>2010-10-11T10:28:47Z</time></trkpt><trkpt lat="45.517571" lon="0.310144"><ele>121.74</ele><time>2010-10-11T10:28:48Z</time></trkpt><trkpt lat="45.517456" lon="0.310300"><ele>122.71</ele><time>2010-10-11T10:28:49Z</time></trkpt><trkpt lat="45.517320" lon="0.310445"><ele>123.67</ele><time>2010-10-11T10:28:50Z</time></trkpt><trkpt lat="45.517181" lon="0.310593"><ele>124.15</ele><time>2010-10-11T10:28:51Z</time></trkpt><trkpt lat="45.516057" lon="0.311575"><ele>130.40</ele><time>2010-10-11T10:28:58Z</time></trkpt><trkpt lat="45.515883" lon="0.311667"><ele>130.88</ele><time>2010-10-11T10:28:59Z</time></trkpt><trkpt lat="45.515700" lon="0.311731"><ele>131.84</ele><time>2010-10-11T10:29:00Z</time></trkpt><trkpt lat="45.514949" lon="0.312033"><ele>133.76</ele><time>2010-10-11T10:29:04Z</time></trkpt><trkpt lat="45.514771" lon="0.312158"><ele>133.76</ele><time>2010-10-11T10:29:05Z</time></trkpt><trkpt lat="45.513440" lon="0.313481"><ele>138.57</ele><time>2010-10-11T10:29:13Z</time></trkpt><trkpt lat="45.511937" lon="0.315962"><ele>150.58</ele><time>2010-10-11T10:29:24Z</time></trkpt><trkpt lat="45.511172" lon="0.318448"><ele>159.72</ele><time>2010-10-11T10:29:33Z</time></trkpt><trkpt lat="45.510162" lon="0.322053"><ele>171.73</ele><time>2010-10-11T10:29:45Z</time></trkpt><trkpt lat="45.508852" lon="0.326129"><ele>181.83</ele><time>2010-10-11T10:29:59Z</time></trkpt><trkpt lat="45.508704" lon="0.326350"><ele>182.31</ele><time>2010-10-11T10:30:00Z</time></trkpt><trkpt lat="45.508548" lon="0.326553"><ele>182.79</ele><time>2010-10-11T10:30:01Z</time></trkpt><trkpt lat="45.508377" lon="0.326745"><ele>182.79</ele><time>2010-10-11T10:30:02Z</time></trkpt><trkpt lat="45.508195" lon="0.326919"><ele>182.79</ele><time>2010-10-11T10:30:03Z</time></trkpt><trkpt lat="45.507998" lon="0.327077"><ele>183.27</ele><time>2010-10-11T10:30:04Z</time></trkpt><trkpt lat="45.507797" lon="0.327213"><ele>182.79</ele><time>2010-10-11T10:30:05Z</time></trkpt><trkpt lat="45.507574" lon="0.327303"><ele>182.79</ele><time>2010-10-11T10:30:06Z</time></trkpt><trkpt lat="45.507348" lon="0.327395"><ele>182.31</ele><time>2010-10-11T10:30:07Z</time></trkpt><trkpt lat="45.505014" lon="0.328334"><ele>177.50</ele><time>2010-10-11T10:30:18Z</time></trkpt><trkpt lat="45.503897" lon="0.329299"><ele>174.62</ele><time>2010-10-11T10:30:25Z</time></trkpt><trkpt lat="45.501831" lon="0.331903"><ele>162.60</ele><time>2010-10-11T10:30:38Z</time></trkpt><trkpt lat="45.499246" lon="0.335186"><ele>173.17</ele><time>2010-10-11T10:30:53Z</time></trkpt><trkpt lat="45.498538" lon="0.336420"><ele>178.94</ele><time>2010-10-11T10:30:59Z</time></trkpt><trkpt lat="45.498254" lon="0.337997"><ele>180.38</ele><time>2010-10-11T10:31:05Z</time></trkpt><trkpt lat="45.498098" lon="0.340171"><ele>178.94</ele><time>2010-10-11T10:31:13Z</time></trkpt><trkpt lat="45.497967" lon="0.340796"><ele>179.42</ele><time>2010-10-11T10:31:14Z</time></trkpt><trkpt lat="45.497882" lon="0.341103"><ele>179.42</ele><time>2010-10-11T10:31:15Z</time></trkpt><trkpt lat="45.497773" lon="0.341389"><ele>179.90</ele><time>2010-10-11T10:31:16Z</time></trkpt><trkpt lat="45.497653" lon="0.341677"><ele>179.90</ele><time>2010-10-11T10:31:17Z</time></trkpt><trkpt lat="45.497508" lon="0.341947"><ele>179.90</ele><time>2010-10-11T10:31:18Z</time></trkpt><trkpt lat="45.495999" lon="0.344493"><ele>176.54</ele><time>2010-10-11T10:31:27Z</time></trkpt><trkpt lat="45.494736" lon="0.346217"><ele>173.66</ele><time>2010-10-11T10:31:34Z</time></trkpt><trkpt lat="45.494614" lon="0.346439"><ele>173.17</ele><time>2010-10-11T10:31:35Z</time></trkpt><trkpt lat="45.494504" lon="0.346678"><ele>173.17</ele><time>2010-10-11T10:31:36Z</time></trkpt><trkpt lat="45.494403" lon="0.346916"><ele>172.69</ele><time>2010-10-11T10:31:37Z</time></trkpt><trkpt lat="45.493611" lon="0.348962"><ele>168.37</ele><time>2010-10-11T10:31:45Z</time></trkpt><trkpt lat="45.492377" lon="0.351187"><ele>161.16</ele><time>2010-10-11T10:31:54Z</time></trkpt><trkpt lat="45.492298" lon="0.351407"><ele>160.20</ele><time>2010-10-11T10:31:55Z</time></trkpt><trkpt lat="45.492220" lon="0.351625"><ele>159.24</ele><time>2010-10-11T10:31:56Z</time></trkpt><trkpt lat="45.492167" lon="0.351848"><ele>158.75</ele><time>2010-10-11T10:31:57Z</time></trkpt><trkpt lat="45.492124" lon="0.352080"><ele>158.27</ele><time>2010-10-11T10:31:58Z</time></trkpt><trkpt lat="45.492081" lon="0.352309"><ele>157.79</ele><time>2010-10-11T10:31:59Z</time></trkpt><trkpt lat="45.491990" lon="0.353430"><ele>154.91</ele><time>2010-10-11T10:32:04Z</time></trkpt><trkpt lat="45.491937" lon="0.353627"><ele>154.43</ele><time>2010-10-11T10:32:05Z</time></trkpt><trkpt lat="45.491856" lon="0.353788"><ele>153.95</ele><time>2010-10-11T10:32:06Z</time></trkpt><trkpt lat="45.491772" lon="0.353957"><ele>153.47</ele><time>2010-10-11T10:32:07Z</time></trkpt><trkpt lat="45.491662" lon="0.354114"><ele>152.99</ele><time>2010-10-11T10:32:08Z</time></trkpt><trkpt lat="45.491547" lon="0.354277"><ele>152.51</ele><time>2010-10-11T10:32:09Z</time></trkpt><trkpt lat="45.491089" lon="0.354924"><ele>150.10</ele><time>2010-10-11T10:32:13Z</time></trkpt><trkpt lat="45.491000" lon="0.355100"><ele>149.62</ele><time>2010-10-11T10:32:14Z</time></trkpt><trkpt lat="45.490930" lon="0.355293"><ele>148.66</ele><time>2010-10-11T10:32:15Z</time></trkpt><trkpt lat="45.490861" lon="0.355496"><ele>148.18</ele><time>2010-10-11T10:32:16Z</time></trkpt><trkpt lat="45.490817" lon="0.355726"><ele>147.70</ele><time>2010-10-11T10:32:17Z</time></trkpt><trkpt lat="45.490308" lon="0.358159"><ele>140.49</ele><time>2010-10-11T10:32:26Z</time></trkpt><trkpt lat="45.489421" lon="0.361819"><ele>135.20</ele><time>2010-10-11T10:32:39Z</time></trkpt><trkpt lat="45.488847" lon="0.363291"><ele>135.20</ele><time>2010-10-11T10:32:46Z</time></trkpt><trkpt lat="45.488720" lon="0.363579"><ele>134.72</ele><time>2010-10-11T10:32:48Z</time></trkpt><trkpt lat="45.488665" lon="0.363597"><ele>134.72</ele><time>2010-10-11T10:32:49Z</time></trkpt><trkpt lat="45.488580" lon="0.363680"><ele>134.72</ele><time>2010-10-11T10:32:50Z</time></trkpt><trkpt lat="45.488560" lon="0.363782"><ele>134.72</ele><time>2010-10-11T10:32:51Z</time></trkpt><trkpt lat="45.488573" lon="0.363873"><ele>134.24</ele><time>2010-10-11T10:32:52Z</time></trkpt><trkpt lat="45.488609" lon="0.364043"><ele>134.24</ele><time>2010-10-11T10:32:53Z</time></trkpt><trkpt lat="45.488573" lon="0.364150"><ele>134.24</ele><time>2010-10-11T10:32:54Z</time></trkpt><trkpt lat="45.488531" lon="0.364271"><ele>133.76</ele><time>2010-10-11T10:32:55Z</time></trkpt><trkpt lat="45.488483" lon="0.364402"><ele>133.76</ele><time>2010-10-11T10:32:56Z</time></trkpt><trkpt lat="45.488432" lon="0.364545"><ele>133.28</ele><time>2010-10-11T10:32:57Z</time></trkpt><trkpt lat="45.488377" lon="0.364695"><ele>132.80</ele><time>2010-10-11T10:32:58Z</time></trkpt><trkpt lat="45.488309" lon="0.364845"><ele>132.32</ele><time>2010-10-11T10:32:59Z</time></trkpt><trkpt lat="45.488236" lon="0.365005"><ele>131.36</ele><time>2010-10-11T10:33:00Z</time></trkpt><trkpt lat="45.488153" lon="0.365178"><ele>130.40</ele><time>2010-10-11T10:33:01Z</time></trkpt><trkpt lat="45.488039" lon="0.365317"><ele>129.92</ele><time>2010-10-11T10:33:02Z</time></trkpt><trkpt lat="45.487925" lon="0.365458"><ele>128.95</ele><time>2010-10-11T10:33:03Z</time></trkpt><trkpt lat="45.487808" lon="0.365601"><ele>128.47</ele><time>2010-10-11T10:33:04Z</time></trkpt><trkpt lat="45.487670" lon="0.365724"><ele>127.99</ele><time>2010-10-11T10:33:05Z</time></trkpt><trkpt lat="45.487519" lon="0.365826"><ele>127.03</ele><time>2010-10-11T10:33:06Z</time></trkpt><trkpt lat="45.487358" lon="0.365887"><ele>126.55</ele><time>2010-10-11T10:33:07Z</time></trkpt><trkpt lat="45.487195" lon="0.365948"><ele>126.07</ele><time>2010-10-11T10:33:08Z</time></trkpt><trkpt lat="45.487033" lon="0.366009"><ele>125.59</ele><time>2010-10-11T10:33:09Z</time></trkpt><trkpt lat="45.486875" lon="0.366068"><ele>125.11</ele><time>2010-10-11T10:33:10Z</time></trkpt><trkpt lat="45.486875" lon="0.366068"><ele>124.15</ele><time>2010-10-11T10:33:11Z</time></trkpt><trkpt lat="45.486547" lon="0.366056"><ele>123.67</ele><time>2010-10-11T10:33:12Z</time></trkpt><trkpt lat="45.486382" lon="0.366049"><ele>123.19</ele><time>2010-10-11T10:33:13Z</time></trkpt><trkpt lat="45.485128" lon="0.366147"><ele>117.90</ele><time>2010-10-11T10:33:22Z</time></trkpt><trkpt lat="45.484210" lon="0.366920"><ele>114.05</ele><time>2010-10-11T10:33:28Z</time></trkpt><trkpt lat="45.484098" lon="0.367080"><ele>113.57</ele><time>2010-10-11T10:33:29Z</time></trkpt><trkpt lat="45.484013" lon="0.367268"><ele>112.61</ele><time>2010-10-11T10:33:30Z</time></trkpt><trkpt lat="45.483937" lon="0.367466"><ele>112.13</ele><time>2010-10-11T10:33:31Z</time></trkpt><trkpt lat="45.483872" lon="0.367687"><ele>111.65</ele><time>2010-10-11T10:33:32Z</time></trkpt><trkpt lat="45.483804" lon="0.367918"><ele>111.17</ele><time>2010-10-11T10:33:33Z</time></trkpt><trkpt lat="45.483736" lon="0.368154"><ele>110.21</ele><time>2010-10-11T10:33:34Z</time></trkpt><trkpt lat="45.482919" lon="0.371457"><ele>100.60</ele><time>2010-10-11T10:33:47Z</time></trkpt><trkpt lat="45.482841" lon="0.371892"><ele>99.63</ele><time>2010-10-11T10:33:49Z</time></trkpt><trkpt lat="45.482841" lon="0.372103"><ele>99.15</ele><time>2010-10-11T10:33:50Z</time></trkpt><trkpt lat="45.482787" lon="0.374144"><ele>93.39</ele><time>2010-10-11T10:34:00Z</time></trkpt><trkpt lat="45.482471" lon="0.376673"><ele>89.06</ele><time>2010-10-11T10:34:12Z</time></trkpt><trkpt lat="45.482455" lon="0.376985"><ele>89.06</ele><time>2010-10-11T10:34:14Z</time></trkpt><trkpt lat="45.482485" lon="0.377115"><ele>89.06</ele><time>2010-10-11T10:34:15Z</time></trkpt><trkpt lat="45.482520" lon="0.377238"><ele>89.06</ele><time>2010-10-11T10:34:16Z</time></trkpt><trkpt lat="45.482560" lon="0.377341"><ele>89.06</ele><time>2010-10-11T10:34:17Z</time></trkpt><trkpt lat="45.482618" lon="0.377428"><ele>89.54</ele><time>2010-10-11T10:34:18Z</time></trkpt><trkpt lat="45.482668" lon="0.377457"><ele>89.54</ele><time>2010-10-11T10:34:19Z</time></trkpt><trkpt lat="45.482753" lon="0.377491"><ele>89.54</ele><time>2010-10-11T10:34:20Z</time></trkpt><trkpt lat="45.482842" lon="0.377526"><ele>89.54</ele><time>2010-10-11T10:34:21Z</time></trkpt><trkpt lat="45.482942" lon="0.377567"><ele>89.54</ele><time>2010-10-11T10:34:22Z</time></trkpt><trkpt lat="45.482942" lon="0.377567"><ele>89.54</ele><time>2010-10-11T10:34:23Z</time></trkpt><trkpt lat="45.484069" lon="0.377981"><ele>88.58</ele><time>2010-10-11T10:34:32Z</time></trkpt><trkpt lat="45.484123" lon="0.378036"><ele>88.58</ele><time>2010-10-11T10:34:33Z</time></trkpt><trkpt lat="45.484181" lon="0.378142"><ele>88.58</ele><time>2010-10-11T10:34:34Z</time></trkpt><trkpt lat="45.484195" lon="0.378223"><ele>89.06</ele><time>2010-10-11T10:34:35Z</time></trkpt><trkpt lat="45.484210" lon="0.378313"><ele>89.06</ele><time>2010-10-11T10:34:36Z</time></trkpt><trkpt lat="45.484225" lon="0.378414"><ele>89.54</ele><time>2010-10-11T10:34:37Z</time></trkpt><trkpt lat="45.484241" lon="0.378515"><ele>89.54</ele><time>2010-10-11T10:34:38Z</time></trkpt><trkpt lat="45.484295" lon="0.378864"><ele>90.02</ele><time>2010-10-11T10:34:42Z</time></trkpt><trkpt lat="45.484295" lon="0.378864"><ele>90.02</ele><time>2010-10-11T10:34:43Z</time></trkpt><trkpt lat="45.484349" lon="0.378985"><ele>90.02</ele><time>2010-10-11T10:34:44Z</time></trkpt><trkpt lat="45.484751" lon="0.379559"><ele>90.50</ele><time>2010-10-11T10:34:50Z</time></trkpt><trkpt lat="45.485731" lon="0.380711"><ele>91.46</ele><time>2010-10-11T10:34:59Z</time></trkpt><trkpt lat="45.485960" lon="0.381146"><ele>92.42</ele><time>2010-10-11T10:35:02Z</time></trkpt><trkpt lat="45.486024" lon="0.381297"><ele>92.42</ele><time>2010-10-11T10:35:03Z</time></trkpt><trkpt lat="45.486057" lon="0.381461"><ele>92.42</ele><time>2010-10-11T10:35:04Z</time></trkpt><trkpt lat="45.486090" lon="0.381626"><ele>92.42</ele><time>2010-10-11T10:35:05Z</time></trkpt><trkpt lat="45.486103" lon="0.381801"><ele>92.42</ele><time>2010-10-11T10:35:06Z</time></trkpt><trkpt lat="45.486103" lon="0.381983"><ele>92.42</ele><time>2010-10-11T10:35:07Z</time></trkpt><trkpt lat="45.486087" lon="0.382163"><ele>92.42</ele><time>2010-10-11T10:35:08Z</time></trkpt><trkpt lat="45.486069" lon="0.382355"><ele>92.42</ele><time>2010-10-11T10:35:09Z</time></trkpt><trkpt lat="45.486026" lon="0.382542"><ele>92.42</ele><time>2010-10-11T10:35:10Z</time></trkpt><trkpt lat="45.485952" lon="0.382721"><ele>92.42</ele><time>2010-10-11T10:35:11Z</time></trkpt><trkpt lat="45.485875" lon="0.382905"><ele>92.42</ele><time>2010-10-11T10:35:12Z</time></trkpt><trkpt lat="45.485774" lon="0.383071"><ele>92.42</ele><time>2010-10-11T10:35:13Z</time></trkpt><trkpt lat="45.485657" lon="0.383228"><ele>92.42</ele><time>2010-10-11T10:35:14Z</time></trkpt><trkpt lat="45.485535" lon="0.383390"><ele>92.42</ele><time>2010-10-11T10:35:15Z</time></trkpt><trkpt lat="45.484645" lon="0.385040"><ele>91.94</ele><time>2010-10-11T10:35:23Z</time></trkpt><trkpt lat="45.484582" lon="0.385309"><ele>91.46</ele><time>2010-10-11T10:35:24Z</time></trkpt><trkpt lat="45.484517" lon="0.385586"><ele>91.46</ele><time>2010-10-11T10:35:25Z</time></trkpt><trkpt lat="45.484490" lon="0.385865"><ele>90.98</ele><time>2010-10-11T10:35:26Z</time></trkpt><trkpt lat="45.484464" lon="0.386154"><ele>90.50</ele><time>2010-10-11T10:35:27Z</time></trkpt><trkpt lat="45.484438" lon="0.386443"><ele>90.50</ele><time>2010-10-11T10:35:28Z</time></trkpt><trkpt lat="45.484429" lon="0.386729"><ele>90.50</ele><time>2010-10-11T10:35:29Z</time></trkpt><trkpt lat="45.484505" lon="0.389697"><ele>90.02</ele><time>2010-10-11T10:35:40Z</time></trkpt><trkpt lat="45.484996" lon="0.391502"><ele>91.46</ele><time>2010-10-11T10:35:47Z</time></trkpt><trkpt lat="45.485944" lon="0.394089"><ele>92.90</ele><time>2010-10-11T10:35:57Z</time></trkpt><trkpt lat="45.486861" lon="0.395324"><ele>93.39</ele><time>2010-10-11T10:36:03Z</time></trkpt><trkpt lat="45.487577" lon="0.396385"><ele>94.35</ele><time>2010-10-11T10:36:08Z</time></trkpt><trkpt lat="45.487684" lon="0.396635"><ele>94.83</ele><time>2010-10-11T10:36:09Z</time></trkpt><trkpt lat="45.487783" lon="0.396899"><ele>94.83</ele><time>2010-10-11T10:36:10Z</time></trkpt><trkpt lat="45.488791" lon="0.399774"><ele>95.31</ele><time>2010-10-11T10:36:20Z</time></trkpt><trkpt lat="45.490161" lon="0.403834"><ele>95.79</ele><time>2010-10-11T10:36:33Z</time></trkpt><trkpt lat="45.491054" lon="0.406960"><ele>95.79</ele><time>2010-10-11T10:36:44Z</time></trkpt><trkpt lat="45.491085" lon="0.408906"><ele>95.79</ele><time>2010-10-11T10:36:51Z</time></trkpt><trkpt lat="45.490676" lon="0.410755"><ele>96.27</ele><time>2010-10-11T10:36:58Z</time></trkpt><trkpt lat="45.489810" lon="0.412263"><ele>97.71</ele><time>2010-10-11T10:37:05Z</time></trkpt><trkpt lat="45.488036" lon="0.414731"><ele>97.71</ele><time>2010-10-11T10:37:16Z</time></trkpt><trkpt lat="45.486428" lon="0.417163"><ele>98.19</ele><time>2010-10-11T10:37:26Z</time></trkpt><trkpt lat="45.485615" lon="0.419200"><ele>99.15</ele><time>2010-10-11T10:37:33Z</time></trkpt><trkpt lat="45.484578" lon="0.421675"><ele>99.15</ele><time>2010-10-11T10:37:42Z</time></trkpt><trkpt lat="45.482881" lon="0.424008"><ele>98.67</ele><time>2010-10-11T10:37:52Z</time></trkpt><trkpt lat="45.481031" lon="0.426304"><ele>98.67</ele><time>2010-10-11T10:38:03Z</time></trkpt><trkpt lat="45.479556" lon="0.427232"><ele>98.19</ele><time>2010-10-11T10:38:10Z</time></trkpt><trkpt lat="45.477451" lon="0.427877"><ele>97.71</ele><time>2010-10-11T10:38:19Z</time></trkpt><trkpt lat="45.475388" lon="0.428464"><ele>96.75</ele><time>2010-10-11T10:38:29Z</time></trkpt><trkpt lat="45.474229" lon="0.428929"><ele>98.19</ele><time>2010-10-11T10:38:35Z</time></trkpt><trkpt lat="45.474045" lon="0.429067"><ele>98.67</ele><time>2010-10-11T10:38:36Z</time></trkpt><trkpt lat="45.473883" lon="0.429268"><ele>98.67</ele><time>2010-10-11T10:38:37Z</time></trkpt><trkpt lat="45.473723" lon="0.429468"><ele>98.67</ele><time>2010-10-11T10:38:38Z</time></trkpt><trkpt lat="45.473575" lon="0.429691"><ele>98.67</ele><time>2010-10-11T10:38:39Z</time></trkpt><trkpt lat="45.473427" lon="0.429922"><ele>98.67</ele><time>2010-10-11T10:38:40Z</time></trkpt><trkpt lat="45.472036" lon="0.431738"><ele>100.11</ele><time>2010-10-11T10:38:49Z</time></trkpt><trkpt lat="45.471421" lon="0.432189"><ele>100.60</ele><time>2010-10-11T10:38:53Z</time></trkpt><trkpt lat="45.471310" lon="0.432263"><ele>101.08</ele><time>2010-10-11T10:38:54Z</time></trkpt><trkpt lat="45.471211" lon="0.432329"><ele>101.08</ele><time>2010-10-11T10:38:55Z</time></trkpt><trkpt lat="45.470922" lon="0.432532"><ele>101.08</ele><time>2010-10-11T10:39:01Z</time></trkpt><trkpt lat="45.470865" lon="0.432589"><ele>101.08</ele><time>2010-10-11T10:39:03Z</time></trkpt><trkpt lat="45.470829" lon="0.432625"><ele>101.08</ele><time>2010-10-11T10:39:04Z</time></trkpt><trkpt lat="45.470749" lon="0.432706"><ele>100.60</ele><time>2010-10-11T10:39:06Z</time></trkpt><trkpt lat="45.470718" lon="0.432737"><ele>101.08</ele><time>2010-10-11T10:39:07Z</time></trkpt><trkpt lat="45.470718" lon="0.432737"><ele>101.08</ele><time>2010-10-11T10:39:08Z</time></trkpt><trkpt lat="45.470463" lon="0.432336"><ele>101.08</ele><time>2010-10-11T10:39:09Z</time></trkpt><trkpt lat="45.470433" lon="0.432274"><ele>101.08</ele><time>2010-10-11T10:39:10Z</time></trkpt><trkpt lat="45.470398" lon="0.432206"><ele>101.08</ele><time>2010-10-11T10:39:11Z</time></trkpt><trkpt lat="45.469826" lon="0.431401"><ele>106.84</ele><time>2010-10-11T10:39:21Z</time></trkpt><trkpt lat="45.469415" lon="0.430972"><ele>113.09</ele><time>2010-10-11T10:39:29Z</time></trkpt><trkpt lat="45.469367" lon="0.430922"><ele>113.57</ele><time>2010-10-11T10:39:30Z</time></trkpt><trkpt lat="45.468967" lon="0.430528"><ele>115.50</ele><time>2010-10-11T10:39:36Z</time></trkpt><trkpt lat="45.468918" lon="0.430481"><ele>115.50</ele><time>2010-10-11T10:39:37Z</time></trkpt><trkpt lat="45.468320" lon="0.429931"><ele>116.46</ele><time>2010-10-11T10:39:46Z</time></trkpt><trkpt lat="45.467490" lon="0.429400"><ele>116.46</ele><time>2010-10-11T10:39:56Z</time></trkpt><trkpt lat="45.467188" lon="0.429306"><ele>116.46</ele><time>2010-10-11T10:40:00Z</time></trkpt><trkpt lat="45.466332" lon="0.429098"><ele>112.13</ele><time>2010-10-11T10:40:10Z</time></trkpt><trkpt lat="45.465792" lon="0.429008"><ele>108.29</ele><time>2010-10-11T10:40:18Z</time></trkpt><trkpt lat="45.465647" lon="0.428984"><ele>107.81</ele><time>2010-10-11T10:40:20Z</time></trkpt><trkpt lat="45.465204" lon="0.428881"><ele>108.77</ele><time>2010-10-11T10:40:25Z</time></trkpt><trkpt lat="45.465104" lon="0.428858"><ele>108.77</ele><time>2010-10-11T10:40:26Z</time></trkpt><trkpt lat="45.465002" lon="0.428833"><ele>109.25</ele><time>2010-10-11T10:40:27Z</time></trkpt><trkpt lat="45.464900" lon="0.428808"><ele>108.77</ele><time>2010-10-11T10:40:28Z</time></trkpt><trkpt lat="45.464809" lon="0.428751"><ele>108.77</ele><time>2010-10-11T10:40:29Z</time></trkpt><trkpt lat="45.464722" lon="0.428697"><ele>108.77</ele><time>2010-10-11T10:40:30Z</time></trkpt><trkpt lat="45.464643" lon="0.428648"><ele>108.77</ele><time>2010-10-11T10:40:31Z</time></trkpt><trkpt lat="45.464547" lon="0.428559"><ele>108.77</ele><time>2010-10-11T10:40:32Z</time></trkpt><trkpt lat="45.464525" lon="0.428492"><ele>108.77</ele><time>2010-10-11T10:40:36Z</time></trkpt><trkpt lat="45.464532" lon="0.428514"><ele>109.25</ele><time>2010-10-11T10:40:37Z</time></trkpt><trkpt lat="45.464609" lon="0.428627"><ele>110.21</ele><time>2010-10-11T10:40:48Z</time></trkpt><trkpt lat="45.464590" lon="0.428614"><ele>110.69</ele><time>2010-10-11T10:40:49Z</time></trkpt><trkpt lat="45.464473" lon="0.428338"><ele>111.17</ele><time>2010-10-11T10:41:00Z</time></trkpt><trkpt lat="45.464079" lon="0.427579"><ele>112.13</ele><time>2010-10-11T10:41:08Z</time></trkpt><trkpt lat="45.464032" lon="0.427489"><ele>112.61</ele><time>2010-10-11T10:41:09Z</time></trkpt><trkpt lat="45.463933" lon="0.427298"><ele>112.61</ele><time>2010-10-11T10:41:11Z</time></trkpt><trkpt lat="45.463526" lon="0.426699"><ele>113.09</ele><time>2010-10-11T10:41:18Z</time></trkpt><trkpt lat="45.463410" lon="0.426526"><ele>113.09</ele><time>2010-10-11T10:41:23Z</time></trkpt><trkpt lat="45.463390" lon="0.426495"><ele>112.61</ele><time>2010-10-11T10:41:24Z</time></trkpt><trkpt lat="45.463358" lon="0.426443"><ele>111.65</ele><time>2010-10-11T10:41:25Z</time></trkpt><trkpt lat="45.463315" lon="0.426376"><ele>110.69</ele><time>2010-10-11T10:41:26Z</time></trkpt><trkpt lat="45.463265" lon="0.426297"><ele>110.21</ele><time>2010-10-11T10:41:27Z</time></trkpt><trkpt lat="45.463209" lon="0.426209"><ele>109.73</ele><time>2010-10-11T10:41:28Z</time></trkpt><trkpt lat="45.462805" lon="0.425570"><ele>107.81</ele><time>2010-10-11T10:41:36Z</time></trkpt><trkpt lat="45.462654" lon="0.425332"><ele>110.21</ele><time>2010-10-11T10:41:42Z</time></trkpt><trkpt lat="45.462615" lon="0.425256"><ele>110.69</ele><time>2010-10-11T10:41:43Z</time></trkpt><trkpt lat="45.462316" lon="0.424460"><ele>114.53</ele><time>2010-10-11T10:41:53Z</time></trkpt><trkpt lat="45.462253" lon="0.424236"><ele>116.46</ele><time>2010-10-11T10:41:59Z</time></trkpt><trkpt lat="45.462350" lon="0.424256"><ele>117.42</ele><time>2010-10-11T10:42:03Z</time></trkpt><trkpt lat="45.462364" lon="0.424255"><ele>117.90</ele><time>2010-10-11T10:42:04Z</time></trkpt><trkpt lat="45.462387" lon="0.424254"><ele>117.90</ele><time>2010-10-11T10:42:05Z</time></trkpt><trkpt lat="45.462842" lon="0.424230"><ele>115.98</ele><time>2010-10-11T10:42:13Z</time></trkpt><trkpt lat="45.463587" lon="0.424192"><ele>121.74</ele><time>2010-10-11T10:42:25Z</time></trkpt><trkpt lat="45.463795" lon="0.424181"><ele>123.67</ele><time>2010-10-11T10:42:34Z</time></trkpt><trkpt lat="45.463932" lon="0.424268"><ele>123.67</ele><time>2010-10-11T10:42:41Z</time></trkpt><trkpt lat="45.463923" lon="0.424511"><ele>123.67</ele><time>2010-10-11T10:42:47Z</time></trkpt><trkpt lat="45.463968" lon="0.424684"><ele>124.15</ele><time>2010-10-11T10:42:59Z</time></trkpt><trkpt lat="45.464001" lon="0.424752"><ele>124.63</ele><time>2010-10-11T10:43:15Z</time></trkpt><trkpt lat="45.464100" lon="0.425064"><ele>124.63</ele><time>2010-10-11T10:43:25Z</time></trkpt><trkpt lat="45.464370" lon="0.425540"><ele>123.19</ele><time>2010-10-11T10:43:41Z</time></trkpt><trkpt lat="45.464457" lon="0.425649"><ele>123.19</ele><time>2010-10-11T10:43:46Z</time></trkpt><trkpt lat="45.464504" lon="0.425575"><ele>123.67</ele><time>2010-10-11T10:43:54Z</time></trkpt><trkpt lat="45.464500" lon="0.425602"><ele>123.67</ele><time>2010-10-11T10:43:59Z</time></trkpt><trkpt lat="45.464329" lon="0.425453"><ele>122.71</ele><time>2010-10-11T10:44:09Z</time></trkpt><trkpt lat="45.464356" lon="0.425324"><ele>123.19</ele><time>2010-10-11T10:44:14Z</time></trkpt><trkpt lat="45.464518" lon="0.425090"><ele>121.26</ele><time>2010-10-11T10:44:27Z</time></trkpt><trkpt lat="45.464515" lon="0.425101"><ele>121.74</ele><time>2010-10-11T10:44:36Z</time></trkpt><trkpt lat="45.464499" lon="0.425078"><ele>121.74</ele><time>2010-10-11T10:44:39Z</time></trkpt><trkpt lat="45.464451" lon="0.424959"><ele>121.74</ele><time>2010-10-11T10:44:46Z</time></trkpt><trkpt lat="45.464511" lon="0.424846"><ele>119.82</ele><time>2010-10-11T10:44:52Z</time></trkpt><trkpt lat="45.464506" lon="0.424761"><ele>121.26</ele><time>2010-10-11T10:45:03Z</time></trkpt><trkpt lat="45.464527" lon="0.424783"><ele>123.19</ele><time>2010-10-11T10:45:29Z</time></trkpt><trkpt lat="45.464420" lon="0.424938"><ele>122.71</ele><time>2010-10-11T10:45:35Z</time></trkpt><trkpt lat="45.464419" lon="0.424986"><ele>122.71</ele><time>2010-10-11T10:45:44Z</time></trkpt><trkpt lat="45.464470" lon="0.425126"><ele>121.74</ele><time>2010-10-11T10:45:49Z</time></trkpt><trkpt lat="45.464407" lon="0.425243"><ele>120.78</ele><time>2010-10-11T10:45:53Z</time></trkpt><trkpt lat="45.464187" lon="0.425241"><ele>120.78</ele><time>2010-10-11T10:46:02Z</time></trkpt><trkpt lat="45.464061" lon="0.424889"><ele>121.26</ele><time>2010-10-11T10:46:14Z</time></trkpt><trkpt lat="45.464005" lon="0.424680"><ele>120.78</ele><time>2010-10-11T10:46:21Z</time></trkpt><trkpt lat="45.463955" lon="0.424457"><ele>122.71</ele><time>2010-10-11T10:46:30Z</time></trkpt><trkpt lat="45.463955" lon="0.424403"><ele>123.19</ele><time>2010-10-11T10:46:45Z</time></trkpt><trkpt lat="45.463957" lon="0.424399"><ele>123.67</ele><time>2010-10-11T10:47:20Z</time></trkpt><trkpt lat="45.463955" lon="0.424399"><ele>124.15</ele><time>2010-10-11T10:48:00Z</time></trkpt><trkpt lat="45.463954" lon="0.424392"><ele>124.15</ele><time>2010-10-11T10:48:28Z</time></trkpt><trkpt lat="45.463956" lon="0.424393"><ele>124.63</ele><time>2010-10-11T10:49:05Z</time></trkpt><trkpt lat="45.463960" lon="0.424396"><ele>125.11</ele><time>2010-10-11T10:49:41Z</time></trkpt><trkpt lat="45.463968" lon="0.424397"><ele>125.59</ele><time>2010-10-11T10:50:05Z</time></trkpt><trkpt lat="45.463967" lon="0.424393"><ele>125.59</ele><time>2010-10-11T10:50:50Z</time></trkpt><trkpt lat="45.463979" lon="0.424390"><ele>125.59</ele><time>2010-10-11T10:51:47Z</time></trkpt><trkpt lat="45.463991" lon="0.424395"><ele>125.11</ele><time>2010-10-11T10:52:07Z</time></trkpt><trkpt lat="45.464001" lon="0.424400"><ele>125.11</ele><time>2010-10-11T10:52:36Z</time></trkpt><trkpt lat="45.464007" lon="0.424396"><ele>125.11</ele><time>2010-10-11T10:53:01Z</time></trkpt><trkpt lat="45.464019" lon="0.424402"><ele>125.59</ele><time>2010-10-11T10:53:19Z</time></trkpt><trkpt lat="45.464030" lon="0.424404"><ele>126.55</ele><time>2010-10-11T10:53:46Z</time></trkpt><trkpt lat="45.464047" lon="0.424419"><ele>126.55</ele><time>2010-10-11T10:54:06Z</time></trkpt><trkpt lat="45.464051" lon="0.424418"><ele>126.55</ele><time>2010-10-11T10:54:35Z</time></trkpt><trkpt lat="45.464052" lon="0.424407"><ele>127.99</ele><time>2010-10-11T10:55:30Z</time></trkpt><trkpt lat="45.464054" lon="0.424407"><ele>128.95</ele><time>2010-10-11T10:56:23Z</time></trkpt><trkpt lat="45.464060" lon="0.424403"><ele>129.43</ele><time>2010-10-11T10:56:40Z</time></trkpt><trkpt lat="45.463980" lon="0.424397"><ele>127.51</ele><time>2010-10-11T11:01:25Z</time></trkpt><trkpt lat="45.463963" lon="0.424400"><ele>127.03</ele><time>2010-10-11T11:03:16Z</time></trkpt><trkpt lat="45.463900" lon="0.424382"><ele>125.59</ele><time>2010-10-11T11:08:25Z</time></trkpt><trkpt lat="45.463878" lon="0.424372"><ele>125.59</ele><time>2010-10-11T11:11:18Z</time></trkpt><trkpt lat="45.463870" lon="0.424372"><ele>124.63</ele><time>2010-10-11T11:11:59Z</time></trkpt><trkpt lat="45.463926" lon="0.424248"><ele>125.59</ele><time>2010-10-11T11:14:02Z</time></trkpt><trkpt lat="45.463735" lon="0.424165"><ele>124.63</ele><time>2010-10-11T11:14:14Z</time></trkpt><trkpt lat="45.463216" lon="0.424211"><ele>121.26</ele><time>2010-10-11T11:14:26Z</time></trkpt><trkpt lat="45.462476" lon="0.424249"><ele>119.34</ele><time>2010-10-11T11:14:39Z</time></trkpt><trkpt lat="45.462280" lon="0.424177"><ele>120.78</ele><time>2010-10-11T11:14:47Z</time></trkpt><trkpt lat="45.462269" lon="0.424201"><ele>121.26</ele><time>2010-10-11T11:14:48Z</time></trkpt><trkpt lat="45.462269" lon="0.424201"><ele>121.26</ele><time>2010-10-11T11:14:49Z</time></trkpt><trkpt lat="45.462269" lon="0.424334"><ele>121.74</ele><time>2010-10-11T11:14:50Z</time></trkpt><trkpt lat="45.462287" lon="0.424383"><ele>121.74</ele><time>2010-10-11T11:14:51Z</time></trkpt><trkpt lat="45.462308" lon="0.424439"><ele>121.26</ele><time>2010-10-11T11:14:52Z</time></trkpt><trkpt lat="45.462545" lon="0.425070"><ele>116.94</ele><time>2010-10-11T11:15:03Z</time></trkpt><trkpt lat="45.462695" lon="0.425397"><ele>114.53</ele><time>2010-10-11T11:15:13Z</time></trkpt><trkpt lat="45.462656" lon="0.425447"><ele>114.53</ele><time>2010-10-11T11:15:23Z</time></trkpt><trkpt lat="45.462657" lon="0.425449"><ele>114.53</ele><time>2010-10-11T11:15:27Z</time></trkpt><trkpt lat="45.462660" lon="0.425466"><ele>114.53</ele><time>2010-10-11T11:15:28Z</time></trkpt><trkpt lat="45.462734" lon="0.425458"><ele>114.53</ele><time>2010-10-11T11:15:29Z</time></trkpt><trkpt lat="45.462756" lon="0.425493"><ele>114.53</ele><time>2010-10-11T11:15:30Z</time></trkpt><trkpt lat="45.462781" lon="0.425533"><ele>114.53</ele><time>2010-10-11T11:15:31Z</time></trkpt><trkpt lat="45.462812" lon="0.425582"><ele>114.05</ele><time>2010-10-11T11:15:32Z</time></trkpt><trkpt lat="45.463301" lon="0.426353"><ele>112.13</ele><time>2010-10-11T11:15:43Z</time></trkpt><trkpt lat="45.463408" lon="0.426523"><ele>111.65</ele><time>2010-10-11T11:15:50Z</time></trkpt><trkpt lat="45.463435" lon="0.426565"><ele>111.65</ele><time>2010-10-11T11:15:51Z</time></trkpt><trkpt lat="45.463418" lon="0.426617"><ele>111.65</ele><time>2010-10-11T11:15:52Z</time></trkpt><trkpt lat="45.463508" lon="0.426672"><ele>112.61</ele><time>2010-10-11T11:16:04Z</time></trkpt><trkpt lat="45.463528" lon="0.426702"><ele>112.61</ele><time>2010-10-11T11:16:23Z</time></trkpt><trkpt lat="45.463544" lon="0.426725"><ele>112.61</ele><time>2010-10-11T11:16:24Z</time></trkpt><trkpt lat="45.463554" lon="0.426739"><ele>112.13</ele><time>2010-10-11T11:16:25Z</time></trkpt><trkpt lat="45.463554" lon="0.426739"><ele>111.65</ele><time>2010-10-11T11:16:44Z</time></trkpt><trkpt lat="45.463554" lon="0.426739"><ele>115.98</ele><time>2010-10-11T11:25:15Z</time></trkpt><trkpt lat="45.463554" lon="0.426739"><ele>116.94</ele><time>2010-10-11T11:27:02Z</time></trkpt><trkpt lat="45.463278" lon="0.427059"><ele>117.42</ele><time>2010-10-11T11:27:14Z</time></trkpt><trkpt lat="45.463276" lon="0.427039"><ele>117.42</ele><time>2010-10-11T11:27:15Z</time></trkpt><trkpt lat="45.463269" lon="0.427001"><ele>117.42</ele><time>2010-10-11T11:27:18Z</time></trkpt><trkpt lat="45.463272" lon="0.427008"><ele>117.42</ele><time>2010-10-11T11:27:19Z</time></trkpt><trkpt lat="45.463272" lon="0.427008"><ele>116.94</ele><time>2010-10-11T11:27:20Z</time></trkpt><trkpt lat="45.463272" lon="0.426887"><ele>116.94</ele><time>2010-10-11T11:27:21Z</time></trkpt><trkpt lat="45.463294" lon="0.426802"><ele>116.46</ele><time>2010-10-11T11:27:22Z</time></trkpt><trkpt lat="45.463311" lon="0.426777"><ele>115.98</ele><time>2010-10-11T11:27:23Z</time></trkpt><trkpt lat="45.463327" lon="0.426754"><ele>115.50</ele><time>2010-10-11T11:27:24Z</time></trkpt><trkpt lat="45.463342" lon="0.426731"><ele>114.53</ele><time>2010-10-11T11:27:25Z</time></trkpt><trkpt lat="45.463357" lon="0.426708"><ele>114.05</ele><time>2010-10-11T11:27:26Z</time></trkpt><trkpt lat="45.463370" lon="0.426688"><ele>113.09</ele><time>2010-10-11T11:27:27Z</time></trkpt><trkpt lat="45.463370" lon="0.426688"><ele>110.69</ele><time>2010-10-11T11:27:34Z</time></trkpt><trkpt lat="45.463370" lon="0.426688"><ele>110.21</ele><time>2010-10-11T11:27:35Z</time></trkpt><trkpt lat="45.463473" lon="0.426622"><ele>109.73</ele><time>2010-10-11T11:27:36Z</time></trkpt><trkpt lat="45.463484" lon="0.426638"><ele>109.73</ele><time>2010-10-11T11:27:37Z</time></trkpt><trkpt lat="45.463497" lon="0.426657"><ele>109.25</ele><time>2010-10-11T11:27:38Z</time></trkpt><trkpt lat="45.463515" lon="0.426682"><ele>109.25</ele><time>2010-10-11T11:27:39Z</time></trkpt><trkpt lat="45.463534" lon="0.426710"><ele>109.25</ele><time>2010-10-11T11:27:40Z</time></trkpt><trkpt lat="45.463555" lon="0.426741"><ele>109.25</ele><time>2010-10-11T11:27:41Z</time></trkpt><trkpt lat="45.463578" lon="0.426775"><ele>109.25</ele><time>2010-10-11T11:27:42Z</time></trkpt><trkpt lat="45.463607" lon="0.426816"><ele>109.73</ele><time>2010-10-11T11:27:43Z</time></trkpt><trkpt lat="45.463945" lon="0.427321"><ele>108.77</ele><time>2010-10-11T11:27:51Z</time></trkpt><trkpt lat="45.464082" lon="0.427585"><ele>108.29</ele><time>2010-10-11T11:27:54Z</time></trkpt><trkpt lat="45.464128" lon="0.427674"><ele>107.81</ele><time>2010-10-11T11:27:55Z</time></trkpt><trkpt lat="45.464175" lon="0.427764"><ele>107.81</ele><time>2010-10-11T11:27:56Z</time></trkpt><trkpt lat="45.464225" lon="0.427860"><ele>107.32</ele><time>2010-10-11T11:27:57Z</time></trkpt><trkpt lat="45.464276" lon="0.427959"><ele>107.32</ele><time>2010-10-11T11:27:58Z</time></trkpt><trkpt lat="45.464327" lon="0.428057"><ele>106.84</ele><time>2010-10-11T11:27:59Z</time></trkpt><trkpt lat="45.464427" lon="0.428249"><ele>106.36</ele><time>2010-10-11T11:28:01Z</time></trkpt><trkpt lat="45.464481" lon="0.428362"><ele>105.40</ele><time>2010-10-11T11:28:02Z</time></trkpt><trkpt lat="45.464545" lon="0.428554"><ele>104.92</ele><time>2010-10-11T11:28:04Z</time></trkpt><trkpt lat="45.464619" lon="0.428633"><ele>104.92</ele><time>2010-10-11T11:28:05Z</time></trkpt><trkpt lat="45.464698" lon="0.428682"><ele>104.92</ele><time>2010-10-11T11:28:06Z</time></trkpt><trkpt lat="45.464868" lon="0.428788"><ele>105.40</ele><time>2010-10-11T11:28:08Z</time></trkpt><trkpt lat="45.464957" lon="0.428823"><ele>105.40</ele><time>2010-10-11T11:28:09Z</time></trkpt><trkpt lat="45.465056" lon="0.428846"><ele>105.40</ele><time>2010-10-11T11:28:10Z</time></trkpt><trkpt lat="45.465158" lon="0.428870"><ele>105.88</ele><time>2010-10-11T11:28:11Z</time></trkpt><trkpt lat="45.465261" lon="0.428894"><ele>105.88</ele><time>2010-10-11T11:28:12Z</time></trkpt><trkpt lat="45.465365" lon="0.428919"><ele>106.36</ele><time>2010-10-11T11:28:13Z</time></trkpt><trkpt lat="45.465470" lon="0.428944"><ele>106.36</ele><time>2010-10-11T11:28:14Z</time></trkpt><trkpt lat="45.465781" lon="0.429007"><ele>106.84</ele><time>2010-10-11T11:28:17Z</time></trkpt><trkpt lat="45.465883" lon="0.429023"><ele>107.32</ele><time>2010-10-11T11:28:18Z</time></trkpt><trkpt lat="45.466181" lon="0.429073"><ele>108.29</ele><time>2010-10-11T11:28:21Z</time></trkpt><trkpt lat="45.466280" lon="0.429090"><ele>108.77</ele><time>2010-10-11T11:28:22Z</time></trkpt><trkpt lat="45.466378" lon="0.429106"><ele>109.25</ele><time>2010-10-11T11:28:23Z</time></trkpt><trkpt lat="45.466478" lon="0.429129"><ele>109.73</ele><time>2010-10-11T11:28:24Z</time></trkpt><trkpt lat="45.466573" lon="0.429153"><ele>110.21</ele><time>2010-10-11T11:28:25Z</time></trkpt><trkpt lat="45.467304" lon="0.429335"><ele>113.09</ele><time>2010-10-11T11:28:33Z</time></trkpt><trkpt lat="45.468282" lon="0.429898"><ele>111.65</ele><time>2010-10-11T11:28:42Z</time></trkpt><trkpt lat="45.468866" lon="0.430433"><ele>111.17</ele><time>2010-10-11T11:28:50Z</time></trkpt><trkpt lat="45.469210" lon="0.430758"><ele>109.25</ele><time>2010-10-11T11:28:59Z</time></trkpt><trkpt lat="45.469922" lon="0.431501"><ele>106.84</ele><time>2010-10-11T11:29:09Z</time></trkpt><trkpt lat="45.470443" lon="0.432296"><ele>100.11</ele><time>2010-10-11T11:29:17Z</time></trkpt><trkpt lat="45.470481" lon="0.432372"><ele>99.63</ele><time>2010-10-11T11:29:18Z</time></trkpt><trkpt lat="45.470481" lon="0.432372"><ele>99.63</ele><time>2010-10-11T11:29:19Z</time></trkpt><trkpt lat="45.470457" lon="0.432428"><ele>99.63</ele><time>2010-10-11T11:29:20Z</time></trkpt><trkpt lat="45.470437" lon="0.432473"><ele>99.63</ele><time>2010-10-11T11:29:21Z</time></trkpt><trkpt lat="45.470414" lon="0.432523"><ele>99.63</ele><time>2010-10-11T11:29:22Z</time></trkpt><trkpt lat="45.470386" lon="0.432586"><ele>99.63</ele><time>2010-10-11T11:29:23Z</time></trkpt><trkpt lat="45.470319" lon="0.432738"><ele>98.67</ele><time>2010-10-11T11:29:25Z</time></trkpt><trkpt lat="45.470310" lon="0.432868"><ele>98.67</ele><time>2010-10-11T11:29:26Z</time></trkpt><trkpt lat="45.470310" lon="0.432958"><ele>98.67</ele><time>2010-10-11T11:29:27Z</time></trkpt><trkpt lat="45.470262" lon="0.433221"><ele>98.67</ele><time>2010-10-11T11:29:30Z</time></trkpt><trkpt lat="45.470211" lon="0.433302"><ele>98.67</ele><time>2010-10-11T11:29:31Z</time></trkpt><trkpt lat="45.469697" lon="0.434275"><ele>99.15</ele><time>2010-10-11T11:29:38Z</time></trkpt><trkpt lat="45.468578" lon="0.436835"><ele>100.60</ele><time>2010-10-11T11:29:51Z</time></trkpt><trkpt lat="45.468077" lon="0.437473"><ele>101.08</ele><time>2010-10-11T11:29:55Z</time></trkpt><trkpt lat="45.466166" lon="0.438864"><ele>102.52</ele><time>2010-10-11T11:30:07Z</time></trkpt><trkpt lat="45.463814" lon="0.440486"><ele>104.92</ele><time>2010-10-11T11:30:21Z</time></trkpt><trkpt lat="45.462196" lon="0.441074"><ele>105.88</ele><time>2010-10-11T11:30:30Z</time></trkpt><trkpt lat="45.460358" lon="0.441776"><ele>108.77</ele><time>2010-10-11T11:30:40Z</time></trkpt><trkpt lat="45.460212" lon="0.441929"><ele>108.77</ele><time>2010-10-11T11:30:41Z</time></trkpt><trkpt lat="45.460068" lon="0.442100"><ele>109.25</ele><time>2010-10-11T11:30:42Z</time></trkpt><trkpt lat="45.459035" lon="0.443670"><ele>110.21</ele><time>2010-10-11T11:30:50Z</time></trkpt><trkpt lat="45.458492" lon="0.444405"><ele>110.69</ele><time>2010-10-11T11:30:54Z</time></trkpt><trkpt lat="45.458339" lon="0.444558"><ele>110.69</ele><time>2010-10-11T11:30:55Z</time></trkpt><trkpt lat="45.458179" lon="0.444696"><ele>110.69</ele><time>2010-10-11T11:30:56Z</time></trkpt><trkpt lat="45.456635" lon="0.445915"><ele>111.65</ele><time>2010-10-11T11:31:05Z</time></trkpt><trkpt lat="45.455828" lon="0.447177"><ele>111.65</ele><time>2010-10-11T11:31:11Z</time></trkpt><trkpt lat="45.455320" lon="0.449095"><ele>110.21</ele><time>2010-10-11T11:31:18Z</time></trkpt><trkpt lat="45.454744" lon="0.452775"><ele>110.69</ele><time>2010-10-11T11:31:30Z</time></trkpt><trkpt lat="45.454117" lon="0.455660"><ele>112.13</ele><time>2010-10-11T11:31:40Z</time></trkpt><trkpt lat="45.453127" lon="0.458264"><ele>110.69</ele><time>2010-10-11T11:31:50Z</time></trkpt><trkpt lat="45.453025" lon="0.458521"><ele>110.69</ele><time>2010-10-11T11:31:51Z</time></trkpt><trkpt lat="45.451926" lon="0.460481"><ele>109.73</ele><time>2010-10-11T11:31:59Z</time></trkpt><trkpt lat="45.450442" lon="0.461970"><ele>109.73</ele><time>2010-10-11T11:32:07Z</time></trkpt><trkpt lat="45.448884" lon="0.463474"><ele>111.65</ele><time>2010-10-11T11:32:16Z</time></trkpt><trkpt lat="45.447647" lon="0.465633"><ele>114.05</ele><time>2010-10-11T11:32:25Z</time></trkpt><trkpt lat="45.445203" lon="0.470281"><ele>117.42</ele><time>2010-10-11T11:32:42Z</time></trkpt><trkpt lat="45.443364" lon="0.473472"><ele>120.30</ele><time>2010-10-11T11:32:54Z</time></trkpt><trkpt lat="45.440943" lon="0.476583"><ele>121.74</ele><time>2010-10-11T11:33:08Z</time></trkpt><trkpt lat="45.440740" lon="0.476723"><ele>121.74</ele><time>2010-10-11T11:33:09Z</time></trkpt><trkpt lat="45.438156" lon="0.478498"><ele>123.19</ele><time>2010-10-11T11:33:21Z</time></trkpt><trkpt lat="45.436144" lon="0.480091"><ele>125.59</ele><time>2010-10-11T11:33:31Z</time></trkpt><trkpt lat="45.434194" lon="0.482793"><ele>126.55</ele><time>2010-10-11T11:33:43Z</time></trkpt><trkpt lat="45.433150" lon="0.485295"><ele>125.59</ele><time>2010-10-11T11:33:52Z</time></trkpt><trkpt lat="45.432054" lon="0.488107"><ele>126.55</ele><time>2010-10-11T11:34:02Z</time></trkpt><trkpt lat="45.429842" lon="0.492276"><ele>126.07</ele><time>2010-10-11T11:34:18Z</time></trkpt><trkpt lat="45.429315" lon="0.494467"><ele>124.15</ele><time>2010-10-11T11:34:25Z</time></trkpt><trkpt lat="45.428414" lon="0.498678"><ele>124.15</ele><time>2010-10-11T11:34:39Z</time></trkpt><trkpt lat="45.427994" lon="0.500699"><ele>125.11</ele><time>2010-10-11T11:34:47Z</time></trkpt><trkpt lat="45.427304" lon="0.502687"><ele>126.07</ele><time>2010-10-11T11:34:57Z</time></trkpt><trkpt lat="45.426751" lon="0.504184"><ele>127.03</ele><time>2010-10-11T11:35:04Z</time></trkpt><trkpt lat="45.426688" lon="0.504426"><ele>127.03</ele><time>2010-10-11T11:35:05Z</time></trkpt><trkpt lat="45.426377" lon="0.507280"><ele>127.51</ele><time>2010-10-11T11:35:15Z</time></trkpt><trkpt lat="45.425978" lon="0.511719"><ele>128.47</ele><time>2010-10-11T11:35:29Z</time></trkpt><trkpt lat="45.425978" lon="0.511719"><ele>128.47</ele><time>2010-10-11T11:35:30Z</time></trkpt><trkpt lat="45.426044" lon="0.512306"><ele>128.47</ele><time>2010-10-11T11:35:31Z</time></trkpt><trkpt lat="45.426110" lon="0.512592"><ele>128.95</ele><time>2010-10-11T11:35:32Z</time></trkpt><trkpt lat="45.426188" lon="0.512879"><ele>128.95</ele><time>2010-10-11T11:35:33Z</time></trkpt><trkpt lat="45.427259" lon="0.516761"><ele>129.92</ele><time>2010-10-11T11:35:46Z</time></trkpt><trkpt lat="45.427377" lon="0.517330"><ele>130.40</ele><time>2010-10-11T11:35:48Z</time></trkpt><trkpt lat="45.427412" lon="0.517613"><ele>130.40</ele><time>2010-10-11T11:35:49Z</time></trkpt><trkpt lat="45.427430" lon="0.517895"><ele>130.88</ele><time>2010-10-11T11:35:50Z</time></trkpt><trkpt lat="45.427403" lon="0.518178"><ele>131.36</ele><time>2010-10-11T11:35:51Z</time></trkpt><trkpt lat="45.427376" lon="0.518465"><ele>131.36</ele><time>2010-10-11T11:35:52Z</time></trkpt><trkpt lat="45.427342" lon="0.518749"><ele>131.84</ele><time>2010-10-11T11:35:53Z</time></trkpt><trkpt lat="45.427263" lon="0.519016"><ele>132.32</ele><time>2010-10-11T11:35:54Z</time></trkpt><trkpt lat="45.427183" lon="0.519286"><ele>132.80</ele><time>2010-10-11T11:35:55Z</time></trkpt><trkpt lat="45.426094" lon="0.522989"><ele>136.64</ele><time>2010-10-11T11:36:08Z</time></trkpt><trkpt lat="45.425982" lon="0.523550"><ele>137.13</ele><time>2010-10-11T11:36:10Z</time></trkpt><trkpt lat="45.425961" lon="0.523845"><ele>137.13</ele><time>2010-10-11T11:36:11Z</time></trkpt><trkpt lat="45.425813" lon="0.525239"><ele>138.57</ele><time>2010-10-11T11:36:16Z</time></trkpt><trkpt lat="45.425748" lon="0.525483"><ele>138.57</ele><time>2010-10-11T11:36:17Z</time></trkpt><trkpt lat="45.425675" lon="0.525709"><ele>138.57</ele><time>2010-10-11T11:36:18Z</time></trkpt><trkpt lat="45.425593" lon="0.525932"><ele>138.57</ele><time>2010-10-11T11:36:19Z</time></trkpt><trkpt lat="45.425510" lon="0.526156"><ele>138.57</ele><time>2010-10-11T11:36:20Z</time></trkpt><trkpt lat="45.425427" lon="0.526380"><ele>139.05</ele><time>2010-10-11T11:36:21Z</time></trkpt><trkpt lat="45.425317" lon="0.526580"><ele>139.05</ele><time>2010-10-11T11:36:22Z</time></trkpt><trkpt lat="45.425200" lon="0.526783"><ele>139.05</ele><time>2010-10-11T11:36:23Z</time></trkpt><trkpt lat="45.424251" lon="0.528809"><ele>140.97</ele><time>2010-10-11T11:36:32Z</time></trkpt><trkpt lat="45.424207" lon="0.529075"><ele>141.45</ele><time>2010-10-11T11:36:33Z</time></trkpt><trkpt lat="45.424184" lon="0.529353"><ele>141.93</ele><time>2010-10-11T11:36:34Z</time></trkpt><trkpt lat="45.424160" lon="0.529634"><ele>141.93</ele><time>2010-10-11T11:36:35Z</time></trkpt><trkpt lat="45.424137" lon="0.529915"><ele>141.93</ele><time>2010-10-11T11:36:36Z</time></trkpt><trkpt lat="45.424133" lon="0.530200"><ele>142.41</ele><time>2010-10-11T11:36:37Z</time></trkpt><trkpt lat="45.423932" lon="0.533027"><ele>144.34</ele><time>2010-10-11T11:36:47Z</time></trkpt><trkpt lat="45.423453" lon="0.534582"><ele>146.74</ele><time>2010-10-11T11:36:54Z</time></trkpt><trkpt lat="45.422494" lon="0.536709"><ele>149.14</ele><time>2010-10-11T11:37:06Z</time></trkpt><trkpt lat="45.422264" lon="0.537106"><ele>150.10</ele><time>2010-10-11T11:37:09Z</time></trkpt><trkpt lat="45.422200" lon="0.537219"><ele>150.10</ele><time>2010-10-11T11:37:10Z</time></trkpt><trkpt lat="45.422152" lon="0.537349"><ele>150.10</ele><time>2010-10-11T11:37:11Z</time></trkpt><trkpt lat="45.421622" lon="0.539032"><ele>150.10</ele><time>2010-10-11T11:37:22Z</time></trkpt><trkpt lat="45.421515" lon="0.539775"><ele>150.58</ele><time>2010-10-11T11:37:26Z</time></trkpt><trkpt lat="45.421438" lon="0.541616"><ele>151.06</ele><time>2010-10-11T11:37:34Z</time></trkpt><trkpt lat="45.421320" lon="0.542110"><ele>151.06</ele><time>2010-10-11T11:37:36Z</time></trkpt><trkpt lat="45.421236" lon="0.542348"><ele>151.54</ele><time>2010-10-11T11:37:37Z</time></trkpt><trkpt lat="45.420175" lon="0.544888"><ele>152.99</ele><time>2010-10-11T11:37:47Z</time></trkpt><trkpt lat="45.418972" lon="0.547292"><ele>160.68</ele><time>2010-10-11T11:37:57Z</time></trkpt><trkpt lat="45.417763" lon="0.548204"><ele>169.33</ele><time>2010-10-11T11:38:04Z</time></trkpt><trkpt lat="45.415785" lon="0.549218"><ele>182.79</ele><time>2010-10-11T11:38:15Z</time></trkpt><trkpt lat="45.414860" lon="0.550295"><ele>188.56</ele><time>2010-10-11T11:38:21Z</time></trkpt><trkpt lat="45.414215" lon="0.551933"><ele>190.48</ele><time>2010-10-11T11:38:27Z</time></trkpt><trkpt lat="45.413859" lon="0.554288"><ele>185.19</ele><time>2010-10-11T11:38:34Z</time></trkpt><trkpt lat="45.413325" lon="0.557814"><ele>172.69</ele><time>2010-10-11T11:38:44Z</time></trkpt><trkpt lat="45.412797" lon="0.559596"><ele>166.45</ele><time>2010-10-11T11:38:50Z</time></trkpt><trkpt lat="45.411601" lon="0.561877"><ele>159.72</ele><time>2010-10-11T11:38:58Z</time></trkpt><trkpt lat="45.410154" lon="0.564898"><ele>151.54</ele><time>2010-10-11T11:39:09Z</time></trkpt><trkpt lat="45.409642" lon="0.567413"><ele>145.78</ele><time>2010-10-11T11:39:17Z</time></trkpt><trkpt lat="45.409610" lon="0.569720"><ele>143.85</ele><time>2010-10-11T11:39:24Z</time></trkpt><trkpt lat="45.409715" lon="0.572895"><ele>148.66</ele><time>2010-10-11T11:39:34Z</time></trkpt><trkpt lat="45.409362" lon="0.574970"><ele>153.95</ele><time>2010-10-11T11:39:42Z</time></trkpt><trkpt lat="45.408340" lon="0.577445"><ele>152.99</ele><time>2010-10-11T11:39:50Z</time></trkpt><trkpt lat="45.407637" lon="0.579429"><ele>147.22</ele><time>2010-10-11T11:39:57Z</time></trkpt><trkpt lat="45.407487" lon="0.580923"><ele>142.41</ele><time>2010-10-11T11:40:02Z</time></trkpt><trkpt lat="45.407561" lon="0.583499"><ele>135.68</ele><time>2010-10-11T11:40:11Z</time></trkpt><trkpt lat="45.407519" lon="0.584359"><ele>132.32</ele><time>2010-10-11T11:40:14Z</time></trkpt><trkpt lat="45.406907" lon="0.587577"><ele>123.19</ele><time>2010-10-11T11:40:25Z</time></trkpt><trkpt lat="45.406122" lon="0.590832"><ele>127.03</ele><time>2010-10-11T11:40:37Z</time></trkpt><trkpt lat="45.405132" lon="0.594275"><ele>131.84</ele><time>2010-10-11T11:40:49Z</time></trkpt><trkpt lat="45.404195" lon="0.598194"><ele>138.09</ele><time>2010-10-11T11:41:03Z</time></trkpt><trkpt lat="45.404018" lon="0.600350"><ele>140.01</ele><time>2010-10-11T11:41:11Z</time></trkpt><trkpt lat="45.403501" lon="0.602372"><ele>142.89</ele><time>2010-10-11T11:41:20Z</time></trkpt><trkpt lat="45.402576" lon="0.604702"><ele>145.30</ele><time>2010-10-11T11:41:30Z</time></trkpt><trkpt lat="45.401066" lon="0.607453"><ele>148.66</ele><time>2010-10-11T11:41:42Z</time></trkpt><trkpt lat="45.399282" lon="0.610809"><ele>158.75</ele><time>2010-10-11T11:41:55Z</time></trkpt><trkpt lat="45.399181" lon="0.611101"><ele>159.72</ele><time>2010-10-11T11:41:56Z</time></trkpt><trkpt lat="45.398390" lon="0.614037"><ele>166.93</ele><time>2010-10-11T11:42:06Z</time></trkpt><trkpt lat="45.397895" lon="0.617361"><ele>159.72</ele><time>2010-10-11T11:42:17Z</time></trkpt><trkpt lat="45.397169" lon="0.621799"><ele>157.79</ele><time>2010-10-11T11:42:32Z</time></trkpt><trkpt lat="45.396582" lon="0.623425"><ele>160.68</ele><time>2010-10-11T11:42:38Z</time></trkpt><trkpt lat="45.396449" lon="0.623662"><ele>160.68</ele><time>2010-10-11T11:42:39Z</time></trkpt><trkpt lat="45.395354" lon="0.624665"><ele>161.64</ele><time>2010-10-11T11:42:45Z</time></trkpt><trkpt lat="45.393344" lon="0.625533"><ele>157.79</ele><time>2010-10-11T11:42:54Z</time></trkpt><trkpt lat="45.390621" lon="0.626746"><ele>164.04</ele><time>2010-10-11T11:43:07Z</time></trkpt><trkpt lat="45.389244" lon="0.627971"><ele>168.85</ele><time>2010-10-11T11:43:15Z</time></trkpt><trkpt lat="45.387768" lon="0.630046"><ele>177.98</ele><time>2010-10-11T11:43:25Z</time></trkpt><trkpt lat="45.387592" lon="0.630204"><ele>178.94</ele><time>2010-10-11T11:43:26Z</time></trkpt><trkpt lat="45.387415" lon="0.630357"><ele>180.38</ele><time>2010-10-11T11:43:27Z</time></trkpt><trkpt lat="45.387223" lon="0.630477"><ele>181.35</ele><time>2010-10-11T11:43:28Z</time></trkpt><trkpt lat="45.387026" lon="0.630573"><ele>182.31</ele><time>2010-10-11T11:43:29Z</time></trkpt><trkpt lat="45.386822" lon="0.630624"><ele>183.27</ele><time>2010-10-11T11:43:30Z</time></trkpt><trkpt lat="45.386614" lon="0.630650"><ele>184.23</ele><time>2010-10-11T11:43:31Z</time></trkpt><trkpt lat="45.386405" lon="0.630664"><ele>185.19</ele><time>2010-10-11T11:43:32Z</time></trkpt><trkpt lat="45.385352" lon="0.630824"><ele>188.56</ele><time>2010-10-11T11:43:37Z</time></trkpt><trkpt lat="45.385145" lon="0.630891"><ele>189.04</ele><time>2010-10-11T11:43:38Z</time></trkpt><trkpt lat="45.384942" lon="0.631004"><ele>190.00</ele><time>2010-10-11T11:43:39Z</time></trkpt><trkpt lat="45.383128" lon="0.632310"><ele>191.92</ele><time>2010-10-11T11:43:48Z</time></trkpt><trkpt lat="45.382955" lon="0.632497"><ele>191.92</ele><time>2010-10-11T11:43:49Z</time></trkpt><trkpt lat="45.382809" lon="0.632718"><ele>191.92</ele><time>2010-10-11T11:43:50Z</time></trkpt><trkpt lat="45.382661" lon="0.632939"><ele>191.92</ele><time>2010-10-11T11:43:51Z</time></trkpt><trkpt lat="45.382543" lon="0.633182"><ele>191.44</ele><time>2010-10-11T11:43:52Z</time></trkpt><trkpt lat="45.382451" lon="0.633449"><ele>190.96</ele><time>2010-10-11T11:43:53Z</time></trkpt><trkpt lat="45.382358" lon="0.633718"><ele>190.00</ele><time>2010-10-11T11:43:54Z</time></trkpt><trkpt lat="45.382264" lon="0.633988"><ele>189.04</ele><time>2010-10-11T11:43:55Z</time></trkpt><trkpt lat="45.381407" lon="0.636102"><ele>179.90</ele><time>2010-10-11T11:44:03Z</time></trkpt><trkpt lat="45.381258" lon="0.636316"><ele>178.94</ele><time>2010-10-11T11:44:04Z</time></trkpt><trkpt lat="45.381104" lon="0.636512"><ele>177.50</ele><time>2010-10-11T11:44:05Z</time></trkpt><trkpt lat="45.379615" lon="0.638221"><ele>168.37</ele><time>2010-10-11T11:44:15Z</time></trkpt><trkpt lat="45.378951" lon="0.639824"><ele>161.64</ele><time>2010-10-11T11:44:23Z</time></trkpt><trkpt lat="45.378085" lon="0.641885"><ele>152.99</ele><time>2010-10-11T11:44:34Z</time></trkpt><trkpt lat="45.378085" lon="0.641885"><ele>152.51</ele><time>2010-10-11T11:44:35Z</time></trkpt><trkpt lat="45.378010" lon="0.641885"><ele>152.03</ele><time>2010-10-11T11:44:36Z</time></trkpt><trkpt lat="45.377707" lon="0.642002"><ele>150.58</ele><time>2010-10-11T11:44:39Z</time></trkpt><trkpt lat="45.377607" lon="0.641969"><ele>150.10</ele><time>2010-10-11T11:44:40Z</time></trkpt><trkpt lat="45.377484" lon="0.641928"><ele>150.10</ele><time>2010-10-11T11:44:41Z</time></trkpt><trkpt lat="45.377434" lon="0.641831"><ele>149.62</ele><time>2010-10-11T11:44:42Z</time></trkpt><trkpt lat="45.377364" lon="0.641696"><ele>149.62</ele><time>2010-10-11T11:44:43Z</time></trkpt><trkpt lat="45.377290" lon="0.641551"><ele>149.62</ele><time>2010-10-11T11:44:44Z</time></trkpt><trkpt lat="45.376499" lon="0.640164"><ele>153.47</ele><time>2010-10-11T11:44:52Z</time></trkpt><trkpt lat="45.375830" lon="0.639349"><ele>156.83</ele><time>2010-10-11T11:44:57Z</time></trkpt><trkpt lat="45.375691" lon="0.639192"><ele>157.31</ele><time>2010-10-11T11:44:58Z</time></trkpt><trkpt lat="45.375522" lon="0.639090"><ele>157.79</ele><time>2010-10-11T11:44:59Z</time></trkpt><trkpt lat="45.375352" lon="0.638997"><ele>158.75</ele><time>2010-10-11T11:45:00Z</time></trkpt><trkpt lat="45.375176" lon="0.638924"><ele>159.72</ele><time>2010-10-11T11:45:01Z</time></trkpt><trkpt lat="45.373881" lon="0.638722"><ele>165.96</ele><time>2010-10-11T11:45:08Z</time></trkpt><trkpt lat="45.371833" lon="0.638828"><ele>171.73</ele><time>2010-10-11T11:45:19Z</time></trkpt><trkpt lat="45.369109" lon="0.638940"><ele>170.29</ele><time>2010-10-11T11:45:34Z</time></trkpt><trkpt lat="45.366807" lon="0.639079"><ele>158.27</ele><time>2010-10-11T11:45:45Z</time></trkpt><trkpt lat="45.364107" lon="0.639444"><ele>142.89</ele><time>2010-10-11T11:45:57Z</time></trkpt><trkpt lat="45.360906" lon="0.640035"><ele>126.07</ele><time>2010-10-11T11:46:12Z</time></trkpt><trkpt lat="45.358671" lon="0.640779"><ele>113.09</ele><time>2010-10-11T11:46:24Z</time></trkpt><trkpt lat="45.356789" lon="0.642112"><ele>103.48</ele><time>2010-10-11T11:46:35Z</time></trkpt><trkpt lat="45.354235" lon="0.644165"><ele>108.29</ele><time>2010-10-11T11:46:50Z</time></trkpt><trkpt lat="45.353573" lon="0.645480"><ele>112.13</ele><time>2010-10-11T11:46:56Z</time></trkpt><trkpt lat="45.353343" lon="0.647360"><ele>113.09</ele><time>2010-10-11T11:47:03Z</time></trkpt><trkpt lat="45.353546" lon="0.649846"><ele>109.73</ele><time>2010-10-11T11:47:12Z</time></trkpt><trkpt lat="45.353781" lon="0.652093"><ele>112.13</ele><time>2010-10-11T11:47:22Z</time></trkpt><trkpt lat="45.353762" lon="0.652784"><ele>113.57</ele><time>2010-10-11T11:47:29Z</time></trkpt><trkpt lat="45.353795" lon="0.652948"><ele>113.57</ele><time>2010-10-11T11:47:30Z</time></trkpt><trkpt lat="45.353752" lon="0.652957"><ele>113.09</ele><time>2010-10-11T11:47:31Z</time></trkpt><trkpt lat="45.353696" lon="0.653013"><ele>113.09</ele><time>2010-10-11T11:47:32Z</time></trkpt><trkpt lat="45.353636" lon="0.653072"><ele>113.09</ele><time>2010-10-11T11:47:33Z</time></trkpt><trkpt lat="45.353583" lon="0.653185"><ele>113.09</ele><time>2010-10-11T11:47:34Z</time></trkpt><trkpt lat="45.353542" lon="0.653331"><ele>113.57</ele><time>2010-10-11T11:47:35Z</time></trkpt><trkpt lat="45.353558" lon="0.653445"><ele>114.05</ele><time>2010-10-11T11:47:36Z</time></trkpt><trkpt lat="45.353575" lon="0.653567"><ele>114.05</ele><time>2010-10-11T11:47:37Z</time></trkpt><trkpt lat="45.353612" lon="0.653682"><ele>114.53</ele><time>2010-10-11T11:47:38Z</time></trkpt><trkpt lat="45.353655" lon="0.653789"><ele>114.05</ele><time>2010-10-11T11:47:39Z</time></trkpt><trkpt lat="45.353719" lon="0.653868"><ele>114.05</ele><time>2010-10-11T11:47:40Z</time></trkpt><trkpt lat="45.353791" lon="0.653978"><ele>114.05</ele><time>2010-10-11T11:47:41Z</time></trkpt><trkpt lat="45.353780" lon="0.654075"><ele>114.53</ele><time>2010-10-11T11:47:42Z</time></trkpt><trkpt lat="45.353768" lon="0.654186"><ele>114.53</ele><time>2010-10-11T11:47:43Z</time></trkpt><trkpt lat="45.353754" lon="0.654311"><ele>114.53</ele><time>2010-10-11T11:47:44Z</time></trkpt><trkpt lat="45.353739" lon="0.654446"><ele>114.53</ele><time>2010-10-11T11:47:45Z</time></trkpt><trkpt lat="45.353723" lon="0.654587"><ele>115.01</ele><time>2010-10-11T11:47:46Z</time></trkpt><trkpt lat="45.353703" lon="0.654729"><ele>115.01</ele><time>2010-10-11T11:47:47Z</time></trkpt><trkpt lat="45.353643" lon="0.654857"><ele>115.50</ele><time>2010-10-11T11:47:48Z</time></trkpt><trkpt lat="45.353586" lon="0.654980"><ele>115.50</ele><time>2010-10-11T11:47:49Z</time></trkpt><trkpt lat="45.352890" lon="0.655964"><ele>120.78</ele><time>2010-10-11T11:47:58Z</time></trkpt><trkpt lat="45.352525" lon="0.656271"><ele>124.15</ele><time>2010-10-11T11:48:02Z</time></trkpt><trkpt lat="45.352306" lon="0.656424"><ele>127.99</ele><time>2010-10-11T11:48:07Z</time></trkpt><trkpt lat="45.352290" lon="0.656434"><ele>128.95</ele><time>2010-10-11T11:48:09Z</time></trkpt><trkpt lat="45.352280" lon="0.656577"><ele>129.43</ele><time>2010-10-11T11:48:10Z</time></trkpt><trkpt lat="45.352280" lon="0.656577"><ele>129.43</ele><time>2010-10-11T11:48:11Z</time></trkpt><trkpt lat="45.352262" lon="0.656764"><ele>129.43</ele><time>2010-10-11T11:48:12Z</time></trkpt><trkpt lat="45.352252" lon="0.656874"><ele>128.95</ele><time>2010-10-11T11:48:13Z</time></trkpt><trkpt lat="45.352230" lon="0.656977"><ele>128.95</ele><time>2010-10-11T11:48:14Z</time></trkpt><trkpt lat="45.352201" lon="0.657086"><ele>128.95</ele><time>2010-10-11T11:48:15Z</time></trkpt><trkpt lat="45.351889" lon="0.658238"><ele>134.72</ele><time>2010-10-11T11:48:25Z</time></trkpt><trkpt lat="45.351825" lon="0.658477"><ele>135.68</ele><time>2010-10-11T11:48:26Z</time></trkpt><trkpt lat="45.351760" lon="0.658568"><ele>137.61</ele><time>2010-10-11T11:48:28Z</time></trkpt><trkpt lat="45.351649" lon="0.658708"><ele>138.57</ele><time>2010-10-11T11:48:29Z</time></trkpt><trkpt lat="45.351092" lon="0.659393"><ele>145.78</ele><time>2010-10-11T11:48:37Z</time></trkpt><trkpt lat="45.351021" lon="0.659500"><ele>146.74</ele><time>2010-10-11T11:48:38Z</time></trkpt><trkpt lat="45.350965" lon="0.659642"><ele>147.22</ele><time>2010-10-11T11:48:39Z</time></trkpt><trkpt lat="45.350841" lon="0.660016"><ele>151.06</ele><time>2010-10-11T11:48:43Z</time></trkpt><trkpt lat="45.350841" lon="0.660016"><ele>151.54</ele><time>2010-10-11T11:48:44Z</time></trkpt><trkpt lat="45.350938" lon="0.659996"><ele>152.03</ele><time>2010-10-11T11:48:45Z</time></trkpt><trkpt lat="45.350953" lon="0.659990"><ele>152.51</ele><time>2010-10-11T11:48:46Z</time></trkpt><trkpt lat="45.350955" lon="0.659989"><ele>153.47</ele><time>2010-10-11T11:48:51Z</time></trkpt><trkpt lat="45.350841" lon="0.660017"><ele>152.51</ele><time>2010-10-11T11:48:57Z</time></trkpt><trkpt lat="45.350848" lon="0.659995"><ele>152.51</ele><time>2010-10-11T11:48:58Z</time></trkpt><trkpt lat="45.350854" lon="0.659977"><ele>152.51</ele><time>2010-10-11T11:48:59Z</time></trkpt><trkpt lat="45.350854" lon="0.659977"><ele>152.51</ele><time>2010-10-11T11:49:18Z</time></trkpt><trkpt lat="45.350872" lon="0.659923"><ele>151.06</ele><time>2010-10-11T11:49:54Z</time></trkpt><trkpt lat="45.350887" lon="0.659878"><ele>150.58</ele><time>2010-10-11T11:49:55Z</time></trkpt><trkpt lat="45.350909" lon="0.659812"><ele>150.58</ele><time>2010-10-11T11:49:56Z</time></trkpt><trkpt lat="45.350934" lon="0.659736"><ele>150.10</ele><time>2010-10-11T11:49:57Z</time></trkpt><trkpt lat="45.350958" lon="0.659666"><ele>149.62</ele><time>2010-10-11T11:49:58Z</time></trkpt><trkpt lat="45.350980" lon="0.659598"><ele>149.14</ele><time>2010-10-11T11:49:59Z</time></trkpt><trkpt lat="45.351019" lon="0.659503"><ele>149.14</ele><time>2010-10-11T11:50:00Z</time></trkpt><trkpt lat="45.351066" lon="0.659432"><ele>148.66</ele><time>2010-10-11T11:50:01Z</time></trkpt><trkpt lat="45.351122" lon="0.659348"><ele>147.22</ele><time>2010-10-11T11:50:02Z</time></trkpt><trkpt lat="45.351178" lon="0.659264"><ele>146.74</ele><time>2010-10-11T11:50:03Z</time></trkpt><trkpt lat="45.351764" lon="0.658563"><ele>139.53</ele><time>2010-10-11T11:50:12Z</time></trkpt><trkpt lat="45.351827" lon="0.658471"><ele>138.57</ele><time>2010-10-11T11:50:13Z</time></trkpt><trkpt lat="45.351857" lon="0.658357"><ele>138.09</ele><time>2010-10-11T11:50:14Z</time></trkpt><trkpt lat="45.351920" lon="0.658125"><ele>136.64</ele><time>2010-10-11T11:50:16Z</time></trkpt><trkpt lat="45.352256" lon="0.656835"><ele>130.88</ele><time>2010-10-11T11:50:27Z</time></trkpt><trkpt lat="45.352265" lon="0.656737"><ele>130.88</ele><time>2010-10-11T11:50:28Z</time></trkpt><trkpt lat="45.352272" lon="0.656658"><ele>130.40</ele><time>2010-10-11T11:50:29Z</time></trkpt><trkpt lat="45.352277" lon="0.656605"><ele>130.40</ele><time>2010-10-11T11:50:30Z</time></trkpt><trkpt lat="45.352280" lon="0.656574"><ele>130.40</ele><time>2010-10-11T11:50:31Z</time></trkpt><trkpt lat="45.352282" lon="0.656545"><ele>130.88</ele><time>2010-10-11T11:50:39Z</time></trkpt><trkpt lat="45.352282" lon="0.656545"><ele>130.40</ele><time>2010-10-11T11:50:40Z</time></trkpt><trkpt lat="45.352202" lon="0.656469"><ele>130.40</ele><time>2010-10-11T11:50:41Z</time></trkpt><trkpt lat="45.352132" lon="0.656497"><ele>130.40</ele><time>2010-10-11T11:50:42Z</time></trkpt><trkpt lat="45.352041" lon="0.656533"><ele>130.40</ele><time>2010-10-11T11:50:43Z</time></trkpt><trkpt lat="45.351933" lon="0.656573"><ele>130.88</ele><time>2010-10-11T11:50:44Z</time></trkpt><trkpt lat="45.350967" lon="0.656690"><ele>135.68</ele><time>2010-10-11T11:50:52Z</time></trkpt><trkpt lat="45.349887" lon="0.656344"><ele>142.89</ele><time>2010-10-11T11:51:01Z</time></trkpt><trkpt lat="45.348530" lon="0.655518"><ele>151.54</ele><time>2010-10-11T11:51:09Z</time></trkpt><trkpt lat="45.346379" lon="0.654308"><ele>152.03</ele><time>2010-10-11T11:51:21Z</time></trkpt><trkpt lat="45.344927" lon="0.654083"><ele>145.30</ele><time>2010-10-11T11:51:29Z</time></trkpt><trkpt lat="45.343009" lon="0.654194"><ele>137.61</ele><time>2010-10-11T11:51:38Z</time></trkpt><trkpt lat="45.341489" lon="0.653768"><ele>131.36</ele><time>2010-10-11T11:51:45Z</time></trkpt><trkpt lat="45.340220" lon="0.652886"><ele>127.51</ele><time>2010-10-11T11:51:52Z</time></trkpt><trkpt lat="45.338777" lon="0.651248"><ele>132.80</ele><time>2010-10-11T11:52:01Z</time></trkpt><trkpt lat="45.336965" lon="0.649252"><ele>144.34</ele><time>2010-10-11T11:52:12Z</time></trkpt><trkpt lat="45.335617" lon="0.648626"><ele>152.03</ele><time>2010-10-11T11:52:19Z</time></trkpt><trkpt lat="45.331599" lon="0.647576"><ele>170.77</ele><time>2010-10-11T11:52:39Z</time></trkpt><trkpt lat="45.328404" lon="0.646744"><ele>178.46</ele><time>2010-10-11T11:52:55Z</time></trkpt><trkpt lat="45.325979" lon="0.646581"><ele>181.35</ele><time>2010-10-11T11:53:06Z</time></trkpt><trkpt lat="45.324355" lon="0.646777"><ele>179.90</ele><time>2010-10-11T11:53:14Z</time></trkpt><trkpt lat="45.322442" lon="0.647382"><ele>177.02</ele><time>2010-10-11T11:53:24Z</time></trkpt><trkpt lat="45.319415" lon="0.648460"><ele>177.50</ele><time>2010-10-11T11:53:38Z</time></trkpt><trkpt lat="45.317227" lon="0.649445"><ele>178.94</ele><time>2010-10-11T11:53:48Z</time></trkpt><trkpt lat="45.315655" lon="0.650904"><ele>182.31</ele><time>2010-10-11T11:53:56Z</time></trkpt><trkpt lat="45.313312" lon="0.653066"><ele>190.96</ele><time>2010-10-11T11:54:08Z</time></trkpt><trkpt lat="45.312465" lon="0.653608"><ele>194.32</ele><time>2010-10-11T11:54:13Z</time></trkpt><trkpt lat="45.312288" lon="0.653671"><ele>195.28</ele><time>2010-10-11T11:54:14Z</time></trkpt><trkpt lat="45.312115" lon="0.653730"><ele>196.25</ele><time>2010-10-11T11:54:15Z</time></trkpt><trkpt lat="45.311932" lon="0.653748"><ele>197.21</ele><time>2010-10-11T11:54:16Z</time></trkpt><trkpt lat="45.311746" lon="0.653765"><ele>198.17</ele><time>2010-10-11T11:54:17Z</time></trkpt><trkpt lat="45.310239" lon="0.653942"><ele>202.01</ele><time>2010-10-11T11:54:25Z</time></trkpt><trkpt lat="45.310062" lon="0.654031"><ele>202.98</ele><time>2010-10-11T11:54:26Z</time></trkpt><trkpt lat="45.309882" lon="0.654121"><ele>203.46</ele><time>2010-10-11T11:54:27Z</time></trkpt><trkpt lat="45.309701" lon="0.654211"><ele>204.42</ele><time>2010-10-11T11:54:28Z</time></trkpt><trkpt lat="45.309528" lon="0.654340"><ele>204.90</ele><time>2010-10-11T11:54:29Z</time></trkpt><trkpt lat="45.307889" lon="0.656028"><ele>212.11</ele><time>2010-10-11T11:54:39Z</time></trkpt><trkpt lat="45.307182" lon="0.657746"><ele>215.95</ele><time>2010-10-11T11:54:46Z</time></trkpt><trkpt lat="45.306981" lon="0.659771"><ele>220.28</ele><time>2010-10-11T11:54:53Z</time></trkpt><trkpt lat="45.306903" lon="0.661059"><ele>223.16</ele><time>2010-10-11T11:54:58Z</time></trkpt><trkpt lat="45.306848" lon="0.661295"><ele>223.64</ele><time>2010-10-11T11:54:59Z</time></trkpt><trkpt lat="45.306756" lon="0.661518"><ele>224.12</ele><time>2010-10-11T11:55:00Z</time></trkpt><trkpt lat="45.306661" lon="0.661747"><ele>224.12</ele><time>2010-10-11T11:55:01Z</time></trkpt><trkpt lat="45.306562" lon="0.661965"><ele>224.61</ele><time>2010-10-11T11:55:02Z</time></trkpt><trkpt lat="45.306432" lon="0.662160"><ele>225.09</ele><time>2010-10-11T11:55:03Z</time></trkpt><trkpt lat="45.306303" lon="0.662353"><ele>225.09</ele><time>2010-10-11T11:55:04Z</time></trkpt><trkpt lat="45.306179" lon="0.662539"><ele>225.57</ele><time>2010-10-11T11:55:05Z</time></trkpt><trkpt lat="45.306020" lon="0.662651"><ele>226.05</ele><time>2010-10-11T11:55:06Z</time></trkpt><trkpt lat="45.305854" lon="0.662748"><ele>226.53</ele><time>2010-10-11T11:55:07Z</time></trkpt><trkpt lat="45.305686" lon="0.662846"><ele>227.01</ele><time>2010-10-11T11:55:08Z</time></trkpt><trkpt lat="45.305519" lon="0.662908"><ele>227.97</ele><time>2010-10-11T11:55:09Z</time></trkpt><trkpt lat="45.305343" lon="0.662961"><ele>228.45</ele><time>2010-10-11T11:55:10Z</time></trkpt><trkpt lat="45.305171" lon="0.662995"><ele>228.93</ele><time>2010-10-11T11:55:11Z</time></trkpt><trkpt lat="45.304983" lon="0.662978"><ele>228.93</ele><time>2010-10-11T11:55:12Z</time></trkpt><trkpt lat="45.304792" lon="0.662961"><ele>228.45</ele><time>2010-10-11T11:55:13Z</time></trkpt><trkpt lat="45.304610" lon="0.662923"><ele>228.45</ele><time>2010-10-11T11:55:14Z</time></trkpt><trkpt lat="45.304425" lon="0.662877"><ele>229.41</ele><time>2010-10-11T11:55:15Z</time></trkpt><trkpt lat="45.304249" lon="0.662769"><ele>229.89</ele><time>2010-10-11T11:55:16Z</time></trkpt><trkpt lat="45.304072" lon="0.662643"><ele>229.89</ele><time>2010-10-11T11:55:17Z</time></trkpt><trkpt lat="45.303899" lon="0.662502"><ele>229.89</ele><time>2010-10-11T11:55:18Z</time></trkpt><trkpt lat="45.303734" lon="0.662346"><ele>230.85</ele><time>2010-10-11T11:55:19Z</time></trkpt><trkpt lat="45.302455" lon="0.661443"><ele>235.66</ele><time>2010-10-11T11:55:26Z</time></trkpt><trkpt lat="45.300516" lon="0.660752"><ele>237.10</ele><time>2010-10-11T11:55:36Z</time></trkpt><trkpt lat="45.298303" lon="0.659930"><ele>233.26</ele><time>2010-10-11T11:55:47Z</time></trkpt><trkpt lat="45.297193" lon="0.659890"><ele>231.81</ele><time>2010-10-11T11:55:53Z</time></trkpt><trkpt lat="45.297017" lon="0.659940"><ele>231.33</ele><time>2010-10-11T11:55:54Z</time></trkpt><trkpt lat="45.295872" lon="0.660797"><ele>226.05</ele><time>2010-10-11T11:56:01Z</time></trkpt><trkpt lat="45.294842" lon="0.662407"><ele>222.20</ele><time>2010-10-11T11:56:08Z</time></trkpt><trkpt lat="45.292944" lon="0.665721"><ele>215.95</ele><time>2010-10-11T11:56:20Z</time></trkpt><trkpt lat="45.291565" lon="0.667668"><ele>214.03</ele><time>2010-10-11T11:56:28Z</time></trkpt><trkpt lat="45.290113" lon="0.669323"><ele>209.22</ele><time>2010-10-11T11:56:37Z</time></trkpt><trkpt lat="45.288902" lon="0.670603"><ele>203.46</ele><time>2010-10-11T11:56:46Z</time></trkpt><trkpt lat="45.288787" lon="0.670670"><ele>202.98</ele><time>2010-10-11T11:56:47Z</time></trkpt><trkpt lat="45.288664" lon="0.670721"><ele>202.49</ele><time>2010-10-11T11:56:48Z</time></trkpt><trkpt lat="45.288537" lon="0.670774"><ele>202.01</ele><time>2010-10-11T11:56:49Z</time></trkpt><trkpt lat="45.288402" lon="0.670831"><ele>201.53</ele><time>2010-10-11T11:56:50Z</time></trkpt><trkpt lat="45.286874" lon="0.671245"><ele>197.21</ele><time>2010-10-11T11:56:59Z</time></trkpt><trkpt lat="45.285796" lon="0.671774"><ele>192.40</ele><time>2010-10-11T11:57:06Z</time></trkpt><trkpt lat="45.285401" lon="0.672228"><ele>190.96</ele><time>2010-10-11T11:57:09Z</time></trkpt><trkpt lat="45.285298" lon="0.672413"><ele>190.48</ele><time>2010-10-11T11:57:10Z</time></trkpt><trkpt lat="45.285196" lon="0.672597"><ele>189.52</ele><time>2010-10-11T11:57:11Z</time></trkpt><trkpt lat="45.285092" lon="0.672784"><ele>188.56</ele><time>2010-10-11T11:57:12Z</time></trkpt><trkpt lat="45.285001" lon="0.672986"><ele>188.08</ele><time>2010-10-11T11:57:13Z</time></trkpt><trkpt lat="45.284917" lon="0.673212"><ele>187.59</ele><time>2010-10-11T11:57:14Z</time></trkpt><trkpt lat="45.284114" lon="0.675179"><ele>181.83</ele><time>2010-10-11T11:57:22Z</time></trkpt><trkpt lat="45.283982" lon="0.675407"><ele>180.87</ele><time>2010-10-11T11:57:23Z</time></trkpt><trkpt lat="45.283831" lon="0.675624"><ele>180.38</ele><time>2010-10-11T11:57:24Z</time></trkpt><trkpt lat="45.283653" lon="0.675791"><ele>178.94</ele><time>2010-10-11T11:57:25Z</time></trkpt><trkpt lat="45.283475" lon="0.675958"><ele>178.46</ele><time>2010-10-11T11:57:26Z</time></trkpt><trkpt lat="45.283297" lon="0.676126"><ele>178.46</ele><time>2010-10-11T11:57:27Z</time></trkpt><trkpt lat="45.283103" lon="0.676277"><ele>177.98</ele><time>2010-10-11T11:57:28Z</time></trkpt><trkpt lat="45.280516" lon="0.677894"><ele>172.21</ele><time>2010-10-11T11:57:40Z</time></trkpt><trkpt lat="45.279388" lon="0.678400"><ele>169.81</ele><time>2010-10-11T11:57:45Z</time></trkpt><trkpt lat="45.279155" lon="0.678443"><ele>169.33</ele><time>2010-10-11T11:57:46Z</time></trkpt><trkpt lat="45.278922" lon="0.678413"><ele>168.37</ele><time>2010-10-11T11:57:47Z</time></trkpt><trkpt lat="45.278695" lon="0.678373"><ele>167.89</ele><time>2010-10-11T11:57:48Z</time></trkpt><trkpt lat="45.278468" lon="0.678333"><ele>166.93</ele><time>2010-10-11T11:57:49Z</time></trkpt><trkpt lat="45.278240" lon="0.678254"><ele>165.00</ele><time>2010-10-11T11:57:50Z</time></trkpt><trkpt lat="45.278017" lon="0.678141"><ele>163.56</ele><time>2010-10-11T11:57:51Z</time></trkpt><trkpt lat="45.277802" lon="0.677997"><ele>162.12</ele><time>2010-10-11T11:57:52Z</time></trkpt><trkpt lat="45.277592" lon="0.677829"><ele>161.16</ele><time>2010-10-11T11:57:53Z</time></trkpt><trkpt lat="45.277387" lon="0.677640"><ele>159.72</ele><time>2010-10-11T11:57:54Z</time></trkpt><trkpt lat="45.277186" lon="0.677454"><ele>159.24</ele><time>2010-10-11T11:57:55Z</time></trkpt><trkpt lat="45.275002" lon="0.674749"><ele>152.51</ele><time>2010-10-11T11:58:07Z</time></trkpt><trkpt lat="45.273277" lon="0.672805"><ele>151.06</ele><time>2010-10-11T11:58:16Z</time></trkpt><trkpt lat="45.272521" lon="0.672178"><ele>149.62</ele><time>2010-10-11T11:58:20Z</time></trkpt><trkpt lat="45.272360" lon="0.672112"><ele>149.62</ele><time>2010-10-11T11:58:21Z</time></trkpt><trkpt lat="45.272194" lon="0.672071"><ele>149.62</ele><time>2010-10-11T11:58:22Z</time></trkpt><trkpt lat="45.272026" lon="0.672029"><ele>149.62</ele><time>2010-10-11T11:58:23Z</time></trkpt><trkpt lat="45.271864" lon="0.672020"><ele>149.14</ele><time>2010-10-11T11:58:24Z</time></trkpt><trkpt lat="45.271685" lon="0.672036"><ele>149.14</ele><time>2010-10-11T11:58:25Z</time></trkpt><trkpt lat="45.271500" lon="0.672053"><ele>148.66</ele><time>2010-10-11T11:58:26Z</time></trkpt><trkpt lat="45.271335" lon="0.672128"><ele>148.66</ele><time>2010-10-11T11:58:27Z</time></trkpt><trkpt lat="45.271152" lon="0.672220"><ele>148.18</ele><time>2010-10-11T11:58:28Z</time></trkpt><trkpt lat="45.270987" lon="0.672329"><ele>148.18</ele><time>2010-10-11T11:58:29Z</time></trkpt><trkpt lat="45.270813" lon="0.672483"><ele>147.70</ele><time>2010-10-11T11:58:30Z</time></trkpt><trkpt lat="45.270641" lon="0.672643"><ele>147.22</ele><time>2010-10-11T11:58:31Z</time></trkpt><trkpt lat="45.270471" lon="0.672836"><ele>146.74</ele><time>2010-10-11T11:58:32Z</time></trkpt><trkpt lat="45.269124" lon="0.674064"><ele>144.82</ele><time>2010-10-11T11:58:39Z</time></trkpt><trkpt lat="45.268185" lon="0.674829"><ele>144.34</ele><time>2010-10-11T11:58:44Z</time></trkpt><trkpt lat="45.268046" lon="0.675031"><ele>143.85</ele><time>2010-10-11T11:58:45Z</time></trkpt><trkpt lat="45.267024" lon="0.676870"><ele>141.45</ele><time>2010-10-11T11:58:53Z</time></trkpt><trkpt lat="45.265756" lon="0.679437"><ele>138.09</ele><time>2010-10-11T11:59:04Z</time></trkpt><trkpt lat="45.264401" lon="0.681150"><ele>136.16</ele><time>2010-10-11T11:59:13Z</time></trkpt><trkpt lat="45.263120" lon="0.682003"><ele>134.24</ele><time>2010-10-11T11:59:20Z</time></trkpt><trkpt lat="45.260955" lon="0.683004"><ele>132.32</ele><time>2010-10-11T11:59:30Z</time></trkpt><trkpt lat="45.260288" lon="0.683126"><ele>132.32</ele><time>2010-10-11T11:59:33Z</time></trkpt><trkpt lat="45.260066" lon="0.683071"><ele>131.84</ele><time>2010-10-11T11:59:34Z</time></trkpt><trkpt lat="45.259838" lon="0.682998"><ele>131.36</ele><time>2010-10-11T11:59:35Z</time></trkpt><trkpt lat="45.258070" lon="0.682333"><ele>129.43</ele><time>2010-10-11T11:59:43Z</time></trkpt><trkpt lat="45.256645" lon="0.682226"><ele>127.99</ele><time>2010-10-11T11:59:50Z</time></trkpt><trkpt lat="45.255024" lon="0.682556"><ele>126.07</ele><time>2010-10-11T11:59:58Z</time></trkpt><trkpt lat="45.254560" lon="0.682546"><ele>125.59</ele><time>2010-10-11T12:00:00Z</time></trkpt><trkpt lat="45.254321" lon="0.682533"><ele>125.59</ele><time>2010-10-11T12:00:01Z</time></trkpt><trkpt lat="45.252478" lon="0.682311"><ele>124.15</ele><time>2010-10-11T12:00:09Z</time></trkpt><trkpt lat="45.251068" lon="0.682823"><ele>121.74</ele><time>2010-10-11T12:00:16Z</time></trkpt><trkpt lat="45.249058" lon="0.683669"><ele>118.86</ele><time>2010-10-11T12:00:26Z</time></trkpt><trkpt lat="45.247984" lon="0.684535"><ele>114.53</ele><time>2010-10-11T12:00:33Z</time></trkpt><trkpt lat="45.247240" lon="0.685463"><ele>110.69</ele><time>2010-10-11T12:00:39Z</time></trkpt><trkpt lat="45.247112" lon="0.685628"><ele>110.21</ele><time>2010-10-11T12:00:40Z</time></trkpt><trkpt lat="45.246988" lon="0.685816"><ele>109.25</ele><time>2010-10-11T12:00:41Z</time></trkpt><trkpt lat="45.246041" lon="0.687664"><ele>107.81</ele><time>2010-10-11T12:00:50Z</time></trkpt><trkpt lat="45.245925" lon="0.687857"><ele>108.29</ele><time>2010-10-11T12:00:51Z</time></trkpt><trkpt lat="45.245784" lon="0.688012"><ele>108.29</ele><time>2010-10-11T12:00:52Z</time></trkpt><trkpt lat="45.245638" lon="0.688158"><ele>108.77</ele><time>2010-10-11T12:00:53Z</time></trkpt><trkpt lat="45.245477" lon="0.688262"><ele>109.25</ele><time>2010-10-11T12:00:54Z</time></trkpt><trkpt lat="45.245312" lon="0.688353"><ele>109.73</ele><time>2010-10-11T12:00:55Z</time></trkpt><trkpt lat="45.245150" lon="0.688425"><ele>110.21</ele><time>2010-10-11T12:00:56Z</time></trkpt><trkpt lat="45.244989" lon="0.688471"><ele>110.69</ele><time>2010-10-11T12:00:57Z</time></trkpt><trkpt lat="45.244837" lon="0.688499"><ele>111.17</ele><time>2010-10-11T12:00:58Z</time></trkpt><trkpt lat="45.244684" lon="0.688514"><ele>111.65</ele><time>2010-10-11T12:00:59Z</time></trkpt><trkpt lat="45.244530" lon="0.688530"><ele>111.65</ele><time>2010-10-11T12:01:00Z</time></trkpt><trkpt lat="45.244379" lon="0.688502"><ele>111.65</ele><time>2010-10-11T12:01:01Z</time></trkpt><trkpt lat="45.244236" lon="0.688461"><ele>111.17</ele><time>2010-10-11T12:01:02Z</time></trkpt><trkpt lat="45.244101" lon="0.688400"><ele>110.69</ele><time>2010-10-11T12:01:03Z</time></trkpt><trkpt lat="45.243964" lon="0.688325"><ele>109.73</ele><time>2010-10-11T12:01:04Z</time></trkpt><trkpt lat="45.243828" lon="0.688251"><ele>109.25</ele><time>2010-10-11T12:01:05Z</time></trkpt><trkpt lat="45.243222" lon="0.687659"><ele>105.40</ele><time>2010-10-11T12:01:11Z</time></trkpt><trkpt lat="45.243242" lon="0.687599"><ele>105.40</ele><time>2010-10-11T12:01:12Z</time></trkpt><trkpt lat="45.243229" lon="0.687497"><ele>105.40</ele><time>2010-10-11T12:01:13Z</time></trkpt><trkpt lat="45.243200" lon="0.687331"><ele>104.92</ele><time>2010-10-11T12:01:14Z</time></trkpt><trkpt lat="45.243130" lon="0.687296"><ele>104.92</ele><time>2010-10-11T12:01:15Z</time></trkpt><trkpt lat="45.243053" lon="0.687289"><ele>104.44</ele><time>2010-10-11T12:01:16Z</time></trkpt><trkpt lat="45.242919" lon="0.687230"><ele>104.44</ele><time>2010-10-11T12:01:17Z</time></trkpt><trkpt lat="45.242872" lon="0.687120"><ele>104.44</ele><time>2010-10-11T12:01:18Z</time></trkpt><trkpt lat="45.242816" lon="0.686991"><ele>104.44</ele><time>2010-10-11T12:01:19Z</time></trkpt><trkpt lat="45.241986" lon="0.685948"><ele>103.00</ele><time>2010-10-11T12:01:27Z</time></trkpt><trkpt lat="45.241256" lon="0.685184"><ele>103.00</ele><time>2010-10-11T12:01:33Z</time></trkpt><trkpt lat="45.241117" lon="0.685123"><ele>103.00</ele><time>2010-10-11T12:01:34Z</time></trkpt><trkpt lat="45.240979" lon="0.685062"><ele>103.00</ele><time>2010-10-11T12:01:35Z</time></trkpt><trkpt lat="45.240838" lon="0.685039"><ele>102.52</ele><time>2010-10-11T12:01:36Z</time></trkpt><trkpt lat="45.240670" lon="0.685015"><ele>103.00</ele><time>2010-10-11T12:01:37Z</time></trkpt><trkpt lat="45.240545" lon="0.685026"><ele>103.00</ele><time>2010-10-11T12:01:38Z</time></trkpt><trkpt lat="45.238372" lon="0.685228"><ele>102.04</ele><time>2010-10-11T12:01:52Z</time></trkpt><trkpt lat="45.236368" lon="0.685472"><ele>101.08</ele><time>2010-10-11T12:02:04Z</time></trkpt><trkpt lat="45.235025" lon="0.685179"><ele>100.11</ele><time>2010-10-11T12:02:12Z</time></trkpt><trkpt lat="45.233698" lon="0.684441"><ele>100.11</ele><time>2010-10-11T12:02:20Z</time></trkpt><trkpt lat="45.231797" lon="0.683008"><ele>100.11</ele><time>2010-10-11T12:02:32Z</time></trkpt><trkpt lat="45.230392" lon="0.681251"><ele>99.63</ele><time>2010-10-11T12:02:42Z</time></trkpt><trkpt lat="45.227959" lon="0.678159"><ele>99.15</ele><time>2010-10-11T12:02:59Z</time></trkpt><trkpt lat="45.226297" lon="0.676170"><ele>99.15</ele><time>2010-10-11T12:03:10Z</time></trkpt><trkpt lat="45.226129" lon="0.676055"><ele>99.15</ele><time>2010-10-11T12:03:11Z</time></trkpt><trkpt lat="45.225956" lon="0.675947"><ele>99.15</ele><time>2010-10-11T12:03:12Z</time></trkpt><trkpt lat="45.225773" lon="0.675876"><ele>99.15</ele><time>2010-10-11T12:03:13Z</time></trkpt><trkpt lat="45.225582" lon="0.675819"><ele>99.15</ele><time>2010-10-11T12:03:14Z</time></trkpt><trkpt lat="45.223296" lon="0.675067"><ele>98.67</ele><time>2010-10-11T12:03:25Z</time></trkpt><trkpt lat="45.221801" lon="0.674465"><ele>98.19</ele><time>2010-10-11T12:03:32Z</time></trkpt><trkpt lat="45.221613" lon="0.674308"><ele>98.19</ele><time>2010-10-11T12:03:33Z</time></trkpt><trkpt lat="45.220130" lon="0.672973"><ele>97.23</ele><time>2010-10-11T12:03:42Z</time></trkpt><trkpt lat="45.220032" lon="0.672817"><ele>97.23</ele><time>2010-10-11T12:03:43Z</time></trkpt><trkpt lat="45.219945" lon="0.672657"><ele>97.23</ele><time>2010-10-11T12:03:44Z</time></trkpt><trkpt lat="45.219865" lon="0.672485"><ele>97.23</ele><time>2010-10-11T12:03:45Z</time></trkpt><trkpt lat="45.219783" lon="0.672309"><ele>97.23</ele><time>2010-10-11T12:03:46Z</time></trkpt><trkpt lat="45.219700" lon="0.672131"><ele>96.75</ele><time>2010-10-11T12:03:47Z</time></trkpt><trkpt lat="45.218908" lon="0.670115"><ele>95.79</ele><time>2010-10-11T12:03:57Z</time></trkpt><trkpt lat="45.217832" lon="0.668545"><ele>96.27</ele><time>2010-10-11T12:04:06Z</time></trkpt><trkpt lat="45.217832" lon="0.668545"><ele>96.27</ele><time>2010-10-11T12:04:07Z</time></trkpt><trkpt lat="45.217593" lon="0.668330"><ele>96.27</ele><time>2010-10-11T12:04:08Z</time></trkpt><trkpt lat="45.217477" lon="0.668279"><ele>96.27</ele><time>2010-10-11T12:04:09Z</time></trkpt><trkpt lat="45.217368" lon="0.668230"><ele>96.27</ele><time>2010-10-11T12:04:10Z</time></trkpt><trkpt lat="45.217263" lon="0.668192"><ele>96.27</ele><time>2010-10-11T12:04:11Z</time></trkpt><trkpt lat="45.217146" lon="0.668194"><ele>96.27</ele><time>2010-10-11T12:04:12Z</time></trkpt><trkpt lat="45.217021" lon="0.668239"><ele>96.27</ele><time>2010-10-11T12:04:13Z</time></trkpt><trkpt lat="45.216890" lon="0.668286"><ele>96.27</ele><time>2010-10-11T12:04:14Z</time></trkpt><trkpt lat="45.216632" lon="0.668378"><ele>96.27</ele><time>2010-10-11T12:04:16Z</time></trkpt><trkpt lat="45.216515" lon="0.668439"><ele>96.27</ele><time>2010-10-11T12:04:17Z</time></trkpt><trkpt lat="45.216392" lon="0.668548"><ele>96.27</ele><time>2010-10-11T12:04:18Z</time></trkpt><trkpt lat="45.216264" lon="0.668662"><ele>96.27</ele><time>2010-10-11T12:04:19Z</time></trkpt><trkpt lat="45.216141" lon="0.668793"><ele>95.79</ele><time>2010-10-11T12:04:20Z</time></trkpt><trkpt lat="45.216037" lon="0.668978"><ele>95.79</ele><time>2010-10-11T12:04:21Z</time></trkpt><trkpt lat="45.215927" lon="0.669173"><ele>95.31</ele><time>2010-10-11T12:04:22Z</time></trkpt><trkpt lat="45.215817" lon="0.669369"><ele>95.31</ele><time>2010-10-11T12:04:23Z</time></trkpt><trkpt lat="45.214712" lon="0.671777"><ele>92.42</ele><time>2010-10-11T12:04:34Z</time></trkpt><trkpt lat="45.214391" lon="0.672356"><ele>91.94</ele><time>2010-10-11T12:04:37Z</time></trkpt><trkpt lat="45.214275" lon="0.672523"><ele>91.94</ele><time>2010-10-11T12:04:38Z</time></trkpt><trkpt lat="45.214133" lon="0.672647"><ele>91.94</ele><time>2010-10-11T12:04:39Z</time></trkpt><trkpt lat="45.213985" lon="0.672776"><ele>91.46</ele><time>2010-10-11T12:04:40Z</time></trkpt><trkpt lat="45.213833" lon="0.672904"><ele>91.46</ele><time>2010-10-11T12:04:41Z</time></trkpt><trkpt lat="45.212332" lon="0.673852"><ele>91.46</ele><time>2010-10-11T12:04:50Z</time></trkpt><trkpt lat="45.212176" lon="0.673840"><ele>91.46</ele><time>2010-10-11T12:04:51Z</time></trkpt><trkpt lat="45.212019" lon="0.673828"><ele>91.46</ele><time>2010-10-11T12:04:52Z</time></trkpt><trkpt lat="45.211856" lon="0.673816"><ele>91.46</ele><time>2010-10-11T12:04:53Z</time></trkpt><trkpt lat="45.211696" lon="0.673740"><ele>91.46</ele><time>2010-10-11T12:04:54Z</time></trkpt><trkpt lat="45.211531" lon="0.673650"><ele>90.98</ele><time>2010-10-11T12:04:55Z</time></trkpt><trkpt lat="45.211359" lon="0.673556"><ele>90.98</ele><time>2010-10-11T12:04:56Z</time></trkpt><trkpt lat="45.211204" lon="0.673459"><ele>90.98</ele><time>2010-10-11T12:04:57Z</time></trkpt><trkpt lat="45.210780" lon="0.673051"><ele>90.50</ele><time>2010-10-11T12:05:00Z</time></trkpt><trkpt lat="45.210673" lon="0.672880"><ele>90.02</ele><time>2010-10-11T12:05:01Z</time></trkpt><trkpt lat="45.210573" lon="0.672707"><ele>90.02</ele><time>2010-10-11T12:05:02Z</time></trkpt><trkpt lat="45.210494" lon="0.672511"><ele>90.02</ele><time>2010-10-11T12:05:03Z</time></trkpt><trkpt lat="45.210415" lon="0.672313"><ele>90.02</ele><time>2010-10-11T12:05:04Z</time></trkpt><trkpt lat="45.210338" lon="0.672120"><ele>90.02</ele><time>2010-10-11T12:05:05Z</time></trkpt><trkpt lat="45.210299" lon="0.671907"><ele>90.02</ele><time>2010-10-11T12:05:06Z</time></trkpt><trkpt lat="45.210268" lon="0.671703"><ele>89.54</ele><time>2010-10-11T12:05:07Z</time></trkpt><trkpt lat="45.210246" lon="0.671502"><ele>89.54</ele><time>2010-10-11T12:05:08Z</time></trkpt><trkpt lat="45.210262" lon="0.671328"><ele>89.54</ele><time>2010-10-11T12:05:09Z</time></trkpt><trkpt lat="45.210276" lon="0.671173"><ele>89.54</ele><time>2010-10-11T12:05:10Z</time></trkpt><trkpt lat="45.210294" lon="0.671038"><ele>89.06</ele><time>2010-10-11T12:05:11Z</time></trkpt><trkpt lat="45.210324" lon="0.670933"><ele>88.58</ele><time>2010-10-11T12:05:12Z</time></trkpt><trkpt lat="45.210409" lon="0.670779"><ele>88.58</ele><time>2010-10-11T12:05:13Z</time></trkpt><trkpt lat="45.210468" lon="0.670799"><ele>88.58</ele><time>2010-10-11T12:05:14Z</time></trkpt><trkpt lat="45.210544" lon="0.670766"><ele>88.10</ele><time>2010-10-11T12:05:15Z</time></trkpt><trkpt lat="45.210610" lon="0.670700"><ele>88.10</ele><time>2010-10-11T12:05:16Z</time></trkpt><trkpt lat="45.210649" lon="0.670603"><ele>88.10</ele><time>2010-10-11T12:05:17Z</time></trkpt><trkpt lat="45.210668" lon="0.670489"><ele>88.10</ele><time>2010-10-11T12:05:18Z</time></trkpt><trkpt lat="45.210629" lon="0.670295"><ele>88.10</ele><time>2010-10-11T12:05:19Z</time></trkpt><trkpt lat="45.210585" lon="0.670273"><ele>88.10</ele><time>2010-10-11T12:05:20Z</time></trkpt><trkpt lat="45.210457" lon="0.670209"><ele>88.58</ele><time>2010-10-11T12:05:21Z</time></trkpt><trkpt lat="45.210427" lon="0.670110"><ele>88.58</ele><time>2010-10-11T12:05:22Z</time></trkpt><trkpt lat="45.210387" lon="0.669981"><ele>89.06</ele><time>2010-10-11T12:05:23Z</time></trkpt><trkpt lat="45.210305" lon="0.669712"><ele>89.54</ele><time>2010-10-11T12:05:25Z</time></trkpt><trkpt lat="45.210250" lon="0.669604"><ele>90.02</ele><time>2010-10-11T12:05:26Z</time></trkpt><trkpt lat="45.210172" lon="0.669500"><ele>90.50</ele><time>2010-10-11T12:05:27Z</time></trkpt><trkpt lat="45.210093" lon="0.669393"><ele>90.98</ele><time>2010-10-11T12:05:28Z</time></trkpt><trkpt lat="45.210014" lon="0.669302"><ele>91.46</ele><time>2010-10-11T12:05:29Z</time></trkpt><trkpt lat="45.209908" lon="0.669259"><ele>91.94</ele><time>2010-10-11T12:05:30Z</time></trkpt><trkpt lat="45.209805" lon="0.669222"><ele>92.42</ele><time>2010-10-11T12:05:31Z</time></trkpt><trkpt lat="45.209687" lon="0.669222"><ele>92.42</ele><time>2010-10-11T12:05:32Z</time></trkpt><trkpt lat="45.209577" lon="0.669231"><ele>92.90</ele><time>2010-10-11T12:05:33Z</time></trkpt><trkpt lat="45.209467" lon="0.669275"><ele>92.90</ele><time>2010-10-11T12:05:34Z</time></trkpt><trkpt lat="45.209355" lon="0.669320"><ele>93.39</ele><time>2010-10-11T12:05:35Z</time></trkpt><trkpt lat="45.208354" lon="0.669780"><ele>94.35</ele><time>2010-10-11T12:05:45Z</time></trkpt><trkpt lat="45.206958" lon="0.670526"><ele>93.39</ele><time>2010-10-11T12:05:57Z</time></trkpt><trkpt lat="45.206603" lon="0.670720"><ele>92.90</ele><time>2010-10-11T12:06:00Z</time></trkpt><trkpt lat="45.205496" lon="0.671215"><ele>91.46</ele><time>2010-10-11T12:06:10Z</time></trkpt><trkpt lat="45.204107" lon="0.671921"><ele>87.62</ele><time>2010-10-11T12:06:22Z</time></trkpt><trkpt lat="45.202785" lon="0.672989"><ele>83.29</ele><time>2010-10-11T12:06:34Z</time></trkpt><trkpt lat="45.202455" lon="0.673288"><ele>82.81</ele><time>2010-10-11T12:06:37Z</time></trkpt><trkpt lat="45.202331" lon="0.673344"><ele>82.33</ele><time>2010-10-11T12:06:38Z</time></trkpt><trkpt lat="45.202203" lon="0.673358"><ele>82.81</ele><time>2010-10-11T12:06:39Z</time></trkpt><trkpt lat="45.202077" lon="0.673372"><ele>82.33</ele><time>2010-10-11T12:06:40Z</time></trkpt><trkpt lat="45.201952" lon="0.673387"><ele>82.81</ele><time>2010-10-11T12:06:41Z</time></trkpt><trkpt lat="45.201711" lon="0.673460"><ele>82.33</ele><time>2010-10-11T12:06:43Z</time></trkpt><trkpt lat="45.201597" lon="0.673494"><ele>82.33</ele><time>2010-10-11T12:06:44Z</time></trkpt><trkpt lat="45.201498" lon="0.673549"><ele>82.33</ele><time>2010-10-11T12:06:45Z</time></trkpt><trkpt lat="45.201406" lon="0.673647"><ele>81.85</ele><time>2010-10-11T12:06:46Z</time></trkpt><trkpt lat="45.201309" lon="0.673752"><ele>81.85</ele><time>2010-10-11T12:06:47Z</time></trkpt><trkpt lat="45.200448" lon="0.674725"><ele>81.85</ele><time>2010-10-11T12:06:57Z</time></trkpt><trkpt lat="45.200287" lon="0.674716"><ele>83.29</ele><time>2010-10-11T12:07:03Z</time></trkpt><trkpt lat="45.200243" lon="0.674672"><ele>83.77</ele><time>2010-10-11T12:07:04Z</time></trkpt><trkpt lat="45.200127" lon="0.674556"><ele>84.25</ele><time>2010-10-11T12:07:06Z</time></trkpt><trkpt lat="45.200043" lon="0.674525"><ele>84.73</ele><time>2010-10-11T12:07:07Z</time></trkpt><trkpt lat="45.199955" lon="0.674504"><ele>84.25</ele><time>2010-10-11T12:07:08Z</time></trkpt><trkpt lat="45.199875" lon="0.674569"><ele>84.25</ele><time>2010-10-11T12:07:09Z</time></trkpt><trkpt lat="45.199805" lon="0.674639"><ele>83.77</ele><time>2010-10-11T12:07:10Z</time></trkpt><trkpt lat="45.199771" lon="0.674723"><ele>83.77</ele><time>2010-10-11T12:07:11Z</time></trkpt><trkpt lat="45.199771" lon="0.674842"><ele>83.29</ele><time>2010-10-11T12:07:12Z</time></trkpt><trkpt lat="45.199771" lon="0.674966"><ele>83.29</ele><time>2010-10-11T12:07:13Z</time></trkpt><trkpt lat="45.199814" lon="0.675187"><ele>83.77</ele><time>2010-10-11T12:07:14Z</time></trkpt><trkpt lat="45.199814" lon="0.675217"><ele>84.25</ele><time>2010-10-11T12:07:15Z</time></trkpt><trkpt lat="45.199814" lon="0.675356"><ele>84.25</ele><time>2010-10-11T12:07:16Z</time></trkpt><trkpt lat="45.199814" lon="0.675504"><ele>84.73</ele><time>2010-10-11T12:07:17Z</time></trkpt><trkpt lat="45.199814" lon="0.675658"><ele>84.73</ele><time>2010-10-11T12:07:18Z</time></trkpt><trkpt lat="45.199814" lon="0.675831"><ele>85.21</ele><time>2010-10-11T12:07:19Z</time></trkpt><trkpt lat="45.199788" lon="0.675981"><ele>85.69</ele><time>2010-10-11T12:07:20Z</time></trkpt><trkpt lat="45.199759" lon="0.676146"><ele>85.69</ele><time>2010-10-11T12:07:21Z</time></trkpt><trkpt lat="45.199643" lon="0.677585"><ele>88.10</ele><time>2010-10-11T12:07:29Z</time></trkpt><trkpt lat="45.199643" lon="0.677746"><ele>88.58</ele><time>2010-10-11T12:07:30Z</time></trkpt><trkpt lat="45.199656" lon="0.678679"><ele>88.58</ele><time>2010-10-11T12:07:38Z</time></trkpt><trkpt lat="45.199664" lon="0.678946"><ele>87.62</ele><time>2010-10-11T12:07:46Z</time></trkpt><trkpt lat="45.199668" lon="0.679076"><ele>87.62</ele><time>2010-10-11T12:08:06Z</time></trkpt><trkpt lat="45.199674" lon="0.679309"><ele>87.62</ele><time>2010-10-11T12:08:09Z</time></trkpt><trkpt lat="45.199677" lon="0.679410"><ele>87.62</ele><time>2010-10-11T12:08:10Z</time></trkpt><trkpt lat="45.199748" lon="0.680783"><ele>86.66</ele><time>2010-10-11T12:08:21Z</time></trkpt><trkpt lat="45.199990" lon="0.682259"><ele>89.06</ele><time>2010-10-11T12:08:31Z</time></trkpt><trkpt lat="45.200393" lon="0.683661"><ele>88.58</ele><time>2010-10-11T12:08:41Z</time></trkpt><trkpt lat="45.200936" lon="0.685187"><ele>85.21</ele><time>2010-10-11T12:08:53Z</time></trkpt><trkpt lat="45.201599" lon="0.686930"><ele>82.33</ele><time>2010-10-11T12:09:05Z</time></trkpt><trkpt lat="45.201935" lon="0.688893"><ele>78.48</ele><time>2010-10-11T12:09:17Z</time></trkpt><trkpt lat="45.201864" lon="0.690470"><ele>77.52</ele><time>2010-10-11T12:09:27Z</time></trkpt><trkpt lat="45.201610" lon="0.692139"><ele>77.04</ele><time>2010-10-11T12:09:40Z</time></trkpt><trkpt lat="45.201576" lon="0.692220"><ele>77.04</ele><time>2010-10-11T12:09:41Z</time></trkpt><trkpt lat="45.201535" lon="0.692277"><ele>77.04</ele><time>2010-10-11T12:09:42Z</time></trkpt><trkpt lat="45.201469" lon="0.692412"><ele>76.56</ele><time>2010-10-11T12:09:43Z</time></trkpt><trkpt lat="45.201434" lon="0.692402"><ele>76.56</ele><time>2010-10-11T12:09:44Z</time></trkpt><trkpt lat="45.201316" lon="0.692525"><ele>76.56</ele><time>2010-10-11T12:09:45Z</time></trkpt><trkpt lat="45.200714" lon="0.693038"><ele>75.60</ele><time>2010-10-11T12:09:51Z</time></trkpt><trkpt lat="45.199709" lon="0.694444"><ele>75.60</ele><time>2010-10-11T12:10:00Z</time></trkpt><trkpt lat="45.198575" lon="0.695475"><ele>76.56</ele><time>2010-10-11T12:10:08Z</time></trkpt><trkpt lat="45.197012" lon="0.696308"><ele>76.56</ele><time>2010-10-11T12:10:17Z</time></trkpt><trkpt lat="45.195255" lon="0.697155"><ele>76.08</ele><time>2010-10-11T12:10:28Z</time></trkpt><trkpt lat="45.194004" lon="0.697732"><ele>75.12</ele><time>2010-10-11T12:10:39Z</time></trkpt><trkpt lat="45.193122" lon="0.698136"><ele>75.12</ele><time>2010-10-11T12:10:48Z</time></trkpt><trkpt lat="45.192931" lon="0.698221"><ele>75.12</ele><time>2010-10-11T12:10:51Z</time></trkpt><trkpt lat="45.192869" lon="0.698241"><ele>75.12</ele><time>2010-10-11T12:10:52Z</time></trkpt><trkpt lat="45.192189" lon="0.698480"><ele>76.08</ele><time>2010-10-11T12:10:59Z</time></trkpt><trkpt lat="45.190945" lon="0.698949"><ele>77.52</ele><time>2010-10-11T12:11:09Z</time></trkpt><trkpt lat="45.189707" lon="0.699415"><ele>78.97</ele><time>2010-10-11T12:11:20Z</time></trkpt><trkpt lat="45.188319" lon="0.699878"><ele>78.00</ele><time>2010-10-11T12:11:33Z</time></trkpt><trkpt lat="45.186874" lon="0.700248"><ele>78.48</ele><time>2010-10-11T12:11:45Z</time></trkpt><trkpt lat="45.186036" lon="0.700641"><ele>77.04</ele><time>2010-10-11T12:11:53Z</time></trkpt><trkpt lat="45.185486" lon="0.701103"><ele>76.08</ele><time>2010-10-11T12:12:00Z</time></trkpt><trkpt lat="45.185440" lon="0.701209"><ele>76.08</ele><time>2010-10-11T12:12:01Z</time></trkpt><trkpt lat="45.185391" lon="0.701331"><ele>75.60</ele><time>2010-10-11T12:12:02Z</time></trkpt><trkpt lat="45.185339" lon="0.701462"><ele>75.60</ele><time>2010-10-11T12:12:03Z</time></trkpt><trkpt lat="45.185287" lon="0.701593"><ele>75.60</ele><time>2010-10-11T12:12:04Z</time></trkpt><trkpt lat="45.185234" lon="0.701723"><ele>75.60</ele><time>2010-10-11T12:12:05Z</time></trkpt><trkpt lat="45.185182" lon="0.701853"><ele>75.60</ele><time>2010-10-11T12:12:06Z</time></trkpt><trkpt lat="45.185130" lon="0.701985"><ele>76.08</ele><time>2010-10-11T12:12:07Z</time></trkpt><trkpt lat="45.185076" lon="0.702121"><ele>76.56</ele><time>2010-10-11T12:12:08Z</time></trkpt><trkpt lat="45.184441" lon="0.703151"><ele>77.52</ele><time>2010-10-11T12:12:18Z</time></trkpt><trkpt lat="45.183954" lon="0.703830"><ele>78.48</ele><time>2010-10-11T12:12:27Z</time></trkpt><trkpt lat="45.183856" lon="0.703914"><ele>78.48</ele><time>2010-10-11T12:12:29Z</time></trkpt><trkpt lat="45.183811" lon="0.703948"><ele>78.48</ele><time>2010-10-11T12:12:30Z</time></trkpt><trkpt lat="45.183754" lon="0.703987"><ele>78.48</ele><time>2010-10-11T12:12:31Z</time></trkpt><trkpt lat="45.183646" lon="0.704023"><ele>78.48</ele><time>2010-10-11T12:12:33Z</time></trkpt><trkpt lat="45.183635" lon="0.704026"><ele>78.48</ele><time>2010-10-11T12:12:34Z</time></trkpt><trkpt lat="45.183635" lon="0.704083"><ele>78.48</ele><time>2010-10-11T12:12:35Z</time></trkpt><trkpt lat="45.183642" lon="0.704131"><ele>78.00</ele><time>2010-10-11T12:12:36Z</time></trkpt><trkpt lat="45.183679" lon="0.704245"><ele>78.48</ele><time>2010-10-11T12:12:37Z</time></trkpt><trkpt lat="45.183757" lon="0.704795"><ele>78.48</ele><time>2010-10-11T12:12:43Z</time></trkpt><trkpt lat="45.183757" lon="0.704795"><ele>78.48</ele><time>2010-10-11T12:12:44Z</time></trkpt><trkpt lat="45.183691" lon="0.704873"><ele>78.48</ele><time>2010-10-11T12:12:45Z</time></trkpt><trkpt lat="45.183668" lon="0.704884"><ele>78.48</ele><time>2010-10-11T12:12:46Z</time></trkpt><trkpt lat="45.183636" lon="0.704897"><ele>78.48</ele><time>2010-10-11T12:12:47Z</time></trkpt><trkpt lat="45.183599" lon="0.704914"><ele>78.00</ele><time>2010-10-11T12:12:48Z</time></trkpt><trkpt lat="45.183503" lon="0.704956"><ele>78.00</ele><time>2010-10-11T12:12:50Z</time></trkpt><trkpt lat="45.183447" lon="0.704980"><ele>78.48</ele><time>2010-10-11T12:12:51Z</time></trkpt><trkpt lat="45.182894" lon="0.705211"><ele>79.45</ele><time>2010-10-11T12:13:00Z</time></trkpt><trkpt lat="45.182783" lon="0.705252"><ele>80.41</ele><time>2010-10-11T12:13:03Z</time></trkpt><trkpt lat="45.182344" lon="0.705481"><ele>80.41</ele><time>2010-10-11T12:13:09Z</time></trkpt><trkpt lat="45.182276" lon="0.705517"><ele>80.41</ele><time>2010-10-11T12:13:10Z</time></trkpt><trkpt lat="45.182276" lon="0.705517"><ele>80.41</ele><time>2010-10-11T12:13:11Z</time></trkpt><trkpt lat="45.182149" lon="0.705598"><ele>80.41</ele><time>2010-10-11T12:13:12Z</time></trkpt><trkpt lat="45.182110" lon="0.705638"><ele>80.41</ele><time>2010-10-11T12:13:13Z</time></trkpt><trkpt lat="45.182066" lon="0.705713"><ele>80.41</ele><time>2010-10-11T12:13:14Z</time></trkpt><trkpt lat="45.182044" lon="0.705764"><ele>80.41</ele><time>2010-10-11T12:13:15Z</time></trkpt><trkpt lat="45.182021" lon="0.705818"><ele>80.41</ele><time>2010-10-11T12:13:16Z</time></trkpt><trkpt lat="45.181996" lon="0.705876"><ele>80.41</ele><time>2010-10-11T12:13:17Z</time></trkpt><trkpt lat="45.181970" lon="0.705937"><ele>80.41</ele><time>2010-10-11T12:13:18Z</time></trkpt><trkpt lat="45.181629" lon="0.706732"><ele>79.45</ele><time>2010-10-11T12:13:30Z</time></trkpt><trkpt lat="45.181239" lon="0.707670"><ele>78.48</ele><time>2010-10-11T12:13:42Z</time></trkpt><trkpt lat="45.180874" lon="0.708502"><ele>77.04</ele><time>2010-10-11T12:13:51Z</time></trkpt><trkpt lat="45.180604" lon="0.709116"><ele>77.52</ele><time>2010-10-11T12:13:58Z</time></trkpt><trkpt lat="45.180262" lon="0.709728"><ele>79.93</ele><time>2010-10-11T12:14:08Z</time></trkpt><trkpt lat="45.180114" lon="0.709943"><ele>79.45</ele><time>2010-10-11T12:14:12Z</time></trkpt><trkpt lat="45.180023" lon="0.710077"><ele>79.45</ele><time>2010-10-11T12:14:14Z</time></trkpt><trkpt lat="45.179669" lon="0.710589"><ele>78.48</ele><time>2010-10-11T12:14:23Z</time></trkpt><trkpt lat="45.179475" lon="0.710871"><ele>77.04</ele><time>2010-10-11T12:14:29Z</time></trkpt><trkpt lat="45.179138" lon="0.711357"><ele>74.64</ele><time>2010-10-11T12:14:38Z</time></trkpt><trkpt lat="45.179102" lon="0.711409"><ele>75.12</ele><time>2010-10-11T12:14:39Z</time></trkpt><trkpt lat="45.179064" lon="0.711464"><ele>75.60</ele><time>2010-10-11T12:14:40Z</time></trkpt><trkpt lat="45.179044" lon="0.711528"><ele>75.60</ele><time>2010-10-11T12:14:41Z</time></trkpt><trkpt lat="45.179046" lon="0.711596"><ele>75.60</ele><time>2010-10-11T12:14:42Z</time></trkpt><trkpt lat="45.179047" lon="0.711650"><ele>75.60</ele><time>2010-10-11T12:14:43Z</time></trkpt><trkpt lat="45.179048" lon="0.711692"><ele>75.60</ele><time>2010-10-11T12:14:44Z</time></trkpt><trkpt lat="45.179048" lon="0.711730"><ele>76.08</ele><time>2010-10-11T12:14:45Z</time></trkpt><trkpt lat="45.179054" lon="0.712005"><ele>77.52</ele><time>2010-10-11T12:14:50Z</time></trkpt><trkpt lat="45.179056" lon="0.712089"><ele>77.52</ele><time>2010-10-11T12:14:51Z</time></trkpt><trkpt lat="45.179062" lon="0.712384"><ele>79.93</ele><time>2010-10-11T12:14:58Z</time></trkpt><trkpt lat="45.179065" lon="0.712492"><ele>81.37</ele><time>2010-10-11T12:15:02Z</time></trkpt><trkpt lat="45.179066" lon="0.712545"><ele>81.37</ele><time>2010-10-11T12:15:03Z</time></trkpt><trkpt lat="45.179067" lon="0.712611"><ele>81.85</ele><time>2010-10-11T12:15:04Z</time></trkpt><trkpt lat="45.179069" lon="0.712675"><ele>81.85</ele><time>2010-10-11T12:15:05Z</time></trkpt><trkpt lat="45.179070" lon="0.712743"><ele>82.33</ele><time>2010-10-11T12:15:06Z</time></trkpt><trkpt lat="45.179085" lon="0.713441"><ele>83.77</ele><time>2010-10-11T12:15:13Z</time></trkpt><trkpt lat="45.179086" lon="0.713505"><ele>84.25</ele><time>2010-10-11T12:15:14Z</time></trkpt><trkpt lat="45.179090" lon="0.713561"><ele>84.73</ele><time>2010-10-11T12:15:15Z</time></trkpt><trkpt lat="45.179142" lon="0.714296"><ele>86.66</ele><time>2010-10-11T12:15:23Z</time></trkpt><trkpt lat="45.179149" lon="0.714381"><ele>86.66</ele><time>2010-10-11T12:15:24Z</time></trkpt><trkpt lat="45.179154" lon="0.714460"><ele>87.14</ele><time>2010-10-11T12:15:25Z</time></trkpt><trkpt lat="45.179164" lon="0.714603"><ele>87.62</ele><time>2010-10-11T12:15:27Z</time></trkpt><trkpt lat="45.179169" lon="0.714668"><ele>88.10</ele><time>2010-10-11T12:15:28Z</time></trkpt><trkpt lat="45.179172" lon="0.714712"><ele>87.62</ele><time>2010-10-11T12:15:29Z</time></trkpt><trkpt lat="45.179181" lon="0.714721"><ele>87.62</ele><time>2010-10-11T12:15:30Z</time></trkpt><trkpt lat="45.179226" lon="0.714766"><ele>88.58</ele><time>2010-10-11T12:15:31Z</time></trkpt><trkpt lat="45.179271" lon="0.714812"><ele>89.06</ele><time>2010-10-11T12:15:32Z</time></trkpt><trkpt lat="45.179309" lon="0.714849"><ele>89.54</ele><time>2010-10-11T12:15:33Z</time></trkpt><trkpt lat="45.179580" lon="0.715120"><ele>90.50</ele><time>2010-10-11T12:15:44Z</time></trkpt><trkpt lat="45.179558" lon="0.715274"><ele>90.02</ele><time>2010-10-11T12:15:46Z</time></trkpt><trkpt lat="45.179569" lon="0.715335"><ele>90.02</ele><time>2010-10-11T12:15:47Z</time></trkpt><trkpt lat="45.179569" lon="0.715335"><ele>89.54</ele><time>2010-10-11T12:15:48Z</time></trkpt><trkpt lat="45.179539" lon="0.716174"><ele>86.18</ele><time>2010-10-11T12:15:59Z</time></trkpt><trkpt lat="45.179502" lon="0.716660"><ele>84.73</ele><time>2010-10-11T12:16:10Z</time></trkpt><trkpt lat="45.179447" lon="0.717429"><ele>87.14</ele><time>2010-10-11T12:16:24Z</time></trkpt><trkpt lat="45.179405" lon="0.717740"><ele>88.10</ele><time>2010-10-11T12:16:28Z</time></trkpt><trkpt lat="45.179378" lon="0.717816"><ele>88.58</ele><time>2010-10-11T12:16:29Z</time></trkpt><trkpt lat="45.179313" lon="0.717991"><ele>89.06</ele><time>2010-10-11T12:16:31Z</time></trkpt><trkpt lat="45.179277" lon="0.718091"><ele>89.54</ele><time>2010-10-11T12:16:32Z</time></trkpt><trkpt lat="45.178800" lon="0.719398"><ele>88.58</ele><time>2010-10-11T12:16:45Z</time></trkpt><trkpt lat="45.178603" lon="0.720001"><ele>87.14</ele><time>2010-10-11T12:16:51Z</time></trkpt><trkpt lat="45.178592" lon="0.720105"><ele>87.14</ele><time>2010-10-11T12:16:52Z</time></trkpt><trkpt lat="45.178580" lon="0.720209"><ele>87.14</ele><time>2010-10-11T12:16:53Z</time></trkpt><trkpt lat="45.178569" lon="0.720313"><ele>87.14</ele><time>2010-10-11T12:16:54Z</time></trkpt><trkpt lat="45.178558" lon="0.720410"><ele>87.14</ele><time>2010-10-11T12:16:55Z</time></trkpt><trkpt lat="45.178482" lon="0.720691"><ele>86.18</ele><time>2010-10-11T12:16:59Z</time></trkpt><trkpt lat="45.178467" lon="0.720752"><ele>86.18</ele><time>2010-10-11T12:17:00Z</time></trkpt><trkpt lat="45.178467" lon="0.720752"><ele>85.69</ele><time>2010-10-11T12:17:01Z</time></trkpt><trkpt lat="45.178357" lon="0.720834"><ele>85.69</ele><time>2010-10-11T12:17:02Z</time></trkpt><trkpt lat="45.178281" lon="0.720821"><ele>85.69</ele><time>2010-10-11T12:17:03Z</time></trkpt><trkpt lat="45.178192" lon="0.720806"><ele>85.69</ele><time>2010-10-11T12:17:04Z</time></trkpt><trkpt lat="45.177453" lon="0.720678"><ele>80.89</ele><time>2010-10-11T12:17:12Z</time></trkpt><trkpt lat="45.177300" lon="0.720652"><ele>78.00</ele><time>2010-10-11T12:17:15Z</time></trkpt><trkpt lat="45.177069" lon="0.721192"><ele>76.56</ele><time>2010-10-11T12:17:17Z</time></trkpt><trkpt lat="45.177069" lon="0.721192"><ele>76.08</ele><time>2010-10-11T12:17:18Z</time></trkpt><trkpt lat="45.177069" lon="0.721192"><ele>76.08</ele><time>2010-10-11T12:17:19Z</time></trkpt><trkpt lat="45.176876" lon="0.722262"><ele>79.93</ele><time>2010-10-11T12:17:28Z</time></trkpt><trkpt lat="45.176797" lon="0.722940"><ele>80.89</ele><time>2010-10-11T12:17:33Z</time></trkpt><trkpt lat="45.176792" lon="0.723065"><ele>80.89</ele><time>2010-10-11T12:17:34Z</time></trkpt><trkpt lat="45.176767" lon="0.723686"><ele>80.89</ele><time>2010-10-11T12:17:40Z</time></trkpt><trkpt lat="45.176748" lon="0.723744"><ele>80.89</ele><time>2010-10-11T12:17:41Z</time></trkpt><trkpt lat="45.176729" lon="0.723800"><ele>80.89</ele><time>2010-10-11T12:17:42Z</time></trkpt><trkpt lat="45.176683" lon="0.723939"><ele>80.89</ele><time>2010-10-11T12:17:43Z</time></trkpt><trkpt lat="45.176649" lon="0.723930"><ele>80.89</ele><time>2010-10-11T12:17:44Z</time></trkpt><trkpt lat="45.176595" lon="0.723917"><ele>80.89</ele><time>2010-10-11T12:17:45Z</time></trkpt><trkpt lat="45.176511" lon="0.723896"><ele>80.89</ele><time>2010-10-11T12:17:46Z</time></trkpt><trkpt lat="45.176480" lon="0.723928"><ele>80.89</ele><time>2010-10-11T12:17:47Z</time></trkpt><trkpt lat="45.176428" lon="0.723980"><ele>80.89</ele><time>2010-10-11T12:17:48Z</time></trkpt><trkpt lat="45.176288" lon="0.724022"><ele>80.41</ele><time>2010-10-11T12:17:50Z</time></trkpt><trkpt lat="45.176240" lon="0.723979"><ele>80.41</ele><time>2010-10-11T12:17:51Z</time></trkpt><trkpt lat="45.176179" lon="0.723924"><ele>80.89</ele><time>2010-10-11T12:17:52Z</time></trkpt><trkpt lat="45.176027" lon="0.723790"><ele>81.85</ele><time>2010-10-11T12:17:54Z</time></trkpt><trkpt lat="45.175946" lon="0.723712"><ele>82.33</ele><time>2010-10-11T12:17:55Z</time></trkpt><trkpt lat="45.175877" lon="0.723597"><ele>82.81</ele><time>2010-10-11T12:17:56Z</time></trkpt><trkpt lat="45.175807" lon="0.723479"><ele>83.29</ele><time>2010-10-11T12:17:57Z</time></trkpt><trkpt lat="45.175735" lon="0.723361"><ele>83.77</ele><time>2010-10-11T12:17:58Z</time></trkpt><trkpt lat="45.175269" lon="0.722583"><ele>85.21</ele><time>2010-10-11T12:18:04Z</time></trkpt><trkpt lat="45.175189" lon="0.722451"><ele>85.69</ele><time>2010-10-11T12:18:05Z</time></trkpt><trkpt lat="45.174280" lon="0.720839"><ele>88.58</ele><time>2010-10-11T12:18:18Z</time></trkpt><trkpt lat="45.174098" lon="0.720611"><ele>89.06</ele><time>2010-10-11T12:18:20Z</time></trkpt></trkseg></trk><trk><name>ACTIVE LOG: 11 окт 2010 14:18</name><trkseg><trkpt lat="45.174007" lon="0.720497"><ele>89.06</ele><time>2010-10-11T12:18:21Z</time></trkpt><trkpt lat="45.173904" lon="0.720438"><ele>89.54</ele><time>2010-10-11T12:18:22Z</time></trkpt><trkpt lat="45.173777" lon="0.720400"><ele>89.54</ele><time>2010-10-11T12:18:23Z</time></trkpt><trkpt lat="45.173633" lon="0.720362"><ele>90.02</ele><time>2010-10-11T12:18:24Z</time></trkpt><trkpt lat="45.173495" lon="0.720325"><ele>90.50</ele><time>2010-10-11T12:18:25Z</time></trkpt><trkpt lat="45.172343" lon="0.719966"><ele>92.42</ele><time>2010-10-11T12:18:33Z</time></trkpt><trkpt lat="45.172209" lon="0.719895"><ele>92.42</ele><time>2010-10-11T12:18:34Z</time></trkpt><trkpt lat="45.172092" lon="0.719795"><ele>92.90</ele><time>2010-10-11T12:18:35Z</time></trkpt><trkpt lat="45.170829" lon="0.718421"><ele>102.04</ele><time>2010-10-11T12:18:47Z</time></trkpt><trkpt lat="45.169181" lon="0.716681"><ele>112.61</ele><time>2010-10-11T12:19:01Z</time></trkpt><trkpt lat="45.168747" lon="0.716414"><ele>114.05</ele><time>2010-10-11T12:19:04Z</time></trkpt><trkpt lat="45.168601" lon="0.716356"><ele>114.53</ele><time>2010-10-11T12:19:05Z</time></trkpt><trkpt lat="45.167093" lon="0.715769"><ele>120.30</ele><time>2010-10-11T12:19:15Z</time></trkpt><trkpt lat="45.165571" lon="0.714645"><ele>124.15</ele><time>2010-10-11T12:19:26Z</time></trkpt><trkpt lat="45.164169" lon="0.714093"><ele>131.36</ele><time>2010-10-11T12:19:36Z</time></trkpt><trkpt lat="45.162825" lon="0.714026"><ele>141.93</ele><time>2010-10-11T12:19:45Z</time></trkpt><trkpt lat="45.162241" lon="0.713995"><ele>146.26</ele><time>2010-10-11T12:19:49Z</time></trkpt><trkpt lat="45.161256" lon="0.713533"><ele>154.91</ele><time>2010-10-11T12:19:56Z</time></trkpt><trkpt lat="45.160322" lon="0.712421"><ele>165.00</ele><time>2010-10-11T12:20:04Z</time></trkpt><trkpt lat="45.159238" lon="0.710422"><ele>180.38</ele><time>2010-10-11T12:20:15Z</time></trkpt><trkpt lat="45.157937" lon="0.708469"><ele>193.36</ele><time>2010-10-11T12:20:27Z</time></trkpt><trkpt lat="45.156454" lon="0.706575"><ele>197.21</ele><time>2010-10-11T12:20:37Z</time></trkpt><trkpt lat="45.154683" lon="0.704294"><ele>194.32</ele><time>2010-10-11T12:20:47Z</time></trkpt><trkpt lat="45.153564" lon="0.703317"><ele>188.08</ele><time>2010-10-11T12:20:53Z</time></trkpt><trkpt lat="45.152088" lon="0.702884"><ele>179.90</ele><time>2010-10-11T12:21:00Z</time></trkpt><trkpt lat="45.150656" lon="0.703165"><ele>170.77</ele><time>2010-10-11T12:21:07Z</time></trkpt><trkpt lat="45.149417" lon="0.703511"><ele>163.56</ele><time>2010-10-11T12:21:13Z</time></trkpt><trkpt lat="45.149209" lon="0.703511"><ele>162.60</ele><time>2010-10-11T12:21:14Z</time></trkpt><trkpt lat="45.149001" lon="0.703474"><ele>161.64</ele><time>2010-10-11T12:21:15Z</time></trkpt><trkpt lat="45.148804" lon="0.703389"><ele>160.68</ele><time>2010-10-11T12:21:16Z</time></trkpt><trkpt lat="45.148610" lon="0.703293"><ele>159.24</ele><time>2010-10-11T12:21:17Z</time></trkpt><trkpt lat="45.148417" lon="0.703197"><ele>158.27</ele><time>2010-10-11T12:21:18Z</time></trkpt><trkpt lat="45.146883" lon="0.702557"><ele>151.06</ele><time>2010-10-11T12:21:26Z</time></trkpt><trkpt lat="45.144407" lon="0.702093"><ele>139.05</ele><time>2010-10-11T12:21:38Z</time></trkpt><trkpt lat="45.144211" lon="0.702015"><ele>138.09</ele><time>2010-10-11T12:21:39Z</time></trkpt><trkpt lat="45.144026" lon="0.701912"><ele>137.13</ele><time>2010-10-11T12:21:40Z</time></trkpt><trkpt lat="45.143847" lon="0.701791"><ele>136.16</ele><time>2010-10-11T12:21:41Z</time></trkpt><trkpt lat="45.143677" lon="0.701630"><ele>135.20</ele><time>2010-10-11T12:21:42Z</time></trkpt><trkpt lat="45.143504" lon="0.701466"><ele>134.24</ele><time>2010-10-11T12:21:43Z</time></trkpt><trkpt lat="45.142372" lon="0.700253"><ele>126.55</ele><time>2010-10-11T12:21:51Z</time></trkpt><trkpt lat="45.142118" lon="0.699911"><ele>125.11</ele><time>2010-10-11T12:21:54Z</time></trkpt><trkpt lat="45.142050" lon="0.699790"><ele>125.11</ele><time>2010-10-11T12:21:55Z</time></trkpt><trkpt lat="45.142050" lon="0.699547"><ele>124.63</ele><time>2010-10-11T12:21:57Z</time></trkpt><trkpt lat="45.141975" lon="0.699417"><ele>124.63</ele><time>2010-10-11T12:21:58Z</time></trkpt><trkpt lat="45.141836" lon="0.699306"><ele>124.63</ele><time>2010-10-11T12:21:59Z</time></trkpt><trkpt lat="45.141817" lon="0.699306"><ele>124.15</ele><time>2010-10-11T12:22:00Z</time></trkpt><trkpt lat="45.141727" lon="0.699306"><ele>124.15</ele><time>2010-10-11T12:22:01Z</time></trkpt><trkpt lat="45.141637" lon="0.699340"><ele>124.15</ele><time>2010-10-11T12:22:02Z</time></trkpt><trkpt lat="45.141564" lon="0.699431"><ele>123.67</ele><time>2010-10-11T12:22:03Z</time></trkpt><trkpt lat="45.141494" lon="0.699518"><ele>123.67</ele><time>2010-10-11T12:22:04Z</time></trkpt><trkpt lat="45.141494" lon="0.699518"><ele>123.67</ele><time>2010-10-11T12:22:05Z</time></trkpt><trkpt lat="45.141272" lon="0.699503"><ele>123.67</ele><time>2010-10-11T12:22:06Z</time></trkpt><trkpt lat="45.140543" lon="0.699419"><ele>123.19</ele><time>2010-10-11T12:22:11Z</time></trkpt><trkpt lat="45.140400" lon="0.699444"><ele>123.19</ele><time>2010-10-11T12:22:12Z</time></trkpt><trkpt lat="45.140261" lon="0.699513"><ele>122.71</ele><time>2010-10-11T12:22:13Z</time></trkpt><trkpt lat="45.140121" lon="0.699584"><ele>122.71</ele><time>2010-10-11T12:22:14Z</time></trkpt><trkpt lat="45.139977" lon="0.699656"><ele>122.71</ele><time>2010-10-11T12:22:15Z</time></trkpt><trkpt lat="45.139844" lon="0.699748"><ele>122.71</ele><time>2010-10-11T12:22:16Z</time></trkpt><trkpt lat="45.139719" lon="0.699866"><ele>122.22</ele><time>2010-10-11T12:22:17Z</time></trkpt><trkpt lat="45.139594" lon="0.699983"><ele>122.22</ele><time>2010-10-11T12:22:18Z</time></trkpt><trkpt lat="45.139375" lon="0.700188"><ele>122.71</ele><time>2010-10-11T12:22:20Z</time></trkpt><trkpt lat="45.139293" lon="0.700265"><ele>122.71</ele><time>2010-10-11T12:22:21Z</time></trkpt><trkpt lat="45.139190" lon="0.700308"><ele>123.19</ele><time>2010-10-11T12:22:22Z</time></trkpt><trkpt lat="45.139143" lon="0.700261"><ele>123.19</ele><time>2010-10-11T12:22:23Z</time></trkpt><trkpt lat="45.139050" lon="0.700250"><ele>123.67</ele><time>2010-10-11T12:22:24Z</time></trkpt><trkpt lat="45.138972" lon="0.700250"><ele>124.15</ele><time>2010-10-11T12:22:25Z</time></trkpt><trkpt lat="45.138878" lon="0.700289"><ele>124.15</ele><time>2010-10-11T12:22:26Z</time></trkpt><trkpt lat="45.138822" lon="0.700386"><ele>124.63</ele><time>2010-10-11T12:22:27Z</time></trkpt><trkpt lat="45.138801" lon="0.700487"><ele>124.63</ele><time>2010-10-11T12:22:28Z</time></trkpt><trkpt lat="45.138795" lon="0.700583"><ele>124.63</ele><time>2010-10-11T12:22:29Z</time></trkpt><trkpt lat="45.138816" lon="0.700684"><ele>124.63</ele><time>2010-10-11T12:22:30Z</time></trkpt><trkpt lat="45.138843" lon="0.700772"><ele>124.15</ele><time>2010-10-11T12:22:31Z</time></trkpt><trkpt lat="45.138897" lon="0.700808"><ele>123.67</ele><time>2010-10-11T12:22:32Z</time></trkpt><trkpt lat="45.138941" lon="0.700986"><ele>123.19</ele><time>2010-10-11T12:22:33Z</time></trkpt><trkpt lat="45.138926" lon="0.701090"><ele>122.71</ele><time>2010-10-11T12:22:34Z</time></trkpt><trkpt lat="45.138926" lon="0.701176"><ele>122.71</ele><time>2010-10-11T12:22:35Z</time></trkpt><trkpt lat="45.138960" lon="0.700850"><ele>122.22</ele><time>2010-10-11T12:22:36Z</time></trkpt><trkpt lat="45.138969" lon="0.700850"><ele>122.22</ele><time>2010-10-11T12:22:37Z</time></trkpt><trkpt lat="45.139028" lon="0.700850"><ele>122.22</ele><time>2010-10-11T12:22:38Z</time></trkpt><trkpt lat="45.139287" lon="0.700967"><ele>122.22</ele><time>2010-10-11T12:22:39Z</time></trkpt><trkpt lat="45.139360" lon="0.701022"><ele>121.74</ele><time>2010-10-11T12:22:40Z</time></trkpt><trkpt lat="45.140261" lon="0.701438"><ele>121.74</ele><time>2010-10-11T12:22:49Z</time></trkpt><trkpt lat="45.140378" lon="0.701495"><ele>121.74</ele><time>2010-10-11T12:22:50Z</time></trkpt><trkpt lat="45.140472" lon="0.701542"><ele>121.74</ele><time>2010-10-11T12:22:51Z</time></trkpt><trkpt lat="45.140741" lon="0.701784"><ele>121.74</ele><time>2010-10-11T12:22:52Z</time></trkpt><trkpt lat="45.140880" lon="0.702108"><ele>121.26</ele><time>2010-10-11T12:22:53Z</time></trkpt><trkpt lat="45.140931" lon="0.702264"><ele>121.26</ele><time>2010-10-11T12:22:54Z</time></trkpt><trkpt lat="45.140536" lon="0.702729"><ele>121.74</ele><time>2010-10-11T12:22:55Z</time></trkpt><trkpt lat="45.140840" lon="0.704103"><ele>122.71</ele><time>2010-10-11T12:23:03Z</time></trkpt><trkpt lat="45.140879" lon="0.704283"><ele>122.71</ele><time>2010-10-11T12:23:05Z</time></trkpt><trkpt lat="45.140892" lon="0.704339"><ele>123.19</ele><time>2010-10-11T12:23:06Z</time></trkpt><trkpt lat="45.140899" lon="0.704373"><ele>123.19</ele><time>2010-10-11T12:23:07Z</time></trkpt><trkpt lat="45.140903" lon="0.704391"><ele>123.67</ele><time>2010-10-11T12:23:08Z</time></trkpt><trkpt lat="45.140903" lon="0.704391"><ele>125.59</ele><time>2010-10-11T12:23:12Z</time></trkpt><trkpt lat="45.140917" lon="0.704453"><ele>126.07</ele><time>2010-10-11T12:23:13Z</time></trkpt><trkpt lat="45.140921" lon="0.704472"><ele>126.55</ele><time>2010-10-11T12:23:14Z</time></trkpt><trkpt lat="45.140826" lon="0.704539"><ele>127.03</ele><time>2010-10-11T12:23:18Z</time></trkpt><trkpt lat="45.140904" lon="0.704393"><ele>127.03</ele><time>2010-10-11T12:23:23Z</time></trkpt><trkpt lat="45.140885" lon="0.704309"><ele>126.55</ele><time>2010-10-11T12:23:24Z</time></trkpt><trkpt lat="45.140860" lon="0.704197"><ele>126.07</ele><time>2010-10-11T12:23:25Z</time></trkpt><trkpt lat="45.140598" lon="0.703010"><ele>124.15</ele><time>2010-10-11T12:23:32Z</time></trkpt><trkpt lat="45.140429" lon="0.702277"><ele>123.67</ele><time>2010-10-11T12:23:36Z</time></trkpt><trkpt lat="45.140387" lon="0.702131"><ele>123.67</ele><time>2010-10-11T12:23:37Z</time></trkpt><trkpt lat="45.140302" lon="0.702020"><ele>123.67</ele><time>2010-10-11T12:23:38Z</time></trkpt><trkpt lat="45.140213" lon="0.701931"><ele>123.67</ele><time>2010-10-11T12:23:39Z</time></trkpt><trkpt lat="45.140103" lon="0.701877"><ele>123.67</ele><time>2010-10-11T12:23:40Z</time></trkpt><trkpt lat="45.139987" lon="0.701824"><ele>124.15</ele><time>2010-10-11T12:23:41Z</time></trkpt><trkpt lat="45.139864" lon="0.701768"><ele>124.15</ele><time>2010-10-11T12:23:42Z</time></trkpt><trkpt lat="45.139050" lon="0.701410"><ele>124.15</ele><time>2010-10-11T12:23:49Z</time></trkpt><trkpt lat="45.138995" lon="0.701331"><ele>125.11</ele><time>2010-10-11T12:23:50Z</time></trkpt><trkpt lat="45.138957" lon="0.701269"><ele>125.11</ele><time>2010-10-11T12:23:51Z</time></trkpt><trkpt lat="45.138934" lon="0.701202"><ele>125.59</ele><time>2010-10-11T12:23:52Z</time></trkpt><trkpt lat="45.138921" lon="0.701123"><ele>126.07</ele><time>2010-10-11T12:23:53Z</time></trkpt><trkpt lat="45.138932" lon="0.701051"><ele>126.07</ele><time>2010-10-11T12:23:54Z</time></trkpt><trkpt lat="45.138940" lon="0.700990"><ele>126.55</ele><time>2010-10-11T12:23:55Z</time></trkpt><trkpt lat="45.138985" lon="0.700850"><ele>127.03</ele><time>2010-10-11T12:23:56Z</time></trkpt><trkpt lat="45.139072" lon="0.700850"><ele>126.55</ele><time>2010-10-11T12:24:01Z</time></trkpt><trkpt lat="45.139134" lon="0.700852"><ele>126.07</ele><time>2010-10-11T12:24:02Z</time></trkpt><trkpt lat="45.139195" lon="0.700898"><ele>125.11</ele><time>2010-10-11T12:24:03Z</time></trkpt><trkpt lat="45.139271" lon="0.700954"><ele>125.11</ele><time>2010-10-11T12:24:04Z</time></trkpt><trkpt lat="45.139357" lon="0.701019"><ele>124.15</ele><time>2010-10-11T12:24:05Z</time></trkpt><trkpt lat="45.139667" lon="0.701242"><ele>124.15</ele><time>2010-10-11T12:24:08Z</time></trkpt><trkpt lat="45.139789" lon="0.701272"><ele>124.15</ele><time>2010-10-11T12:24:09Z</time></trkpt><trkpt lat="45.139912" lon="0.701303"><ele>124.63</ele><time>2010-10-11T12:24:10Z</time></trkpt><trkpt lat="45.140506" lon="0.701559"><ele>125.59</ele><time>2010-10-11T12:24:15Z</time></trkpt><trkpt lat="45.140624" lon="0.701618"><ele>125.59</ele><time>2010-10-11T12:24:16Z</time></trkpt><trkpt lat="45.140720" lon="0.701752"><ele>125.59</ele><time>2010-10-11T12:24:17Z</time></trkpt><trkpt lat="45.140809" lon="0.701889"><ele>125.59</ele><time>2010-10-11T12:24:18Z</time></trkpt><trkpt lat="45.140865" lon="0.702062"><ele>125.59</ele><time>2010-10-11T12:24:19Z</time></trkpt><trkpt lat="45.140924" lon="0.702243"><ele>125.11</ele><time>2010-10-11T12:24:20Z</time></trkpt><trkpt lat="45.140985" lon="0.702429"><ele>125.11</ele><time>2010-10-11T12:24:21Z</time></trkpt><trkpt lat="45.141621" lon="0.704241"><ele>123.19</ele><time>2010-10-11T12:24:30Z</time></trkpt><trkpt lat="45.142480" lon="0.707585"><ele>124.15</ele><time>2010-10-11T12:24:41Z</time></trkpt><trkpt lat="45.142694" lon="0.710328"><ele>125.59</ele><time>2010-10-11T12:24:49Z</time></trkpt><trkpt lat="45.142491" lon="0.712880"><ele>127.99</ele><time>2010-10-11T12:24:56Z</time></trkpt><trkpt lat="45.141836" lon="0.715429"><ele>130.88</ele><time>2010-10-11T12:25:03Z</time></trkpt><trkpt lat="45.140599" lon="0.718109"><ele>133.28</ele><time>2010-10-11T12:25:11Z</time></trkpt><trkpt lat="45.137690" lon="0.724198"><ele>140.49</ele><time>2010-10-11T12:25:29Z</time></trkpt><trkpt lat="45.136923" lon="0.727362"><ele>143.85</ele><time>2010-10-11T12:25:37Z</time></trkpt><trkpt lat="45.135522" lon="0.734432"><ele>150.10</ele><time>2010-10-11T12:25:54Z</time></trkpt><trkpt lat="45.133999" lon="0.742135"><ele>158.75</ele><time>2010-10-11T12:26:12Z</time></trkpt><trkpt lat="45.133811" lon="0.744979"><ele>162.60</ele><time>2010-10-11T12:26:19Z</time></trkpt><trkpt lat="45.134056" lon="0.747611"><ele>165.48</ele><time>2010-10-11T12:26:26Z</time></trkpt><trkpt lat="45.134833" lon="0.750640"><ele>168.85</ele><time>2010-10-11T12:26:35Z</time></trkpt><trkpt lat="45.135455" lon="0.753622"><ele>172.21</ele><time>2010-10-11T12:26:44Z</time></trkpt><trkpt lat="45.135594" lon="0.756655"><ele>176.06</ele><time>2010-10-11T12:26:53Z</time></trkpt><trkpt lat="45.135259" lon="0.759618"><ele>185.19</ele><time>2010-10-11T12:27:02Z</time></trkpt><trkpt lat="45.134798" lon="0.763085"><ele>199.13</ele><time>2010-10-11T12:27:13Z</time></trkpt><trkpt lat="45.134913" lon="0.766234"><ele>210.19</ele><time>2010-10-11T12:27:22Z</time></trkpt><trkpt lat="45.135497" lon="0.770712"><ele>226.05</ele><time>2010-10-11T12:27:35Z</time></trkpt><trkpt lat="45.135603" lon="0.771031"><ele>226.05</ele><time>2010-10-11T12:27:36Z</time></trkpt><trkpt lat="45.135727" lon="0.771340"><ele>226.53</ele><time>2010-10-11T12:27:37Z</time></trkpt><trkpt lat="45.135866" lon="0.771639"><ele>226.53</ele><time>2010-10-11T12:27:38Z</time></trkpt><trkpt lat="45.136024" lon="0.771928"><ele>226.05</ele><time>2010-10-11T12:27:39Z</time></trkpt><trkpt lat="45.137280" lon="0.773368"><ele>223.16</ele><time>2010-10-11T12:27:45Z</time></trkpt><trkpt lat="45.139998" lon="0.775807"><ele>205.38</ele><time>2010-10-11T12:27:57Z</time></trkpt><trkpt lat="45.141027" lon="0.777222"><ele>195.28</ele><time>2010-10-11T12:28:03Z</time></trkpt><trkpt lat="45.141674" lon="0.779125"><ele>186.15</ele><time>2010-10-11T12:28:09Z</time></trkpt><trkpt lat="45.141878" lon="0.781410"><ele>174.62</ele><time>2010-10-11T12:28:15Z</time></trkpt><trkpt lat="45.141516" lon="0.783986"><ele>163.56</ele><time>2010-10-11T12:28:21Z</time></trkpt><trkpt lat="45.141292" lon="0.786911"><ele>150.10</ele><time>2010-10-11T12:28:28Z</time></trkpt><trkpt lat="45.141331" lon="0.787323"><ele>148.66</ele><time>2010-10-11T12:28:29Z</time></trkpt><trkpt lat="45.141430" lon="0.787702"><ele>146.74</ele><time>2010-10-11T12:28:30Z</time></trkpt><trkpt lat="45.141529" lon="0.788082"><ele>145.30</ele><time>2010-10-11T12:28:31Z</time></trkpt><trkpt lat="45.141645" lon="0.788444"><ele>143.37</ele><time>2010-10-11T12:28:32Z</time></trkpt><trkpt lat="45.141778" lon="0.788796"><ele>141.45</ele><time>2010-10-11T12:28:33Z</time></trkpt><trkpt lat="45.141911" lon="0.789146"><ele>139.53</ele><time>2010-10-11T12:28:34Z</time></trkpt><trkpt lat="45.143160" lon="0.791793"><ele>127.51</ele><time>2010-10-11T12:28:42Z</time></trkpt><trkpt lat="45.144182" lon="0.794900"><ele>116.46</ele><time>2010-10-11T12:28:50Z</time></trkpt><trkpt lat="45.145862" lon="0.799238"><ele>108.29</ele><time>2010-10-11T12:29:02Z</time></trkpt><trkpt lat="45.147991" lon="0.803767"><ele>112.61</ele><time>2010-10-11T12:29:15Z</time></trkpt><trkpt lat="45.150805" lon="0.808964"><ele>125.11</ele><time>2010-10-11T12:29:31Z</time></trkpt><trkpt lat="45.152711" lon="0.812908"><ele>137.13</ele><time>2010-10-11T12:29:43Z</time></trkpt><trkpt lat="45.153750" lon="0.816557"><ele>147.70</ele><time>2010-10-11T12:29:53Z</time></trkpt><trkpt lat="45.154487" lon="0.820904"><ele>158.27</ele><time>2010-10-11T12:30:04Z</time></trkpt><trkpt lat="45.155302" lon="0.825264"><ele>169.33</ele><time>2010-10-11T12:30:14Z</time></trkpt><trkpt lat="45.156411" lon="0.828556"><ele>178.94</ele><time>2010-10-11T12:30:22Z</time></trkpt><trkpt lat="45.157862" lon="0.831531"><ele>187.59</ele><time>2010-10-11T12:30:30Z</time></trkpt><trkpt lat="45.160151" lon="0.834773"><ele>191.92</ele><time>2010-10-11T12:30:40Z</time></trkpt><trkpt lat="45.162751" lon="0.838412"><ele>185.67</ele><time>2010-10-11T12:30:51Z</time></trkpt><trkpt lat="45.164127" lon="0.840977"><ele>176.06</ele><time>2010-10-11T12:30:58Z</time></trkpt><trkpt lat="45.165107" lon="0.843884"><ele>163.56</ele><time>2010-10-11T12:31:05Z</time></trkpt><trkpt lat="45.165875" lon="0.847337"><ele>147.70</ele><time>2010-10-11T12:31:13Z</time></trkpt><trkpt lat="45.166163" lon="0.851163"><ele>133.28</ele><time>2010-10-11T12:31:21Z</time></trkpt><trkpt lat="45.165946" lon="0.854574"><ele>127.51</ele><time>2010-10-11T12:31:28Z</time></trkpt><trkpt lat="45.165311" lon="0.857937"><ele>129.43</ele><time>2010-10-11T12:31:36Z</time></trkpt><trkpt lat="45.164230" lon="0.861258"><ele>134.24</ele><time>2010-10-11T12:31:45Z</time></trkpt><trkpt lat="45.162199" lon="0.865421"><ele>141.45</ele><time>2010-10-11T12:31:57Z</time></trkpt><trkpt lat="45.159989" lon="0.870109"><ele>150.10</ele><time>2010-10-11T12:32:10Z</time></trkpt><trkpt lat="45.158905" lon="0.873765"><ele>155.87</ele><time>2010-10-11T12:32:19Z</time></trkpt><trkpt lat="45.158291" lon="0.877629"><ele>162.60</ele><time>2010-10-11T12:32:28Z</time></trkpt><trkpt lat="45.157966" lon="0.882883"><ele>170.77</ele><time>2010-10-11T12:32:40Z</time></trkpt><trkpt lat="45.157468" lon="0.889917"><ele>181.35</ele><time>2010-10-11T12:32:56Z</time></trkpt><trkpt lat="45.156703" lon="0.893718"><ele>188.56</ele><time>2010-10-11T12:33:05Z</time></trkpt><trkpt lat="45.155488" lon="0.897260"><ele>197.69</ele><time>2010-10-11T12:33:14Z</time></trkpt><trkpt lat="45.153031" lon="0.902827"><ele>210.67</ele><time>2010-10-11T12:33:29Z</time></trkpt><trkpt lat="45.151503" lon="0.907168"><ele>220.28</ele><time>2010-10-11T12:33:40Z</time></trkpt><trkpt lat="45.150506" lon="0.911915"><ele>227.01</ele><time>2010-10-11T12:33:51Z</time></trkpt><trkpt lat="45.150078" lon="0.916508"><ele>229.41</ele><time>2010-10-11T12:34:01Z</time></trkpt><trkpt lat="45.150196" lon="0.921265"><ele>230.85</ele><time>2010-10-11T12:34:11Z</time></trkpt><trkpt lat="45.150798" lon="0.925554"><ele>232.78</ele><time>2010-10-11T12:34:20Z</time></trkpt><trkpt lat="45.151807" lon="0.929704"><ele>234.22</ele><time>2010-10-11T12:34:29Z</time></trkpt><trkpt lat="45.153398" lon="0.933878"><ele>236.62</ele><time>2010-10-11T12:34:39Z</time></trkpt><trkpt lat="45.155446" lon="0.937607"><ele>239.02</ele><time>2010-10-11T12:34:49Z</time></trkpt><trkpt lat="45.157892" lon="0.940866"><ele>238.54</ele><time>2010-10-11T12:34:59Z</time></trkpt><trkpt lat="45.160927" lon="0.943886"><ele>232.30</ele><time>2010-10-11T12:35:10Z</time></trkpt><trkpt lat="45.163883" lon="0.947133"><ele>222.20</ele><time>2010-10-11T12:35:21Z</time></trkpt><trkpt lat="45.166905" lon="0.950904"><ele>210.67</ele><time>2010-10-11T12:35:33Z</time></trkpt><trkpt lat="45.169523" lon="0.953825"><ele>198.65</ele><time>2010-10-11T12:35:44Z</time></trkpt><trkpt lat="45.172123" lon="0.956924"><ele>187.59</ele><time>2010-10-11T12:35:53Z</time></trkpt><trkpt lat="45.174182" lon="0.960209"><ele>177.98</ele><time>2010-10-11T12:36:02Z</time></trkpt><trkpt lat="45.175689" lon="0.963533"><ele>176.06</ele><time>2010-10-11T12:36:10Z</time></trkpt><trkpt lat="45.176998" lon="0.967818"><ele>177.50</ele><time>2010-10-11T12:36:20Z</time></trkpt><trkpt lat="45.177834" lon="0.972432"><ele>179.42</ele><time>2010-10-11T12:36:30Z</time></trkpt><trkpt lat="45.178099" lon="0.976764"><ele>181.35</ele><time>2010-10-11T12:36:39Z</time></trkpt><trkpt lat="45.177882" lon="0.981084"><ele>183.27</ele><time>2010-10-11T12:36:48Z</time></trkpt><trkpt lat="45.177143" lon="0.985814"><ele>183.75</ele><time>2010-10-11T12:36:58Z</time></trkpt><trkpt lat="45.176277" lon="0.990304"><ele>182.31</ele><time>2010-10-11T12:37:09Z</time></trkpt><trkpt lat="45.175495" lon="0.995633"><ele>179.90</ele><time>2010-10-11T12:37:20Z</time></trkpt><trkpt lat="45.175414" lon="0.999203"><ele>177.50</ele><time>2010-10-11T12:37:29Z</time></trkpt><trkpt lat="45.175829" lon="1.004932"><ele>174.62</ele><time>2010-10-11T12:37:41Z</time></trkpt><trkpt lat="45.176115" lon="1.009969"><ele>171.73</ele><time>2010-10-11T12:37:52Z</time></trkpt><trkpt lat="45.175821" lon="1.013641"><ele>170.29</ele><time>2010-10-11T12:38:00Z</time></trkpt><trkpt lat="45.175143" lon="1.017331"><ele>174.14</ele><time>2010-10-11T12:38:09Z</time></trkpt><trkpt lat="45.174017" lon="1.020818"><ele>178.94</ele><time>2010-10-11T12:38:18Z</time></trkpt><trkpt lat="45.172242" lon="1.024349"><ele>186.15</ele><time>2010-10-11T12:38:28Z</time></trkpt><trkpt lat="45.169665" lon="1.028209"><ele>194.32</ele><time>2010-10-11T12:38:40Z</time></trkpt><trkpt lat="45.167198" lon="1.032115"><ele>201.53</ele><time>2010-10-11T12:38:52Z</time></trkpt><trkpt lat="45.165592" lon="1.035840"><ele>205.86</ele><time>2010-10-11T12:39:02Z</time></trkpt><trkpt lat="45.164435" lon="1.040113"><ele>202.49</ele><time>2010-10-11T12:39:12Z</time></trkpt><trkpt lat="45.163571" lon="1.044713"><ele>196.73</ele><time>2010-10-11T12:39:23Z</time></trkpt><trkpt lat="45.162444" lon="1.050702"><ele>195.77</ele><time>2010-10-11T12:39:35Z</time></trkpt><trkpt lat="45.161222" lon="1.054718"><ele>198.17</ele><time>2010-10-11T12:39:44Z</time></trkpt><trkpt lat="45.159403" lon="1.058748"><ele>200.57</ele><time>2010-10-11T12:39:54Z</time></trkpt><trkpt lat="45.156596" lon="1.064672"><ele>204.90</ele><time>2010-10-11T12:40:09Z</time></trkpt><trkpt lat="45.155165" lon="1.069004"><ele>207.30</ele><time>2010-10-11T12:40:19Z</time></trkpt><trkpt lat="45.154433" lon="1.072807"><ele>204.42</ele><time>2010-10-11T12:40:27Z</time></trkpt><trkpt lat="45.154152" lon="1.077300"><ele>200.57</ele><time>2010-10-11T12:40:36Z</time></trkpt><trkpt lat="45.154249" lon="1.081690"><ele>197.21</ele><time>2010-10-11T12:40:45Z</time></trkpt><trkpt lat="45.154308" lon="1.088079"><ele>193.36</ele><time>2010-10-11T12:40:58Z</time></trkpt><trkpt lat="45.153867" lon="1.094502"><ele>186.63</ele><time>2010-10-11T12:41:11Z</time></trkpt><trkpt lat="45.153393" lon="1.098935"><ele>178.46</ele><time>2010-10-11T12:41:20Z</time></trkpt><trkpt lat="45.153172" lon="1.103188"><ele>169.81</ele><time>2010-10-11T12:41:29Z</time></trkpt><trkpt lat="45.153449" lon="1.106905"><ele>163.56</ele><time>2010-10-11T12:41:37Z</time></trkpt><trkpt lat="45.154088" lon="1.110851"><ele>162.60</ele><time>2010-10-11T12:41:46Z</time></trkpt><trkpt lat="45.154823" lon="1.116358"><ele>165.96</ele><time>2010-10-11T12:41:58Z</time></trkpt><trkpt lat="45.155168" lon="1.122521"><ele>170.77</ele><time>2010-10-11T12:42:11Z</time></trkpt><trkpt lat="45.155122" lon="1.127232"><ele>172.69</ele><time>2010-10-11T12:42:21Z</time></trkpt><trkpt lat="45.154763" lon="1.132012"><ele>165.48</ele><time>2010-10-11T12:42:31Z</time></trkpt><trkpt lat="45.154709" lon="1.135988"><ele>159.24</ele><time>2010-10-11T12:42:40Z</time></trkpt><trkpt lat="45.155103" lon="1.139593"><ele>152.99</ele><time>2010-10-11T12:42:48Z</time></trkpt><trkpt lat="45.155960" lon="1.143078"><ele>146.74</ele><time>2010-10-11T12:42:56Z</time></trkpt><trkpt lat="45.157177" lon="1.147592"><ele>145.78</ele><time>2010-10-11T12:43:06Z</time></trkpt><trkpt lat="45.157524" lon="1.150960"><ele>147.22</ele><time>2010-10-11T12:43:13Z</time></trkpt><trkpt lat="45.157381" lon="1.153998"><ele>144.34</ele><time>2010-10-11T12:43:20Z</time></trkpt><trkpt lat="45.156852" lon="1.157128"><ele>138.09</ele><time>2010-10-11T12:43:27Z</time></trkpt><trkpt lat="45.155871" lon="1.159983"><ele>129.43</ele><time>2010-10-11T12:43:34Z</time></trkpt><trkpt lat="45.155154" lon="1.161551"><ele>125.11</ele><time>2010-10-11T12:43:39Z</time></trkpt><trkpt lat="45.153884" lon="1.163568"><ele>123.19</ele><time>2010-10-11T12:43:48Z</time></trkpt><trkpt lat="45.151791" lon="1.166468"><ele>119.34</ele><time>2010-10-11T12:44:02Z</time></trkpt><trkpt lat="45.151385" lon="1.167149"><ele>118.38</ele><time>2010-10-11T12:44:07Z</time></trkpt><trkpt lat="45.151237" lon="1.167421"><ele>116.94</ele><time>2010-10-11T12:44:14Z</time></trkpt><trkpt lat="45.151230" lon="1.167438"><ele>115.98</ele><time>2010-10-11T12:44:27Z</time></trkpt><trkpt lat="45.151212" lon="1.167482"><ele>115.50</ele><time>2010-10-11T12:44:35Z</time></trkpt><trkpt lat="45.151163" lon="1.167605"><ele>115.98</ele><time>2010-10-11T12:45:25Z</time></trkpt><trkpt lat="45.150883" lon="1.168317"><ele>115.98</ele><time>2010-10-11T12:45:30Z</time></trkpt><trkpt lat="45.150226" lon="1.170010"><ele>115.01</ele><time>2010-10-11T12:45:37Z</time></trkpt><trkpt lat="45.149145" lon="1.172829"><ele>114.05</ele><time>2010-10-11T12:45:46Z</time></trkpt><trkpt lat="45.148229" lon="1.176138"><ele>116.46</ele><time>2010-10-11T12:45:55Z</time></trkpt><trkpt lat="45.147882" lon="1.179447"><ele>119.82</ele><time>2010-10-11T12:46:03Z</time></trkpt><trkpt lat="45.148016" lon="1.183271"><ele>127.99</ele><time>2010-10-11T12:46:12Z</time></trkpt><trkpt lat="45.148210" lon="1.188744"><ele>142.41</ele><time>2010-10-11T12:46:25Z</time></trkpt><trkpt lat="45.147928" lon="1.192673"><ele>146.74</ele><time>2010-10-11T12:46:34Z</time></trkpt><trkpt lat="45.147301" lon="1.198070"><ele>142.89</ele><time>2010-10-11T12:46:46Z</time></trkpt><trkpt lat="45.147462" lon="1.200804"><ele>138.09</ele><time>2010-10-11T12:46:52Z</time></trkpt><trkpt lat="45.148194" lon="1.203953"><ele>133.28</ele><time>2010-10-11T12:46:59Z</time></trkpt><trkpt lat="45.149523" lon="1.206760"><ele>132.80</ele><time>2010-10-11T12:47:06Z</time></trkpt><trkpt lat="45.151221" lon="1.209024"><ele>135.68</ele><time>2010-10-11T12:47:13Z</time></trkpt><trkpt lat="45.153538" lon="1.212236"><ele>145.30</ele><time>2010-10-11T12:47:23Z</time></trkpt><trkpt lat="45.155133" lon="1.215551"><ele>156.83</ele><time>2010-10-11T12:47:32Z</time></trkpt><trkpt lat="45.156602" lon="1.217732"><ele>164.52</ele><time>2010-10-11T12:47:39Z</time></trkpt><trkpt lat="45.158525" lon="1.219778"><ele>174.14</ele><time>2010-10-11T12:47:47Z</time></trkpt><trkpt lat="45.161093" lon="1.222610"><ele>190.00</ele><time>2010-10-11T12:47:58Z</time></trkpt><trkpt lat="45.162764" lon="1.225606"><ele>209.70</ele><time>2010-10-11T12:48:07Z</time></trkpt><trkpt lat="45.164410" lon="1.229593"><ele>233.74</ele><time>2010-10-11T12:48:18Z</time></trkpt><trkpt lat="45.165147" lon="1.231747"><ele>241.91</ele><time>2010-10-11T12:48:25Z</time></trkpt><trkpt lat="45.165899" lon="1.234527"><ele>248.64</ele><time>2010-10-11T12:48:35Z</time></trkpt><trkpt lat="45.166555" lon="1.241747"><ele>240.95</ele><time>2010-10-11T12:48:57Z</time></trkpt><trkpt lat="45.166256" lon="1.245388"><ele>231.81</ele><time>2010-10-11T12:49:06Z</time></trkpt><trkpt lat="45.165407" lon="1.250489"><ele>217.88</ele><time>2010-10-11T12:49:18Z</time></trkpt><trkpt lat="45.165105" lon="1.253963"><ele>208.26</ele><time>2010-10-11T12:49:26Z</time></trkpt><trkpt lat="45.165224" lon="1.258351"><ele>196.25</ele><time>2010-10-11T12:49:36Z</time></trkpt><trkpt lat="45.165839" lon="1.262496"><ele>189.52</ele><time>2010-10-11T12:49:45Z</time></trkpt><trkpt lat="45.166475" lon="1.267590"><ele>196.73</ele><time>2010-10-11T12:49:56Z</time></trkpt><trkpt lat="45.166351" lon="1.271687"><ele>203.94</ele><time>2010-10-11T12:50:05Z</time></trkpt><trkpt lat="45.165651" lon="1.277480"><ele>215.95</ele><time>2010-10-11T12:50:18Z</time></trkpt><trkpt lat="45.165601" lon="1.281509"><ele>224.12</ele><time>2010-10-11T12:50:27Z</time></trkpt><trkpt lat="45.166035" lon="1.285889"><ele>233.74</ele><time>2010-10-11T12:50:37Z</time></trkpt><trkpt lat="45.166952" lon="1.289580"><ele>241.91</ele><time>2010-10-11T12:50:46Z</time></trkpt><trkpt lat="45.168445" lon="1.293335"><ele>251.52</ele><time>2010-10-11T12:50:56Z</time></trkpt><trkpt lat="45.170792" lon="1.297812"><ele>262.58</ele><time>2010-10-11T12:51:09Z</time></trkpt><trkpt lat="45.172413" lon="1.301437"><ele>273.15</ele><time>2010-10-11T12:51:19Z</time></trkpt><trkpt lat="45.173357" lon="1.305043"><ele>281.80</ele><time>2010-10-11T12:51:28Z</time></trkpt><trkpt lat="45.173770" lon="1.308416"><ele>289.49</ele><time>2010-10-11T12:51:37Z</time></trkpt><trkpt lat="45.173669" lon="1.312337"><ele>294.78</ele><time>2010-10-11T12:51:45Z</time></trkpt><trkpt lat="45.173080" lon="1.315884"><ele>297.67</ele><time>2010-10-11T12:51:53Z</time></trkpt><trkpt lat="45.172160" lon="1.318966"><ele>297.18</ele><time>2010-10-11T12:52:00Z</time></trkpt><trkpt lat="45.170570" lon="1.322198"><ele>292.38</ele><time>2010-10-11T12:52:08Z</time></trkpt><trkpt lat="45.168818" lon="1.324608"><ele>284.21</ele><time>2010-10-11T12:52:15Z</time></trkpt><trkpt lat="45.166483" lon="1.326912"><ele>271.23</ele><time>2010-10-11T12:52:23Z</time></trkpt><trkpt lat="45.163383" lon="1.329979"><ele>250.08</ele><time>2010-10-11T12:52:34Z</time></trkpt><trkpt lat="45.161804" lon="1.332264"><ele>236.62</ele><time>2010-10-11T12:52:41Z</time></trkpt><trkpt lat="45.160272" lon="1.335481"><ele>220.76</ele><time>2010-10-11T12:52:49Z</time></trkpt><trkpt lat="45.159063" lon="1.339032"><ele>204.42</ele><time>2010-10-11T12:52:57Z</time></trkpt><trkpt lat="45.158062" lon="1.343227"><ele>185.67</ele><time>2010-10-11T12:53:06Z</time></trkpt><trkpt lat="45.157396" lon="1.347721"><ele>166.93</ele><time>2010-10-11T12:53:15Z</time></trkpt><trkpt lat="45.156554" lon="1.352293"><ele>148.18</ele><time>2010-10-11T12:53:25Z</time></trkpt><trkpt lat="45.155288" lon="1.357258"><ele>127.03</ele><time>2010-10-11T12:53:37Z</time></trkpt><trkpt lat="45.154526" lon="1.361179"><ele>112.61</ele><time>2010-10-11T12:53:47Z</time></trkpt><trkpt lat="45.154281" lon="1.365126"><ele>107.32</ele><time>2010-10-11T12:53:57Z</time></trkpt><trkpt lat="45.154249" lon="1.371152"><ele>110.21</ele><time>2010-10-11T12:54:12Z</time></trkpt><trkpt lat="45.153864" lon="1.376481"><ele>112.13</ele><time>2010-10-11T12:54:25Z</time></trkpt><trkpt lat="45.153889" lon="1.380348"><ele>114.53</ele><time>2010-10-11T12:54:34Z</time></trkpt><trkpt lat="45.154447" lon="1.384348"><ele>115.98</ele><time>2010-10-11T12:54:43Z</time></trkpt><trkpt lat="45.155629" lon="1.388593"><ele>117.90</ele><time>2010-10-11T12:54:53Z</time></trkpt><trkpt lat="45.157194" lon="1.392083"><ele>118.38</ele><time>2010-10-11T12:55:02Z</time></trkpt><trkpt lat="45.159356" lon="1.395561"><ele>119.34</ele><time>2010-10-11T12:55:12Z</time></trkpt><trkpt lat="45.162097" lon="1.400100"><ele>133.76</ele><time>2010-10-11T12:55:25Z</time></trkpt><trkpt lat="45.163475" lon="1.403575"><ele>152.03</ele><time>2010-10-11T12:55:34Z</time></trkpt><trkpt lat="45.164390" lon="1.407180"><ele>167.41</ele><time>2010-10-11T12:55:43Z</time></trkpt><trkpt lat="45.164809" lon="1.410466"><ele>176.54</ele><time>2010-10-11T12:55:51Z</time></trkpt><trkpt lat="45.164906" lon="1.413801"><ele>179.90</ele><time>2010-10-11T12:56:00Z</time></trkpt><trkpt lat="45.164691" lon="1.416980"><ele>179.90</ele><time>2010-10-11T12:56:08Z</time></trkpt><trkpt lat="45.164034" lon="1.420394"><ele>172.69</ele><time>2010-10-11T12:56:16Z</time></trkpt><trkpt lat="45.162934" lon="1.424300"><ele>157.79</ele><time>2010-10-11T12:56:25Z</time></trkpt><trkpt lat="45.161713" lon="1.428590"><ele>138.09</ele><time>2010-10-11T12:56:35Z</time></trkpt><trkpt lat="45.161307" lon="1.431696"><ele>128.47</ele><time>2010-10-11T12:56:42Z</time></trkpt><trkpt lat="45.161416" lon="1.435290"><ele>126.07</ele><time>2010-10-11T12:56:50Z</time></trkpt><trkpt lat="45.162092" lon="1.438730"><ele>124.15</ele><time>2010-10-11T12:56:58Z</time></trkpt><trkpt lat="45.163249" lon="1.443494"><ele>120.78</ele><time>2010-10-11T12:57:09Z</time></trkpt><trkpt lat="45.163715" lon="1.447195"><ele>116.94</ele><time>2010-10-11T12:57:17Z</time></trkpt><trkpt lat="45.164071" lon="1.452520"><ele>111.17</ele><time>2010-10-11T12:57:28Z</time></trkpt><trkpt lat="45.164755" lon="1.456574"><ele>109.25</ele><time>2010-10-11T12:57:37Z</time></trkpt><trkpt lat="45.165907" lon="1.460462"><ele>110.21</ele><time>2010-10-11T12:57:46Z</time></trkpt><trkpt lat="45.167556" lon="1.463914"><ele>111.17</ele><time>2010-10-11T12:57:55Z</time></trkpt><trkpt lat="45.169219" lon="1.466390"><ele>111.17</ele><time>2010-10-11T12:58:03Z</time></trkpt><trkpt lat="45.171095" lon="1.468462"><ele>112.61</ele><time>2010-10-11T12:58:12Z</time></trkpt><trkpt lat="45.173275" lon="1.470266"><ele>113.57</ele><time>2010-10-11T12:58:23Z</time></trkpt><trkpt lat="45.174552" lon="1.471492"><ele>114.05</ele><time>2010-10-11T12:58:30Z</time></trkpt><trkpt lat="45.174627" lon="1.471639"><ele>114.53</ele><time>2010-10-11T12:58:31Z</time></trkpt><trkpt lat="45.174654" lon="1.471830"><ele>114.53</ele><time>2010-10-11T12:58:32Z</time></trkpt><trkpt lat="45.174666" lon="1.472003"><ele>115.01</ele><time>2010-10-11T12:58:33Z</time></trkpt><trkpt lat="45.174666" lon="1.472190"><ele>115.01</ele><time>2010-10-11T12:58:34Z</time></trkpt><trkpt lat="45.174653" lon="1.472328"><ele>115.50</ele><time>2010-10-11T12:58:35Z</time></trkpt><trkpt lat="45.174594" lon="1.472477"><ele>115.50</ele><time>2010-10-11T12:58:36Z</time></trkpt><trkpt lat="45.174528" lon="1.472594"><ele>115.50</ele><time>2010-10-11T12:58:37Z</time></trkpt><trkpt lat="45.174450" lon="1.472719"><ele>115.98</ele><time>2010-10-11T12:58:38Z</time></trkpt><trkpt lat="45.174372" lon="1.472843"><ele>116.46</ele><time>2010-10-11T12:58:39Z</time></trkpt><trkpt lat="45.174262" lon="1.472893"><ele>116.94</ele><time>2010-10-11T12:58:40Z</time></trkpt><trkpt lat="45.174139" lon="1.472940"><ele>116.94</ele><time>2010-10-11T12:58:41Z</time></trkpt><trkpt lat="45.174011" lon="1.472982"><ele>117.42</ele><time>2010-10-11T12:58:42Z</time></trkpt><trkpt lat="45.173875" lon="1.472959"><ele>117.90</ele><time>2010-10-11T12:58:43Z</time></trkpt><trkpt lat="45.173735" lon="1.472936"><ele>118.38</ele><time>2010-10-11T12:58:44Z</time></trkpt><trkpt lat="45.172735" lon="1.472769"><ele>121.74</ele><time>2010-10-11T12:58:52Z</time></trkpt><trkpt lat="45.170079" lon="1.471908"><ele>120.78</ele><time>2010-10-11T12:59:04Z</time></trkpt><trkpt lat="45.169683" lon="1.471763"><ele>119.34</ele><time>2010-10-11T12:59:07Z</time></trkpt><trkpt lat="45.169657" lon="1.471658"><ele>118.86</ele><time>2010-10-11T12:59:08Z</time></trkpt><trkpt lat="45.169604" lon="1.471529"><ele>118.38</ele><time>2010-10-11T12:59:09Z</time></trkpt><trkpt lat="45.169445" lon="1.471416"><ele>117.42</ele><time>2010-10-11T12:59:11Z</time></trkpt><trkpt lat="45.169445" lon="1.471416"><ele>116.94</ele><time>2010-10-11T12:59:12Z</time></trkpt><trkpt lat="45.169333" lon="1.471194"><ele>116.46</ele><time>2010-10-11T12:59:13Z</time></trkpt><trkpt lat="45.169324" lon="1.471044"><ele>116.46</ele><time>2010-10-11T12:59:14Z</time></trkpt><trkpt lat="45.169315" lon="1.470874"><ele>115.98</ele><time>2010-10-11T12:59:15Z</time></trkpt><trkpt lat="45.169295" lon="1.469209"><ele>111.17</ele><time>2010-10-11T12:59:24Z</time></trkpt><trkpt lat="45.169320" lon="1.468969"><ele>110.69</ele><time>2010-10-11T12:59:26Z</time></trkpt><trkpt lat="45.169307" lon="1.468836"><ele>110.69</ele><time>2010-10-11T12:59:27Z</time></trkpt><trkpt lat="45.169516" lon="1.468606"><ele>110.21</ele><time>2010-10-11T12:59:29Z</time></trkpt><trkpt lat="45.169523" lon="1.468552"><ele>110.21</ele><time>2010-10-11T12:59:30Z</time></trkpt><trkpt lat="45.169540" lon="1.468412"><ele>110.21</ele><time>2010-10-11T12:59:31Z</time></trkpt><trkpt lat="45.169558" lon="1.468270"><ele>109.73</ele><time>2010-10-11T12:59:32Z</time></trkpt><trkpt lat="45.169559" lon="1.468118"><ele>109.73</ele><time>2010-10-11T12:59:33Z</time></trkpt><trkpt lat="45.169487" lon="1.467964"><ele>109.73</ele><time>2010-10-11T12:59:34Z</time></trkpt><trkpt lat="45.169387" lon="1.467791"><ele>109.73</ele><time>2010-10-11T12:59:35Z</time></trkpt><trkpt lat="45.169333" lon="1.467758"><ele>109.73</ele><time>2010-10-11T12:59:36Z</time></trkpt><trkpt lat="45.169239" lon="1.467702"><ele>109.73</ele><time>2010-10-11T12:59:37Z</time></trkpt><trkpt lat="45.169141" lon="1.467668"><ele>109.73</ele><time>2010-10-11T12:59:38Z</time></trkpt><trkpt lat="45.169043" lon="1.467688"><ele>109.73</ele><time>2010-10-11T12:59:39Z</time></trkpt><trkpt lat="45.168958" lon="1.467705"><ele>109.25</ele><time>2010-10-11T12:59:40Z</time></trkpt><trkpt lat="45.168881" lon="1.467612"><ele>109.25</ele><time>2010-10-11T12:59:41Z</time></trkpt><trkpt lat="45.168812" lon="1.467529"><ele>109.25</ele><time>2010-10-11T12:59:42Z</time></trkpt><trkpt lat="45.168744" lon="1.467447"><ele>108.77</ele><time>2010-10-11T12:59:43Z</time></trkpt><trkpt lat="45.168744" lon="1.467447"><ele>108.77</ele><time>2010-10-11T12:59:44Z</time></trkpt><trkpt lat="45.167765" lon="1.466251"><ele>106.84</ele><time>2010-10-11T12:59:52Z</time></trkpt><trkpt lat="45.166411" lon="1.465032"><ele>101.08</ele><time>2010-10-11T13:00:00Z</time></trkpt><trkpt lat="45.165407" lon="1.465360"><ele>100.60</ele><time>2010-10-11T13:00:06Z</time></trkpt><trkpt lat="45.165407" lon="1.465360"><ele>100.60</ele><time>2010-10-11T13:00:07Z</time></trkpt><trkpt lat="45.164924" lon="1.465518"><ele>100.11</ele><time>2010-10-11T13:00:11Z</time></trkpt><trkpt lat="45.164924" lon="1.465518"><ele>100.11</ele><time>2010-10-11T13:00:12Z</time></trkpt><trkpt lat="45.164791" lon="1.465561"><ele>100.60</ele><time>2010-10-11T13:00:14Z</time></trkpt><trkpt lat="45.164742" lon="1.465577"><ele>100.11</ele><time>2010-10-11T13:00:15Z</time></trkpt><trkpt lat="45.164690" lon="1.465594"><ele>100.11</ele><time>2010-10-11T13:00:16Z</time></trkpt><trkpt lat="45.164632" lon="1.465612"><ele>100.11</ele><time>2010-10-11T13:00:17Z</time></trkpt><trkpt lat="45.164667" lon="1.465602"><ele>100.11</ele><time>2010-10-11T13:00:18Z</time></trkpt><trkpt lat="45.164667" lon="1.465602"><ele>99.63</ele><time>2010-10-11T13:00:19Z</time></trkpt><trkpt lat="45.164667" lon="1.465602"><ele>99.63</ele><time>2010-10-11T13:00:20Z</time></trkpt><trkpt lat="45.164646" lon="1.465608"><ele>99.15</ele><time>2010-10-11T13:00:21Z</time></trkpt><trkpt lat="45.164696" lon="1.465593"><ele>98.67</ele><time>2010-10-11T13:00:22Z</time></trkpt><trkpt lat="45.164748" lon="1.465575"><ele>98.67</ele><time>2010-10-11T13:00:23Z</time></trkpt><trkpt lat="45.164804" lon="1.465557"><ele>98.67</ele><time>2010-10-11T13:00:24Z</time></trkpt><trkpt lat="45.164864" lon="1.465538"><ele>98.67</ele><time>2010-10-11T13:00:25Z</time></trkpt><trkpt lat="45.164934" lon="1.465515"><ele>98.67</ele><time>2010-10-11T13:00:26Z</time></trkpt><trkpt lat="45.165017" lon="1.465488"><ele>98.67</ele><time>2010-10-11T13:00:27Z</time></trkpt><trkpt lat="45.165115" lon="1.465456"><ele>98.19</ele><time>2010-10-11T13:00:28Z</time></trkpt><trkpt lat="45.165227" lon="1.465419"><ele>98.19</ele><time>2010-10-11T13:00:29Z</time></trkpt><trkpt lat="45.165350" lon="1.465379"><ele>98.19</ele><time>2010-10-11T13:00:30Z</time></trkpt><trkpt lat="45.165484" lon="1.465335"><ele>97.71</ele><time>2010-10-11T13:00:31Z</time></trkpt><trkpt lat="45.165625" lon="1.465289"><ele>97.71</ele><time>2010-10-11T13:00:32Z</time></trkpt><trkpt lat="45.165772" lon="1.465241"><ele>97.71</ele><time>2010-10-11T13:00:33Z</time></trkpt><trkpt lat="45.165927" lon="1.465190"><ele>97.23</ele><time>2010-10-11T13:00:34Z</time></trkpt><trkpt lat="45.167203" lon="1.465817"><ele>98.19</ele><time>2010-10-11T13:00:41Z</time></trkpt><trkpt lat="45.168744" lon="1.467447"><ele>104.44</ele><time>2010-10-11T13:00:49Z</time></trkpt><trkpt lat="45.168771" lon="1.467480"><ele>105.88</ele><time>2010-10-11T13:00:53Z</time></trkpt><trkpt lat="45.168822" lon="1.467541"><ele>106.36</ele><time>2010-10-11T13:00:54Z</time></trkpt><trkpt lat="45.168860" lon="1.467587"><ele>106.36</ele><time>2010-10-11T13:00:55Z</time></trkpt><trkpt lat="45.168826" lon="1.467863"><ele>106.36</ele><time>2010-10-11T13:00:56Z</time></trkpt><trkpt lat="45.168744" lon="1.467962"><ele>106.36</ele><time>2010-10-11T13:00:57Z</time></trkpt><trkpt lat="45.168716" lon="1.467975"><ele>105.88</ele><time>2010-10-11T13:00:58Z</time></trkpt><trkpt lat="45.168643" lon="1.468007"><ele>105.88</ele><time>2010-10-11T13:00:59Z</time></trkpt><trkpt lat="45.168557" lon="1.468045"><ele>105.88</ele><time>2010-10-11T13:01:00Z</time></trkpt><trkpt lat="45.168458" lon="1.468089"><ele>105.88</ele><time>2010-10-11T13:01:01Z</time></trkpt><trkpt lat="45.167621" lon="1.468602"><ele>103.48</ele><time>2010-10-11T13:01:07Z</time></trkpt><trkpt lat="45.166493" lon="1.469616"><ele>102.04</ele><time>2010-10-11T13:01:14Z</time></trkpt><trkpt lat="45.165278" lon="1.471148"><ele>100.60</ele><time>2010-10-11T13:01:22Z</time></trkpt><trkpt lat="45.164772" lon="1.472142"><ele>100.11</ele><time>2010-10-11T13:01:26Z</time></trkpt><trkpt lat="45.164376" lon="1.473993"><ele>100.60</ele><time>2010-10-11T13:01:32Z</time></trkpt><trkpt lat="45.164110" lon="1.476893"><ele>101.08</ele><time>2010-10-11T13:01:41Z</time></trkpt><trkpt lat="45.164202" lon="1.477818"><ele>101.56</ele><time>2010-10-11T13:01:46Z</time></trkpt><trkpt lat="45.164229" lon="1.478061"><ele>101.56</ele><time>2010-10-11T13:01:48Z</time></trkpt><trkpt lat="45.164191" lon="1.478118"><ele>101.56</ele><time>2010-10-11T13:01:49Z</time></trkpt><trkpt lat="45.164152" lon="1.478391"><ele>101.56</ele><time>2010-10-11T13:01:51Z</time></trkpt><trkpt lat="45.164179" lon="1.478459"><ele>101.56</ele><time>2010-10-11T13:01:52Z</time></trkpt><trkpt lat="45.164221" lon="1.478564"><ele>101.08</ele><time>2010-10-11T13:01:53Z</time></trkpt><trkpt lat="45.164323" lon="1.478691"><ele>101.08</ele><time>2010-10-11T13:01:54Z</time></trkpt><trkpt lat="45.164331" lon="1.478688"><ele>101.08</ele><time>2010-10-11T13:01:55Z</time></trkpt><trkpt lat="45.164401" lon="1.478660"><ele>101.08</ele><time>2010-10-11T13:01:56Z</time></trkpt><trkpt lat="45.164478" lon="1.478629"><ele>101.08</ele><time>2010-10-11T13:01:57Z</time></trkpt><trkpt lat="45.164538" lon="1.478605"><ele>101.08</ele><time>2010-10-11T13:01:58Z</time></trkpt><trkpt lat="45.164572" lon="1.478504"><ele>101.08</ele><time>2010-10-11T13:01:59Z</time></trkpt><trkpt lat="45.164666" lon="1.478348"><ele>100.60</ele><time>2010-10-11T13:02:00Z</time></trkpt><trkpt lat="45.164740" lon="1.478348"><ele>100.60</ele><time>2010-10-11T13:02:01Z</time></trkpt><trkpt lat="45.164829" lon="1.478348"><ele>100.60</ele><time>2010-10-11T13:02:02Z</time></trkpt><trkpt lat="45.164927" lon="1.478348"><ele>100.60</ele><time>2010-10-11T13:02:03Z</time></trkpt><trkpt lat="45.165160" lon="1.478374"><ele>101.08</ele><time>2010-10-11T13:02:05Z</time></trkpt><trkpt lat="45.165279" lon="1.478404"><ele>101.56</ele><time>2010-10-11T13:02:06Z</time></trkpt><trkpt lat="45.165427" lon="1.478479"><ele>102.04</ele><time>2010-10-11T13:02:07Z</time></trkpt><trkpt lat="45.165507" lon="1.478599"><ele>103.00</ele><time>2010-10-11T13:02:08Z</time></trkpt><trkpt lat="45.165577" lon="1.478749"><ele>103.48</ele><time>2010-10-11T13:02:09Z</time></trkpt><trkpt lat="45.165602" lon="1.478897"><ele>104.44</ele><time>2010-10-11T13:02:10Z</time></trkpt><trkpt lat="45.165611" lon="1.479049"><ele>104.92</ele><time>2010-10-11T13:02:11Z</time></trkpt><trkpt lat="45.165601" lon="1.479191"><ele>105.88</ele><time>2010-10-11T13:02:12Z</time></trkpt><trkpt lat="45.165555" lon="1.479331"><ele>106.36</ele><time>2010-10-11T13:02:13Z</time></trkpt><trkpt lat="45.165499" lon="1.479436"><ele>106.84</ele><time>2010-10-11T13:02:14Z</time></trkpt><trkpt lat="45.165399" lon="1.479496"><ele>107.32</ele><time>2010-10-11T13:02:15Z</time></trkpt><trkpt lat="45.165310" lon="1.479549"><ele>107.81</ele><time>2010-10-11T13:02:16Z</time></trkpt><trkpt lat="45.165207" lon="1.479536"><ele>108.29</ele><time>2010-10-11T13:02:17Z</time></trkpt><trkpt lat="45.165098" lon="1.479521"><ele>109.25</ele><time>2010-10-11T13:02:18Z</time></trkpt><trkpt lat="45.164980" lon="1.479506"><ele>109.73</ele><time>2010-10-11T13:02:19Z</time></trkpt><trkpt lat="45.164852" lon="1.479488"><ele>110.21</ele><time>2010-10-11T13:02:20Z</time></trkpt><trkpt lat="45.163818" lon="1.479159"><ele>110.21</ele><time>2010-10-11T13:02:26Z</time></trkpt><trkpt lat="45.162217" lon="1.479113"><ele>108.29</ele><time>2010-10-11T13:02:33Z</time></trkpt><trkpt lat="45.160560" lon="1.479846"><ele>105.88</ele><time>2010-10-11T13:02:40Z</time></trkpt><trkpt lat="45.157999" lon="1.481742"><ele>105.88</ele><time>2010-10-11T13:02:51Z</time></trkpt><trkpt lat="45.155778" lon="1.482947"><ele>110.69</ele><time>2010-10-11T13:03:00Z</time></trkpt><trkpt lat="45.153338" lon="1.483611"><ele>115.50</ele><time>2010-10-11T13:03:10Z</time></trkpt><trkpt lat="45.150797" lon="1.484285"><ele>114.05</ele><time>2010-10-11T13:03:21Z</time></trkpt><trkpt lat="45.147725" lon="1.485100"><ele>113.57</ele><time>2010-10-11T13:03:33Z</time></trkpt><trkpt lat="45.144046" lon="1.486052"><ele>114.05</ele><time>2010-10-11T13:03:48Z</time></trkpt><trkpt lat="45.141545" lon="1.487142"><ele>115.98</ele><time>2010-10-11T13:03:58Z</time></trkpt><trkpt lat="45.139979" lon="1.488678"><ele>118.86</ele><time>2010-10-11T13:04:05Z</time></trkpt><trkpt lat="45.137499" lon="1.491191"><ele>122.71</ele><time>2010-10-11T13:04:16Z</time></trkpt><trkpt lat="45.136201" lon="1.491808"><ele>124.63</ele><time>2010-10-11T13:04:22Z</time></trkpt><trkpt lat="45.134234" lon="1.491980"><ele>126.07</ele><time>2010-10-11T13:04:28Z</time></trkpt><trkpt lat="45.130545" lon="1.491786"><ele>129.92</ele><time>2010-10-11T13:04:41Z</time></trkpt><trkpt lat="45.128436" lon="1.492411"><ele>132.80</ele><time>2010-10-11T13:04:49Z</time></trkpt><trkpt lat="45.126763" lon="1.493580"><ele>140.01</ele><time>2010-10-11T13:04:56Z</time></trkpt><trkpt lat="45.125320" lon="1.495167"><ele>150.10</ele><time>2010-10-11T13:05:03Z</time></trkpt><trkpt lat="45.123128" lon="1.498049"><ele>168.37</ele><time>2010-10-11T13:05:15Z</time></trkpt><trkpt lat="45.121147" lon="1.500140"><ele>180.38</ele><time>2010-10-11T13:05:25Z</time></trkpt><trkpt lat="45.119467" lon="1.500929"><ele>186.15</ele><time>2010-10-11T13:05:32Z</time></trkpt><trkpt lat="45.117970" lon="1.500840"><ele>190.48</ele><time>2010-10-11T13:05:38Z</time></trkpt><trkpt lat="45.114193" lon="1.499759"><ele>200.57</ele><time>2010-10-11T13:05:53Z</time></trkpt><trkpt lat="45.113255" lon="1.499805"><ele>202.98</ele><time>2010-10-11T13:05:57Z</time></trkpt><trkpt lat="45.113033" lon="1.499890"><ele>203.94</ele><time>2010-10-11T13:05:58Z</time></trkpt><trkpt lat="45.112801" lon="1.499979"><ele>204.42</ele><time>2010-10-11T13:05:59Z</time></trkpt><trkpt lat="45.112581" lon="1.500097"><ele>204.90</ele><time>2010-10-11T13:06:00Z</time></trkpt><trkpt lat="45.112360" lon="1.500244"><ele>205.86</ele><time>2010-10-11T13:06:01Z</time></trkpt><trkpt lat="45.112153" lon="1.500408"><ele>206.34</ele><time>2010-10-11T13:06:02Z</time></trkpt><trkpt lat="45.111962" lon="1.500600"><ele>206.34</ele><time>2010-10-11T13:06:03Z</time></trkpt><trkpt lat="45.111777" lon="1.500823"><ele>206.82</ele><time>2010-10-11T13:06:04Z</time></trkpt><trkpt lat="45.111409" lon="1.501265"><ele>206.34</ele><time>2010-10-11T13:06:06Z</time></trkpt><trkpt lat="45.111276" lon="1.501531"><ele>205.38</ele><time>2010-10-11T13:06:07Z</time></trkpt><trkpt lat="45.110576" lon="1.503431"><ele>199.61</ele><time>2010-10-11T13:06:13Z</time></trkpt><trkpt lat="45.109790" lon="1.505526"><ele>193.36</ele><time>2010-10-11T13:06:19Z</time></trkpt><trkpt lat="45.109613" lon="1.505839"><ele>192.88</ele><time>2010-10-11T13:06:20Z</time></trkpt><trkpt lat="45.109439" lon="1.506150"><ele>191.92</ele><time>2010-10-11T13:06:21Z</time></trkpt><trkpt lat="45.107905" lon="1.508247"><ele>195.77</ele><time>2010-10-11T13:06:29Z</time></trkpt><trkpt lat="45.107791" lon="1.508553"><ele>196.73</ele><time>2010-10-11T13:06:30Z</time></trkpt><trkpt lat="45.107677" lon="1.508855"><ele>197.21</ele><time>2010-10-11T13:06:31Z</time></trkpt><trkpt lat="45.107590" lon="1.509167"><ele>198.17</ele><time>2010-10-11T13:06:32Z</time></trkpt><trkpt lat="45.107504" lon="1.509477"><ele>199.13</ele><time>2010-10-11T13:06:33Z</time></trkpt><trkpt lat="45.107445" lon="1.509792"><ele>200.09</ele><time>2010-10-11T13:06:34Z</time></trkpt><trkpt lat="45.107412" lon="1.510115"><ele>201.05</ele><time>2010-10-11T13:06:35Z</time></trkpt><trkpt lat="45.107380" lon="1.510436"><ele>202.01</ele><time>2010-10-11T13:06:36Z</time></trkpt><trkpt lat="45.107369" lon="1.510758"><ele>202.98</ele><time>2010-10-11T13:06:37Z</time></trkpt><trkpt lat="45.107136" lon="1.514000"><ele>210.19</ele><time>2010-10-11T13:06:47Z</time></trkpt><trkpt lat="45.106847" lon="1.514911"><ele>211.15</ele><time>2010-10-11T13:06:50Z</time></trkpt><trkpt lat="45.106727" lon="1.515204"><ele>212.11</ele><time>2010-10-11T13:06:51Z</time></trkpt><trkpt lat="45.106574" lon="1.515458"><ele>212.59</ele><time>2010-10-11T13:06:52Z</time></trkpt><trkpt lat="45.106406" lon="1.515716"><ele>213.07</ele><time>2010-10-11T13:06:53Z</time></trkpt><trkpt lat="45.106238" lon="1.515955"><ele>214.03</ele><time>2010-10-11T13:06:54Z</time></trkpt><trkpt lat="45.106030" lon="1.516140"><ele>214.51</ele><time>2010-10-11T13:06:55Z</time></trkpt><trkpt lat="45.105821" lon="1.516326"><ele>215.47</ele><time>2010-10-11T13:06:56Z</time></trkpt><trkpt lat="45.105612" lon="1.516512"><ele>215.95</ele><time>2010-10-11T13:06:57Z</time></trkpt><trkpt lat="45.105394" lon="1.516662"><ele>216.91</ele><time>2010-10-11T13:06:58Z</time></trkpt><trkpt lat="45.105163" lon="1.516791"><ele>217.40</ele><time>2010-10-11T13:06:59Z</time></trkpt><trkpt lat="45.103109" lon="1.517750"><ele>224.12</ele><time>2010-10-11T13:07:08Z</time></trkpt><trkpt lat="45.097745" lon="1.520051"><ele>229.41</ele><time>2010-10-11T13:07:31Z</time></trkpt><trkpt lat="45.095393" lon="1.519870"><ele>224.61</ele><time>2010-10-11T13:07:40Z</time></trkpt><trkpt lat="45.090827" lon="1.519428"><ele>204.90</ele><time>2010-10-11T13:07:58Z</time></trkpt><trkpt lat="45.087574" lon="1.518820"><ele>206.34</ele><time>2010-10-11T13:08:11Z</time></trkpt><trkpt lat="45.086304" lon="1.517800"><ele>212.59</ele><time>2010-10-11T13:08:17Z</time></trkpt><trkpt lat="45.085135" lon="1.516062"><ele>222.68</ele><time>2010-10-11T13:08:24Z</time></trkpt><trkpt lat="45.083863" lon="1.514545"><ele>232.78</ele><time>2010-10-11T13:08:31Z</time></trkpt><trkpt lat="45.082524" lon="1.513864"><ele>239.51</ele><time>2010-10-11T13:08:37Z</time></trkpt><trkpt lat="45.081072" lon="1.513842"><ele>245.27</ele><time>2010-10-11T13:08:43Z</time></trkpt><trkpt lat="45.079262" lon="1.513780"><ele>251.04</ele><time>2010-10-11T13:08:51Z</time></trkpt><trkpt lat="45.077307" lon="1.512897"><ele>253.93</ele><time>2010-10-11T13:09:00Z</time></trkpt><trkpt lat="45.074696" lon="1.511662"><ele>260.65</ele><time>2010-10-11T13:09:12Z</time></trkpt><trkpt lat="45.073153" lon="1.510651"><ele>265.46</ele><time>2010-10-11T13:09:19Z</time></trkpt><trkpt lat="45.071175" lon="1.508920"><ele>270.75</ele><time>2010-10-11T13:09:28Z</time></trkpt><trkpt lat="45.068630" lon="1.507449"><ele>278.44</ele><time>2010-10-11T13:09:38Z</time></trkpt><trkpt lat="45.066088" lon="1.506406"><ele>286.61</ele><time>2010-10-11T13:09:47Z</time></trkpt><trkpt lat="45.063467" lon="1.506114"><ele>295.74</ele><time>2010-10-11T13:09:56Z</time></trkpt><trkpt lat="45.060883" lon="1.506477"><ele>304.88</ele><time>2010-10-11T13:10:05Z</time></trkpt><trkpt lat="45.057961" lon="1.507447"><ele>315.93</ele><time>2010-10-11T13:10:15Z</time></trkpt><trkpt lat="45.054862" lon="1.509148"><ele>326.99</ele><time>2010-10-11T13:10:26Z</time></trkpt><trkpt lat="45.052018" lon="1.511415"><ele>331.79</ele><time>2010-10-11T13:10:37Z</time></trkpt><trkpt lat="45.049378" lon="1.514050"><ele>328.43</ele><time>2010-10-11T13:10:48Z</time></trkpt><trkpt lat="45.045811" lon="1.517750"><ele>319.30</ele><time>2010-10-11T13:11:03Z</time></trkpt><trkpt lat="45.043646" lon="1.519805"><ele>314.01</ele><time>2010-10-11T13:11:12Z</time></trkpt><trkpt lat="45.041039" lon="1.521963"><ele>307.76</ele><time>2010-10-11T13:11:23Z</time></trkpt><trkpt lat="45.038091" lon="1.523955"><ele>300.07</ele><time>2010-10-11T13:11:34Z</time></trkpt><trkpt lat="45.034909" lon="1.525671"><ele>293.34</ele><time>2010-10-11T13:11:46Z</time></trkpt><trkpt lat="45.030441" lon="1.527736"><ele>282.28</ele><time>2010-10-11T13:12:03Z</time></trkpt><trkpt lat="45.027587" lon="1.529524"><ele>277.00</ele><time>2010-10-11T13:12:14Z</time></trkpt><trkpt lat="45.024534" lon="1.532133"><ele>274.59</ele><time>2010-10-11T13:12:27Z</time></trkpt><trkpt lat="45.021769" lon="1.534124"><ele>271.71</ele><time>2010-10-11T13:12:38Z</time></trkpt><trkpt lat="45.019257" lon="1.535298"><ele>269.79</ele><time>2010-10-11T13:12:47Z</time></trkpt><trkpt lat="45.016666" lon="1.535860"><ele>269.31</ele><time>2010-10-11T13:12:56Z</time></trkpt><trkpt lat="45.014184" lon="1.535839"><ele>273.63</ele><time>2010-10-11T13:13:05Z</time></trkpt><trkpt lat="45.011563" lon="1.535174"><ele>280.84</ele><time>2010-10-11T13:13:15Z</time></trkpt><trkpt lat="45.007967" lon="1.533590"><ele>293.34</ele><time>2010-10-11T13:13:29Z</time></trkpt><trkpt lat="45.003628" lon="1.531520"><ele>302.47</ele><time>2010-10-11T13:13:45Z</time></trkpt><trkpt lat="45.000235" lon="1.529931"><ele>301.51</ele><time>2010-10-11T13:13:58Z</time></trkpt><trkpt lat="44.997091" lon="1.528512"><ele>297.67</ele><time>2010-10-11T13:14:09Z</time></trkpt><trkpt lat="44.994937" lon="1.527829"><ele>294.30</ele><time>2010-10-11T13:14:19Z</time></trkpt><trkpt lat="44.992067" lon="1.526801"><ele>291.42</ele><time>2010-10-11T13:14:35Z</time></trkpt><trkpt lat="44.991196" lon="1.526581"><ele>292.38</ele><time>2010-10-11T13:14:42Z</time></trkpt><trkpt lat="44.990966" lon="1.526521"><ele>293.34</ele><time>2010-10-11T13:14:48Z</time></trkpt><trkpt lat="44.990791" lon="1.526467"><ele>291.90</ele><time>2010-10-11T13:14:57Z</time></trkpt><trkpt lat="44.990747" lon="1.526453"><ele>291.42</ele><time>2010-10-11T13:14:58Z</time></trkpt><trkpt lat="44.990737" lon="1.526450"><ele>290.94</ele><time>2010-10-11T13:15:03Z</time></trkpt><trkpt lat="44.990397" lon="1.526343"><ele>289.97</ele><time>2010-10-11T13:15:08Z</time></trkpt><trkpt lat="44.989513" lon="1.526061"><ele>288.53</ele><time>2010-10-11T13:15:14Z</time></trkpt><trkpt lat="44.987520" lon="1.525525"><ele>285.65</ele><time>2010-10-11T13:15:24Z</time></trkpt><trkpt lat="44.985189" lon="1.524969"><ele>282.77</ele><time>2010-10-11T13:15:34Z</time></trkpt><trkpt lat="44.982161" lon="1.524249"><ele>281.32</ele><time>2010-10-11T13:15:47Z</time></trkpt><trkpt lat="44.979212" lon="1.523558"><ele>278.92</ele><time>2010-10-11T13:16:00Z</time></trkpt><trkpt lat="44.975998" lon="1.522797"><ele>276.52</ele><time>2010-10-11T13:16:15Z</time></trkpt><trkpt lat="44.973563" lon="1.521951"><ele>274.59</ele><time>2010-10-11T13:16:25Z</time></trkpt><trkpt lat="44.971253" lon="1.520669"><ele>272.19</ele><time>2010-10-11T13:16:35Z</time></trkpt><trkpt lat="44.969508" lon="1.519224"><ele>270.27</ele><time>2010-10-11T13:16:42Z</time></trkpt><trkpt lat="44.967483" lon="1.517052"><ele>266.90</ele><time>2010-10-11T13:16:50Z</time></trkpt><trkpt lat="44.965406" lon="1.514075"><ele>263.54</ele><time>2010-10-11T13:17:00Z</time></trkpt><trkpt lat="44.963436" lon="1.511199"><ele>261.14</ele><time>2010-10-11T13:17:08Z</time></trkpt><trkpt lat="44.961972" lon="1.509229"><ele>259.21</ele><time>2010-10-11T13:17:16Z</time></trkpt><trkpt lat="44.959938" lon="1.506962"><ele>256.81</ele><time>2010-10-11T13:17:25Z</time></trkpt><trkpt lat="44.957268" lon="1.504689"><ele>255.85</ele><time>2010-10-11T13:17:35Z</time></trkpt><trkpt lat="44.954304" lon="1.502935"><ele>260.65</ele><time>2010-10-11T13:17:45Z</time></trkpt><trkpt lat="44.951641" lon="1.501928"><ele>268.83</ele><time>2010-10-11T13:17:54Z</time></trkpt><trkpt lat="44.948463" lon="1.501406"><ele>280.36</ele><time>2010-10-11T13:18:05Z</time></trkpt><trkpt lat="44.946620" lon="1.501383"><ele>287.57</ele><time>2010-10-11T13:18:12Z</time></trkpt><trkpt lat="44.946302" lon="1.501395"><ele>289.49</ele><time>2010-10-11T13:18:14Z</time></trkpt><trkpt lat="44.946146" lon="1.501415"><ele>289.97</ele><time>2010-10-11T13:18:15Z</time></trkpt><trkpt lat="44.944728" lon="1.501596"><ele>294.30</ele><time>2010-10-11T13:18:22Z</time></trkpt><trkpt lat="44.942648" lon="1.502024"><ele>297.67</ele><time>2010-10-11T13:18:31Z</time></trkpt><trkpt lat="44.938085" lon="1.503020"><ele>300.55</ele><time>2010-10-11T13:18:45Z</time></trkpt><trkpt lat="44.935113" lon="1.503186"><ele>297.67</ele><time>2010-10-11T13:18:54Z</time></trkpt><trkpt lat="44.932496" lon="1.502658"><ele>286.61</ele><time>2010-10-11T13:19:02Z</time></trkpt><trkpt lat="44.929621" lon="1.501483"><ele>270.75</ele><time>2010-10-11T13:19:11Z</time></trkpt><trkpt lat="44.925367" lon="1.499491"><ele>247.20</ele><time>2010-10-11T13:19:24Z</time></trkpt><trkpt lat="44.922005" lon="1.498549"><ele>230.37</ele><time>2010-10-11T13:19:34Z</time></trkpt><trkpt lat="44.918951" lon="1.498389"><ele>216.91</ele><time>2010-10-11T13:19:43Z</time></trkpt><trkpt lat="44.915574" lon="1.498740"><ele>202.01</ele><time>2010-10-11T13:19:53Z</time></trkpt><trkpt lat="44.911459" lon="1.499274"><ele>184.23</ele><time>2010-10-11T13:20:05Z</time></trkpt><trkpt lat="44.907636" lon="1.499764"><ele>171.73</ele><time>2010-10-11T13:20:17Z</time></trkpt><trkpt lat="44.903238" lon="1.500361"><ele>165.00</ele><time>2010-10-11T13:20:30Z</time></trkpt><trkpt lat="44.900838" lon="1.500700"><ele>167.89</ele><time>2010-10-11T13:20:38Z</time></trkpt><trkpt lat="44.898973" lon="1.500878"><ele>173.66</ele><time>2010-10-11T13:20:46Z</time></trkpt><trkpt lat="44.898624" lon="1.500857"><ele>175.10</ele><time>2010-10-11T13:20:48Z</time></trkpt><trkpt lat="44.898464" lon="1.500821"><ele>175.58</ele><time>2010-10-11T13:20:49Z</time></trkpt><trkpt lat="44.898322" lon="1.500784"><ele>176.06</ele><time>2010-10-11T13:20:50Z</time></trkpt><trkpt lat="44.898187" lon="1.500694"><ele>176.54</ele><time>2010-10-11T13:20:51Z</time></trkpt><trkpt lat="44.898055" lon="1.500606"><ele>176.54</ele><time>2010-10-11T13:20:52Z</time></trkpt><trkpt lat="44.897937" lon="1.500522"><ele>176.54</ele><time>2010-10-11T13:20:53Z</time></trkpt><trkpt lat="44.897833" lon="1.500392"><ele>176.54</ele><time>2010-10-11T13:20:54Z</time></trkpt><trkpt lat="44.897735" lon="1.500264"><ele>176.54</ele><time>2010-10-11T13:20:55Z</time></trkpt><trkpt lat="44.897641" lon="1.500134"><ele>176.54</ele><time>2010-10-11T13:20:56Z</time></trkpt><trkpt lat="44.897236" lon="1.499738"><ele>177.02</ele><time>2010-10-11T13:21:00Z</time></trkpt><trkpt lat="44.897150" lon="1.499677"><ele>177.02</ele><time>2010-10-11T13:21:01Z</time></trkpt><trkpt lat="44.897040" lon="1.499677"><ele>177.02</ele><time>2010-10-11T13:21:02Z</time></trkpt><trkpt lat="44.896923" lon="1.499677"><ele>177.02</ele><time>2010-10-11T13:21:03Z</time></trkpt><trkpt lat="44.896847" lon="1.499701"><ele>177.02</ele><time>2010-10-11T13:21:04Z</time></trkpt><trkpt lat="44.896746" lon="1.499790"><ele>177.50</ele><time>2010-10-11T13:21:05Z</time></trkpt><trkpt lat="44.896641" lon="1.499881"><ele>177.50</ele><time>2010-10-11T13:21:06Z</time></trkpt><trkpt lat="44.896537" lon="1.499973"><ele>177.98</ele><time>2010-10-11T13:21:07Z</time></trkpt><trkpt lat="44.896483" lon="1.500100"><ele>178.46</ele><time>2010-10-11T13:21:08Z</time></trkpt><trkpt lat="44.896417" lon="1.500263"><ele>178.94</ele><time>2010-10-11T13:21:09Z</time></trkpt><trkpt lat="44.896360" lon="1.500406"><ele>178.94</ele><time>2010-10-11T13:21:10Z</time></trkpt><trkpt lat="44.896348" lon="1.500602"><ele>178.94</ele><time>2010-10-11T13:21:11Z</time></trkpt><trkpt lat="44.896336" lon="1.500805"><ele>178.94</ele><time>2010-10-11T13:21:12Z</time></trkpt><trkpt lat="44.896324" lon="1.501020"><ele>178.46</ele><time>2010-10-11T13:21:13Z</time></trkpt><trkpt lat="44.896317" lon="1.501232"><ele>178.46</ele><time>2010-10-11T13:21:14Z</time></trkpt><trkpt lat="44.896317" lon="1.501463"><ele>178.46</ele><time>2010-10-11T13:21:15Z</time></trkpt><trkpt lat="44.896641" lon="1.502869"><ele>176.06</ele><time>2010-10-11T13:21:21Z</time></trkpt><trkpt lat="44.897368" lon="1.504105"><ele>171.25</ele><time>2010-10-11T13:21:27Z</time></trkpt><trkpt lat="44.897605" lon="1.504312"><ele>169.81</ele><time>2010-10-11T13:21:29Z</time></trkpt><trkpt lat="44.897605" lon="1.504312"><ele>169.33</ele><time>2010-10-11T13:21:30Z</time></trkpt><trkpt lat="44.898076" lon="1.504648"><ele>168.85</ele><time>2010-10-11T13:21:31Z</time></trkpt><trkpt lat="44.899226" lon="1.504869"><ele>164.52</ele><time>2010-10-11T13:21:37Z</time></trkpt><trkpt lat="44.900208" lon="1.504542"><ele>162.12</ele><time>2010-10-11T13:21:43Z</time></trkpt><trkpt lat="44.900621" lon="1.504348"><ele>160.68</ele><time>2010-10-11T13:21:48Z</time></trkpt><trkpt lat="44.900654" lon="1.504332"><ele>159.72</ele><time>2010-10-11T13:21:54Z</time></trkpt><trkpt lat="44.900675" lon="1.504321"><ele>159.24</ele><time>2010-10-11T13:22:06Z</time></trkpt><trkpt lat="44.900704" lon="1.504307"><ele>158.75</ele><time>2010-10-11T13:22:07Z</time></trkpt><trkpt lat="44.900757" lon="1.504280"><ele>158.27</ele><time>2010-10-11T13:22:08Z</time></trkpt><trkpt lat="44.900837" lon="1.504236"><ele>157.79</ele><time>2010-10-11T13:22:09Z</time></trkpt><trkpt lat="44.900941" lon="1.504176"><ele>157.31</ele><time>2010-10-11T13:22:10Z</time></trkpt><trkpt lat="44.901979" lon="1.503567"><ele>156.35</ele><time>2010-10-11T13:22:17Z</time></trkpt><trkpt lat="44.903194" lon="1.502788"><ele>154.91</ele><time>2010-10-11T13:22:24Z</time></trkpt><trkpt lat="44.903335" lon="1.502615"><ele>154.91</ele><time>2010-10-11T13:22:25Z</time></trkpt><trkpt lat="44.903453" lon="1.502444"><ele>154.91</ele><time>2010-10-11T13:22:26Z</time></trkpt><trkpt lat="44.903556" lon="1.502260"><ele>154.43</ele><time>2010-10-11T13:22:27Z</time></trkpt><trkpt lat="44.903663" lon="1.502044"><ele>154.43</ele><time>2010-10-11T13:22:28Z</time></trkpt><trkpt lat="44.903709" lon="1.501812"><ele>154.43</ele><time>2010-10-11T13:22:29Z</time></trkpt><trkpt lat="44.903746" lon="1.501559"><ele>154.43</ele><time>2010-10-11T13:22:30Z</time></trkpt><trkpt lat="44.903760" lon="1.501300"><ele>153.95</ele><time>2010-10-11T13:22:31Z</time></trkpt><trkpt lat="44.903774" lon="1.501028"><ele>153.95</ele><time>2010-10-11T13:22:32Z</time></trkpt><trkpt lat="44.904017" lon="1.498570"><ele>147.70</ele><time>2010-10-11T13:22:40Z</time></trkpt><trkpt lat="44.904085" lon="1.498283"><ele>146.26</ele><time>2010-10-11T13:22:41Z</time></trkpt><trkpt lat="44.904148" lon="1.498014"><ele>145.30</ele><time>2010-10-11T13:22:42Z</time></trkpt><trkpt lat="44.904424" lon="1.497303"><ele>140.97</ele><time>2010-10-11T13:22:45Z</time></trkpt><trkpt lat="44.904536" lon="1.497086"><ele>139.53</ele><time>2010-10-11T13:22:46Z</time></trkpt><trkpt lat="44.904666" lon="1.496880"><ele>138.09</ele><time>2010-10-11T13:22:47Z</time></trkpt><trkpt lat="44.904799" lon="1.496684"><ele>136.64</ele><time>2010-10-11T13:22:48Z</time></trkpt><trkpt lat="44.904946" lon="1.496516"><ele>135.20</ele><time>2010-10-11T13:22:49Z</time></trkpt><trkpt lat="44.905091" lon="1.496357"><ele>133.76</ele><time>2010-10-11T13:22:50Z</time></trkpt><trkpt lat="44.905247" lon="1.496229"><ele>132.80</ele><time>2010-10-11T13:22:51Z</time></trkpt><trkpt lat="44.906304" lon="1.495692"><ele>124.15</ele><time>2010-10-11T13:22:58Z</time></trkpt><trkpt lat="44.907212" lon="1.495471"><ele>119.34</ele><time>2010-10-11T13:23:06Z</time></trkpt><trkpt lat="44.907282" lon="1.495471"><ele>118.86</ele><time>2010-10-11T13:23:07Z</time></trkpt><trkpt lat="44.907352" lon="1.495508"><ele>118.38</ele><time>2010-10-11T13:23:08Z</time></trkpt><trkpt lat="44.907417" lon="1.495556"><ele>117.90</ele><time>2010-10-11T13:23:09Z</time></trkpt><trkpt lat="44.907475" lon="1.495600"><ele>117.90</ele><time>2010-10-11T13:23:10Z</time></trkpt><trkpt lat="44.907546" lon="1.495600"><ele>117.90</ele><time>2010-10-11T13:23:11Z</time></trkpt><trkpt lat="44.907546" lon="1.495600"><ele>117.42</ele><time>2010-10-11T13:23:12Z</time></trkpt><trkpt lat="44.907688" lon="1.495610"><ele>117.42</ele><time>2010-10-11T13:23:13Z</time></trkpt><trkpt lat="44.907752" lon="1.495626"><ele>117.42</ele><time>2010-10-11T13:23:14Z</time></trkpt><trkpt lat="44.907817" lon="1.495642"><ele>117.42</ele><time>2010-10-11T13:23:15Z</time></trkpt><trkpt lat="44.907882" lon="1.495659"><ele>117.42</ele><time>2010-10-11T13:23:16Z</time></trkpt><trkpt lat="44.908094" lon="1.495774"><ele>117.90</ele><time>2010-10-11T13:23:19Z</time></trkpt><trkpt lat="44.908163" lon="1.495833"><ele>117.90</ele><time>2010-10-11T13:23:20Z</time></trkpt><trkpt lat="44.908239" lon="1.495899"><ele>117.42</ele><time>2010-10-11T13:23:21Z</time></trkpt><trkpt lat="44.908384" lon="1.496064"><ele>117.42</ele><time>2010-10-11T13:23:23Z</time></trkpt><trkpt lat="44.909094" lon="1.496967"><ele>118.38</ele><time>2010-10-11T13:23:31Z</time></trkpt><trkpt lat="44.909950" lon="1.498172"><ele>121.26</ele><time>2010-10-11T13:23:40Z</time></trkpt><trkpt lat="44.910098" lon="1.498630"><ele>122.71</ele><time>2010-10-11T13:23:43Z</time></trkpt><trkpt lat="44.910130" lon="1.498791"><ele>122.71</ele><time>2010-10-11T13:23:44Z</time></trkpt><trkpt lat="44.910128" lon="1.498936"><ele>123.19</ele><time>2010-10-11T13:23:45Z</time></trkpt><trkpt lat="44.910104" lon="1.499497"><ele>124.63</ele><time>2010-10-11T13:23:48Z</time></trkpt><trkpt lat="44.910152" lon="1.499668"><ele>125.11</ele><time>2010-10-11T13:23:49Z</time></trkpt><trkpt lat="44.910192" lon="1.499851"><ele>125.11</ele><time>2010-10-11T13:23:50Z</time></trkpt><trkpt lat="44.910232" lon="1.500039"><ele>125.59</ele><time>2010-10-11T13:23:51Z</time></trkpt><trkpt lat="44.910277" lon="1.500223"><ele>126.07</ele><time>2010-10-11T13:23:52Z</time></trkpt><trkpt lat="44.910721" lon="1.501417"><ele>129.92</ele><time>2010-10-11T13:23:59Z</time></trkpt><trkpt lat="44.910751" lon="1.501581"><ele>130.88</ele><time>2010-10-11T13:24:00Z</time></trkpt><trkpt lat="44.910780" lon="1.501746"><ele>131.36</ele><time>2010-10-11T13:24:01Z</time></trkpt><trkpt lat="44.910780" lon="1.501914"><ele>131.84</ele><time>2010-10-11T13:24:02Z</time></trkpt><trkpt lat="44.910755" lon="1.502085"><ele>132.80</ele><time>2010-10-11T13:24:03Z</time></trkpt><trkpt lat="44.910709" lon="1.502251"><ele>133.28</ele><time>2010-10-11T13:24:04Z</time></trkpt><trkpt lat="44.910663" lon="1.502423"><ele>133.76</ele><time>2010-10-11T13:24:05Z</time></trkpt><trkpt lat="44.910587" lon="1.502569"><ele>134.24</ele><time>2010-10-11T13:24:06Z</time></trkpt><trkpt lat="44.910498" lon="1.502715"><ele>134.72</ele><time>2010-10-11T13:24:07Z</time></trkpt><trkpt lat="44.910405" lon="1.502865"><ele>135.20</ele><time>2010-10-11T13:24:08Z</time></trkpt><trkpt lat="44.910309" lon="1.503022"><ele>135.68</ele><time>2010-10-11T13:24:09Z</time></trkpt><trkpt lat="44.910052" lon="1.503249"><ele>136.64</ele><time>2010-10-11T13:24:11Z</time></trkpt><trkpt lat="44.909923" lon="1.503364"><ele>137.13</ele><time>2010-10-11T13:24:12Z</time></trkpt><trkpt lat="44.909570" lon="1.503682"><ele>138.57</ele><time>2010-10-11T13:24:15Z</time></trkpt><trkpt lat="44.909482" lon="1.503827"><ele>138.57</ele><time>2010-10-11T13:24:16Z</time></trkpt><trkpt lat="44.909392" lon="1.503978"><ele>139.05</ele><time>2010-10-11T13:24:17Z</time></trkpt><trkpt lat="44.908671" lon="1.505694"><ele>144.82</ele><time>2010-10-11T13:24:26Z</time></trkpt><trkpt lat="44.907693" lon="1.508293"><ele>152.03</ele><time>2010-10-11T13:24:39Z</time></trkpt><trkpt lat="44.906927" lon="1.510181"><ele>158.27</ele><time>2010-10-11T13:24:50Z</time></trkpt><trkpt lat="44.906556" lon="1.510887"><ele>161.64</ele><time>2010-10-11T13:24:55Z</time></trkpt><trkpt lat="44.906531" lon="1.511015"><ele>162.12</ele><time>2010-10-11T13:24:56Z</time></trkpt><trkpt lat="44.906531" lon="1.511135"><ele>162.60</ele><time>2010-10-11T13:24:57Z</time></trkpt><trkpt lat="44.906577" lon="1.511227"><ele>163.56</ele><time>2010-10-11T13:24:58Z</time></trkpt><trkpt lat="44.906625" lon="1.511323"><ele>164.04</ele><time>2010-10-11T13:24:59Z</time></trkpt><trkpt lat="44.906660" lon="1.511393"><ele>164.52</ele><time>2010-10-11T13:25:00Z</time></trkpt><trkpt lat="44.906743" lon="1.511446"><ele>165.48</ele><time>2010-10-11T13:25:01Z</time></trkpt><trkpt lat="44.906842" lon="1.511510"><ele>165.96</ele><time>2010-10-11T13:25:02Z</time></trkpt><trkpt lat="44.906944" lon="1.511575"><ele>166.45</ele><time>2010-10-11T13:25:03Z</time></trkpt><trkpt lat="44.907266" lon="1.511784"><ele>167.89</ele><time>2010-10-11T13:25:06Z</time></trkpt><trkpt lat="44.907365" lon="1.511876"><ele>168.37</ele><time>2010-10-11T13:25:07Z</time></trkpt><trkpt lat="44.907465" lon="1.511970"><ele>169.33</ele><time>2010-10-11T13:25:08Z</time></trkpt><trkpt lat="44.907565" lon="1.512063"><ele>169.81</ele><time>2010-10-11T13:25:09Z</time></trkpt><trkpt lat="44.907662" lon="1.512154"><ele>170.29</ele><time>2010-10-11T13:25:10Z</time></trkpt><trkpt lat="44.907861" lon="1.512340"><ele>171.73</ele><time>2010-10-11T13:25:12Z</time></trkpt><trkpt lat="44.907974" lon="1.512424"><ele>172.21</ele><time>2010-10-11T13:25:13Z</time></trkpt><trkpt lat="44.908530" lon="1.512747"><ele>175.10</ele><time>2010-10-11T13:25:18Z</time></trkpt><trkpt lat="44.908639" lon="1.512795"><ele>175.10</ele><time>2010-10-11T13:25:19Z</time></trkpt><trkpt lat="44.908749" lon="1.512843"><ele>175.58</ele><time>2010-10-11T13:25:20Z</time></trkpt><trkpt lat="44.909195" lon="1.513069"><ele>177.98</ele><time>2010-10-11T13:25:24Z</time></trkpt><trkpt lat="44.909287" lon="1.513130"><ele>178.94</ele><time>2010-10-11T13:25:25Z</time></trkpt><trkpt lat="44.909356" lon="1.513246"><ele>179.90</ele><time>2010-10-11T13:25:26Z</time></trkpt><trkpt lat="44.909401" lon="1.513367"><ele>180.38</ele><time>2010-10-11T13:25:27Z</time></trkpt><trkpt lat="44.909447" lon="1.513489"><ele>181.35</ele><time>2010-10-11T13:25:28Z</time></trkpt><trkpt lat="44.909475" lon="1.513643"><ele>181.83</ele><time>2010-10-11T13:25:29Z</time></trkpt><trkpt lat="44.909528" lon="1.513942"><ele>183.27</ele><time>2010-10-11T13:25:31Z</time></trkpt><trkpt lat="44.909575" lon="1.514208"><ele>184.71</ele><time>2010-10-11T13:25:33Z</time></trkpt><trkpt lat="44.909608" lon="1.514278"><ele>185.67</ele><time>2010-10-11T13:25:34Z</time></trkpt><trkpt lat="44.909662" lon="1.514371"><ele>186.15</ele><time>2010-10-11T13:25:35Z</time></trkpt><trkpt lat="44.909708" lon="1.514452"><ele>187.11</ele><time>2010-10-11T13:25:36Z</time></trkpt><trkpt lat="44.909747" lon="1.514520"><ele>187.59</ele><time>2010-10-11T13:25:37Z</time></trkpt><trkpt lat="44.909844" lon="1.514549"><ele>187.59</ele><time>2010-10-11T13:25:38Z</time></trkpt><trkpt lat="44.909979" lon="1.514540"><ele>188.56</ele><time>2010-10-11T13:25:39Z</time></trkpt><trkpt lat="44.910122" lon="1.514395"><ele>189.04</ele><time>2010-10-11T13:25:40Z</time></trkpt><trkpt lat="44.910160" lon="1.514281"><ele>189.04</ele><time>2010-10-11T13:25:41Z</time></trkpt><trkpt lat="44.910190" lon="1.514093"><ele>189.52</ele><time>2010-10-11T13:25:42Z</time></trkpt><trkpt lat="44.910233" lon="1.513613"><ele>190.00</ele><time>2010-10-11T13:25:45Z</time></trkpt><trkpt lat="44.910292" lon="1.512946"><ele>188.56</ele><time>2010-10-11T13:25:49Z</time></trkpt><trkpt lat="44.910302" lon="1.512825"><ele>188.08</ele><time>2010-10-11T13:25:50Z</time></trkpt><trkpt lat="44.910383" lon="1.512660"><ele>187.59</ele><time>2010-10-11T13:25:51Z</time></trkpt><trkpt lat="44.910441" lon="1.512579"><ele>187.11</ele><time>2010-10-11T13:25:52Z</time></trkpt><trkpt lat="44.910573" lon="1.512465"><ele>185.67</ele><time>2010-10-11T13:25:53Z</time></trkpt><trkpt lat="44.910657" lon="1.512465"><ele>185.19</ele><time>2010-10-11T13:25:54Z</time></trkpt><trkpt lat="44.910759" lon="1.512492"><ele>184.71</ele><time>2010-10-11T13:25:55Z</time></trkpt><trkpt lat="44.910851" lon="1.512528"><ele>184.23</ele><time>2010-10-11T13:25:56Z</time></trkpt><trkpt lat="44.910939" lon="1.512607"><ele>184.23</ele><time>2010-10-11T13:25:57Z</time></trkpt><trkpt lat="44.910997" lon="1.512716"><ele>183.75</ele><time>2010-10-11T13:25:58Z</time></trkpt><trkpt lat="44.911058" lon="1.512829"><ele>184.23</ele><time>2010-10-11T13:25:59Z</time></trkpt><trkpt lat="44.911120" lon="1.512944"><ele>184.23</ele><time>2010-10-11T13:26:00Z</time></trkpt><trkpt lat="44.911178" lon="1.513052"><ele>184.71</ele><time>2010-10-11T13:26:01Z</time></trkpt><trkpt lat="44.911245" lon="1.513133"><ele>184.71</ele><time>2010-10-11T13:26:02Z</time></trkpt><trkpt lat="44.911306" lon="1.513174"><ele>185.19</ele><time>2010-10-11T13:26:03Z</time></trkpt><trkpt lat="44.911351" lon="1.513195"><ele>185.19</ele><time>2010-10-11T13:26:04Z</time></trkpt><trkpt lat="44.911433" lon="1.513197"><ele>185.67</ele><time>2010-10-11T13:26:05Z</time></trkpt><trkpt lat="44.911530" lon="1.513199"><ele>185.67</ele><time>2010-10-11T13:26:06Z</time></trkpt><trkpt lat="44.912512" lon="1.513223"><ele>184.71</ele><time>2010-10-11T13:26:14Z</time></trkpt><trkpt lat="44.913477" lon="1.513391"><ele>185.67</ele><time>2010-10-11T13:26:21Z</time></trkpt><trkpt lat="44.913618" lon="1.513459"><ele>186.15</ele><time>2010-10-11T13:26:22Z</time></trkpt><trkpt lat="44.913720" lon="1.513575"><ele>186.63</ele><time>2010-10-11T13:26:23Z</time></trkpt><trkpt lat="44.913819" lon="1.513687"><ele>187.11</ele><time>2010-10-11T13:26:24Z</time></trkpt><trkpt lat="44.913906" lon="1.513786"><ele>188.08</ele><time>2010-10-11T13:26:25Z</time></trkpt><trkpt lat="44.913984" lon="1.513875"><ele>190.00</ele><time>2010-10-11T13:26:26Z</time></trkpt><trkpt lat="44.914055" lon="1.513955"><ele>192.40</ele><time>2010-10-11T13:26:27Z</time></trkpt><trkpt lat="44.914125" lon="1.514034"><ele>194.80</ele><time>2010-10-11T13:26:28Z</time></trkpt><trkpt lat="44.914206" lon="1.514126"><ele>196.25</ele><time>2010-10-11T13:26:29Z</time></trkpt><trkpt lat="44.914268" lon="1.514213"><ele>196.73</ele><time>2010-10-11T13:26:30Z</time></trkpt><trkpt lat="44.914317" lon="1.514336"><ele>197.21</ele><time>2010-10-11T13:26:31Z</time></trkpt><trkpt lat="44.914338" lon="1.514454"><ele>198.17</ele><time>2010-10-11T13:26:32Z</time></trkpt><trkpt lat="44.914328" lon="1.514603"><ele>198.65</ele><time>2010-10-11T13:26:33Z</time></trkpt><trkpt lat="44.914317" lon="1.514761"><ele>199.61</ele><time>2010-10-11T13:26:34Z</time></trkpt><trkpt lat="44.914238" lon="1.515241"><ele>202.01</ele><time>2010-10-11T13:26:37Z</time></trkpt><trkpt lat="44.914190" lon="1.515401"><ele>202.49</ele><time>2010-10-11T13:26:38Z</time></trkpt><trkpt lat="44.914132" lon="1.515545"><ele>203.46</ele><time>2010-10-11T13:26:39Z</time></trkpt><trkpt lat="44.913817" lon="1.516257"><ele>207.30</ele><time>2010-10-11T13:26:44Z</time></trkpt><trkpt lat="44.913749" lon="1.516371"><ele>208.26</ele><time>2010-10-11T13:26:45Z</time></trkpt><trkpt lat="44.913653" lon="1.516457"><ele>208.74</ele><time>2010-10-11T13:26:46Z</time></trkpt><trkpt lat="44.913572" lon="1.516457"><ele>209.22</ele><time>2010-10-11T13:26:47Z</time></trkpt><trkpt lat="44.913499" lon="1.516457"><ele>210.19</ele><time>2010-10-11T13:26:48Z</time></trkpt><trkpt lat="44.913396" lon="1.516394"><ele>210.67</ele><time>2010-10-11T13:26:49Z</time></trkpt><trkpt lat="44.913315" lon="1.516336"><ele>211.15</ele><time>2010-10-11T13:26:50Z</time></trkpt><trkpt lat="44.913243" lon="1.516285"><ele>211.63</ele><time>2010-10-11T13:26:51Z</time></trkpt><trkpt lat="44.913183" lon="1.516242"><ele>211.63</ele><time>2010-10-11T13:26:52Z</time></trkpt><trkpt lat="44.913127" lon="1.516260"><ele>211.63</ele><time>2010-10-11T13:26:53Z</time></trkpt><trkpt lat="44.913054" lon="1.516285"><ele>211.63</ele><time>2010-10-11T13:26:54Z</time></trkpt><trkpt lat="44.912983" lon="1.516341"><ele>211.63</ele><time>2010-10-11T13:26:55Z</time></trkpt><trkpt lat="44.912434" lon="1.516769"><ele>211.63</ele><time>2010-10-11T13:27:01Z</time></trkpt><trkpt lat="44.912340" lon="1.516828"><ele>211.63</ele><time>2010-10-11T13:27:02Z</time></trkpt><trkpt lat="44.912249" lon="1.516884"><ele>211.63</ele><time>2010-10-11T13:27:03Z</time></trkpt><trkpt lat="44.912072" lon="1.516995"><ele>212.11</ele><time>2010-10-11T13:27:05Z</time></trkpt><trkpt lat="44.911985" lon="1.517050"><ele>212.11</ele><time>2010-10-11T13:27:06Z</time></trkpt><trkpt lat="44.911900" lon="1.517103"><ele>212.59</ele><time>2010-10-11T13:27:07Z</time></trkpt><trkpt lat="44.911817" lon="1.517154"><ele>213.07</ele><time>2010-10-11T13:27:08Z</time></trkpt><trkpt lat="44.911725" lon="1.517284"><ele>213.55</ele><time>2010-10-11T13:27:09Z</time></trkpt><trkpt lat="44.911680" lon="1.517388"><ele>214.03</ele><time>2010-10-11T13:27:10Z</time></trkpt><trkpt lat="44.911632" lon="1.517524"><ele>214.03</ele><time>2010-10-11T13:27:11Z</time></trkpt><trkpt lat="44.911612" lon="1.517648"><ele>214.51</ele><time>2010-10-11T13:27:12Z</time></trkpt><trkpt lat="44.911591" lon="1.517784"><ele>215.47</ele><time>2010-10-11T13:27:13Z</time></trkpt><trkpt lat="44.911568" lon="1.517931"><ele>215.95</ele><time>2010-10-11T13:27:14Z</time></trkpt><trkpt lat="44.911544" lon="1.518084"><ele>216.43</ele><time>2010-10-11T13:27:15Z</time></trkpt><trkpt lat="44.911520" lon="1.518233"><ele>216.91</ele><time>2010-10-11T13:27:16Z</time></trkpt><trkpt lat="44.911482" lon="1.518359"><ele>217.88</ele><time>2010-10-11T13:27:17Z</time></trkpt><trkpt lat="44.911416" lon="1.518502"><ele>218.36</ele><time>2010-10-11T13:27:18Z</time></trkpt><trkpt lat="44.911222" lon="1.518917"><ele>220.28</ele><time>2010-10-11T13:27:21Z</time></trkpt><trkpt lat="44.911149" lon="1.519006"><ele>220.76</ele><time>2010-10-11T13:27:22Z</time></trkpt><trkpt lat="44.911063" lon="1.519091"><ele>221.24</ele><time>2010-10-11T13:27:23Z</time></trkpt><trkpt lat="44.910978" lon="1.519176"><ele>221.72</ele><time>2010-10-11T13:27:24Z</time></trkpt><trkpt lat="44.910888" lon="1.519246"><ele>222.20</ele><time>2010-10-11T13:27:25Z</time></trkpt><trkpt lat="44.910717" lon="1.519360"><ele>222.68</ele><time>2010-10-11T13:27:27Z</time></trkpt><trkpt lat="44.910652" lon="1.519417"><ele>223.16</ele><time>2010-10-11T13:27:28Z</time></trkpt><trkpt lat="44.910583" lon="1.519486"><ele>223.16</ele><time>2010-10-11T13:27:29Z</time></trkpt><trkpt lat="44.910516" lon="1.519575"><ele>223.64</ele><time>2010-10-11T13:27:30Z</time></trkpt><trkpt lat="44.910482" lon="1.519729"><ele>224.61</ele><time>2010-10-11T13:27:31Z</time></trkpt><trkpt lat="44.910446" lon="1.519890"><ele>225.57</ele><time>2010-10-11T13:27:32Z</time></trkpt><trkpt lat="44.910425" lon="1.520083"><ele>226.53</ele><time>2010-10-11T13:27:33Z</time></trkpt><trkpt lat="44.910258" lon="1.521843"><ele>230.85</ele><time>2010-10-11T13:27:42Z</time></trkpt><trkpt lat="44.909783" lon="1.523648"><ele>232.30</ele><time>2010-10-11T13:27:51Z</time></trkpt><trkpt lat="44.909724" lon="1.523863"><ele>231.81</ele><time>2010-10-11T13:27:52Z</time></trkpt><trkpt lat="44.909649" lon="1.524048"><ele>231.81</ele><time>2010-10-11T13:27:53Z</time></trkpt><trkpt lat="44.909571" lon="1.524218"><ele>231.33</ele><time>2010-10-11T13:27:54Z</time></trkpt><trkpt lat="44.908774" lon="1.525388"><ele>228.45</ele><time>2010-10-11T13:28:01Z</time></trkpt><trkpt lat="44.907525" lon="1.527089"><ele>223.64</ele><time>2010-10-11T13:28:10Z</time></trkpt><trkpt lat="44.906809" lon="1.528767"><ele>219.80</ele><time>2010-10-11T13:28:18Z</time></trkpt><trkpt lat="44.906640" lon="1.529399"><ele>218.84</ele><time>2010-10-11T13:28:21Z</time></trkpt><trkpt lat="44.906600" lon="1.529628"><ele>218.36</ele><time>2010-10-11T13:28:22Z</time></trkpt><trkpt lat="44.906558" lon="1.529865"><ele>217.88</ele><time>2010-10-11T13:28:23Z</time></trkpt><trkpt lat="44.906345" lon="1.532045"><ele>215.47</ele><time>2010-10-11T13:28:32Z</time></trkpt><trkpt lat="44.906134" lon="1.533498"><ele>214.51</ele><time>2010-10-11T13:28:40Z</time></trkpt><trkpt lat="44.906057" lon="1.533970"><ele>214.99</ele><time>2010-10-11T13:28:43Z</time></trkpt><trkpt lat="44.906036" lon="1.534101"><ele>215.47</ele><time>2010-10-11T13:28:44Z</time></trkpt><trkpt lat="44.906022" lon="1.534269"><ele>215.47</ele><time>2010-10-11T13:28:46Z</time></trkpt><trkpt lat="44.906028" lon="1.534318"><ele>215.95</ele><time>2010-10-11T13:28:47Z</time></trkpt><trkpt lat="44.906016" lon="1.534224"><ele>215.95</ele><time>2010-10-11T13:28:48Z</time></trkpt><trkpt lat="44.905276" lon="1.534793"><ele>216.43</ele><time>2010-10-11T13:28:54Z</time></trkpt><trkpt lat="44.904039" lon="1.535828"><ele>215.95</ele><time>2010-10-11T13:29:04Z</time></trkpt><trkpt lat="44.903165" lon="1.537070"><ele>215.47</ele><time>2010-10-11T13:29:12Z</time></trkpt><trkpt lat="44.902447" lon="1.538780"><ele>215.95</ele><time>2010-10-11T13:29:20Z</time></trkpt><trkpt lat="44.901958" lon="1.539935"><ele>216.91</ele><time>2010-10-11T13:29:28Z</time></trkpt><trkpt lat="44.901891" lon="1.540096"><ele>217.40</ele><time>2010-10-11T13:29:30Z</time></trkpt><trkpt lat="44.901567" lon="1.540877"><ele>219.32</ele><time>2010-10-11T13:29:37Z</time></trkpt><trkpt lat="44.901023" lon="1.542109"><ele>220.76</ele><time>2010-10-11T13:29:45Z</time></trkpt><trkpt lat="44.900945" lon="1.542243"><ele>220.76</ele><time>2010-10-11T13:29:46Z</time></trkpt><trkpt lat="44.900872" lon="1.542367"><ele>221.24</ele><time>2010-10-11T13:29:47Z</time></trkpt><trkpt lat="44.900759" lon="1.542453"><ele>221.24</ele><time>2010-10-11T13:29:48Z</time></trkpt><trkpt lat="44.900643" lon="1.542534"><ele>221.24</ele><time>2010-10-11T13:29:49Z</time></trkpt><trkpt lat="44.899149" lon="1.543636"><ele>220.76</ele><time>2010-10-11T13:30:02Z</time></trkpt><trkpt lat="44.897637" lon="1.544716"><ele>221.24</ele><time>2010-10-11T13:30:12Z</time></trkpt><trkpt lat="44.896563" lon="1.544976"><ele>223.16</ele><time>2010-10-11T13:30:19Z</time></trkpt><trkpt lat="44.894449" lon="1.545221"><ele>227.49</ele><time>2010-10-11T13:30:32Z</time></trkpt><trkpt lat="44.893795" lon="1.545265"><ele>229.41</ele><time>2010-10-11T13:30:38Z</time></trkpt><trkpt lat="44.893706" lon="1.545275"><ele>229.89</ele><time>2010-10-11T13:30:40Z</time></trkpt><trkpt lat="44.893485" lon="1.545298"><ele>230.85</ele><time>2010-10-11T13:30:43Z</time></trkpt><trkpt lat="44.892661" lon="1.545385"><ele>234.70</ele><time>2010-10-11T13:30:50Z</time></trkpt><trkpt lat="44.892308" lon="1.545422"><ele>236.14</ele><time>2010-10-11T13:30:57Z</time></trkpt><trkpt lat="44.892160" lon="1.545583"><ele>235.18</ele><time>2010-10-11T13:31:05Z</time></trkpt><trkpt lat="44.892120" lon="1.545634"><ele>234.22</ele><time>2010-10-11T13:31:07Z</time></trkpt><trkpt lat="44.892026" lon="1.545754"><ele>233.26</ele><time>2010-10-11T13:31:08Z</time></trkpt><trkpt lat="44.891983" lon="1.545811"><ele>232.78</ele><time>2010-10-11T13:31:09Z</time></trkpt><trkpt lat="44.891926" lon="1.545980"><ele>231.33</ele><time>2010-10-11T13:31:11Z</time></trkpt><trkpt lat="44.891729" lon="1.546573"><ele>228.93</ele><time>2010-10-11T13:31:15Z</time></trkpt><trkpt lat="44.891667" lon="1.546758"><ele>227.97</ele><time>2010-10-11T13:31:16Z</time></trkpt><trkpt lat="44.891424" lon="1.547520"><ele>224.12</ele><time>2010-10-11T13:31:20Z</time></trkpt><trkpt lat="44.891372" lon="1.547716"><ele>223.16</ele><time>2010-10-11T13:31:21Z</time></trkpt><trkpt lat="44.891372" lon="1.547716"><ele>222.20</ele><time>2010-10-11T13:31:22Z</time></trkpt><trkpt lat="44.891300" lon="1.548149"><ele>221.24</ele><time>2010-10-11T13:31:23Z</time></trkpt><trkpt lat="44.891296" lon="1.548372"><ele>220.28</ele><time>2010-10-11T13:31:24Z</time></trkpt><trkpt lat="44.891327" lon="1.549410"><ele>215.47</ele><time>2010-10-11T13:31:29Z</time></trkpt><trkpt lat="44.891265" lon="1.550108"><ele>212.59</ele><time>2010-10-11T13:31:33Z</time></trkpt><trkpt lat="44.891125" lon="1.550784"><ele>209.70</ele><time>2010-10-11T13:31:37Z</time></trkpt><trkpt lat="44.891058" lon="1.550911"><ele>208.74</ele><time>2010-10-11T13:31:38Z</time></trkpt><trkpt lat="44.890993" lon="1.551031"><ele>208.26</ele><time>2010-10-11T13:31:39Z</time></trkpt><trkpt lat="44.890482" lon="1.552113"><ele>202.98</ele><time>2010-10-11T13:31:47Z</time></trkpt><trkpt lat="44.890434" lon="1.552282"><ele>201.05</ele><time>2010-10-11T13:31:49Z</time></trkpt><trkpt lat="44.890152" lon="1.553806"><ele>195.77</ele><time>2010-10-11T13:31:56Z</time></trkpt><trkpt lat="44.890078" lon="1.553941"><ele>194.80</ele><time>2010-10-11T13:31:57Z</time></trkpt><trkpt lat="44.889996" lon="1.554040"><ele>194.32</ele><time>2010-10-11T13:31:58Z</time></trkpt><trkpt lat="44.889918" lon="1.554134"><ele>193.36</ele><time>2010-10-11T13:31:59Z</time></trkpt><trkpt lat="44.889842" lon="1.554202"><ele>192.88</ele><time>2010-10-11T13:32:00Z</time></trkpt><trkpt lat="44.889842" lon="1.554202"><ele>191.92</ele><time>2010-10-11T13:32:01Z</time></trkpt><trkpt lat="44.889635" lon="1.554326"><ele>191.44</ele><time>2010-10-11T13:32:02Z</time></trkpt><trkpt lat="44.889529" lon="1.554390"><ele>190.48</ele><time>2010-10-11T13:32:03Z</time></trkpt><trkpt lat="44.889012" lon="1.554707"><ele>186.15</ele><time>2010-10-11T13:32:09Z</time></trkpt><trkpt lat="44.888872" lon="1.554903"><ele>185.19</ele><time>2010-10-11T13:32:10Z</time></trkpt><trkpt lat="44.888804" lon="1.554998"><ele>184.71</ele><time>2010-10-11T13:32:11Z</time></trkpt><trkpt lat="44.888738" lon="1.555091"><ele>183.75</ele><time>2010-10-11T13:32:12Z</time></trkpt><trkpt lat="44.888675" lon="1.555179"><ele>182.79</ele><time>2010-10-11T13:32:13Z</time></trkpt><trkpt lat="44.888612" lon="1.555268"><ele>181.83</ele><time>2010-10-11T13:32:14Z</time></trkpt><trkpt lat="44.888548" lon="1.555357"><ele>180.87</ele><time>2010-10-11T13:32:15Z</time></trkpt><trkpt lat="44.888487" lon="1.555442"><ele>179.90</ele><time>2010-10-11T13:32:16Z</time></trkpt><trkpt lat="44.888432" lon="1.555520"><ele>178.94</ele><time>2010-10-11T13:32:17Z</time></trkpt><trkpt lat="44.888384" lon="1.555587"><ele>177.98</ele><time>2010-10-11T13:32:18Z</time></trkpt><trkpt lat="44.888356" lon="1.555727"><ele>177.02</ele><time>2010-10-11T13:32:19Z</time></trkpt><trkpt lat="44.888338" lon="1.555834"><ele>176.54</ele><time>2010-10-11T13:32:20Z</time></trkpt><trkpt lat="44.888335" lon="1.555971"><ele>175.58</ele><time>2010-10-11T13:32:21Z</time></trkpt><trkpt lat="44.888223" lon="1.557139"><ele>170.77</ele><time>2010-10-11T13:32:29Z</time></trkpt><trkpt lat="44.887819" lon="1.558855"><ele>165.96</ele><time>2010-10-11T13:32:39Z</time></trkpt><trkpt lat="44.887600" lon="1.559463"><ele>164.04</ele><time>2010-10-11T13:32:44Z</time></trkpt><trkpt lat="44.886980" lon="1.560919"><ele>160.68</ele><time>2010-10-11T13:32:54Z</time></trkpt><trkpt lat="44.886907" lon="1.561082"><ele>160.20</ele><time>2010-10-11T13:32:55Z</time></trkpt><trkpt lat="44.886832" lon="1.561250"><ele>159.72</ele><time>2010-10-11T13:32:56Z</time></trkpt><trkpt lat="44.885802" lon="1.563056"><ele>152.99</ele><time>2010-10-11T13:33:07Z</time></trkpt><trkpt lat="44.884897" lon="1.564097"><ele>147.22</ele><time>2010-10-11T13:33:15Z</time></trkpt><trkpt lat="44.884245" lon="1.564786"><ele>142.41</ele><time>2010-10-11T13:33:22Z</time></trkpt><trkpt lat="44.883377" lon="1.565353"><ele>138.09</ele><time>2010-10-11T13:33:30Z</time></trkpt><trkpt lat="44.882231" lon="1.565456"><ele>132.32</ele><time>2010-10-11T13:33:39Z</time></trkpt><trkpt lat="44.882163" lon="1.565388"><ele>131.84</ele><time>2010-10-11T13:33:40Z</time></trkpt><trkpt lat="44.882096" lon="1.565321"><ele>131.84</ele><time>2010-10-11T13:33:41Z</time></trkpt><trkpt lat="44.882038" lon="1.565247"><ele>131.36</ele><time>2010-10-11T13:33:42Z</time></trkpt><trkpt lat="44.881982" lon="1.565163"><ele>131.36</ele><time>2010-10-11T13:33:43Z</time></trkpt><trkpt lat="44.881928" lon="1.565083"><ele>131.36</ele><time>2010-10-11T13:33:44Z</time></trkpt><trkpt lat="44.881897" lon="1.564990"><ele>131.36</ele><time>2010-10-11T13:33:45Z</time></trkpt><trkpt lat="44.881897" lon="1.564886"><ele>131.84</ele><time>2010-10-11T13:33:46Z</time></trkpt><trkpt lat="44.881897" lon="1.564772"><ele>131.36</ele><time>2010-10-11T13:33:47Z</time></trkpt><trkpt lat="44.881903" lon="1.564646"><ele>130.88</ele><time>2010-10-11T13:33:48Z</time></trkpt><trkpt lat="44.881919" lon="1.564502"><ele>129.92</ele><time>2010-10-11T13:33:49Z</time></trkpt><trkpt lat="44.881994" lon="1.563858"><ele>127.51</ele><time>2010-10-11T13:33:53Z</time></trkpt><trkpt lat="44.882018" lon="1.563710"><ele>127.03</ele><time>2010-10-11T13:33:54Z</time></trkpt><trkpt lat="44.882069" lon="1.563441"><ele>126.07</ele><time>2010-10-11T13:33:56Z</time></trkpt><trkpt lat="44.882060" lon="1.563308"><ele>126.07</ele><time>2010-10-11T13:33:57Z</time></trkpt><trkpt lat="44.882052" lon="1.563170"><ele>125.59</ele><time>2010-10-11T13:33:58Z</time></trkpt><trkpt lat="44.881940" lon="1.562459"><ele>122.22</ele><time>2010-10-11T13:34:04Z</time></trkpt><trkpt lat="44.881914" lon="1.562348"><ele>121.74</ele><time>2010-10-11T13:34:05Z</time></trkpt><trkpt lat="44.881887" lon="1.562232"><ele>121.26</ele><time>2010-10-11T13:34:06Z</time></trkpt><trkpt lat="44.881861" lon="1.562116"><ele>120.78</ele><time>2010-10-11T13:34:07Z</time></trkpt><trkpt lat="44.881835" lon="1.562006"><ele>120.30</ele><time>2010-10-11T13:34:08Z</time></trkpt><trkpt lat="44.881812" lon="1.561900"><ele>119.82</ele><time>2010-10-11T13:34:09Z</time></trkpt><trkpt lat="44.881812" lon="1.561792"><ele>119.34</ele><time>2010-10-11T13:34:10Z</time></trkpt><trkpt lat="44.881812" lon="1.561679"><ele>118.86</ele><time>2010-10-11T13:34:11Z</time></trkpt><trkpt lat="44.881812" lon="1.561570"><ele>117.90</ele><time>2010-10-11T13:34:12Z</time></trkpt><trkpt lat="44.881812" lon="1.561474"><ele>117.42</ele><time>2010-10-11T13:34:13Z</time></trkpt><trkpt lat="44.881812" lon="1.561390"><ele>116.94</ele><time>2010-10-11T13:34:14Z</time></trkpt><trkpt lat="44.881812" lon="1.561311"><ele>116.94</ele><time>2010-10-11T13:34:15Z</time></trkpt><trkpt lat="44.881812" lon="1.561260"><ele>116.46</ele><time>2010-10-11T13:34:16Z</time></trkpt><trkpt lat="44.881799" lon="1.561235"><ele>116.46</ele><time>2010-10-11T13:34:17Z</time></trkpt><trkpt lat="44.881799" lon="1.561235"><ele>116.46</ele><time>2010-10-11T13:34:18Z</time></trkpt><trkpt lat="44.881799" lon="1.561235"><ele>116.46</ele><time>2010-10-11T13:34:20Z</time></trkpt><trkpt lat="44.881769" lon="1.561174"><ele>116.94</ele><time>2010-10-11T13:34:21Z</time></trkpt><trkpt lat="44.881752" lon="1.561142"><ele>116.46</ele><time>2010-10-11T13:34:22Z</time></trkpt><trkpt lat="44.881733" lon="1.561103"><ele>116.46</ele><time>2010-10-11T13:34:23Z</time></trkpt><trkpt lat="44.881702" lon="1.561080"><ele>115.98</ele><time>2010-10-11T13:34:24Z</time></trkpt><trkpt lat="44.881645" lon="1.561062"><ele>115.98</ele><time>2010-10-11T13:34:25Z</time></trkpt><trkpt lat="44.881597" lon="1.561046"><ele>115.50</ele><time>2010-10-11T13:34:26Z</time></trkpt><trkpt lat="44.881557" lon="1.561059"><ele>115.50</ele><time>2010-10-11T13:34:27Z</time></trkpt><trkpt lat="44.881525" lon="1.561070"><ele>115.50</ele><time>2010-10-11T13:34:28Z</time></trkpt><trkpt lat="44.881505" lon="1.561077"><ele>115.01</ele><time>2010-10-11T13:34:29Z</time></trkpt><trkpt lat="44.881489" lon="1.561082"><ele>115.01</ele><time>2010-10-11T13:34:30Z</time></trkpt><trkpt lat="44.881468" lon="1.561089"><ele>115.01</ele><time>2010-10-11T13:34:31Z</time></trkpt><trkpt lat="44.881435" lon="1.561111"><ele>115.01</ele><time>2010-10-11T13:34:32Z</time></trkpt><trkpt lat="44.881273" lon="1.561330"><ele>114.05</ele><time>2010-10-11T13:34:35Z</time></trkpt><trkpt lat="44.881061" lon="1.561886"><ele>112.61</ele><time>2010-10-11T13:34:39Z</time></trkpt><trkpt lat="44.881002" lon="1.562050"><ele>112.61</ele><time>2010-10-11T13:34:40Z</time></trkpt><trkpt lat="44.880385" lon="1.563692"><ele>108.29</ele><time>2010-10-11T13:34:50Z</time></trkpt><trkpt lat="44.880090" lon="1.564463"><ele>106.36</ele><time>2010-10-11T13:34:57Z</time></trkpt><trkpt lat="44.880030" lon="1.564643"><ele>105.88</ele><time>2010-10-11T13:34:58Z</time></trkpt><trkpt lat="44.880005" lon="1.564729"><ele>105.88</ele><time>2010-10-11T13:34:59Z</time></trkpt><trkpt lat="44.879950" lon="1.564899"><ele>105.40</ele><time>2010-10-11T13:35:01Z</time></trkpt><trkpt lat="44.879587" lon="1.565833"><ele>104.92</ele><time>2010-10-11T13:35:09Z</time></trkpt><trkpt lat="44.879010" lon="1.567344"><ele>104.92</ele><time>2010-10-11T13:35:18Z</time></trkpt><trkpt lat="44.878426" lon="1.568881"><ele>105.40</ele><time>2010-10-11T13:35:28Z</time></trkpt><trkpt lat="44.877845" lon="1.570424"><ele>105.88</ele><time>2010-10-11T13:35:38Z</time></trkpt><trkpt lat="44.877336" lon="1.571794"><ele>105.40</ele><time>2010-10-11T13:35:47Z</time></trkpt><trkpt lat="44.877302" lon="1.571884"><ele>105.40</ele><time>2010-10-11T13:35:48Z</time></trkpt><trkpt lat="44.876935" lon="1.572864"><ele>105.40</ele><time>2010-10-11T13:35:57Z</time></trkpt><trkpt lat="44.876734" lon="1.573485"><ele>106.36</ele><time>2010-10-11T13:36:01Z</time></trkpt><trkpt lat="44.876714" lon="1.573664"><ele>106.36</ele><time>2010-10-11T13:36:02Z</time></trkpt><trkpt lat="44.876709" lon="1.573850"><ele>106.84</ele><time>2010-10-11T13:36:03Z</time></trkpt><trkpt lat="44.876771" lon="1.576052"><ele>108.77</ele><time>2010-10-11T13:36:15Z</time></trkpt><trkpt lat="44.876785" lon="1.576341"><ele>108.77</ele><time>2010-10-11T13:36:17Z</time></trkpt><trkpt lat="44.876760" lon="1.576504"><ele>109.25</ele><time>2010-10-11T13:36:18Z</time></trkpt><trkpt lat="44.876699" lon="1.576605"><ele>109.25</ele><time>2010-10-11T13:36:19Z</time></trkpt><trkpt lat="44.876632" lon="1.576716"><ele>109.25</ele><time>2010-10-11T13:36:20Z</time></trkpt><trkpt lat="44.876559" lon="1.576838"><ele>109.25</ele><time>2010-10-11T13:36:21Z</time></trkpt><trkpt lat="44.875700" lon="1.578224"><ele>109.73</ele><time>2010-10-11T13:36:30Z</time></trkpt><trkpt lat="44.874786" lon="1.579914"><ele>112.61</ele><time>2010-10-11T13:36:40Z</time></trkpt><trkpt lat="44.873581" lon="1.582356"><ele>115.01</ele><time>2010-10-11T13:36:53Z</time></trkpt><trkpt lat="44.872736" lon="1.584119"><ele>116.46</ele><time>2010-10-11T13:37:02Z</time></trkpt><trkpt lat="44.871546" lon="1.586612"><ele>116.46</ele><time>2010-10-11T13:37:14Z</time></trkpt><trkpt lat="44.870533" lon="1.588758"><ele>115.01</ele><time>2010-10-11T13:37:25Z</time></trkpt><trkpt lat="44.869313" lon="1.591277"><ele>114.05</ele><time>2010-10-11T13:37:37Z</time></trkpt><trkpt lat="44.868651" lon="1.592644"><ele>115.50</ele><time>2010-10-11T13:37:45Z</time></trkpt><trkpt lat="44.868497" lon="1.593036"><ele>115.98</ele><time>2010-10-11T13:37:48Z</time></trkpt><trkpt lat="44.868445" lon="1.593174"><ele>115.98</ele><time>2010-10-11T13:37:49Z</time></trkpt><trkpt lat="44.868413" lon="1.593318"><ele>116.46</ele><time>2010-10-11T13:37:50Z</time></trkpt><trkpt lat="44.868393" lon="1.593491"><ele>116.46</ele><time>2010-10-11T13:37:51Z</time></trkpt><trkpt lat="44.868374" lon="1.593673"><ele>116.94</ele><time>2010-10-11T13:37:52Z</time></trkpt><trkpt lat="44.868355" lon="1.593867"><ele>117.42</ele><time>2010-10-11T13:37:53Z</time></trkpt><trkpt lat="44.868151" lon="1.595933"><ele>119.82</ele><time>2010-10-11T13:38:02Z</time></trkpt><trkpt lat="44.868012" lon="1.596932"><ele>120.78</ele><time>2010-10-11T13:38:06Z</time></trkpt><trkpt lat="44.867208" lon="1.599578"><ele>123.19</ele><time>2010-10-11T13:38:17Z</time></trkpt><trkpt lat="44.866731" lon="1.601122"><ele>124.15</ele><time>2010-10-11T13:38:24Z</time></trkpt><trkpt lat="44.866299" lon="1.602799"><ele>126.55</ele><time>2010-10-11T13:38:31Z</time></trkpt><trkpt lat="44.866195" lon="1.603007"><ele>127.03</ele><time>2010-10-11T13:38:32Z</time></trkpt><trkpt lat="44.866085" lon="1.603209"><ele>127.03</ele><time>2010-10-11T13:38:33Z</time></trkpt><trkpt lat="44.865939" lon="1.603364"><ele>127.51</ele><time>2010-10-11T13:38:34Z</time></trkpt><trkpt lat="44.865790" lon="1.603523"><ele>127.99</ele><time>2010-10-11T13:38:35Z</time></trkpt><trkpt lat="44.865639" lon="1.603683"><ele>127.99</ele><time>2010-10-11T13:38:36Z</time></trkpt><trkpt lat="44.865488" lon="1.603844"><ele>127.99</ele><time>2010-10-11T13:38:37Z</time></trkpt><trkpt lat="44.865332" lon="1.603998"><ele>128.47</ele><time>2010-10-11T13:38:38Z</time></trkpt><trkpt lat="44.863641" lon="1.605609"><ele>131.36</ele><time>2010-10-11T13:38:48Z</time></trkpt><trkpt lat="44.861746" lon="1.607338"><ele>136.16</ele><time>2010-10-11T13:38:59Z</time></trkpt><trkpt lat="44.861570" lon="1.607391"><ele>136.64</ele><time>2010-10-11T13:39:00Z</time></trkpt><trkpt lat="44.861387" lon="1.607436"><ele>137.13</ele><time>2010-10-11T13:39:01Z</time></trkpt><trkpt lat="44.861208" lon="1.607447"><ele>137.61</ele><time>2010-10-11T13:39:02Z</time></trkpt><trkpt lat="44.861025" lon="1.607457"><ele>138.09</ele><time>2010-10-11T13:39:03Z</time></trkpt><trkpt lat="44.859716" lon="1.607256"><ele>139.53</ele><time>2010-10-11T13:39:10Z</time></trkpt><trkpt lat="44.859069" lon="1.607191"><ele>140.49</ele><time>2010-10-11T13:39:14Z</time></trkpt><trkpt lat="44.858917" lon="1.607235"><ele>140.97</ele><time>2010-10-11T13:39:15Z</time></trkpt><trkpt lat="44.858762" lon="1.607279"><ele>140.97</ele><time>2010-10-11T13:39:16Z</time></trkpt><trkpt lat="44.858130" lon="1.607512"><ele>142.41</ele><time>2010-10-11T13:39:20Z</time></trkpt><trkpt lat="44.857984" lon="1.607641"><ele>142.41</ele><time>2010-10-11T13:39:21Z</time></trkpt><trkpt lat="44.857835" lon="1.607774"><ele>142.41</ele><time>2010-10-11T13:39:22Z</time></trkpt><trkpt lat="44.857702" lon="1.607926"><ele>142.41</ele><time>2010-10-11T13:39:23Z</time></trkpt><trkpt lat="44.857570" lon="1.608102"><ele>142.41</ele><time>2010-10-11T13:39:24Z</time></trkpt><trkpt lat="44.857450" lon="1.608286"><ele>142.89</ele><time>2010-10-11T13:39:25Z</time></trkpt><trkpt lat="44.857328" lon="1.608486"><ele>143.37</ele><time>2010-10-11T13:39:26Z</time></trkpt><trkpt lat="44.856254" lon="1.610608"><ele>146.74</ele><time>2010-10-11T13:39:36Z</time></trkpt><trkpt lat="44.855729" lon="1.612445"><ele>148.66</ele><time>2010-10-11T13:39:44Z</time></trkpt><trkpt lat="44.855737" lon="1.612652"><ele>147.22</ele><time>2010-10-11T13:39:45Z</time></trkpt><trkpt lat="44.855764" lon="1.612870"><ele>146.26</ele><time>2010-10-11T13:39:46Z</time></trkpt><trkpt lat="44.855891" lon="1.614222"><ele>146.26</ele><time>2010-10-11T13:39:52Z</time></trkpt><trkpt lat="44.855865" lon="1.614431"><ele>146.74</ele><time>2010-10-11T13:39:53Z</time></trkpt><trkpt lat="44.855822" lon="1.614646"><ele>147.22</ele><time>2010-10-11T13:39:54Z</time></trkpt><trkpt lat="44.855768" lon="1.614844"><ele>147.22</ele><time>2010-10-11T13:39:55Z</time></trkpt><trkpt lat="44.855700" lon="1.615047"><ele>147.70</ele><time>2010-10-11T13:39:56Z</time></trkpt><trkpt lat="44.855635" lon="1.615243"><ele>147.70</ele><time>2010-10-11T13:39:57Z</time></trkpt><trkpt lat="44.855546" lon="1.615367"><ele>147.70</ele><time>2010-10-11T13:39:58Z</time></trkpt><trkpt lat="44.855438" lon="1.615514"><ele>148.18</ele><time>2010-10-11T13:39:59Z</time></trkpt><trkpt lat="44.855329" lon="1.615663"><ele>148.18</ele><time>2010-10-11T13:40:00Z</time></trkpt><trkpt lat="44.855219" lon="1.615813"><ele>148.18</ele><time>2010-10-11T13:40:01Z</time></trkpt><trkpt lat="44.854407" lon="1.617153"><ele>151.06</ele><time>2010-10-11T13:40:09Z</time></trkpt><trkpt lat="44.853377" lon="1.619058"><ele>154.43</ele><time>2010-10-11T13:40:18Z</time></trkpt><trkpt lat="44.853090" lon="1.619449"><ele>155.39</ele><time>2010-10-11T13:40:20Z</time></trkpt><trkpt lat="44.852942" lon="1.619640"><ele>155.87</ele><time>2010-10-11T13:40:21Z</time></trkpt><trkpt lat="44.851475" lon="1.620596"><ele>159.72</ele><time>2010-10-11T13:40:29Z</time></trkpt><trkpt lat="44.851137" lon="1.620672"><ele>160.68</ele><time>2010-10-11T13:40:31Z</time></trkpt><trkpt lat="44.850737" lon="1.620765"><ele>162.12</ele><time>2010-10-11T13:40:34Z</time></trkpt><trkpt lat="44.850655" lon="1.620827"><ele>162.12</ele><time>2010-10-11T13:40:35Z</time></trkpt><trkpt lat="44.850646" lon="1.620903"><ele>162.60</ele><time>2010-10-11T13:40:36Z</time></trkpt><trkpt lat="44.850632" lon="1.621009"><ele>163.08</ele><time>2010-10-11T13:40:37Z</time></trkpt><trkpt lat="44.850618" lon="1.621123"><ele>163.08</ele><time>2010-10-11T13:40:38Z</time></trkpt><trkpt lat="44.850619" lon="1.621213"><ele>163.08</ele><time>2010-10-11T13:40:39Z</time></trkpt><trkpt lat="44.850642" lon="1.621356"><ele>162.60</ele><time>2010-10-11T13:40:40Z</time></trkpt><trkpt lat="44.850665" lon="1.621504"><ele>163.08</ele><time>2010-10-11T13:40:41Z</time></trkpt><trkpt lat="44.850717" lon="1.621832"><ele>163.08</ele><time>2010-10-11T13:40:43Z</time></trkpt><trkpt lat="44.850738" lon="1.622005"><ele>163.56</ele><time>2010-10-11T13:40:44Z</time></trkpt><trkpt lat="44.850716" lon="1.622162"><ele>163.56</ele><time>2010-10-11T13:40:45Z</time></trkpt><trkpt lat="44.850689" lon="1.622322"><ele>163.56</ele><time>2010-10-11T13:40:46Z</time></trkpt><trkpt lat="44.850649" lon="1.622482"><ele>164.04</ele><time>2010-10-11T13:40:47Z</time></trkpt><trkpt lat="44.850610" lon="1.622634"><ele>164.04</ele><time>2010-10-11T13:40:48Z</time></trkpt><trkpt lat="44.850542" lon="1.622769"><ele>164.04</ele><time>2010-10-11T13:40:49Z</time></trkpt><trkpt lat="44.850473" lon="1.622908"><ele>164.52</ele><time>2010-10-11T13:40:50Z</time></trkpt><trkpt lat="44.850389" lon="1.623035"><ele>164.52</ele><time>2010-10-11T13:40:51Z</time></trkpt><trkpt lat="44.850288" lon="1.623156"><ele>164.52</ele><time>2010-10-11T13:40:52Z</time></trkpt><trkpt lat="44.850184" lon="1.623281"><ele>164.52</ele><time>2010-10-11T13:40:53Z</time></trkpt><trkpt lat="44.849706" lon="1.623762"><ele>165.00</ele><time>2010-10-11T13:40:57Z</time></trkpt><trkpt lat="44.849579" lon="1.623876"><ele>165.48</ele><time>2010-10-11T13:40:58Z</time></trkpt><trkpt lat="44.849439" lon="1.623952"><ele>165.48</ele><time>2010-10-11T13:40:59Z</time></trkpt><trkpt lat="44.849301" lon="1.624027"><ele>165.96</ele><time>2010-10-11T13:41:00Z</time></trkpt><trkpt lat="44.849162" lon="1.624103"><ele>165.96</ele><time>2010-10-11T13:41:01Z</time></trkpt><trkpt lat="44.849017" lon="1.624182"><ele>166.45</ele><time>2010-10-11T13:41:02Z</time></trkpt><trkpt lat="44.848874" lon="1.624260"><ele>166.45</ele><time>2010-10-11T13:41:03Z</time></trkpt><trkpt lat="44.848737" lon="1.624335"><ele>166.93</ele><time>2010-10-11T13:41:04Z</time></trkpt><trkpt lat="44.848609" lon="1.624415"><ele>166.93</ele><time>2010-10-11T13:41:05Z</time></trkpt><trkpt lat="44.848497" lon="1.624517"><ele>167.41</ele><time>2010-10-11T13:41:06Z</time></trkpt><trkpt lat="44.848391" lon="1.624613"><ele>167.41</ele><time>2010-10-11T13:41:07Z</time></trkpt><trkpt lat="44.848284" lon="1.624710"><ele>167.41</ele><time>2010-10-11T13:41:08Z</time></trkpt><trkpt lat="44.848177" lon="1.624808"><ele>167.89</ele><time>2010-10-11T13:41:09Z</time></trkpt><trkpt lat="44.848055" lon="1.624836"><ele>167.89</ele><time>2010-10-11T13:41:10Z</time></trkpt><trkpt lat="44.847924" lon="1.624858"><ele>168.37</ele><time>2010-10-11T13:41:11Z</time></trkpt><trkpt lat="44.847808" lon="1.624811"><ele>168.37</ele><time>2010-10-11T13:41:12Z</time></trkpt><trkpt lat="44.847683" lon="1.624748"><ele>168.37</ele><time>2010-10-11T13:41:13Z</time></trkpt><trkpt lat="44.847564" lon="1.624674"><ele>168.37</ele><time>2010-10-11T13:41:14Z</time></trkpt><trkpt lat="44.847439" lon="1.624591"><ele>168.85</ele><time>2010-10-11T13:41:15Z</time></trkpt><trkpt lat="44.847194" lon="1.624427"><ele>169.33</ele><time>2010-10-11T13:41:17Z</time></trkpt><trkpt lat="44.847076" lon="1.624349"><ele>169.81</ele><time>2010-10-11T13:41:18Z</time></trkpt><trkpt lat="44.846951" lon="1.624303"><ele>169.81</ele><time>2010-10-11T13:41:19Z</time></trkpt><trkpt lat="44.846835" lon="1.624303"><ele>170.29</ele><time>2010-10-11T13:41:20Z</time></trkpt><trkpt lat="44.846711" lon="1.624316"><ele>170.29</ele><time>2010-10-11T13:41:21Z</time></trkpt><trkpt lat="44.846568" lon="1.624366"><ele>170.77</ele><time>2010-10-11T13:41:22Z</time></trkpt><trkpt lat="44.846405" lon="1.624422"><ele>170.77</ele><time>2010-10-11T13:41:23Z</time></trkpt><trkpt lat="44.845297" lon="1.624871"><ele>171.73</ele><time>2010-10-11T13:41:30Z</time></trkpt><trkpt lat="44.845173" lon="1.624993"><ele>171.73</ele><time>2010-10-11T13:41:31Z</time></trkpt><trkpt lat="44.845062" lon="1.625127"><ele>171.73</ele><time>2010-10-11T13:41:32Z</time></trkpt><trkpt lat="44.844964" lon="1.625284"><ele>171.73</ele><time>2010-10-11T13:41:33Z</time></trkpt><trkpt lat="44.844869" lon="1.625453"><ele>171.73</ele><time>2010-10-11T13:41:34Z</time></trkpt><trkpt lat="44.844773" lon="1.625624"><ele>172.21</ele><time>2010-10-11T13:41:35Z</time></trkpt><trkpt lat="44.844475" lon="1.626020"><ele>172.69</ele><time>2010-10-11T13:41:38Z</time></trkpt><trkpt lat="44.844386" lon="1.626105"><ele>173.17</ele><time>2010-10-11T13:41:39Z</time></trkpt><trkpt lat="44.844294" lon="1.626100"><ele>173.17</ele><time>2010-10-11T13:41:40Z</time></trkpt><trkpt lat="44.844195" lon="1.626051"><ele>173.17</ele><time>2010-10-11T13:41:41Z</time></trkpt><trkpt lat="44.844088" lon="1.625997"><ele>173.66</ele><time>2010-10-11T13:41:42Z</time></trkpt><trkpt lat="44.843974" lon="1.625940"><ele>173.66</ele><time>2010-10-11T13:41:43Z</time></trkpt><trkpt lat="44.843444" lon="1.625715"><ele>174.14</ele><time>2010-10-11T13:41:47Z</time></trkpt><trkpt lat="44.841911" lon="1.625333"><ele>176.54</ele><time>2010-10-11T13:41:56Z</time></trkpt><trkpt lat="44.841764" lon="1.625333"><ele>176.54</ele><time>2010-10-11T13:41:57Z</time></trkpt><trkpt lat="44.841615" lon="1.625333"><ele>176.54</ele><time>2010-10-11T13:41:58Z</time></trkpt><trkpt lat="44.841467" lon="1.625354"><ele>177.02</ele><time>2010-10-11T13:41:59Z</time></trkpt><trkpt lat="44.841321" lon="1.625388"><ele>177.02</ele><time>2010-10-11T13:42:00Z</time></trkpt><trkpt lat="44.841170" lon="1.625422"><ele>177.50</ele><time>2010-10-11T13:42:01Z</time></trkpt><trkpt lat="44.841015" lon="1.625458"><ele>177.50</ele><time>2010-10-11T13:42:02Z</time></trkpt><trkpt lat="44.840867" lon="1.625454"><ele>177.50</ele><time>2010-10-11T13:42:03Z</time></trkpt><trkpt lat="44.840726" lon="1.625446"><ele>177.50</ele><time>2010-10-11T13:42:04Z</time></trkpt><trkpt lat="44.840355" lon="1.625426"><ele>177.98</ele><time>2010-10-11T13:42:07Z</time></trkpt><trkpt lat="44.840249" lon="1.625420"><ele>177.98</ele><time>2010-10-11T13:42:08Z</time></trkpt><trkpt lat="44.840140" lon="1.625505"><ele>177.98</ele><time>2010-10-11T13:42:09Z</time></trkpt><trkpt lat="44.840048" lon="1.625597"><ele>177.98</ele><time>2010-10-11T13:42:10Z</time></trkpt><trkpt lat="44.839952" lon="1.625693"><ele>177.98</ele><time>2010-10-11T13:42:11Z</time></trkpt><trkpt lat="44.839853" lon="1.625792"><ele>177.98</ele><time>2010-10-11T13:42:12Z</time></trkpt><trkpt lat="44.839753" lon="1.625892"><ele>177.98</ele><time>2010-10-11T13:42:13Z</time></trkpt><trkpt lat="44.839655" lon="1.625991"><ele>177.98</ele><time>2010-10-11T13:42:14Z</time></trkpt><trkpt lat="44.839512" lon="1.626019"><ele>177.98</ele><time>2010-10-11T13:42:15Z</time></trkpt><trkpt lat="44.839363" lon="1.626018"><ele>177.50</ele><time>2010-10-11T13:42:16Z</time></trkpt><trkpt lat="44.839220" lon="1.625978"><ele>177.50</ele><time>2010-10-11T13:42:17Z</time></trkpt><trkpt lat="44.839084" lon="1.625940"><ele>177.50</ele><time>2010-10-11T13:42:18Z</time></trkpt><trkpt lat="44.838534" lon="1.625766"><ele>177.50</ele><time>2010-10-11T13:42:22Z</time></trkpt><trkpt lat="44.838404" lon="1.625684"><ele>177.98</ele><time>2010-10-11T13:42:23Z</time></trkpt><trkpt lat="44.838276" lon="1.625603"><ele>178.46</ele><time>2010-10-11T13:42:24Z</time></trkpt><trkpt lat="44.837912" lon="1.625373"><ele>179.90</ele><time>2010-10-11T13:42:27Z</time></trkpt><trkpt lat="44.837795" lon="1.625299"><ele>180.38</ele><time>2010-10-11T13:42:28Z</time></trkpt><trkpt lat="44.837667" lon="1.625290"><ele>180.87</ele><time>2010-10-11T13:42:29Z</time></trkpt><trkpt lat="44.837537" lon="1.625290"><ele>181.35</ele><time>2010-10-11T13:42:30Z</time></trkpt><trkpt lat="44.837406" lon="1.625303"><ele>181.83</ele><time>2010-10-11T13:42:31Z</time></trkpt><trkpt lat="44.837283" lon="1.625356"><ele>182.31</ele><time>2010-10-11T13:42:32Z</time></trkpt><trkpt lat="44.837161" lon="1.625408"><ele>182.79</ele><time>2010-10-11T13:42:33Z</time></trkpt><trkpt lat="44.837037" lon="1.625505"><ele>183.27</ele><time>2010-10-11T13:42:34Z</time></trkpt><trkpt lat="44.836278" lon="1.626192"><ele>185.19</ele><time>2010-10-11T13:42:40Z</time></trkpt><trkpt lat="44.836181" lon="1.626343"><ele>185.67</ele><time>2010-10-11T13:42:41Z</time></trkpt><trkpt lat="44.836118" lon="1.626524"><ele>186.15</ele><time>2010-10-11T13:42:42Z</time></trkpt><trkpt lat="44.836067" lon="1.626716"><ele>186.63</ele><time>2010-10-11T13:42:43Z</time></trkpt><trkpt lat="44.836014" lon="1.626913"><ele>187.11</ele><time>2010-10-11T13:42:44Z</time></trkpt><trkpt lat="44.835960" lon="1.627118"><ele>187.59</ele><time>2010-10-11T13:42:45Z</time></trkpt><trkpt lat="44.835845" lon="1.627548"><ele>189.04</ele><time>2010-10-11T13:42:47Z</time></trkpt><trkpt lat="44.835783" lon="1.627766"><ele>189.52</ele><time>2010-10-11T13:42:48Z</time></trkpt><trkpt lat="44.835369" lon="1.629305"><ele>193.36</ele><time>2010-10-11T13:42:55Z</time></trkpt><trkpt lat="44.835360" lon="1.629510"><ele>194.32</ele><time>2010-10-11T13:42:56Z</time></trkpt><trkpt lat="44.835333" lon="1.630101"><ele>195.28</ele><time>2010-10-11T13:42:59Z</time></trkpt><trkpt lat="44.835288" lon="1.630281"><ele>195.77</ele><time>2010-10-11T13:43:00Z</time></trkpt><trkpt lat="44.835232" lon="1.630459"><ele>196.25</ele><time>2010-10-11T13:43:01Z</time></trkpt><trkpt lat="44.835138" lon="1.630569"><ele>196.73</ele><time>2010-10-11T13:43:02Z</time></trkpt><trkpt lat="44.835044" lon="1.630678"><ele>196.73</ele><time>2010-10-11T13:43:03Z</time></trkpt><trkpt lat="44.834954" lon="1.630757"><ele>197.21</ele><time>2010-10-11T13:43:04Z</time></trkpt><trkpt lat="44.834837" lon="1.630810"><ele>197.69</ele><time>2010-10-11T13:43:05Z</time></trkpt><trkpt lat="44.834719" lon="1.630863"><ele>197.69</ele><time>2010-10-11T13:43:06Z</time></trkpt><trkpt lat="44.834195" lon="1.631099"><ele>199.13</ele><time>2010-10-11T13:43:10Z</time></trkpt><trkpt lat="44.834074" lon="1.631209"><ele>199.61</ele><time>2010-10-11T13:43:11Z</time></trkpt><trkpt lat="44.833979" lon="1.631342"><ele>200.09</ele><time>2010-10-11T13:43:12Z</time></trkpt><trkpt lat="44.833888" lon="1.631475"><ele>200.57</ele><time>2010-10-11T13:43:13Z</time></trkpt><trkpt lat="44.833801" lon="1.631615"><ele>201.05</ele><time>2010-10-11T13:43:14Z</time></trkpt><trkpt lat="44.833713" lon="1.631756"><ele>201.53</ele><time>2010-10-11T13:43:15Z</time></trkpt><trkpt lat="44.833653" lon="1.631948"><ele>202.01</ele><time>2010-10-11T13:43:16Z</time></trkpt><trkpt lat="44.833135" lon="1.633294"><ele>205.86</ele><time>2010-10-11T13:43:23Z</time></trkpt><trkpt lat="44.833043" lon="1.633477"><ele>206.34</ele><time>2010-10-11T13:43:24Z</time></trkpt><trkpt lat="44.832935" lon="1.633642"><ele>207.30</ele><time>2010-10-11T13:43:25Z</time></trkpt><trkpt lat="44.832796" lon="1.633734"><ele>207.78</ele><time>2010-10-11T13:43:26Z</time></trkpt><trkpt lat="44.832653" lon="1.633830"><ele>208.26</ele><time>2010-10-11T13:43:27Z</time></trkpt><trkpt lat="44.832509" lon="1.633926"><ele>208.74</ele><time>2010-10-11T13:43:28Z</time></trkpt><trkpt lat="44.832194" lon="1.633951"><ele>209.70</ele><time>2010-10-11T13:43:30Z</time></trkpt><trkpt lat="44.832044" lon="1.633930"><ele>210.19</ele><time>2010-10-11T13:43:31Z</time></trkpt><trkpt lat="44.831900" lon="1.633898"><ele>211.15</ele><time>2010-10-11T13:43:32Z</time></trkpt><trkpt lat="44.831049" lon="1.633569"><ele>213.07</ele><time>2010-10-11T13:43:38Z</time></trkpt><trkpt lat="44.830908" lon="1.633558"><ele>213.55</ele><time>2010-10-11T13:43:39Z</time></trkpt><trkpt lat="44.830771" lon="1.633546"><ele>213.55</ele><time>2010-10-11T13:43:40Z</time></trkpt><trkpt lat="44.830634" lon="1.633535"><ele>214.03</ele><time>2010-10-11T13:43:41Z</time></trkpt><trkpt lat="44.830493" lon="1.633569"><ele>214.51</ele><time>2010-10-11T13:43:42Z</time></trkpt><trkpt lat="44.830212" lon="1.633709"><ele>214.99</ele><time>2010-10-11T13:43:44Z</time></trkpt><trkpt lat="44.830069" lon="1.633781"><ele>215.47</ele><time>2010-10-11T13:43:45Z</time></trkpt><trkpt lat="44.829675" lon="1.634039"><ele>216.43</ele><time>2010-10-11T13:43:48Z</time></trkpt><trkpt lat="44.829587" lon="1.634167"><ele>216.91</ele><time>2010-10-11T13:43:49Z</time></trkpt><trkpt lat="44.829518" lon="1.634305"><ele>217.40</ele><time>2010-10-11T13:43:50Z</time></trkpt><trkpt lat="44.829455" lon="1.634431"><ele>217.88</ele><time>2010-10-11T13:43:51Z</time></trkpt><trkpt lat="44.829445" lon="1.634590"><ele>217.88</ele><time>2010-10-11T13:43:52Z</time></trkpt><trkpt lat="44.829434" lon="1.634762"><ele>218.36</ele><time>2010-10-11T13:43:53Z</time></trkpt><trkpt lat="44.829376" lon="1.635313"><ele>219.80</ele><time>2010-10-11T13:43:56Z</time></trkpt><trkpt lat="44.829343" lon="1.635497"><ele>220.28</ele><time>2010-10-11T13:43:57Z</time></trkpt><trkpt lat="44.829279" lon="1.635685"><ele>220.76</ele><time>2010-10-11T13:43:58Z</time></trkpt><trkpt lat="44.829195" lon="1.635852"><ele>221.24</ele><time>2010-10-11T13:43:59Z</time></trkpt><trkpt lat="44.829106" lon="1.636014"><ele>221.72</ele><time>2010-10-11T13:44:00Z</time></trkpt><trkpt lat="44.829008" lon="1.636156"><ele>221.72</ele><time>2010-10-11T13:44:01Z</time></trkpt><trkpt lat="44.828886" lon="1.636217"><ele>222.20</ele><time>2010-10-11T13:44:02Z</time></trkpt><trkpt lat="44.828770" lon="1.636275"><ele>222.68</ele><time>2010-10-11T13:44:03Z</time></trkpt><trkpt lat="44.828659" lon="1.636268"><ele>222.68</ele><time>2010-10-11T13:44:04Z</time></trkpt><trkpt lat="44.828543" lon="1.636259"><ele>223.16</ele><time>2010-10-11T13:44:05Z</time></trkpt><trkpt lat="44.828430" lon="1.636250"><ele>223.64</ele><time>2010-10-11T13:44:06Z</time></trkpt><trkpt lat="44.828320" lon="1.636242"><ele>223.64</ele><time>2010-10-11T13:44:07Z</time></trkpt><trkpt lat="44.828209" lon="1.636234"><ele>224.12</ele><time>2010-10-11T13:44:08Z</time></trkpt><trkpt lat="44.828096" lon="1.636283"><ele>224.61</ele><time>2010-10-11T13:44:09Z</time></trkpt><trkpt lat="44.827975" lon="1.636334"><ele>225.09</ele><time>2010-10-11T13:44:10Z</time></trkpt><trkpt lat="44.827858" lon="1.636397"><ele>225.57</ele><time>2010-10-11T13:44:11Z</time></trkpt><trkpt lat="44.827754" lon="1.636490"><ele>226.05</ele><time>2010-10-11T13:44:12Z</time></trkpt><trkpt lat="44.827669" lon="1.636625"><ele>226.53</ele><time>2010-10-11T13:44:13Z</time></trkpt><trkpt lat="44.827581" lon="1.636763"><ele>227.01</ele><time>2010-10-11T13:44:14Z</time></trkpt><trkpt lat="44.827490" lon="1.636905"><ele>227.49</ele><time>2010-10-11T13:44:15Z</time></trkpt><trkpt lat="44.827082" lon="1.637507"><ele>229.41</ele><time>2010-10-11T13:44:19Z</time></trkpt><trkpt lat="44.826958" lon="1.637651"><ele>229.89</ele><time>2010-10-11T13:44:20Z</time></trkpt><trkpt lat="44.826822" lon="1.637779"><ele>230.85</ele><time>2010-10-11T13:44:21Z</time></trkpt><trkpt lat="44.825507" lon="1.639004"><ele>236.14</ele><time>2010-10-11T13:44:30Z</time></trkpt><trkpt lat="44.824979" lon="1.639520"><ele>239.02</ele><time>2010-10-11T13:44:34Z</time></trkpt><trkpt lat="44.824842" lon="1.639590"><ele>239.51</ele><time>2010-10-11T13:44:35Z</time></trkpt><trkpt lat="44.824702" lon="1.639610"><ele>239.99</ele><time>2010-10-11T13:44:36Z</time></trkpt><trkpt lat="44.824564" lon="1.639619"><ele>240.47</ele><time>2010-10-11T13:44:37Z</time></trkpt><trkpt lat="44.824424" lon="1.639603"><ele>240.47</ele><time>2010-10-11T13:44:38Z</time></trkpt><trkpt lat="44.824284" lon="1.639588"><ele>240.95</ele><time>2010-10-11T13:44:39Z</time></trkpt><trkpt lat="44.824160" lon="1.639601"><ele>241.43</ele><time>2010-10-11T13:44:40Z</time></trkpt><trkpt lat="44.824043" lon="1.639640"><ele>241.91</ele><time>2010-10-11T13:44:41Z</time></trkpt><trkpt lat="44.823945" lon="1.639688"><ele>242.39</ele><time>2010-10-11T13:44:42Z</time></trkpt><trkpt lat="44.823857" lon="1.639797"><ele>242.87</ele><time>2010-10-11T13:44:43Z</time></trkpt><trkpt lat="44.823775" lon="1.639916"><ele>243.35</ele><time>2010-10-11T13:44:44Z</time></trkpt><trkpt lat="44.823708" lon="1.640074"><ele>243.83</ele><time>2010-10-11T13:44:45Z</time></trkpt><trkpt lat="44.823637" lon="1.640239"><ele>243.83</ele><time>2010-10-11T13:44:46Z</time></trkpt><trkpt lat="44.823560" lon="1.640417"><ele>244.31</ele><time>2010-10-11T13:44:47Z</time></trkpt><trkpt lat="44.823179" lon="1.642229"><ele>248.64</ele><time>2010-10-11T13:44:55Z</time></trkpt><trkpt lat="44.823166" lon="1.642450"><ele>249.60</ele><time>2010-10-11T13:44:56Z</time></trkpt><trkpt lat="44.823152" lon="1.642671"><ele>250.08</ele><time>2010-10-11T13:44:57Z</time></trkpt><trkpt lat="44.823166" lon="1.642889"><ele>251.04</ele><time>2010-10-11T13:44:58Z</time></trkpt><trkpt lat="44.823199" lon="1.643105"><ele>251.52</ele><time>2010-10-11T13:44:59Z</time></trkpt><trkpt lat="44.823231" lon="1.643322"><ele>252.00</ele><time>2010-10-11T13:45:00Z</time></trkpt><trkpt lat="44.823256" lon="1.643746"><ele>252.96</ele><time>2010-10-11T13:45:02Z</time></trkpt><trkpt lat="44.823222" lon="1.643940"><ele>253.44</ele><time>2010-10-11T13:45:03Z</time></trkpt><trkpt lat="44.823157" lon="1.644104"><ele>253.93</ele><time>2010-10-11T13:45:04Z</time></trkpt><trkpt lat="44.823066" lon="1.644231"><ele>254.89</ele><time>2010-10-11T13:45:05Z</time></trkpt><trkpt lat="44.822966" lon="1.644355"><ele>255.37</ele><time>2010-10-11T13:45:06Z</time></trkpt><trkpt lat="44.822865" lon="1.644481"><ele>255.85</ele><time>2010-10-11T13:45:07Z</time></trkpt><trkpt lat="44.822764" lon="1.644607"><ele>256.33</ele><time>2010-10-11T13:45:08Z</time></trkpt><trkpt lat="44.822595" lon="1.644921"><ele>257.29</ele><time>2010-10-11T13:45:10Z</time></trkpt><trkpt lat="44.822549" lon="1.645103"><ele>257.77</ele><time>2010-10-11T13:45:11Z</time></trkpt><trkpt lat="44.822503" lon="1.645289"><ele>258.25</ele><time>2010-10-11T13:45:12Z</time></trkpt><trkpt lat="44.822503" lon="1.645484"><ele>258.73</ele><time>2010-10-11T13:45:13Z</time></trkpt><trkpt lat="44.822503" lon="1.645678"><ele>259.69</ele><time>2010-10-11T13:45:14Z</time></trkpt><trkpt lat="44.822503" lon="1.645678"><ele>260.17</ele><time>2010-10-11T13:45:15Z</time></trkpt><trkpt lat="44.822549" lon="1.646068"><ele>260.65</ele><time>2010-10-11T13:45:16Z</time></trkpt><trkpt lat="44.822577" lon="1.646273"><ele>260.65</ele><time>2010-10-11T13:45:17Z</time></trkpt><trkpt lat="44.822613" lon="1.646485"><ele>261.14</ele><time>2010-10-11T13:45:18Z</time></trkpt><trkpt lat="44.822701" lon="1.646925"><ele>262.10</ele><time>2010-10-11T13:45:20Z</time></trkpt><trkpt lat="44.822717" lon="1.647163"><ele>262.58</ele><time>2010-10-11T13:45:21Z</time></trkpt><trkpt lat="44.822717" lon="1.647407"><ele>263.06</ele><time>2010-10-11T13:45:22Z</time></trkpt><trkpt lat="44.822717" lon="1.647655"><ele>263.54</ele><time>2010-10-11T13:45:23Z</time></trkpt><trkpt lat="44.822694" lon="1.647910"><ele>264.02</ele><time>2010-10-11T13:45:24Z</time></trkpt><trkpt lat="44.822525" lon="1.648656"><ele>265.94</ele><time>2010-10-11T13:45:27Z</time></trkpt><trkpt lat="44.822434" lon="1.648891"><ele>266.42</ele><time>2010-10-11T13:45:28Z</time></trkpt><trkpt lat="44.822342" lon="1.649124"><ele>266.90</ele><time>2010-10-11T13:45:29Z</time></trkpt><trkpt lat="44.821769" lon="1.650995"><ele>272.19</ele><time>2010-10-11T13:45:37Z</time></trkpt><trkpt lat="44.821692" lon="1.651440"><ele>273.15</ele><time>2010-10-11T13:45:39Z</time></trkpt><trkpt lat="44.821687" lon="1.651664"><ele>273.63</ele><time>2010-10-11T13:45:40Z</time></trkpt><trkpt lat="44.821687" lon="1.651895"><ele>274.11</ele><time>2010-10-11T13:45:41Z</time></trkpt><trkpt lat="44.821552" lon="1.653286"><ele>276.52</ele><time>2010-10-11T13:45:47Z</time></trkpt><trkpt lat="44.821470" lon="1.653491"><ele>277.00</ele><time>2010-10-11T13:45:48Z</time></trkpt><trkpt lat="44.821470" lon="1.653491"><ele>277.00</ele><time>2010-10-11T13:45:49Z</time></trkpt><trkpt lat="44.820793" lon="1.654895"><ele>278.92</ele><time>2010-10-11T13:45:55Z</time></trkpt><trkpt lat="44.820657" lon="1.655030"><ele>279.40</ele><time>2010-10-11T13:45:56Z</time></trkpt><trkpt lat="44.820537" lon="1.655127"><ele>279.88</ele><time>2010-10-11T13:45:57Z</time></trkpt><trkpt lat="44.819834" lon="1.655689"><ele>283.25</ele><time>2010-10-11T13:46:04Z</time></trkpt><trkpt lat="44.819834" lon="1.655689"><ele>283.25</ele><time>2010-10-11T13:46:05Z</time></trkpt><trkpt lat="44.819748" lon="1.655614"><ele>283.73</ele><time>2010-10-11T13:46:06Z</time></trkpt><trkpt lat="44.819714" lon="1.655543"><ele>283.73</ele><time>2010-10-11T13:46:07Z</time></trkpt><trkpt lat="44.819672" lon="1.655457"><ele>283.73</ele><time>2010-10-11T13:46:08Z</time></trkpt><trkpt lat="44.819197" lon="1.654490"><ele>284.69</ele><time>2010-10-11T13:46:15Z</time></trkpt><trkpt lat="44.818529" lon="1.653096"><ele>287.09</ele><time>2010-10-11T13:46:23Z</time></trkpt><trkpt lat="44.818404" lon="1.652805"><ele>287.09</ele><time>2010-10-11T13:46:25Z</time></trkpt><trkpt lat="44.818367" lon="1.652631"><ele>287.09</ele><time>2010-10-11T13:46:26Z</time></trkpt><trkpt lat="44.818094" lon="1.650823"><ele>281.80</ele><time>2010-10-11T13:46:35Z</time></trkpt><trkpt lat="44.818040" lon="1.650633"><ele>280.84</ele><time>2010-10-11T13:46:36Z</time></trkpt><trkpt lat="44.817981" lon="1.650448"><ele>279.88</ele><time>2010-10-11T13:46:37Z</time></trkpt><trkpt lat="44.817180" lon="1.648677"><ele>271.71</ele><time>2010-10-11T13:46:46Z</time></trkpt><trkpt lat="44.816808" lon="1.647916"><ele>270.27</ele><time>2010-10-11T13:46:50Z</time></trkpt><trkpt lat="44.816717" lon="1.647749"><ele>269.79</ele><time>2010-10-11T13:46:51Z</time></trkpt><trkpt lat="44.816598" lon="1.647634"><ele>269.79</ele><time>2010-10-11T13:46:52Z</time></trkpt><trkpt lat="44.816473" lon="1.647521"><ele>269.79</ele><time>2010-10-11T13:46:53Z</time></trkpt><trkpt lat="44.816346" lon="1.647406"><ele>269.79</ele><time>2010-10-11T13:46:54Z</time></trkpt><trkpt lat="44.815679" lon="1.646722"><ele>270.27</ele><time>2010-10-11T13:47:00Z</time></trkpt><trkpt lat="44.814682" lon="1.645192"><ele>271.71</ele><time>2010-10-11T13:47:11Z</time></trkpt><trkpt lat="44.814389" lon="1.644603"><ele>271.71</ele><time>2010-10-11T13:47:15Z</time></trkpt><trkpt lat="44.814326" lon="1.644440"><ele>272.19</ele><time>2010-10-11T13:47:16Z</time></trkpt><trkpt lat="44.814281" lon="1.644257"><ele>272.19</ele><time>2010-10-11T13:47:17Z</time></trkpt><trkpt lat="44.813854" lon="1.641998"><ele>272.67</ele><time>2010-10-11T13:47:27Z</time></trkpt><trkpt lat="44.813619" lon="1.640974"><ele>273.15</ele><time>2010-10-11T13:47:32Z</time></trkpt><trkpt lat="44.813555" lon="1.640798"><ele>273.15</ele><time>2010-10-11T13:47:33Z</time></trkpt><trkpt lat="44.813491" lon="1.640622"><ele>273.63</ele><time>2010-10-11T13:47:34Z</time></trkpt><trkpt lat="44.812964" lon="1.639513"><ele>275.56</ele><time>2010-10-11T13:47:42Z</time></trkpt><trkpt lat="44.812269" lon="1.638767"><ele>275.07</ele><time>2010-10-11T13:47:49Z</time></trkpt><trkpt lat="44.812161" lon="1.638680"><ele>274.59</ele><time>2010-10-11T13:47:50Z</time></trkpt><trkpt lat="44.812042" lon="1.638632"><ele>274.11</ele><time>2010-10-11T13:47:51Z</time></trkpt><trkpt lat="44.811298" lon="1.638333"><ele>271.71</ele><time>2010-10-11T13:47:57Z</time></trkpt><trkpt lat="44.811199" lon="1.638233"><ele>271.23</ele><time>2010-10-11T13:47:58Z</time></trkpt><trkpt lat="44.811099" lon="1.638134"><ele>270.75</ele><time>2010-10-11T13:47:59Z</time></trkpt><trkpt lat="44.811026" lon="1.637999"><ele>270.75</ele><time>2010-10-11T13:48:00Z</time></trkpt><trkpt lat="44.810950" lon="1.637848"><ele>270.27</ele><time>2010-10-11T13:48:01Z</time></trkpt><trkpt lat="44.810870" lon="1.637688"><ele>270.27</ele><time>2010-10-11T13:48:02Z</time></trkpt><trkpt lat="44.810245" lon="1.636361"><ele>268.83</ele><time>2010-10-11T13:48:09Z</time></trkpt><trkpt lat="44.809843" lon="1.635030"><ele>266.42</ele><time>2010-10-11T13:48:16Z</time></trkpt><trkpt lat="44.809847" lon="1.634883"><ele>266.42</ele><time>2010-10-11T13:48:17Z</time></trkpt><trkpt lat="44.809880" lon="1.634734"><ele>265.94</ele><time>2010-10-11T13:48:18Z</time></trkpt><trkpt lat="44.809912" lon="1.634592"><ele>265.46</ele><time>2010-10-11T13:48:19Z</time></trkpt><trkpt lat="44.809956" lon="1.634460"><ele>265.46</ele><time>2010-10-11T13:48:20Z</time></trkpt><trkpt lat="44.810023" lon="1.634321"><ele>264.98</ele><time>2010-10-11T13:48:21Z</time></trkpt><trkpt lat="44.810500" lon="1.633290"><ele>262.10</ele><time>2010-10-11T13:48:28Z</time></trkpt><trkpt lat="44.810526" lon="1.633161"><ele>261.62</ele><time>2010-10-11T13:48:29Z</time></trkpt><trkpt lat="44.810513" lon="1.633047"><ele>261.14</ele><time>2010-10-11T13:48:30Z</time></trkpt><trkpt lat="44.810493" lon="1.632927"><ele>260.65</ele><time>2010-10-11T13:48:31Z</time></trkpt><trkpt lat="44.810455" lon="1.632822"><ele>260.17</ele><time>2010-10-11T13:48:32Z</time></trkpt><trkpt lat="44.810398" lon="1.632709"><ele>259.69</ele><time>2010-10-11T13:48:33Z</time></trkpt><trkpt lat="44.810329" lon="1.632600"><ele>258.73</ele><time>2010-10-11T13:48:34Z</time></trkpt><trkpt lat="44.810235" lon="1.632505"><ele>258.73</ele><time>2010-10-11T13:48:35Z</time></trkpt><trkpt lat="44.809673" lon="1.631978"><ele>255.37</ele><time>2010-10-11T13:48:41Z</time></trkpt><trkpt lat="44.809571" lon="1.631963"><ele>254.89</ele><time>2010-10-11T13:48:42Z</time></trkpt><trkpt lat="44.809464" lon="1.631946"><ele>254.89</ele><time>2010-10-11T13:48:43Z</time></trkpt><trkpt lat="44.809006" lon="1.631798"><ele>252.48</ele><time>2010-10-11T13:48:47Z</time></trkpt><trkpt lat="44.808896" lon="1.631725"><ele>252.48</ele><time>2010-10-11T13:48:48Z</time></trkpt><trkpt lat="44.808785" lon="1.631652"><ele>252.00</ele><time>2010-10-11T13:48:49Z</time></trkpt><trkpt lat="44.808705" lon="1.631534"><ele>252.00</ele><time>2010-10-11T13:48:50Z</time></trkpt><trkpt lat="44.808631" lon="1.631403"><ele>252.00</ele><time>2010-10-11T13:48:51Z</time></trkpt><trkpt lat="44.808567" lon="1.631247"><ele>252.00</ele><time>2010-10-11T13:48:52Z</time></trkpt><trkpt lat="44.808501" lon="1.631086"><ele>251.52</ele><time>2010-10-11T13:48:53Z</time></trkpt><trkpt lat="44.807860" lon="1.629505"><ele>252.96</ele><time>2010-10-11T13:49:03Z</time></trkpt><trkpt lat="44.807013" lon="1.627435"><ele>259.21</ele><time>2010-10-11T13:49:16Z</time></trkpt><trkpt lat="44.806831" lon="1.627040"><ele>260.17</ele><time>2010-10-11T13:49:19Z</time></trkpt><trkpt lat="44.806752" lon="1.626935"><ele>260.65</ele><time>2010-10-11T13:49:20Z</time></trkpt><trkpt lat="44.806656" lon="1.626870"><ele>261.14</ele><time>2010-10-11T13:49:21Z</time></trkpt><trkpt lat="44.806538" lon="1.626792"><ele>261.62</ele><time>2010-10-11T13:49:22Z</time></trkpt><trkpt lat="44.806458" lon="1.626768"><ele>261.62</ele><time>2010-10-11T13:49:23Z</time></trkpt><trkpt lat="44.806352" lon="1.626737"><ele>262.10</ele><time>2010-10-11T13:49:24Z</time></trkpt><trkpt lat="44.805600" lon="1.626518"><ele>264.02</ele><time>2010-10-11T13:49:31Z</time></trkpt><trkpt lat="44.805494" lon="1.626499"><ele>264.02</ele><time>2010-10-11T13:49:32Z</time></trkpt><trkpt lat="44.805396" lon="1.626551"><ele>264.02</ele><time>2010-10-11T13:49:33Z</time></trkpt><trkpt lat="44.805297" lon="1.626604"><ele>264.02</ele><time>2010-10-11T13:49:34Z</time></trkpt><trkpt lat="44.805200" lon="1.626655"><ele>264.02</ele><time>2010-10-11T13:49:35Z</time></trkpt><trkpt lat="44.804922" lon="1.626802"><ele>263.54</ele><time>2010-10-11T13:49:39Z</time></trkpt><trkpt lat="44.804746" lon="1.626893"><ele>263.54</ele><time>2010-10-11T13:49:40Z</time></trkpt><trkpt lat="44.804406" lon="1.627047"><ele>263.06</ele><time>2010-10-11T13:49:44Z</time></trkpt><trkpt lat="44.804341" lon="1.627077"><ele>263.06</ele><time>2010-10-11T13:49:45Z</time></trkpt><trkpt lat="44.804139" lon="1.627068"><ele>263.06</ele><time>2010-10-11T13:49:48Z</time></trkpt><trkpt lat="44.804088" lon="1.627061"><ele>263.06</ele><time>2010-10-11T13:49:49Z</time></trkpt><trkpt lat="44.803905" lon="1.627098"><ele>262.10</ele><time>2010-10-11T13:49:56Z</time></trkpt><trkpt lat="44.803803" lon="1.627139"><ele>261.14</ele><time>2010-10-11T13:49:59Z</time></trkpt><trkpt lat="44.803757" lon="1.627158"><ele>261.14</ele><time>2010-10-11T13:50:00Z</time></trkpt><trkpt lat="44.803711" lon="1.627176"><ele>260.65</ele><time>2010-10-11T13:50:01Z</time></trkpt><trkpt lat="44.803577" lon="1.627198"><ele>259.69</ele><time>2010-10-11T13:50:05Z</time></trkpt><trkpt lat="44.803531" lon="1.627205"><ele>259.69</ele><time>2010-10-11T13:50:06Z</time></trkpt><trkpt lat="44.803413" lon="1.627223"><ele>259.21</ele><time>2010-10-11T13:50:08Z</time></trkpt><trkpt lat="44.802975" lon="1.627313"><ele>255.37</ele><time>2010-10-11T13:50:17Z</time></trkpt><trkpt lat="44.802938" lon="1.627324"><ele>253.93</ele><time>2010-10-11T13:50:25Z</time></trkpt><trkpt lat="44.802907" lon="1.627333"><ele>253.93</ele><time>2010-10-11T13:50:31Z</time></trkpt><trkpt lat="44.802894" lon="1.627337"><ele>253.93</ele><time>2010-10-11T13:50:32Z</time></trkpt><trkpt lat="44.802881" lon="1.627340"><ele>253.93</ele><time>2010-10-11T13:50:33Z</time></trkpt><trkpt lat="44.802840" lon="1.627352"><ele>254.41</ele><time>2010-10-11T13:50:37Z</time></trkpt><trkpt lat="44.802826" lon="1.627356"><ele>253.93</ele><time>2010-10-11T13:50:38Z</time></trkpt><trkpt lat="44.802826" lon="1.627356"><ele>253.93</ele><time>2010-10-11T13:50:54Z</time></trkpt><trkpt lat="44.802826" lon="1.627356"><ele>253.93</ele><time>2010-10-11T13:51:49Z</time></trkpt><trkpt lat="44.802826" lon="1.627356"><ele>254.41</ele><time>2010-10-11T13:52:27Z</time></trkpt><trkpt lat="44.802826" lon="1.627356"><ele>254.89</ele><time>2010-10-11T13:52:34Z</time></trkpt><trkpt lat="44.802826" lon="1.627356"><ele>255.37</ele><time>2010-10-11T13:52:39Z</time></trkpt><trkpt lat="44.802814" lon="1.627359"><ele>255.37</ele><time>2010-10-11T13:52:40Z</time></trkpt><trkpt lat="44.802418" lon="1.627564"><ele>255.85</ele><time>2010-10-11T13:52:41Z</time></trkpt><trkpt lat="44.802418" lon="1.627564"><ele>255.85</ele><time>2010-10-11T13:52:42Z</time></trkpt><trkpt lat="44.802418" lon="1.627564"><ele>255.85</ele><time>2010-10-11T13:52:43Z</time></trkpt><trkpt lat="44.802418" lon="1.627564"><ele>256.33</ele><time>2010-10-11T13:52:44Z</time></trkpt><trkpt lat="44.802747" lon="1.627379"><ele>256.33</ele><time>2010-10-11T13:52:45Z</time></trkpt><trkpt lat="44.802714" lon="1.627388"><ele>256.33</ele><time>2010-10-11T13:52:46Z</time></trkpt><trkpt lat="44.802683" lon="1.627397"><ele>256.33</ele><time>2010-10-11T13:52:47Z</time></trkpt><trkpt lat="44.802506" lon="1.627477"><ele>255.85</ele><time>2010-10-11T13:52:51Z</time></trkpt><trkpt lat="44.802461" lon="1.627522"><ele>255.85</ele><time>2010-10-11T13:52:52Z</time></trkpt><trkpt lat="44.802418" lon="1.627564"><ele>255.37</ele><time>2010-10-11T13:52:53Z</time></trkpt><trkpt lat="44.802400" lon="1.627620"><ele>255.37</ele><time>2010-10-11T13:52:54Z</time></trkpt><trkpt lat="44.802377" lon="1.627687"><ele>254.89</ele><time>2010-10-11T13:52:55Z</time></trkpt><trkpt lat="44.802370" lon="1.627739"><ele>254.89</ele><time>2010-10-11T13:52:56Z</time></trkpt><trkpt lat="44.802362" lon="1.627812"><ele>254.89</ele><time>2010-10-11T13:52:57Z</time></trkpt><trkpt lat="44.802354" lon="1.627883"><ele>254.41</ele><time>2010-10-11T13:52:58Z</time></trkpt><trkpt lat="44.802346" lon="1.627954"><ele>254.41</ele><time>2010-10-11T13:52:59Z</time></trkpt><trkpt lat="44.802339" lon="1.628024"><ele>253.93</ele><time>2010-10-11T13:53:00Z</time></trkpt><trkpt lat="44.802332" lon="1.628079"><ele>253.93</ele><time>2010-10-11T13:53:01Z</time></trkpt><trkpt lat="44.802332" lon="1.628290"><ele>252.96</ele><time>2010-10-11T13:53:05Z</time></trkpt><trkpt lat="44.802332" lon="1.628343"><ele>252.48</ele><time>2010-10-11T13:53:06Z</time></trkpt><trkpt lat="44.802332" lon="1.628395"><ele>252.48</ele><time>2010-10-11T13:53:07Z</time></trkpt><trkpt lat="44.802266" lon="1.628575"><ele>252.48</ele><time>2010-10-11T13:53:08Z</time></trkpt><trkpt lat="44.802155" lon="1.628621"><ele>252.00</ele><time>2010-10-11T13:53:09Z</time></trkpt><trkpt lat="44.802129" lon="1.628612"><ele>252.00</ele><time>2010-10-11T13:53:10Z</time></trkpt><trkpt lat="44.802104" lon="1.628604"><ele>252.00</ele><time>2010-10-11T13:53:11Z</time></trkpt><trkpt lat="44.802081" lon="1.628596"><ele>252.00</ele><time>2010-10-11T13:53:12Z</time></trkpt><trkpt lat="44.802091" lon="1.628600"><ele>252.00</ele><time>2010-10-11T13:53:13Z</time></trkpt><trkpt lat="44.802075" lon="1.628594"><ele>252.00</ele><time>2010-10-11T13:53:14Z</time></trkpt><trkpt lat="44.802075" lon="1.628594"><ele>252.00</ele><time>2010-10-11T13:53:15Z</time></trkpt><trkpt lat="44.802060" lon="1.628565"><ele>252.00</ele><time>2010-10-11T13:53:16Z</time></trkpt><trkpt lat="44.802033" lon="1.628511"><ele>251.52</ele><time>2010-10-11T13:53:17Z</time></trkpt><trkpt lat="44.802034" lon="1.628475"><ele>251.04</ele><time>2010-10-11T13:53:18Z</time></trkpt><trkpt lat="44.802037" lon="1.628424"><ele>250.56</ele><time>2010-10-11T13:53:19Z</time></trkpt><trkpt lat="44.802040" lon="1.628371"><ele>250.08</ele><time>2010-10-11T13:53:20Z</time></trkpt><trkpt lat="44.802044" lon="1.628306"><ele>249.60</ele><time>2010-10-11T13:53:21Z</time></trkpt><trkpt lat="44.802049" lon="1.628227"><ele>249.12</ele><time>2010-10-11T13:53:22Z</time></trkpt><trkpt lat="44.802054" lon="1.628141"><ele>249.12</ele><time>2010-10-11T13:53:23Z</time></trkpt><trkpt lat="44.802075" lon="1.627591"><ele>245.27</ele><time>2010-10-11T13:53:29Z</time></trkpt><trkpt lat="44.802088" lon="1.627537"><ele>244.79</ele><time>2010-10-11T13:53:30Z</time></trkpt><trkpt lat="44.802120" lon="1.627474"><ele>244.31</ele><time>2010-10-11T13:53:31Z</time></trkpt><trkpt lat="44.802154" lon="1.627407"><ele>243.35</ele><time>2010-10-11T13:53:32Z</time></trkpt><trkpt lat="44.802189" lon="1.627351"><ele>242.87</ele><time>2010-10-11T13:53:33Z</time></trkpt><trkpt lat="44.802230" lon="1.627290"><ele>241.91</ele><time>2010-10-11T13:53:34Z</time></trkpt><trkpt lat="44.802606" lon="1.626789"><ele>237.10</ele><time>2010-10-11T13:53:41Z</time></trkpt><trkpt lat="44.803088" lon="1.626238"><ele>232.30</ele><time>2010-10-11T13:53:48Z</time></trkpt><trkpt lat="44.803154" lon="1.626130"><ele>231.33</ele><time>2010-10-11T13:53:49Z</time></trkpt><trkpt lat="44.803224" lon="1.626016"><ele>230.37</ele><time>2010-10-11T13:53:50Z</time></trkpt><trkpt lat="44.803295" lon="1.625900"><ele>229.89</ele><time>2010-10-11T13:53:51Z</time></trkpt><trkpt lat="44.803364" lon="1.625787"><ele>228.93</ele><time>2010-10-11T13:53:52Z</time></trkpt><trkpt lat="44.803749" lon="1.624292"><ele>220.28</ele><time>2010-10-11T13:54:02Z</time></trkpt><trkpt lat="44.803749" lon="1.624141"><ele>219.32</ele><time>2010-10-11T13:54:03Z</time></trkpt><trkpt lat="44.803749" lon="1.623989"><ele>218.36</ele><time>2010-10-11T13:54:04Z</time></trkpt><trkpt lat="44.803662" lon="1.623522"><ele>215.47</ele><time>2010-10-11T13:54:07Z</time></trkpt><trkpt lat="44.803620" lon="1.623370"><ele>214.51</ele><time>2010-10-11T13:54:08Z</time></trkpt><trkpt lat="44.803461" lon="1.622804"><ele>210.67</ele><time>2010-10-11T13:54:12Z</time></trkpt><trkpt lat="44.802912" lon="1.621800"><ele>201.05</ele><time>2010-10-11T13:54:23Z</time></trkpt><trkpt lat="44.802710" lon="1.621410"><ele>197.69</ele><time>2010-10-11T13:54:28Z</time></trkpt><trkpt lat="44.802672" lon="1.621335"><ele>197.21</ele><time>2010-10-11T13:54:29Z</time></trkpt><trkpt lat="44.802360" lon="1.620835"><ele>190.48</ele><time>2010-10-11T13:54:39Z</time></trkpt><trkpt lat="44.802324" lon="1.620787"><ele>188.56</ele><time>2010-10-11T13:54:43Z</time></trkpt><trkpt lat="44.802305" lon="1.620762"><ele>187.59</ele><time>2010-10-11T13:54:44Z</time></trkpt><trkpt lat="44.802283" lon="1.620732"><ele>187.11</ele><time>2010-10-11T13:54:45Z</time></trkpt><trkpt lat="44.801967" lon="1.620317"><ele>183.75</ele><time>2010-10-11T13:54:54Z</time></trkpt><trkpt lat="44.801932" lon="1.620272"><ele>183.27</ele><time>2010-10-11T13:54:55Z</time></trkpt><trkpt lat="44.801904" lon="1.620235"><ele>182.79</ele><time>2010-10-11T13:54:56Z</time></trkpt><trkpt lat="44.801884" lon="1.620209"><ele>182.31</ele><time>2010-10-11T13:54:57Z</time></trkpt><trkpt lat="44.801884" lon="1.620209"><ele>182.31</ele><time>2010-10-11T13:54:58Z</time></trkpt><trkpt lat="44.801884" lon="1.620209"><ele>181.83</ele><time>2010-10-11T13:54:59Z</time></trkpt><trkpt lat="44.801679" lon="1.619936"><ele>180.38</ele><time>2010-10-11T13:55:08Z</time></trkpt><trkpt lat="44.801440" lon="1.619595"><ele>176.06</ele><time>2010-10-11T13:55:19Z</time></trkpt><trkpt lat="44.801419" lon="1.619570"><ele>176.06</ele><time>2010-10-11T13:55:20Z</time></trkpt><trkpt lat="44.801419" lon="1.619570"><ele>175.58</ele><time>2010-10-11T13:55:21Z</time></trkpt><trkpt lat="44.801326" lon="1.619554"><ele>175.58</ele><time>2010-10-11T13:55:22Z</time></trkpt><trkpt lat="44.801317" lon="1.619582"><ele>175.58</ele><time>2010-10-11T13:55:26Z</time></trkpt><trkpt lat="44.801419" lon="1.619570"><ele>175.58</ele><time>2010-10-11T13:55:27Z</time></trkpt><trkpt lat="44.801419" lon="1.619570"><ele>175.10</ele><time>2010-10-11T13:55:42Z</time></trkpt><trkpt lat="44.801419" lon="1.619570"><ele>175.10</ele><time>2010-10-11T13:56:16Z</time></trkpt><trkpt lat="44.801419" lon="1.619570"><ele>176.06</ele><time>2010-10-11T13:56:30Z</time></trkpt><trkpt lat="44.801431" lon="1.619582"><ele>175.58</ele><time>2010-10-11T13:56:34Z</time></trkpt><trkpt lat="44.801431" lon="1.619582"><ele>175.58</ele><time>2010-10-11T13:56:35Z</time></trkpt><trkpt lat="44.801431" lon="1.619582"><ele>175.58</ele><time>2010-10-11T13:56:36Z</time></trkpt></trkseg></trk></gpx>